<?xml version="1.0" encoding="UTF-8" standalone="no" ?>
<gpx xmlns="http://www.topografix.com/GPX/1/1" xmlns:xsi="http://www.w3.org/2001/XMLSchema-instance" xsi:schemaLocation="http://www.topografix.com/GPX/1/1 http://www.topografix.com/GPX/1/1/gpx.xsd" version="1.1" creator="VisuGPX - https://www.visugpx.com">
  <metadata>
    <name>Sortie VTT le matin</name>
  </metadata>
  <trk>
    <name><![CDATA[Sortie VTT le matin_1]]></name>
    <trkseg>
      <trkpt lat="43.40822" lon="2.08063">
        <ele>623.2</ele>
        <time>2023-10-01T06:47:50Z</time>
      </trkpt>
      <trkpt lat="43.40823" lon="2.08062">
        <ele>617.4</ele>
        <time>2023-10-01T06:47:51Z</time>
      </trkpt>
      <trkpt lat="43.40824" lon="2.08056">
        <ele>621.4</ele>
        <time>2023-10-01T06:49:12Z</time>
      </trkpt>
      <trkpt lat="43.40819" lon="2.08059">
        <ele>621.4</ele>
        <time>2023-10-01T06:49:15Z</time>
      </trkpt>
      <trkpt lat="43.40814" lon="2.08066">
        <ele>621.4</ele>
        <time>2023-10-01T06:49:18Z</time>
      </trkpt>
      <trkpt lat="43.40814" lon="2.08068">
        <ele>621.4</ele>
        <time>2023-10-01T06:49:19Z</time>
      </trkpt>
      <trkpt lat="43.40814" lon="2.08072">
        <ele>621.4</ele>
        <time>2023-10-01T06:49:20Z</time>
      </trkpt>
      <trkpt lat="43.40817" lon="2.08083">
        <ele>621.6</ele>
        <time>2023-10-01T06:49:23Z</time>
      </trkpt>
      <trkpt lat="43.40819" lon="2.08087">
        <ele>621.6</ele>
        <time>2023-10-01T06:49:24Z</time>
      </trkpt>
      <trkpt lat="43.40822" lon="2.0809">
        <ele>621.6</ele>
        <time>2023-10-01T06:49:25Z</time>
      </trkpt>
      <trkpt lat="43.40824" lon="2.08092">
        <ele>621.6</ele>
        <time>2023-10-01T06:49:26Z</time>
      </trkpt>
      <trkpt lat="43.40826" lon="2.08094">
        <ele>621.8</ele>
        <time>2023-10-01T06:49:27Z</time>
      </trkpt>
      <trkpt lat="43.4083" lon="2.08095">
        <ele>621.8</ele>
        <time>2023-10-01T06:49:28Z</time>
      </trkpt>
      <trkpt lat="43.40833" lon="2.08097">
        <ele>621.8</ele>
        <time>2023-10-01T06:49:29Z</time>
      </trkpt>
      <trkpt lat="43.40862" lon="2.08106">
        <ele>622.2</ele>
        <time>2023-10-01T06:49:39Z</time>
      </trkpt>
      <trkpt lat="43.4087" lon="2.08111">
        <ele>622.2</ele>
        <time>2023-10-01T06:49:42Z</time>
      </trkpt>
      <trkpt lat="43.40872" lon="2.08114">
        <ele>622.2</ele>
        <time>2023-10-01T06:49:43Z</time>
      </trkpt>
      <trkpt lat="43.40874" lon="2.08118">
        <ele>622.2</ele>
        <time>2023-10-01T06:49:44Z</time>
      </trkpt>
      <trkpt lat="43.40875" lon="2.08121">
        <ele>622.2</ele>
        <time>2023-10-01T06:49:45Z</time>
      </trkpt>
      <trkpt lat="43.40877" lon="2.08124">
        <ele>622.2</ele>
        <time>2023-10-01T06:49:46Z</time>
      </trkpt>
      <trkpt lat="43.40878" lon="2.08126">
        <ele>622.2</ele>
        <time>2023-10-01T06:49:47Z</time>
      </trkpt>
      <trkpt lat="43.40879" lon="2.08128">
        <ele>622.2</ele>
        <time>2023-10-01T06:49:48Z</time>
      </trkpt>
      <trkpt lat="43.4088" lon="2.08129">
        <ele>622.2</ele>
        <time>2023-10-01T06:49:49Z</time>
      </trkpt>
      <trkpt lat="43.40881" lon="2.08129">
        <ele>622.2</ele>
        <time>2023-10-01T06:49:50Z</time>
      </trkpt>
      <trkpt lat="43.40881" lon="2.08129">
        <ele>622.2</ele>
        <time>2023-10-01T06:49:51Z</time>
      </trkpt>
      <trkpt lat="43.40881" lon="2.08129">
        <ele>622.2</ele>
        <time>2023-10-01T06:49:52Z</time>
      </trkpt>
      <trkpt lat="43.40887" lon="2.08128">
        <ele>622.6</ele>
        <time>2023-10-01T06:50:28Z</time>
      </trkpt>
      <trkpt lat="43.40893" lon="2.08128">
        <ele>622.6</ele>
        <time>2023-10-01T06:50:30Z</time>
      </trkpt>
      <trkpt lat="43.40911" lon="2.0812">
        <ele>622.4</ele>
        <time>2023-10-01T06:50:35Z</time>
      </trkpt>
      <trkpt lat="43.40936" lon="2.08097">
        <ele>621.8</ele>
        <time>2023-10-01T06:50:41Z</time>
      </trkpt>
      <trkpt lat="43.40945" lon="2.08088">
        <ele>621.6</ele>
        <time>2023-10-01T06:50:43Z</time>
      </trkpt>
      <trkpt lat="43.4095" lon="2.08083">
        <ele>621.4</ele>
        <time>2023-10-01T06:50:44Z</time>
      </trkpt>
      <trkpt lat="43.40966" lon="2.08067">
        <ele>620.4</ele>
        <time>2023-10-01T06:50:48Z</time>
      </trkpt>
      <trkpt lat="43.40975" lon="2.08058">
        <ele>620.4</ele>
        <time>2023-10-01T06:50:50Z</time>
      </trkpt>
      <trkpt lat="43.40982" lon="2.08055">
        <ele>620.2</ele>
        <time>2023-10-01T06:50:52Z</time>
      </trkpt>
      <trkpt lat="43.40984" lon="2.08058">
        <ele>620.2</ele>
        <time>2023-10-01T06:50:53Z</time>
      </trkpt>
      <trkpt lat="43.40986" lon="2.08063">
        <ele>620</ele>
        <time>2023-10-01T06:50:54Z</time>
      </trkpt>
      <trkpt lat="43.40986" lon="2.08068">
        <ele>619.8</ele>
        <time>2023-10-01T06:50:55Z</time>
      </trkpt>
      <trkpt lat="43.40986" lon="2.08089">
        <ele>619.6</ele>
        <time>2023-10-01T06:50:58Z</time>
      </trkpt>
      <trkpt lat="43.40986" lon="2.08098">
        <ele>619.2</ele>
        <time>2023-10-01T06:50:59Z</time>
      </trkpt>
      <trkpt lat="43.40987" lon="2.08129">
        <ele>618.8</ele>
        <time>2023-10-01T06:51:02Z</time>
      </trkpt>
      <trkpt lat="43.40986" lon="2.08139">
        <ele>618.4</ele>
        <time>2023-10-01T06:51:03Z</time>
      </trkpt>
      <trkpt lat="43.40986" lon="2.08151">
        <ele>617.8</ele>
        <time>2023-10-01T06:51:04Z</time>
      </trkpt>
      <trkpt lat="43.40986" lon="2.08172">
        <ele>616.8</ele>
        <time>2023-10-01T06:51:06Z</time>
      </trkpt>
      <trkpt lat="43.40986" lon="2.08179">
        <ele>616.4</ele>
        <time>2023-10-01T06:51:07Z</time>
      </trkpt>
      <trkpt lat="43.40987" lon="2.08185">
        <ele>615.2</ele>
        <time>2023-10-01T06:51:08Z</time>
      </trkpt>
      <trkpt lat="43.4099" lon="2.08191">
        <ele>614.8</ele>
        <time>2023-10-01T06:51:09Z</time>
      </trkpt>
      <trkpt lat="43.40993" lon="2.08196">
        <ele>613.8</ele>
        <time>2023-10-01T06:51:10Z</time>
      </trkpt>
      <trkpt lat="43.40996" lon="2.082">
        <ele>612.8</ele>
        <time>2023-10-01T06:51:11Z</time>
      </trkpt>
      <trkpt lat="43.40999" lon="2.08203">
        <ele>612</ele>
        <time>2023-10-01T06:51:12Z</time>
      </trkpt>
      <trkpt lat="43.41001" lon="2.08204">
        <ele>611.2</ele>
        <time>2023-10-01T06:51:13Z</time>
      </trkpt>
      <trkpt lat="43.41005" lon="2.08204">
        <ele>611</ele>
        <time>2023-10-01T06:51:14Z</time>
      </trkpt>
      <trkpt lat="43.4101" lon="2.08203">
        <ele>610.8</ele>
        <time>2023-10-01T06:51:15Z</time>
      </trkpt>
      <trkpt lat="43.41015" lon="2.08202">
        <ele>610.6</ele>
        <time>2023-10-01T06:51:16Z</time>
      </trkpt>
      <trkpt lat="43.41023" lon="2.08201">
        <ele>610.4</ele>
        <time>2023-10-01T06:51:17Z</time>
      </trkpt>
      <trkpt lat="43.4103" lon="2.08201">
        <ele>610.4</ele>
        <time>2023-10-01T06:51:18Z</time>
      </trkpt>
      <trkpt lat="43.41051" lon="2.08202">
        <ele>609.8</ele>
        <time>2023-10-01T06:51:20Z</time>
      </trkpt>
      <trkpt lat="43.41071" lon="2.08203">
        <ele>608</ele>
        <time>2023-10-01T06:51:22Z</time>
      </trkpt>
      <trkpt lat="43.41087" lon="2.08202">
        <ele>606.8</ele>
        <time>2023-10-01T06:51:24Z</time>
      </trkpt>
      <trkpt lat="43.41096" lon="2.08201">
        <ele>606.6</ele>
        <time>2023-10-01T06:51:25Z</time>
      </trkpt>
      <trkpt lat="43.41106" lon="2.08201">
        <ele>605.8</ele>
        <time>2023-10-01T06:51:26Z</time>
      </trkpt>
      <trkpt lat="43.41116" lon="2.082">
        <ele>604.4</ele>
        <time>2023-10-01T06:51:27Z</time>
      </trkpt>
      <trkpt lat="43.41125" lon="2.08197">
        <ele>603.2</ele>
        <time>2023-10-01T06:51:28Z</time>
      </trkpt>
      <trkpt lat="43.41134" lon="2.08193">
        <ele>601.6</ele>
        <time>2023-10-01T06:51:29Z</time>
      </trkpt>
      <trkpt lat="43.41143" lon="2.0819">
        <ele>601</ele>
        <time>2023-10-01T06:51:30Z</time>
      </trkpt>
      <trkpt lat="43.41151" lon="2.08193">
        <ele>600.2</ele>
        <time>2023-10-01T06:51:31Z</time>
      </trkpt>
      <trkpt lat="43.41158" lon="2.08196">
        <ele>599.6</ele>
        <time>2023-10-01T06:51:32Z</time>
      </trkpt>
      <trkpt lat="43.41164" lon="2.08198">
        <ele>598.6</ele>
        <time>2023-10-01T06:51:33Z</time>
      </trkpt>
      <trkpt lat="43.41169" lon="2.08201">
        <ele>598.4</ele>
        <time>2023-10-01T06:51:34Z</time>
      </trkpt>
      <trkpt lat="43.41172" lon="2.08202">
        <ele>598</ele>
        <time>2023-10-01T06:51:35Z</time>
      </trkpt>
      <trkpt lat="43.41176" lon="2.08203">
        <ele>597.8</ele>
        <time>2023-10-01T06:51:36Z</time>
      </trkpt>
      <trkpt lat="43.41179" lon="2.08204">
        <ele>597.8</ele>
        <time>2023-10-01T06:51:37Z</time>
      </trkpt>
      <trkpt lat="43.41181" lon="2.08205">
        <ele>597.8</ele>
        <time>2023-10-01T06:51:38Z</time>
      </trkpt>
      <trkpt lat="43.41182" lon="2.08205">
        <ele>597.8</ele>
        <time>2023-10-01T06:51:39Z</time>
      </trkpt>
      <trkpt lat="43.41184" lon="2.08206">
        <ele>598</ele>
        <time>2023-10-01T06:51:40Z</time>
      </trkpt>
      <trkpt lat="43.41186" lon="2.08206">
        <ele>598</ele>
        <time>2023-10-01T06:51:41Z</time>
      </trkpt>
      <trkpt lat="43.41189" lon="2.08207">
        <ele>598.4</ele>
        <time>2023-10-01T06:51:42Z</time>
      </trkpt>
      <trkpt lat="43.41193" lon="2.08208">
        <ele>599.4</ele>
        <time>2023-10-01T06:51:44Z</time>
      </trkpt>
      <trkpt lat="43.41195" lon="2.08208">
        <ele>600</ele>
        <time>2023-10-01T06:51:45Z</time>
      </trkpt>
      <trkpt lat="43.412" lon="2.08208">
        <ele>601.2</ele>
        <time>2023-10-01T06:51:47Z</time>
      </trkpt>
      <trkpt lat="43.41205" lon="2.08207">
        <ele>602.2</ele>
        <time>2023-10-01T06:51:49Z</time>
      </trkpt>
      <trkpt lat="43.41217" lon="2.08207">
        <ele>603.4</ele>
        <time>2023-10-01T06:51:53Z</time>
      </trkpt>
      <trkpt lat="43.41232" lon="2.08204">
        <ele>604.6</ele>
        <time>2023-10-01T06:51:58Z</time>
      </trkpt>
      <trkpt lat="43.41236" lon="2.08204">
        <ele>605.4</ele>
        <time>2023-10-01T06:52:00Z</time>
      </trkpt>
      <trkpt lat="43.41238" lon="2.08203">
        <ele>605.8</ele>
        <time>2023-10-01T06:52:01Z</time>
      </trkpt>
      <trkpt lat="43.41241" lon="2.08203">
        <ele>606</ele>
        <time>2023-10-01T06:52:02Z</time>
      </trkpt>
      <trkpt lat="43.41243" lon="2.08202">
        <ele>606</ele>
        <time>2023-10-01T06:52:03Z</time>
      </trkpt>
      <trkpt lat="43.41246" lon="2.08201">
        <ele>606.2</ele>
        <time>2023-10-01T06:52:04Z</time>
      </trkpt>
      <trkpt lat="43.41249" lon="2.08201">
        <ele>606.4</ele>
        <time>2023-10-01T06:52:05Z</time>
      </trkpt>
      <trkpt lat="43.41251" lon="2.08201">
        <ele>606.8</ele>
        <time>2023-10-01T06:52:06Z</time>
      </trkpt>
      <trkpt lat="43.41254" lon="2.08201">
        <ele>607</ele>
        <time>2023-10-01T06:52:07Z</time>
      </trkpt>
      <trkpt lat="43.41257" lon="2.082">
        <ele>607.2</ele>
        <time>2023-10-01T06:52:08Z</time>
      </trkpt>
      <trkpt lat="43.4126" lon="2.082">
        <ele>607.4</ele>
        <time>2023-10-01T06:52:09Z</time>
      </trkpt>
      <trkpt lat="43.41263" lon="2.08199">
        <ele>607.6</ele>
        <time>2023-10-01T06:52:10Z</time>
      </trkpt>
      <trkpt lat="43.41266" lon="2.08198">
        <ele>607.6</ele>
        <time>2023-10-01T06:52:11Z</time>
      </trkpt>
      <trkpt lat="43.41268" lon="2.08198">
        <ele>607.8</ele>
        <time>2023-10-01T06:52:12Z</time>
      </trkpt>
      <trkpt lat="43.4127" lon="2.08197">
        <ele>607.8</ele>
        <time>2023-10-01T06:52:13Z</time>
      </trkpt>
      <trkpt lat="43.41273" lon="2.08196">
        <ele>608</ele>
        <time>2023-10-01T06:52:14Z</time>
      </trkpt>
      <trkpt lat="43.41276" lon="2.08196">
        <ele>608</ele>
        <time>2023-10-01T06:52:15Z</time>
      </trkpt>
      <trkpt lat="43.41278" lon="2.08196">
        <ele>608.2</ele>
        <time>2023-10-01T06:52:16Z</time>
      </trkpt>
      <trkpt lat="43.41281" lon="2.08196">
        <ele>608.4</ele>
        <time>2023-10-01T06:52:17Z</time>
      </trkpt>
      <trkpt lat="43.41284" lon="2.08196">
        <ele>608.6</ele>
        <time>2023-10-01T06:52:18Z</time>
      </trkpt>
      <trkpt lat="43.41287" lon="2.08196">
        <ele>609</ele>
        <time>2023-10-01T06:52:19Z</time>
      </trkpt>
      <trkpt lat="43.4129" lon="2.08195">
        <ele>609</ele>
        <time>2023-10-01T06:52:20Z</time>
      </trkpt>
      <trkpt lat="43.41292" lon="2.08195">
        <ele>609.2</ele>
        <time>2023-10-01T06:52:21Z</time>
      </trkpt>
      <trkpt lat="43.41294" lon="2.08196">
        <ele>609.2</ele>
        <time>2023-10-01T06:52:22Z</time>
      </trkpt>
      <trkpt lat="43.41297" lon="2.08198">
        <ele>609.4</ele>
        <time>2023-10-01T06:52:23Z</time>
      </trkpt>
      <trkpt lat="43.413" lon="2.08199">
        <ele>609.4</ele>
        <time>2023-10-01T06:52:24Z</time>
      </trkpt>
      <trkpt lat="43.41301" lon="2.08201">
        <ele>609.4</ele>
        <time>2023-10-01T06:52:25Z</time>
      </trkpt>
      <trkpt lat="43.41302" lon="2.08203">
        <ele>609.4</ele>
        <time>2023-10-01T06:52:26Z</time>
      </trkpt>
      <trkpt lat="43.41302" lon="2.08206">
        <ele>609.4</ele>
        <time>2023-10-01T06:52:27Z</time>
      </trkpt>
      <trkpt lat="43.41302" lon="2.08208">
        <ele>609.4</ele>
        <time>2023-10-01T06:52:28Z</time>
      </trkpt>
      <trkpt lat="43.41302" lon="2.0821">
        <ele>609.4</ele>
        <time>2023-10-01T06:52:29Z</time>
      </trkpt>
      <trkpt lat="43.41303" lon="2.08212">
        <ele>609.2</ele>
        <time>2023-10-01T06:52:30Z</time>
      </trkpt>
      <trkpt lat="43.41304" lon="2.08213">
        <ele>609.2</ele>
        <time>2023-10-01T06:52:31Z</time>
      </trkpt>
      <trkpt lat="43.41304" lon="2.08214">
        <ele>609</ele>
        <time>2023-10-01T06:52:32Z</time>
      </trkpt>
      <trkpt lat="43.41305" lon="2.08215">
        <ele>609</ele>
        <time>2023-10-01T06:52:33Z</time>
      </trkpt>
      <trkpt lat="43.41306" lon="2.08215">
        <ele>608.8</ele>
        <time>2023-10-01T06:52:34Z</time>
      </trkpt>
      <trkpt lat="43.41306" lon="2.08215">
        <ele>608.6</ele>
        <time>2023-10-01T06:52:35Z</time>
      </trkpt>
      <trkpt lat="43.41306" lon="2.08215">
        <ele>608.6</ele>
        <time>2023-10-01T06:52:36Z</time>
      </trkpt>
      <trkpt lat="43.4131" lon="2.08218">
        <ele>608.2</ele>
        <time>2023-10-01T06:52:40Z</time>
      </trkpt>
      <trkpt lat="43.41312" lon="2.08221">
        <ele>608.2</ele>
        <time>2023-10-01T06:52:41Z</time>
      </trkpt>
      <trkpt lat="43.41314" lon="2.08224">
        <ele>608</ele>
        <time>2023-10-01T06:52:42Z</time>
      </trkpt>
      <trkpt lat="43.41317" lon="2.08228">
        <ele>608</ele>
        <time>2023-10-01T06:52:43Z</time>
      </trkpt>
      <trkpt lat="43.4132" lon="2.08232">
        <ele>608</ele>
        <time>2023-10-01T06:52:44Z</time>
      </trkpt>
      <trkpt lat="43.4133" lon="2.08248">
        <ele>607.8</ele>
        <time>2023-10-01T06:52:47Z</time>
      </trkpt>
      <trkpt lat="43.41344" lon="2.08276">
        <ele>607</ele>
        <time>2023-10-01T06:52:51Z</time>
      </trkpt>
      <trkpt lat="43.41347" lon="2.08284">
        <ele>606.8</ele>
        <time>2023-10-01T06:52:52Z</time>
      </trkpt>
      <trkpt lat="43.41358" lon="2.08306">
        <ele>606</ele>
        <time>2023-10-01T06:52:55Z</time>
      </trkpt>
      <trkpt lat="43.41361" lon="2.08313">
        <ele>605.6</ele>
        <time>2023-10-01T06:52:56Z</time>
      </trkpt>
      <trkpt lat="43.41363" lon="2.08321">
        <ele>605.4</ele>
        <time>2023-10-01T06:52:57Z</time>
      </trkpt>
      <trkpt lat="43.41364" lon="2.0833">
        <ele>605</ele>
        <time>2023-10-01T06:52:58Z</time>
      </trkpt>
      <trkpt lat="43.41363" lon="2.08339">
        <ele>604.6</ele>
        <time>2023-10-01T06:52:59Z</time>
      </trkpt>
      <trkpt lat="43.4136" lon="2.08347">
        <ele>604</ele>
        <time>2023-10-01T06:53:00Z</time>
      </trkpt>
      <trkpt lat="43.4135" lon="2.0836">
        <ele>603</ele>
        <time>2023-10-01T06:53:02Z</time>
      </trkpt>
      <trkpt lat="43.41343" lon="2.08365">
        <ele>602.8</ele>
        <time>2023-10-01T06:53:03Z</time>
      </trkpt>
      <trkpt lat="43.41337" lon="2.0837">
        <ele>602.4</ele>
        <time>2023-10-01T06:53:04Z</time>
      </trkpt>
      <trkpt lat="43.4133" lon="2.08373">
        <ele>602.2</ele>
        <time>2023-10-01T06:53:05Z</time>
      </trkpt>
      <trkpt lat="43.41321" lon="2.08377">
        <ele>601.6</ele>
        <time>2023-10-01T06:53:06Z</time>
      </trkpt>
      <trkpt lat="43.41315" lon="2.08379">
        <ele>601.2</ele>
        <time>2023-10-01T06:53:07Z</time>
      </trkpt>
      <trkpt lat="43.41282" lon="2.08387">
        <ele>600.6</ele>
        <time>2023-10-01T06:53:11Z</time>
      </trkpt>
      <trkpt lat="43.41267" lon="2.084">
        <ele>599.8</ele>
        <time>2023-10-01T06:53:13Z</time>
      </trkpt>
      <trkpt lat="43.4126" lon="2.08408">
        <ele>599.4</ele>
        <time>2023-10-01T06:53:14Z</time>
      </trkpt>
      <trkpt lat="43.41254" lon="2.08418">
        <ele>598.6</ele>
        <time>2023-10-01T06:53:15Z</time>
      </trkpt>
      <trkpt lat="43.41248" lon="2.08428">
        <ele>598</ele>
        <time>2023-10-01T06:53:16Z</time>
      </trkpt>
      <trkpt lat="43.41224" lon="2.08471">
        <ele>596.4</ele>
        <time>2023-10-01T06:53:20Z</time>
      </trkpt>
      <trkpt lat="43.41217" lon="2.08498">
        <ele>595.4</ele>
        <time>2023-10-01T06:53:22Z</time>
      </trkpt>
      <trkpt lat="43.41217" lon="2.08512">
        <ele>594.6</ele>
        <time>2023-10-01T06:53:23Z</time>
      </trkpt>
      <trkpt lat="43.4122" lon="2.08528">
        <ele>593.6</ele>
        <time>2023-10-01T06:53:24Z</time>
      </trkpt>
      <trkpt lat="43.41226" lon="2.0854">
        <ele>593</ele>
        <time>2023-10-01T06:53:25Z</time>
      </trkpt>
      <trkpt lat="43.41231" lon="2.08548">
        <ele>592.6</ele>
        <time>2023-10-01T06:53:26Z</time>
      </trkpt>
      <trkpt lat="43.41239" lon="2.08559">
        <ele>592</ele>
        <time>2023-10-01T06:53:27Z</time>
      </trkpt>
      <trkpt lat="43.41246" lon="2.08569">
        <ele>591.6</ele>
        <time>2023-10-01T06:53:28Z</time>
      </trkpt>
      <trkpt lat="43.41254" lon="2.08579">
        <ele>590.4</ele>
        <time>2023-10-01T06:53:29Z</time>
      </trkpt>
      <trkpt lat="43.4127" lon="2.086">
        <ele>589.4</ele>
        <time>2023-10-01T06:53:31Z</time>
      </trkpt>
      <trkpt lat="43.41287" lon="2.08617">
        <ele>588.2</ele>
        <time>2023-10-01T06:53:33Z</time>
      </trkpt>
      <trkpt lat="43.41297" lon="2.08621">
        <ele>587</ele>
        <time>2023-10-01T06:53:34Z</time>
      </trkpt>
      <trkpt lat="43.41309" lon="2.08623">
        <ele>586.4</ele>
        <time>2023-10-01T06:53:35Z</time>
      </trkpt>
      <trkpt lat="43.41317" lon="2.08623">
        <ele>585.8</ele>
        <time>2023-10-01T06:53:36Z</time>
      </trkpt>
      <trkpt lat="43.41328" lon="2.08624">
        <ele>585</ele>
        <time>2023-10-01T06:53:37Z</time>
      </trkpt>
      <trkpt lat="43.41338" lon="2.08629">
        <ele>583.8</ele>
        <time>2023-10-01T06:53:38Z</time>
      </trkpt>
      <trkpt lat="43.41347" lon="2.08635">
        <ele>583.2</ele>
        <time>2023-10-01T06:53:39Z</time>
      </trkpt>
      <trkpt lat="43.41355" lon="2.08641">
        <ele>582.2</ele>
        <time>2023-10-01T06:53:40Z</time>
      </trkpt>
      <trkpt lat="43.41365" lon="2.08646">
        <ele>581.2</ele>
        <time>2023-10-01T06:53:41Z</time>
      </trkpt>
      <trkpt lat="43.41375" lon="2.0865">
        <ele>580.6</ele>
        <time>2023-10-01T06:53:42Z</time>
      </trkpt>
      <trkpt lat="43.41384" lon="2.08656">
        <ele>579.6</ele>
        <time>2023-10-01T06:53:43Z</time>
      </trkpt>
      <trkpt lat="43.41392" lon="2.08664">
        <ele>579.2</ele>
        <time>2023-10-01T06:53:44Z</time>
      </trkpt>
      <trkpt lat="43.41398" lon="2.08676">
        <ele>578.4</ele>
        <time>2023-10-01T06:53:45Z</time>
      </trkpt>
      <trkpt lat="43.41403" lon="2.08688">
        <ele>577.8</ele>
        <time>2023-10-01T06:53:46Z</time>
      </trkpt>
      <trkpt lat="43.41408" lon="2.08698">
        <ele>577</ele>
        <time>2023-10-01T06:53:47Z</time>
      </trkpt>
      <trkpt lat="43.41413" lon="2.08706">
        <ele>576</ele>
        <time>2023-10-01T06:53:48Z</time>
      </trkpt>
      <trkpt lat="43.41419" lon="2.08708">
        <ele>575.4</ele>
        <time>2023-10-01T06:53:49Z</time>
      </trkpt>
      <trkpt lat="43.41424" lon="2.08707">
        <ele>574.2</ele>
        <time>2023-10-01T06:53:50Z</time>
      </trkpt>
      <trkpt lat="43.4143" lon="2.08702">
        <ele>574</ele>
        <time>2023-10-01T06:53:51Z</time>
      </trkpt>
      <trkpt lat="43.41436" lon="2.08694">
        <ele>573</ele>
        <time>2023-10-01T06:53:52Z</time>
      </trkpt>
      <trkpt lat="43.4145" lon="2.08679">
        <ele>571.8</ele>
        <time>2023-10-01T06:53:54Z</time>
      </trkpt>
      <trkpt lat="43.4146" lon="2.08675">
        <ele>571.4</ele>
        <time>2023-10-01T06:53:55Z</time>
      </trkpt>
      <trkpt lat="43.41468" lon="2.08674">
        <ele>570.2</ele>
        <time>2023-10-01T06:53:56Z</time>
      </trkpt>
      <trkpt lat="43.41477" lon="2.08668">
        <ele>569.6</ele>
        <time>2023-10-01T06:53:57Z</time>
      </trkpt>
      <trkpt lat="43.41485" lon="2.08661">
        <ele>569.4</ele>
        <time>2023-10-01T06:53:58Z</time>
      </trkpt>
      <trkpt lat="43.41491" lon="2.08655">
        <ele>568.8</ele>
        <time>2023-10-01T06:53:59Z</time>
      </trkpt>
      <trkpt lat="43.41496" lon="2.08652">
        <ele>568.6</ele>
        <time>2023-10-01T06:54:00Z</time>
      </trkpt>
      <trkpt lat="43.41499" lon="2.08651">
        <ele>568</ele>
        <time>2023-10-01T06:54:01Z</time>
      </trkpt>
      <trkpt lat="43.41504" lon="2.08652">
        <ele>567.8</ele>
        <time>2023-10-01T06:54:02Z</time>
      </trkpt>
      <trkpt lat="43.41509" lon="2.08653">
        <ele>567.2</ele>
        <time>2023-10-01T06:54:03Z</time>
      </trkpt>
      <trkpt lat="43.41512" lon="2.08654">
        <ele>567</ele>
        <time>2023-10-01T06:54:04Z</time>
      </trkpt>
      <trkpt lat="43.41516" lon="2.08653">
        <ele>566.6</ele>
        <time>2023-10-01T06:54:05Z</time>
      </trkpt>
      <trkpt lat="43.41519" lon="2.08651">
        <ele>566.6</ele>
        <time>2023-10-01T06:54:06Z</time>
      </trkpt>
      <trkpt lat="43.41522" lon="2.08649">
        <ele>566.4</ele>
        <time>2023-10-01T06:54:07Z</time>
      </trkpt>
      <trkpt lat="43.41525" lon="2.08647">
        <ele>566.8</ele>
        <time>2023-10-01T06:54:08Z</time>
      </trkpt>
      <trkpt lat="43.41528" lon="2.08646">
        <ele>567</ele>
        <time>2023-10-01T06:54:09Z</time>
      </trkpt>
      <trkpt lat="43.4153" lon="2.08645">
        <ele>567.4</ele>
        <time>2023-10-01T06:54:10Z</time>
      </trkpt>
      <trkpt lat="43.41532" lon="2.08643">
        <ele>567.4</ele>
        <time>2023-10-01T06:54:11Z</time>
      </trkpt>
      <trkpt lat="43.41536" lon="2.08644">
        <ele>567.6</ele>
        <time>2023-10-01T06:54:12Z</time>
      </trkpt>
      <trkpt lat="43.41539" lon="2.08645">
        <ele>568</ele>
        <time>2023-10-01T06:54:13Z</time>
      </trkpt>
      <trkpt lat="43.41542" lon="2.08646">
        <ele>568.6</ele>
        <time>2023-10-01T06:54:14Z</time>
      </trkpt>
      <trkpt lat="43.41545" lon="2.08646">
        <ele>569</ele>
        <time>2023-10-01T06:54:15Z</time>
      </trkpt>
      <trkpt lat="43.41548" lon="2.08648">
        <ele>569.2</ele>
        <time>2023-10-01T06:54:16Z</time>
      </trkpt>
      <trkpt lat="43.41559" lon="2.08646">
        <ele>570</ele>
        <time>2023-10-01T06:54:19Z</time>
      </trkpt>
      <trkpt lat="43.41563" lon="2.08643">
        <ele>570.4</ele>
        <time>2023-10-01T06:54:20Z</time>
      </trkpt>
      <trkpt lat="43.41567" lon="2.08639">
        <ele>571</ele>
        <time>2023-10-01T06:54:21Z</time>
      </trkpt>
      <trkpt lat="43.41571" lon="2.08636">
        <ele>571.2</ele>
        <time>2023-10-01T06:54:22Z</time>
      </trkpt>
      <trkpt lat="43.41586" lon="2.08627">
        <ele>572.6</ele>
        <time>2023-10-01T06:54:26Z</time>
      </trkpt>
      <trkpt lat="43.41598" lon="2.08621">
        <ele>574.2</ele>
        <time>2023-10-01T06:54:29Z</time>
      </trkpt>
      <trkpt lat="43.41602" lon="2.08619">
        <ele>574.6</ele>
        <time>2023-10-01T06:54:30Z</time>
      </trkpt>
      <trkpt lat="43.41605" lon="2.08616">
        <ele>575</ele>
        <time>2023-10-01T06:54:31Z</time>
      </trkpt>
      <trkpt lat="43.4161" lon="2.08613">
        <ele>575.2</ele>
        <time>2023-10-01T06:54:32Z</time>
      </trkpt>
      <trkpt lat="43.41613" lon="2.08612">
        <ele>575.6</ele>
        <time>2023-10-01T06:54:33Z</time>
      </trkpt>
      <trkpt lat="43.41616" lon="2.08611">
        <ele>576.2</ele>
        <time>2023-10-01T06:54:34Z</time>
      </trkpt>
      <trkpt lat="43.41619" lon="2.0861">
        <ele>576.8</ele>
        <time>2023-10-01T06:54:35Z</time>
      </trkpt>
      <trkpt lat="43.41622" lon="2.08609">
        <ele>577</ele>
        <time>2023-10-01T06:54:36Z</time>
      </trkpt>
      <trkpt lat="43.41626" lon="2.08608">
        <ele>577.6</ele>
        <time>2023-10-01T06:54:37Z</time>
      </trkpt>
      <trkpt lat="43.4163" lon="2.08606">
        <ele>578</ele>
        <time>2023-10-01T06:54:38Z</time>
      </trkpt>
      <trkpt lat="43.41632" lon="2.08606">
        <ele>578.2</ele>
        <time>2023-10-01T06:54:39Z</time>
      </trkpt>
      <trkpt lat="43.41636" lon="2.08605">
        <ele>578.4</ele>
        <time>2023-10-01T06:54:40Z</time>
      </trkpt>
      <trkpt lat="43.41639" lon="2.08604">
        <ele>578.6</ele>
        <time>2023-10-01T06:54:41Z</time>
      </trkpt>
      <trkpt lat="43.41643" lon="2.08603">
        <ele>578.8</ele>
        <time>2023-10-01T06:54:42Z</time>
      </trkpt>
      <trkpt lat="43.41647" lon="2.08602">
        <ele>579.2</ele>
        <time>2023-10-01T06:54:43Z</time>
      </trkpt>
      <trkpt lat="43.4165" lon="2.086">
        <ele>579.6</ele>
        <time>2023-10-01T06:54:44Z</time>
      </trkpt>
      <trkpt lat="43.41654" lon="2.08599">
        <ele>580.2</ele>
        <time>2023-10-01T06:54:45Z</time>
      </trkpt>
      <trkpt lat="43.41657" lon="2.08597">
        <ele>580.4</ele>
        <time>2023-10-01T06:54:46Z</time>
      </trkpt>
      <trkpt lat="43.41661" lon="2.08596">
        <ele>580.6</ele>
        <time>2023-10-01T06:54:47Z</time>
      </trkpt>
      <trkpt lat="43.41665" lon="2.08594">
        <ele>581</ele>
        <time>2023-10-01T06:54:48Z</time>
      </trkpt>
      <trkpt lat="43.41668" lon="2.08592">
        <ele>581.6</ele>
        <time>2023-10-01T06:54:49Z</time>
      </trkpt>
      <trkpt lat="43.41672" lon="2.0859">
        <ele>582</ele>
        <time>2023-10-01T06:54:50Z</time>
      </trkpt>
      <trkpt lat="43.41675" lon="2.08587">
        <ele>582.2</ele>
        <time>2023-10-01T06:54:51Z</time>
      </trkpt>
      <trkpt lat="43.41679" lon="2.08584">
        <ele>582.4</ele>
        <time>2023-10-01T06:54:52Z</time>
      </trkpt>
      <trkpt lat="43.41682" lon="2.08581">
        <ele>582.6</ele>
        <time>2023-10-01T06:54:53Z</time>
      </trkpt>
      <trkpt lat="43.41686" lon="2.08579">
        <ele>583.4</ele>
        <time>2023-10-01T06:54:54Z</time>
      </trkpt>
      <trkpt lat="43.41689" lon="2.08578">
        <ele>583.8</ele>
        <time>2023-10-01T06:54:55Z</time>
      </trkpt>
      <trkpt lat="43.41692" lon="2.08577">
        <ele>584</ele>
        <time>2023-10-01T06:54:56Z</time>
      </trkpt>
      <trkpt lat="43.41696" lon="2.08578">
        <ele>584.2</ele>
        <time>2023-10-01T06:54:57Z</time>
      </trkpt>
      <trkpt lat="43.41699" lon="2.08578">
        <ele>584.6</ele>
        <time>2023-10-01T06:54:58Z</time>
      </trkpt>
      <trkpt lat="43.41704" lon="2.08579">
        <ele>584.8</ele>
        <time>2023-10-01T06:54:59Z</time>
      </trkpt>
      <trkpt lat="43.41706" lon="2.0858">
        <ele>585</ele>
        <time>2023-10-01T06:55:00Z</time>
      </trkpt>
      <trkpt lat="43.4171" lon="2.08581">
        <ele>585.4</ele>
        <time>2023-10-01T06:55:01Z</time>
      </trkpt>
      <trkpt lat="43.41713" lon="2.08582">
        <ele>585.4</ele>
        <time>2023-10-01T06:55:02Z</time>
      </trkpt>
      <trkpt lat="43.41716" lon="2.08583">
        <ele>585.6</ele>
        <time>2023-10-01T06:55:03Z</time>
      </trkpt>
      <trkpt lat="43.41719" lon="2.08584">
        <ele>586</ele>
        <time>2023-10-01T06:55:04Z</time>
      </trkpt>
      <trkpt lat="43.41723" lon="2.08585">
        <ele>586.4</ele>
        <time>2023-10-01T06:55:05Z</time>
      </trkpt>
      <trkpt lat="43.41726" lon="2.08585">
        <ele>586.6</ele>
        <time>2023-10-01T06:55:06Z</time>
      </trkpt>
      <trkpt lat="43.41729" lon="2.08586">
        <ele>587</ele>
        <time>2023-10-01T06:55:07Z</time>
      </trkpt>
      <trkpt lat="43.41733" lon="2.08587">
        <ele>587.2</ele>
        <time>2023-10-01T06:55:08Z</time>
      </trkpt>
      <trkpt lat="43.41736" lon="2.08588">
        <ele>587.6</ele>
        <time>2023-10-01T06:55:09Z</time>
      </trkpt>
      <trkpt lat="43.41739" lon="2.08589">
        <ele>587.8</ele>
        <time>2023-10-01T06:55:10Z</time>
      </trkpt>
      <trkpt lat="43.41742" lon="2.0859">
        <ele>588</ele>
        <time>2023-10-01T06:55:11Z</time>
      </trkpt>
      <trkpt lat="43.41746" lon="2.08591">
        <ele>588.8</ele>
        <time>2023-10-01T06:55:12Z</time>
      </trkpt>
      <trkpt lat="43.41749" lon="2.08592">
        <ele>589.2</ele>
        <time>2023-10-01T06:55:13Z</time>
      </trkpt>
      <trkpt lat="43.41752" lon="2.08593">
        <ele>589.8</ele>
        <time>2023-10-01T06:55:14Z</time>
      </trkpt>
      <trkpt lat="43.41755" lon="2.08594">
        <ele>590</ele>
        <time>2023-10-01T06:55:15Z</time>
      </trkpt>
      <trkpt lat="43.41759" lon="2.08596">
        <ele>590.6</ele>
        <time>2023-10-01T06:55:16Z</time>
      </trkpt>
      <trkpt lat="43.41762" lon="2.08595">
        <ele>590.8</ele>
        <time>2023-10-01T06:55:17Z</time>
      </trkpt>
      <trkpt lat="43.41766" lon="2.08594">
        <ele>591.2</ele>
        <time>2023-10-01T06:55:18Z</time>
      </trkpt>
      <trkpt lat="43.4177" lon="2.08592">
        <ele>591.6</ele>
        <time>2023-10-01T06:55:19Z</time>
      </trkpt>
      <trkpt lat="43.41773" lon="2.08589">
        <ele>592</ele>
        <time>2023-10-01T06:55:20Z</time>
      </trkpt>
      <trkpt lat="43.41776" lon="2.08585">
        <ele>592.8</ele>
        <time>2023-10-01T06:55:21Z</time>
      </trkpt>
      <trkpt lat="43.41778" lon="2.08581">
        <ele>593</ele>
        <time>2023-10-01T06:55:22Z</time>
      </trkpt>
      <trkpt lat="43.4178" lon="2.08577">
        <ele>593.4</ele>
        <time>2023-10-01T06:55:23Z</time>
      </trkpt>
      <trkpt lat="43.41781" lon="2.08572">
        <ele>593.6</ele>
        <time>2023-10-01T06:55:24Z</time>
      </trkpt>
      <trkpt lat="43.41782" lon="2.08567">
        <ele>593.8</ele>
        <time>2023-10-01T06:55:25Z</time>
      </trkpt>
      <trkpt lat="43.41782" lon="2.08562">
        <ele>594.4</ele>
        <time>2023-10-01T06:55:26Z</time>
      </trkpt>
      <trkpt lat="43.41782" lon="2.08557">
        <ele>594.8</ele>
        <time>2023-10-01T06:55:27Z</time>
      </trkpt>
      <trkpt lat="43.41783" lon="2.08553">
        <ele>595.6</ele>
        <time>2023-10-01T06:55:28Z</time>
      </trkpt>
      <trkpt lat="43.41784" lon="2.08548">
        <ele>596</ele>
        <time>2023-10-01T06:55:29Z</time>
      </trkpt>
      <trkpt lat="43.41784" lon="2.08544">
        <ele>596.6</ele>
        <time>2023-10-01T06:55:30Z</time>
      </trkpt>
      <trkpt lat="43.41785" lon="2.08539">
        <ele>597</ele>
        <time>2023-10-01T06:55:31Z</time>
      </trkpt>
      <trkpt lat="43.41786" lon="2.08535">
        <ele>597.6</ele>
        <time>2023-10-01T06:55:32Z</time>
      </trkpt>
      <trkpt lat="43.41786" lon="2.08531">
        <ele>597.8</ele>
        <time>2023-10-01T06:55:33Z</time>
      </trkpt>
      <trkpt lat="43.41787" lon="2.08527">
        <ele>598.4</ele>
        <time>2023-10-01T06:55:34Z</time>
      </trkpt>
      <trkpt lat="43.41787" lon="2.08522">
        <ele>599</ele>
        <time>2023-10-01T06:55:35Z</time>
      </trkpt>
      <trkpt lat="43.41788" lon="2.08518">
        <ele>599.2</ele>
        <time>2023-10-01T06:55:36Z</time>
      </trkpt>
      <trkpt lat="43.41789" lon="2.08513">
        <ele>599.8</ele>
        <time>2023-10-01T06:55:37Z</time>
      </trkpt>
      <trkpt lat="43.41789" lon="2.08508">
        <ele>600.2</ele>
        <time>2023-10-01T06:55:38Z</time>
      </trkpt>
      <trkpt lat="43.41789" lon="2.08503">
        <ele>600.8</ele>
        <time>2023-10-01T06:55:39Z</time>
      </trkpt>
      <trkpt lat="43.41788" lon="2.08499">
        <ele>601.2</ele>
        <time>2023-10-01T06:55:40Z</time>
      </trkpt>
      <trkpt lat="43.41787" lon="2.08494">
        <ele>601.8</ele>
        <time>2023-10-01T06:55:41Z</time>
      </trkpt>
      <trkpt lat="43.41786" lon="2.08489">
        <ele>602</ele>
        <time>2023-10-01T06:55:42Z</time>
      </trkpt>
      <trkpt lat="43.41786" lon="2.08485">
        <ele>602.6</ele>
        <time>2023-10-01T06:55:43Z</time>
      </trkpt>
      <trkpt lat="43.41785" lon="2.0848">
        <ele>603.2</ele>
        <time>2023-10-01T06:55:44Z</time>
      </trkpt>
      <trkpt lat="43.41784" lon="2.08476">
        <ele>603.6</ele>
        <time>2023-10-01T06:55:45Z</time>
      </trkpt>
      <trkpt lat="43.41784" lon="2.08472">
        <ele>604.4</ele>
        <time>2023-10-01T06:55:46Z</time>
      </trkpt>
      <trkpt lat="43.41784" lon="2.08467">
        <ele>604.8</ele>
        <time>2023-10-01T06:55:47Z</time>
      </trkpt>
      <trkpt lat="43.41784" lon="2.08463">
        <ele>605.4</ele>
        <time>2023-10-01T06:55:48Z</time>
      </trkpt>
      <trkpt lat="43.41785" lon="2.08458">
        <ele>605.6</ele>
        <time>2023-10-01T06:55:49Z</time>
      </trkpt>
      <trkpt lat="43.41786" lon="2.08453">
        <ele>606.4</ele>
        <time>2023-10-01T06:55:50Z</time>
      </trkpt>
      <trkpt lat="43.41787" lon="2.08449">
        <ele>607</ele>
        <time>2023-10-01T06:55:51Z</time>
      </trkpt>
      <trkpt lat="43.41789" lon="2.08445">
        <ele>607.4</ele>
        <time>2023-10-01T06:55:52Z</time>
      </trkpt>
      <trkpt lat="43.41791" lon="2.08441">
        <ele>607.8</ele>
        <time>2023-10-01T06:55:53Z</time>
      </trkpt>
      <trkpt lat="43.41793" lon="2.08438">
        <ele>608</ele>
        <time>2023-10-01T06:55:54Z</time>
      </trkpt>
      <trkpt lat="43.41795" lon="2.08434">
        <ele>608.6</ele>
        <time>2023-10-01T06:55:55Z</time>
      </trkpt>
      <trkpt lat="43.41797" lon="2.0843">
        <ele>608.6</ele>
        <time>2023-10-01T06:55:56Z</time>
      </trkpt>
      <trkpt lat="43.41799" lon="2.08427">
        <ele>609.2</ele>
        <time>2023-10-01T06:55:57Z</time>
      </trkpt>
      <trkpt lat="43.41801" lon="2.08424">
        <ele>609.6</ele>
        <time>2023-10-01T06:55:58Z</time>
      </trkpt>
      <trkpt lat="43.41804" lon="2.08421">
        <ele>610.4</ele>
        <time>2023-10-01T06:55:59Z</time>
      </trkpt>
      <trkpt lat="43.41806" lon="2.08419">
        <ele>611</ele>
        <time>2023-10-01T06:56:00Z</time>
      </trkpt>
      <trkpt lat="43.41809" lon="2.08417">
        <ele>611.4</ele>
        <time>2023-10-01T06:56:01Z</time>
      </trkpt>
      <trkpt lat="43.41811" lon="2.08414">
        <ele>611.8</ele>
        <time>2023-10-01T06:56:02Z</time>
      </trkpt>
      <trkpt lat="43.41814" lon="2.08412">
        <ele>612.2</ele>
        <time>2023-10-01T06:56:03Z</time>
      </trkpt>
      <trkpt lat="43.41816" lon="2.0841">
        <ele>612.6</ele>
        <time>2023-10-01T06:56:04Z</time>
      </trkpt>
      <trkpt lat="43.41819" lon="2.08407">
        <ele>612.8</ele>
        <time>2023-10-01T06:56:05Z</time>
      </trkpt>
      <trkpt lat="43.41821" lon="2.08405">
        <ele>613.4</ele>
        <time>2023-10-01T06:56:06Z</time>
      </trkpt>
      <trkpt lat="43.41824" lon="2.08403">
        <ele>613.8</ele>
        <time>2023-10-01T06:56:07Z</time>
      </trkpt>
      <trkpt lat="43.41826" lon="2.084">
        <ele>614</ele>
        <time>2023-10-01T06:56:08Z</time>
      </trkpt>
      <trkpt lat="43.41829" lon="2.08398">
        <ele>614.8</ele>
        <time>2023-10-01T06:56:09Z</time>
      </trkpt>
      <trkpt lat="43.41831" lon="2.08396">
        <ele>615.2</ele>
        <time>2023-10-01T06:56:10Z</time>
      </trkpt>
      <trkpt lat="43.41834" lon="2.08393">
        <ele>615.8</ele>
        <time>2023-10-01T06:56:11Z</time>
      </trkpt>
      <trkpt lat="43.41836" lon="2.08391">
        <ele>616</ele>
        <time>2023-10-01T06:56:12Z</time>
      </trkpt>
      <trkpt lat="43.41838" lon="2.08388">
        <ele>616.4</ele>
        <time>2023-10-01T06:56:13Z</time>
      </trkpt>
      <trkpt lat="43.4184" lon="2.08385">
        <ele>616.8</ele>
        <time>2023-10-01T06:56:14Z</time>
      </trkpt>
      <trkpt lat="43.41842" lon="2.08381">
        <ele>617.2</ele>
        <time>2023-10-01T06:56:15Z</time>
      </trkpt>
      <trkpt lat="43.41843" lon="2.08378">
        <ele>617.6</ele>
        <time>2023-10-01T06:56:16Z</time>
      </trkpt>
      <trkpt lat="43.41845" lon="2.08374">
        <ele>617.8</ele>
        <time>2023-10-01T06:56:17Z</time>
      </trkpt>
      <trkpt lat="43.41846" lon="2.08369">
        <ele>618.4</ele>
        <time>2023-10-01T06:56:18Z</time>
      </trkpt>
      <trkpt lat="43.41846" lon="2.08365">
        <ele>618.6</ele>
        <time>2023-10-01T06:56:19Z</time>
      </trkpt>
      <trkpt lat="43.41847" lon="2.0836">
        <ele>619.6</ele>
        <time>2023-10-01T06:56:20Z</time>
      </trkpt>
      <trkpt lat="43.41847" lon="2.08355">
        <ele>620</ele>
        <time>2023-10-01T06:56:21Z</time>
      </trkpt>
      <trkpt lat="43.41848" lon="2.08351">
        <ele>620.2</ele>
        <time>2023-10-01T06:56:22Z</time>
      </trkpt>
      <trkpt lat="43.4185" lon="2.08347">
        <ele>620.4</ele>
        <time>2023-10-01T06:56:23Z</time>
      </trkpt>
      <trkpt lat="43.41852" lon="2.08343">
        <ele>620.8</ele>
        <time>2023-10-01T06:56:24Z</time>
      </trkpt>
      <trkpt lat="43.41855" lon="2.0834">
        <ele>621</ele>
        <time>2023-10-01T06:56:25Z</time>
      </trkpt>
      <trkpt lat="43.41858" lon="2.08337">
        <ele>621</ele>
        <time>2023-10-01T06:56:26Z</time>
      </trkpt>
      <trkpt lat="43.4186" lon="2.08334">
        <ele>621.2</ele>
        <time>2023-10-01T06:56:27Z</time>
      </trkpt>
      <trkpt lat="43.41863" lon="2.08332">
        <ele>621.4</ele>
        <time>2023-10-01T06:56:28Z</time>
      </trkpt>
      <trkpt lat="43.41866" lon="2.08329">
        <ele>621.6</ele>
        <time>2023-10-01T06:56:29Z</time>
      </trkpt>
      <trkpt lat="43.41869" lon="2.08326">
        <ele>622</ele>
        <time>2023-10-01T06:56:30Z</time>
      </trkpt>
      <trkpt lat="43.41872" lon="2.08323">
        <ele>622.6</ele>
        <time>2023-10-01T06:56:31Z</time>
      </trkpt>
      <trkpt lat="43.41875" lon="2.0832">
        <ele>622.8</ele>
        <time>2023-10-01T06:56:32Z</time>
      </trkpt>
      <trkpt lat="43.41878" lon="2.08318">
        <ele>623.4</ele>
        <time>2023-10-01T06:56:33Z</time>
      </trkpt>
      <trkpt lat="43.41881" lon="2.08315">
        <ele>623.8</ele>
        <time>2023-10-01T06:56:34Z</time>
      </trkpt>
      <trkpt lat="43.41885" lon="2.08311">
        <ele>624</ele>
        <time>2023-10-01T06:56:35Z</time>
      </trkpt>
      <trkpt lat="43.41888" lon="2.08308">
        <ele>624.4</ele>
        <time>2023-10-01T06:56:36Z</time>
      </trkpt>
      <trkpt lat="43.41891" lon="2.08304">
        <ele>624.8</ele>
        <time>2023-10-01T06:56:37Z</time>
      </trkpt>
      <trkpt lat="43.41894" lon="2.083">
        <ele>625.2</ele>
        <time>2023-10-01T06:56:38Z</time>
      </trkpt>
      <trkpt lat="43.41897" lon="2.08296">
        <ele>625.6</ele>
        <time>2023-10-01T06:56:39Z</time>
      </trkpt>
      <trkpt lat="43.41899" lon="2.08291">
        <ele>625.8</ele>
        <time>2023-10-01T06:56:40Z</time>
      </trkpt>
      <trkpt lat="43.41902" lon="2.08287">
        <ele>626.2</ele>
        <time>2023-10-01T06:56:41Z</time>
      </trkpt>
      <trkpt lat="43.41905" lon="2.08282">
        <ele>626.2</ele>
        <time>2023-10-01T06:56:42Z</time>
      </trkpt>
      <trkpt lat="43.41907" lon="2.08278">
        <ele>626.8</ele>
        <time>2023-10-01T06:56:43Z</time>
      </trkpt>
      <trkpt lat="43.4191" lon="2.08273">
        <ele>627</ele>
        <time>2023-10-01T06:56:44Z</time>
      </trkpt>
      <trkpt lat="43.41912" lon="2.08269">
        <ele>627</ele>
        <time>2023-10-01T06:56:45Z</time>
      </trkpt>
      <trkpt lat="43.41914" lon="2.08264">
        <ele>627.2</ele>
        <time>2023-10-01T06:56:46Z</time>
      </trkpt>
      <trkpt lat="43.41917" lon="2.0826">
        <ele>627.6</ele>
        <time>2023-10-01T06:56:47Z</time>
      </trkpt>
      <trkpt lat="43.41919" lon="2.08256">
        <ele>627.6</ele>
        <time>2023-10-01T06:56:48Z</time>
      </trkpt>
      <trkpt lat="43.41922" lon="2.08253">
        <ele>628</ele>
        <time>2023-10-01T06:56:49Z</time>
      </trkpt>
      <trkpt lat="43.41925" lon="2.08249">
        <ele>628.2</ele>
        <time>2023-10-01T06:56:50Z</time>
      </trkpt>
      <trkpt lat="43.41928" lon="2.08244">
        <ele>628.2</ele>
        <time>2023-10-01T06:56:51Z</time>
      </trkpt>
      <trkpt lat="43.41931" lon="2.0824">
        <ele>628.2</ele>
        <time>2023-10-01T06:56:52Z</time>
      </trkpt>
      <trkpt lat="43.41934" lon="2.08235">
        <ele>628.2</ele>
        <time>2023-10-01T06:56:53Z</time>
      </trkpt>
      <trkpt lat="43.41938" lon="2.0823">
        <ele>628.2</ele>
        <time>2023-10-01T06:56:54Z</time>
      </trkpt>
      <trkpt lat="43.41942" lon="2.08225">
        <ele>628.4</ele>
        <time>2023-10-01T06:56:55Z</time>
      </trkpt>
      <trkpt lat="43.41946" lon="2.0822">
        <ele>628.4</ele>
        <time>2023-10-01T06:56:56Z</time>
      </trkpt>
      <trkpt lat="43.4195" lon="2.08215">
        <ele>628.4</ele>
        <time>2023-10-01T06:56:57Z</time>
      </trkpt>
      <trkpt lat="43.41955" lon="2.08209">
        <ele>628.4</ele>
        <time>2023-10-01T06:56:58Z</time>
      </trkpt>
      <trkpt lat="43.41959" lon="2.08203">
        <ele>628.4</ele>
        <time>2023-10-01T06:56:59Z</time>
      </trkpt>
      <trkpt lat="43.41962" lon="2.08196">
        <ele>628.4</ele>
        <time>2023-10-01T06:57:00Z</time>
      </trkpt>
      <trkpt lat="43.41965" lon="2.08188">
        <ele>628.2</ele>
        <time>2023-10-01T06:57:01Z</time>
      </trkpt>
      <trkpt lat="43.41968" lon="2.0818">
        <ele>628</ele>
        <time>2023-10-01T06:57:02Z</time>
      </trkpt>
      <trkpt lat="43.41971" lon="2.08173">
        <ele>627.8</ele>
        <time>2023-10-01T06:57:03Z</time>
      </trkpt>
      <trkpt lat="43.41974" lon="2.08165">
        <ele>627.8</ele>
        <time>2023-10-01T06:57:04Z</time>
      </trkpt>
      <trkpt lat="43.41977" lon="2.08158">
        <ele>627.4</ele>
        <time>2023-10-01T06:57:05Z</time>
      </trkpt>
      <trkpt lat="43.41979" lon="2.0815">
        <ele>627</ele>
        <time>2023-10-01T06:57:06Z</time>
      </trkpt>
      <trkpt lat="43.41981" lon="2.08142">
        <ele>627</ele>
        <time>2023-10-01T06:57:07Z</time>
      </trkpt>
      <trkpt lat="43.41984" lon="2.08134">
        <ele>626.8</ele>
        <time>2023-10-01T06:57:08Z</time>
      </trkpt>
      <trkpt lat="43.41987" lon="2.08118">
        <ele>626.4</ele>
        <time>2023-10-01T06:57:10Z</time>
      </trkpt>
      <trkpt lat="43.41989" lon="2.08093">
        <ele>626.2</ele>
        <time>2023-10-01T06:57:13Z</time>
      </trkpt>
      <trkpt lat="43.41985" lon="2.08078">
        <ele>626</ele>
        <time>2023-10-01T06:57:15Z</time>
      </trkpt>
      <trkpt lat="43.41981" lon="2.08071">
        <ele>625.8</ele>
        <time>2023-10-01T06:57:16Z</time>
      </trkpt>
      <trkpt lat="43.41977" lon="2.08065">
        <ele>625.4</ele>
        <time>2023-10-01T06:57:17Z</time>
      </trkpt>
      <trkpt lat="43.41972" lon="2.08059">
        <ele>625.4</ele>
        <time>2023-10-01T06:57:18Z</time>
      </trkpt>
      <trkpt lat="43.41968" lon="2.08051">
        <ele>625.2</ele>
        <time>2023-10-01T06:57:19Z</time>
      </trkpt>
      <trkpt lat="43.41965" lon="2.08043">
        <ele>625</ele>
        <time>2023-10-01T06:57:20Z</time>
      </trkpt>
      <trkpt lat="43.41962" lon="2.08035">
        <ele>624.8</ele>
        <time>2023-10-01T06:57:21Z</time>
      </trkpt>
      <trkpt lat="43.41957" lon="2.0802">
        <ele>624.6</ele>
        <time>2023-10-01T06:57:23Z</time>
      </trkpt>
      <trkpt lat="43.41954" lon="2.08014">
        <ele>624.4</ele>
        <time>2023-10-01T06:57:24Z</time>
      </trkpt>
      <trkpt lat="43.4195" lon="2.08009">
        <ele>624.2</ele>
        <time>2023-10-01T06:57:25Z</time>
      </trkpt>
      <trkpt lat="43.41945" lon="2.08004">
        <ele>624</ele>
        <time>2023-10-01T06:57:26Z</time>
      </trkpt>
      <trkpt lat="43.41942" lon="2.07998">
        <ele>623.8</ele>
        <time>2023-10-01T06:57:27Z</time>
      </trkpt>
      <trkpt lat="43.41939" lon="2.07991">
        <ele>623.6</ele>
        <time>2023-10-01T06:57:28Z</time>
      </trkpt>
      <trkpt lat="43.41939" lon="2.07983">
        <ele>623.4</ele>
        <time>2023-10-01T06:57:29Z</time>
      </trkpt>
      <trkpt lat="43.4194" lon="2.07976">
        <ele>623.2</ele>
        <time>2023-10-01T06:57:30Z</time>
      </trkpt>
      <trkpt lat="43.41943" lon="2.0797">
        <ele>623</ele>
        <time>2023-10-01T06:57:31Z</time>
      </trkpt>
      <trkpt lat="43.41947" lon="2.07965">
        <ele>623</ele>
        <time>2023-10-01T06:57:32Z</time>
      </trkpt>
      <trkpt lat="43.41951" lon="2.07961">
        <ele>623</ele>
        <time>2023-10-01T06:57:33Z</time>
      </trkpt>
      <trkpt lat="43.41955" lon="2.07956">
        <ele>622.8</ele>
        <time>2023-10-01T06:57:34Z</time>
      </trkpt>
      <trkpt lat="43.41959" lon="2.07951">
        <ele>622.8</ele>
        <time>2023-10-01T06:57:35Z</time>
      </trkpt>
      <trkpt lat="43.41964" lon="2.07938">
        <ele>622.8</ele>
        <time>2023-10-01T06:57:37Z</time>
      </trkpt>
      <trkpt lat="43.41966" lon="2.07931">
        <ele>622.8</ele>
        <time>2023-10-01T06:57:38Z</time>
      </trkpt>
      <trkpt lat="43.41968" lon="2.07924">
        <ele>622.8</ele>
        <time>2023-10-01T06:57:39Z</time>
      </trkpt>
      <trkpt lat="43.41968" lon="2.07917">
        <ele>622.8</ele>
        <time>2023-10-01T06:57:40Z</time>
      </trkpt>
      <trkpt lat="43.41968" lon="2.0791">
        <ele>622.8</ele>
        <time>2023-10-01T06:57:41Z</time>
      </trkpt>
      <trkpt lat="43.41967" lon="2.07903">
        <ele>623</ele>
        <time>2023-10-01T06:57:42Z</time>
      </trkpt>
      <trkpt lat="43.41965" lon="2.07896">
        <ele>623.2</ele>
        <time>2023-10-01T06:57:43Z</time>
      </trkpt>
      <trkpt lat="43.41962" lon="2.0789">
        <ele>623.4</ele>
        <time>2023-10-01T06:57:44Z</time>
      </trkpt>
      <trkpt lat="43.4196" lon="2.07884">
        <ele>623.4</ele>
        <time>2023-10-01T06:57:45Z</time>
      </trkpt>
      <trkpt lat="43.41955" lon="2.07873">
        <ele>623.6</ele>
        <time>2023-10-01T06:57:47Z</time>
      </trkpt>
      <trkpt lat="43.41952" lon="2.07869">
        <ele>623.8</ele>
        <time>2023-10-01T06:57:48Z</time>
      </trkpt>
      <trkpt lat="43.4195" lon="2.07865">
        <ele>623.8</ele>
        <time>2023-10-01T06:57:49Z</time>
      </trkpt>
      <trkpt lat="43.41947" lon="2.07862">
        <ele>624</ele>
        <time>2023-10-01T06:57:50Z</time>
      </trkpt>
      <trkpt lat="43.41939" lon="2.07855">
        <ele>624</ele>
        <time>2023-10-01T06:57:52Z</time>
      </trkpt>
      <trkpt lat="43.41934" lon="2.07852">
        <ele>624.6</ele>
        <time>2023-10-01T06:57:53Z</time>
      </trkpt>
      <trkpt lat="43.41929" lon="2.0785">
        <ele>625</ele>
        <time>2023-10-01T06:57:54Z</time>
      </trkpt>
      <trkpt lat="43.41923" lon="2.07849">
        <ele>625.2</ele>
        <time>2023-10-01T06:57:55Z</time>
      </trkpt>
      <trkpt lat="43.41917" lon="2.07848">
        <ele>626</ele>
        <time>2023-10-01T06:57:56Z</time>
      </trkpt>
      <trkpt lat="43.41911" lon="2.07847">
        <ele>626.2</ele>
        <time>2023-10-01T06:57:57Z</time>
      </trkpt>
      <trkpt lat="43.41904" lon="2.07836">
        <ele>627</ele>
        <time>2023-10-01T06:57:59Z</time>
      </trkpt>
      <trkpt lat="43.41903" lon="2.07829">
        <ele>627.4</ele>
        <time>2023-10-01T06:58:00Z</time>
      </trkpt>
      <trkpt lat="43.41904" lon="2.07822">
        <ele>627.6</ele>
        <time>2023-10-01T06:58:01Z</time>
      </trkpt>
      <trkpt lat="43.41908" lon="2.07816">
        <ele>628.4</ele>
        <time>2023-10-01T06:58:02Z</time>
      </trkpt>
      <trkpt lat="43.41912" lon="2.0781">
        <ele>629.2</ele>
        <time>2023-10-01T06:58:03Z</time>
      </trkpt>
      <trkpt lat="43.41916" lon="2.07805">
        <ele>629.4</ele>
        <time>2023-10-01T06:58:04Z</time>
      </trkpt>
      <trkpt lat="43.41919" lon="2.07798">
        <ele>629.8</ele>
        <time>2023-10-01T06:58:05Z</time>
      </trkpt>
      <trkpt lat="43.41921" lon="2.07791">
        <ele>630</ele>
        <time>2023-10-01T06:58:06Z</time>
      </trkpt>
      <trkpt lat="43.41923" lon="2.07784">
        <ele>630.2</ele>
        <time>2023-10-01T06:58:07Z</time>
      </trkpt>
      <trkpt lat="43.41924" lon="2.07777">
        <ele>630.4</ele>
        <time>2023-10-01T06:58:08Z</time>
      </trkpt>
      <trkpt lat="43.41925" lon="2.07769">
        <ele>630.8</ele>
        <time>2023-10-01T06:58:09Z</time>
      </trkpt>
      <trkpt lat="43.41925" lon="2.07762">
        <ele>631</ele>
        <time>2023-10-01T06:58:10Z</time>
      </trkpt>
      <trkpt lat="43.41926" lon="2.07755">
        <ele>631.2</ele>
        <time>2023-10-01T06:58:11Z</time>
      </trkpt>
      <trkpt lat="43.41926" lon="2.07749">
        <ele>631.6</ele>
        <time>2023-10-01T06:58:12Z</time>
      </trkpt>
      <trkpt lat="43.41926" lon="2.07743">
        <ele>631.8</ele>
        <time>2023-10-01T06:58:13Z</time>
      </trkpt>
      <trkpt lat="43.41927" lon="2.07738">
        <ele>632.2</ele>
        <time>2023-10-01T06:58:14Z</time>
      </trkpt>
      <trkpt lat="43.41927" lon="2.07734">
        <ele>632.8</ele>
        <time>2023-10-01T06:58:15Z</time>
      </trkpt>
      <trkpt lat="43.41928" lon="2.07729">
        <ele>633.4</ele>
        <time>2023-10-01T06:58:16Z</time>
      </trkpt>
      <trkpt lat="43.41927" lon="2.07725">
        <ele>633.6</ele>
        <time>2023-10-01T06:58:17Z</time>
      </trkpt>
      <trkpt lat="43.41926" lon="2.0772">
        <ele>634</ele>
        <time>2023-10-01T06:58:18Z</time>
      </trkpt>
      <trkpt lat="43.41926" lon="2.07714">
        <ele>634.6</ele>
        <time>2023-10-01T06:58:19Z</time>
      </trkpt>
      <trkpt lat="43.41925" lon="2.07709">
        <ele>634.8</ele>
        <time>2023-10-01T06:58:20Z</time>
      </trkpt>
      <trkpt lat="43.41923" lon="2.07703">
        <ele>635.2</ele>
        <time>2023-10-01T06:58:21Z</time>
      </trkpt>
      <trkpt lat="43.4192" lon="2.07697">
        <ele>635.4</ele>
        <time>2023-10-01T06:58:22Z</time>
      </trkpt>
      <trkpt lat="43.41917" lon="2.07691">
        <ele>635.8</ele>
        <time>2023-10-01T06:58:23Z</time>
      </trkpt>
      <trkpt lat="43.41914" lon="2.07685">
        <ele>635.8</ele>
        <time>2023-10-01T06:58:24Z</time>
      </trkpt>
      <trkpt lat="43.41911" lon="2.07679">
        <ele>636</ele>
        <time>2023-10-01T06:58:25Z</time>
      </trkpt>
      <trkpt lat="43.41908" lon="2.07673">
        <ele>636.2</ele>
        <time>2023-10-01T06:58:26Z</time>
      </trkpt>
      <trkpt lat="43.41906" lon="2.07668">
        <ele>636.4</ele>
        <time>2023-10-01T06:58:27Z</time>
      </trkpt>
      <trkpt lat="43.41904" lon="2.07662">
        <ele>636.6</ele>
        <time>2023-10-01T06:58:28Z</time>
      </trkpt>
      <trkpt lat="43.41902" lon="2.07657">
        <ele>636.6</ele>
        <time>2023-10-01T06:58:29Z</time>
      </trkpt>
      <trkpt lat="43.419" lon="2.07651">
        <ele>636.6</ele>
        <time>2023-10-01T06:58:30Z</time>
      </trkpt>
      <trkpt lat="43.41898" lon="2.07646">
        <ele>637</ele>
        <time>2023-10-01T06:58:31Z</time>
      </trkpt>
      <trkpt lat="43.41896" lon="2.0764">
        <ele>637.4</ele>
        <time>2023-10-01T06:58:32Z</time>
      </trkpt>
      <trkpt lat="43.41895" lon="2.07634">
        <ele>637.8</ele>
        <time>2023-10-01T06:58:33Z</time>
      </trkpt>
      <trkpt lat="43.41894" lon="2.07629">
        <ele>638.2</ele>
        <time>2023-10-01T06:58:34Z</time>
      </trkpt>
      <trkpt lat="43.41892" lon="2.07623">
        <ele>639</ele>
        <time>2023-10-01T06:58:35Z</time>
      </trkpt>
      <trkpt lat="43.41889" lon="2.07618">
        <ele>639.4</ele>
        <time>2023-10-01T06:58:36Z</time>
      </trkpt>
      <trkpt lat="43.41887" lon="2.07612">
        <ele>640</ele>
        <time>2023-10-01T06:58:37Z</time>
      </trkpt>
      <trkpt lat="43.41885" lon="2.07605">
        <ele>640.2</ele>
        <time>2023-10-01T06:58:38Z</time>
      </trkpt>
      <trkpt lat="43.41883" lon="2.07599">
        <ele>640.6</ele>
        <time>2023-10-01T06:58:39Z</time>
      </trkpt>
      <trkpt lat="43.41883" lon="2.07592">
        <ele>640.8</ele>
        <time>2023-10-01T06:58:40Z</time>
      </trkpt>
      <trkpt lat="43.41883" lon="2.07586">
        <ele>641.6</ele>
        <time>2023-10-01T06:58:41Z</time>
      </trkpt>
      <trkpt lat="43.41883" lon="2.07579">
        <ele>642.2</ele>
        <time>2023-10-01T06:58:42Z</time>
      </trkpt>
      <trkpt lat="43.41884" lon="2.07573">
        <ele>642.6</ele>
        <time>2023-10-01T06:58:43Z</time>
      </trkpt>
      <trkpt lat="43.41883" lon="2.07567">
        <ele>643.4</ele>
        <time>2023-10-01T06:58:44Z</time>
      </trkpt>
      <trkpt lat="43.41883" lon="2.07561">
        <ele>643.8</ele>
        <time>2023-10-01T06:58:45Z</time>
      </trkpt>
      <trkpt lat="43.41883" lon="2.07554">
        <ele>644.2</ele>
        <time>2023-10-01T06:58:46Z</time>
      </trkpt>
      <trkpt lat="43.41884" lon="2.07547">
        <ele>644.4</ele>
        <time>2023-10-01T06:58:47Z</time>
      </trkpt>
      <trkpt lat="43.41884" lon="2.0754">
        <ele>644.8</ele>
        <time>2023-10-01T06:58:48Z</time>
      </trkpt>
      <trkpt lat="43.41884" lon="2.07533">
        <ele>645</ele>
        <time>2023-10-01T06:58:49Z</time>
      </trkpt>
      <trkpt lat="43.41884" lon="2.07526">
        <ele>645.6</ele>
        <time>2023-10-01T06:58:50Z</time>
      </trkpt>
      <trkpt lat="43.41885" lon="2.0752">
        <ele>646.2</ele>
        <time>2023-10-01T06:58:51Z</time>
      </trkpt>
      <trkpt lat="43.41886" lon="2.07514">
        <ele>646.6</ele>
        <time>2023-10-01T06:58:52Z</time>
      </trkpt>
      <trkpt lat="43.41887" lon="2.07508">
        <ele>647.4</ele>
        <time>2023-10-01T06:58:53Z</time>
      </trkpt>
      <trkpt lat="43.41887" lon="2.07502">
        <ele>648</ele>
        <time>2023-10-01T06:58:54Z</time>
      </trkpt>
      <trkpt lat="43.41887" lon="2.07497">
        <ele>649.2</ele>
        <time>2023-10-01T06:58:55Z</time>
      </trkpt>
      <trkpt lat="43.41886" lon="2.07492">
        <ele>649.6</ele>
        <time>2023-10-01T06:58:56Z</time>
      </trkpt>
      <trkpt lat="43.41886" lon="2.07487">
        <ele>650.2</ele>
        <time>2023-10-01T06:58:57Z</time>
      </trkpt>
      <trkpt lat="43.41885" lon="2.07481">
        <ele>650.6</ele>
        <time>2023-10-01T06:58:58Z</time>
      </trkpt>
      <trkpt lat="43.41884" lon="2.07476">
        <ele>650.6</ele>
        <time>2023-10-01T06:58:59Z</time>
      </trkpt>
      <trkpt lat="43.41884" lon="2.0747">
        <ele>651</ele>
        <time>2023-10-01T06:59:00Z</time>
      </trkpt>
      <trkpt lat="43.41884" lon="2.07465">
        <ele>651.2</ele>
        <time>2023-10-01T06:59:01Z</time>
      </trkpt>
      <trkpt lat="43.41884" lon="2.0746">
        <ele>651.6</ele>
        <time>2023-10-01T06:59:02Z</time>
      </trkpt>
      <trkpt lat="43.41884" lon="2.07454">
        <ele>652</ele>
        <time>2023-10-01T06:59:03Z</time>
      </trkpt>
      <trkpt lat="43.41884" lon="2.07448">
        <ele>652.4</ele>
        <time>2023-10-01T06:59:04Z</time>
      </trkpt>
      <trkpt lat="43.41885" lon="2.07443">
        <ele>652.4</ele>
        <time>2023-10-01T06:59:05Z</time>
      </trkpt>
      <trkpt lat="43.41886" lon="2.07438">
        <ele>652.6</ele>
        <time>2023-10-01T06:59:06Z</time>
      </trkpt>
      <trkpt lat="43.41886" lon="2.07434">
        <ele>652.8</ele>
        <time>2023-10-01T06:59:07Z</time>
      </trkpt>
      <trkpt lat="43.41886" lon="2.0743">
        <ele>652.8</ele>
        <time>2023-10-01T06:59:08Z</time>
      </trkpt>
      <trkpt lat="43.41886" lon="2.07427">
        <ele>653</ele>
        <time>2023-10-01T06:59:09Z</time>
      </trkpt>
      <trkpt lat="43.41886" lon="2.07423">
        <ele>653</ele>
        <time>2023-10-01T06:59:10Z</time>
      </trkpt>
      <trkpt lat="43.41886" lon="2.07419">
        <ele>653.2</ele>
        <time>2023-10-01T06:59:11Z</time>
      </trkpt>
      <trkpt lat="43.41885" lon="2.07414">
        <ele>653.2</ele>
        <time>2023-10-01T06:59:12Z</time>
      </trkpt>
      <trkpt lat="43.41884" lon="2.07408">
        <ele>653.4</ele>
        <time>2023-10-01T06:59:13Z</time>
      </trkpt>
      <trkpt lat="43.41882" lon="2.07402">
        <ele>653.4</ele>
        <time>2023-10-01T06:59:14Z</time>
      </trkpt>
      <trkpt lat="43.4188" lon="2.07397">
        <ele>653.4</ele>
        <time>2023-10-01T06:59:15Z</time>
      </trkpt>
      <trkpt lat="43.41878" lon="2.07392">
        <ele>653.2</ele>
        <time>2023-10-01T06:59:16Z</time>
      </trkpt>
      <trkpt lat="43.41876" lon="2.07387">
        <ele>653.4</ele>
        <time>2023-10-01T06:59:17Z</time>
      </trkpt>
      <trkpt lat="43.41874" lon="2.07382">
        <ele>653.4</ele>
        <time>2023-10-01T06:59:18Z</time>
      </trkpt>
      <trkpt lat="43.41871" lon="2.07378">
        <ele>653.4</ele>
        <time>2023-10-01T06:59:19Z</time>
      </trkpt>
      <trkpt lat="43.41869" lon="2.07374">
        <ele>653.4</ele>
        <time>2023-10-01T06:59:20Z</time>
      </trkpt>
      <trkpt lat="43.41866" lon="2.07372">
        <ele>653.4</ele>
        <time>2023-10-01T06:59:21Z</time>
      </trkpt>
      <trkpt lat="43.41863" lon="2.07373">
        <ele>653.4</ele>
        <time>2023-10-01T06:59:22Z</time>
      </trkpt>
      <trkpt lat="43.41861" lon="2.07375">
        <ele>653.4</ele>
        <time>2023-10-01T06:59:23Z</time>
      </trkpt>
      <trkpt lat="43.41859" lon="2.07377">
        <ele>653.4</ele>
        <time>2023-10-01T06:59:24Z</time>
      </trkpt>
      <trkpt lat="43.41856" lon="2.07378">
        <ele>653.2</ele>
        <time>2023-10-01T06:59:25Z</time>
      </trkpt>
      <trkpt lat="43.41854" lon="2.07377">
        <ele>653</ele>
        <time>2023-10-01T06:59:26Z</time>
      </trkpt>
      <trkpt lat="43.4185" lon="2.07374">
        <ele>652.8</ele>
        <time>2023-10-01T06:59:27Z</time>
      </trkpt>
      <trkpt lat="43.41847" lon="2.0737">
        <ele>652.6</ele>
        <time>2023-10-01T06:59:28Z</time>
      </trkpt>
      <trkpt lat="43.41844" lon="2.07364">
        <ele>652.4</ele>
        <time>2023-10-01T06:59:29Z</time>
      </trkpt>
      <trkpt lat="43.4184" lon="2.07357">
        <ele>652.2</ele>
        <time>2023-10-01T06:59:30Z</time>
      </trkpt>
      <trkpt lat="43.41836" lon="2.0735">
        <ele>652</ele>
        <time>2023-10-01T06:59:31Z</time>
      </trkpt>
      <trkpt lat="43.41832" lon="2.07343">
        <ele>652</ele>
        <time>2023-10-01T06:59:32Z</time>
      </trkpt>
      <trkpt lat="43.41821" lon="2.07325">
        <ele>650.8</ele>
        <time>2023-10-01T06:59:35Z</time>
      </trkpt>
      <trkpt lat="43.41819" lon="2.07322">
        <ele>650</ele>
        <time>2023-10-01T06:59:36Z</time>
      </trkpt>
      <trkpt lat="43.41816" lon="2.07321">
        <ele>649.6</ele>
        <time>2023-10-01T06:59:37Z</time>
      </trkpt>
      <trkpt lat="43.41814" lon="2.07316">
        <ele>647.8</ele>
        <time>2023-10-01T06:59:38Z</time>
      </trkpt>
      <trkpt lat="43.41812" lon="2.07312">
        <ele>646.4</ele>
        <time>2023-10-01T06:59:39Z</time>
      </trkpt>
      <trkpt lat="43.41809" lon="2.07307">
        <ele>645</ele>
        <time>2023-10-01T06:59:41Z</time>
      </trkpt>
      <trkpt lat="43.41807" lon="2.07303">
        <ele>642.2</ele>
        <time>2023-10-01T06:59:51Z</time>
      </trkpt>
      <trkpt lat="43.41805" lon="2.07299">
        <ele>642</ele>
        <time>2023-10-01T06:59:52Z</time>
      </trkpt>
      <trkpt lat="43.41801" lon="2.07293">
        <ele>641.8</ele>
        <time>2023-10-01T06:59:54Z</time>
      </trkpt>
      <trkpt lat="43.41799" lon="2.07291">
        <ele>641.4</ele>
        <time>2023-10-01T06:59:55Z</time>
      </trkpt>
      <trkpt lat="43.41798" lon="2.07289">
        <ele>641.2</ele>
        <time>2023-10-01T06:59:56Z</time>
      </trkpt>
      <trkpt lat="43.41796" lon="2.07288">
        <ele>640.8</ele>
        <time>2023-10-01T06:59:57Z</time>
      </trkpt>
      <trkpt lat="43.41794" lon="2.07288">
        <ele>640.6</ele>
        <time>2023-10-01T06:59:58Z</time>
      </trkpt>
      <trkpt lat="43.41789" lon="2.07282">
        <ele>639.8</ele>
        <time>2023-10-01T07:00:01Z</time>
      </trkpt>
      <trkpt lat="43.41787" lon="2.0728">
        <ele>639.2</ele>
        <time>2023-10-01T07:00:02Z</time>
      </trkpt>
      <trkpt lat="43.41783" lon="2.07277">
        <ele>638.4</ele>
        <time>2023-10-01T07:00:04Z</time>
      </trkpt>
      <trkpt lat="43.41779" lon="2.07272">
        <ele>637.6</ele>
        <time>2023-10-01T07:00:06Z</time>
      </trkpt>
      <trkpt lat="43.41779" lon="2.0727">
        <ele>637.6</ele>
        <time>2023-10-01T07:00:07Z</time>
      </trkpt>
      <trkpt lat="43.41779" lon="2.07267">
        <ele>637.4</ele>
        <time>2023-10-01T07:00:08Z</time>
      </trkpt>
      <trkpt lat="43.41779" lon="2.07264">
        <ele>637.2</ele>
        <time>2023-10-01T07:00:09Z</time>
      </trkpt>
      <trkpt lat="43.41779" lon="2.07261">
        <ele>637.2</ele>
        <time>2023-10-01T07:00:10Z</time>
      </trkpt>
      <trkpt lat="43.4178" lon="2.07257">
        <ele>637</ele>
        <time>2023-10-01T07:00:11Z</time>
      </trkpt>
      <trkpt lat="43.41781" lon="2.07253">
        <ele>637</ele>
        <time>2023-10-01T07:00:12Z</time>
      </trkpt>
      <trkpt lat="43.41789" lon="2.07233">
        <ele>636.8</ele>
        <time>2023-10-01T07:00:15Z</time>
      </trkpt>
      <trkpt lat="43.41791" lon="2.07227">
        <ele>636.6</ele>
        <time>2023-10-01T07:00:16Z</time>
      </trkpt>
      <trkpt lat="43.41791" lon="2.07224">
        <ele>636.2</ele>
        <time>2023-10-01T07:00:17Z</time>
      </trkpt>
      <trkpt lat="43.41791" lon="2.07222">
        <ele>635.8</ele>
        <time>2023-10-01T07:00:18Z</time>
      </trkpt>
      <trkpt lat="43.4179" lon="2.07221">
        <ele>635.8</ele>
        <time>2023-10-01T07:00:19Z</time>
      </trkpt>
      <trkpt lat="43.41789" lon="2.07221">
        <ele>635.4</ele>
        <time>2023-10-01T07:00:20Z</time>
      </trkpt>
      <trkpt lat="43.41789" lon="2.07221">
        <ele>635.2</ele>
        <time>2023-10-01T07:00:21Z</time>
      </trkpt>
      <trkpt lat="43.41788" lon="2.07221">
        <ele>635</ele>
        <time>2023-10-01T07:00:22Z</time>
      </trkpt>
      <trkpt lat="43.41787" lon="2.0722">
        <ele>634.8</ele>
        <time>2023-10-01T07:00:23Z</time>
      </trkpt>
      <trkpt lat="43.41785" lon="2.07219">
        <ele>634.6</ele>
        <time>2023-10-01T07:00:24Z</time>
      </trkpt>
      <trkpt lat="43.41784" lon="2.07216">
        <ele>634.4</ele>
        <time>2023-10-01T07:00:25Z</time>
      </trkpt>
      <trkpt lat="43.41779" lon="2.07211">
        <ele>634.4</ele>
        <time>2023-10-01T07:00:27Z</time>
      </trkpt>
      <trkpt lat="43.41776" lon="2.07209">
        <ele>634.4</ele>
        <time>2023-10-01T07:00:28Z</time>
      </trkpt>
      <trkpt lat="43.41769" lon="2.07204">
        <ele>634.4</ele>
        <time>2023-10-01T07:00:30Z</time>
      </trkpt>
      <trkpt lat="43.41751" lon="2.07188">
        <ele>635</ele>
        <time>2023-10-01T07:00:34Z</time>
      </trkpt>
      <trkpt lat="43.41745" lon="2.07184">
        <ele>635</ele>
        <time>2023-10-01T07:00:35Z</time>
      </trkpt>
      <trkpt lat="43.41739" lon="2.07179">
        <ele>635</ele>
        <time>2023-10-01T07:00:36Z</time>
      </trkpt>
      <trkpt lat="43.41734" lon="2.07173">
        <ele>635</ele>
        <time>2023-10-01T07:00:37Z</time>
      </trkpt>
      <trkpt lat="43.4173" lon="2.07168">
        <ele>635</ele>
        <time>2023-10-01T07:00:38Z</time>
      </trkpt>
      <trkpt lat="43.41727" lon="2.07163">
        <ele>635.2</ele>
        <time>2023-10-01T07:00:39Z</time>
      </trkpt>
      <trkpt lat="43.41722" lon="2.07161">
        <ele>635.2</ele>
        <time>2023-10-01T07:00:40Z</time>
      </trkpt>
      <trkpt lat="43.41717" lon="2.07158">
        <ele>634.8</ele>
        <time>2023-10-01T07:00:41Z</time>
      </trkpt>
      <trkpt lat="43.41707" lon="2.0715">
        <ele>634.6</ele>
        <time>2023-10-01T07:00:44Z</time>
      </trkpt>
      <trkpt lat="43.41705" lon="2.07149">
        <ele>634.4</ele>
        <time>2023-10-01T07:00:45Z</time>
      </trkpt>
      <trkpt lat="43.41702" lon="2.07148">
        <ele>634.2</ele>
        <time>2023-10-01T07:00:46Z</time>
      </trkpt>
      <trkpt lat="43.41699" lon="2.07148">
        <ele>634</ele>
        <time>2023-10-01T07:00:47Z</time>
      </trkpt>
      <trkpt lat="43.41696" lon="2.07146">
        <ele>633.8</ele>
        <time>2023-10-01T07:00:48Z</time>
      </trkpt>
      <trkpt lat="43.41696" lon="2.07145">
        <ele>633.4</ele>
        <time>2023-10-01T07:00:49Z</time>
      </trkpt>
      <trkpt lat="43.41689" lon="2.07139">
        <ele>632.6</ele>
        <time>2023-10-01T07:00:51Z</time>
      </trkpt>
      <trkpt lat="43.41685" lon="2.07138">
        <ele>632.2</ele>
        <time>2023-10-01T07:00:52Z</time>
      </trkpt>
      <trkpt lat="43.41679" lon="2.07131">
        <ele>631.2</ele>
        <time>2023-10-01T07:00:55Z</time>
      </trkpt>
      <trkpt lat="43.41677" lon="2.0713">
        <ele>629.8</ele>
        <time>2023-10-01T07:00:56Z</time>
      </trkpt>
      <trkpt lat="43.41677" lon="2.07128">
        <ele>629</ele>
        <time>2023-10-01T07:00:57Z</time>
      </trkpt>
      <trkpt lat="43.41677" lon="2.07126">
        <ele>628.6</ele>
        <time>2023-10-01T07:00:58Z</time>
      </trkpt>
      <trkpt lat="43.41677" lon="2.07123">
        <ele>628.2</ele>
        <time>2023-10-01T07:00:59Z</time>
      </trkpt>
      <trkpt lat="43.41679" lon="2.07118">
        <ele>628.2</ele>
        <time>2023-10-01T07:01:01Z</time>
      </trkpt>
      <trkpt lat="43.41679" lon="2.07115">
        <ele>628</ele>
        <time>2023-10-01T07:01:02Z</time>
      </trkpt>
      <trkpt lat="43.41679" lon="2.07114">
        <ele>628.2</ele>
        <time>2023-10-01T07:01:03Z</time>
      </trkpt>
      <trkpt lat="43.41679" lon="2.07112">
        <ele>628</ele>
        <time>2023-10-01T07:01:04Z</time>
      </trkpt>
      <trkpt lat="43.41677" lon="2.0711">
        <ele>628.2</ele>
        <time>2023-10-01T07:01:05Z</time>
      </trkpt>
      <trkpt lat="43.41675" lon="2.07107">
        <ele>628.4</ele>
        <time>2023-10-01T07:01:06Z</time>
      </trkpt>
      <trkpt lat="43.41673" lon="2.07103">
        <ele>628.4</ele>
        <time>2023-10-01T07:01:07Z</time>
      </trkpt>
      <trkpt lat="43.4167" lon="2.07098">
        <ele>628.4</ele>
        <time>2023-10-01T07:01:08Z</time>
      </trkpt>
      <trkpt lat="43.41662" lon="2.07089">
        <ele>628.4</ele>
        <time>2023-10-01T07:01:10Z</time>
      </trkpt>
      <trkpt lat="43.41655" lon="2.07079">
        <ele>628.2</ele>
        <time>2023-10-01T07:01:12Z</time>
      </trkpt>
      <trkpt lat="43.41651" lon="2.07076">
        <ele>627.4</ele>
        <time>2023-10-01T07:01:13Z</time>
      </trkpt>
      <trkpt lat="43.41646" lon="2.07074">
        <ele>627</ele>
        <time>2023-10-01T07:01:14Z</time>
      </trkpt>
      <trkpt lat="43.41642" lon="2.07072">
        <ele>626.2</ele>
        <time>2023-10-01T07:01:15Z</time>
      </trkpt>
      <trkpt lat="43.41638" lon="2.07072">
        <ele>625.6</ele>
        <time>2023-10-01T07:01:16Z</time>
      </trkpt>
      <trkpt lat="43.41634" lon="2.07073">
        <ele>624.4</ele>
        <time>2023-10-01T07:01:17Z</time>
      </trkpt>
      <trkpt lat="43.41629" lon="2.07074">
        <ele>623.8</ele>
        <time>2023-10-01T07:01:18Z</time>
      </trkpt>
      <trkpt lat="43.41624" lon="2.07075">
        <ele>622.6</ele>
        <time>2023-10-01T07:01:19Z</time>
      </trkpt>
      <trkpt lat="43.41619" lon="2.07076">
        <ele>621.4</ele>
        <time>2023-10-01T07:01:20Z</time>
      </trkpt>
      <trkpt lat="43.41616" lon="2.07076">
        <ele>620.8</ele>
        <time>2023-10-01T07:01:21Z</time>
      </trkpt>
      <trkpt lat="43.41612" lon="2.07073">
        <ele>619.6</ele>
        <time>2023-10-01T07:01:22Z</time>
      </trkpt>
      <trkpt lat="43.41609" lon="2.07069">
        <ele>618.6</ele>
        <time>2023-10-01T07:01:23Z</time>
      </trkpt>
      <trkpt lat="43.41605" lon="2.07067">
        <ele>616.6</ele>
        <time>2023-10-01T07:01:24Z</time>
      </trkpt>
      <trkpt lat="43.41602" lon="2.07068">
        <ele>615.8</ele>
        <time>2023-10-01T07:01:25Z</time>
      </trkpt>
      <trkpt lat="43.41601" lon="2.0707">
        <ele>613.8</ele>
        <time>2023-10-01T07:01:26Z</time>
      </trkpt>
      <trkpt lat="43.41599" lon="2.07074">
        <ele>613</ele>
        <time>2023-10-01T07:01:27Z</time>
      </trkpt>
      <trkpt lat="43.41598" lon="2.07078">
        <ele>611.6</ele>
        <time>2023-10-01T07:01:28Z</time>
      </trkpt>
      <trkpt lat="43.41596" lon="2.07084">
        <ele>610.6</ele>
        <time>2023-10-01T07:01:29Z</time>
      </trkpt>
      <trkpt lat="43.41593" lon="2.07089">
        <ele>610.4</ele>
        <time>2023-10-01T07:01:30Z</time>
      </trkpt>
      <trkpt lat="43.41593" lon="2.07095">
        <ele>610</ele>
        <time>2023-10-01T07:01:31Z</time>
      </trkpt>
      <trkpt lat="43.4159" lon="2.07107">
        <ele>609.8</ele>
        <time>2023-10-01T07:01:33Z</time>
      </trkpt>
      <trkpt lat="43.41584" lon="2.07118">
        <ele>609.6</ele>
        <time>2023-10-01T07:01:35Z</time>
      </trkpt>
      <trkpt lat="43.41581" lon="2.07124">
        <ele>609.4</ele>
        <time>2023-10-01T07:01:36Z</time>
      </trkpt>
      <trkpt lat="43.41574" lon="2.07134">
        <ele>609.4</ele>
        <time>2023-10-01T07:01:38Z</time>
      </trkpt>
      <trkpt lat="43.41567" lon="2.07148">
        <ele>609.6</ele>
        <time>2023-10-01T07:01:41Z</time>
      </trkpt>
      <trkpt lat="43.41564" lon="2.07153">
        <ele>609.8</ele>
        <time>2023-10-01T07:01:42Z</time>
      </trkpt>
      <trkpt lat="43.41556" lon="2.07159">
        <ele>610</ele>
        <time>2023-10-01T07:01:44Z</time>
      </trkpt>
      <trkpt lat="43.41552" lon="2.07161">
        <ele>610.2</ele>
        <time>2023-10-01T07:01:45Z</time>
      </trkpt>
      <trkpt lat="43.41547" lon="2.07162">
        <ele>610.2</ele>
        <time>2023-10-01T07:01:46Z</time>
      </trkpt>
      <trkpt lat="43.41542" lon="2.07163">
        <ele>610.4</ele>
        <time>2023-10-01T07:01:47Z</time>
      </trkpt>
      <trkpt lat="43.41528" lon="2.07163">
        <ele>610.6</ele>
        <time>2023-10-01T07:01:50Z</time>
      </trkpt>
      <trkpt lat="43.41519" lon="2.07166">
        <ele>611</ele>
        <time>2023-10-01T07:01:52Z</time>
      </trkpt>
      <trkpt lat="43.41507" lon="2.07174">
        <ele>611.4</ele>
        <time>2023-10-01T07:01:55Z</time>
      </trkpt>
      <trkpt lat="43.41497" lon="2.07178">
        <ele>612.4</ele>
        <time>2023-10-01T07:01:57Z</time>
      </trkpt>
      <trkpt lat="43.41493" lon="2.0718">
        <ele>613.6</ele>
        <time>2023-10-01T07:01:58Z</time>
      </trkpt>
      <trkpt lat="43.41483" lon="2.07185">
        <ele>614.8</ele>
        <time>2023-10-01T07:02:00Z</time>
      </trkpt>
      <trkpt lat="43.41478" lon="2.07188">
        <ele>615.8</ele>
        <time>2023-10-01T07:02:01Z</time>
      </trkpt>
      <trkpt lat="43.41474" lon="2.07191">
        <ele>616.4</ele>
        <time>2023-10-01T07:02:02Z</time>
      </trkpt>
      <trkpt lat="43.4147" lon="2.07195">
        <ele>616.8</ele>
        <time>2023-10-01T07:02:03Z</time>
      </trkpt>
      <trkpt lat="43.41466" lon="2.07198">
        <ele>617.2</ele>
        <time>2023-10-01T07:02:04Z</time>
      </trkpt>
      <trkpt lat="43.41462" lon="2.072">
        <ele>617.8</ele>
        <time>2023-10-01T07:02:05Z</time>
      </trkpt>
      <trkpt lat="43.41458" lon="2.07202">
        <ele>618.6</ele>
        <time>2023-10-01T07:02:06Z</time>
      </trkpt>
      <trkpt lat="43.41454" lon="2.07202">
        <ele>619.2</ele>
        <time>2023-10-01T07:02:07Z</time>
      </trkpt>
      <trkpt lat="43.41449" lon="2.07202">
        <ele>620.6</ele>
        <time>2023-10-01T07:02:08Z</time>
      </trkpt>
      <trkpt lat="43.41444" lon="2.07202">
        <ele>621.2</ele>
        <time>2023-10-01T07:02:09Z</time>
      </trkpt>
      <trkpt lat="43.41439" lon="2.07201">
        <ele>622.4</ele>
        <time>2023-10-01T07:02:10Z</time>
      </trkpt>
      <trkpt lat="43.41435" lon="2.07201">
        <ele>622.8</ele>
        <time>2023-10-01T07:02:11Z</time>
      </trkpt>
      <trkpt lat="43.41432" lon="2.07199">
        <ele>623.4</ele>
        <time>2023-10-01T07:02:12Z</time>
      </trkpt>
      <trkpt lat="43.41428" lon="2.07199">
        <ele>623.8</ele>
        <time>2023-10-01T07:02:13Z</time>
      </trkpt>
      <trkpt lat="43.41425" lon="2.07199">
        <ele>624.6</ele>
        <time>2023-10-01T07:02:14Z</time>
      </trkpt>
      <trkpt lat="43.41421" lon="2.072">
        <ele>625.2</ele>
        <time>2023-10-01T07:02:15Z</time>
      </trkpt>
      <trkpt lat="43.41417" lon="2.07201">
        <ele>625.8</ele>
        <time>2023-10-01T07:02:16Z</time>
      </trkpt>
      <trkpt lat="43.41414" lon="2.07202">
        <ele>626.8</ele>
        <time>2023-10-01T07:02:17Z</time>
      </trkpt>
      <trkpt lat="43.41412" lon="2.07202">
        <ele>627</ele>
        <time>2023-10-01T07:02:18Z</time>
      </trkpt>
      <trkpt lat="43.41409" lon="2.07201">
        <ele>627.6</ele>
        <time>2023-10-01T07:02:19Z</time>
      </trkpt>
      <trkpt lat="43.41407" lon="2.072">
        <ele>628.2</ele>
        <time>2023-10-01T07:02:20Z</time>
      </trkpt>
      <trkpt lat="43.41405" lon="2.07197">
        <ele>628.6</ele>
        <time>2023-10-01T07:02:21Z</time>
      </trkpt>
      <trkpt lat="43.41405" lon="2.07193">
        <ele>628.8</ele>
        <time>2023-10-01T07:02:22Z</time>
      </trkpt>
      <trkpt lat="43.41405" lon="2.07189">
        <ele>629</ele>
        <time>2023-10-01T07:02:23Z</time>
      </trkpt>
      <trkpt lat="43.41406" lon="2.07184">
        <ele>629.2</ele>
        <time>2023-10-01T07:02:24Z</time>
      </trkpt>
      <trkpt lat="43.41408" lon="2.0718">
        <ele>629.2</ele>
        <time>2023-10-01T07:02:25Z</time>
      </trkpt>
      <trkpt lat="43.4141" lon="2.07175">
        <ele>629.4</ele>
        <time>2023-10-01T07:02:26Z</time>
      </trkpt>
      <trkpt lat="43.41413" lon="2.07169">
        <ele>629.4</ele>
        <time>2023-10-01T07:02:27Z</time>
      </trkpt>
      <trkpt lat="43.41416" lon="2.07163">
        <ele>629.4</ele>
        <time>2023-10-01T07:02:28Z</time>
      </trkpt>
      <trkpt lat="43.41418" lon="2.07157">
        <ele>629.4</ele>
        <time>2023-10-01T07:02:29Z</time>
      </trkpt>
      <trkpt lat="43.41421" lon="2.0715">
        <ele>629.4</ele>
        <time>2023-10-01T07:02:30Z</time>
      </trkpt>
      <trkpt lat="43.41424" lon="2.07144">
        <ele>629.4</ele>
        <time>2023-10-01T07:02:31Z</time>
      </trkpt>
      <trkpt lat="43.41426" lon="2.07138">
        <ele>629.2</ele>
        <time>2023-10-01T07:02:32Z</time>
      </trkpt>
      <trkpt lat="43.41429" lon="2.07132">
        <ele>629</ele>
        <time>2023-10-01T07:02:33Z</time>
      </trkpt>
      <trkpt lat="43.41431" lon="2.07125">
        <ele>629</ele>
        <time>2023-10-01T07:02:34Z</time>
      </trkpt>
      <trkpt lat="43.41433" lon="2.07119">
        <ele>628.8</ele>
        <time>2023-10-01T07:02:35Z</time>
      </trkpt>
      <trkpt lat="43.41436" lon="2.07112">
        <ele>628.8</ele>
        <time>2023-10-01T07:02:36Z</time>
      </trkpt>
      <trkpt lat="43.41438" lon="2.07106">
        <ele>628.6</ele>
        <time>2023-10-01T07:02:37Z</time>
      </trkpt>
      <trkpt lat="43.4144" lon="2.07098">
        <ele>628.6</ele>
        <time>2023-10-01T07:02:38Z</time>
      </trkpt>
      <trkpt lat="43.41442" lon="2.0709">
        <ele>628.4</ele>
        <time>2023-10-01T07:02:39Z</time>
      </trkpt>
      <trkpt lat="43.41442" lon="2.07082">
        <ele>628.4</ele>
        <time>2023-10-01T07:02:40Z</time>
      </trkpt>
      <trkpt lat="43.41443" lon="2.07073">
        <ele>628.4</ele>
        <time>2023-10-01T07:02:41Z</time>
      </trkpt>
      <trkpt lat="43.41443" lon="2.07065">
        <ele>628.4</ele>
        <time>2023-10-01T07:02:42Z</time>
      </trkpt>
      <trkpt lat="43.41444" lon="2.07056">
        <ele>628.4</ele>
        <time>2023-10-01T07:02:43Z</time>
      </trkpt>
      <trkpt lat="43.41444" lon="2.07048">
        <ele>628.4</ele>
        <time>2023-10-01T07:02:44Z</time>
      </trkpt>
      <trkpt lat="43.41445" lon="2.07039">
        <ele>628.4</ele>
        <time>2023-10-01T07:02:45Z</time>
      </trkpt>
      <trkpt lat="43.41445" lon="2.07031">
        <ele>628.4</ele>
        <time>2023-10-01T07:02:46Z</time>
      </trkpt>
      <trkpt lat="43.41445" lon="2.07024">
        <ele>628.2</ele>
        <time>2023-10-01T07:02:47Z</time>
      </trkpt>
      <trkpt lat="43.41445" lon="2.07016">
        <ele>628.2</ele>
        <time>2023-10-01T07:02:48Z</time>
      </trkpt>
      <trkpt lat="43.41445" lon="2.0701">
        <ele>628.2</ele>
        <time>2023-10-01T07:02:49Z</time>
      </trkpt>
      <trkpt lat="43.41444" lon="2.07004">
        <ele>628</ele>
        <time>2023-10-01T07:02:50Z</time>
      </trkpt>
      <trkpt lat="43.41444" lon="2.06998">
        <ele>628</ele>
        <time>2023-10-01T07:02:51Z</time>
      </trkpt>
      <trkpt lat="43.41446" lon="2.06994">
        <ele>628</ele>
        <time>2023-10-01T07:02:52Z</time>
      </trkpt>
      <trkpt lat="43.41449" lon="2.06994">
        <ele>628</ele>
        <time>2023-10-01T07:02:53Z</time>
      </trkpt>
      <trkpt lat="43.41452" lon="2.06996">
        <ele>628</ele>
        <time>2023-10-01T07:02:54Z</time>
      </trkpt>
      <trkpt lat="43.41455" lon="2.06999">
        <ele>628</ele>
        <time>2023-10-01T07:02:55Z</time>
      </trkpt>
      <trkpt lat="43.41458" lon="2.07002">
        <ele>628</ele>
        <time>2023-10-01T07:02:56Z</time>
      </trkpt>
      <trkpt lat="43.41461" lon="2.07007">
        <ele>627.8</ele>
        <time>2023-10-01T07:02:57Z</time>
      </trkpt>
      <trkpt lat="43.41464" lon="2.07013">
        <ele>627.8</ele>
        <time>2023-10-01T07:02:58Z</time>
      </trkpt>
      <trkpt lat="43.41468" lon="2.07019">
        <ele>627.8</ele>
        <time>2023-10-01T07:02:59Z</time>
      </trkpt>
      <trkpt lat="43.41476" lon="2.07028">
        <ele>627.6</ele>
        <time>2023-10-01T07:03:01Z</time>
      </trkpt>
      <trkpt lat="43.41481" lon="2.07029">
        <ele>627.6</ele>
        <time>2023-10-01T07:03:02Z</time>
      </trkpt>
      <trkpt lat="43.41487" lon="2.07026">
        <ele>627.6</ele>
        <time>2023-10-01T07:03:03Z</time>
      </trkpt>
      <trkpt lat="43.41491" lon="2.07022">
        <ele>627.6</ele>
        <time>2023-10-01T07:03:04Z</time>
      </trkpt>
      <trkpt lat="43.41494" lon="2.07016">
        <ele>627.4</ele>
        <time>2023-10-01T07:03:05Z</time>
      </trkpt>
      <trkpt lat="43.41495" lon="2.07009">
        <ele>627.4</ele>
        <time>2023-10-01T07:03:06Z</time>
      </trkpt>
      <trkpt lat="43.41497" lon="2.07003">
        <ele>626.8</ele>
        <time>2023-10-01T07:03:07Z</time>
      </trkpt>
      <trkpt lat="43.41498" lon="2.06995">
        <ele>626.2</ele>
        <time>2023-10-01T07:03:08Z</time>
      </trkpt>
      <trkpt lat="43.41498" lon="2.06987">
        <ele>626</ele>
        <time>2023-10-01T07:03:09Z</time>
      </trkpt>
      <trkpt lat="43.41498" lon="2.06978">
        <ele>625.6</ele>
        <time>2023-10-01T07:03:10Z</time>
      </trkpt>
      <trkpt lat="43.41498" lon="2.06961">
        <ele>624.8</ele>
        <time>2023-10-01T07:03:12Z</time>
      </trkpt>
      <trkpt lat="43.415" lon="2.06952">
        <ele>624.6</ele>
        <time>2023-10-01T07:03:13Z</time>
      </trkpt>
      <trkpt lat="43.41503" lon="2.06943">
        <ele>624.6</ele>
        <time>2023-10-01T07:03:14Z</time>
      </trkpt>
      <trkpt lat="43.41505" lon="2.06926">
        <ele>624.2</ele>
        <time>2023-10-01T07:03:16Z</time>
      </trkpt>
      <trkpt lat="43.41503" lon="2.06919">
        <ele>624.2</ele>
        <time>2023-10-01T07:03:17Z</time>
      </trkpt>
      <trkpt lat="43.415" lon="2.06911">
        <ele>624.2</ele>
        <time>2023-10-01T07:03:18Z</time>
      </trkpt>
      <trkpt lat="43.41497" lon="2.06904">
        <ele>624.4</ele>
        <time>2023-10-01T07:03:19Z</time>
      </trkpt>
      <trkpt lat="43.41495" lon="2.06898">
        <ele>624.2</ele>
        <time>2023-10-01T07:03:20Z</time>
      </trkpt>
      <trkpt lat="43.41491" lon="2.06881">
        <ele>624.2</ele>
        <time>2023-10-01T07:03:22Z</time>
      </trkpt>
      <trkpt lat="43.41489" lon="2.06873">
        <ele>624.2</ele>
        <time>2023-10-01T07:03:23Z</time>
      </trkpt>
      <trkpt lat="43.41487" lon="2.06865">
        <ele>624.4</ele>
        <time>2023-10-01T07:03:24Z</time>
      </trkpt>
      <trkpt lat="43.41486" lon="2.06858">
        <ele>624.4</ele>
        <time>2023-10-01T07:03:25Z</time>
      </trkpt>
      <trkpt lat="43.41486" lon="2.06852">
        <ele>624.4</ele>
        <time>2023-10-01T07:03:26Z</time>
      </trkpt>
      <trkpt lat="43.41486" lon="2.06845">
        <ele>624.6</ele>
        <time>2023-10-01T07:03:27Z</time>
      </trkpt>
      <trkpt lat="43.41487" lon="2.06837">
        <ele>625</ele>
        <time>2023-10-01T07:03:28Z</time>
      </trkpt>
      <trkpt lat="43.41489" lon="2.06828">
        <ele>625.2</ele>
        <time>2023-10-01T07:03:29Z</time>
      </trkpt>
      <trkpt lat="43.41492" lon="2.0682">
        <ele>625.4</ele>
        <time>2023-10-01T07:03:30Z</time>
      </trkpt>
      <trkpt lat="43.41497" lon="2.06812">
        <ele>625.4</ele>
        <time>2023-10-01T07:03:31Z</time>
      </trkpt>
      <trkpt lat="43.41502" lon="2.068">
        <ele>625.6</ele>
        <time>2023-10-01T07:03:32Z</time>
      </trkpt>
      <trkpt lat="43.41503" lon="2.06785">
        <ele>625.8</ele>
        <time>2023-10-01T07:03:34Z</time>
      </trkpt>
      <trkpt lat="43.41502" lon="2.0678">
        <ele>625.6</ele>
        <time>2023-10-01T07:03:35Z</time>
      </trkpt>
      <trkpt lat="43.415" lon="2.06774">
        <ele>625.6</ele>
        <time>2023-10-01T07:03:36Z</time>
      </trkpt>
      <trkpt lat="43.41498" lon="2.06766">
        <ele>625.6</ele>
        <time>2023-10-01T07:03:37Z</time>
      </trkpt>
      <trkpt lat="43.41496" lon="2.06757">
        <ele>625.6</ele>
        <time>2023-10-01T07:03:38Z</time>
      </trkpt>
      <trkpt lat="43.41495" lon="2.06752">
        <ele>625.6</ele>
        <time>2023-10-01T07:03:39Z</time>
      </trkpt>
      <trkpt lat="43.41493" lon="2.06747">
        <ele>625.6</ele>
        <time>2023-10-01T07:03:40Z</time>
      </trkpt>
      <trkpt lat="43.41493" lon="2.06742">
        <ele>625.6</ele>
        <time>2023-10-01T07:03:41Z</time>
      </trkpt>
      <trkpt lat="43.41491" lon="2.06735">
        <ele>625.6</ele>
        <time>2023-10-01T07:03:42Z</time>
      </trkpt>
      <trkpt lat="43.41488" lon="2.06727">
        <ele>625.6</ele>
        <time>2023-10-01T07:03:43Z</time>
      </trkpt>
      <trkpt lat="43.41481" lon="2.06718">
        <ele>625.6</ele>
        <time>2023-10-01T07:03:45Z</time>
      </trkpt>
      <trkpt lat="43.41476" lon="2.06714">
        <ele>625.4</ele>
        <time>2023-10-01T07:03:46Z</time>
      </trkpt>
      <trkpt lat="43.41472" lon="2.06709">
        <ele>625.2</ele>
        <time>2023-10-01T07:03:47Z</time>
      </trkpt>
      <trkpt lat="43.41469" lon="2.06705">
        <ele>625.2</ele>
        <time>2023-10-01T07:03:48Z</time>
      </trkpt>
      <trkpt lat="43.41467" lon="2.06701">
        <ele>625</ele>
        <time>2023-10-01T07:03:49Z</time>
      </trkpt>
      <trkpt lat="43.41465" lon="2.06694">
        <ele>624.8</ele>
        <time>2023-10-01T07:03:50Z</time>
      </trkpt>
      <trkpt lat="43.41463" lon="2.06683">
        <ele>624.6</ele>
        <time>2023-10-01T07:03:51Z</time>
      </trkpt>
      <trkpt lat="43.41462" lon="2.06672">
        <ele>624.4</ele>
        <time>2023-10-01T07:03:52Z</time>
      </trkpt>
      <trkpt lat="43.41461" lon="2.06661">
        <ele>623.6</ele>
        <time>2023-10-01T07:03:53Z</time>
      </trkpt>
      <trkpt lat="43.4146" lon="2.06654">
        <ele>622.8</ele>
        <time>2023-10-01T07:03:54Z</time>
      </trkpt>
      <trkpt lat="43.4146" lon="2.06646">
        <ele>622.6</ele>
        <time>2023-10-01T07:03:55Z</time>
      </trkpt>
      <trkpt lat="43.41459" lon="2.06628">
        <ele>621.8</ele>
        <time>2023-10-01T07:03:57Z</time>
      </trkpt>
      <trkpt lat="43.41462" lon="2.06621">
        <ele>621.4</ele>
        <time>2023-10-01T07:03:58Z</time>
      </trkpt>
      <trkpt lat="43.41466" lon="2.06615">
        <ele>621.2</ele>
        <time>2023-10-01T07:03:59Z</time>
      </trkpt>
      <trkpt lat="43.41469" lon="2.06608">
        <ele>621</ele>
        <time>2023-10-01T07:04:00Z</time>
      </trkpt>
      <trkpt lat="43.41471" lon="2.06601">
        <ele>620.8</ele>
        <time>2023-10-01T07:04:01Z</time>
      </trkpt>
      <trkpt lat="43.41475" lon="2.06595">
        <ele>620.6</ele>
        <time>2023-10-01T07:04:02Z</time>
      </trkpt>
      <trkpt lat="43.41479" lon="2.06586">
        <ele>620.6</ele>
        <time>2023-10-01T07:04:03Z</time>
      </trkpt>
      <trkpt lat="43.41499" lon="2.06553">
        <ele>619.8</ele>
        <time>2023-10-01T07:04:07Z</time>
      </trkpt>
      <trkpt lat="43.41508" lon="2.06541">
        <ele>619.6</ele>
        <time>2023-10-01T07:04:09Z</time>
      </trkpt>
      <trkpt lat="43.41511" lon="2.06534">
        <ele>619.2</ele>
        <time>2023-10-01T07:04:10Z</time>
      </trkpt>
      <trkpt lat="43.41518" lon="2.06517">
        <ele>618.8</ele>
        <time>2023-10-01T07:04:12Z</time>
      </trkpt>
      <trkpt lat="43.41523" lon="2.06511">
        <ele>618.4</ele>
        <time>2023-10-01T07:04:13Z</time>
      </trkpt>
      <trkpt lat="43.41531" lon="2.06492">
        <ele>617.4</ele>
        <time>2023-10-01T07:04:15Z</time>
      </trkpt>
      <trkpt lat="43.41536" lon="2.06483">
        <ele>616.8</ele>
        <time>2023-10-01T07:04:16Z</time>
      </trkpt>
      <trkpt lat="43.4154" lon="2.06475">
        <ele>616.6</ele>
        <time>2023-10-01T07:04:17Z</time>
      </trkpt>
      <trkpt lat="43.41543" lon="2.06467">
        <ele>616</ele>
        <time>2023-10-01T07:04:18Z</time>
      </trkpt>
      <trkpt lat="43.41551" lon="2.06446">
        <ele>615.2</ele>
        <time>2023-10-01T07:04:20Z</time>
      </trkpt>
      <trkpt lat="43.41553" lon="2.06436">
        <ele>614.6</ele>
        <time>2023-10-01T07:04:21Z</time>
      </trkpt>
      <trkpt lat="43.41554" lon="2.06418">
        <ele>614</ele>
        <time>2023-10-01T07:04:23Z</time>
      </trkpt>
      <trkpt lat="43.41555" lon="2.0641">
        <ele>613.8</ele>
        <time>2023-10-01T07:04:24Z</time>
      </trkpt>
      <trkpt lat="43.41557" lon="2.06402">
        <ele>613.4</ele>
        <time>2023-10-01T07:04:25Z</time>
      </trkpt>
      <trkpt lat="43.41561" lon="2.06392">
        <ele>613.2</ele>
        <time>2023-10-01T07:04:26Z</time>
      </trkpt>
      <trkpt lat="43.41567" lon="2.06385">
        <ele>612.6</ele>
        <time>2023-10-01T07:04:27Z</time>
      </trkpt>
      <trkpt lat="43.41574" lon="2.06378">
        <ele>612</ele>
        <time>2023-10-01T07:04:28Z</time>
      </trkpt>
      <trkpt lat="43.4158" lon="2.06371">
        <ele>611.6</ele>
        <time>2023-10-01T07:04:29Z</time>
      </trkpt>
      <trkpt lat="43.41587" lon="2.06364">
        <ele>611</ele>
        <time>2023-10-01T07:04:30Z</time>
      </trkpt>
      <trkpt lat="43.41592" lon="2.0636">
        <ele>610.6</ele>
        <time>2023-10-01T07:04:31Z</time>
      </trkpt>
      <trkpt lat="43.41596" lon="2.06358">
        <ele>609.6</ele>
        <time>2023-10-01T07:04:32Z</time>
      </trkpt>
      <trkpt lat="43.416" lon="2.06355">
        <ele>608.6</ele>
        <time>2023-10-01T07:04:33Z</time>
      </trkpt>
      <trkpt lat="43.41603" lon="2.06353">
        <ele>608.2</ele>
        <time>2023-10-01T07:04:34Z</time>
      </trkpt>
      <trkpt lat="43.41605" lon="2.06349">
        <ele>607.6</ele>
        <time>2023-10-01T07:04:35Z</time>
      </trkpt>
      <trkpt lat="43.41609" lon="2.06343">
        <ele>607.4</ele>
        <time>2023-10-01T07:04:36Z</time>
      </trkpt>
      <trkpt lat="43.41608" lon="2.06325">
        <ele>606.8</ele>
        <time>2023-10-01T07:04:38Z</time>
      </trkpt>
      <trkpt lat="43.41609" lon="2.06319">
        <ele>606.4</ele>
        <time>2023-10-01T07:04:39Z</time>
      </trkpt>
      <trkpt lat="43.41619" lon="2.06305">
        <ele>606</ele>
        <time>2023-10-01T07:04:41Z</time>
      </trkpt>
      <trkpt lat="43.41626" lon="2.06296">
        <ele>605.6</ele>
        <time>2023-10-01T07:04:42Z</time>
      </trkpt>
      <trkpt lat="43.4163" lon="2.06289">
        <ele>605.4</ele>
        <time>2023-10-01T07:04:43Z</time>
      </trkpt>
      <trkpt lat="43.41634" lon="2.0628">
        <ele>604.2</ele>
        <time>2023-10-01T07:04:44Z</time>
      </trkpt>
      <trkpt lat="43.41635" lon="2.06274">
        <ele>603.6</ele>
        <time>2023-10-01T07:04:45Z</time>
      </trkpt>
      <trkpt lat="43.41637" lon="2.06269">
        <ele>602.6</ele>
        <time>2023-10-01T07:04:46Z</time>
      </trkpt>
      <trkpt lat="43.41638" lon="2.06264">
        <ele>602.2</ele>
        <time>2023-10-01T07:04:47Z</time>
      </trkpt>
      <trkpt lat="43.41639" lon="2.06259">
        <ele>601.2</ele>
        <time>2023-10-01T07:04:48Z</time>
      </trkpt>
      <trkpt lat="43.41641" lon="2.06256">
        <ele>599.2</ele>
        <time>2023-10-01T07:04:49Z</time>
      </trkpt>
      <trkpt lat="43.41642" lon="2.06253">
        <ele>598.6</ele>
        <time>2023-10-01T07:04:50Z</time>
      </trkpt>
      <trkpt lat="43.41645" lon="2.06252">
        <ele>598</ele>
        <time>2023-10-01T07:04:51Z</time>
      </trkpt>
      <trkpt lat="43.41647" lon="2.06251">
        <ele>596.8</ele>
        <time>2023-10-01T07:04:52Z</time>
      </trkpt>
      <trkpt lat="43.41647" lon="2.06251">
        <ele>595.2</ele>
        <time>2023-10-01T07:04:53Z</time>
      </trkpt>
      <trkpt lat="43.41648" lon="2.06251">
        <ele>594.8</ele>
        <time>2023-10-01T07:04:54Z</time>
      </trkpt>
      <trkpt lat="43.41649" lon="2.06252">
        <ele>593.8</ele>
        <time>2023-10-01T07:04:55Z</time>
      </trkpt>
      <trkpt lat="43.4165" lon="2.06253">
        <ele>593</ele>
        <time>2023-10-01T07:04:56Z</time>
      </trkpt>
      <trkpt lat="43.41651" lon="2.06254">
        <ele>592.6</ele>
        <time>2023-10-01T07:04:57Z</time>
      </trkpt>
      <trkpt lat="43.41652" lon="2.06257">
        <ele>592.2</ele>
        <time>2023-10-01T07:04:59Z</time>
      </trkpt>
      <trkpt lat="43.41653" lon="2.06259">
        <ele>592</ele>
        <time>2023-10-01T07:05:00Z</time>
      </trkpt>
      <trkpt lat="43.41653" lon="2.06261">
        <ele>592</ele>
        <time>2023-10-01T07:05:01Z</time>
      </trkpt>
      <trkpt lat="43.41652" lon="2.06263">
        <ele>592</ele>
        <time>2023-10-01T07:05:02Z</time>
      </trkpt>
      <trkpt lat="43.41652" lon="2.06264">
        <ele>591.8</ele>
        <time>2023-10-01T07:05:03Z</time>
      </trkpt>
      <trkpt lat="43.41652" lon="2.06265">
        <ele>591.8</ele>
        <time>2023-10-01T07:05:04Z</time>
      </trkpt>
      <trkpt lat="43.41653" lon="2.06266">
        <ele>592</ele>
        <time>2023-10-01T07:05:05Z</time>
      </trkpt>
      <trkpt lat="43.41653" lon="2.06268">
        <ele>592</ele>
        <time>2023-10-01T07:05:06Z</time>
      </trkpt>
      <trkpt lat="43.41655" lon="2.06269">
        <ele>592.4</ele>
        <time>2023-10-01T07:05:07Z</time>
      </trkpt>
      <trkpt lat="43.41657" lon="2.06268">
        <ele>592.8</ele>
        <time>2023-10-01T07:05:09Z</time>
      </trkpt>
      <trkpt lat="43.41666" lon="2.06273">
        <ele>593</ele>
        <time>2023-10-01T07:05:13Z</time>
      </trkpt>
      <trkpt lat="43.41668" lon="2.06278">
        <ele>593</ele>
        <time>2023-10-01T07:05:14Z</time>
      </trkpt>
      <trkpt lat="43.41671" lon="2.06282">
        <ele>593</ele>
        <time>2023-10-01T07:05:15Z</time>
      </trkpt>
      <trkpt lat="43.41674" lon="2.06285">
        <ele>592.6</ele>
        <time>2023-10-01T07:05:16Z</time>
      </trkpt>
      <trkpt lat="43.41676" lon="2.06289">
        <ele>592.6</ele>
        <time>2023-10-01T07:05:17Z</time>
      </trkpt>
      <trkpt lat="43.41678" lon="2.06294">
        <ele>592.4</ele>
        <time>2023-10-01T07:05:18Z</time>
      </trkpt>
      <trkpt lat="43.41684" lon="2.06304">
        <ele>592.2</ele>
        <time>2023-10-01T07:05:20Z</time>
      </trkpt>
      <trkpt lat="43.41701" lon="2.06317">
        <ele>591.8</ele>
        <time>2023-10-01T07:05:23Z</time>
      </trkpt>
      <trkpt lat="43.41706" lon="2.06319">
        <ele>591.6</ele>
        <time>2023-10-01T07:05:24Z</time>
      </trkpt>
      <trkpt lat="43.41709" lon="2.06323">
        <ele>591.4</ele>
        <time>2023-10-01T07:05:25Z</time>
      </trkpt>
      <trkpt lat="43.41717" lon="2.06329">
        <ele>591.4</ele>
        <time>2023-10-01T07:05:26Z</time>
      </trkpt>
      <trkpt lat="43.41727" lon="2.06332">
        <ele>589.8</ele>
        <time>2023-10-01T07:05:28Z</time>
      </trkpt>
      <trkpt lat="43.41732" lon="2.06335">
        <ele>589.4</ele>
        <time>2023-10-01T07:05:29Z</time>
      </trkpt>
      <trkpt lat="43.41737" lon="2.06339">
        <ele>588.6</ele>
        <time>2023-10-01T07:05:30Z</time>
      </trkpt>
      <trkpt lat="43.41741" lon="2.06345">
        <ele>587.6</ele>
        <time>2023-10-01T07:05:31Z</time>
      </trkpt>
      <trkpt lat="43.41743" lon="2.06352">
        <ele>586.2</ele>
        <time>2023-10-01T07:05:32Z</time>
      </trkpt>
      <trkpt lat="43.41744" lon="2.0636">
        <ele>585.8</ele>
        <time>2023-10-01T07:05:33Z</time>
      </trkpt>
      <trkpt lat="43.41746" lon="2.06368">
        <ele>584.4</ele>
        <time>2023-10-01T07:05:34Z</time>
      </trkpt>
      <trkpt lat="43.41749" lon="2.06374">
        <ele>583.4</ele>
        <time>2023-10-01T07:05:35Z</time>
      </trkpt>
      <trkpt lat="43.4175" lon="2.0638">
        <ele>582.2</ele>
        <time>2023-10-01T07:05:36Z</time>
      </trkpt>
      <trkpt lat="43.41752" lon="2.06386">
        <ele>581.2</ele>
        <time>2023-10-01T07:05:37Z</time>
      </trkpt>
      <trkpt lat="43.41756" lon="2.06392">
        <ele>580.8</ele>
        <time>2023-10-01T07:05:38Z</time>
      </trkpt>
      <trkpt lat="43.41757" lon="2.06398">
        <ele>579.8</ele>
        <time>2023-10-01T07:05:39Z</time>
      </trkpt>
      <trkpt lat="43.41759" lon="2.06403">
        <ele>579.2</ele>
        <time>2023-10-01T07:05:40Z</time>
      </trkpt>
      <trkpt lat="43.41759" lon="2.06407">
        <ele>578.6</ele>
        <time>2023-10-01T07:05:41Z</time>
      </trkpt>
      <trkpt lat="43.4176" lon="2.0641">
        <ele>578.2</ele>
        <time>2023-10-01T07:05:42Z</time>
      </trkpt>
      <trkpt lat="43.41761" lon="2.06413">
        <ele>577.4</ele>
        <time>2023-10-01T07:05:43Z</time>
      </trkpt>
      <trkpt lat="43.41762" lon="2.06414">
        <ele>576.4</ele>
        <time>2023-10-01T07:05:44Z</time>
      </trkpt>
      <trkpt lat="43.41762" lon="2.06414">
        <ele>576</ele>
        <time>2023-10-01T07:05:45Z</time>
      </trkpt>
      <trkpt lat="43.41764" lon="2.06414">
        <ele>574.8</ele>
        <time>2023-10-01T07:05:46Z</time>
      </trkpt>
      <trkpt lat="43.41765" lon="2.06413">
        <ele>574.2</ele>
        <time>2023-10-01T07:05:47Z</time>
      </trkpt>
      <trkpt lat="43.41766" lon="2.06413">
        <ele>573.6</ele>
        <time>2023-10-01T07:05:48Z</time>
      </trkpt>
      <trkpt lat="43.41767" lon="2.06412">
        <ele>573.2</ele>
        <time>2023-10-01T07:05:49Z</time>
      </trkpt>
      <trkpt lat="43.41768" lon="2.06409">
        <ele>572.6</ele>
        <time>2023-10-01T07:05:50Z</time>
      </trkpt>
      <trkpt lat="43.41768" lon="2.06409">
        <ele>571.8</ele>
        <time>2023-10-01T07:05:51Z</time>
      </trkpt>
      <trkpt lat="43.41768" lon="2.06408">
        <ele>571.6</ele>
        <time>2023-10-01T07:05:52Z</time>
      </trkpt>
      <trkpt lat="43.41769" lon="2.06407">
        <ele>570.8</ele>
        <time>2023-10-01T07:05:53Z</time>
      </trkpt>
      <trkpt lat="43.41769" lon="2.06407">
        <ele>570.2</ele>
        <time>2023-10-01T07:05:54Z</time>
      </trkpt>
      <trkpt lat="43.41774" lon="2.06401">
        <ele>569</ele>
        <time>2023-10-01T07:05:57Z</time>
      </trkpt>
      <trkpt lat="43.41778" lon="2.06397">
        <ele>568.4</ele>
        <time>2023-10-01T07:05:58Z</time>
      </trkpt>
      <trkpt lat="43.4178" lon="2.06394">
        <ele>568.2</ele>
        <time>2023-10-01T07:05:59Z</time>
      </trkpt>
      <trkpt lat="43.41782" lon="2.06394">
        <ele>567.8</ele>
        <time>2023-10-01T07:06:00Z</time>
      </trkpt>
      <trkpt lat="43.41782" lon="2.06395">
        <ele>567.8</ele>
        <time>2023-10-01T07:06:01Z</time>
      </trkpt>
      <trkpt lat="43.41782" lon="2.06396">
        <ele>567.6</ele>
        <time>2023-10-01T07:06:02Z</time>
      </trkpt>
      <trkpt lat="43.41783" lon="2.06412">
        <ele>567.6</ele>
        <time>2023-10-01T07:06:07Z</time>
      </trkpt>
      <trkpt lat="43.4178" lon="2.06441">
        <ele>569.2</ele>
        <time>2023-10-01T07:06:13Z</time>
      </trkpt>
      <trkpt lat="43.41777" lon="2.06446">
        <ele>569.8</ele>
        <time>2023-10-01T07:06:14Z</time>
      </trkpt>
      <trkpt lat="43.41773" lon="2.06451">
        <ele>570.2</ele>
        <time>2023-10-01T07:06:15Z</time>
      </trkpt>
      <trkpt lat="43.41768" lon="2.06456">
        <ele>571.4</ele>
        <time>2023-10-01T07:06:16Z</time>
      </trkpt>
      <trkpt lat="43.41763" lon="2.06459">
        <ele>571.8</ele>
        <time>2023-10-01T07:06:17Z</time>
      </trkpt>
      <trkpt lat="43.41758" lon="2.06463">
        <ele>572.4</ele>
        <time>2023-10-01T07:06:18Z</time>
      </trkpt>
      <trkpt lat="43.41754" lon="2.06467">
        <ele>572.8</ele>
        <time>2023-10-01T07:06:19Z</time>
      </trkpt>
      <trkpt lat="43.41746" lon="2.06477">
        <ele>573.4</ele>
        <time>2023-10-01T07:06:21Z</time>
      </trkpt>
      <trkpt lat="43.4174" lon="2.06488">
        <ele>574</ele>
        <time>2023-10-01T07:06:23Z</time>
      </trkpt>
      <trkpt lat="43.41739" lon="2.06492">
        <ele>574</ele>
        <time>2023-10-01T07:06:24Z</time>
      </trkpt>
      <trkpt lat="43.41737" lon="2.06495">
        <ele>574.4</ele>
        <time>2023-10-01T07:06:25Z</time>
      </trkpt>
      <trkpt lat="43.41735" lon="2.06498">
        <ele>574.6</ele>
        <time>2023-10-01T07:06:26Z</time>
      </trkpt>
      <trkpt lat="43.41732" lon="2.06501">
        <ele>574.8</ele>
        <time>2023-10-01T07:06:27Z</time>
      </trkpt>
      <trkpt lat="43.41729" lon="2.06505">
        <ele>575</ele>
        <time>2023-10-01T07:06:28Z</time>
      </trkpt>
      <trkpt lat="43.41726" lon="2.06509">
        <ele>575.4</ele>
        <time>2023-10-01T07:06:29Z</time>
      </trkpt>
      <trkpt lat="43.41722" lon="2.06513">
        <ele>575.8</ele>
        <time>2023-10-01T07:06:30Z</time>
      </trkpt>
      <trkpt lat="43.41719" lon="2.06519">
        <ele>576</ele>
        <time>2023-10-01T07:06:31Z</time>
      </trkpt>
      <trkpt lat="43.41717" lon="2.06524">
        <ele>576.2</ele>
        <time>2023-10-01T07:06:32Z</time>
      </trkpt>
      <trkpt lat="43.41715" lon="2.06529">
        <ele>576.2</ele>
        <time>2023-10-01T07:06:33Z</time>
      </trkpt>
      <trkpt lat="43.41712" lon="2.06534">
        <ele>576.8</ele>
        <time>2023-10-01T07:06:34Z</time>
      </trkpt>
      <trkpt lat="43.41709" lon="2.06539">
        <ele>577.4</ele>
        <time>2023-10-01T07:06:35Z</time>
      </trkpt>
      <trkpt lat="43.41705" lon="2.06545">
        <ele>578.2</ele>
        <time>2023-10-01T07:06:36Z</time>
      </trkpt>
      <trkpt lat="43.41701" lon="2.06554">
        <ele>578.4</ele>
        <time>2023-10-01T07:06:37Z</time>
      </trkpt>
      <trkpt lat="43.41699" lon="2.06561">
        <ele>578.8</ele>
        <time>2023-10-01T07:06:38Z</time>
      </trkpt>
      <trkpt lat="43.41697" lon="2.06567">
        <ele>579.2</ele>
        <time>2023-10-01T07:06:39Z</time>
      </trkpt>
      <trkpt lat="43.41696" lon="2.06572">
        <ele>579.4</ele>
        <time>2023-10-01T07:06:40Z</time>
      </trkpt>
      <trkpt lat="43.41694" lon="2.06577">
        <ele>579.8</ele>
        <time>2023-10-01T07:06:41Z</time>
      </trkpt>
      <trkpt lat="43.41692" lon="2.06582">
        <ele>580.6</ele>
        <time>2023-10-01T07:06:42Z</time>
      </trkpt>
      <trkpt lat="43.4169" lon="2.06588">
        <ele>581.6</ele>
        <time>2023-10-01T07:06:43Z</time>
      </trkpt>
      <trkpt lat="43.41689" lon="2.06594">
        <ele>582.2</ele>
        <time>2023-10-01T07:06:44Z</time>
      </trkpt>
      <trkpt lat="43.41687" lon="2.066">
        <ele>583</ele>
        <time>2023-10-01T07:06:45Z</time>
      </trkpt>
      <trkpt lat="43.41683" lon="2.06611">
        <ele>583.8</ele>
        <time>2023-10-01T07:06:46Z</time>
      </trkpt>
      <trkpt lat="43.4168" lon="2.06616">
        <ele>584.2</ele>
        <time>2023-10-01T07:06:47Z</time>
      </trkpt>
      <trkpt lat="43.41678" lon="2.0662">
        <ele>584.6</ele>
        <time>2023-10-01T07:06:48Z</time>
      </trkpt>
      <trkpt lat="43.41676" lon="2.06624">
        <ele>584.8</ele>
        <time>2023-10-01T07:06:49Z</time>
      </trkpt>
      <trkpt lat="43.41673" lon="2.06628">
        <ele>586.2</ele>
        <time>2023-10-01T07:06:50Z</time>
      </trkpt>
      <trkpt lat="43.41671" lon="2.06632">
        <ele>586.4</ele>
        <time>2023-10-01T07:06:51Z</time>
      </trkpt>
      <trkpt lat="43.41668" lon="2.06637">
        <ele>587</ele>
        <time>2023-10-01T07:06:52Z</time>
      </trkpt>
      <trkpt lat="43.41663" lon="2.06643">
        <ele>587.2</ele>
        <time>2023-10-01T07:06:53Z</time>
      </trkpt>
      <trkpt lat="43.4166" lon="2.06648">
        <ele>587.6</ele>
        <time>2023-10-01T07:06:54Z</time>
      </trkpt>
      <trkpt lat="43.41659" lon="2.06652">
        <ele>588.2</ele>
        <time>2023-10-01T07:06:55Z</time>
      </trkpt>
      <trkpt lat="43.41658" lon="2.06656">
        <ele>588.4</ele>
        <time>2023-10-01T07:06:56Z</time>
      </trkpt>
      <trkpt lat="43.41655" lon="2.06662">
        <ele>589</ele>
        <time>2023-10-01T07:06:57Z</time>
      </trkpt>
      <trkpt lat="43.41654" lon="2.06666">
        <ele>589.2</ele>
        <time>2023-10-01T07:06:58Z</time>
      </trkpt>
      <trkpt lat="43.41654" lon="2.06669">
        <ele>589.6</ele>
        <time>2023-10-01T07:06:59Z</time>
      </trkpt>
      <trkpt lat="43.41653" lon="2.06674">
        <ele>589.8</ele>
        <time>2023-10-01T07:07:00Z</time>
      </trkpt>
      <trkpt lat="43.41651" lon="2.06678">
        <ele>590.4</ele>
        <time>2023-10-01T07:07:01Z</time>
      </trkpt>
      <trkpt lat="43.41649" lon="2.06682">
        <ele>590.8</ele>
        <time>2023-10-01T07:07:02Z</time>
      </trkpt>
      <trkpt lat="43.41648" lon="2.06684">
        <ele>590.8</ele>
        <time>2023-10-01T07:07:03Z</time>
      </trkpt>
      <trkpt lat="43.41645" lon="2.06688">
        <ele>591.2</ele>
        <time>2023-10-01T07:07:04Z</time>
      </trkpt>
      <trkpt lat="43.41641" lon="2.06693">
        <ele>591.2</ele>
        <time>2023-10-01T07:07:05Z</time>
      </trkpt>
      <trkpt lat="43.41639" lon="2.067">
        <ele>591.6</ele>
        <time>2023-10-01T07:07:06Z</time>
      </trkpt>
      <trkpt lat="43.41637" lon="2.06706">
        <ele>591.6</ele>
        <time>2023-10-01T07:07:07Z</time>
      </trkpt>
      <trkpt lat="43.41633" lon="2.06715">
        <ele>591.6</ele>
        <time>2023-10-01T07:07:08Z</time>
      </trkpt>
      <trkpt lat="43.41631" lon="2.06722">
        <ele>591.6</ele>
        <time>2023-10-01T07:07:09Z</time>
      </trkpt>
      <trkpt lat="43.41628" lon="2.06732">
        <ele>591.4</ele>
        <time>2023-10-01T07:07:10Z</time>
      </trkpt>
      <trkpt lat="43.41629" lon="2.06741">
        <ele>591.4</ele>
        <time>2023-10-01T07:07:11Z</time>
      </trkpt>
      <trkpt lat="43.4163" lon="2.06749">
        <ele>591.4</ele>
        <time>2023-10-01T07:07:12Z</time>
      </trkpt>
      <trkpt lat="43.41631" lon="2.06756">
        <ele>591.4</ele>
        <time>2023-10-01T07:07:13Z</time>
      </trkpt>
      <trkpt lat="43.41632" lon="2.06762">
        <ele>591.4</ele>
        <time>2023-10-01T07:07:14Z</time>
      </trkpt>
      <trkpt lat="43.41629" lon="2.06768">
        <ele>591.2</ele>
        <time>2023-10-01T07:07:15Z</time>
      </trkpt>
      <trkpt lat="43.41628" lon="2.06774">
        <ele>591.2</ele>
        <time>2023-10-01T07:07:16Z</time>
      </trkpt>
      <trkpt lat="43.41625" lon="2.0678">
        <ele>591.2</ele>
        <time>2023-10-01T07:07:17Z</time>
      </trkpt>
      <trkpt lat="43.41622" lon="2.06785">
        <ele>591.2</ele>
        <time>2023-10-01T07:07:18Z</time>
      </trkpt>
      <trkpt lat="43.41621" lon="2.06788">
        <ele>591.2</ele>
        <time>2023-10-01T07:07:19Z</time>
      </trkpt>
      <trkpt lat="43.41619" lon="2.06794">
        <ele>591.2</ele>
        <time>2023-10-01T07:07:20Z</time>
      </trkpt>
      <trkpt lat="43.41618" lon="2.06801">
        <ele>591.2</ele>
        <time>2023-10-01T07:07:21Z</time>
      </trkpt>
      <trkpt lat="43.41617" lon="2.06805">
        <ele>591.4</ele>
        <time>2023-10-01T07:07:22Z</time>
      </trkpt>
      <trkpt lat="43.41618" lon="2.06809">
        <ele>591.4</ele>
        <time>2023-10-01T07:07:23Z</time>
      </trkpt>
      <trkpt lat="43.41617" lon="2.06814">
        <ele>591.6</ele>
        <time>2023-10-01T07:07:24Z</time>
      </trkpt>
      <trkpt lat="43.41615" lon="2.06822">
        <ele>591.6</ele>
        <time>2023-10-01T07:07:25Z</time>
      </trkpt>
      <trkpt lat="43.41613" lon="2.06829">
        <ele>592</ele>
        <time>2023-10-01T07:07:26Z</time>
      </trkpt>
      <trkpt lat="43.41613" lon="2.06836">
        <ele>592.8</ele>
        <time>2023-10-01T07:07:27Z</time>
      </trkpt>
      <trkpt lat="43.41614" lon="2.06839">
        <ele>593</ele>
        <time>2023-10-01T07:07:28Z</time>
      </trkpt>
      <trkpt lat="43.41614" lon="2.06843">
        <ele>594</ele>
        <time>2023-10-01T07:07:29Z</time>
      </trkpt>
      <trkpt lat="43.41613" lon="2.06849">
        <ele>594.4</ele>
        <time>2023-10-01T07:07:30Z</time>
      </trkpt>
      <trkpt lat="43.41614" lon="2.06855">
        <ele>594.8</ele>
        <time>2023-10-01T07:07:31Z</time>
      </trkpt>
      <trkpt lat="43.41614" lon="2.06862">
        <ele>595.2</ele>
        <time>2023-10-01T07:07:32Z</time>
      </trkpt>
      <trkpt lat="43.41616" lon="2.06871">
        <ele>596</ele>
        <time>2023-10-01T07:07:33Z</time>
      </trkpt>
      <trkpt lat="43.41617" lon="2.06877">
        <ele>597</ele>
        <time>2023-10-01T07:07:34Z</time>
      </trkpt>
      <trkpt lat="43.41616" lon="2.06883">
        <ele>597.4</ele>
        <time>2023-10-01T07:07:35Z</time>
      </trkpt>
      <trkpt lat="43.41614" lon="2.0689">
        <ele>598</ele>
        <time>2023-10-01T07:07:36Z</time>
      </trkpt>
      <trkpt lat="43.4161" lon="2.06901">
        <ele>598.4</ele>
        <time>2023-10-01T07:07:37Z</time>
      </trkpt>
      <trkpt lat="43.41609" lon="2.06907">
        <ele>599</ele>
        <time>2023-10-01T07:07:38Z</time>
      </trkpt>
      <trkpt lat="43.41611" lon="2.06911">
        <ele>599.2</ele>
        <time>2023-10-01T07:07:39Z</time>
      </trkpt>
      <trkpt lat="43.41612" lon="2.06915">
        <ele>599.8</ele>
        <time>2023-10-01T07:07:40Z</time>
      </trkpt>
      <trkpt lat="43.41612" lon="2.06918">
        <ele>600.6</ele>
        <time>2023-10-01T07:07:41Z</time>
      </trkpt>
      <trkpt lat="43.41611" lon="2.06923">
        <ele>600.8</ele>
        <time>2023-10-01T07:07:42Z</time>
      </trkpt>
      <trkpt lat="43.41609" lon="2.06933">
        <ele>601.6</ele>
        <time>2023-10-01T07:07:43Z</time>
      </trkpt>
      <trkpt lat="43.41609" lon="2.0694">
        <ele>602.2</ele>
        <time>2023-10-01T07:07:44Z</time>
      </trkpt>
      <trkpt lat="43.41609" lon="2.06944">
        <ele>603</ele>
        <time>2023-10-01T07:07:45Z</time>
      </trkpt>
      <trkpt lat="43.41607" lon="2.06952">
        <ele>603</ele>
        <time>2023-10-01T07:07:46Z</time>
      </trkpt>
      <trkpt lat="43.41608" lon="2.06957">
        <ele>603.6</ele>
        <time>2023-10-01T07:07:47Z</time>
      </trkpt>
      <trkpt lat="43.4161" lon="2.06961">
        <ele>604</ele>
        <time>2023-10-01T07:07:48Z</time>
      </trkpt>
      <trkpt lat="43.41611" lon="2.06963">
        <ele>604.8</ele>
        <time>2023-10-01T07:07:49Z</time>
      </trkpt>
      <trkpt lat="43.41613" lon="2.06962">
        <ele>605.4</ele>
        <time>2023-10-01T07:07:50Z</time>
      </trkpt>
      <trkpt lat="43.41614" lon="2.06959">
        <ele>605.8</ele>
        <time>2023-10-01T07:07:51Z</time>
      </trkpt>
      <trkpt lat="43.41615" lon="2.06954">
        <ele>606.2</ele>
        <time>2023-10-01T07:07:52Z</time>
      </trkpt>
      <trkpt lat="43.41616" lon="2.06949">
        <ele>606.4</ele>
        <time>2023-10-01T07:07:53Z</time>
      </trkpt>
      <trkpt lat="43.41616" lon="2.06944">
        <ele>606.6</ele>
        <time>2023-10-01T07:07:54Z</time>
      </trkpt>
      <trkpt lat="43.41617" lon="2.06938">
        <ele>606.8</ele>
        <time>2023-10-01T07:07:55Z</time>
      </trkpt>
      <trkpt lat="43.41618" lon="2.06932">
        <ele>606.8</ele>
        <time>2023-10-01T07:07:56Z</time>
      </trkpt>
      <trkpt lat="43.41619" lon="2.06926">
        <ele>607</ele>
        <time>2023-10-01T07:07:57Z</time>
      </trkpt>
      <trkpt lat="43.41621" lon="2.06921">
        <ele>607</ele>
        <time>2023-10-01T07:07:58Z</time>
      </trkpt>
      <trkpt lat="43.41622" lon="2.06915">
        <ele>607.2</ele>
        <time>2023-10-01T07:07:59Z</time>
      </trkpt>
      <trkpt lat="43.41624" lon="2.06911">
        <ele>607.2</ele>
        <time>2023-10-01T07:08:00Z</time>
      </trkpt>
      <trkpt lat="43.41627" lon="2.06906">
        <ele>607.4</ele>
        <time>2023-10-01T07:08:01Z</time>
      </trkpt>
      <trkpt lat="43.41629" lon="2.06901">
        <ele>607.4</ele>
        <time>2023-10-01T07:08:02Z</time>
      </trkpt>
      <trkpt lat="43.41632" lon="2.06897">
        <ele>607.6</ele>
        <time>2023-10-01T07:08:03Z</time>
      </trkpt>
      <trkpt lat="43.41636" lon="2.06894">
        <ele>607.6</ele>
        <time>2023-10-01T07:08:04Z</time>
      </trkpt>
      <trkpt lat="43.41642" lon="2.06893">
        <ele>607.8</ele>
        <time>2023-10-01T07:08:05Z</time>
      </trkpt>
      <trkpt lat="43.41648" lon="2.06894">
        <ele>607.8</ele>
        <time>2023-10-01T07:08:06Z</time>
      </trkpt>
      <trkpt lat="43.41653" lon="2.06895">
        <ele>608</ele>
        <time>2023-10-01T07:08:07Z</time>
      </trkpt>
      <trkpt lat="43.41658" lon="2.06896">
        <ele>608</ele>
        <time>2023-10-01T07:08:08Z</time>
      </trkpt>
      <trkpt lat="43.41662" lon="2.06897">
        <ele>608</ele>
        <time>2023-10-01T07:08:09Z</time>
      </trkpt>
      <trkpt lat="43.41669" lon="2.069">
        <ele>608.2</ele>
        <time>2023-10-01T07:08:10Z</time>
      </trkpt>
      <trkpt lat="43.41676" lon="2.06903">
        <ele>608.2</ele>
        <time>2023-10-01T07:08:11Z</time>
      </trkpt>
      <trkpt lat="43.41683" lon="2.06907">
        <ele>608.4</ele>
        <time>2023-10-01T07:08:12Z</time>
      </trkpt>
      <trkpt lat="43.41689" lon="2.06911">
        <ele>608.4</ele>
        <time>2023-10-01T07:08:13Z</time>
      </trkpt>
      <trkpt lat="43.41694" lon="2.06914">
        <ele>608.4</ele>
        <time>2023-10-01T07:08:14Z</time>
      </trkpt>
      <trkpt lat="43.41697" lon="2.06917">
        <ele>608.6</ele>
        <time>2023-10-01T07:08:15Z</time>
      </trkpt>
      <trkpt lat="43.41703" lon="2.06918">
        <ele>608.6</ele>
        <time>2023-10-01T07:08:16Z</time>
      </trkpt>
      <trkpt lat="43.41707" lon="2.0692">
        <ele>608.6</ele>
        <time>2023-10-01T07:08:17Z</time>
      </trkpt>
      <trkpt lat="43.41712" lon="2.06923">
        <ele>608.8</ele>
        <time>2023-10-01T07:08:18Z</time>
      </trkpt>
      <trkpt lat="43.41718" lon="2.06926">
        <ele>608.8</ele>
        <time>2023-10-01T07:08:19Z</time>
      </trkpt>
      <trkpt lat="43.41725" lon="2.0693">
        <ele>609</ele>
        <time>2023-10-01T07:08:20Z</time>
      </trkpt>
      <trkpt lat="43.41729" lon="2.06932">
        <ele>609</ele>
        <time>2023-10-01T07:08:21Z</time>
      </trkpt>
      <trkpt lat="43.41732" lon="2.06934">
        <ele>609</ele>
        <time>2023-10-01T07:08:22Z</time>
      </trkpt>
      <trkpt lat="43.41736" lon="2.06936">
        <ele>609.2</ele>
        <time>2023-10-01T07:08:23Z</time>
      </trkpt>
      <trkpt lat="43.41739" lon="2.06939">
        <ele>609.2</ele>
        <time>2023-10-01T07:08:24Z</time>
      </trkpt>
      <trkpt lat="43.41743" lon="2.06941">
        <ele>609.4</ele>
        <time>2023-10-01T07:08:25Z</time>
      </trkpt>
      <trkpt lat="43.41746" lon="2.06943">
        <ele>609.6</ele>
        <time>2023-10-01T07:08:26Z</time>
      </trkpt>
      <trkpt lat="43.4175" lon="2.06946">
        <ele>609.6</ele>
        <time>2023-10-01T07:08:27Z</time>
      </trkpt>
      <trkpt lat="43.41755" lon="2.06949">
        <ele>609.6</ele>
        <time>2023-10-01T07:08:28Z</time>
      </trkpt>
      <trkpt lat="43.41759" lon="2.06952">
        <ele>609.8</ele>
        <time>2023-10-01T07:08:29Z</time>
      </trkpt>
      <trkpt lat="43.41763" lon="2.06955">
        <ele>609.8</ele>
        <time>2023-10-01T07:08:30Z</time>
      </trkpt>
      <trkpt lat="43.41767" lon="2.06957">
        <ele>609.8</ele>
        <time>2023-10-01T07:08:31Z</time>
      </trkpt>
      <trkpt lat="43.41771" lon="2.06957">
        <ele>609.8</ele>
        <time>2023-10-01T07:08:32Z</time>
      </trkpt>
      <trkpt lat="43.41776" lon="2.06953">
        <ele>609.8</ele>
        <time>2023-10-01T07:08:33Z</time>
      </trkpt>
      <trkpt lat="43.4178" lon="2.06949">
        <ele>609.8</ele>
        <time>2023-10-01T07:08:34Z</time>
      </trkpt>
      <trkpt lat="43.41781" lon="2.06946">
        <ele>610</ele>
        <time>2023-10-01T07:08:35Z</time>
      </trkpt>
      <trkpt lat="43.41782" lon="2.06941">
        <ele>610</ele>
        <time>2023-10-01T07:08:36Z</time>
      </trkpt>
      <trkpt lat="43.41783" lon="2.06938">
        <ele>610</ele>
        <time>2023-10-01T07:08:37Z</time>
      </trkpt>
      <trkpt lat="43.41785" lon="2.06936">
        <ele>610</ele>
        <time>2023-10-01T07:08:38Z</time>
      </trkpt>
      <trkpt lat="43.41786" lon="2.06934">
        <ele>610.2</ele>
        <time>2023-10-01T07:08:39Z</time>
      </trkpt>
      <trkpt lat="43.41788" lon="2.06933">
        <ele>610.2</ele>
        <time>2023-10-01T07:08:40Z</time>
      </trkpt>
      <trkpt lat="43.4179" lon="2.06932">
        <ele>610.2</ele>
        <time>2023-10-01T07:08:41Z</time>
      </trkpt>
      <trkpt lat="43.41792" lon="2.06933">
        <ele>610.4</ele>
        <time>2023-10-01T07:08:42Z</time>
      </trkpt>
      <trkpt lat="43.41795" lon="2.06933">
        <ele>610.6</ele>
        <time>2023-10-01T07:08:43Z</time>
      </trkpt>
      <trkpt lat="43.41798" lon="2.06932">
        <ele>610.8</ele>
        <time>2023-10-01T07:08:44Z</time>
      </trkpt>
      <trkpt lat="43.41801" lon="2.06931">
        <ele>611.2</ele>
        <time>2023-10-01T07:08:45Z</time>
      </trkpt>
      <trkpt lat="43.41802" lon="2.0693">
        <ele>611.4</ele>
        <time>2023-10-01T07:08:46Z</time>
      </trkpt>
      <trkpt lat="43.41803" lon="2.06929">
        <ele>611.6</ele>
        <time>2023-10-01T07:08:47Z</time>
      </trkpt>
      <trkpt lat="43.41805" lon="2.06928">
        <ele>611.8</ele>
        <time>2023-10-01T07:08:48Z</time>
      </trkpt>
      <trkpt lat="43.41808" lon="2.06926">
        <ele>612.4</ele>
        <time>2023-10-01T07:08:49Z</time>
      </trkpt>
      <trkpt lat="43.41812" lon="2.06925">
        <ele>612.6</ele>
        <time>2023-10-01T07:08:50Z</time>
      </trkpt>
      <trkpt lat="43.41813" lon="2.06924">
        <ele>613.2</ele>
        <time>2023-10-01T07:08:51Z</time>
      </trkpt>
      <trkpt lat="43.41814" lon="2.06923">
        <ele>613.8</ele>
        <time>2023-10-01T07:08:52Z</time>
      </trkpt>
      <trkpt lat="43.41815" lon="2.06921">
        <ele>614.2</ele>
        <time>2023-10-01T07:08:53Z</time>
      </trkpt>
      <trkpt lat="43.41816" lon="2.06921">
        <ele>615</ele>
        <time>2023-10-01T07:08:54Z</time>
      </trkpt>
      <trkpt lat="43.41817" lon="2.06921">
        <ele>615.2</ele>
        <time>2023-10-01T07:08:55Z</time>
      </trkpt>
      <trkpt lat="43.4182" lon="2.06922">
        <ele>615.6</ele>
        <time>2023-10-01T07:08:56Z</time>
      </trkpt>
      <trkpt lat="43.4182" lon="2.06922">
        <ele>615.6</ele>
        <time>2023-10-01T07:08:57Z</time>
      </trkpt>
      <trkpt lat="43.41822" lon="2.06921">
        <ele>615.8</ele>
        <time>2023-10-01T07:08:58Z</time>
      </trkpt>
      <trkpt lat="43.41824" lon="2.0692">
        <ele>616</ele>
        <time>2023-10-01T07:08:59Z</time>
      </trkpt>
      <trkpt lat="43.41825" lon="2.06919">
        <ele>616.2</ele>
        <time>2023-10-01T07:09:00Z</time>
      </trkpt>
      <trkpt lat="43.41827" lon="2.06917">
        <ele>616.4</ele>
        <time>2023-10-01T07:09:01Z</time>
      </trkpt>
      <trkpt lat="43.41828" lon="2.06915">
        <ele>616.4</ele>
        <time>2023-10-01T07:09:02Z</time>
      </trkpt>
      <trkpt lat="43.41827" lon="2.06913">
        <ele>616.4</ele>
        <time>2023-10-01T07:09:03Z</time>
      </trkpt>
      <trkpt lat="43.41827" lon="2.06912">
        <ele>616.6</ele>
        <time>2023-10-01T07:09:04Z</time>
      </trkpt>
      <trkpt lat="43.41826" lon="2.06912">
        <ele>616.8</ele>
        <time>2023-10-01T07:09:05Z</time>
      </trkpt>
      <trkpt lat="43.41824" lon="2.06912">
        <ele>616.8</ele>
        <time>2023-10-01T07:09:06Z</time>
      </trkpt>
      <trkpt lat="43.41823" lon="2.06911">
        <ele>617</ele>
        <time>2023-10-01T07:09:07Z</time>
      </trkpt>
      <trkpt lat="43.41821" lon="2.0691">
        <ele>617.2</ele>
        <time>2023-10-01T07:09:08Z</time>
      </trkpt>
      <trkpt lat="43.4182" lon="2.06909">
        <ele>617.2</ele>
        <time>2023-10-01T07:09:09Z</time>
      </trkpt>
      <trkpt lat="43.41819" lon="2.06909">
        <ele>617.2</ele>
        <time>2023-10-01T07:09:10Z</time>
      </trkpt>
      <trkpt lat="43.41817" lon="2.06909">
        <ele>617.2</ele>
        <time>2023-10-01T07:09:11Z</time>
      </trkpt>
      <trkpt lat="43.41816" lon="2.06908">
        <ele>617.2</ele>
        <time>2023-10-01T07:09:12Z</time>
      </trkpt>
      <trkpt lat="43.41815" lon="2.06908">
        <ele>617.4</ele>
        <time>2023-10-01T07:09:13Z</time>
      </trkpt>
      <trkpt lat="43.41813" lon="2.06908">
        <ele>617.8</ele>
        <time>2023-10-01T07:09:14Z</time>
      </trkpt>
      <trkpt lat="43.41812" lon="2.06908">
        <ele>617.8</ele>
        <time>2023-10-01T07:09:15Z</time>
      </trkpt>
      <trkpt lat="43.4181" lon="2.06908">
        <ele>618</ele>
        <time>2023-10-01T07:09:16Z</time>
      </trkpt>
      <trkpt lat="43.41808" lon="2.06908">
        <ele>618.4</ele>
        <time>2023-10-01T07:09:17Z</time>
      </trkpt>
      <trkpt lat="43.41806" lon="2.06908">
        <ele>618.4</ele>
        <time>2023-10-01T07:09:18Z</time>
      </trkpt>
      <trkpt lat="43.41804" lon="2.06907">
        <ele>619</ele>
        <time>2023-10-01T07:09:19Z</time>
      </trkpt>
      <trkpt lat="43.41803" lon="2.06906">
        <ele>619</ele>
        <time>2023-10-01T07:09:20Z</time>
      </trkpt>
      <trkpt lat="43.41801" lon="2.06904">
        <ele>619.2</ele>
        <time>2023-10-01T07:09:21Z</time>
      </trkpt>
      <trkpt lat="43.41798" lon="2.06903">
        <ele>619.6</ele>
        <time>2023-10-01T07:09:22Z</time>
      </trkpt>
      <trkpt lat="43.41795" lon="2.06901">
        <ele>619.6</ele>
        <time>2023-10-01T07:09:23Z</time>
      </trkpt>
      <trkpt lat="43.41792" lon="2.069">
        <ele>619.8</ele>
        <time>2023-10-01T07:09:24Z</time>
      </trkpt>
      <trkpt lat="43.4179" lon="2.06898">
        <ele>619.8</ele>
        <time>2023-10-01T07:09:25Z</time>
      </trkpt>
      <trkpt lat="43.41788" lon="2.06896">
        <ele>619.8</ele>
        <time>2023-10-01T07:09:26Z</time>
      </trkpt>
      <trkpt lat="43.41786" lon="2.06895">
        <ele>619.8</ele>
        <time>2023-10-01T07:09:27Z</time>
      </trkpt>
      <trkpt lat="43.41783" lon="2.06893">
        <ele>619.8</ele>
        <time>2023-10-01T07:09:28Z</time>
      </trkpt>
      <trkpt lat="43.4178" lon="2.06889">
        <ele>619.8</ele>
        <time>2023-10-01T07:09:29Z</time>
      </trkpt>
      <trkpt lat="43.41777" lon="2.06885">
        <ele>619.8</ele>
        <time>2023-10-01T07:09:30Z</time>
      </trkpt>
      <trkpt lat="43.41775" lon="2.0688">
        <ele>619.8</ele>
        <time>2023-10-01T07:09:31Z</time>
      </trkpt>
      <trkpt lat="43.41772" lon="2.06875">
        <ele>619.6</ele>
        <time>2023-10-01T07:09:32Z</time>
      </trkpt>
      <trkpt lat="43.41771" lon="2.06871">
        <ele>619.6</ele>
        <time>2023-10-01T07:09:33Z</time>
      </trkpt>
      <trkpt lat="43.41768" lon="2.06867">
        <ele>619.4</ele>
        <time>2023-10-01T07:09:34Z</time>
      </trkpt>
      <trkpt lat="43.41766" lon="2.06864">
        <ele>619.2</ele>
        <time>2023-10-01T07:09:35Z</time>
      </trkpt>
      <trkpt lat="43.41764" lon="2.06862">
        <ele>619.2</ele>
        <time>2023-10-01T07:09:36Z</time>
      </trkpt>
      <trkpt lat="43.41761" lon="2.06861">
        <ele>619.2</ele>
        <time>2023-10-01T07:09:37Z</time>
      </trkpt>
      <trkpt lat="43.41757" lon="2.0686">
        <ele>619.2</ele>
        <time>2023-10-01T07:09:38Z</time>
      </trkpt>
      <trkpt lat="43.41751" lon="2.06859">
        <ele>619.2</ele>
        <time>2023-10-01T07:09:39Z</time>
      </trkpt>
      <trkpt lat="43.41744" lon="2.06856">
        <ele>619</ele>
        <time>2023-10-01T07:09:40Z</time>
      </trkpt>
      <trkpt lat="43.41735" lon="2.06848">
        <ele>618.6</ele>
        <time>2023-10-01T07:09:42Z</time>
      </trkpt>
      <trkpt lat="43.41731" lon="2.06845">
        <ele>618.4</ele>
        <time>2023-10-01T07:09:43Z</time>
      </trkpt>
      <trkpt lat="43.41728" lon="2.06842">
        <ele>618</ele>
        <time>2023-10-01T07:09:44Z</time>
      </trkpt>
      <trkpt lat="43.41723" lon="2.0684">
        <ele>617.8</ele>
        <time>2023-10-01T07:09:45Z</time>
      </trkpt>
      <trkpt lat="43.41719" lon="2.06837">
        <ele>617.4</ele>
        <time>2023-10-01T07:09:46Z</time>
      </trkpt>
      <trkpt lat="43.41716" lon="2.06836">
        <ele>616.8</ele>
        <time>2023-10-01T07:09:47Z</time>
      </trkpt>
      <trkpt lat="43.41714" lon="2.06835">
        <ele>616.4</ele>
        <time>2023-10-01T07:09:48Z</time>
      </trkpt>
      <trkpt lat="43.4171" lon="2.06834">
        <ele>615.4</ele>
        <time>2023-10-01T07:09:49Z</time>
      </trkpt>
      <trkpt lat="43.41707" lon="2.06833">
        <ele>615</ele>
        <time>2023-10-01T07:09:50Z</time>
      </trkpt>
      <trkpt lat="43.41706" lon="2.06832">
        <ele>614.2</ele>
        <time>2023-10-01T07:09:51Z</time>
      </trkpt>
      <trkpt lat="43.41706" lon="2.06828">
        <ele>613.8</ele>
        <time>2023-10-01T07:09:52Z</time>
      </trkpt>
      <trkpt lat="43.41705" lon="2.06824">
        <ele>613</ele>
        <time>2023-10-01T07:09:53Z</time>
      </trkpt>
      <trkpt lat="43.41706" lon="2.06812">
        <ele>611.8</ele>
        <time>2023-10-01T07:09:55Z</time>
      </trkpt>
      <trkpt lat="43.41706" lon="2.06807">
        <ele>611.4</ele>
        <time>2023-10-01T07:09:56Z</time>
      </trkpt>
      <trkpt lat="43.41706" lon="2.06803">
        <ele>611.2</ele>
        <time>2023-10-01T07:09:57Z</time>
      </trkpt>
      <trkpt lat="43.41708" lon="2.06798">
        <ele>611</ele>
        <time>2023-10-01T07:09:58Z</time>
      </trkpt>
      <trkpt lat="43.41714" lon="2.06781">
        <ele>610.8</ele>
        <time>2023-10-01T07:10:01Z</time>
      </trkpt>
      <trkpt lat="43.41716" lon="2.06776">
        <ele>610.8</ele>
        <time>2023-10-01T07:10:02Z</time>
      </trkpt>
      <trkpt lat="43.41729" lon="2.06758">
        <ele>611</ele>
        <time>2023-10-01T07:10:06Z</time>
      </trkpt>
      <trkpt lat="43.4174" lon="2.06749">
        <ele>611.4</ele>
        <time>2023-10-01T07:10:09Z</time>
      </trkpt>
      <trkpt lat="43.41755" lon="2.0674">
        <ele>611.8</ele>
        <time>2023-10-01T07:10:12Z</time>
      </trkpt>
      <trkpt lat="43.41767" lon="2.06731">
        <ele>612</ele>
        <time>2023-10-01T07:10:14Z</time>
      </trkpt>
      <trkpt lat="43.41775" lon="2.06724">
        <ele>612</ele>
        <time>2023-10-01T07:10:16Z</time>
      </trkpt>
      <trkpt lat="43.41781" lon="2.06719">
        <ele>612</ele>
        <time>2023-10-01T07:10:17Z</time>
      </trkpt>
      <trkpt lat="43.41809" lon="2.06696">
        <ele>612.2</ele>
        <time>2023-10-01T07:10:21Z</time>
      </trkpt>
      <trkpt lat="43.41815" lon="2.06691">
        <ele>612.2</ele>
        <time>2023-10-01T07:10:22Z</time>
      </trkpt>
      <trkpt lat="43.41825" lon="2.06681">
        <ele>612.2</ele>
        <time>2023-10-01T07:10:24Z</time>
      </trkpt>
      <trkpt lat="43.41828" lon="2.06675">
        <ele>612.2</ele>
        <time>2023-10-01T07:10:25Z</time>
      </trkpt>
      <trkpt lat="43.41831" lon="2.0667">
        <ele>612.2</ele>
        <time>2023-10-01T07:10:26Z</time>
      </trkpt>
      <trkpt lat="43.41833" lon="2.06665">
        <ele>612.2</ele>
        <time>2023-10-01T07:10:27Z</time>
      </trkpt>
      <trkpt lat="43.41836" lon="2.06659">
        <ele>612.2</ele>
        <time>2023-10-01T07:10:28Z</time>
      </trkpt>
      <trkpt lat="43.41844" lon="2.06644">
        <ele>612</ele>
        <time>2023-10-01T07:10:30Z</time>
      </trkpt>
      <trkpt lat="43.41845" lon="2.06636">
        <ele>612</ele>
        <time>2023-10-01T07:10:31Z</time>
      </trkpt>
      <trkpt lat="43.41844" lon="2.06629">
        <ele>611.8</ele>
        <time>2023-10-01T07:10:32Z</time>
      </trkpt>
      <trkpt lat="43.41844" lon="2.06621">
        <ele>611.8</ele>
        <time>2023-10-01T07:10:33Z</time>
      </trkpt>
      <trkpt lat="43.41844" lon="2.06614">
        <ele>611.8</ele>
        <time>2023-10-01T07:10:34Z</time>
      </trkpt>
      <trkpt lat="43.41842" lon="2.06605">
        <ele>611.8</ele>
        <time>2023-10-01T07:10:35Z</time>
      </trkpt>
      <trkpt lat="43.41842" lon="2.06597">
        <ele>611.8</ele>
        <time>2023-10-01T07:10:36Z</time>
      </trkpt>
      <trkpt lat="43.41845" lon="2.06589">
        <ele>611.8</ele>
        <time>2023-10-01T07:10:37Z</time>
      </trkpt>
      <trkpt lat="43.41847" lon="2.06581">
        <ele>611.8</ele>
        <time>2023-10-01T07:10:38Z</time>
      </trkpt>
      <trkpt lat="43.41849" lon="2.06574">
        <ele>611.8</ele>
        <time>2023-10-01T07:10:39Z</time>
      </trkpt>
      <trkpt lat="43.41852" lon="2.06559">
        <ele>611.6</ele>
        <time>2023-10-01T07:10:41Z</time>
      </trkpt>
      <trkpt lat="43.41859" lon="2.06525">
        <ele>611.8</ele>
        <time>2023-10-01T07:10:45Z</time>
      </trkpt>
      <trkpt lat="43.41861" lon="2.06518">
        <ele>612</ele>
        <time>2023-10-01T07:10:46Z</time>
      </trkpt>
      <trkpt lat="43.41865" lon="2.06505">
        <ele>612.2</ele>
        <time>2023-10-01T07:10:48Z</time>
      </trkpt>
      <trkpt lat="43.41871" lon="2.06483">
        <ele>612.4</ele>
        <time>2023-10-01T07:10:51Z</time>
      </trkpt>
      <trkpt lat="43.41887" lon="2.06462">
        <ele>612.4</ele>
        <time>2023-10-01T07:10:54Z</time>
      </trkpt>
      <trkpt lat="43.41892" lon="2.06457">
        <ele>612.4</ele>
        <time>2023-10-01T07:10:55Z</time>
      </trkpt>
      <trkpt lat="43.41896" lon="2.06452">
        <ele>612.4</ele>
        <time>2023-10-01T07:10:56Z</time>
      </trkpt>
      <trkpt lat="43.41899" lon="2.06445">
        <ele>612.4</ele>
        <time>2023-10-01T07:10:57Z</time>
      </trkpt>
      <trkpt lat="43.41905" lon="2.06436">
        <ele>612.4</ele>
        <time>2023-10-01T07:10:58Z</time>
      </trkpt>
      <trkpt lat="43.4191" lon="2.06429">
        <ele>612.4</ele>
        <time>2023-10-01T07:10:59Z</time>
      </trkpt>
      <trkpt lat="43.41922" lon="2.06416">
        <ele>612.2</ele>
        <time>2023-10-01T07:11:01Z</time>
      </trkpt>
      <trkpt lat="43.41927" lon="2.06411">
        <ele>612.2</ele>
        <time>2023-10-01T07:11:02Z</time>
      </trkpt>
      <trkpt lat="43.4193" lon="2.06407">
        <ele>612.2</ele>
        <time>2023-10-01T07:11:03Z</time>
      </trkpt>
      <trkpt lat="43.41934" lon="2.06403">
        <ele>612.2</ele>
        <time>2023-10-01T07:11:04Z</time>
      </trkpt>
      <trkpt lat="43.4194" lon="2.06399">
        <ele>612</ele>
        <time>2023-10-01T07:11:05Z</time>
      </trkpt>
      <trkpt lat="43.41945" lon="2.06394">
        <ele>612</ele>
        <time>2023-10-01T07:11:06Z</time>
      </trkpt>
      <trkpt lat="43.41958" lon="2.0638">
        <ele>612</ele>
        <time>2023-10-01T07:11:09Z</time>
      </trkpt>
      <trkpt lat="43.41964" lon="2.06377">
        <ele>612</ele>
        <time>2023-10-01T07:11:10Z</time>
      </trkpt>
      <trkpt lat="43.41968" lon="2.06375">
        <ele>612</ele>
        <time>2023-10-01T07:11:11Z</time>
      </trkpt>
      <trkpt lat="43.41972" lon="2.06373">
        <ele>612</ele>
        <time>2023-10-01T07:11:12Z</time>
      </trkpt>
      <trkpt lat="43.41973" lon="2.06371">
        <ele>612</ele>
        <time>2023-10-01T07:11:13Z</time>
      </trkpt>
      <trkpt lat="43.41973" lon="2.06371">
        <ele>612</ele>
        <time>2023-10-01T07:11:14Z</time>
      </trkpt>
      <trkpt lat="43.41972" lon="2.0637">
        <ele>612</ele>
        <time>2023-10-01T07:11:15Z</time>
      </trkpt>
      <trkpt lat="43.41972" lon="2.06369">
        <ele>612</ele>
        <time>2023-10-01T07:11:16Z</time>
      </trkpt>
      <trkpt lat="43.41971" lon="2.06369">
        <ele>612</ele>
        <time>2023-10-01T07:11:17Z</time>
      </trkpt>
      <trkpt lat="43.41971" lon="2.06368">
        <ele>612</ele>
        <time>2023-10-01T07:11:18Z</time>
      </trkpt>
      <trkpt lat="43.41971" lon="2.06368">
        <ele>612</ele>
        <time>2023-10-01T07:11:19Z</time>
      </trkpt>
      <trkpt lat="43.4197" lon="2.06367">
        <ele>612</ele>
        <time>2023-10-01T07:11:21Z</time>
      </trkpt>
      <trkpt lat="43.4197" lon="2.06366">
        <ele>612</ele>
        <time>2023-10-01T07:11:22Z</time>
      </trkpt>
      <trkpt lat="43.41969" lon="2.06366">
        <ele>612</ele>
        <time>2023-10-01T07:11:23Z</time>
      </trkpt>
      <trkpt lat="43.41969" lon="2.06365">
        <ele>611.6</ele>
        <time>2023-10-01T07:11:24Z</time>
      </trkpt>
      <trkpt lat="43.41969" lon="2.06365">
        <ele>611.6</ele>
        <time>2023-10-01T07:11:25Z</time>
      </trkpt>
      <trkpt lat="43.41968" lon="2.06364">
        <ele>611.8</ele>
        <time>2023-10-01T07:11:26Z</time>
      </trkpt>
      <trkpt lat="43.41968" lon="2.06364">
        <ele>611.8</ele>
        <time>2023-10-01T07:11:27Z</time>
      </trkpt>
      <trkpt lat="43.41967" lon="2.06363">
        <ele>611.8</ele>
        <time>2023-10-01T07:11:28Z</time>
      </trkpt>
      <trkpt lat="43.41967" lon="2.06362">
        <ele>612</ele>
        <time>2023-10-01T07:11:29Z</time>
      </trkpt>
      <trkpt lat="43.41967" lon="2.06362">
        <ele>612</ele>
        <time>2023-10-01T07:11:30Z</time>
      </trkpt>
      <trkpt lat="43.41966" lon="2.06361">
        <ele>611.8</ele>
        <time>2023-10-01T07:11:32Z</time>
      </trkpt>
      <trkpt lat="43.41966" lon="2.06361">
        <ele>611.8</ele>
        <time>2023-10-01T07:11:47Z</time>
      </trkpt>
      <trkpt lat="43.41965" lon="2.0636">
        <ele>611.8</ele>
        <time>2023-10-01T07:11:48Z</time>
      </trkpt>
      <trkpt lat="43.41957" lon="2.06351">
        <ele>611.4</ele>
        <time>2023-10-01T07:11:50Z</time>
      </trkpt>
      <trkpt lat="43.41952" lon="2.06347">
        <ele>611.2</ele>
        <time>2023-10-01T07:11:51Z</time>
      </trkpt>
      <trkpt lat="43.41948" lon="2.06343">
        <ele>610.6</ele>
        <time>2023-10-01T07:11:52Z</time>
      </trkpt>
      <trkpt lat="43.41944" lon="2.0634">
        <ele>610.4</ele>
        <time>2023-10-01T07:11:53Z</time>
      </trkpt>
      <trkpt lat="43.41941" lon="2.06336">
        <ele>609.6</ele>
        <time>2023-10-01T07:11:54Z</time>
      </trkpt>
      <trkpt lat="43.41937" lon="2.06334">
        <ele>608.6</ele>
        <time>2023-10-01T07:11:55Z</time>
      </trkpt>
      <trkpt lat="43.41934" lon="2.06333">
        <ele>608.2</ele>
        <time>2023-10-01T07:11:56Z</time>
      </trkpt>
      <trkpt lat="43.41927" lon="2.06331">
        <ele>606.6</ele>
        <time>2023-10-01T07:11:57Z</time>
      </trkpt>
      <trkpt lat="43.41921" lon="2.0633">
        <ele>606.2</ele>
        <time>2023-10-01T07:11:58Z</time>
      </trkpt>
      <trkpt lat="43.41913" lon="2.06329">
        <ele>605.2</ele>
        <time>2023-10-01T07:12:00Z</time>
      </trkpt>
      <trkpt lat="43.41908" lon="2.06327">
        <ele>602.8</ele>
        <time>2023-10-01T07:12:01Z</time>
      </trkpt>
      <trkpt lat="43.41902" lon="2.06323">
        <ele>600.6</ele>
        <time>2023-10-01T07:12:02Z</time>
      </trkpt>
      <trkpt lat="43.41897" lon="2.06318">
        <ele>600.2</ele>
        <time>2023-10-01T07:12:03Z</time>
      </trkpt>
      <trkpt lat="43.4189" lon="2.06315">
        <ele>599</ele>
        <time>2023-10-01T07:12:04Z</time>
      </trkpt>
      <trkpt lat="43.41884" lon="2.06312">
        <ele>598.6</ele>
        <time>2023-10-01T07:12:05Z</time>
      </trkpt>
      <trkpt lat="43.41877" lon="2.0631">
        <ele>597.6</ele>
        <time>2023-10-01T07:12:06Z</time>
      </trkpt>
      <trkpt lat="43.41871" lon="2.06309">
        <ele>597.2</ele>
        <time>2023-10-01T07:12:07Z</time>
      </trkpt>
      <trkpt lat="43.41867" lon="2.06307">
        <ele>596.2</ele>
        <time>2023-10-01T07:12:08Z</time>
      </trkpt>
      <trkpt lat="43.41863" lon="2.06304">
        <ele>595.8</ele>
        <time>2023-10-01T07:12:09Z</time>
      </trkpt>
      <trkpt lat="43.41861" lon="2.06299">
        <ele>593.8</ele>
        <time>2023-10-01T07:12:10Z</time>
      </trkpt>
      <trkpt lat="43.41861" lon="2.06293">
        <ele>592.2</ele>
        <time>2023-10-01T07:12:11Z</time>
      </trkpt>
      <trkpt lat="43.41861" lon="2.06285">
        <ele>591.2</ele>
        <time>2023-10-01T07:12:12Z</time>
      </trkpt>
      <trkpt lat="43.41861" lon="2.06279">
        <ele>588.8</ele>
        <time>2023-10-01T07:12:13Z</time>
      </trkpt>
      <trkpt lat="43.41862" lon="2.06274">
        <ele>587.8</ele>
        <time>2023-10-01T07:12:14Z</time>
      </trkpt>
      <trkpt lat="43.41863" lon="2.06268">
        <ele>586.4</ele>
        <time>2023-10-01T07:12:15Z</time>
      </trkpt>
      <trkpt lat="43.41864" lon="2.06263">
        <ele>585.6</ele>
        <time>2023-10-01T07:12:16Z</time>
      </trkpt>
      <trkpt lat="43.41864" lon="2.06258">
        <ele>584.8</ele>
        <time>2023-10-01T07:12:17Z</time>
      </trkpt>
      <trkpt lat="43.41864" lon="2.06253">
        <ele>583.4</ele>
        <time>2023-10-01T07:12:18Z</time>
      </trkpt>
      <trkpt lat="43.41863" lon="2.06249">
        <ele>582.2</ele>
        <time>2023-10-01T07:12:19Z</time>
      </trkpt>
      <trkpt lat="43.41864" lon="2.06246">
        <ele>580.4</ele>
        <time>2023-10-01T07:12:20Z</time>
      </trkpt>
      <trkpt lat="43.41864" lon="2.06243">
        <ele>580</ele>
        <time>2023-10-01T07:12:21Z</time>
      </trkpt>
      <trkpt lat="43.41864" lon="2.06239">
        <ele>577.6</ele>
        <time>2023-10-01T07:12:22Z</time>
      </trkpt>
      <trkpt lat="43.41866" lon="2.06237">
        <ele>577</ele>
        <time>2023-10-01T07:12:23Z</time>
      </trkpt>
      <trkpt lat="43.41867" lon="2.06234">
        <ele>575.6</ele>
        <time>2023-10-01T07:12:24Z</time>
      </trkpt>
      <trkpt lat="43.41871" lon="2.06226">
        <ele>574.6</ele>
        <time>2023-10-01T07:12:26Z</time>
      </trkpt>
      <trkpt lat="43.41875" lon="2.06222">
        <ele>574.4</ele>
        <time>2023-10-01T07:12:27Z</time>
      </trkpt>
      <trkpt lat="43.4188" lon="2.06219">
        <ele>574.4</ele>
        <time>2023-10-01T07:12:28Z</time>
      </trkpt>
      <trkpt lat="43.41888" lon="2.06216">
        <ele>574</ele>
        <time>2023-10-01T07:12:29Z</time>
      </trkpt>
      <trkpt lat="43.41896" lon="2.06214">
        <ele>573.8</ele>
        <time>2023-10-01T07:12:30Z</time>
      </trkpt>
      <trkpt lat="43.41901" lon="2.06213">
        <ele>573.6</ele>
        <time>2023-10-01T07:12:31Z</time>
      </trkpt>
      <trkpt lat="43.41908" lon="2.0621">
        <ele>573.6</ele>
        <time>2023-10-01T07:12:32Z</time>
      </trkpt>
      <trkpt lat="43.41912" lon="2.06209">
        <ele>573.6</ele>
        <time>2023-10-01T07:12:33Z</time>
      </trkpt>
      <trkpt lat="43.41917" lon="2.06209">
        <ele>573.6</ele>
        <time>2023-10-01T07:12:34Z</time>
      </trkpt>
      <trkpt lat="43.41923" lon="2.06207">
        <ele>573.6</ele>
        <time>2023-10-01T07:12:35Z</time>
      </trkpt>
      <trkpt lat="43.41931" lon="2.06205">
        <ele>573.6</ele>
        <time>2023-10-01T07:12:37Z</time>
      </trkpt>
      <trkpt lat="43.41932" lon="2.06202">
        <ele>573.4</ele>
        <time>2023-10-01T07:12:38Z</time>
      </trkpt>
      <trkpt lat="43.41935" lon="2.06198">
        <ele>573.4</ele>
        <time>2023-10-01T07:12:39Z</time>
      </trkpt>
      <trkpt lat="43.41938" lon="2.06194">
        <ele>573.4</ele>
        <time>2023-10-01T07:12:40Z</time>
      </trkpt>
      <trkpt lat="43.41942" lon="2.06188">
        <ele>573.2</ele>
        <time>2023-10-01T07:12:41Z</time>
      </trkpt>
      <trkpt lat="43.41944" lon="2.06183">
        <ele>573</ele>
        <time>2023-10-01T07:12:42Z</time>
      </trkpt>
      <trkpt lat="43.41947" lon="2.06175">
        <ele>572.6</ele>
        <time>2023-10-01T07:12:43Z</time>
      </trkpt>
      <trkpt lat="43.41949" lon="2.06165">
        <ele>571.8</ele>
        <time>2023-10-01T07:12:45Z</time>
      </trkpt>
      <trkpt lat="43.4195" lon="2.06161">
        <ele>571.6</ele>
        <time>2023-10-01T07:12:46Z</time>
      </trkpt>
      <trkpt lat="43.41951" lon="2.06158">
        <ele>571</ele>
        <time>2023-10-01T07:12:47Z</time>
      </trkpt>
      <trkpt lat="43.41953" lon="2.06155">
        <ele>570.8</ele>
        <time>2023-10-01T07:12:48Z</time>
      </trkpt>
      <trkpt lat="43.41956" lon="2.06153">
        <ele>569.6</ele>
        <time>2023-10-01T07:12:49Z</time>
      </trkpt>
      <trkpt lat="43.4196" lon="2.06146">
        <ele>568.8</ele>
        <time>2023-10-01T07:12:50Z</time>
      </trkpt>
      <trkpt lat="43.41966" lon="2.06142">
        <ele>568.4</ele>
        <time>2023-10-01T07:12:51Z</time>
      </trkpt>
      <trkpt lat="43.4197" lon="2.06138">
        <ele>568.2</ele>
        <time>2023-10-01T07:12:52Z</time>
      </trkpt>
      <trkpt lat="43.41972" lon="2.06135">
        <ele>568</ele>
        <time>2023-10-01T07:12:53Z</time>
      </trkpt>
      <trkpt lat="43.41975" lon="2.06133">
        <ele>567.6</ele>
        <time>2023-10-01T07:12:54Z</time>
      </trkpt>
      <trkpt lat="43.41978" lon="2.06129">
        <ele>567.4</ele>
        <time>2023-10-01T07:12:55Z</time>
      </trkpt>
      <trkpt lat="43.41981" lon="2.06121">
        <ele>567</ele>
        <time>2023-10-01T07:12:56Z</time>
      </trkpt>
      <trkpt lat="43.41981" lon="2.06116">
        <ele>566.2</ele>
        <time>2023-10-01T07:12:57Z</time>
      </trkpt>
      <trkpt lat="43.41982" lon="2.0611">
        <ele>565.8</ele>
        <time>2023-10-01T07:12:58Z</time>
      </trkpt>
      <trkpt lat="43.41986" lon="2.06107">
        <ele>565.4</ele>
        <time>2023-10-01T07:12:59Z</time>
      </trkpt>
      <trkpt lat="43.41988" lon="2.06104">
        <ele>565</ele>
        <time>2023-10-01T07:13:00Z</time>
      </trkpt>
      <trkpt lat="43.41991" lon="2.06096">
        <ele>563.6</ele>
        <time>2023-10-01T07:13:02Z</time>
      </trkpt>
      <trkpt lat="43.41991" lon="2.06093">
        <ele>563</ele>
        <time>2023-10-01T07:13:03Z</time>
      </trkpt>
      <trkpt lat="43.41995" lon="2.06091">
        <ele>562.8</ele>
        <time>2023-10-01T07:13:04Z</time>
      </trkpt>
      <trkpt lat="43.41999" lon="2.06087">
        <ele>562.4</ele>
        <time>2023-10-01T07:13:05Z</time>
      </trkpt>
      <trkpt lat="43.42004" lon="2.06084">
        <ele>562.2</ele>
        <time>2023-10-01T07:13:06Z</time>
      </trkpt>
      <trkpt lat="43.42008" lon="2.06081">
        <ele>562</ele>
        <time>2023-10-01T07:13:07Z</time>
      </trkpt>
      <trkpt lat="43.42013" lon="2.06078">
        <ele>561.6</ele>
        <time>2023-10-01T07:13:08Z</time>
      </trkpt>
      <trkpt lat="43.42024" lon="2.06075">
        <ele>561.6</ele>
        <time>2023-10-01T07:13:11Z</time>
      </trkpt>
      <trkpt lat="43.42027" lon="2.06073">
        <ele>561.6</ele>
        <time>2023-10-01T07:13:12Z</time>
      </trkpt>
      <trkpt lat="43.42031" lon="2.06071">
        <ele>562</ele>
        <time>2023-10-01T07:13:13Z</time>
      </trkpt>
      <trkpt lat="43.42041" lon="2.06065">
        <ele>562.8</ele>
        <time>2023-10-01T07:13:15Z</time>
      </trkpt>
      <trkpt lat="43.42044" lon="2.06063">
        <ele>563</ele>
        <time>2023-10-01T07:13:16Z</time>
      </trkpt>
      <trkpt lat="43.4205" lon="2.06062">
        <ele>563</ele>
        <time>2023-10-01T07:13:17Z</time>
      </trkpt>
      <trkpt lat="43.42055" lon="2.0606">
        <ele>563</ele>
        <time>2023-10-01T07:13:19Z</time>
      </trkpt>
      <trkpt lat="43.42059" lon="2.06058">
        <ele>563.4</ele>
        <time>2023-10-01T07:13:20Z</time>
      </trkpt>
      <trkpt lat="43.42069" lon="2.06055">
        <ele>563.6</ele>
        <time>2023-10-01T07:13:22Z</time>
      </trkpt>
      <trkpt lat="43.4208" lon="2.06048">
        <ele>563.6</ele>
        <time>2023-10-01T07:13:24Z</time>
      </trkpt>
      <trkpt lat="43.42083" lon="2.06048">
        <ele>563.6</ele>
        <time>2023-10-01T07:13:25Z</time>
      </trkpt>
      <trkpt lat="43.42085" lon="2.06048">
        <ele>563.6</ele>
        <time>2023-10-01T07:13:26Z</time>
      </trkpt>
      <trkpt lat="43.42089" lon="2.06048">
        <ele>564</ele>
        <time>2023-10-01T07:13:27Z</time>
      </trkpt>
      <trkpt lat="43.42092" lon="2.06049">
        <ele>564.4</ele>
        <time>2023-10-01T07:13:28Z</time>
      </trkpt>
      <trkpt lat="43.42094" lon="2.0605">
        <ele>564.8</ele>
        <time>2023-10-01T07:13:29Z</time>
      </trkpt>
      <trkpt lat="43.42097" lon="2.06051">
        <ele>565</ele>
        <time>2023-10-01T07:13:30Z</time>
      </trkpt>
      <trkpt lat="43.42099" lon="2.06051">
        <ele>565.4</ele>
        <time>2023-10-01T07:13:31Z</time>
      </trkpt>
      <trkpt lat="43.42102" lon="2.06052">
        <ele>565.6</ele>
        <time>2023-10-01T07:13:33Z</time>
      </trkpt>
      <trkpt lat="43.42112" lon="2.06051">
        <ele>566.2</ele>
        <time>2023-10-01T07:13:36Z</time>
      </trkpt>
      <trkpt lat="43.4212" lon="2.06052">
        <ele>566.6</ele>
        <time>2023-10-01T07:13:38Z</time>
      </trkpt>
      <trkpt lat="43.42125" lon="2.06053">
        <ele>566.8</ele>
        <time>2023-10-01T07:13:39Z</time>
      </trkpt>
      <trkpt lat="43.42132" lon="2.0605">
        <ele>566.8</ele>
        <time>2023-10-01T07:13:40Z</time>
      </trkpt>
      <trkpt lat="43.42135" lon="2.0605">
        <ele>566.8</ele>
        <time>2023-10-01T07:13:41Z</time>
      </trkpt>
      <trkpt lat="43.42139" lon="2.06051">
        <ele>566.8</ele>
        <time>2023-10-01T07:13:42Z</time>
      </trkpt>
      <trkpt lat="43.42141" lon="2.06053">
        <ele>566.8</ele>
        <time>2023-10-01T07:13:43Z</time>
      </trkpt>
      <trkpt lat="43.42145" lon="2.06055">
        <ele>566.8</ele>
        <time>2023-10-01T07:13:44Z</time>
      </trkpt>
      <trkpt lat="43.42149" lon="2.06055">
        <ele>566.8</ele>
        <time>2023-10-01T07:13:45Z</time>
      </trkpt>
      <trkpt lat="43.42153" lon="2.06054">
        <ele>566.8</ele>
        <time>2023-10-01T07:13:46Z</time>
      </trkpt>
      <trkpt lat="43.42155" lon="2.06053">
        <ele>566.8</ele>
        <time>2023-10-01T07:13:47Z</time>
      </trkpt>
      <trkpt lat="43.42157" lon="2.06052">
        <ele>567.2</ele>
        <time>2023-10-01T07:13:48Z</time>
      </trkpt>
      <trkpt lat="43.42159" lon="2.06052">
        <ele>567.2</ele>
        <time>2023-10-01T07:13:49Z</time>
      </trkpt>
      <trkpt lat="43.42161" lon="2.06053">
        <ele>567.4</ele>
        <time>2023-10-01T07:13:50Z</time>
      </trkpt>
      <trkpt lat="43.42162" lon="2.06053">
        <ele>567.4</ele>
        <time>2023-10-01T07:13:51Z</time>
      </trkpt>
      <trkpt lat="43.42167" lon="2.06051">
        <ele>567.6</ele>
        <time>2023-10-01T07:13:52Z</time>
      </trkpt>
      <trkpt lat="43.42171" lon="2.06048">
        <ele>567.6</ele>
        <time>2023-10-01T07:13:53Z</time>
      </trkpt>
      <trkpt lat="43.42174" lon="2.06051">
        <ele>567.8</ele>
        <time>2023-10-01T07:13:54Z</time>
      </trkpt>
      <trkpt lat="43.42176" lon="2.0605">
        <ele>568</ele>
        <time>2023-10-01T07:13:55Z</time>
      </trkpt>
      <trkpt lat="43.4218" lon="2.0605">
        <ele>568</ele>
        <time>2023-10-01T07:13:56Z</time>
      </trkpt>
      <trkpt lat="43.42186" lon="2.06048">
        <ele>568.2</ele>
        <time>2023-10-01T07:13:57Z</time>
      </trkpt>
      <trkpt lat="43.42188" lon="2.06044">
        <ele>568.2</ele>
        <time>2023-10-01T07:13:58Z</time>
      </trkpt>
      <trkpt lat="43.42191" lon="2.06042">
        <ele>568.2</ele>
        <time>2023-10-01T07:13:59Z</time>
      </trkpt>
      <trkpt lat="43.42193" lon="2.06043">
        <ele>568.6</ele>
        <time>2023-10-01T07:14:00Z</time>
      </trkpt>
      <trkpt lat="43.42195" lon="2.06042">
        <ele>568.8</ele>
        <time>2023-10-01T07:14:01Z</time>
      </trkpt>
      <trkpt lat="43.42197" lon="2.06041">
        <ele>568.8</ele>
        <time>2023-10-01T07:14:02Z</time>
      </trkpt>
      <trkpt lat="43.42199" lon="2.06041">
        <ele>569.4</ele>
        <time>2023-10-01T07:14:03Z</time>
      </trkpt>
      <trkpt lat="43.42202" lon="2.06041">
        <ele>569.4</ele>
        <time>2023-10-01T07:14:04Z</time>
      </trkpt>
      <trkpt lat="43.42205" lon="2.06041">
        <ele>569.8</ele>
        <time>2023-10-01T07:14:05Z</time>
      </trkpt>
      <trkpt lat="43.42208" lon="2.06041">
        <ele>569.8</ele>
        <time>2023-10-01T07:14:06Z</time>
      </trkpt>
      <trkpt lat="43.42211" lon="2.0604">
        <ele>569.8</ele>
        <time>2023-10-01T07:14:07Z</time>
      </trkpt>
      <trkpt lat="43.42215" lon="2.06039">
        <ele>570.2</ele>
        <time>2023-10-01T07:14:08Z</time>
      </trkpt>
      <trkpt lat="43.42219" lon="2.06039">
        <ele>570.2</ele>
        <time>2023-10-01T07:14:09Z</time>
      </trkpt>
      <trkpt lat="43.42222" lon="2.06038">
        <ele>570.4</ele>
        <time>2023-10-01T07:14:10Z</time>
      </trkpt>
      <trkpt lat="43.42226" lon="2.06039">
        <ele>570.8</ele>
        <time>2023-10-01T07:14:11Z</time>
      </trkpt>
      <trkpt lat="43.42228" lon="2.06039">
        <ele>571.4</ele>
        <time>2023-10-01T07:14:12Z</time>
      </trkpt>
      <trkpt lat="43.42232" lon="2.06037">
        <ele>571.6</ele>
        <time>2023-10-01T07:14:13Z</time>
      </trkpt>
      <trkpt lat="43.42236" lon="2.06035">
        <ele>572.2</ele>
        <time>2023-10-01T07:14:14Z</time>
      </trkpt>
      <trkpt lat="43.42238" lon="2.06034">
        <ele>572.8</ele>
        <time>2023-10-01T07:14:15Z</time>
      </trkpt>
      <trkpt lat="43.42239" lon="2.06033">
        <ele>573.2</ele>
        <time>2023-10-01T07:14:16Z</time>
      </trkpt>
      <trkpt lat="43.42241" lon="2.06033">
        <ele>573.8</ele>
        <time>2023-10-01T07:14:17Z</time>
      </trkpt>
      <trkpt lat="43.42243" lon="2.06032">
        <ele>573.8</ele>
        <time>2023-10-01T07:14:18Z</time>
      </trkpt>
      <trkpt lat="43.42245" lon="2.0603">
        <ele>574.2</ele>
        <time>2023-10-01T07:14:19Z</time>
      </trkpt>
      <trkpt lat="43.42249" lon="2.06027">
        <ele>574.4</ele>
        <time>2023-10-01T07:14:20Z</time>
      </trkpt>
      <trkpt lat="43.42253" lon="2.06025">
        <ele>574.8</ele>
        <time>2023-10-01T07:14:21Z</time>
      </trkpt>
      <trkpt lat="43.42255" lon="2.06025">
        <ele>575</ele>
        <time>2023-10-01T07:14:22Z</time>
      </trkpt>
      <trkpt lat="43.42257" lon="2.06023">
        <ele>575.2</ele>
        <time>2023-10-01T07:14:23Z</time>
      </trkpt>
      <trkpt lat="43.42258" lon="2.06022">
        <ele>575.4</ele>
        <time>2023-10-01T07:14:24Z</time>
      </trkpt>
      <trkpt lat="43.4226" lon="2.0602">
        <ele>575.8</ele>
        <time>2023-10-01T07:14:25Z</time>
      </trkpt>
      <trkpt lat="43.42262" lon="2.0602">
        <ele>576</ele>
        <time>2023-10-01T07:14:26Z</time>
      </trkpt>
      <trkpt lat="43.42263" lon="2.06021">
        <ele>576.2</ele>
        <time>2023-10-01T07:14:27Z</time>
      </trkpt>
      <trkpt lat="43.42263" lon="2.0602">
        <ele>576.4</ele>
        <time>2023-10-01T07:14:28Z</time>
      </trkpt>
      <trkpt lat="43.42264" lon="2.0602">
        <ele>576.4</ele>
        <time>2023-10-01T07:14:29Z</time>
      </trkpt>
      <trkpt lat="43.42265" lon="2.06019">
        <ele>576.6</ele>
        <time>2023-10-01T07:14:30Z</time>
      </trkpt>
      <trkpt lat="43.42266" lon="2.06018">
        <ele>576.6</ele>
        <time>2023-10-01T07:14:31Z</time>
      </trkpt>
      <trkpt lat="43.42268" lon="2.06018">
        <ele>576.8</ele>
        <time>2023-10-01T07:14:32Z</time>
      </trkpt>
      <trkpt lat="43.42271" lon="2.06018">
        <ele>577.4</ele>
        <time>2023-10-01T07:14:33Z</time>
      </trkpt>
      <trkpt lat="43.42273" lon="2.06017">
        <ele>577.4</ele>
        <time>2023-10-01T07:14:34Z</time>
      </trkpt>
      <trkpt lat="43.42276" lon="2.06016">
        <ele>577.8</ele>
        <time>2023-10-01T07:14:35Z</time>
      </trkpt>
      <trkpt lat="43.42278" lon="2.06015">
        <ele>577.8</ele>
        <time>2023-10-01T07:14:36Z</time>
      </trkpt>
      <trkpt lat="43.4228" lon="2.06014">
        <ele>578</ele>
        <time>2023-10-01T07:14:37Z</time>
      </trkpt>
      <trkpt lat="43.42282" lon="2.06013">
        <ele>578.2</ele>
        <time>2023-10-01T07:14:38Z</time>
      </trkpt>
      <trkpt lat="43.42284" lon="2.06012">
        <ele>578.6</ele>
        <time>2023-10-01T07:14:39Z</time>
      </trkpt>
      <trkpt lat="43.42286" lon="2.06011">
        <ele>579.2</ele>
        <time>2023-10-01T07:14:40Z</time>
      </trkpt>
      <trkpt lat="43.42288" lon="2.06011">
        <ele>579.4</ele>
        <time>2023-10-01T07:14:41Z</time>
      </trkpt>
      <trkpt lat="43.4229" lon="2.06011">
        <ele>579.8</ele>
        <time>2023-10-01T07:14:42Z</time>
      </trkpt>
      <trkpt lat="43.42292" lon="2.0601">
        <ele>580.2</ele>
        <time>2023-10-01T07:14:43Z</time>
      </trkpt>
      <trkpt lat="43.42294" lon="2.0601">
        <ele>580.4</ele>
        <time>2023-10-01T07:14:44Z</time>
      </trkpt>
      <trkpt lat="43.42296" lon="2.06009">
        <ele>580.4</ele>
        <time>2023-10-01T07:14:45Z</time>
      </trkpt>
      <trkpt lat="43.42298" lon="2.06009">
        <ele>581.2</ele>
        <time>2023-10-01T07:14:46Z</time>
      </trkpt>
      <trkpt lat="43.42299" lon="2.06009">
        <ele>581.4</ele>
        <time>2023-10-01T07:14:47Z</time>
      </trkpt>
      <trkpt lat="43.42301" lon="2.06008">
        <ele>581.4</ele>
        <time>2023-10-01T07:14:48Z</time>
      </trkpt>
      <trkpt lat="43.42303" lon="2.06008">
        <ele>581.8</ele>
        <time>2023-10-01T07:14:49Z</time>
      </trkpt>
      <trkpt lat="43.42305" lon="2.06007">
        <ele>581.8</ele>
        <time>2023-10-01T07:14:50Z</time>
      </trkpt>
      <trkpt lat="43.42307" lon="2.06007">
        <ele>582.2</ele>
        <time>2023-10-01T07:14:51Z</time>
      </trkpt>
      <trkpt lat="43.42311" lon="2.06007">
        <ele>582.2</ele>
        <time>2023-10-01T07:14:52Z</time>
      </trkpt>
      <trkpt lat="43.42314" lon="2.06006">
        <ele>582.2</ele>
        <time>2023-10-01T07:14:53Z</time>
      </trkpt>
      <trkpt lat="43.42317" lon="2.06007">
        <ele>582.4</ele>
        <time>2023-10-01T07:14:54Z</time>
      </trkpt>
      <trkpt lat="43.42319" lon="2.06008">
        <ele>582.8</ele>
        <time>2023-10-01T07:14:55Z</time>
      </trkpt>
      <trkpt lat="43.42322" lon="2.06008">
        <ele>582.8</ele>
        <time>2023-10-01T07:14:56Z</time>
      </trkpt>
      <trkpt lat="43.42324" lon="2.06009">
        <ele>582.8</ele>
        <time>2023-10-01T07:14:57Z</time>
      </trkpt>
      <trkpt lat="43.42326" lon="2.0601">
        <ele>582.8</ele>
        <time>2023-10-01T07:14:58Z</time>
      </trkpt>
      <trkpt lat="43.42328" lon="2.06011">
        <ele>582.8</ele>
        <time>2023-10-01T07:14:59Z</time>
      </trkpt>
      <trkpt lat="43.42329" lon="2.06012">
        <ele>583</ele>
        <time>2023-10-01T07:15:00Z</time>
      </trkpt>
      <trkpt lat="43.4233" lon="2.06014">
        <ele>583</ele>
        <time>2023-10-01T07:15:01Z</time>
      </trkpt>
      <trkpt lat="43.42329" lon="2.06016">
        <ele>583</ele>
        <time>2023-10-01T07:15:02Z</time>
      </trkpt>
      <trkpt lat="43.42329" lon="2.06018">
        <ele>583</ele>
        <time>2023-10-01T07:15:03Z</time>
      </trkpt>
      <trkpt lat="43.42328" lon="2.06019">
        <ele>583</ele>
        <time>2023-10-01T07:15:04Z</time>
      </trkpt>
      <trkpt lat="43.42327" lon="2.06021">
        <ele>583</ele>
        <time>2023-10-01T07:15:05Z</time>
      </trkpt>
      <trkpt lat="43.42326" lon="2.06023">
        <ele>583</ele>
        <time>2023-10-01T07:15:06Z</time>
      </trkpt>
      <trkpt lat="43.42325" lon="2.06025">
        <ele>582.8</ele>
        <time>2023-10-01T07:15:07Z</time>
      </trkpt>
      <trkpt lat="43.42324" lon="2.06028">
        <ele>583</ele>
        <time>2023-10-01T07:15:08Z</time>
      </trkpt>
      <trkpt lat="43.42322" lon="2.06031">
        <ele>583.4</ele>
        <time>2023-10-01T07:15:09Z</time>
      </trkpt>
      <trkpt lat="43.42321" lon="2.06033">
        <ele>583.4</ele>
        <time>2023-10-01T07:15:10Z</time>
      </trkpt>
      <trkpt lat="43.42319" lon="2.06036">
        <ele>583.8</ele>
        <time>2023-10-01T07:15:11Z</time>
      </trkpt>
      <trkpt lat="43.42317" lon="2.06039">
        <ele>584.2</ele>
        <time>2023-10-01T07:15:12Z</time>
      </trkpt>
      <trkpt lat="43.42316" lon="2.06042">
        <ele>584.6</ele>
        <time>2023-10-01T07:15:13Z</time>
      </trkpt>
      <trkpt lat="43.42314" lon="2.06045">
        <ele>585.4</ele>
        <time>2023-10-01T07:15:14Z</time>
      </trkpt>
      <trkpt lat="43.42312" lon="2.06048">
        <ele>585.6</ele>
        <time>2023-10-01T07:15:15Z</time>
      </trkpt>
      <trkpt lat="43.4231" lon="2.06051">
        <ele>586.2</ele>
        <time>2023-10-01T07:15:16Z</time>
      </trkpt>
      <trkpt lat="43.42307" lon="2.06054">
        <ele>586.8</ele>
        <time>2023-10-01T07:15:17Z</time>
      </trkpt>
      <trkpt lat="43.42304" lon="2.06057">
        <ele>587.6</ele>
        <time>2023-10-01T07:15:18Z</time>
      </trkpt>
      <trkpt lat="43.42302" lon="2.06059">
        <ele>588.6</ele>
        <time>2023-10-01T07:15:19Z</time>
      </trkpt>
      <trkpt lat="43.42301" lon="2.06062">
        <ele>588.8</ele>
        <time>2023-10-01T07:15:20Z</time>
      </trkpt>
      <trkpt lat="43.42299" lon="2.06065">
        <ele>589.4</ele>
        <time>2023-10-01T07:15:21Z</time>
      </trkpt>
      <trkpt lat="43.42297" lon="2.06068">
        <ele>589.8</ele>
        <time>2023-10-01T07:15:22Z</time>
      </trkpt>
      <trkpt lat="43.42294" lon="2.06072">
        <ele>590.6</ele>
        <time>2023-10-01T07:15:23Z</time>
      </trkpt>
      <trkpt lat="43.42288" lon="2.06079">
        <ele>591</ele>
        <time>2023-10-01T07:15:24Z</time>
      </trkpt>
      <trkpt lat="43.42283" lon="2.06083">
        <ele>591.6</ele>
        <time>2023-10-01T07:15:25Z</time>
      </trkpt>
      <trkpt lat="43.42282" lon="2.06085">
        <ele>591.8</ele>
        <time>2023-10-01T07:15:26Z</time>
      </trkpt>
      <trkpt lat="43.42282" lon="2.06086">
        <ele>592.4</ele>
        <time>2023-10-01T07:15:27Z</time>
      </trkpt>
      <trkpt lat="43.42281" lon="2.06088">
        <ele>592.8</ele>
        <time>2023-10-01T07:15:28Z</time>
      </trkpt>
      <trkpt lat="43.4228" lon="2.06091">
        <ele>593</ele>
        <time>2023-10-01T07:15:29Z</time>
      </trkpt>
      <trkpt lat="43.42278" lon="2.06094">
        <ele>593.8</ele>
        <time>2023-10-01T07:15:30Z</time>
      </trkpt>
      <trkpt lat="43.42277" lon="2.06097">
        <ele>594.2</ele>
        <time>2023-10-01T07:15:31Z</time>
      </trkpt>
      <trkpt lat="43.42275" lon="2.06101">
        <ele>594.6</ele>
        <time>2023-10-01T07:15:32Z</time>
      </trkpt>
      <trkpt lat="43.42274" lon="2.06103">
        <ele>594.8</ele>
        <time>2023-10-01T07:15:33Z</time>
      </trkpt>
      <trkpt lat="43.42273" lon="2.06106">
        <ele>595.8</ele>
        <time>2023-10-01T07:15:34Z</time>
      </trkpt>
      <trkpt lat="43.42272" lon="2.06107">
        <ele>596.2</ele>
        <time>2023-10-01T07:15:35Z</time>
      </trkpt>
      <trkpt lat="43.42272" lon="2.06108">
        <ele>596.4</ele>
        <time>2023-10-01T07:15:36Z</time>
      </trkpt>
      <trkpt lat="43.42272" lon="2.06108">
        <ele>596.8</ele>
        <time>2023-10-01T07:15:37Z</time>
      </trkpt>
      <trkpt lat="43.42271" lon="2.06111">
        <ele>597.2</ele>
        <time>2023-10-01T07:15:38Z</time>
      </trkpt>
      <trkpt lat="43.4227" lon="2.06113">
        <ele>597.8</ele>
        <time>2023-10-01T07:15:39Z</time>
      </trkpt>
      <trkpt lat="43.4227" lon="2.06114">
        <ele>598</ele>
        <time>2023-10-01T07:15:40Z</time>
      </trkpt>
      <trkpt lat="43.42268" lon="2.06117">
        <ele>598.2</ele>
        <time>2023-10-01T07:15:41Z</time>
      </trkpt>
      <trkpt lat="43.42267" lon="2.06119">
        <ele>598.4</ele>
        <time>2023-10-01T07:15:42Z</time>
      </trkpt>
      <trkpt lat="43.42265" lon="2.06124">
        <ele>598.8</ele>
        <time>2023-10-01T07:15:43Z</time>
      </trkpt>
      <trkpt lat="43.42264" lon="2.06127">
        <ele>599.4</ele>
        <time>2023-10-01T07:15:44Z</time>
      </trkpt>
      <trkpt lat="43.42264" lon="2.06131">
        <ele>599.6</ele>
        <time>2023-10-01T07:15:45Z</time>
      </trkpt>
      <trkpt lat="43.42263" lon="2.06136">
        <ele>600</ele>
        <time>2023-10-01T07:15:46Z</time>
      </trkpt>
      <trkpt lat="43.42262" lon="2.0614">
        <ele>600.4</ele>
        <time>2023-10-01T07:15:47Z</time>
      </trkpt>
      <trkpt lat="43.42262" lon="2.06143">
        <ele>600.8</ele>
        <time>2023-10-01T07:15:48Z</time>
      </trkpt>
      <trkpt lat="43.4226" lon="2.06147">
        <ele>601</ele>
        <time>2023-10-01T07:15:49Z</time>
      </trkpt>
      <trkpt lat="43.42258" lon="2.0615">
        <ele>601.6</ele>
        <time>2023-10-01T07:15:50Z</time>
      </trkpt>
      <trkpt lat="43.42258" lon="2.06151">
        <ele>602.2</ele>
        <time>2023-10-01T07:15:51Z</time>
      </trkpt>
      <trkpt lat="43.42255" lon="2.06153">
        <ele>603</ele>
        <time>2023-10-01T07:15:52Z</time>
      </trkpt>
      <trkpt lat="43.42251" lon="2.06154">
        <ele>604</ele>
        <time>2023-10-01T07:15:53Z</time>
      </trkpt>
      <trkpt lat="43.42248" lon="2.06156">
        <ele>604.4</ele>
        <time>2023-10-01T07:15:54Z</time>
      </trkpt>
      <trkpt lat="43.42247" lon="2.06158">
        <ele>605</ele>
        <time>2023-10-01T07:15:55Z</time>
      </trkpt>
      <trkpt lat="43.42245" lon="2.06161">
        <ele>605.4</ele>
        <time>2023-10-01T07:15:56Z</time>
      </trkpt>
      <trkpt lat="43.42244" lon="2.06163">
        <ele>605.6</ele>
        <time>2023-10-01T07:15:57Z</time>
      </trkpt>
      <trkpt lat="43.42244" lon="2.06164">
        <ele>605.8</ele>
        <time>2023-10-01T07:15:58Z</time>
      </trkpt>
      <trkpt lat="43.42244" lon="2.06164">
        <ele>606.4</ele>
        <time>2023-10-01T07:15:59Z</time>
      </trkpt>
      <trkpt lat="43.42245" lon="2.06165">
        <ele>606.8</ele>
        <time>2023-10-01T07:16:00Z</time>
      </trkpt>
      <trkpt lat="43.42242" lon="2.06168">
        <ele>607.2</ele>
        <time>2023-10-01T07:16:01Z</time>
      </trkpt>
      <trkpt lat="43.42239" lon="2.06172">
        <ele>607.8</ele>
        <time>2023-10-01T07:16:02Z</time>
      </trkpt>
      <trkpt lat="43.42238" lon="2.06174">
        <ele>608</ele>
        <time>2023-10-01T07:16:03Z</time>
      </trkpt>
      <trkpt lat="43.42236" lon="2.06176">
        <ele>608.4</ele>
        <time>2023-10-01T07:16:04Z</time>
      </trkpt>
      <trkpt lat="43.42234" lon="2.06178">
        <ele>608.6</ele>
        <time>2023-10-01T07:16:05Z</time>
      </trkpt>
      <trkpt lat="43.42236" lon="2.0618">
        <ele>609</ele>
        <time>2023-10-01T07:16:06Z</time>
      </trkpt>
      <trkpt lat="43.42236" lon="2.06182">
        <ele>609.8</ele>
        <time>2023-10-01T07:16:07Z</time>
      </trkpt>
      <trkpt lat="43.42236" lon="2.06183">
        <ele>610.2</ele>
        <time>2023-10-01T07:16:08Z</time>
      </trkpt>
      <trkpt lat="43.42235" lon="2.06183">
        <ele>610.6</ele>
        <time>2023-10-01T07:16:09Z</time>
      </trkpt>
      <trkpt lat="43.42233" lon="2.06185">
        <ele>611</ele>
        <time>2023-10-01T07:16:10Z</time>
      </trkpt>
      <trkpt lat="43.42231" lon="2.06188">
        <ele>611.4</ele>
        <time>2023-10-01T07:16:11Z</time>
      </trkpt>
      <trkpt lat="43.42229" lon="2.0619">
        <ele>611.4</ele>
        <time>2023-10-01T07:16:12Z</time>
      </trkpt>
      <trkpt lat="43.42228" lon="2.06193">
        <ele>612</ele>
        <time>2023-10-01T07:16:13Z</time>
      </trkpt>
      <trkpt lat="43.42227" lon="2.06195">
        <ele>612.2</ele>
        <time>2023-10-01T07:16:14Z</time>
      </trkpt>
      <trkpt lat="43.42226" lon="2.06196">
        <ele>612.8</ele>
        <time>2023-10-01T07:16:15Z</time>
      </trkpt>
      <trkpt lat="43.42225" lon="2.06198">
        <ele>613.2</ele>
        <time>2023-10-01T07:16:16Z</time>
      </trkpt>
      <trkpt lat="43.42223" lon="2.062">
        <ele>613.6</ele>
        <time>2023-10-01T07:16:17Z</time>
      </trkpt>
      <trkpt lat="43.42222" lon="2.06202">
        <ele>613.8</ele>
        <time>2023-10-01T07:16:18Z</time>
      </trkpt>
      <trkpt lat="43.4222" lon="2.06205">
        <ele>614.2</ele>
        <time>2023-10-01T07:16:19Z</time>
      </trkpt>
      <trkpt lat="43.42218" lon="2.06208">
        <ele>614.8</ele>
        <time>2023-10-01T07:16:20Z</time>
      </trkpt>
      <trkpt lat="43.42217" lon="2.0621">
        <ele>615</ele>
        <time>2023-10-01T07:16:21Z</time>
      </trkpt>
      <trkpt lat="43.42216" lon="2.06212">
        <ele>615.6</ele>
        <time>2023-10-01T07:16:22Z</time>
      </trkpt>
      <trkpt lat="43.42215" lon="2.06213">
        <ele>616.2</ele>
        <time>2023-10-01T07:16:23Z</time>
      </trkpt>
      <trkpt lat="43.42213" lon="2.06215">
        <ele>616.8</ele>
        <time>2023-10-01T07:16:24Z</time>
      </trkpt>
      <trkpt lat="43.42211" lon="2.06217">
        <ele>617.6</ele>
        <time>2023-10-01T07:16:25Z</time>
      </trkpt>
      <trkpt lat="43.42209" lon="2.06218">
        <ele>617.8</ele>
        <time>2023-10-01T07:16:26Z</time>
      </trkpt>
      <trkpt lat="43.42206" lon="2.0622">
        <ele>618.8</ele>
        <time>2023-10-01T07:16:27Z</time>
      </trkpt>
      <trkpt lat="43.42202" lon="2.06222">
        <ele>619.4</ele>
        <time>2023-10-01T07:16:28Z</time>
      </trkpt>
      <trkpt lat="43.422" lon="2.06224">
        <ele>620.2</ele>
        <time>2023-10-01T07:16:29Z</time>
      </trkpt>
      <trkpt lat="43.42197" lon="2.06226">
        <ele>620.6</ele>
        <time>2023-10-01T07:16:30Z</time>
      </trkpt>
      <trkpt lat="43.42196" lon="2.06229">
        <ele>621.2</ele>
        <time>2023-10-01T07:16:31Z</time>
      </trkpt>
      <trkpt lat="43.42194" lon="2.06231">
        <ele>621.6</ele>
        <time>2023-10-01T07:16:32Z</time>
      </trkpt>
      <trkpt lat="43.42193" lon="2.06233">
        <ele>621.8</ele>
        <time>2023-10-01T07:16:33Z</time>
      </trkpt>
      <trkpt lat="43.42191" lon="2.06235">
        <ele>622.2</ele>
        <time>2023-10-01T07:16:34Z</time>
      </trkpt>
      <trkpt lat="43.42189" lon="2.06237">
        <ele>622.4</ele>
        <time>2023-10-01T07:16:35Z</time>
      </trkpt>
      <trkpt lat="43.42186" lon="2.0624">
        <ele>622.8</ele>
        <time>2023-10-01T07:16:36Z</time>
      </trkpt>
      <trkpt lat="43.42185" lon="2.06241">
        <ele>623.2</ele>
        <time>2023-10-01T07:16:37Z</time>
      </trkpt>
      <trkpt lat="43.42184" lon="2.06242">
        <ele>623.8</ele>
        <time>2023-10-01T07:16:38Z</time>
      </trkpt>
      <trkpt lat="43.42182" lon="2.06244">
        <ele>624.2</ele>
        <time>2023-10-01T07:16:39Z</time>
      </trkpt>
      <trkpt lat="43.42179" lon="2.06245">
        <ele>624.4</ele>
        <time>2023-10-01T07:16:40Z</time>
      </trkpt>
      <trkpt lat="43.42177" lon="2.06247">
        <ele>624.6</ele>
        <time>2023-10-01T07:16:41Z</time>
      </trkpt>
      <trkpt lat="43.42177" lon="2.06248">
        <ele>624.8</ele>
        <time>2023-10-01T07:16:42Z</time>
      </trkpt>
      <trkpt lat="43.42176" lon="2.06248">
        <ele>625</ele>
        <time>2023-10-01T07:16:43Z</time>
      </trkpt>
      <trkpt lat="43.42177" lon="2.06251">
        <ele>625.2</ele>
        <time>2023-10-01T07:16:44Z</time>
      </trkpt>
      <trkpt lat="43.42177" lon="2.06251">
        <ele>625.2</ele>
        <time>2023-10-01T07:16:45Z</time>
      </trkpt>
      <trkpt lat="43.42173" lon="2.06253">
        <ele>625.4</ele>
        <time>2023-10-01T07:16:46Z</time>
      </trkpt>
      <trkpt lat="43.42172" lon="2.06256">
        <ele>625.6</ele>
        <time>2023-10-01T07:16:47Z</time>
      </trkpt>
      <trkpt lat="43.42171" lon="2.06259">
        <ele>625.6</ele>
        <time>2023-10-01T07:16:48Z</time>
      </trkpt>
      <trkpt lat="43.4217" lon="2.06263">
        <ele>625.6</ele>
        <time>2023-10-01T07:16:49Z</time>
      </trkpt>
      <trkpt lat="43.42171" lon="2.06266">
        <ele>625.8</ele>
        <time>2023-10-01T07:16:50Z</time>
      </trkpt>
      <trkpt lat="43.42171" lon="2.06271">
        <ele>625.8</ele>
        <time>2023-10-01T07:16:51Z</time>
      </trkpt>
      <trkpt lat="43.42171" lon="2.06274">
        <ele>626.2</ele>
        <time>2023-10-01T07:16:52Z</time>
      </trkpt>
      <trkpt lat="43.42171" lon="2.06275">
        <ele>626.2</ele>
        <time>2023-10-01T07:16:53Z</time>
      </trkpt>
      <trkpt lat="43.42169" lon="2.06277">
        <ele>626.6</ele>
        <time>2023-10-01T07:16:54Z</time>
      </trkpt>
      <trkpt lat="43.42168" lon="2.06281">
        <ele>627</ele>
        <time>2023-10-01T07:16:55Z</time>
      </trkpt>
      <trkpt lat="43.42167" lon="2.06283">
        <ele>627</ele>
        <time>2023-10-01T07:16:56Z</time>
      </trkpt>
      <trkpt lat="43.42165" lon="2.06285">
        <ele>627.4</ele>
        <time>2023-10-01T07:16:57Z</time>
      </trkpt>
      <trkpt lat="43.42164" lon="2.06287">
        <ele>627.4</ele>
        <time>2023-10-01T07:16:58Z</time>
      </trkpt>
      <trkpt lat="43.42164" lon="2.06288">
        <ele>627.6</ele>
        <time>2023-10-01T07:16:59Z</time>
      </trkpt>
      <trkpt lat="43.42163" lon="2.06289">
        <ele>627.6</ele>
        <time>2023-10-01T07:17:00Z</time>
      </trkpt>
      <trkpt lat="43.42163" lon="2.06291">
        <ele>627.8</ele>
        <time>2023-10-01T07:17:01Z</time>
      </trkpt>
      <trkpt lat="43.42163" lon="2.06291">
        <ele>628</ele>
        <time>2023-10-01T07:17:02Z</time>
      </trkpt>
      <trkpt lat="43.42163" lon="2.06293">
        <ele>628.2</ele>
        <time>2023-10-01T07:17:03Z</time>
      </trkpt>
      <trkpt lat="43.42162" lon="2.06294">
        <ele>628.8</ele>
        <time>2023-10-01T07:17:04Z</time>
      </trkpt>
      <trkpt lat="43.42161" lon="2.06297">
        <ele>629</ele>
        <time>2023-10-01T07:17:05Z</time>
      </trkpt>
      <trkpt lat="43.4216" lon="2.063">
        <ele>629.4</ele>
        <time>2023-10-01T07:17:06Z</time>
      </trkpt>
      <trkpt lat="43.4216" lon="2.06302">
        <ele>629.6</ele>
        <time>2023-10-01T07:17:07Z</time>
      </trkpt>
      <trkpt lat="43.42159" lon="2.06304">
        <ele>629.8</ele>
        <time>2023-10-01T07:17:08Z</time>
      </trkpt>
      <trkpt lat="43.42158" lon="2.06307">
        <ele>629.8</ele>
        <time>2023-10-01T07:17:09Z</time>
      </trkpt>
      <trkpt lat="43.42155" lon="2.06311">
        <ele>630</ele>
        <time>2023-10-01T07:17:10Z</time>
      </trkpt>
      <trkpt lat="43.42153" lon="2.06316">
        <ele>630</ele>
        <time>2023-10-01T07:17:11Z</time>
      </trkpt>
      <trkpt lat="43.4215" lon="2.06319">
        <ele>630.2</ele>
        <time>2023-10-01T07:17:12Z</time>
      </trkpt>
      <trkpt lat="43.42148" lon="2.06322">
        <ele>630.2</ele>
        <time>2023-10-01T07:17:13Z</time>
      </trkpt>
      <trkpt lat="43.42147" lon="2.06325">
        <ele>630.4</ele>
        <time>2023-10-01T07:17:14Z</time>
      </trkpt>
      <trkpt lat="43.42144" lon="2.06329">
        <ele>630.4</ele>
        <time>2023-10-01T07:17:15Z</time>
      </trkpt>
      <trkpt lat="43.42141" lon="2.06332">
        <ele>630.8</ele>
        <time>2023-10-01T07:17:16Z</time>
      </trkpt>
      <trkpt lat="43.42139" lon="2.06336">
        <ele>631.2</ele>
        <time>2023-10-01T07:17:17Z</time>
      </trkpt>
      <trkpt lat="43.42139" lon="2.06339">
        <ele>631.2</ele>
        <time>2023-10-01T07:17:18Z</time>
      </trkpt>
      <trkpt lat="43.42138" lon="2.06342">
        <ele>631.6</ele>
        <time>2023-10-01T07:17:19Z</time>
      </trkpt>
      <trkpt lat="43.42136" lon="2.06346">
        <ele>631.6</ele>
        <time>2023-10-01T07:17:20Z</time>
      </trkpt>
      <trkpt lat="43.42135" lon="2.06351">
        <ele>631.6</ele>
        <time>2023-10-01T07:17:21Z</time>
      </trkpt>
      <trkpt lat="43.42135" lon="2.06354">
        <ele>631.8</ele>
        <time>2023-10-01T07:17:22Z</time>
      </trkpt>
      <trkpt lat="43.42136" lon="2.06356">
        <ele>631.8</ele>
        <time>2023-10-01T07:17:23Z</time>
      </trkpt>
      <trkpt lat="43.42136" lon="2.0636">
        <ele>632</ele>
        <time>2023-10-01T07:17:24Z</time>
      </trkpt>
      <trkpt lat="43.42134" lon="2.06363">
        <ele>632</ele>
        <time>2023-10-01T07:17:25Z</time>
      </trkpt>
      <trkpt lat="43.42134" lon="2.06367">
        <ele>632.2</ele>
        <time>2023-10-01T07:17:26Z</time>
      </trkpt>
      <trkpt lat="43.42134" lon="2.0637">
        <ele>632.2</ele>
        <time>2023-10-01T07:17:27Z</time>
      </trkpt>
      <trkpt lat="43.42134" lon="2.06372">
        <ele>632.4</ele>
        <time>2023-10-01T07:17:28Z</time>
      </trkpt>
      <trkpt lat="43.42134" lon="2.06375">
        <ele>632.4</ele>
        <time>2023-10-01T07:17:29Z</time>
      </trkpt>
      <trkpt lat="43.42135" lon="2.06376">
        <ele>632.4</ele>
        <time>2023-10-01T07:17:30Z</time>
      </trkpt>
      <trkpt lat="43.42136" lon="2.06378">
        <ele>632.6</ele>
        <time>2023-10-01T07:17:31Z</time>
      </trkpt>
      <trkpt lat="43.42136" lon="2.06378">
        <ele>632.6</ele>
        <time>2023-10-01T07:17:32Z</time>
      </trkpt>
      <trkpt lat="43.42134" lon="2.06381">
        <ele>632.8</ele>
        <time>2023-10-01T07:17:33Z</time>
      </trkpt>
      <trkpt lat="43.42135" lon="2.06385">
        <ele>632.8</ele>
        <time>2023-10-01T07:17:34Z</time>
      </trkpt>
      <trkpt lat="43.42135" lon="2.06387">
        <ele>633</ele>
        <time>2023-10-01T07:17:35Z</time>
      </trkpt>
      <trkpt lat="43.42135" lon="2.0639">
        <ele>633</ele>
        <time>2023-10-01T07:17:36Z</time>
      </trkpt>
      <trkpt lat="43.42134" lon="2.06393">
        <ele>633.2</ele>
        <time>2023-10-01T07:17:37Z</time>
      </trkpt>
      <trkpt lat="43.42132" lon="2.06397">
        <ele>633.4</ele>
        <time>2023-10-01T07:17:38Z</time>
      </trkpt>
      <trkpt lat="43.42132" lon="2.06401">
        <ele>633.6</ele>
        <time>2023-10-01T07:17:39Z</time>
      </trkpt>
      <trkpt lat="43.42132" lon="2.06406">
        <ele>633.6</ele>
        <time>2023-10-01T07:17:40Z</time>
      </trkpt>
      <trkpt lat="43.42133" lon="2.06411">
        <ele>634</ele>
        <time>2023-10-01T07:17:41Z</time>
      </trkpt>
      <trkpt lat="43.4213" lon="2.06416">
        <ele>634.2</ele>
        <time>2023-10-01T07:17:42Z</time>
      </trkpt>
      <trkpt lat="43.42128" lon="2.06421">
        <ele>634.4</ele>
        <time>2023-10-01T07:17:43Z</time>
      </trkpt>
      <trkpt lat="43.42128" lon="2.06425">
        <ele>634.6</ele>
        <time>2023-10-01T07:17:44Z</time>
      </trkpt>
      <trkpt lat="43.42128" lon="2.06427">
        <ele>635</ele>
        <time>2023-10-01T07:17:45Z</time>
      </trkpt>
      <trkpt lat="43.42129" lon="2.06431">
        <ele>635.2</ele>
        <time>2023-10-01T07:17:46Z</time>
      </trkpt>
      <trkpt lat="43.42129" lon="2.06436">
        <ele>635.6</ele>
        <time>2023-10-01T07:17:47Z</time>
      </trkpt>
      <trkpt lat="43.42128" lon="2.06441">
        <ele>635.8</ele>
        <time>2023-10-01T07:17:48Z</time>
      </trkpt>
      <trkpt lat="43.42124" lon="2.06447">
        <ele>636</ele>
        <time>2023-10-01T07:17:49Z</time>
      </trkpt>
      <trkpt lat="43.42122" lon="2.0645">
        <ele>636</ele>
        <time>2023-10-01T07:17:50Z</time>
      </trkpt>
      <trkpt lat="43.42123" lon="2.06454">
        <ele>636.2</ele>
        <time>2023-10-01T07:17:51Z</time>
      </trkpt>
      <trkpt lat="43.42124" lon="2.06458">
        <ele>636.6</ele>
        <time>2023-10-01T07:17:52Z</time>
      </trkpt>
      <trkpt lat="43.42125" lon="2.06463">
        <ele>636.8</ele>
        <time>2023-10-01T07:17:53Z</time>
      </trkpt>
      <trkpt lat="43.42125" lon="2.06468">
        <ele>637</ele>
        <time>2023-10-01T07:17:54Z</time>
      </trkpt>
      <trkpt lat="43.42125" lon="2.06473">
        <ele>637.2</ele>
        <time>2023-10-01T07:17:55Z</time>
      </trkpt>
      <trkpt lat="43.42124" lon="2.06478">
        <ele>637.4</ele>
        <time>2023-10-01T07:17:56Z</time>
      </trkpt>
      <trkpt lat="43.42124" lon="2.06482">
        <ele>637.6</ele>
        <time>2023-10-01T07:17:57Z</time>
      </trkpt>
      <trkpt lat="43.42125" lon="2.06486">
        <ele>637.8</ele>
        <time>2023-10-01T07:17:58Z</time>
      </trkpt>
      <trkpt lat="43.42124" lon="2.06492">
        <ele>637.8</ele>
        <time>2023-10-01T07:17:59Z</time>
      </trkpt>
      <trkpt lat="43.42126" lon="2.06497">
        <ele>638</ele>
        <time>2023-10-01T07:18:00Z</time>
      </trkpt>
      <trkpt lat="43.42125" lon="2.065">
        <ele>638</ele>
        <time>2023-10-01T07:18:01Z</time>
      </trkpt>
      <trkpt lat="43.42126" lon="2.06503">
        <ele>638</ele>
        <time>2023-10-01T07:18:02Z</time>
      </trkpt>
      <trkpt lat="43.42125" lon="2.06506">
        <ele>638.4</ele>
        <time>2023-10-01T07:18:03Z</time>
      </trkpt>
      <trkpt lat="43.42123" lon="2.0651">
        <ele>638.6</ele>
        <time>2023-10-01T07:18:04Z</time>
      </trkpt>
      <trkpt lat="43.4212" lon="2.06516">
        <ele>638.8</ele>
        <time>2023-10-01T07:18:05Z</time>
      </trkpt>
      <trkpt lat="43.42118" lon="2.06521">
        <ele>638.8</ele>
        <time>2023-10-01T07:18:06Z</time>
      </trkpt>
      <trkpt lat="43.42115" lon="2.06524">
        <ele>639</ele>
        <time>2023-10-01T07:18:07Z</time>
      </trkpt>
      <trkpt lat="43.42113" lon="2.06527">
        <ele>639.2</ele>
        <time>2023-10-01T07:18:08Z</time>
      </trkpt>
      <trkpt lat="43.42112" lon="2.0653">
        <ele>639.6</ele>
        <time>2023-10-01T07:18:09Z</time>
      </trkpt>
      <trkpt lat="43.4211" lon="2.06534">
        <ele>639.8</ele>
        <time>2023-10-01T07:18:10Z</time>
      </trkpt>
      <trkpt lat="43.42107" lon="2.06537">
        <ele>640</ele>
        <time>2023-10-01T07:18:11Z</time>
      </trkpt>
      <trkpt lat="43.42105" lon="2.06539">
        <ele>640.4</ele>
        <time>2023-10-01T07:18:12Z</time>
      </trkpt>
      <trkpt lat="43.42103" lon="2.06541">
        <ele>640.6</ele>
        <time>2023-10-01T07:18:13Z</time>
      </trkpt>
      <trkpt lat="43.421" lon="2.06544">
        <ele>640.8</ele>
        <time>2023-10-01T07:18:14Z</time>
      </trkpt>
      <trkpt lat="43.42098" lon="2.06548">
        <ele>641</ele>
        <time>2023-10-01T07:18:15Z</time>
      </trkpt>
      <trkpt lat="43.42097" lon="2.06552">
        <ele>641.2</ele>
        <time>2023-10-01T07:18:16Z</time>
      </trkpt>
      <trkpt lat="43.42097" lon="2.06556">
        <ele>641.2</ele>
        <time>2023-10-01T07:18:17Z</time>
      </trkpt>
      <trkpt lat="43.42093" lon="2.0656">
        <ele>641.2</ele>
        <time>2023-10-01T07:18:18Z</time>
      </trkpt>
      <trkpt lat="43.42091" lon="2.06566">
        <ele>641.4</ele>
        <time>2023-10-01T07:18:19Z</time>
      </trkpt>
      <trkpt lat="43.42089" lon="2.06573">
        <ele>641.4</ele>
        <time>2023-10-01T07:18:20Z</time>
      </trkpt>
      <trkpt lat="43.42087" lon="2.06579">
        <ele>641.6</ele>
        <time>2023-10-01T07:18:21Z</time>
      </trkpt>
      <trkpt lat="43.42085" lon="2.06582">
        <ele>641.6</ele>
        <time>2023-10-01T07:18:22Z</time>
      </trkpt>
      <trkpt lat="43.42084" lon="2.06586">
        <ele>641.8</ele>
        <time>2023-10-01T07:18:23Z</time>
      </trkpt>
      <trkpt lat="43.42083" lon="2.06591">
        <ele>641.8</ele>
        <time>2023-10-01T07:18:24Z</time>
      </trkpt>
      <trkpt lat="43.42082" lon="2.06595">
        <ele>642</ele>
        <time>2023-10-01T07:18:25Z</time>
      </trkpt>
      <trkpt lat="43.4208" lon="2.06599">
        <ele>642.2</ele>
        <time>2023-10-01T07:18:26Z</time>
      </trkpt>
      <trkpt lat="43.42076" lon="2.06604">
        <ele>642.2</ele>
        <time>2023-10-01T07:18:27Z</time>
      </trkpt>
      <trkpt lat="43.42073" lon="2.06609">
        <ele>642.2</ele>
        <time>2023-10-01T07:18:28Z</time>
      </trkpt>
      <trkpt lat="43.42071" lon="2.06613">
        <ele>642.2</ele>
        <time>2023-10-01T07:18:29Z</time>
      </trkpt>
      <trkpt lat="43.42071" lon="2.06617">
        <ele>642.4</ele>
        <time>2023-10-01T07:18:30Z</time>
      </trkpt>
      <trkpt lat="43.42069" lon="2.0662">
        <ele>642.4</ele>
        <time>2023-10-01T07:18:31Z</time>
      </trkpt>
      <trkpt lat="43.42066" lon="2.06626">
        <ele>642.6</ele>
        <time>2023-10-01T07:18:32Z</time>
      </trkpt>
      <trkpt lat="43.42062" lon="2.0663">
        <ele>642.8</ele>
        <time>2023-10-01T07:18:33Z</time>
      </trkpt>
      <trkpt lat="43.42057" lon="2.06634">
        <ele>642.8</ele>
        <time>2023-10-01T07:18:34Z</time>
      </trkpt>
      <trkpt lat="43.42054" lon="2.06638">
        <ele>643</ele>
        <time>2023-10-01T07:18:35Z</time>
      </trkpt>
      <trkpt lat="43.42053" lon="2.06642">
        <ele>643</ele>
        <time>2023-10-01T07:18:36Z</time>
      </trkpt>
      <trkpt lat="43.42053" lon="2.06645">
        <ele>643.2</ele>
        <time>2023-10-01T07:18:37Z</time>
      </trkpt>
      <trkpt lat="43.42052" lon="2.06649">
        <ele>643.2</ele>
        <time>2023-10-01T07:18:38Z</time>
      </trkpt>
      <trkpt lat="43.4205" lon="2.06651">
        <ele>643.4</ele>
        <time>2023-10-01T07:18:39Z</time>
      </trkpt>
      <trkpt lat="43.42045" lon="2.06654">
        <ele>643.6</ele>
        <time>2023-10-01T07:18:40Z</time>
      </trkpt>
      <trkpt lat="43.4204" lon="2.06659">
        <ele>643.6</ele>
        <time>2023-10-01T07:18:41Z</time>
      </trkpt>
      <trkpt lat="43.42036" lon="2.06661">
        <ele>643.8</ele>
        <time>2023-10-01T07:18:42Z</time>
      </trkpt>
      <trkpt lat="43.42033" lon="2.06665">
        <ele>644</ele>
        <time>2023-10-01T07:18:43Z</time>
      </trkpt>
      <trkpt lat="43.4203" lon="2.06668">
        <ele>644.2</ele>
        <time>2023-10-01T07:18:44Z</time>
      </trkpt>
      <trkpt lat="43.42026" lon="2.06671">
        <ele>644.2</ele>
        <time>2023-10-01T07:18:45Z</time>
      </trkpt>
      <trkpt lat="43.42024" lon="2.06674">
        <ele>644.2</ele>
        <time>2023-10-01T07:18:46Z</time>
      </trkpt>
      <trkpt lat="43.42019" lon="2.06677">
        <ele>644.4</ele>
        <time>2023-10-01T07:18:47Z</time>
      </trkpt>
      <trkpt lat="43.42017" lon="2.0668">
        <ele>644.6</ele>
        <time>2023-10-01T07:18:48Z</time>
      </trkpt>
      <trkpt lat="43.42016" lon="2.06684">
        <ele>644.6</ele>
        <time>2023-10-01T07:18:49Z</time>
      </trkpt>
      <trkpt lat="43.42014" lon="2.06688">
        <ele>644.6</ele>
        <time>2023-10-01T07:18:50Z</time>
      </trkpt>
      <trkpt lat="43.42014" lon="2.06692">
        <ele>644.8</ele>
        <time>2023-10-01T07:18:51Z</time>
      </trkpt>
      <trkpt lat="43.42012" lon="2.06697">
        <ele>644.8</ele>
        <time>2023-10-01T07:18:52Z</time>
      </trkpt>
      <trkpt lat="43.4201" lon="2.06702">
        <ele>644.8</ele>
        <time>2023-10-01T07:18:53Z</time>
      </trkpt>
      <trkpt lat="43.42007" lon="2.06708">
        <ele>645</ele>
        <time>2023-10-01T07:18:54Z</time>
      </trkpt>
      <trkpt lat="43.42004" lon="2.06716">
        <ele>645.2</ele>
        <time>2023-10-01T07:18:55Z</time>
      </trkpt>
      <trkpt lat="43.42001" lon="2.06722">
        <ele>645.2</ele>
        <time>2023-10-01T07:18:56Z</time>
      </trkpt>
      <trkpt lat="43.41999" lon="2.06729">
        <ele>645.4</ele>
        <time>2023-10-01T07:18:57Z</time>
      </trkpt>
      <trkpt lat="43.41996" lon="2.06738">
        <ele>645.6</ele>
        <time>2023-10-01T07:18:58Z</time>
      </trkpt>
      <trkpt lat="43.41992" lon="2.06748">
        <ele>645.6</ele>
        <time>2023-10-01T07:18:59Z</time>
      </trkpt>
      <trkpt lat="43.4199" lon="2.06756">
        <ele>645.8</ele>
        <time>2023-10-01T07:19:00Z</time>
      </trkpt>
      <trkpt lat="43.41988" lon="2.06763">
        <ele>645.8</ele>
        <time>2023-10-01T07:19:01Z</time>
      </trkpt>
      <trkpt lat="43.41987" lon="2.06769">
        <ele>645.8</ele>
        <time>2023-10-01T07:19:02Z</time>
      </trkpt>
      <trkpt lat="43.41985" lon="2.06775">
        <ele>645.8</ele>
        <time>2023-10-01T07:19:03Z</time>
      </trkpt>
      <trkpt lat="43.41982" lon="2.06782">
        <ele>645.8</ele>
        <time>2023-10-01T07:19:04Z</time>
      </trkpt>
      <trkpt lat="43.41977" lon="2.06791">
        <ele>645.8</ele>
        <time>2023-10-01T07:19:05Z</time>
      </trkpt>
      <trkpt lat="43.41974" lon="2.06799">
        <ele>645.8</ele>
        <time>2023-10-01T07:19:06Z</time>
      </trkpt>
      <trkpt lat="43.41972" lon="2.06804">
        <ele>645.6</ele>
        <time>2023-10-01T07:19:07Z</time>
      </trkpt>
      <trkpt lat="43.41972" lon="2.06807">
        <ele>645.6</ele>
        <time>2023-10-01T07:19:08Z</time>
      </trkpt>
      <trkpt lat="43.41973" lon="2.06809">
        <ele>645.4</ele>
        <time>2023-10-01T07:19:09Z</time>
      </trkpt>
      <trkpt lat="43.41974" lon="2.06811">
        <ele>645.4</ele>
        <time>2023-10-01T07:19:10Z</time>
      </trkpt>
      <trkpt lat="43.4199" lon="2.06807">
        <ele>645</ele>
        <time>2023-10-01T07:19:14Z</time>
      </trkpt>
      <trkpt lat="43.41994" lon="2.06807">
        <ele>645</ele>
        <time>2023-10-01T07:19:15Z</time>
      </trkpt>
      <trkpt lat="43.42001" lon="2.06807">
        <ele>644.8</ele>
        <time>2023-10-01T07:19:16Z</time>
      </trkpt>
      <trkpt lat="43.42017" lon="2.06806">
        <ele>644.2</ele>
        <time>2023-10-01T07:19:18Z</time>
      </trkpt>
      <trkpt lat="43.42026" lon="2.06807">
        <ele>643.8</ele>
        <time>2023-10-01T07:19:19Z</time>
      </trkpt>
      <trkpt lat="43.42052" lon="2.06806">
        <ele>643.4</ele>
        <time>2023-10-01T07:19:22Z</time>
      </trkpt>
      <trkpt lat="43.42059" lon="2.06803">
        <ele>642.6</ele>
        <time>2023-10-01T07:19:23Z</time>
      </trkpt>
      <trkpt lat="43.42065" lon="2.06801">
        <ele>642.4</ele>
        <time>2023-10-01T07:19:24Z</time>
      </trkpt>
      <trkpt lat="43.42069" lon="2.068">
        <ele>641.6</ele>
        <time>2023-10-01T07:19:25Z</time>
      </trkpt>
      <trkpt lat="43.42073" lon="2.06799">
        <ele>640.8</ele>
        <time>2023-10-01T07:19:26Z</time>
      </trkpt>
      <trkpt lat="43.42076" lon="2.06798">
        <ele>640.6</ele>
        <time>2023-10-01T07:19:27Z</time>
      </trkpt>
      <trkpt lat="43.42078" lon="2.06799">
        <ele>639.8</ele>
        <time>2023-10-01T07:19:28Z</time>
      </trkpt>
      <trkpt lat="43.42078" lon="2.06801">
        <ele>639.4</ele>
        <time>2023-10-01T07:19:29Z</time>
      </trkpt>
      <trkpt lat="43.42079" lon="2.06803">
        <ele>638.8</ele>
        <time>2023-10-01T07:19:30Z</time>
      </trkpt>
      <trkpt lat="43.42078" lon="2.06806">
        <ele>638.8</ele>
        <time>2023-10-01T07:19:31Z</time>
      </trkpt>
      <trkpt lat="43.42077" lon="2.06809">
        <ele>638</ele>
        <time>2023-10-01T07:19:32Z</time>
      </trkpt>
      <trkpt lat="43.42076" lon="2.06814">
        <ele>637.6</ele>
        <time>2023-10-01T07:19:33Z</time>
      </trkpt>
      <trkpt lat="43.42075" lon="2.06818">
        <ele>637</ele>
        <time>2023-10-01T07:19:34Z</time>
      </trkpt>
      <trkpt lat="43.42073" lon="2.06822">
        <ele>636.6</ele>
        <time>2023-10-01T07:19:35Z</time>
      </trkpt>
      <trkpt lat="43.42069" lon="2.06826">
        <ele>636.6</ele>
        <time>2023-10-01T07:19:36Z</time>
      </trkpt>
      <trkpt lat="43.42066" lon="2.06831">
        <ele>636.2</ele>
        <time>2023-10-01T07:19:37Z</time>
      </trkpt>
      <trkpt lat="43.42063" lon="2.06835">
        <ele>636</ele>
        <time>2023-10-01T07:19:38Z</time>
      </trkpt>
      <trkpt lat="43.4206" lon="2.06839">
        <ele>635.6</ele>
        <time>2023-10-01T07:19:39Z</time>
      </trkpt>
      <trkpt lat="43.42057" lon="2.06842">
        <ele>635.6</ele>
        <time>2023-10-01T07:19:40Z</time>
      </trkpt>
      <trkpt lat="43.42047" lon="2.06854">
        <ele>635.2</ele>
        <time>2023-10-01T07:19:43Z</time>
      </trkpt>
      <trkpt lat="43.42044" lon="2.06857">
        <ele>635.2</ele>
        <time>2023-10-01T07:19:44Z</time>
      </trkpt>
      <trkpt lat="43.42043" lon="2.0686">
        <ele>635.2</ele>
        <time>2023-10-01T07:19:45Z</time>
      </trkpt>
      <trkpt lat="43.42042" lon="2.06862">
        <ele>635.2</ele>
        <time>2023-10-01T07:19:46Z</time>
      </trkpt>
      <trkpt lat="43.4204" lon="2.06866">
        <ele>635.2</ele>
        <time>2023-10-01T07:19:47Z</time>
      </trkpt>
      <trkpt lat="43.42037" lon="2.0687">
        <ele>635.4</ele>
        <time>2023-10-01T07:19:48Z</time>
      </trkpt>
      <trkpt lat="43.42031" lon="2.06882">
        <ele>635.8</ele>
        <time>2023-10-01T07:19:51Z</time>
      </trkpt>
      <trkpt lat="43.42028" lon="2.06886">
        <ele>636</ele>
        <time>2023-10-01T07:19:52Z</time>
      </trkpt>
      <trkpt lat="43.42025" lon="2.0689">
        <ele>636</ele>
        <time>2023-10-01T07:19:53Z</time>
      </trkpt>
      <trkpt lat="43.42024" lon="2.06894">
        <ele>636</ele>
        <time>2023-10-01T07:19:54Z</time>
      </trkpt>
      <trkpt lat="43.42023" lon="2.069">
        <ele>636.2</ele>
        <time>2023-10-01T07:19:55Z</time>
      </trkpt>
      <trkpt lat="43.42021" lon="2.06906">
        <ele>636.2</ele>
        <time>2023-10-01T07:19:56Z</time>
      </trkpt>
      <trkpt lat="43.42021" lon="2.06912">
        <ele>636.2</ele>
        <time>2023-10-01T07:19:57Z</time>
      </trkpt>
      <trkpt lat="43.42021" lon="2.06919">
        <ele>636.4</ele>
        <time>2023-10-01T07:19:58Z</time>
      </trkpt>
      <trkpt lat="43.42015" lon="2.06946">
        <ele>636.6</ele>
        <time>2023-10-01T07:20:02Z</time>
      </trkpt>
      <trkpt lat="43.42012" lon="2.06953">
        <ele>636.6</ele>
        <time>2023-10-01T07:20:03Z</time>
      </trkpt>
      <trkpt lat="43.42005" lon="2.06961">
        <ele>636.8</ele>
        <time>2023-10-01T07:20:04Z</time>
      </trkpt>
      <trkpt lat="43.41999" lon="2.06969">
        <ele>637.4</ele>
        <time>2023-10-01T07:20:05Z</time>
      </trkpt>
      <trkpt lat="43.4199" lon="2.06978">
        <ele>637.6</ele>
        <time>2023-10-01T07:20:06Z</time>
      </trkpt>
      <trkpt lat="43.41984" lon="2.06985">
        <ele>637.8</ele>
        <time>2023-10-01T07:20:07Z</time>
      </trkpt>
      <trkpt lat="43.41981" lon="2.06991">
        <ele>638</ele>
        <time>2023-10-01T07:20:08Z</time>
      </trkpt>
      <trkpt lat="43.41969" lon="2.07005">
        <ele>638.4</ele>
        <time>2023-10-01T07:20:11Z</time>
      </trkpt>
      <trkpt lat="43.41962" lon="2.07014">
        <ele>638.6</ele>
        <time>2023-10-01T07:20:13Z</time>
      </trkpt>
      <trkpt lat="43.41947" lon="2.07026">
        <ele>639.2</ele>
        <time>2023-10-01T07:20:16Z</time>
      </trkpt>
      <trkpt lat="43.41946" lon="2.0703">
        <ele>639.2</ele>
        <time>2023-10-01T07:20:17Z</time>
      </trkpt>
      <trkpt lat="43.41946" lon="2.07035">
        <ele>639.6</ele>
        <time>2023-10-01T07:20:18Z</time>
      </trkpt>
      <trkpt lat="43.41947" lon="2.0704">
        <ele>639.6</ele>
        <time>2023-10-01T07:20:19Z</time>
      </trkpt>
      <trkpt lat="43.41948" lon="2.07047">
        <ele>640</ele>
        <time>2023-10-01T07:20:20Z</time>
      </trkpt>
      <trkpt lat="43.41949" lon="2.07057">
        <ele>640.2</ele>
        <time>2023-10-01T07:20:21Z</time>
      </trkpt>
      <trkpt lat="43.41951" lon="2.07063">
        <ele>640.4</ele>
        <time>2023-10-01T07:20:22Z</time>
      </trkpt>
      <trkpt lat="43.41954" lon="2.07069">
        <ele>640.4</ele>
        <time>2023-10-01T07:20:23Z</time>
      </trkpt>
      <trkpt lat="43.41956" lon="2.07075">
        <ele>640.6</ele>
        <time>2023-10-01T07:20:24Z</time>
      </trkpt>
      <trkpt lat="43.41959" lon="2.07083">
        <ele>640.6</ele>
        <time>2023-10-01T07:20:25Z</time>
      </trkpt>
      <trkpt lat="43.41963" lon="2.07092">
        <ele>640.8</ele>
        <time>2023-10-01T07:20:26Z</time>
      </trkpt>
      <trkpt lat="43.41963" lon="2.071">
        <ele>640.8</ele>
        <time>2023-10-01T07:20:27Z</time>
      </trkpt>
      <trkpt lat="43.41963" lon="2.07107">
        <ele>641</ele>
        <time>2023-10-01T07:20:28Z</time>
      </trkpt>
      <trkpt lat="43.41964" lon="2.07112">
        <ele>641</ele>
        <time>2023-10-01T07:20:29Z</time>
      </trkpt>
      <trkpt lat="43.41964" lon="2.07117">
        <ele>641.2</ele>
        <time>2023-10-01T07:20:30Z</time>
      </trkpt>
      <trkpt lat="43.41964" lon="2.07121">
        <ele>641.2</ele>
        <time>2023-10-01T07:20:31Z</time>
      </trkpt>
      <trkpt lat="43.41965" lon="2.07127">
        <ele>641.4</ele>
        <time>2023-10-01T07:20:32Z</time>
      </trkpt>
      <trkpt lat="43.41966" lon="2.07132">
        <ele>641.6</ele>
        <time>2023-10-01T07:20:33Z</time>
      </trkpt>
      <trkpt lat="43.41968" lon="2.07136">
        <ele>641.8</ele>
        <time>2023-10-01T07:20:34Z</time>
      </trkpt>
      <trkpt lat="43.41968" lon="2.07139">
        <ele>642</ele>
        <time>2023-10-01T07:20:35Z</time>
      </trkpt>
      <trkpt lat="43.41967" lon="2.07143">
        <ele>642</ele>
        <time>2023-10-01T07:20:36Z</time>
      </trkpt>
      <trkpt lat="43.41967" lon="2.07147">
        <ele>642.2</ele>
        <time>2023-10-01T07:20:37Z</time>
      </trkpt>
      <trkpt lat="43.41969" lon="2.07154">
        <ele>642.4</ele>
        <time>2023-10-01T07:20:38Z</time>
      </trkpt>
      <trkpt lat="43.41969" lon="2.0716">
        <ele>642.4</ele>
        <time>2023-10-01T07:20:39Z</time>
      </trkpt>
      <trkpt lat="43.41973" lon="2.07165">
        <ele>642.4</ele>
        <time>2023-10-01T07:20:40Z</time>
      </trkpt>
      <trkpt lat="43.41977" lon="2.0717">
        <ele>642.6</ele>
        <time>2023-10-01T07:20:41Z</time>
      </trkpt>
      <trkpt lat="43.41979" lon="2.07175">
        <ele>643</ele>
        <time>2023-10-01T07:20:42Z</time>
      </trkpt>
      <trkpt lat="43.41984" lon="2.0718">
        <ele>643.8</ele>
        <time>2023-10-01T07:20:43Z</time>
      </trkpt>
      <trkpt lat="43.41987" lon="2.07183">
        <ele>644</ele>
        <time>2023-10-01T07:20:44Z</time>
      </trkpt>
      <trkpt lat="43.41991" lon="2.07187">
        <ele>644.4</ele>
        <time>2023-10-01T07:20:45Z</time>
      </trkpt>
      <trkpt lat="43.41996" lon="2.07191">
        <ele>644.6</ele>
        <time>2023-10-01T07:20:46Z</time>
      </trkpt>
      <trkpt lat="43.42002" lon="2.07192">
        <ele>644.6</ele>
        <time>2023-10-01T07:20:47Z</time>
      </trkpt>
      <trkpt lat="43.42006" lon="2.07193">
        <ele>644.8</ele>
        <time>2023-10-01T07:20:48Z</time>
      </trkpt>
      <trkpt lat="43.42008" lon="2.07192">
        <ele>644.8</ele>
        <time>2023-10-01T07:20:49Z</time>
      </trkpt>
      <trkpt lat="43.42009" lon="2.0719">
        <ele>645</ele>
        <time>2023-10-01T07:20:50Z</time>
      </trkpt>
      <trkpt lat="43.42011" lon="2.07188">
        <ele>645.2</ele>
        <time>2023-10-01T07:20:51Z</time>
      </trkpt>
      <trkpt lat="43.42013" lon="2.07186">
        <ele>645.2</ele>
        <time>2023-10-01T07:20:52Z</time>
      </trkpt>
      <trkpt lat="43.42018" lon="2.07183">
        <ele>645.2</ele>
        <time>2023-10-01T07:20:53Z</time>
      </trkpt>
      <trkpt lat="43.42022" lon="2.07179">
        <ele>645.2</ele>
        <time>2023-10-01T07:20:54Z</time>
      </trkpt>
      <trkpt lat="43.42025" lon="2.07175">
        <ele>645.2</ele>
        <time>2023-10-01T07:20:55Z</time>
      </trkpt>
      <trkpt lat="43.42025" lon="2.0717">
        <ele>645.2</ele>
        <time>2023-10-01T07:20:56Z</time>
      </trkpt>
      <trkpt lat="43.42025" lon="2.07166">
        <ele>645.2</ele>
        <time>2023-10-01T07:20:57Z</time>
      </trkpt>
      <trkpt lat="43.42025" lon="2.07162">
        <ele>645.2</ele>
        <time>2023-10-01T07:20:58Z</time>
      </trkpt>
      <trkpt lat="43.42025" lon="2.0716">
        <ele>645.2</ele>
        <time>2023-10-01T07:20:59Z</time>
      </trkpt>
      <trkpt lat="43.42025" lon="2.07155">
        <ele>645.2</ele>
        <time>2023-10-01T07:21:00Z</time>
      </trkpt>
      <trkpt lat="43.42026" lon="2.07151">
        <ele>645</ele>
        <time>2023-10-01T07:21:01Z</time>
      </trkpt>
      <trkpt lat="43.42028" lon="2.07146">
        <ele>644.6</ele>
        <time>2023-10-01T07:21:02Z</time>
      </trkpt>
      <trkpt lat="43.4203" lon="2.07141">
        <ele>644.4</ele>
        <time>2023-10-01T07:21:03Z</time>
      </trkpt>
      <trkpt lat="43.42033" lon="2.07137">
        <ele>644</ele>
        <time>2023-10-01T07:21:04Z</time>
      </trkpt>
      <trkpt lat="43.42038" lon="2.07133">
        <ele>643.8</ele>
        <time>2023-10-01T07:21:05Z</time>
      </trkpt>
      <trkpt lat="43.42044" lon="2.07129">
        <ele>643.4</ele>
        <time>2023-10-01T07:21:06Z</time>
      </trkpt>
      <trkpt lat="43.42047" lon="2.07125">
        <ele>643</ele>
        <time>2023-10-01T07:21:07Z</time>
      </trkpt>
      <trkpt lat="43.42066" lon="2.07112">
        <ele>642.4</ele>
        <time>2023-10-01T07:21:11Z</time>
      </trkpt>
      <trkpt lat="43.42069" lon="2.07112">
        <ele>642.2</ele>
        <time>2023-10-01T07:21:12Z</time>
      </trkpt>
      <trkpt lat="43.42071" lon="2.07112">
        <ele>642</ele>
        <time>2023-10-01T07:21:13Z</time>
      </trkpt>
      <trkpt lat="43.42075" lon="2.0711">
        <ele>641.8</ele>
        <time>2023-10-01T07:21:14Z</time>
      </trkpt>
      <trkpt lat="43.4208" lon="2.07108">
        <ele>641.4</ele>
        <time>2023-10-01T07:21:15Z</time>
      </trkpt>
      <trkpt lat="43.42085" lon="2.07106">
        <ele>641.2</ele>
        <time>2023-10-01T07:21:16Z</time>
      </trkpt>
      <trkpt lat="43.4209" lon="2.07104">
        <ele>641.2</ele>
        <time>2023-10-01T07:21:17Z</time>
      </trkpt>
      <trkpt lat="43.42093" lon="2.07103">
        <ele>640.8</ele>
        <time>2023-10-01T07:21:18Z</time>
      </trkpt>
      <trkpt lat="43.42099" lon="2.071">
        <ele>640.6</ele>
        <time>2023-10-01T07:21:19Z</time>
      </trkpt>
      <trkpt lat="43.42107" lon="2.07102">
        <ele>639.8</ele>
        <time>2023-10-01T07:21:21Z</time>
      </trkpt>
      <trkpt lat="43.42107" lon="2.07103">
        <ele>639.4</ele>
        <time>2023-10-01T07:21:22Z</time>
      </trkpt>
      <trkpt lat="43.42111" lon="2.07105">
        <ele>639.2</ele>
        <time>2023-10-01T07:21:23Z</time>
      </trkpt>
      <trkpt lat="43.42116" lon="2.07107">
        <ele>638.6</ele>
        <time>2023-10-01T07:21:24Z</time>
      </trkpt>
      <trkpt lat="43.42118" lon="2.07107">
        <ele>638.2</ele>
        <time>2023-10-01T07:21:25Z</time>
      </trkpt>
      <trkpt lat="43.42121" lon="2.07106">
        <ele>638</ele>
        <time>2023-10-01T07:21:26Z</time>
      </trkpt>
      <trkpt lat="43.42123" lon="2.07107">
        <ele>637.8</ele>
        <time>2023-10-01T07:21:27Z</time>
      </trkpt>
      <trkpt lat="43.42125" lon="2.07109">
        <ele>637.6</ele>
        <time>2023-10-01T07:21:28Z</time>
      </trkpt>
      <trkpt lat="43.42128" lon="2.07112">
        <ele>637.6</ele>
        <time>2023-10-01T07:21:29Z</time>
      </trkpt>
      <trkpt lat="43.42129" lon="2.07115">
        <ele>637.6</ele>
        <time>2023-10-01T07:21:30Z</time>
      </trkpt>
      <trkpt lat="43.42131" lon="2.07117">
        <ele>637.6</ele>
        <time>2023-10-01T07:21:31Z</time>
      </trkpt>
      <trkpt lat="43.42131" lon="2.07117">
        <ele>637.6</ele>
        <time>2023-10-01T07:21:32Z</time>
      </trkpt>
      <trkpt lat="43.42134" lon="2.07116">
        <ele>637.6</ele>
        <time>2023-10-01T07:21:33Z</time>
      </trkpt>
      <trkpt lat="43.42138" lon="2.07117">
        <ele>637.6</ele>
        <time>2023-10-01T07:21:34Z</time>
      </trkpt>
      <trkpt lat="43.42138" lon="2.07117">
        <ele>637.6</ele>
        <time>2023-10-01T07:21:35Z</time>
      </trkpt>
      <trkpt lat="43.4214" lon="2.07115">
        <ele>637.6</ele>
        <time>2023-10-01T07:21:36Z</time>
      </trkpt>
      <trkpt lat="43.42143" lon="2.07112">
        <ele>637.6</ele>
        <time>2023-10-01T07:21:37Z</time>
      </trkpt>
      <trkpt lat="43.42144" lon="2.07106">
        <ele>637.8</ele>
        <time>2023-10-01T07:21:38Z</time>
      </trkpt>
      <trkpt lat="43.42156" lon="2.07082">
        <ele>637.8</ele>
        <time>2023-10-01T07:21:42Z</time>
      </trkpt>
      <trkpt lat="43.42164" lon="2.07076">
        <ele>637.6</ele>
        <time>2023-10-01T07:21:43Z</time>
      </trkpt>
      <trkpt lat="43.42169" lon="2.0707">
        <ele>637.6</ele>
        <time>2023-10-01T07:21:44Z</time>
      </trkpt>
      <trkpt lat="43.42172" lon="2.07065">
        <ele>637.4</ele>
        <time>2023-10-01T07:21:45Z</time>
      </trkpt>
      <trkpt lat="43.42176" lon="2.07061">
        <ele>637.4</ele>
        <time>2023-10-01T07:21:46Z</time>
      </trkpt>
      <trkpt lat="43.42183" lon="2.07053">
        <ele>637.4</ele>
        <time>2023-10-01T07:21:48Z</time>
      </trkpt>
      <trkpt lat="43.42186" lon="2.0705">
        <ele>637.4</ele>
        <time>2023-10-01T07:21:49Z</time>
      </trkpt>
      <trkpt lat="43.42193" lon="2.07047">
        <ele>637.2</ele>
        <time>2023-10-01T07:21:50Z</time>
      </trkpt>
      <trkpt lat="43.42196" lon="2.07048">
        <ele>637.2</ele>
        <time>2023-10-01T07:21:51Z</time>
      </trkpt>
      <trkpt lat="43.42198" lon="2.0705">
        <ele>637.2</ele>
        <time>2023-10-01T07:21:52Z</time>
      </trkpt>
      <trkpt lat="43.422" lon="2.07053">
        <ele>637.2</ele>
        <time>2023-10-01T07:21:53Z</time>
      </trkpt>
      <trkpt lat="43.42201" lon="2.07052">
        <ele>637.2</ele>
        <time>2023-10-01T07:21:54Z</time>
      </trkpt>
      <trkpt lat="43.42203" lon="2.07048">
        <ele>637</ele>
        <time>2023-10-01T07:21:55Z</time>
      </trkpt>
      <trkpt lat="43.42206" lon="2.07036">
        <ele>637</ele>
        <time>2023-10-01T07:21:58Z</time>
      </trkpt>
      <trkpt lat="43.42207" lon="2.07034">
        <ele>636.8</ele>
        <time>2023-10-01T07:21:59Z</time>
      </trkpt>
      <trkpt lat="43.42209" lon="2.07032">
        <ele>636.6</ele>
        <time>2023-10-01T07:22:00Z</time>
      </trkpt>
      <trkpt lat="43.42212" lon="2.0703">
        <ele>636.6</ele>
        <time>2023-10-01T07:22:01Z</time>
      </trkpt>
      <trkpt lat="43.42216" lon="2.07028">
        <ele>636.4</ele>
        <time>2023-10-01T07:22:02Z</time>
      </trkpt>
      <trkpt lat="43.42218" lon="2.07026">
        <ele>636.2</ele>
        <time>2023-10-01T07:22:03Z</time>
      </trkpt>
      <trkpt lat="43.42221" lon="2.07022">
        <ele>635.8</ele>
        <time>2023-10-01T07:22:04Z</time>
      </trkpt>
      <trkpt lat="43.42223" lon="2.07019">
        <ele>635.6</ele>
        <time>2023-10-01T07:22:05Z</time>
      </trkpt>
      <trkpt lat="43.42225" lon="2.07015">
        <ele>635.2</ele>
        <time>2023-10-01T07:22:06Z</time>
      </trkpt>
      <trkpt lat="43.42225" lon="2.07007">
        <ele>634.6</ele>
        <time>2023-10-01T07:22:08Z</time>
      </trkpt>
      <trkpt lat="43.42223" lon="2.06999">
        <ele>634</ele>
        <time>2023-10-01T07:22:10Z</time>
      </trkpt>
      <trkpt lat="43.42222" lon="2.06995">
        <ele>633.2</ele>
        <time>2023-10-01T07:22:11Z</time>
      </trkpt>
      <trkpt lat="43.4222" lon="2.06993">
        <ele>632.6</ele>
        <time>2023-10-01T07:22:12Z</time>
      </trkpt>
      <trkpt lat="43.42218" lon="2.06992">
        <ele>632.2</ele>
        <time>2023-10-01T07:22:13Z</time>
      </trkpt>
      <trkpt lat="43.42216" lon="2.06991">
        <ele>632</ele>
        <time>2023-10-01T07:22:14Z</time>
      </trkpt>
      <trkpt lat="43.42214" lon="2.06989">
        <ele>631.8</ele>
        <time>2023-10-01T07:22:15Z</time>
      </trkpt>
      <trkpt lat="43.42211" lon="2.06988">
        <ele>631.6</ele>
        <time>2023-10-01T07:22:16Z</time>
      </trkpt>
      <trkpt lat="43.42209" lon="2.06985">
        <ele>631.2</ele>
        <time>2023-10-01T07:22:17Z</time>
      </trkpt>
      <trkpt lat="43.42207" lon="2.0698">
        <ele>631.2</ele>
        <time>2023-10-01T07:22:18Z</time>
      </trkpt>
      <trkpt lat="43.42206" lon="2.06975">
        <ele>631</ele>
        <time>2023-10-01T07:22:19Z</time>
      </trkpt>
      <trkpt lat="43.42205" lon="2.0697">
        <ele>630.8</ele>
        <time>2023-10-01T07:22:20Z</time>
      </trkpt>
      <trkpt lat="43.42206" lon="2.06966">
        <ele>630.6</ele>
        <time>2023-10-01T07:22:21Z</time>
      </trkpt>
      <trkpt lat="43.42204" lon="2.06963">
        <ele>630.4</ele>
        <time>2023-10-01T07:22:22Z</time>
      </trkpt>
      <trkpt lat="43.42203" lon="2.06961">
        <ele>630.2</ele>
        <time>2023-10-01T07:22:23Z</time>
      </trkpt>
      <trkpt lat="43.422" lon="2.06956">
        <ele>630</ele>
        <time>2023-10-01T07:22:24Z</time>
      </trkpt>
      <trkpt lat="43.42195" lon="2.06951">
        <ele>630</ele>
        <time>2023-10-01T07:22:25Z</time>
      </trkpt>
      <trkpt lat="43.42194" lon="2.06947">
        <ele>629.8</ele>
        <time>2023-10-01T07:22:26Z</time>
      </trkpt>
      <trkpt lat="43.42193" lon="2.06942">
        <ele>629.6</ele>
        <time>2023-10-01T07:22:27Z</time>
      </trkpt>
      <trkpt lat="43.42193" lon="2.06937">
        <ele>629.4</ele>
        <time>2023-10-01T07:22:28Z</time>
      </trkpt>
      <trkpt lat="43.42193" lon="2.06931">
        <ele>629.2</ele>
        <time>2023-10-01T07:22:29Z</time>
      </trkpt>
      <trkpt lat="43.42191" lon="2.06926">
        <ele>629.2</ele>
        <time>2023-10-01T07:22:30Z</time>
      </trkpt>
      <trkpt lat="43.42188" lon="2.0692">
        <ele>629</ele>
        <time>2023-10-01T07:22:31Z</time>
      </trkpt>
      <trkpt lat="43.42189" lon="2.06915">
        <ele>629.2</ele>
        <time>2023-10-01T07:22:32Z</time>
      </trkpt>
      <trkpt lat="43.42189" lon="2.0691">
        <ele>629.2</ele>
        <time>2023-10-01T07:22:33Z</time>
      </trkpt>
      <trkpt lat="43.42185" lon="2.06891">
        <ele>629.2</ele>
        <time>2023-10-01T07:22:36Z</time>
      </trkpt>
      <trkpt lat="43.42185" lon="2.06889">
        <ele>629.2</ele>
        <time>2023-10-01T07:22:37Z</time>
      </trkpt>
      <trkpt lat="43.42184" lon="2.06886">
        <ele>629.2</ele>
        <time>2023-10-01T07:22:38Z</time>
      </trkpt>
      <trkpt lat="43.42183" lon="2.06884">
        <ele>629.2</ele>
        <time>2023-10-01T07:22:39Z</time>
      </trkpt>
      <trkpt lat="43.42181" lon="2.06882">
        <ele>629.2</ele>
        <time>2023-10-01T07:22:40Z</time>
      </trkpt>
      <trkpt lat="43.42179" lon="2.06878">
        <ele>629.2</ele>
        <time>2023-10-01T07:22:41Z</time>
      </trkpt>
      <trkpt lat="43.42178" lon="2.06874">
        <ele>629</ele>
        <time>2023-10-01T07:22:42Z</time>
      </trkpt>
      <trkpt lat="43.42179" lon="2.06868">
        <ele>628.8</ele>
        <time>2023-10-01T07:22:43Z</time>
      </trkpt>
      <trkpt lat="43.42181" lon="2.06864">
        <ele>628.6</ele>
        <time>2023-10-01T07:22:44Z</time>
      </trkpt>
      <trkpt lat="43.42183" lon="2.06862">
        <ele>628.6</ele>
        <time>2023-10-01T07:22:45Z</time>
      </trkpt>
      <trkpt lat="43.42186" lon="2.06858">
        <ele>628.6</ele>
        <time>2023-10-01T07:22:46Z</time>
      </trkpt>
      <trkpt lat="43.4219" lon="2.06854">
        <ele>628.4</ele>
        <time>2023-10-01T07:22:47Z</time>
      </trkpt>
      <trkpt lat="43.42193" lon="2.06852">
        <ele>628.2</ele>
        <time>2023-10-01T07:22:48Z</time>
      </trkpt>
      <trkpt lat="43.42197" lon="2.06852">
        <ele>628.2</ele>
        <time>2023-10-01T07:22:49Z</time>
      </trkpt>
      <trkpt lat="43.42201" lon="2.0685">
        <ele>627.8</ele>
        <time>2023-10-01T07:22:50Z</time>
      </trkpt>
      <trkpt lat="43.42205" lon="2.06847">
        <ele>627.6</ele>
        <time>2023-10-01T07:22:51Z</time>
      </trkpt>
      <trkpt lat="43.42208" lon="2.06844">
        <ele>627.2</ele>
        <time>2023-10-01T07:22:52Z</time>
      </trkpt>
      <trkpt lat="43.42209" lon="2.06841">
        <ele>627</ele>
        <time>2023-10-01T07:22:53Z</time>
      </trkpt>
      <trkpt lat="43.42209" lon="2.06832">
        <ele>626</ele>
        <time>2023-10-01T07:22:55Z</time>
      </trkpt>
      <trkpt lat="43.42206" lon="2.06822">
        <ele>625.4</ele>
        <time>2023-10-01T07:22:57Z</time>
      </trkpt>
      <trkpt lat="43.42205" lon="2.06817">
        <ele>625</ele>
        <time>2023-10-01T07:22:58Z</time>
      </trkpt>
      <trkpt lat="43.42205" lon="2.06812">
        <ele>624.6</ele>
        <time>2023-10-01T07:22:59Z</time>
      </trkpt>
      <trkpt lat="43.42205" lon="2.06808">
        <ele>624.6</ele>
        <time>2023-10-01T07:23:00Z</time>
      </trkpt>
      <trkpt lat="43.42206" lon="2.06803">
        <ele>624.4</ele>
        <time>2023-10-01T07:23:01Z</time>
      </trkpt>
      <trkpt lat="43.42206" lon="2.06798">
        <ele>624.4</ele>
        <time>2023-10-01T07:23:02Z</time>
      </trkpt>
      <trkpt lat="43.42204" lon="2.0679">
        <ele>624.2</ele>
        <time>2023-10-01T07:23:04Z</time>
      </trkpt>
      <trkpt lat="43.42204" lon="2.06786">
        <ele>624.2</ele>
        <time>2023-10-01T07:23:05Z</time>
      </trkpt>
      <trkpt lat="43.42201" lon="2.0678">
        <ele>624.4</ele>
        <time>2023-10-01T07:23:06Z</time>
      </trkpt>
      <trkpt lat="43.422" lon="2.06774">
        <ele>624.6</ele>
        <time>2023-10-01T07:23:07Z</time>
      </trkpt>
      <trkpt lat="43.42201" lon="2.0677">
        <ele>625.2</ele>
        <time>2023-10-01T07:23:09Z</time>
      </trkpt>
      <trkpt lat="43.422" lon="2.06767">
        <ele>625.4</ele>
        <time>2023-10-01T07:23:10Z</time>
      </trkpt>
      <trkpt lat="43.422" lon="2.06765">
        <ele>625.6</ele>
        <time>2023-10-01T07:23:11Z</time>
      </trkpt>
      <trkpt lat="43.42198" lon="2.06762">
        <ele>626</ele>
        <time>2023-10-01T07:23:12Z</time>
      </trkpt>
      <trkpt lat="43.42198" lon="2.06758">
        <ele>626</ele>
        <time>2023-10-01T07:23:13Z</time>
      </trkpt>
      <trkpt lat="43.42202" lon="2.0675">
        <ele>626.8</ele>
        <time>2023-10-01T07:23:15Z</time>
      </trkpt>
      <trkpt lat="43.42204" lon="2.06748">
        <ele>626.8</ele>
        <time>2023-10-01T07:23:16Z</time>
      </trkpt>
      <trkpt lat="43.4221" lon="2.06747">
        <ele>626.8</ele>
        <time>2023-10-01T07:23:18Z</time>
      </trkpt>
      <trkpt lat="43.42215" lon="2.06745">
        <ele>626.8</ele>
        <time>2023-10-01T07:23:19Z</time>
      </trkpt>
      <trkpt lat="43.42219" lon="2.06742">
        <ele>626.8</ele>
        <time>2023-10-01T07:23:20Z</time>
      </trkpt>
      <trkpt lat="43.42224" lon="2.06739">
        <ele>626.6</ele>
        <time>2023-10-01T07:23:21Z</time>
      </trkpt>
      <trkpt lat="43.42241" lon="2.06734">
        <ele>625.4</ele>
        <time>2023-10-01T07:23:23Z</time>
      </trkpt>
      <trkpt lat="43.42247" lon="2.06734">
        <ele>624.8</ele>
        <time>2023-10-01T07:23:24Z</time>
      </trkpt>
      <trkpt lat="43.42252" lon="2.06736">
        <ele>624.4</ele>
        <time>2023-10-01T07:23:25Z</time>
      </trkpt>
      <trkpt lat="43.42255" lon="2.06738">
        <ele>624</ele>
        <time>2023-10-01T07:23:26Z</time>
      </trkpt>
      <trkpt lat="43.42256" lon="2.06738">
        <ele>623.4</ele>
        <time>2023-10-01T07:23:27Z</time>
      </trkpt>
      <trkpt lat="43.42259" lon="2.06736">
        <ele>622.8</ele>
        <time>2023-10-01T07:23:28Z</time>
      </trkpt>
      <trkpt lat="43.42261" lon="2.06733">
        <ele>622.6</ele>
        <time>2023-10-01T07:23:29Z</time>
      </trkpt>
      <trkpt lat="43.42263" lon="2.06729">
        <ele>622.4</ele>
        <time>2023-10-01T07:23:30Z</time>
      </trkpt>
      <trkpt lat="43.42267" lon="2.06725">
        <ele>622</ele>
        <time>2023-10-01T07:23:31Z</time>
      </trkpt>
      <trkpt lat="43.42274" lon="2.06718">
        <ele>621.2</ele>
        <time>2023-10-01T07:23:34Z</time>
      </trkpt>
      <trkpt lat="43.42275" lon="2.06715">
        <ele>620.6</ele>
        <time>2023-10-01T07:23:35Z</time>
      </trkpt>
      <trkpt lat="43.42274" lon="2.06714">
        <ele>620.6</ele>
        <time>2023-10-01T07:23:36Z</time>
      </trkpt>
      <trkpt lat="43.42272" lon="2.06714">
        <ele>619.8</ele>
        <time>2023-10-01T07:23:37Z</time>
      </trkpt>
      <trkpt lat="43.4226" lon="2.0671">
        <ele>619.4</ele>
        <time>2023-10-01T07:23:41Z</time>
      </trkpt>
      <trkpt lat="43.42255" lon="2.0671">
        <ele>619</ele>
        <time>2023-10-01T07:23:43Z</time>
      </trkpt>
      <trkpt lat="43.42253" lon="2.0671">
        <ele>619.2</ele>
        <time>2023-10-01T07:23:44Z</time>
      </trkpt>
      <trkpt lat="43.4225" lon="2.06711">
        <ele>619.4</ele>
        <time>2023-10-01T07:23:45Z</time>
      </trkpt>
      <trkpt lat="43.42248" lon="2.06712">
        <ele>619.4</ele>
        <time>2023-10-01T07:23:46Z</time>
      </trkpt>
      <trkpt lat="43.42238" lon="2.06712">
        <ele>620.2</ele>
        <time>2023-10-01T07:23:49Z</time>
      </trkpt>
      <trkpt lat="43.42227" lon="2.06716">
        <ele>621</ele>
        <time>2023-10-01T07:23:51Z</time>
      </trkpt>
      <trkpt lat="43.42221" lon="2.06717">
        <ele>621.4</ele>
        <time>2023-10-01T07:23:52Z</time>
      </trkpt>
      <trkpt lat="43.42211" lon="2.0672">
        <ele>622.4</ele>
        <time>2023-10-01T07:23:54Z</time>
      </trkpt>
      <trkpt lat="43.42203" lon="2.06724">
        <ele>623</ele>
        <time>2023-10-01T07:23:56Z</time>
      </trkpt>
      <trkpt lat="43.42201" lon="2.06726">
        <ele>623.2</ele>
        <time>2023-10-01T07:23:57Z</time>
      </trkpt>
      <trkpt lat="43.42198" lon="2.06729">
        <ele>623.8</ele>
        <time>2023-10-01T07:23:58Z</time>
      </trkpt>
      <trkpt lat="43.42195" lon="2.06731">
        <ele>624.2</ele>
        <time>2023-10-01T07:23:59Z</time>
      </trkpt>
      <trkpt lat="43.42193" lon="2.06732">
        <ele>624.8</ele>
        <time>2023-10-01T07:24:00Z</time>
      </trkpt>
      <trkpt lat="43.4219" lon="2.06735">
        <ele>625.4</ele>
        <time>2023-10-01T07:24:01Z</time>
      </trkpt>
      <trkpt lat="43.42187" lon="2.06739">
        <ele>625.6</ele>
        <time>2023-10-01T07:24:02Z</time>
      </trkpt>
      <trkpt lat="43.42184" lon="2.06741">
        <ele>625.8</ele>
        <time>2023-10-01T07:24:03Z</time>
      </trkpt>
      <trkpt lat="43.42182" lon="2.06744">
        <ele>626</ele>
        <time>2023-10-01T07:24:04Z</time>
      </trkpt>
      <trkpt lat="43.42179" lon="2.06747">
        <ele>626.2</ele>
        <time>2023-10-01T07:24:05Z</time>
      </trkpt>
      <trkpt lat="43.42178" lon="2.06749">
        <ele>626.2</ele>
        <time>2023-10-01T07:24:06Z</time>
      </trkpt>
      <trkpt lat="43.42178" lon="2.0675">
        <ele>626.6</ele>
        <time>2023-10-01T07:24:07Z</time>
      </trkpt>
      <trkpt lat="43.42176" lon="2.06753">
        <ele>626.6</ele>
        <time>2023-10-01T07:24:08Z</time>
      </trkpt>
      <trkpt lat="43.42172" lon="2.06755">
        <ele>627.2</ele>
        <time>2023-10-01T07:24:09Z</time>
      </trkpt>
      <trkpt lat="43.42171" lon="2.06758">
        <ele>627.6</ele>
        <time>2023-10-01T07:24:10Z</time>
      </trkpt>
      <trkpt lat="43.4217" lon="2.06759">
        <ele>627.8</ele>
        <time>2023-10-01T07:24:11Z</time>
      </trkpt>
      <trkpt lat="43.42168" lon="2.0676">
        <ele>628</ele>
        <time>2023-10-01T07:24:12Z</time>
      </trkpt>
      <trkpt lat="43.42165" lon="2.06762">
        <ele>628.2</ele>
        <time>2023-10-01T07:24:13Z</time>
      </trkpt>
      <trkpt lat="43.42164" lon="2.06762">
        <ele>628.6</ele>
        <time>2023-10-01T07:24:14Z</time>
      </trkpt>
      <trkpt lat="43.42164" lon="2.06761">
        <ele>628.8</ele>
        <time>2023-10-01T07:24:15Z</time>
      </trkpt>
      <trkpt lat="43.42163" lon="2.06761">
        <ele>629.2</ele>
        <time>2023-10-01T07:24:16Z</time>
      </trkpt>
      <trkpt lat="43.42162" lon="2.06759">
        <ele>629.4</ele>
        <time>2023-10-01T07:24:17Z</time>
      </trkpt>
      <trkpt lat="43.42162" lon="2.06756">
        <ele>629.4</ele>
        <time>2023-10-01T07:24:18Z</time>
      </trkpt>
      <trkpt lat="43.42162" lon="2.06754">
        <ele>629.6</ele>
        <time>2023-10-01T07:24:19Z</time>
      </trkpt>
      <trkpt lat="43.42158" lon="2.06752">
        <ele>629.8</ele>
        <time>2023-10-01T07:24:20Z</time>
      </trkpt>
      <trkpt lat="43.42156" lon="2.06751">
        <ele>630.2</ele>
        <time>2023-10-01T07:24:21Z</time>
      </trkpt>
      <trkpt lat="43.42154" lon="2.06749">
        <ele>630.4</ele>
        <time>2023-10-01T07:24:22Z</time>
      </trkpt>
      <trkpt lat="43.42152" lon="2.06746">
        <ele>630.8</ele>
        <time>2023-10-01T07:24:23Z</time>
      </trkpt>
      <trkpt lat="43.42151" lon="2.06744">
        <ele>631</ele>
        <time>2023-10-01T07:24:24Z</time>
      </trkpt>
      <trkpt lat="43.4215" lon="2.06743">
        <ele>631.2</ele>
        <time>2023-10-01T07:24:25Z</time>
      </trkpt>
      <trkpt lat="43.42149" lon="2.06742">
        <ele>631.6</ele>
        <time>2023-10-01T07:24:26Z</time>
      </trkpt>
      <trkpt lat="43.42149" lon="2.06739">
        <ele>631.8</ele>
        <time>2023-10-01T07:24:27Z</time>
      </trkpt>
      <trkpt lat="43.42149" lon="2.06736">
        <ele>632</ele>
        <time>2023-10-01T07:24:28Z</time>
      </trkpt>
      <trkpt lat="43.42149" lon="2.06734">
        <ele>632</ele>
        <time>2023-10-01T07:24:29Z</time>
      </trkpt>
      <trkpt lat="43.42149" lon="2.06731">
        <ele>632.2</ele>
        <time>2023-10-01T07:24:30Z</time>
      </trkpt>
      <trkpt lat="43.4215" lon="2.06729">
        <ele>632.4</ele>
        <time>2023-10-01T07:24:31Z</time>
      </trkpt>
      <trkpt lat="43.4215" lon="2.06726">
        <ele>632.6</ele>
        <time>2023-10-01T07:24:32Z</time>
      </trkpt>
      <trkpt lat="43.4215" lon="2.06722">
        <ele>632.8</ele>
        <time>2023-10-01T07:24:33Z</time>
      </trkpt>
      <trkpt lat="43.4215" lon="2.06717">
        <ele>632.8</ele>
        <time>2023-10-01T07:24:34Z</time>
      </trkpt>
      <trkpt lat="43.4215" lon="2.06714">
        <ele>632.8</ele>
        <time>2023-10-01T07:24:35Z</time>
      </trkpt>
      <trkpt lat="43.42151" lon="2.06711">
        <ele>633</ele>
        <time>2023-10-01T07:24:36Z</time>
      </trkpt>
      <trkpt lat="43.42154" lon="2.06708">
        <ele>633</ele>
        <time>2023-10-01T07:24:37Z</time>
      </trkpt>
      <trkpt lat="43.42156" lon="2.06705">
        <ele>633</ele>
        <time>2023-10-01T07:24:38Z</time>
      </trkpt>
      <trkpt lat="43.42159" lon="2.06701">
        <ele>633</ele>
        <time>2023-10-01T07:24:39Z</time>
      </trkpt>
      <trkpt lat="43.4216" lon="2.06698">
        <ele>633</ele>
        <time>2023-10-01T07:24:40Z</time>
      </trkpt>
      <trkpt lat="43.42161" lon="2.06693">
        <ele>633</ele>
        <time>2023-10-01T07:24:41Z</time>
      </trkpt>
      <trkpt lat="43.42161" lon="2.06687">
        <ele>633.2</ele>
        <time>2023-10-01T07:24:42Z</time>
      </trkpt>
      <trkpt lat="43.42163" lon="2.06679">
        <ele>633.2</ele>
        <time>2023-10-01T07:24:43Z</time>
      </trkpt>
      <trkpt lat="43.42163" lon="2.06672">
        <ele>633.4</ele>
        <time>2023-10-01T07:24:44Z</time>
      </trkpt>
      <trkpt lat="43.42163" lon="2.06665">
        <ele>633.6</ele>
        <time>2023-10-01T07:24:45Z</time>
      </trkpt>
      <trkpt lat="43.42164" lon="2.0666">
        <ele>633.6</ele>
        <time>2023-10-01T07:24:46Z</time>
      </trkpt>
      <trkpt lat="43.42166" lon="2.06655">
        <ele>633.6</ele>
        <time>2023-10-01T07:24:47Z</time>
      </trkpt>
      <trkpt lat="43.42168" lon="2.0665">
        <ele>633.6</ele>
        <time>2023-10-01T07:24:48Z</time>
      </trkpt>
      <trkpt lat="43.42171" lon="2.06645">
        <ele>633.8</ele>
        <time>2023-10-01T07:24:49Z</time>
      </trkpt>
      <trkpt lat="43.42174" lon="2.0664">
        <ele>633.8</ele>
        <time>2023-10-01T07:24:50Z</time>
      </trkpt>
      <trkpt lat="43.42178" lon="2.06634">
        <ele>633.8</ele>
        <time>2023-10-01T07:24:51Z</time>
      </trkpt>
      <trkpt lat="43.42181" lon="2.0663">
        <ele>634</ele>
        <time>2023-10-01T07:24:52Z</time>
      </trkpt>
      <trkpt lat="43.42187" lon="2.06624">
        <ele>633.8</ele>
        <time>2023-10-01T07:24:53Z</time>
      </trkpt>
      <trkpt lat="43.42193" lon="2.06619">
        <ele>633.6</ele>
        <time>2023-10-01T07:24:54Z</time>
      </trkpt>
      <trkpt lat="43.42198" lon="2.06614">
        <ele>633.4</ele>
        <time>2023-10-01T07:24:55Z</time>
      </trkpt>
      <trkpt lat="43.42201" lon="2.06611">
        <ele>633.2</ele>
        <time>2023-10-01T07:24:56Z</time>
      </trkpt>
      <trkpt lat="43.42202" lon="2.06606">
        <ele>633.2</ele>
        <time>2023-10-01T07:24:57Z</time>
      </trkpt>
      <trkpt lat="43.42203" lon="2.06601">
        <ele>633</ele>
        <time>2023-10-01T07:24:58Z</time>
      </trkpt>
      <trkpt lat="43.42203" lon="2.06596">
        <ele>633</ele>
        <time>2023-10-01T07:24:59Z</time>
      </trkpt>
      <trkpt lat="43.42202" lon="2.0659">
        <ele>633</ele>
        <time>2023-10-01T07:25:00Z</time>
      </trkpt>
      <trkpt lat="43.42204" lon="2.06584">
        <ele>633</ele>
        <time>2023-10-01T07:25:01Z</time>
      </trkpt>
      <trkpt lat="43.42206" lon="2.06579">
        <ele>633</ele>
        <time>2023-10-01T07:25:02Z</time>
      </trkpt>
      <trkpt lat="43.42206" lon="2.06575">
        <ele>633</ele>
        <time>2023-10-01T07:25:03Z</time>
      </trkpt>
      <trkpt lat="43.42207" lon="2.0657">
        <ele>633.2</ele>
        <time>2023-10-01T07:25:04Z</time>
      </trkpt>
      <trkpt lat="43.42207" lon="2.06565">
        <ele>633.4</ele>
        <time>2023-10-01T07:25:05Z</time>
      </trkpt>
      <trkpt lat="43.42207" lon="2.06561">
        <ele>633.8</ele>
        <time>2023-10-01T07:25:06Z</time>
      </trkpt>
      <trkpt lat="43.42206" lon="2.06557">
        <ele>634.2</ele>
        <time>2023-10-01T07:25:07Z</time>
      </trkpt>
      <trkpt lat="43.42206" lon="2.06552">
        <ele>634.6</ele>
        <time>2023-10-01T07:25:08Z</time>
      </trkpt>
      <trkpt lat="43.42206" lon="2.06548">
        <ele>635</ele>
        <time>2023-10-01T07:25:09Z</time>
      </trkpt>
      <trkpt lat="43.42207" lon="2.06543">
        <ele>635.2</ele>
        <time>2023-10-01T07:25:10Z</time>
      </trkpt>
      <trkpt lat="43.4221" lon="2.06523">
        <ele>636</ele>
        <time>2023-10-01T07:25:14Z</time>
      </trkpt>
      <trkpt lat="43.42209" lon="2.06517">
        <ele>636</ele>
        <time>2023-10-01T07:25:15Z</time>
      </trkpt>
      <trkpt lat="43.4221" lon="2.06512">
        <ele>636.2</ele>
        <time>2023-10-01T07:25:16Z</time>
      </trkpt>
      <trkpt lat="43.42211" lon="2.06507">
        <ele>636.2</ele>
        <time>2023-10-01T07:25:17Z</time>
      </trkpt>
      <trkpt lat="43.42214" lon="2.06503">
        <ele>636.2</ele>
        <time>2023-10-01T07:25:18Z</time>
      </trkpt>
      <trkpt lat="43.42216" lon="2.06501">
        <ele>636.4</ele>
        <time>2023-10-01T07:25:19Z</time>
      </trkpt>
      <trkpt lat="43.4222" lon="2.06498">
        <ele>636.4</ele>
        <time>2023-10-01T07:25:20Z</time>
      </trkpt>
      <trkpt lat="43.42223" lon="2.06496">
        <ele>636.4</ele>
        <time>2023-10-01T07:25:21Z</time>
      </trkpt>
      <trkpt lat="43.42227" lon="2.06493">
        <ele>636.4</ele>
        <time>2023-10-01T07:25:22Z</time>
      </trkpt>
      <trkpt lat="43.42232" lon="2.0649">
        <ele>636.4</ele>
        <time>2023-10-01T07:25:23Z</time>
      </trkpt>
      <trkpt lat="43.4224" lon="2.06486">
        <ele>636.4</ele>
        <time>2023-10-01T07:25:24Z</time>
      </trkpt>
      <trkpt lat="43.42246" lon="2.06482">
        <ele>636.4</ele>
        <time>2023-10-01T07:25:25Z</time>
      </trkpt>
      <trkpt lat="43.42252" lon="2.06478">
        <ele>636</ele>
        <time>2023-10-01T07:25:26Z</time>
      </trkpt>
      <trkpt lat="43.42258" lon="2.06475">
        <ele>635.6</ele>
        <time>2023-10-01T07:25:27Z</time>
      </trkpt>
      <trkpt lat="43.42263" lon="2.06474">
        <ele>634.8</ele>
        <time>2023-10-01T07:25:28Z</time>
      </trkpt>
      <trkpt lat="43.42271" lon="2.06473">
        <ele>634.4</ele>
        <time>2023-10-01T07:25:29Z</time>
      </trkpt>
      <trkpt lat="43.42282" lon="2.06472">
        <ele>633.2</ele>
        <time>2023-10-01T07:25:30Z</time>
      </trkpt>
      <trkpt lat="43.4229" lon="2.06474">
        <ele>632.6</ele>
        <time>2023-10-01T07:25:31Z</time>
      </trkpt>
      <trkpt lat="43.42295" lon="2.06471">
        <ele>631.8</ele>
        <time>2023-10-01T07:25:32Z</time>
      </trkpt>
      <trkpt lat="43.42302" lon="2.06467">
        <ele>631.4</ele>
        <time>2023-10-01T07:25:33Z</time>
      </trkpt>
      <trkpt lat="43.4231" lon="2.06464">
        <ele>630.4</ele>
        <time>2023-10-01T07:25:34Z</time>
      </trkpt>
      <trkpt lat="43.42318" lon="2.06459">
        <ele>629.2</ele>
        <time>2023-10-01T07:25:35Z</time>
      </trkpt>
      <trkpt lat="43.4232" lon="2.06461">
        <ele>628.8</ele>
        <time>2023-10-01T07:25:36Z</time>
      </trkpt>
      <trkpt lat="43.42321" lon="2.06464">
        <ele>627.8</ele>
        <time>2023-10-01T07:25:37Z</time>
      </trkpt>
      <trkpt lat="43.42322" lon="2.06468">
        <ele>627.6</ele>
        <time>2023-10-01T07:25:38Z</time>
      </trkpt>
      <trkpt lat="43.42326" lon="2.06481">
        <ele>627</ele>
        <time>2023-10-01T07:25:40Z</time>
      </trkpt>
      <trkpt lat="43.42325" lon="2.0649">
        <ele>626.6</ele>
        <time>2023-10-01T07:25:41Z</time>
      </trkpt>
      <trkpt lat="43.42324" lon="2.06497">
        <ele>626</ele>
        <time>2023-10-01T07:25:42Z</time>
      </trkpt>
      <trkpt lat="43.42322" lon="2.06503">
        <ele>625.2</ele>
        <time>2023-10-01T07:25:43Z</time>
      </trkpt>
      <trkpt lat="43.42321" lon="2.0651">
        <ele>624.4</ele>
        <time>2023-10-01T07:25:44Z</time>
      </trkpt>
      <trkpt lat="43.4232" lon="2.06516">
        <ele>623.8</ele>
        <time>2023-10-01T07:25:45Z</time>
      </trkpt>
      <trkpt lat="43.42322" lon="2.06524">
        <ele>622.6</ele>
        <time>2023-10-01T07:25:46Z</time>
      </trkpt>
      <trkpt lat="43.42324" lon="2.06531">
        <ele>622.2</ele>
        <time>2023-10-01T07:25:47Z</time>
      </trkpt>
      <trkpt lat="43.42328" lon="2.06536">
        <ele>621.2</ele>
        <time>2023-10-01T07:25:48Z</time>
      </trkpt>
      <trkpt lat="43.42337" lon="2.06538">
        <ele>620</ele>
        <time>2023-10-01T07:25:50Z</time>
      </trkpt>
      <trkpt lat="43.42344" lon="2.06529">
        <ele>618.6</ele>
        <time>2023-10-01T07:25:52Z</time>
      </trkpt>
      <trkpt lat="43.42348" lon="2.06522">
        <ele>617.8</ele>
        <time>2023-10-01T07:25:53Z</time>
      </trkpt>
      <trkpt lat="43.4235" lon="2.06517">
        <ele>617.6</ele>
        <time>2023-10-01T07:25:54Z</time>
      </trkpt>
      <trkpt lat="43.42353" lon="2.0651">
        <ele>616.4</ele>
        <time>2023-10-01T07:25:55Z</time>
      </trkpt>
      <trkpt lat="43.42358" lon="2.06495">
        <ele>615.6</ele>
        <time>2023-10-01T07:25:57Z</time>
      </trkpt>
      <trkpt lat="43.42359" lon="2.06488">
        <ele>615.4</ele>
        <time>2023-10-01T07:25:58Z</time>
      </trkpt>
      <trkpt lat="43.4236" lon="2.06484">
        <ele>615.2</ele>
        <time>2023-10-01T07:25:59Z</time>
      </trkpt>
      <trkpt lat="43.42362" lon="2.0648">
        <ele>615</ele>
        <time>2023-10-01T07:26:00Z</time>
      </trkpt>
      <trkpt lat="43.42362" lon="2.06479">
        <ele>614.8</ele>
        <time>2023-10-01T07:26:01Z</time>
      </trkpt>
      <trkpt lat="43.42362" lon="2.06479">
        <ele>614.8</ele>
        <time>2023-10-01T07:26:02Z</time>
      </trkpt>
      <trkpt lat="43.42363" lon="2.06489">
        <ele>614.6</ele>
        <time>2023-10-01T07:26:11Z</time>
      </trkpt>
      <trkpt lat="43.42364" lon="2.06494">
        <ele>614.6</ele>
        <time>2023-10-01T07:26:13Z</time>
      </trkpt>
      <trkpt lat="43.42365" lon="2.06496">
        <ele>614.4</ele>
        <time>2023-10-01T07:26:14Z</time>
      </trkpt>
      <trkpt lat="43.4237" lon="2.06497">
        <ele>614.2</ele>
        <time>2023-10-01T07:26:16Z</time>
      </trkpt>
      <trkpt lat="43.42372" lon="2.06496">
        <ele>614.2</ele>
        <time>2023-10-01T07:26:17Z</time>
      </trkpt>
      <trkpt lat="43.42375" lon="2.06495">
        <ele>614</ele>
        <time>2023-10-01T07:26:18Z</time>
      </trkpt>
      <trkpt lat="43.42378" lon="2.06495">
        <ele>614</ele>
        <time>2023-10-01T07:26:19Z</time>
      </trkpt>
      <trkpt lat="43.42383" lon="2.06495">
        <ele>613.6</ele>
        <time>2023-10-01T07:26:21Z</time>
      </trkpt>
      <trkpt lat="43.42385" lon="2.06494">
        <ele>613</ele>
        <time>2023-10-01T07:26:22Z</time>
      </trkpt>
      <trkpt lat="43.42387" lon="2.06494">
        <ele>612.2</ele>
        <time>2023-10-01T07:26:23Z</time>
      </trkpt>
      <trkpt lat="43.42388" lon="2.06492">
        <ele>611.6</ele>
        <time>2023-10-01T07:26:24Z</time>
      </trkpt>
      <trkpt lat="43.4239" lon="2.06489">
        <ele>610.2</ele>
        <time>2023-10-01T07:26:25Z</time>
      </trkpt>
      <trkpt lat="43.42393" lon="2.06486">
        <ele>609.8</ele>
        <time>2023-10-01T07:26:26Z</time>
      </trkpt>
      <trkpt lat="43.42396" lon="2.06483">
        <ele>608.4</ele>
        <time>2023-10-01T07:26:27Z</time>
      </trkpt>
      <trkpt lat="43.42404" lon="2.06478">
        <ele>607</ele>
        <time>2023-10-01T07:26:29Z</time>
      </trkpt>
      <trkpt lat="43.42407" lon="2.06476">
        <ele>606</ele>
        <time>2023-10-01T07:26:30Z</time>
      </trkpt>
      <trkpt lat="43.42409" lon="2.06475">
        <ele>605.8</ele>
        <time>2023-10-01T07:26:31Z</time>
      </trkpt>
      <trkpt lat="43.42412" lon="2.06476">
        <ele>605</ele>
        <time>2023-10-01T07:26:32Z</time>
      </trkpt>
      <trkpt lat="43.42413" lon="2.06478">
        <ele>604.2</ele>
        <time>2023-10-01T07:26:33Z</time>
      </trkpt>
      <trkpt lat="43.42414" lon="2.06481">
        <ele>603</ele>
        <time>2023-10-01T07:26:34Z</time>
      </trkpt>
      <trkpt lat="43.42418" lon="2.06494">
        <ele>601.2</ele>
        <time>2023-10-01T07:26:37Z</time>
      </trkpt>
      <trkpt lat="43.42419" lon="2.06495">
        <ele>600.8</ele>
        <time>2023-10-01T07:26:38Z</time>
      </trkpt>
      <trkpt lat="43.4242" lon="2.06494">
        <ele>600.4</ele>
        <time>2023-10-01T07:26:39Z</time>
      </trkpt>
      <trkpt lat="43.42422" lon="2.06494">
        <ele>600.2</ele>
        <time>2023-10-01T07:26:40Z</time>
      </trkpt>
      <trkpt lat="43.42424" lon="2.06493">
        <ele>600</ele>
        <time>2023-10-01T07:26:41Z</time>
      </trkpt>
      <trkpt lat="43.42426" lon="2.06492">
        <ele>599.8</ele>
        <time>2023-10-01T07:26:42Z</time>
      </trkpt>
      <trkpt lat="43.42427" lon="2.0649">
        <ele>599.2</ele>
        <time>2023-10-01T07:26:43Z</time>
      </trkpt>
      <trkpt lat="43.4243" lon="2.06489">
        <ele>599</ele>
        <time>2023-10-01T07:26:44Z</time>
      </trkpt>
      <trkpt lat="43.42433" lon="2.06489">
        <ele>598.8</ele>
        <time>2023-10-01T07:26:45Z</time>
      </trkpt>
      <trkpt lat="43.42436" lon="2.06487">
        <ele>598.2</ele>
        <time>2023-10-01T07:26:46Z</time>
      </trkpt>
      <trkpt lat="43.42443" lon="2.06485">
        <ele>597.6</ele>
        <time>2023-10-01T07:26:48Z</time>
      </trkpt>
      <trkpt lat="43.42447" lon="2.06487">
        <ele>597.4</ele>
        <time>2023-10-01T07:26:49Z</time>
      </trkpt>
      <trkpt lat="43.42451" lon="2.0649">
        <ele>596.4</ele>
        <time>2023-10-01T07:26:50Z</time>
      </trkpt>
      <trkpt lat="43.42454" lon="2.06493">
        <ele>595.8</ele>
        <time>2023-10-01T07:26:51Z</time>
      </trkpt>
      <trkpt lat="43.42458" lon="2.06494">
        <ele>594.6</ele>
        <time>2023-10-01T07:26:52Z</time>
      </trkpt>
      <trkpt lat="43.42463" lon="2.06494">
        <ele>593.8</ele>
        <time>2023-10-01T07:26:53Z</time>
      </trkpt>
      <trkpt lat="43.4247" lon="2.06494">
        <ele>593.4</ele>
        <time>2023-10-01T07:26:54Z</time>
      </trkpt>
      <trkpt lat="43.42476" lon="2.06496">
        <ele>592.6</ele>
        <time>2023-10-01T07:26:55Z</time>
      </trkpt>
      <trkpt lat="43.42483" lon="2.065">
        <ele>592.4</ele>
        <time>2023-10-01T07:26:56Z</time>
      </trkpt>
      <trkpt lat="43.42489" lon="2.06503">
        <ele>592</ele>
        <time>2023-10-01T07:26:57Z</time>
      </trkpt>
      <trkpt lat="43.42495" lon="2.06506">
        <ele>591.8</ele>
        <time>2023-10-01T07:26:58Z</time>
      </trkpt>
      <trkpt lat="43.42501" lon="2.06507">
        <ele>591.6</ele>
        <time>2023-10-01T07:26:59Z</time>
      </trkpt>
      <trkpt lat="43.42506" lon="2.06508">
        <ele>591.4</ele>
        <time>2023-10-01T07:27:00Z</time>
      </trkpt>
      <trkpt lat="43.4251" lon="2.06509">
        <ele>591.8</ele>
        <time>2023-10-01T07:27:01Z</time>
      </trkpt>
      <trkpt lat="43.42514" lon="2.0651">
        <ele>592</ele>
        <time>2023-10-01T07:27:02Z</time>
      </trkpt>
      <trkpt lat="43.42519" lon="2.06509">
        <ele>592</ele>
        <time>2023-10-01T07:27:03Z</time>
      </trkpt>
      <trkpt lat="43.4253" lon="2.06506">
        <ele>592.2</ele>
        <time>2023-10-01T07:27:05Z</time>
      </trkpt>
      <trkpt lat="43.42535" lon="2.06506">
        <ele>592.4</ele>
        <time>2023-10-01T07:27:06Z</time>
      </trkpt>
      <trkpt lat="43.42545" lon="2.06503">
        <ele>593.2</ele>
        <time>2023-10-01T07:27:08Z</time>
      </trkpt>
      <trkpt lat="43.4255" lon="2.06501">
        <ele>593.8</ele>
        <time>2023-10-01T07:27:09Z</time>
      </trkpt>
      <trkpt lat="43.42559" lon="2.06497">
        <ele>595</ele>
        <time>2023-10-01T07:27:11Z</time>
      </trkpt>
      <trkpt lat="43.42563" lon="2.06496">
        <ele>595.2</ele>
        <time>2023-10-01T07:27:12Z</time>
      </trkpt>
      <trkpt lat="43.42573" lon="2.06491">
        <ele>596.2</ele>
        <time>2023-10-01T07:27:14Z</time>
      </trkpt>
      <trkpt lat="43.42578" lon="2.06489">
        <ele>597</ele>
        <time>2023-10-01T07:27:15Z</time>
      </trkpt>
      <trkpt lat="43.42582" lon="2.06486">
        <ele>597.4</ele>
        <time>2023-10-01T07:27:16Z</time>
      </trkpt>
      <trkpt lat="43.42586" lon="2.06484">
        <ele>597.6</ele>
        <time>2023-10-01T07:27:17Z</time>
      </trkpt>
      <trkpt lat="43.42599" lon="2.06471">
        <ele>598.6</ele>
        <time>2023-10-01T07:27:20Z</time>
      </trkpt>
      <trkpt lat="43.42603" lon="2.06469">
        <ele>598.6</ele>
        <time>2023-10-01T07:27:21Z</time>
      </trkpt>
      <trkpt lat="43.42608" lon="2.06468">
        <ele>599</ele>
        <time>2023-10-01T07:27:22Z</time>
      </trkpt>
      <trkpt lat="43.42612" lon="2.06468">
        <ele>599.2</ele>
        <time>2023-10-01T07:27:23Z</time>
      </trkpt>
      <trkpt lat="43.42616" lon="2.06467">
        <ele>599.4</ele>
        <time>2023-10-01T07:27:24Z</time>
      </trkpt>
      <trkpt lat="43.4262" lon="2.06466">
        <ele>599.6</ele>
        <time>2023-10-01T07:27:25Z</time>
      </trkpt>
      <trkpt lat="43.42625" lon="2.06466">
        <ele>599.6</ele>
        <time>2023-10-01T07:27:26Z</time>
      </trkpt>
      <trkpt lat="43.42628" lon="2.06466">
        <ele>599.8</ele>
        <time>2023-10-01T07:27:27Z</time>
      </trkpt>
      <trkpt lat="43.42632" lon="2.06466">
        <ele>599.8</ele>
        <time>2023-10-01T07:27:28Z</time>
      </trkpt>
      <trkpt lat="43.42635" lon="2.06467">
        <ele>600</ele>
        <time>2023-10-01T07:27:29Z</time>
      </trkpt>
      <trkpt lat="43.42639" lon="2.06469">
        <ele>600.2</ele>
        <time>2023-10-01T07:27:30Z</time>
      </trkpt>
      <trkpt lat="43.42642" lon="2.06471">
        <ele>600.8</ele>
        <time>2023-10-01T07:27:31Z</time>
      </trkpt>
      <trkpt lat="43.42645" lon="2.06473">
        <ele>601.6</ele>
        <time>2023-10-01T07:27:32Z</time>
      </trkpt>
      <trkpt lat="43.42649" lon="2.06475">
        <ele>602</ele>
        <time>2023-10-01T07:27:33Z</time>
      </trkpt>
      <trkpt lat="43.42652" lon="2.06478">
        <ele>602.4</ele>
        <time>2023-10-01T07:27:34Z</time>
      </trkpt>
      <trkpt lat="43.42655" lon="2.0648">
        <ele>602.6</ele>
        <time>2023-10-01T07:27:35Z</time>
      </trkpt>
      <trkpt lat="43.42658" lon="2.06482">
        <ele>603.2</ele>
        <time>2023-10-01T07:27:36Z</time>
      </trkpt>
      <trkpt lat="43.42661" lon="2.06484">
        <ele>603.6</ele>
        <time>2023-10-01T07:27:37Z</time>
      </trkpt>
      <trkpt lat="43.42664" lon="2.06485">
        <ele>604.4</ele>
        <time>2023-10-01T07:27:38Z</time>
      </trkpt>
      <trkpt lat="43.42666" lon="2.06487">
        <ele>605</ele>
        <time>2023-10-01T07:27:39Z</time>
      </trkpt>
      <trkpt lat="43.42667" lon="2.06489">
        <ele>605.2</ele>
        <time>2023-10-01T07:27:40Z</time>
      </trkpt>
      <trkpt lat="43.42667" lon="2.06491">
        <ele>605.4</ele>
        <time>2023-10-01T07:27:41Z</time>
      </trkpt>
      <trkpt lat="43.42666" lon="2.06492">
        <ele>605.6</ele>
        <time>2023-10-01T07:27:42Z</time>
      </trkpt>
      <trkpt lat="43.42664" lon="2.06492">
        <ele>606.2</ele>
        <time>2023-10-01T07:27:43Z</time>
      </trkpt>
      <trkpt lat="43.42661" lon="2.06492">
        <ele>606.6</ele>
        <time>2023-10-01T07:27:44Z</time>
      </trkpt>
      <trkpt lat="43.42658" lon="2.06493">
        <ele>607.2</ele>
        <time>2023-10-01T07:27:45Z</time>
      </trkpt>
      <trkpt lat="43.42656" lon="2.06493">
        <ele>607.4</ele>
        <time>2023-10-01T07:27:46Z</time>
      </trkpt>
      <trkpt lat="43.42652" lon="2.06494">
        <ele>607.4</ele>
        <time>2023-10-01T07:27:47Z</time>
      </trkpt>
      <trkpt lat="43.42649" lon="2.06496">
        <ele>607.6</ele>
        <time>2023-10-01T07:27:48Z</time>
      </trkpt>
      <trkpt lat="43.42645" lon="2.06498">
        <ele>607.8</ele>
        <time>2023-10-01T07:27:49Z</time>
      </trkpt>
      <trkpt lat="43.42642" lon="2.06499">
        <ele>608.4</ele>
        <time>2023-10-01T07:27:50Z</time>
      </trkpt>
      <trkpt lat="43.42639" lon="2.06502">
        <ele>608.8</ele>
        <time>2023-10-01T07:27:51Z</time>
      </trkpt>
      <trkpt lat="43.42635" lon="2.06504">
        <ele>609.4</ele>
        <time>2023-10-01T07:27:52Z</time>
      </trkpt>
      <trkpt lat="43.42632" lon="2.06507">
        <ele>609.6</ele>
        <time>2023-10-01T07:27:53Z</time>
      </trkpt>
      <trkpt lat="43.42629" lon="2.06509">
        <ele>610</ele>
        <time>2023-10-01T07:27:54Z</time>
      </trkpt>
      <trkpt lat="43.42626" lon="2.06512">
        <ele>610.2</ele>
        <time>2023-10-01T07:27:55Z</time>
      </trkpt>
      <trkpt lat="43.42622" lon="2.06515">
        <ele>610.6</ele>
        <time>2023-10-01T07:27:56Z</time>
      </trkpt>
      <trkpt lat="43.42619" lon="2.06519">
        <ele>611</ele>
        <time>2023-10-01T07:27:57Z</time>
      </trkpt>
      <trkpt lat="43.42616" lon="2.06523">
        <ele>611.4</ele>
        <time>2023-10-01T07:27:58Z</time>
      </trkpt>
      <trkpt lat="43.42613" lon="2.06526">
        <ele>612.2</ele>
        <time>2023-10-01T07:27:59Z</time>
      </trkpt>
      <trkpt lat="43.4261" lon="2.06531">
        <ele>612.6</ele>
        <time>2023-10-01T07:28:00Z</time>
      </trkpt>
      <trkpt lat="43.42607" lon="2.06536">
        <ele>613</ele>
        <time>2023-10-01T07:28:01Z</time>
      </trkpt>
      <trkpt lat="43.42604" lon="2.06539">
        <ele>613.6</ele>
        <time>2023-10-01T07:28:02Z</time>
      </trkpt>
      <trkpt lat="43.426" lon="2.06543">
        <ele>613.8</ele>
        <time>2023-10-01T07:28:03Z</time>
      </trkpt>
      <trkpt lat="43.42597" lon="2.06547">
        <ele>614.2</ele>
        <time>2023-10-01T07:28:04Z</time>
      </trkpt>
      <trkpt lat="43.42593" lon="2.06551">
        <ele>614.6</ele>
        <time>2023-10-01T07:28:05Z</time>
      </trkpt>
      <trkpt lat="43.4259" lon="2.06555">
        <ele>615</ele>
        <time>2023-10-01T07:28:06Z</time>
      </trkpt>
      <trkpt lat="43.42587" lon="2.06558">
        <ele>615.4</ele>
        <time>2023-10-01T07:28:07Z</time>
      </trkpt>
      <trkpt lat="43.42584" lon="2.06561">
        <ele>615.6</ele>
        <time>2023-10-01T07:28:08Z</time>
      </trkpt>
      <trkpt lat="43.42578" lon="2.06564">
        <ele>615.8</ele>
        <time>2023-10-01T07:28:09Z</time>
      </trkpt>
      <trkpt lat="43.42571" lon="2.06567">
        <ele>616.2</ele>
        <time>2023-10-01T07:28:10Z</time>
      </trkpt>
      <trkpt lat="43.42566" lon="2.06569">
        <ele>616.2</ele>
        <time>2023-10-01T07:28:11Z</time>
      </trkpt>
      <trkpt lat="43.42561" lon="2.06572">
        <ele>616.4</ele>
        <time>2023-10-01T07:28:12Z</time>
      </trkpt>
      <trkpt lat="43.42557" lon="2.06574">
        <ele>616.4</ele>
        <time>2023-10-01T07:28:13Z</time>
      </trkpt>
      <trkpt lat="43.42547" lon="2.06577">
        <ele>616.6</ele>
        <time>2023-10-01T07:28:14Z</time>
      </trkpt>
      <trkpt lat="43.42539" lon="2.0658">
        <ele>616.6</ele>
        <time>2023-10-01T07:28:15Z</time>
      </trkpt>
      <trkpt lat="43.42532" lon="2.06583">
        <ele>616.8</ele>
        <time>2023-10-01T07:28:16Z</time>
      </trkpt>
      <trkpt lat="43.42525" lon="2.06587">
        <ele>617</ele>
        <time>2023-10-01T07:28:17Z</time>
      </trkpt>
      <trkpt lat="43.4252" lon="2.0659">
        <ele>617.2</ele>
        <time>2023-10-01T07:28:18Z</time>
      </trkpt>
      <trkpt lat="43.42514" lon="2.06594">
        <ele>617.2</ele>
        <time>2023-10-01T07:28:19Z</time>
      </trkpt>
      <trkpt lat="43.4251" lon="2.06597">
        <ele>617.6</ele>
        <time>2023-10-01T07:28:20Z</time>
      </trkpt>
      <trkpt lat="43.42506" lon="2.06601">
        <ele>617.8</ele>
        <time>2023-10-01T07:28:21Z</time>
      </trkpt>
      <trkpt lat="43.42503" lon="2.06605">
        <ele>618</ele>
        <time>2023-10-01T07:28:22Z</time>
      </trkpt>
      <trkpt lat="43.42497" lon="2.06608">
        <ele>618</ele>
        <time>2023-10-01T07:28:23Z</time>
      </trkpt>
      <trkpt lat="43.42493" lon="2.0661">
        <ele>618.2</ele>
        <time>2023-10-01T07:28:24Z</time>
      </trkpt>
      <trkpt lat="43.42488" lon="2.06611">
        <ele>618.4</ele>
        <time>2023-10-01T07:28:25Z</time>
      </trkpt>
      <trkpt lat="43.42482" lon="2.06611">
        <ele>618.6</ele>
        <time>2023-10-01T07:28:26Z</time>
      </trkpt>
      <trkpt lat="43.42477" lon="2.06612">
        <ele>618.8</ele>
        <time>2023-10-01T07:28:27Z</time>
      </trkpt>
      <trkpt lat="43.42472" lon="2.06613">
        <ele>619</ele>
        <time>2023-10-01T07:28:28Z</time>
      </trkpt>
      <trkpt lat="43.42467" lon="2.06614">
        <ele>619.2</ele>
        <time>2023-10-01T07:28:29Z</time>
      </trkpt>
      <trkpt lat="43.42462" lon="2.06614">
        <ele>619.4</ele>
        <time>2023-10-01T07:28:30Z</time>
      </trkpt>
      <trkpt lat="43.42457" lon="2.06615">
        <ele>619.4</ele>
        <time>2023-10-01T07:28:31Z</time>
      </trkpt>
      <trkpt lat="43.42452" lon="2.06615">
        <ele>619.6</ele>
        <time>2023-10-01T07:28:32Z</time>
      </trkpt>
      <trkpt lat="43.42448" lon="2.06615">
        <ele>619.6</ele>
        <time>2023-10-01T07:28:33Z</time>
      </trkpt>
      <trkpt lat="43.42444" lon="2.06615">
        <ele>620</ele>
        <time>2023-10-01T07:28:34Z</time>
      </trkpt>
      <trkpt lat="43.4244" lon="2.06617">
        <ele>620.2</ele>
        <time>2023-10-01T07:28:35Z</time>
      </trkpt>
      <trkpt lat="43.42436" lon="2.06619">
        <ele>620.6</ele>
        <time>2023-10-01T07:28:36Z</time>
      </trkpt>
      <trkpt lat="43.42431" lon="2.06621">
        <ele>620.8</ele>
        <time>2023-10-01T07:28:37Z</time>
      </trkpt>
      <trkpt lat="43.42426" lon="2.06622">
        <ele>621.2</ele>
        <time>2023-10-01T07:28:38Z</time>
      </trkpt>
      <trkpt lat="43.42422" lon="2.06623">
        <ele>621.2</ele>
        <time>2023-10-01T07:28:39Z</time>
      </trkpt>
      <trkpt lat="43.42417" lon="2.06624">
        <ele>621.8</ele>
        <time>2023-10-01T07:28:40Z</time>
      </trkpt>
      <trkpt lat="43.42414" lon="2.06626">
        <ele>622</ele>
        <time>2023-10-01T07:28:41Z</time>
      </trkpt>
      <trkpt lat="43.42412" lon="2.06628">
        <ele>622.2</ele>
        <time>2023-10-01T07:28:42Z</time>
      </trkpt>
      <trkpt lat="43.42411" lon="2.06631">
        <ele>622.4</ele>
        <time>2023-10-01T07:28:43Z</time>
      </trkpt>
      <trkpt lat="43.42408" lon="2.06634">
        <ele>622.4</ele>
        <time>2023-10-01T07:28:44Z</time>
      </trkpt>
      <trkpt lat="43.42405" lon="2.06638">
        <ele>622.6</ele>
        <time>2023-10-01T07:28:45Z</time>
      </trkpt>
      <trkpt lat="43.42402" lon="2.06642">
        <ele>622.6</ele>
        <time>2023-10-01T07:28:46Z</time>
      </trkpt>
      <trkpt lat="43.42399" lon="2.06647">
        <ele>622.8</ele>
        <time>2023-10-01T07:28:47Z</time>
      </trkpt>
      <trkpt lat="43.42396" lon="2.06651">
        <ele>622.8</ele>
        <time>2023-10-01T07:28:48Z</time>
      </trkpt>
      <trkpt lat="43.42394" lon="2.06655">
        <ele>622.8</ele>
        <time>2023-10-01T07:28:49Z</time>
      </trkpt>
      <trkpt lat="43.42393" lon="2.0666">
        <ele>623</ele>
        <time>2023-10-01T07:28:50Z</time>
      </trkpt>
      <trkpt lat="43.42394" lon="2.06666">
        <ele>623</ele>
        <time>2023-10-01T07:28:51Z</time>
      </trkpt>
      <trkpt lat="43.42395" lon="2.06673">
        <ele>623.2</ele>
        <time>2023-10-01T07:28:52Z</time>
      </trkpt>
      <trkpt lat="43.42394" lon="2.06679">
        <ele>623.2</ele>
        <time>2023-10-01T07:28:53Z</time>
      </trkpt>
      <trkpt lat="43.42394" lon="2.06685">
        <ele>623.4</ele>
        <time>2023-10-01T07:28:54Z</time>
      </trkpt>
      <trkpt lat="43.42393" lon="2.06691">
        <ele>623.6</ele>
        <time>2023-10-01T07:28:55Z</time>
      </trkpt>
      <trkpt lat="43.42389" lon="2.06696">
        <ele>623.6</ele>
        <time>2023-10-01T07:28:56Z</time>
      </trkpt>
      <trkpt lat="43.42384" lon="2.067">
        <ele>623.8</ele>
        <time>2023-10-01T07:28:57Z</time>
      </trkpt>
      <trkpt lat="43.42381" lon="2.06706">
        <ele>623.8</ele>
        <time>2023-10-01T07:28:58Z</time>
      </trkpt>
      <trkpt lat="43.42379" lon="2.0671">
        <ele>624.2</ele>
        <time>2023-10-01T07:28:59Z</time>
      </trkpt>
      <trkpt lat="43.42377" lon="2.06715">
        <ele>624.2</ele>
        <time>2023-10-01T07:29:00Z</time>
      </trkpt>
      <trkpt lat="43.42374" lon="2.06719">
        <ele>624.4</ele>
        <time>2023-10-01T07:29:01Z</time>
      </trkpt>
      <trkpt lat="43.42369" lon="2.06725">
        <ele>624.6</ele>
        <time>2023-10-01T07:29:02Z</time>
      </trkpt>
      <trkpt lat="43.42364" lon="2.0673">
        <ele>624.8</ele>
        <time>2023-10-01T07:29:03Z</time>
      </trkpt>
      <trkpt lat="43.42358" lon="2.06738">
        <ele>625</ele>
        <time>2023-10-01T07:29:04Z</time>
      </trkpt>
      <trkpt lat="43.42353" lon="2.06744">
        <ele>625</ele>
        <time>2023-10-01T07:29:05Z</time>
      </trkpt>
      <trkpt lat="43.42346" lon="2.0675">
        <ele>625.2</ele>
        <time>2023-10-01T07:29:06Z</time>
      </trkpt>
      <trkpt lat="43.42342" lon="2.06757">
        <ele>625.2</ele>
        <time>2023-10-01T07:29:07Z</time>
      </trkpt>
      <trkpt lat="43.42338" lon="2.06764">
        <ele>625.6</ele>
        <time>2023-10-01T07:29:08Z</time>
      </trkpt>
      <trkpt lat="43.42335" lon="2.0677">
        <ele>625.6</ele>
        <time>2023-10-01T07:29:09Z</time>
      </trkpt>
      <trkpt lat="43.42334" lon="2.06775">
        <ele>625.8</ele>
        <time>2023-10-01T07:29:10Z</time>
      </trkpt>
      <trkpt lat="43.42333" lon="2.06777">
        <ele>625.8</ele>
        <time>2023-10-01T07:29:11Z</time>
      </trkpt>
      <trkpt lat="43.42334" lon="2.06778">
        <ele>626</ele>
        <time>2023-10-01T07:29:12Z</time>
      </trkpt>
      <trkpt lat="43.42334" lon="2.06778">
        <ele>626.2</ele>
        <time>2023-10-01T07:29:13Z</time>
      </trkpt>
      <trkpt lat="43.42334" lon="2.06778">
        <ele>626.4</ele>
        <time>2023-10-01T07:29:14Z</time>
      </trkpt>
      <trkpt lat="43.42334" lon="2.06778">
        <ele>626.6</ele>
        <time>2023-10-01T07:29:15Z</time>
      </trkpt>
      <trkpt lat="43.42333" lon="2.06791">
        <ele>627.2</ele>
        <time>2023-10-01T07:29:20Z</time>
      </trkpt>
      <trkpt lat="43.42332" lon="2.06795">
        <ele>627.2</ele>
        <time>2023-10-01T07:29:21Z</time>
      </trkpt>
      <trkpt lat="43.42332" lon="2.06801">
        <ele>627.4</ele>
        <time>2023-10-01T07:29:22Z</time>
      </trkpt>
      <trkpt lat="43.42332" lon="2.06807">
        <ele>627.6</ele>
        <time>2023-10-01T07:29:23Z</time>
      </trkpt>
      <trkpt lat="43.42332" lon="2.06813">
        <ele>627.6</ele>
        <time>2023-10-01T07:29:24Z</time>
      </trkpt>
      <trkpt lat="43.42333" lon="2.0682">
        <ele>627.6</ele>
        <time>2023-10-01T07:29:25Z</time>
      </trkpt>
      <trkpt lat="43.42332" lon="2.06826">
        <ele>627.8</ele>
        <time>2023-10-01T07:29:26Z</time>
      </trkpt>
      <trkpt lat="43.42332" lon="2.06833">
        <ele>628</ele>
        <time>2023-10-01T07:29:27Z</time>
      </trkpt>
      <trkpt lat="43.42332" lon="2.06839">
        <ele>628</ele>
        <time>2023-10-01T07:29:28Z</time>
      </trkpt>
      <trkpt lat="43.42331" lon="2.06845">
        <ele>628.2</ele>
        <time>2023-10-01T07:29:29Z</time>
      </trkpt>
      <trkpt lat="43.42332" lon="2.06852">
        <ele>628.4</ele>
        <time>2023-10-01T07:29:30Z</time>
      </trkpt>
      <trkpt lat="43.42331" lon="2.06858">
        <ele>629</ele>
        <time>2023-10-01T07:29:31Z</time>
      </trkpt>
      <trkpt lat="43.42331" lon="2.06863">
        <ele>629.2</ele>
        <time>2023-10-01T07:29:32Z</time>
      </trkpt>
      <trkpt lat="43.42328" lon="2.06867">
        <ele>629.8</ele>
        <time>2023-10-01T07:29:33Z</time>
      </trkpt>
      <trkpt lat="43.42326" lon="2.06874">
        <ele>630.2</ele>
        <time>2023-10-01T07:29:34Z</time>
      </trkpt>
      <trkpt lat="43.42324" lon="2.06883">
        <ele>630.2</ele>
        <time>2023-10-01T07:29:35Z</time>
      </trkpt>
      <trkpt lat="43.42323" lon="2.0689">
        <ele>630.8</ele>
        <time>2023-10-01T07:29:36Z</time>
      </trkpt>
      <trkpt lat="43.42323" lon="2.06894">
        <ele>631.2</ele>
        <time>2023-10-01T07:29:37Z</time>
      </trkpt>
      <trkpt lat="43.42323" lon="2.06899">
        <ele>631.4</ele>
        <time>2023-10-01T07:29:38Z</time>
      </trkpt>
      <trkpt lat="43.42323" lon="2.06906">
        <ele>631.8</ele>
        <time>2023-10-01T07:29:39Z</time>
      </trkpt>
      <trkpt lat="43.42324" lon="2.06912">
        <ele>632</ele>
        <time>2023-10-01T07:29:40Z</time>
      </trkpt>
      <trkpt lat="43.42324" lon="2.06919">
        <ele>632.2</ele>
        <time>2023-10-01T07:29:41Z</time>
      </trkpt>
      <trkpt lat="43.42325" lon="2.06926">
        <ele>632.4</ele>
        <time>2023-10-01T07:29:42Z</time>
      </trkpt>
      <trkpt lat="43.42327" lon="2.06932">
        <ele>632.6</ele>
        <time>2023-10-01T07:29:43Z</time>
      </trkpt>
      <trkpt lat="43.42328" lon="2.06937">
        <ele>632.6</ele>
        <time>2023-10-01T07:29:44Z</time>
      </trkpt>
      <trkpt lat="43.42329" lon="2.0694">
        <ele>632.8</ele>
        <time>2023-10-01T07:29:45Z</time>
      </trkpt>
      <trkpt lat="43.42327" lon="2.06944">
        <ele>632.8</ele>
        <time>2023-10-01T07:29:46Z</time>
      </trkpt>
      <trkpt lat="43.42326" lon="2.06948">
        <ele>633</ele>
        <time>2023-10-01T07:29:47Z</time>
      </trkpt>
      <trkpt lat="43.42327" lon="2.06952">
        <ele>633</ele>
        <time>2023-10-01T07:29:48Z</time>
      </trkpt>
      <trkpt lat="43.42327" lon="2.06958">
        <ele>633.2</ele>
        <time>2023-10-01T07:29:49Z</time>
      </trkpt>
      <trkpt lat="43.42327" lon="2.06961">
        <ele>633.4</ele>
        <time>2023-10-01T07:29:50Z</time>
      </trkpt>
      <trkpt lat="43.42326" lon="2.06965">
        <ele>633.4</ele>
        <time>2023-10-01T07:29:51Z</time>
      </trkpt>
      <trkpt lat="43.42326" lon="2.06971">
        <ele>633.6</ele>
        <time>2023-10-01T07:29:52Z</time>
      </trkpt>
      <trkpt lat="43.42326" lon="2.06976">
        <ele>633.6</ele>
        <time>2023-10-01T07:29:53Z</time>
      </trkpt>
      <trkpt lat="43.42326" lon="2.06981">
        <ele>634</ele>
        <time>2023-10-01T07:29:54Z</time>
      </trkpt>
      <trkpt lat="43.42326" lon="2.06987">
        <ele>634</ele>
        <time>2023-10-01T07:29:55Z</time>
      </trkpt>
      <trkpt lat="43.42327" lon="2.06994">
        <ele>634.4</ele>
        <time>2023-10-01T07:29:56Z</time>
      </trkpt>
      <trkpt lat="43.42329" lon="2.06999">
        <ele>634.4</ele>
        <time>2023-10-01T07:29:57Z</time>
      </trkpt>
      <trkpt lat="43.4233" lon="2.07004">
        <ele>634.6</ele>
        <time>2023-10-01T07:29:58Z</time>
      </trkpt>
      <trkpt lat="43.42328" lon="2.07009">
        <ele>635</ele>
        <time>2023-10-01T07:29:59Z</time>
      </trkpt>
      <trkpt lat="43.42322" lon="2.07015">
        <ele>635.2</ele>
        <time>2023-10-01T07:30:00Z</time>
      </trkpt>
      <trkpt lat="43.4232" lon="2.0702">
        <ele>635.6</ele>
        <time>2023-10-01T07:30:01Z</time>
      </trkpt>
      <trkpt lat="43.42317" lon="2.07025">
        <ele>635.8</ele>
        <time>2023-10-01T07:30:02Z</time>
      </trkpt>
      <trkpt lat="43.42314" lon="2.07028">
        <ele>636.2</ele>
        <time>2023-10-01T07:30:03Z</time>
      </trkpt>
      <trkpt lat="43.42313" lon="2.07032">
        <ele>636.4</ele>
        <time>2023-10-01T07:30:04Z</time>
      </trkpt>
      <trkpt lat="43.42311" lon="2.07037">
        <ele>636.4</ele>
        <time>2023-10-01T07:30:05Z</time>
      </trkpt>
      <trkpt lat="43.4231" lon="2.07041">
        <ele>636.6</ele>
        <time>2023-10-01T07:30:06Z</time>
      </trkpt>
      <trkpt lat="43.42308" lon="2.07046">
        <ele>636.8</ele>
        <time>2023-10-01T07:30:07Z</time>
      </trkpt>
      <trkpt lat="43.42307" lon="2.0705">
        <ele>637</ele>
        <time>2023-10-01T07:30:08Z</time>
      </trkpt>
      <trkpt lat="43.42307" lon="2.07056">
        <ele>637.2</ele>
        <time>2023-10-01T07:30:09Z</time>
      </trkpt>
      <trkpt lat="43.42307" lon="2.07062">
        <ele>637.6</ele>
        <time>2023-10-01T07:30:10Z</time>
      </trkpt>
      <trkpt lat="43.42307" lon="2.07067">
        <ele>637.8</ele>
        <time>2023-10-01T07:30:11Z</time>
      </trkpt>
      <trkpt lat="43.42305" lon="2.07072">
        <ele>638</ele>
        <time>2023-10-01T07:30:12Z</time>
      </trkpt>
      <trkpt lat="43.42303" lon="2.07078">
        <ele>638.2</ele>
        <time>2023-10-01T07:30:13Z</time>
      </trkpt>
      <trkpt lat="43.42302" lon="2.07082">
        <ele>638.2</ele>
        <time>2023-10-01T07:30:14Z</time>
      </trkpt>
      <trkpt lat="43.423" lon="2.07084">
        <ele>638.6</ele>
        <time>2023-10-01T07:30:15Z</time>
      </trkpt>
      <trkpt lat="43.42296" lon="2.07087">
        <ele>638.8</ele>
        <time>2023-10-01T07:30:16Z</time>
      </trkpt>
      <trkpt lat="43.42292" lon="2.0709">
        <ele>639</ele>
        <time>2023-10-01T07:30:17Z</time>
      </trkpt>
      <trkpt lat="43.4229" lon="2.07093">
        <ele>639.2</ele>
        <time>2023-10-01T07:30:18Z</time>
      </trkpt>
      <trkpt lat="43.42286" lon="2.07096">
        <ele>639.4</ele>
        <time>2023-10-01T07:30:19Z</time>
      </trkpt>
      <trkpt lat="43.42283" lon="2.07099">
        <ele>639.6</ele>
        <time>2023-10-01T07:30:20Z</time>
      </trkpt>
      <trkpt lat="43.4228" lon="2.07104">
        <ele>639.6</ele>
        <time>2023-10-01T07:30:21Z</time>
      </trkpt>
      <trkpt lat="43.42277" lon="2.07109">
        <ele>639.8</ele>
        <time>2023-10-01T07:30:22Z</time>
      </trkpt>
      <trkpt lat="43.42274" lon="2.07113">
        <ele>639.8</ele>
        <time>2023-10-01T07:30:23Z</time>
      </trkpt>
      <trkpt lat="43.42269" lon="2.07115">
        <ele>639.8</ele>
        <time>2023-10-01T07:30:24Z</time>
      </trkpt>
      <trkpt lat="43.42264" lon="2.07118">
        <ele>639.8</ele>
        <time>2023-10-01T07:30:25Z</time>
      </trkpt>
      <trkpt lat="43.42258" lon="2.0712">
        <ele>640</ele>
        <time>2023-10-01T07:30:26Z</time>
      </trkpt>
      <trkpt lat="43.42256" lon="2.07124">
        <ele>640.2</ele>
        <time>2023-10-01T07:30:27Z</time>
      </trkpt>
      <trkpt lat="43.42255" lon="2.07127">
        <ele>640.2</ele>
        <time>2023-10-01T07:30:28Z</time>
      </trkpt>
      <trkpt lat="43.42254" lon="2.07128">
        <ele>640.2</ele>
        <time>2023-10-01T07:30:29Z</time>
      </trkpt>
      <trkpt lat="43.42254" lon="2.07128">
        <ele>640.4</ele>
        <time>2023-10-01T07:30:30Z</time>
      </trkpt>
      <trkpt lat="43.42254" lon="2.07128">
        <ele>640.4</ele>
        <time>2023-10-01T07:30:31Z</time>
      </trkpt>
      <trkpt lat="43.42261" lon="2.07121">
        <ele>640.4</ele>
        <time>2023-10-01T07:31:47Z</time>
      </trkpt>
      <trkpt lat="43.42262" lon="2.07119">
        <ele>640.4</ele>
        <time>2023-10-01T07:31:48Z</time>
      </trkpt>
      <trkpt lat="43.42263" lon="2.07117">
        <ele>640</ele>
        <time>2023-10-01T07:31:49Z</time>
      </trkpt>
      <trkpt lat="43.42264" lon="2.07115">
        <ele>640</ele>
        <time>2023-10-01T07:31:50Z</time>
      </trkpt>
      <trkpt lat="43.42265" lon="2.07112">
        <ele>640.2</ele>
        <time>2023-10-01T07:31:51Z</time>
      </trkpt>
      <trkpt lat="43.42267" lon="2.0711">
        <ele>640</ele>
        <time>2023-10-01T07:31:52Z</time>
      </trkpt>
      <trkpt lat="43.42269" lon="2.07109">
        <ele>640</ele>
        <time>2023-10-01T07:31:53Z</time>
      </trkpt>
      <trkpt lat="43.42272" lon="2.07106">
        <ele>640</ele>
        <time>2023-10-01T07:31:54Z</time>
      </trkpt>
      <trkpt lat="43.42275" lon="2.07103">
        <ele>640</ele>
        <time>2023-10-01T07:31:55Z</time>
      </trkpt>
      <trkpt lat="43.42277" lon="2.07101">
        <ele>640</ele>
        <time>2023-10-01T07:31:56Z</time>
      </trkpt>
      <trkpt lat="43.42278" lon="2.07099">
        <ele>639.8</ele>
        <time>2023-10-01T07:31:57Z</time>
      </trkpt>
      <trkpt lat="43.42279" lon="2.07098">
        <ele>639.8</ele>
        <time>2023-10-01T07:31:58Z</time>
      </trkpt>
      <trkpt lat="43.4228" lon="2.07096">
        <ele>639.8</ele>
        <time>2023-10-01T07:31:59Z</time>
      </trkpt>
      <trkpt lat="43.4228" lon="2.07095">
        <ele>639.8</ele>
        <time>2023-10-01T07:32:00Z</time>
      </trkpt>
      <trkpt lat="43.4228" lon="2.07095">
        <ele>639.4</ele>
        <time>2023-10-01T07:32:02Z</time>
      </trkpt>
      <trkpt lat="43.42277" lon="2.07118">
        <ele>640.6</ele>
        <time>2023-10-01T07:33:49Z</time>
      </trkpt>
      <trkpt lat="43.42276" lon="2.07122">
        <ele>640.6</ele>
        <time>2023-10-01T07:33:50Z</time>
      </trkpt>
      <trkpt lat="43.42274" lon="2.07126">
        <ele>640.6</ele>
        <time>2023-10-01T07:33:51Z</time>
      </trkpt>
      <trkpt lat="43.42273" lon="2.07131">
        <ele>640.8</ele>
        <time>2023-10-01T07:33:52Z</time>
      </trkpt>
      <trkpt lat="43.42271" lon="2.07137">
        <ele>640.8</ele>
        <time>2023-10-01T07:33:53Z</time>
      </trkpt>
      <trkpt lat="43.42267" lon="2.07148">
        <ele>641</ele>
        <time>2023-10-01T07:33:55Z</time>
      </trkpt>
      <trkpt lat="43.42265" lon="2.07156">
        <ele>641.2</ele>
        <time>2023-10-01T07:33:57Z</time>
      </trkpt>
      <trkpt lat="43.42264" lon="2.07159">
        <ele>641.4</ele>
        <time>2023-10-01T07:33:58Z</time>
      </trkpt>
      <trkpt lat="43.42263" lon="2.07164">
        <ele>641.6</ele>
        <time>2023-10-01T07:33:59Z</time>
      </trkpt>
      <trkpt lat="43.42261" lon="2.07168">
        <ele>641.8</ele>
        <time>2023-10-01T07:34:00Z</time>
      </trkpt>
      <trkpt lat="43.4226" lon="2.07174">
        <ele>641.8</ele>
        <time>2023-10-01T07:34:01Z</time>
      </trkpt>
      <trkpt lat="43.4226" lon="2.0718">
        <ele>641.8</ele>
        <time>2023-10-01T07:34:02Z</time>
      </trkpt>
      <trkpt lat="43.4226" lon="2.07184">
        <ele>642</ele>
        <time>2023-10-01T07:34:03Z</time>
      </trkpt>
      <trkpt lat="43.42261" lon="2.07187">
        <ele>642</ele>
        <time>2023-10-01T07:34:04Z</time>
      </trkpt>
      <trkpt lat="43.42263" lon="2.07188">
        <ele>642.2</ele>
        <time>2023-10-01T07:34:05Z</time>
      </trkpt>
      <trkpt lat="43.42265" lon="2.07187">
        <ele>642.2</ele>
        <time>2023-10-01T07:34:06Z</time>
      </trkpt>
      <trkpt lat="43.42272" lon="2.07179">
        <ele>642.8</ele>
        <time>2023-10-01T07:34:09Z</time>
      </trkpt>
      <trkpt lat="43.42276" lon="2.07176">
        <ele>642.8</ele>
        <time>2023-10-01T07:34:10Z</time>
      </trkpt>
      <trkpt lat="43.42292" lon="2.0716">
        <ele>643</ele>
        <time>2023-10-01T07:34:13Z</time>
      </trkpt>
      <trkpt lat="43.42305" lon="2.0715">
        <ele>643.2</ele>
        <time>2023-10-01T07:34:15Z</time>
      </trkpt>
      <trkpt lat="43.42317" lon="2.07138">
        <ele>643.4</ele>
        <time>2023-10-01T07:34:17Z</time>
      </trkpt>
      <trkpt lat="43.42327" lon="2.07127">
        <ele>643.4</ele>
        <time>2023-10-01T07:34:19Z</time>
      </trkpt>
      <trkpt lat="43.42334" lon="2.07122">
        <ele>643.4</ele>
        <time>2023-10-01T07:34:20Z</time>
      </trkpt>
      <trkpt lat="43.42341" lon="2.07117">
        <ele>643.4</ele>
        <time>2023-10-01T07:34:21Z</time>
      </trkpt>
      <trkpt lat="43.42365" lon="2.07101">
        <ele>643.6</ele>
        <time>2023-10-01T07:34:24Z</time>
      </trkpt>
      <trkpt lat="43.42372" lon="2.07097">
        <ele>643.6</ele>
        <time>2023-10-01T07:34:25Z</time>
      </trkpt>
      <trkpt lat="43.42379" lon="2.07094">
        <ele>643.6</ele>
        <time>2023-10-01T07:34:26Z</time>
      </trkpt>
      <trkpt lat="43.42384" lon="2.07092">
        <ele>643.8</ele>
        <time>2023-10-01T07:34:27Z</time>
      </trkpt>
      <trkpt lat="43.42387" lon="2.07089">
        <ele>643.8</ele>
        <time>2023-10-01T07:34:28Z</time>
      </trkpt>
      <trkpt lat="43.42391" lon="2.07087">
        <ele>644</ele>
        <time>2023-10-01T07:34:29Z</time>
      </trkpt>
      <trkpt lat="43.42396" lon="2.07086">
        <ele>644.2</ele>
        <time>2023-10-01T07:34:30Z</time>
      </trkpt>
      <trkpt lat="43.424" lon="2.07084">
        <ele>644.2</ele>
        <time>2023-10-01T07:34:31Z</time>
      </trkpt>
      <trkpt lat="43.42403" lon="2.07082">
        <ele>644.2</ele>
        <time>2023-10-01T07:34:32Z</time>
      </trkpt>
      <trkpt lat="43.42408" lon="2.07079">
        <ele>644.4</ele>
        <time>2023-10-01T07:34:33Z</time>
      </trkpt>
      <trkpt lat="43.42412" lon="2.07076">
        <ele>644.4</ele>
        <time>2023-10-01T07:34:34Z</time>
      </trkpt>
      <trkpt lat="43.42416" lon="2.07071">
        <ele>644.4</ele>
        <time>2023-10-01T07:34:35Z</time>
      </trkpt>
      <trkpt lat="43.42417" lon="2.07066">
        <ele>644.8</ele>
        <time>2023-10-01T07:34:36Z</time>
      </trkpt>
      <trkpt lat="43.42419" lon="2.0706">
        <ele>644.8</ele>
        <time>2023-10-01T07:34:37Z</time>
      </trkpt>
      <trkpt lat="43.42422" lon="2.07052">
        <ele>645.2</ele>
        <time>2023-10-01T07:34:38Z</time>
      </trkpt>
      <trkpt lat="43.42426" lon="2.07045">
        <ele>645.4</ele>
        <time>2023-10-01T07:34:39Z</time>
      </trkpt>
      <trkpt lat="43.42437" lon="2.07024">
        <ele>646.4</ele>
        <time>2023-10-01T07:34:42Z</time>
      </trkpt>
      <trkpt lat="43.4244" lon="2.07017">
        <ele>646.8</ele>
        <time>2023-10-01T07:34:43Z</time>
      </trkpt>
      <trkpt lat="43.42442" lon="2.0701">
        <ele>647</ele>
        <time>2023-10-01T07:34:44Z</time>
      </trkpt>
      <trkpt lat="43.42445" lon="2.07005">
        <ele>647.4</ele>
        <time>2023-10-01T07:34:45Z</time>
      </trkpt>
      <trkpt lat="43.42448" lon="2.07001">
        <ele>647.6</ele>
        <time>2023-10-01T07:34:46Z</time>
      </trkpt>
      <trkpt lat="43.42452" lon="2.06997">
        <ele>648</ele>
        <time>2023-10-01T07:34:47Z</time>
      </trkpt>
      <trkpt lat="43.42454" lon="2.06993">
        <ele>648</ele>
        <time>2023-10-01T07:34:48Z</time>
      </trkpt>
      <trkpt lat="43.42457" lon="2.06991">
        <ele>648.4</ele>
        <time>2023-10-01T07:34:49Z</time>
      </trkpt>
      <trkpt lat="43.4246" lon="2.06989">
        <ele>648.6</ele>
        <time>2023-10-01T07:34:50Z</time>
      </trkpt>
      <trkpt lat="43.42463" lon="2.06988">
        <ele>649</ele>
        <time>2023-10-01T07:34:51Z</time>
      </trkpt>
      <trkpt lat="43.42465" lon="2.06987">
        <ele>649.2</ele>
        <time>2023-10-01T07:34:52Z</time>
      </trkpt>
      <trkpt lat="43.42469" lon="2.06984">
        <ele>649.4</ele>
        <time>2023-10-01T07:34:53Z</time>
      </trkpt>
      <trkpt lat="43.42472" lon="2.06982">
        <ele>649.6</ele>
        <time>2023-10-01T07:34:54Z</time>
      </trkpt>
      <trkpt lat="43.42475" lon="2.0698">
        <ele>649.6</ele>
        <time>2023-10-01T07:34:55Z</time>
      </trkpt>
      <trkpt lat="43.42476" lon="2.06978">
        <ele>649.8</ele>
        <time>2023-10-01T07:34:56Z</time>
      </trkpt>
      <trkpt lat="43.42477" lon="2.06977">
        <ele>650</ele>
        <time>2023-10-01T07:34:57Z</time>
      </trkpt>
      <trkpt lat="43.42477" lon="2.06974">
        <ele>650.2</ele>
        <time>2023-10-01T07:34:58Z</time>
      </trkpt>
      <trkpt lat="43.42477" lon="2.06971">
        <ele>650.4</ele>
        <time>2023-10-01T07:34:59Z</time>
      </trkpt>
      <trkpt lat="43.42478" lon="2.06968">
        <ele>650.4</ele>
        <time>2023-10-01T07:35:00Z</time>
      </trkpt>
      <trkpt lat="43.42478" lon="2.06965">
        <ele>650.6</ele>
        <time>2023-10-01T07:35:01Z</time>
      </trkpt>
      <trkpt lat="43.42478" lon="2.06961">
        <ele>650.6</ele>
        <time>2023-10-01T07:35:02Z</time>
      </trkpt>
      <trkpt lat="43.42479" lon="2.06957">
        <ele>650.8</ele>
        <time>2023-10-01T07:35:03Z</time>
      </trkpt>
      <trkpt lat="43.42479" lon="2.06954">
        <ele>651</ele>
        <time>2023-10-01T07:35:04Z</time>
      </trkpt>
      <trkpt lat="43.42481" lon="2.0695">
        <ele>651</ele>
        <time>2023-10-01T07:35:05Z</time>
      </trkpt>
      <trkpt lat="43.42484" lon="2.06947">
        <ele>651</ele>
        <time>2023-10-01T07:35:06Z</time>
      </trkpt>
      <trkpt lat="43.42488" lon="2.06945">
        <ele>651</ele>
        <time>2023-10-01T07:35:07Z</time>
      </trkpt>
      <trkpt lat="43.42492" lon="2.06942">
        <ele>651</ele>
        <time>2023-10-01T07:35:08Z</time>
      </trkpt>
      <trkpt lat="43.42495" lon="2.06939">
        <ele>651</ele>
        <time>2023-10-01T07:35:09Z</time>
      </trkpt>
      <trkpt lat="43.42497" lon="2.06936">
        <ele>651</ele>
        <time>2023-10-01T07:35:10Z</time>
      </trkpt>
      <trkpt lat="43.425" lon="2.06933">
        <ele>650.8</ele>
        <time>2023-10-01T07:35:11Z</time>
      </trkpt>
      <trkpt lat="43.42505" lon="2.06929">
        <ele>650.8</ele>
        <time>2023-10-01T07:35:12Z</time>
      </trkpt>
      <trkpt lat="43.4251" lon="2.06925">
        <ele>650.6</ele>
        <time>2023-10-01T07:35:13Z</time>
      </trkpt>
      <trkpt lat="43.42513" lon="2.06922">
        <ele>650.4</ele>
        <time>2023-10-01T07:35:14Z</time>
      </trkpt>
      <trkpt lat="43.42517" lon="2.06919">
        <ele>650.4</ele>
        <time>2023-10-01T07:35:15Z</time>
      </trkpt>
      <trkpt lat="43.42521" lon="2.06916">
        <ele>650.4</ele>
        <time>2023-10-01T07:35:16Z</time>
      </trkpt>
      <trkpt lat="43.42524" lon="2.06912">
        <ele>650.2</ele>
        <time>2023-10-01T07:35:17Z</time>
      </trkpt>
      <trkpt lat="43.42527" lon="2.06908">
        <ele>650.2</ele>
        <time>2023-10-01T07:35:18Z</time>
      </trkpt>
      <trkpt lat="43.42529" lon="2.06905">
        <ele>649.8</ele>
        <time>2023-10-01T07:35:19Z</time>
      </trkpt>
      <trkpt lat="43.42534" lon="2.06897">
        <ele>649.2</ele>
        <time>2023-10-01T07:35:21Z</time>
      </trkpt>
      <trkpt lat="43.42537" lon="2.06893">
        <ele>648.8</ele>
        <time>2023-10-01T07:35:22Z</time>
      </trkpt>
      <trkpt lat="43.42541" lon="2.06888">
        <ele>648.6</ele>
        <time>2023-10-01T07:35:23Z</time>
      </trkpt>
      <trkpt lat="43.42545" lon="2.06884">
        <ele>648.4</ele>
        <time>2023-10-01T07:35:24Z</time>
      </trkpt>
      <trkpt lat="43.42548" lon="2.06881">
        <ele>648.2</ele>
        <time>2023-10-01T07:35:25Z</time>
      </trkpt>
      <trkpt lat="43.42556" lon="2.06871">
        <ele>647.6</ele>
        <time>2023-10-01T07:35:27Z</time>
      </trkpt>
      <trkpt lat="43.42561" lon="2.06868">
        <ele>647</ele>
        <time>2023-10-01T07:35:28Z</time>
      </trkpt>
      <trkpt lat="43.42563" lon="2.06864">
        <ele>646.6</ele>
        <time>2023-10-01T07:35:29Z</time>
      </trkpt>
      <trkpt lat="43.42564" lon="2.0686">
        <ele>646.2</ele>
        <time>2023-10-01T07:35:30Z</time>
      </trkpt>
      <trkpt lat="43.42567" lon="2.06856">
        <ele>645.6</ele>
        <time>2023-10-01T07:35:31Z</time>
      </trkpt>
      <trkpt lat="43.4257" lon="2.06851">
        <ele>645.4</ele>
        <time>2023-10-01T07:35:32Z</time>
      </trkpt>
      <trkpt lat="43.42575" lon="2.06841">
        <ele>644.6</ele>
        <time>2023-10-01T07:35:34Z</time>
      </trkpt>
      <trkpt lat="43.42579" lon="2.06836">
        <ele>644.2</ele>
        <time>2023-10-01T07:35:35Z</time>
      </trkpt>
      <trkpt lat="43.42582" lon="2.06832">
        <ele>643.8</ele>
        <time>2023-10-01T07:35:36Z</time>
      </trkpt>
      <trkpt lat="43.42587" lon="2.06824">
        <ele>643.4</ele>
        <time>2023-10-01T07:35:38Z</time>
      </trkpt>
      <trkpt lat="43.4259" lon="2.0682">
        <ele>643.2</ele>
        <time>2023-10-01T07:35:39Z</time>
      </trkpt>
      <trkpt lat="43.42595" lon="2.06816">
        <ele>642.6</ele>
        <time>2023-10-01T07:35:40Z</time>
      </trkpt>
      <trkpt lat="43.42598" lon="2.06814">
        <ele>642.4</ele>
        <time>2023-10-01T07:35:41Z</time>
      </trkpt>
      <trkpt lat="43.42603" lon="2.06811">
        <ele>642</ele>
        <time>2023-10-01T07:35:42Z</time>
      </trkpt>
      <trkpt lat="43.42604" lon="2.06808">
        <ele>641</ele>
        <time>2023-10-01T07:35:43Z</time>
      </trkpt>
      <trkpt lat="43.42606" lon="2.06805">
        <ele>640.8</ele>
        <time>2023-10-01T07:35:44Z</time>
      </trkpt>
      <trkpt lat="43.42609" lon="2.06802">
        <ele>639.2</ele>
        <time>2023-10-01T07:35:45Z</time>
      </trkpt>
      <trkpt lat="43.4261" lon="2.06797">
        <ele>638.8</ele>
        <time>2023-10-01T07:35:46Z</time>
      </trkpt>
      <trkpt lat="43.42612" lon="2.06792">
        <ele>638.2</ele>
        <time>2023-10-01T07:35:47Z</time>
      </trkpt>
      <trkpt lat="43.42614" lon="2.06786">
        <ele>638</ele>
        <time>2023-10-01T07:35:48Z</time>
      </trkpt>
      <trkpt lat="43.42617" lon="2.06781">
        <ele>637.4</ele>
        <time>2023-10-01T07:35:49Z</time>
      </trkpt>
      <trkpt lat="43.42619" lon="2.06776">
        <ele>636.8</ele>
        <time>2023-10-01T07:35:50Z</time>
      </trkpt>
      <trkpt lat="43.42621" lon="2.06772">
        <ele>636</ele>
        <time>2023-10-01T07:35:51Z</time>
      </trkpt>
      <trkpt lat="43.42625" lon="2.06768">
        <ele>635.6</ele>
        <time>2023-10-01T07:35:52Z</time>
      </trkpt>
      <trkpt lat="43.42627" lon="2.06764">
        <ele>635.2</ele>
        <time>2023-10-01T07:35:53Z</time>
      </trkpt>
      <trkpt lat="43.42628" lon="2.06761">
        <ele>634.8</ele>
        <time>2023-10-01T07:35:54Z</time>
      </trkpt>
      <trkpt lat="43.42629" lon="2.06757">
        <ele>634.4</ele>
        <time>2023-10-01T07:35:55Z</time>
      </trkpt>
      <trkpt lat="43.42628" lon="2.06754">
        <ele>634</ele>
        <time>2023-10-01T07:35:56Z</time>
      </trkpt>
      <trkpt lat="43.4263" lon="2.06751">
        <ele>633.6</ele>
        <time>2023-10-01T07:35:57Z</time>
      </trkpt>
      <trkpt lat="43.42633" lon="2.06748">
        <ele>633</ele>
        <time>2023-10-01T07:35:58Z</time>
      </trkpt>
      <trkpt lat="43.42635" lon="2.06744">
        <ele>632.4</ele>
        <time>2023-10-01T07:35:59Z</time>
      </trkpt>
      <trkpt lat="43.4264" lon="2.06737">
        <ele>631.8</ele>
        <time>2023-10-01T07:36:01Z</time>
      </trkpt>
      <trkpt lat="43.42641" lon="2.06735">
        <ele>631.6</ele>
        <time>2023-10-01T07:36:02Z</time>
      </trkpt>
      <trkpt lat="43.42643" lon="2.06731">
        <ele>631</ele>
        <time>2023-10-01T07:36:03Z</time>
      </trkpt>
      <trkpt lat="43.42644" lon="2.06727">
        <ele>630.8</ele>
        <time>2023-10-01T07:36:04Z</time>
      </trkpt>
      <trkpt lat="43.42645" lon="2.06726">
        <ele>630.4</ele>
        <time>2023-10-01T07:36:05Z</time>
      </trkpt>
      <trkpt lat="43.42646" lon="2.06723">
        <ele>630</ele>
        <time>2023-10-01T07:36:06Z</time>
      </trkpt>
      <trkpt lat="43.42651" lon="2.06714">
        <ele>629.2</ele>
        <time>2023-10-01T07:36:08Z</time>
      </trkpt>
      <trkpt lat="43.4266" lon="2.06695">
        <ele>628</ele>
        <time>2023-10-01T07:36:11Z</time>
      </trkpt>
      <trkpt lat="43.42663" lon="2.06691">
        <ele>627.4</ele>
        <time>2023-10-01T07:36:12Z</time>
      </trkpt>
      <trkpt lat="43.42667" lon="2.06686">
        <ele>626.6</ele>
        <time>2023-10-01T07:36:13Z</time>
      </trkpt>
      <trkpt lat="43.42673" lon="2.06677">
        <ele>625</ele>
        <time>2023-10-01T07:36:15Z</time>
      </trkpt>
      <trkpt lat="43.42676" lon="2.06672">
        <ele>624.4</ele>
        <time>2023-10-01T07:36:16Z</time>
      </trkpt>
      <trkpt lat="43.42679" lon="2.06669">
        <ele>623.4</ele>
        <time>2023-10-01T07:36:17Z</time>
      </trkpt>
      <trkpt lat="43.42684" lon="2.06665">
        <ele>623</ele>
        <time>2023-10-01T07:36:18Z</time>
      </trkpt>
      <trkpt lat="43.42688" lon="2.06661">
        <ele>622.2</ele>
        <time>2023-10-01T07:36:19Z</time>
      </trkpt>
      <trkpt lat="43.42691" lon="2.06656">
        <ele>621</ele>
        <time>2023-10-01T07:36:20Z</time>
      </trkpt>
      <trkpt lat="43.42692" lon="2.06651">
        <ele>620.6</ele>
        <time>2023-10-01T07:36:21Z</time>
      </trkpt>
      <trkpt lat="43.42696" lon="2.06645">
        <ele>619.4</ele>
        <time>2023-10-01T07:36:22Z</time>
      </trkpt>
      <trkpt lat="43.42698" lon="2.06634">
        <ele>617.6</ele>
        <time>2023-10-01T07:36:24Z</time>
      </trkpt>
      <trkpt lat="43.42699" lon="2.06623">
        <ele>616.8</ele>
        <time>2023-10-01T07:36:26Z</time>
      </trkpt>
      <trkpt lat="43.427" lon="2.06619">
        <ele>616.6</ele>
        <time>2023-10-01T07:36:27Z</time>
      </trkpt>
      <trkpt lat="43.42701" lon="2.06616">
        <ele>616.2</ele>
        <time>2023-10-01T07:36:28Z</time>
      </trkpt>
      <trkpt lat="43.42703" lon="2.06614">
        <ele>615.6</ele>
        <time>2023-10-01T07:36:29Z</time>
      </trkpt>
      <trkpt lat="43.42704" lon="2.06611">
        <ele>615.6</ele>
        <time>2023-10-01T07:36:30Z</time>
      </trkpt>
      <trkpt lat="43.42705" lon="2.06607">
        <ele>615.4</ele>
        <time>2023-10-01T07:36:31Z</time>
      </trkpt>
      <trkpt lat="43.42709" lon="2.06604">
        <ele>615.2</ele>
        <time>2023-10-01T07:36:32Z</time>
      </trkpt>
      <trkpt lat="43.42714" lon="2.06601">
        <ele>615.2</ele>
        <time>2023-10-01T07:36:33Z</time>
      </trkpt>
      <trkpt lat="43.42725" lon="2.06598">
        <ele>614.2</ele>
        <time>2023-10-01T07:36:35Z</time>
      </trkpt>
      <trkpt lat="43.4273" lon="2.06596">
        <ele>613.4</ele>
        <time>2023-10-01T07:36:36Z</time>
      </trkpt>
      <trkpt lat="43.42738" lon="2.06593">
        <ele>612.8</ele>
        <time>2023-10-01T07:36:37Z</time>
      </trkpt>
      <trkpt lat="43.42744" lon="2.0659">
        <ele>611.8</ele>
        <time>2023-10-01T07:36:38Z</time>
      </trkpt>
      <trkpt lat="43.42749" lon="2.06586">
        <ele>611.4</ele>
        <time>2023-10-01T07:36:39Z</time>
      </trkpt>
      <trkpt lat="43.42755" lon="2.06582">
        <ele>610.4</ele>
        <time>2023-10-01T07:36:40Z</time>
      </trkpt>
      <trkpt lat="43.42759" lon="2.06578">
        <ele>610</ele>
        <time>2023-10-01T07:36:41Z</time>
      </trkpt>
      <trkpt lat="43.42763" lon="2.06573">
        <ele>609</ele>
        <time>2023-10-01T07:36:42Z</time>
      </trkpt>
      <trkpt lat="43.42765" lon="2.06568">
        <ele>607.8</ele>
        <time>2023-10-01T07:36:43Z</time>
      </trkpt>
      <trkpt lat="43.42767" lon="2.06564">
        <ele>607.2</ele>
        <time>2023-10-01T07:36:44Z</time>
      </trkpt>
      <trkpt lat="43.42772" lon="2.0656">
        <ele>606.2</ele>
        <time>2023-10-01T07:36:45Z</time>
      </trkpt>
      <trkpt lat="43.42778" lon="2.06556">
        <ele>605.6</ele>
        <time>2023-10-01T07:36:46Z</time>
      </trkpt>
      <trkpt lat="43.42785" lon="2.06551">
        <ele>605</ele>
        <time>2023-10-01T07:36:47Z</time>
      </trkpt>
      <trkpt lat="43.42788" lon="2.06548">
        <ele>604.4</ele>
        <time>2023-10-01T07:36:48Z</time>
      </trkpt>
      <trkpt lat="43.4279" lon="2.06545">
        <ele>603.8</ele>
        <time>2023-10-01T07:36:49Z</time>
      </trkpt>
      <trkpt lat="43.42791" lon="2.06542">
        <ele>603.4</ele>
        <time>2023-10-01T07:36:50Z</time>
      </trkpt>
      <trkpt lat="43.42792" lon="2.06539">
        <ele>603.2</ele>
        <time>2023-10-01T07:36:51Z</time>
      </trkpt>
      <trkpt lat="43.42795" lon="2.06535">
        <ele>602.6</ele>
        <time>2023-10-01T07:36:52Z</time>
      </trkpt>
      <trkpt lat="43.428" lon="2.0653">
        <ele>602.4</ele>
        <time>2023-10-01T07:36:53Z</time>
      </trkpt>
      <trkpt lat="43.42809" lon="2.06524">
        <ele>601.4</ele>
        <time>2023-10-01T07:36:55Z</time>
      </trkpt>
      <trkpt lat="43.42823" lon="2.06515">
        <ele>600.2</ele>
        <time>2023-10-01T07:36:58Z</time>
      </trkpt>
      <trkpt lat="43.42831" lon="2.06504">
        <ele>599.2</ele>
        <time>2023-10-01T07:37:00Z</time>
      </trkpt>
      <trkpt lat="43.42832" lon="2.06499">
        <ele>598.4</ele>
        <time>2023-10-01T07:37:01Z</time>
      </trkpt>
      <trkpt lat="43.42835" lon="2.06497">
        <ele>597.6</ele>
        <time>2023-10-01T07:37:02Z</time>
      </trkpt>
      <trkpt lat="43.42835" lon="2.06496">
        <ele>597</ele>
        <time>2023-10-01T07:37:03Z</time>
      </trkpt>
      <trkpt lat="43.42837" lon="2.06495">
        <ele>596.6</ele>
        <time>2023-10-01T07:37:04Z</time>
      </trkpt>
      <trkpt lat="43.42843" lon="2.06493">
        <ele>595.8</ele>
        <time>2023-10-01T07:37:06Z</time>
      </trkpt>
      <trkpt lat="43.42849" lon="2.06489">
        <ele>595.2</ele>
        <time>2023-10-01T07:37:08Z</time>
      </trkpt>
      <trkpt lat="43.42851" lon="2.06487">
        <ele>594.8</ele>
        <time>2023-10-01T07:37:09Z</time>
      </trkpt>
      <trkpt lat="43.42852" lon="2.06485">
        <ele>594.2</ele>
        <time>2023-10-01T07:37:10Z</time>
      </trkpt>
      <trkpt lat="43.42851" lon="2.06482">
        <ele>593.8</ele>
        <time>2023-10-01T07:37:11Z</time>
      </trkpt>
      <trkpt lat="43.42851" lon="2.06479">
        <ele>593.4</ele>
        <time>2023-10-01T07:37:12Z</time>
      </trkpt>
      <trkpt lat="43.4285" lon="2.06477">
        <ele>593.2</ele>
        <time>2023-10-01T07:37:13Z</time>
      </trkpt>
      <trkpt lat="43.42849" lon="2.06475">
        <ele>593.2</ele>
        <time>2023-10-01T07:37:14Z</time>
      </trkpt>
      <trkpt lat="43.42847" lon="2.06473">
        <ele>593</ele>
        <time>2023-10-01T07:37:15Z</time>
      </trkpt>
      <trkpt lat="43.42845" lon="2.06471">
        <ele>592.8</ele>
        <time>2023-10-01T07:37:16Z</time>
      </trkpt>
      <trkpt lat="43.42844" lon="2.0647">
        <ele>592.6</ele>
        <time>2023-10-01T07:37:17Z</time>
      </trkpt>
      <trkpt lat="43.42842" lon="2.0647">
        <ele>592.6</ele>
        <time>2023-10-01T07:37:18Z</time>
      </trkpt>
      <trkpt lat="43.42838" lon="2.0647">
        <ele>592.4</ele>
        <time>2023-10-01T07:37:19Z</time>
      </trkpt>
      <trkpt lat="43.42833" lon="2.06469">
        <ele>592.4</ele>
        <time>2023-10-01T07:37:20Z</time>
      </trkpt>
      <trkpt lat="43.42827" lon="2.06468">
        <ele>592.6</ele>
        <time>2023-10-01T07:37:21Z</time>
      </trkpt>
      <trkpt lat="43.42814" lon="2.06468">
        <ele>593.4</ele>
        <time>2023-10-01T07:37:23Z</time>
      </trkpt>
      <trkpt lat="43.42807" lon="2.06468">
        <ele>594</ele>
        <time>2023-10-01T07:37:24Z</time>
      </trkpt>
      <trkpt lat="43.42801" lon="2.0647">
        <ele>594.2</ele>
        <time>2023-10-01T07:37:25Z</time>
      </trkpt>
      <trkpt lat="43.42797" lon="2.06471">
        <ele>595</ele>
        <time>2023-10-01T07:37:26Z</time>
      </trkpt>
      <trkpt lat="43.42793" lon="2.06472">
        <ele>595.4</ele>
        <time>2023-10-01T07:37:27Z</time>
      </trkpt>
      <trkpt lat="43.42784" lon="2.06476">
        <ele>597.4</ele>
        <time>2023-10-01T07:37:29Z</time>
      </trkpt>
      <trkpt lat="43.42781" lon="2.06479">
        <ele>598.2</ele>
        <time>2023-10-01T07:37:30Z</time>
      </trkpt>
      <trkpt lat="43.42777" lon="2.06482">
        <ele>599</ele>
        <time>2023-10-01T07:37:31Z</time>
      </trkpt>
      <trkpt lat="43.42774" lon="2.06484">
        <ele>599.4</ele>
        <time>2023-10-01T07:37:32Z</time>
      </trkpt>
      <trkpt lat="43.4277" lon="2.06487">
        <ele>600.2</ele>
        <time>2023-10-01T07:37:33Z</time>
      </trkpt>
      <trkpt lat="43.42766" lon="2.06491">
        <ele>600.6</ele>
        <time>2023-10-01T07:37:34Z</time>
      </trkpt>
      <trkpt lat="43.42761" lon="2.06495">
        <ele>601.6</ele>
        <time>2023-10-01T07:37:35Z</time>
      </trkpt>
      <trkpt lat="43.42757" lon="2.06499">
        <ele>602.4</ele>
        <time>2023-10-01T07:37:36Z</time>
      </trkpt>
      <trkpt lat="43.42744" lon="2.06503">
        <ele>602.8</ele>
        <time>2023-10-01T07:37:37Z</time>
      </trkpt>
      <trkpt lat="43.42742" lon="2.06507">
        <ele>603.6</ele>
        <time>2023-10-01T07:37:38Z</time>
      </trkpt>
      <trkpt lat="43.4274" lon="2.06511">
        <ele>604</ele>
        <time>2023-10-01T07:37:39Z</time>
      </trkpt>
      <trkpt lat="43.42738" lon="2.06514">
        <ele>604.4</ele>
        <time>2023-10-01T07:37:40Z</time>
      </trkpt>
      <trkpt lat="43.42736" lon="2.06518">
        <ele>604.6</ele>
        <time>2023-10-01T07:37:41Z</time>
      </trkpt>
      <trkpt lat="43.42735" lon="2.06523">
        <ele>605.2</ele>
        <time>2023-10-01T07:37:42Z</time>
      </trkpt>
      <trkpt lat="43.42733" lon="2.06528">
        <ele>605.6</ele>
        <time>2023-10-01T07:37:43Z</time>
      </trkpt>
      <trkpt lat="43.4273" lon="2.06533">
        <ele>605.8</ele>
        <time>2023-10-01T07:37:44Z</time>
      </trkpt>
      <trkpt lat="43.42728" lon="2.06536">
        <ele>606.2</ele>
        <time>2023-10-01T07:37:45Z</time>
      </trkpt>
      <trkpt lat="43.42727" lon="2.0654">
        <ele>606.6</ele>
        <time>2023-10-01T07:37:46Z</time>
      </trkpt>
      <trkpt lat="43.42725" lon="2.06545">
        <ele>607</ele>
        <time>2023-10-01T07:37:47Z</time>
      </trkpt>
      <trkpt lat="43.42722" lon="2.06549">
        <ele>607.4</ele>
        <time>2023-10-01T07:37:48Z</time>
      </trkpt>
      <trkpt lat="43.42721" lon="2.06553">
        <ele>608.2</ele>
        <time>2023-10-01T07:37:49Z</time>
      </trkpt>
      <trkpt lat="43.42717" lon="2.06556">
        <ele>608.8</ele>
        <time>2023-10-01T07:37:50Z</time>
      </trkpt>
      <trkpt lat="43.42713" lon="2.06558">
        <ele>609</ele>
        <time>2023-10-01T07:37:51Z</time>
      </trkpt>
      <trkpt lat="43.42711" lon="2.0656">
        <ele>609.8</ele>
        <time>2023-10-01T07:37:52Z</time>
      </trkpt>
      <trkpt lat="43.42709" lon="2.06563">
        <ele>610.4</ele>
        <time>2023-10-01T07:37:53Z</time>
      </trkpt>
      <trkpt lat="43.42708" lon="2.06566">
        <ele>611.2</ele>
        <time>2023-10-01T07:37:54Z</time>
      </trkpt>
      <trkpt lat="43.42706" lon="2.06569">
        <ele>611.4</ele>
        <time>2023-10-01T07:37:55Z</time>
      </trkpt>
      <trkpt lat="43.42702" lon="2.06573">
        <ele>612.2</ele>
        <time>2023-10-01T07:37:56Z</time>
      </trkpt>
      <trkpt lat="43.42699" lon="2.06576">
        <ele>612.6</ele>
        <time>2023-10-01T07:37:57Z</time>
      </trkpt>
      <trkpt lat="43.42694" lon="2.06578">
        <ele>613.4</ele>
        <time>2023-10-01T07:37:58Z</time>
      </trkpt>
      <trkpt lat="43.42689" lon="2.06582">
        <ele>614.2</ele>
        <time>2023-10-01T07:37:59Z</time>
      </trkpt>
      <trkpt lat="43.42687" lon="2.06585">
        <ele>614.4</ele>
        <time>2023-10-01T07:38:00Z</time>
      </trkpt>
      <trkpt lat="43.42686" lon="2.06588">
        <ele>615</ele>
        <time>2023-10-01T07:38:01Z</time>
      </trkpt>
      <trkpt lat="43.42685" lon="2.06591">
        <ele>615.2</ele>
        <time>2023-10-01T07:38:02Z</time>
      </trkpt>
      <trkpt lat="43.42684" lon="2.06595">
        <ele>616.4</ele>
        <time>2023-10-01T07:38:03Z</time>
      </trkpt>
      <trkpt lat="43.42682" lon="2.06599">
        <ele>616.8</ele>
        <time>2023-10-01T07:38:04Z</time>
      </trkpt>
      <trkpt lat="43.4268" lon="2.06603">
        <ele>618</ele>
        <time>2023-10-01T07:38:05Z</time>
      </trkpt>
      <trkpt lat="43.42677" lon="2.06608">
        <ele>619.2</ele>
        <time>2023-10-01T07:38:06Z</time>
      </trkpt>
      <trkpt lat="43.42674" lon="2.06611">
        <ele>619.6</ele>
        <time>2023-10-01T07:38:07Z</time>
      </trkpt>
      <trkpt lat="43.42668" lon="2.06613">
        <ele>620.4</ele>
        <time>2023-10-01T07:38:08Z</time>
      </trkpt>
      <trkpt lat="43.42664" lon="2.06615">
        <ele>621.2</ele>
        <time>2023-10-01T07:38:09Z</time>
      </trkpt>
      <trkpt lat="43.42661" lon="2.06618">
        <ele>622.2</ele>
        <time>2023-10-01T07:38:10Z</time>
      </trkpt>
      <trkpt lat="43.4266" lon="2.06623">
        <ele>622.4</ele>
        <time>2023-10-01T07:38:11Z</time>
      </trkpt>
      <trkpt lat="43.42659" lon="2.06628">
        <ele>623.2</ele>
        <time>2023-10-01T07:38:12Z</time>
      </trkpt>
      <trkpt lat="43.42658" lon="2.06632">
        <ele>623.6</ele>
        <time>2023-10-01T07:38:13Z</time>
      </trkpt>
      <trkpt lat="43.42658" lon="2.06637">
        <ele>624</ele>
        <time>2023-10-01T07:38:14Z</time>
      </trkpt>
      <trkpt lat="43.42657" lon="2.06642">
        <ele>625.2</ele>
        <time>2023-10-01T07:38:15Z</time>
      </trkpt>
      <trkpt lat="43.4265" lon="2.06646">
        <ele>625.6</ele>
        <time>2023-10-01T07:38:16Z</time>
      </trkpt>
      <trkpt lat="43.42648" lon="2.06649">
        <ele>626.2</ele>
        <time>2023-10-01T07:38:17Z</time>
      </trkpt>
      <trkpt lat="43.42644" lon="2.06653">
        <ele>626.4</ele>
        <time>2023-10-01T07:38:18Z</time>
      </trkpt>
      <trkpt lat="43.42642" lon="2.06657">
        <ele>627</ele>
        <time>2023-10-01T07:38:19Z</time>
      </trkpt>
      <trkpt lat="43.42639" lon="2.06661">
        <ele>627.6</ele>
        <time>2023-10-01T07:38:20Z</time>
      </trkpt>
      <trkpt lat="43.42634" lon="2.06664">
        <ele>628</ele>
        <time>2023-10-01T07:38:21Z</time>
      </trkpt>
      <trkpt lat="43.42631" lon="2.06666">
        <ele>629</ele>
        <time>2023-10-01T07:38:22Z</time>
      </trkpt>
      <trkpt lat="43.42628" lon="2.06669">
        <ele>629.4</ele>
        <time>2023-10-01T07:38:23Z</time>
      </trkpt>
      <trkpt lat="43.42626" lon="2.06672">
        <ele>630.4</ele>
        <time>2023-10-01T07:38:24Z</time>
      </trkpt>
      <trkpt lat="43.42624" lon="2.06677">
        <ele>631</ele>
        <time>2023-10-01T07:38:25Z</time>
      </trkpt>
      <trkpt lat="43.42624" lon="2.06682">
        <ele>631.6</ele>
        <time>2023-10-01T07:38:26Z</time>
      </trkpt>
      <trkpt lat="43.42624" lon="2.06686">
        <ele>632</ele>
        <time>2023-10-01T07:38:27Z</time>
      </trkpt>
      <trkpt lat="43.42622" lon="2.0669">
        <ele>632.4</ele>
        <time>2023-10-01T07:38:28Z</time>
      </trkpt>
      <trkpt lat="43.42621" lon="2.06694">
        <ele>633.4</ele>
        <time>2023-10-01T07:38:29Z</time>
      </trkpt>
      <trkpt lat="43.42621" lon="2.06697">
        <ele>634.2</ele>
        <time>2023-10-01T07:38:30Z</time>
      </trkpt>
      <trkpt lat="43.42621" lon="2.06701">
        <ele>635</ele>
        <time>2023-10-01T07:38:31Z</time>
      </trkpt>
      <trkpt lat="43.42621" lon="2.06704">
        <ele>635.4</ele>
        <time>2023-10-01T07:38:32Z</time>
      </trkpt>
      <trkpt lat="43.4262" lon="2.06708">
        <ele>636</ele>
        <time>2023-10-01T07:38:33Z</time>
      </trkpt>
      <trkpt lat="43.42619" lon="2.06711">
        <ele>636.2</ele>
        <time>2023-10-01T07:38:34Z</time>
      </trkpt>
      <trkpt lat="43.42616" lon="2.06715">
        <ele>636.6</ele>
        <time>2023-10-01T07:38:35Z</time>
      </trkpt>
      <trkpt lat="43.42614" lon="2.06719">
        <ele>637</ele>
        <time>2023-10-01T07:38:36Z</time>
      </trkpt>
      <trkpt lat="43.42613" lon="2.06722">
        <ele>637.4</ele>
        <time>2023-10-01T07:38:37Z</time>
      </trkpt>
      <trkpt lat="43.42611" lon="2.06726">
        <ele>638</ele>
        <time>2023-10-01T07:38:38Z</time>
      </trkpt>
      <trkpt lat="43.42608" lon="2.0673">
        <ele>638.4</ele>
        <time>2023-10-01T07:38:39Z</time>
      </trkpt>
      <trkpt lat="43.42605" lon="2.06734">
        <ele>638.8</ele>
        <time>2023-10-01T07:38:40Z</time>
      </trkpt>
      <trkpt lat="43.42604" lon="2.06737">
        <ele>639</ele>
        <time>2023-10-01T07:38:41Z</time>
      </trkpt>
      <trkpt lat="43.42602" lon="2.06742">
        <ele>639.4</ele>
        <time>2023-10-01T07:38:42Z</time>
      </trkpt>
      <trkpt lat="43.42601" lon="2.06747">
        <ele>640</ele>
        <time>2023-10-01T07:38:43Z</time>
      </trkpt>
      <trkpt lat="43.426" lon="2.06752">
        <ele>640.2</ele>
        <time>2023-10-01T07:38:44Z</time>
      </trkpt>
      <trkpt lat="43.42598" lon="2.06757">
        <ele>640.8</ele>
        <time>2023-10-01T07:38:45Z</time>
      </trkpt>
      <trkpt lat="43.42597" lon="2.06762">
        <ele>641</ele>
        <time>2023-10-01T07:38:46Z</time>
      </trkpt>
      <trkpt lat="43.42595" lon="2.06768">
        <ele>641.4</ele>
        <time>2023-10-01T07:38:47Z</time>
      </trkpt>
      <trkpt lat="43.42593" lon="2.06774">
        <ele>641.4</ele>
        <time>2023-10-01T07:38:48Z</time>
      </trkpt>
      <trkpt lat="43.4259" lon="2.06779">
        <ele>641.8</ele>
        <time>2023-10-01T07:38:49Z</time>
      </trkpt>
      <trkpt lat="43.42587" lon="2.06785">
        <ele>642.2</ele>
        <time>2023-10-01T07:38:50Z</time>
      </trkpt>
      <trkpt lat="43.42584" lon="2.06789">
        <ele>642.4</ele>
        <time>2023-10-01T07:38:51Z</time>
      </trkpt>
      <trkpt lat="43.42581" lon="2.06793">
        <ele>642.8</ele>
        <time>2023-10-01T07:38:52Z</time>
      </trkpt>
      <trkpt lat="43.42573" lon="2.06796">
        <ele>642.8</ele>
        <time>2023-10-01T07:38:53Z</time>
      </trkpt>
      <trkpt lat="43.4257" lon="2.068">
        <ele>643.4</ele>
        <time>2023-10-01T07:38:54Z</time>
      </trkpt>
      <trkpt lat="43.42565" lon="2.06804">
        <ele>643.8</ele>
        <time>2023-10-01T07:38:55Z</time>
      </trkpt>
      <trkpt lat="43.42561" lon="2.06809">
        <ele>644.2</ele>
        <time>2023-10-01T07:38:56Z</time>
      </trkpt>
      <trkpt lat="43.42557" lon="2.06812">
        <ele>644.4</ele>
        <time>2023-10-01T07:38:57Z</time>
      </trkpt>
      <trkpt lat="43.42555" lon="2.06816">
        <ele>644.8</ele>
        <time>2023-10-01T07:38:58Z</time>
      </trkpt>
      <trkpt lat="43.42554" lon="2.0682">
        <ele>645.2</ele>
        <time>2023-10-01T07:38:59Z</time>
      </trkpt>
      <trkpt lat="43.42549" lon="2.06824">
        <ele>645.4</ele>
        <time>2023-10-01T07:39:00Z</time>
      </trkpt>
      <trkpt lat="43.42547" lon="2.06829">
        <ele>645.8</ele>
        <time>2023-10-01T07:39:01Z</time>
      </trkpt>
      <trkpt lat="43.42542" lon="2.06833">
        <ele>646.2</ele>
        <time>2023-10-01T07:39:02Z</time>
      </trkpt>
      <trkpt lat="43.4254" lon="2.06837">
        <ele>647</ele>
        <time>2023-10-01T07:39:03Z</time>
      </trkpt>
      <trkpt lat="43.42537" lon="2.06841">
        <ele>647.4</ele>
        <time>2023-10-01T07:39:04Z</time>
      </trkpt>
      <trkpt lat="43.42534" lon="2.06844">
        <ele>647.8</ele>
        <time>2023-10-01T07:39:05Z</time>
      </trkpt>
      <trkpt lat="43.42531" lon="2.06845">
        <ele>648.2</ele>
        <time>2023-10-01T07:39:06Z</time>
      </trkpt>
      <trkpt lat="43.42528" lon="2.06844">
        <ele>648.4</ele>
        <time>2023-10-01T07:39:07Z</time>
      </trkpt>
      <trkpt lat="43.42522" lon="2.0684">
        <ele>648.8</ele>
        <time>2023-10-01T07:39:08Z</time>
      </trkpt>
      <trkpt lat="43.42521" lon="2.06839">
        <ele>649</ele>
        <time>2023-10-01T07:39:09Z</time>
      </trkpt>
      <trkpt lat="43.4252" lon="2.06838">
        <ele>649.2</ele>
        <time>2023-10-01T07:39:10Z</time>
      </trkpt>
      <trkpt lat="43.42516" lon="2.06837">
        <ele>649.4</ele>
        <time>2023-10-01T07:39:11Z</time>
      </trkpt>
      <trkpt lat="43.42514" lon="2.06835">
        <ele>649.6</ele>
        <time>2023-10-01T07:39:12Z</time>
      </trkpt>
      <trkpt lat="43.42511" lon="2.06833">
        <ele>649.6</ele>
        <time>2023-10-01T07:39:13Z</time>
      </trkpt>
      <trkpt lat="43.42509" lon="2.0683">
        <ele>649.6</ele>
        <time>2023-10-01T07:39:14Z</time>
      </trkpt>
      <trkpt lat="43.42508" lon="2.06826">
        <ele>649.6</ele>
        <time>2023-10-01T07:39:15Z</time>
      </trkpt>
      <trkpt lat="43.42507" lon="2.06822">
        <ele>649.6</ele>
        <time>2023-10-01T07:39:16Z</time>
      </trkpt>
      <trkpt lat="43.42505" lon="2.06817">
        <ele>649.4</ele>
        <time>2023-10-01T07:39:17Z</time>
      </trkpt>
      <trkpt lat="43.42503" lon="2.06813">
        <ele>649.4</ele>
        <time>2023-10-01T07:39:18Z</time>
      </trkpt>
      <trkpt lat="43.42499" lon="2.06807">
        <ele>649.4</ele>
        <time>2023-10-01T07:39:19Z</time>
      </trkpt>
      <trkpt lat="43.42495" lon="2.06801">
        <ele>649.2</ele>
        <time>2023-10-01T07:39:20Z</time>
      </trkpt>
      <trkpt lat="43.42493" lon="2.06794">
        <ele>649.2</ele>
        <time>2023-10-01T07:39:21Z</time>
      </trkpt>
      <trkpt lat="43.42493" lon="2.06788">
        <ele>649</ele>
        <time>2023-10-01T07:39:22Z</time>
      </trkpt>
      <trkpt lat="43.42493" lon="2.06784">
        <ele>648.8</ele>
        <time>2023-10-01T07:39:23Z</time>
      </trkpt>
      <trkpt lat="43.42495" lon="2.06781">
        <ele>648.6</ele>
        <time>2023-10-01T07:39:24Z</time>
      </trkpt>
      <trkpt lat="43.42497" lon="2.0678">
        <ele>647.8</ele>
        <time>2023-10-01T07:39:25Z</time>
      </trkpt>
      <trkpt lat="43.42499" lon="2.06777">
        <ele>646.6</ele>
        <time>2023-10-01T07:39:26Z</time>
      </trkpt>
      <trkpt lat="43.42501" lon="2.06774">
        <ele>645.8</ele>
        <time>2023-10-01T07:39:27Z</time>
      </trkpt>
      <trkpt lat="43.42502" lon="2.06769">
        <ele>645.6</ele>
        <time>2023-10-01T07:39:28Z</time>
      </trkpt>
      <trkpt lat="43.42505" lon="2.06767">
        <ele>645.4</ele>
        <time>2023-10-01T07:39:29Z</time>
      </trkpt>
      <trkpt lat="43.42508" lon="2.06765">
        <ele>645.4</ele>
        <time>2023-10-01T07:39:30Z</time>
      </trkpt>
      <trkpt lat="43.42511" lon="2.06765">
        <ele>645.2</ele>
        <time>2023-10-01T07:39:31Z</time>
      </trkpt>
      <trkpt lat="43.42532" lon="2.06761">
        <ele>645.2</ele>
        <time>2023-10-01T07:39:36Z</time>
      </trkpt>
      <trkpt lat="43.42536" lon="2.06758">
        <ele>645.2</ele>
        <time>2023-10-01T07:39:37Z</time>
      </trkpt>
      <trkpt lat="43.42545" lon="2.06754">
        <ele>645.2</ele>
        <time>2023-10-01T07:39:39Z</time>
      </trkpt>
      <trkpt lat="43.42548" lon="2.06752">
        <ele>645.2</ele>
        <time>2023-10-01T07:39:40Z</time>
      </trkpt>
      <trkpt lat="43.42552" lon="2.0675">
        <ele>645</ele>
        <time>2023-10-01T07:39:41Z</time>
      </trkpt>
      <trkpt lat="43.42555" lon="2.06748">
        <ele>644.8</ele>
        <time>2023-10-01T07:39:42Z</time>
      </trkpt>
      <trkpt lat="43.42559" lon="2.06745">
        <ele>644.4</ele>
        <time>2023-10-01T07:39:43Z</time>
      </trkpt>
      <trkpt lat="43.42562" lon="2.06743">
        <ele>644.4</ele>
        <time>2023-10-01T07:39:44Z</time>
      </trkpt>
      <trkpt lat="43.42564" lon="2.0674">
        <ele>644</ele>
        <time>2023-10-01T07:39:45Z</time>
      </trkpt>
      <trkpt lat="43.42567" lon="2.06736">
        <ele>644</ele>
        <time>2023-10-01T07:39:46Z</time>
      </trkpt>
      <trkpt lat="43.42572" lon="2.06728">
        <ele>643.4</ele>
        <time>2023-10-01T07:39:48Z</time>
      </trkpt>
      <trkpt lat="43.42575" lon="2.06716">
        <ele>642.6</ele>
        <time>2023-10-01T07:39:50Z</time>
      </trkpt>
      <trkpt lat="43.42576" lon="2.06711">
        <ele>642.2</ele>
        <time>2023-10-01T07:39:51Z</time>
      </trkpt>
      <trkpt lat="43.42577" lon="2.06707">
        <ele>641.8</ele>
        <time>2023-10-01T07:39:52Z</time>
      </trkpt>
      <trkpt lat="43.42576" lon="2.06702">
        <ele>641.6</ele>
        <time>2023-10-01T07:39:53Z</time>
      </trkpt>
      <trkpt lat="43.42575" lon="2.06697">
        <ele>641.4</ele>
        <time>2023-10-01T07:39:54Z</time>
      </trkpt>
      <trkpt lat="43.42576" lon="2.06694">
        <ele>641.2</ele>
        <time>2023-10-01T07:39:55Z</time>
      </trkpt>
      <trkpt lat="43.42578" lon="2.06692">
        <ele>640.8</ele>
        <time>2023-10-01T07:39:56Z</time>
      </trkpt>
      <trkpt lat="43.42581" lon="2.0669">
        <ele>640.2</ele>
        <time>2023-10-01T07:39:57Z</time>
      </trkpt>
      <trkpt lat="43.42583" lon="2.06689">
        <ele>640</ele>
        <time>2023-10-01T07:39:58Z</time>
      </trkpt>
      <trkpt lat="43.42584" lon="2.06687">
        <ele>639.8</ele>
        <time>2023-10-01T07:39:59Z</time>
      </trkpt>
      <trkpt lat="43.42585" lon="2.06685">
        <ele>639.6</ele>
        <time>2023-10-01T07:40:00Z</time>
      </trkpt>
      <trkpt lat="43.42588" lon="2.06682">
        <ele>639.4</ele>
        <time>2023-10-01T07:40:01Z</time>
      </trkpt>
      <trkpt lat="43.42589" lon="2.06679">
        <ele>639.2</ele>
        <time>2023-10-01T07:40:02Z</time>
      </trkpt>
      <trkpt lat="43.42591" lon="2.06676">
        <ele>639</ele>
        <time>2023-10-01T07:40:03Z</time>
      </trkpt>
      <trkpt lat="43.42593" lon="2.06672">
        <ele>638.8</ele>
        <time>2023-10-01T07:40:04Z</time>
      </trkpt>
      <trkpt lat="43.42594" lon="2.06668">
        <ele>638.6</ele>
        <time>2023-10-01T07:40:05Z</time>
      </trkpt>
      <trkpt lat="43.42595" lon="2.06665">
        <ele>638</ele>
        <time>2023-10-01T07:40:06Z</time>
      </trkpt>
      <trkpt lat="43.42601" lon="2.06658">
        <ele>636.8</ele>
        <time>2023-10-01T07:40:08Z</time>
      </trkpt>
      <trkpt lat="43.42603" lon="2.06657">
        <ele>636.6</ele>
        <time>2023-10-01T07:40:09Z</time>
      </trkpt>
      <trkpt lat="43.42604" lon="2.06655">
        <ele>636.4</ele>
        <time>2023-10-01T07:40:10Z</time>
      </trkpt>
      <trkpt lat="43.42605" lon="2.06652">
        <ele>635.8</ele>
        <time>2023-10-01T07:40:11Z</time>
      </trkpt>
      <trkpt lat="43.42606" lon="2.06648">
        <ele>635.6</ele>
        <time>2023-10-01T07:40:12Z</time>
      </trkpt>
      <trkpt lat="43.42608" lon="2.06644">
        <ele>634.8</ele>
        <time>2023-10-01T07:40:13Z</time>
      </trkpt>
      <trkpt lat="43.4261" lon="2.0664">
        <ele>634.4</ele>
        <time>2023-10-01T07:40:14Z</time>
      </trkpt>
      <trkpt lat="43.42612" lon="2.06629">
        <ele>633.4</ele>
        <time>2023-10-01T07:40:16Z</time>
      </trkpt>
      <trkpt lat="43.42617" lon="2.06621">
        <ele>632.4</ele>
        <time>2023-10-01T07:40:18Z</time>
      </trkpt>
      <trkpt lat="43.42621" lon="2.06617">
        <ele>631.8</ele>
        <time>2023-10-01T07:40:19Z</time>
      </trkpt>
      <trkpt lat="43.42623" lon="2.06613">
        <ele>631.4</ele>
        <time>2023-10-01T07:40:20Z</time>
      </trkpt>
      <trkpt lat="43.42624" lon="2.06609">
        <ele>631</ele>
        <time>2023-10-01T07:40:21Z</time>
      </trkpt>
      <trkpt lat="43.42626" lon="2.06601">
        <ele>630</ele>
        <time>2023-10-01T07:40:23Z</time>
      </trkpt>
      <trkpt lat="43.42626" lon="2.06598">
        <ele>629.4</ele>
        <time>2023-10-01T07:40:24Z</time>
      </trkpt>
      <trkpt lat="43.42626" lon="2.06593">
        <ele>628.8</ele>
        <time>2023-10-01T07:40:25Z</time>
      </trkpt>
      <trkpt lat="43.42628" lon="2.06588">
        <ele>627.4</ele>
        <time>2023-10-01T07:40:27Z</time>
      </trkpt>
      <trkpt lat="43.42628" lon="2.06586">
        <ele>627</ele>
        <time>2023-10-01T07:40:28Z</time>
      </trkpt>
      <trkpt lat="43.42628" lon="2.06584">
        <ele>626.4</ele>
        <time>2023-10-01T07:40:29Z</time>
      </trkpt>
      <trkpt lat="43.42629" lon="2.06581">
        <ele>626</ele>
        <time>2023-10-01T07:40:30Z</time>
      </trkpt>
      <trkpt lat="43.42629" lon="2.06578">
        <ele>625.6</ele>
        <time>2023-10-01T07:40:31Z</time>
      </trkpt>
      <trkpt lat="43.4263" lon="2.06574">
        <ele>625.4</ele>
        <time>2023-10-01T07:40:32Z</time>
      </trkpt>
      <trkpt lat="43.42633" lon="2.06573">
        <ele>625</ele>
        <time>2023-10-01T07:40:33Z</time>
      </trkpt>
      <trkpt lat="43.42636" lon="2.06572">
        <ele>624.6</ele>
        <time>2023-10-01T07:40:34Z</time>
      </trkpt>
      <trkpt lat="43.42656" lon="2.06564">
        <ele>623.4</ele>
        <time>2023-10-01T07:40:38Z</time>
      </trkpt>
      <trkpt lat="43.42661" lon="2.06562">
        <ele>623.2</ele>
        <time>2023-10-01T07:40:39Z</time>
      </trkpt>
      <trkpt lat="43.42678" lon="2.06561">
        <ele>622.4</ele>
        <time>2023-10-01T07:40:41Z</time>
      </trkpt>
      <trkpt lat="43.42686" lon="2.0656">
        <ele>622.2</ele>
        <time>2023-10-01T07:40:42Z</time>
      </trkpt>
      <trkpt lat="43.42693" lon="2.06559">
        <ele>621.4</ele>
        <time>2023-10-01T07:40:43Z</time>
      </trkpt>
      <trkpt lat="43.42699" lon="2.06556">
        <ele>621</ele>
        <time>2023-10-01T07:40:44Z</time>
      </trkpt>
      <trkpt lat="43.42704" lon="2.06552">
        <ele>619</ele>
        <time>2023-10-01T07:40:45Z</time>
      </trkpt>
      <trkpt lat="43.42711" lon="2.06546">
        <ele>618.6</ele>
        <time>2023-10-01T07:40:46Z</time>
      </trkpt>
      <trkpt lat="43.42718" lon="2.06538">
        <ele>616.4</ele>
        <time>2023-10-01T07:40:47Z</time>
      </trkpt>
      <trkpt lat="43.42723" lon="2.0653">
        <ele>614.8</ele>
        <time>2023-10-01T07:40:48Z</time>
      </trkpt>
      <trkpt lat="43.42726" lon="2.06518">
        <ele>614.2</ele>
        <time>2023-10-01T07:40:49Z</time>
      </trkpt>
      <trkpt lat="43.42729" lon="2.06507">
        <ele>613</ele>
        <time>2023-10-01T07:40:50Z</time>
      </trkpt>
      <trkpt lat="43.42732" lon="2.06498">
        <ele>612.4</ele>
        <time>2023-10-01T07:40:51Z</time>
      </trkpt>
      <trkpt lat="43.42735" lon="2.06491">
        <ele>611</ele>
        <time>2023-10-01T07:40:52Z</time>
      </trkpt>
      <trkpt lat="43.42738" lon="2.06484">
        <ele>610.4</ele>
        <time>2023-10-01T07:40:53Z</time>
      </trkpt>
      <trkpt lat="43.42746" lon="2.06477">
        <ele>608.6</ele>
        <time>2023-10-01T07:40:54Z</time>
      </trkpt>
      <trkpt lat="43.42752" lon="2.06472">
        <ele>607.2</ele>
        <time>2023-10-01T07:40:55Z</time>
      </trkpt>
      <trkpt lat="43.42759" lon="2.06467">
        <ele>605.8</ele>
        <time>2023-10-01T07:40:56Z</time>
      </trkpt>
      <trkpt lat="43.42765" lon="2.06462">
        <ele>604.4</ele>
        <time>2023-10-01T07:40:57Z</time>
      </trkpt>
      <trkpt lat="43.4277" lon="2.06456">
        <ele>604</ele>
        <time>2023-10-01T07:40:58Z</time>
      </trkpt>
      <trkpt lat="43.42773" lon="2.06449">
        <ele>603.2</ele>
        <time>2023-10-01T07:40:59Z</time>
      </trkpt>
      <trkpt lat="43.42777" lon="2.0644">
        <ele>603</ele>
        <time>2023-10-01T07:41:00Z</time>
      </trkpt>
      <trkpt lat="43.42784" lon="2.06424">
        <ele>602.2</ele>
        <time>2023-10-01T07:41:02Z</time>
      </trkpt>
      <trkpt lat="43.42786" lon="2.06416">
        <ele>601.8</ele>
        <time>2023-10-01T07:41:03Z</time>
      </trkpt>
      <trkpt lat="43.42789" lon="2.06407">
        <ele>601.4</ele>
        <time>2023-10-01T07:41:04Z</time>
      </trkpt>
      <trkpt lat="43.42792" lon="2.06398">
        <ele>601.2</ele>
        <time>2023-10-01T07:41:05Z</time>
      </trkpt>
      <trkpt lat="43.42793" lon="2.06388">
        <ele>600.8</ele>
        <time>2023-10-01T07:41:06Z</time>
      </trkpt>
      <trkpt lat="43.4279" lon="2.06366">
        <ele>600</ele>
        <time>2023-10-01T07:41:08Z</time>
      </trkpt>
      <trkpt lat="43.42789" lon="2.06357">
        <ele>599.8</ele>
        <time>2023-10-01T07:41:09Z</time>
      </trkpt>
      <trkpt lat="43.4279" lon="2.0635">
        <ele>599.2</ele>
        <time>2023-10-01T07:41:10Z</time>
      </trkpt>
      <trkpt lat="43.42793" lon="2.06342">
        <ele>598.8</ele>
        <time>2023-10-01T07:41:11Z</time>
      </trkpt>
      <trkpt lat="43.42794" lon="2.06324">
        <ele>598</ele>
        <time>2023-10-01T07:41:13Z</time>
      </trkpt>
      <trkpt lat="43.42798" lon="2.06304">
        <ele>597</ele>
        <time>2023-10-01T07:41:15Z</time>
      </trkpt>
      <trkpt lat="43.42802" lon="2.06296">
        <ele>596.6</ele>
        <time>2023-10-01T07:41:16Z</time>
      </trkpt>
      <trkpt lat="43.4281" lon="2.06286">
        <ele>596.2</ele>
        <time>2023-10-01T07:41:17Z</time>
      </trkpt>
      <trkpt lat="43.42812" lon="2.06279">
        <ele>595.4</ele>
        <time>2023-10-01T07:41:18Z</time>
      </trkpt>
      <trkpt lat="43.42812" lon="2.06271">
        <ele>595</ele>
        <time>2023-10-01T07:41:19Z</time>
      </trkpt>
      <trkpt lat="43.42811" lon="2.06262">
        <ele>594.4</ele>
        <time>2023-10-01T07:41:20Z</time>
      </trkpt>
      <trkpt lat="43.42811" lon="2.06253">
        <ele>594</ele>
        <time>2023-10-01T07:41:21Z</time>
      </trkpt>
      <trkpt lat="43.42813" lon="2.06244">
        <ele>593.6</ele>
        <time>2023-10-01T07:41:22Z</time>
      </trkpt>
      <trkpt lat="43.42815" lon="2.06234">
        <ele>593.4</ele>
        <time>2023-10-01T07:41:23Z</time>
      </trkpt>
      <trkpt lat="43.42817" lon="2.06225">
        <ele>592.2</ele>
        <time>2023-10-01T07:41:24Z</time>
      </trkpt>
      <trkpt lat="43.42821" lon="2.06213">
        <ele>591</ele>
        <time>2023-10-01T07:41:25Z</time>
      </trkpt>
      <trkpt lat="43.42823" lon="2.062">
        <ele>590.6</ele>
        <time>2023-10-01T07:41:26Z</time>
      </trkpt>
      <trkpt lat="43.42822" lon="2.0619">
        <ele>589.8</ele>
        <time>2023-10-01T07:41:27Z</time>
      </trkpt>
      <trkpt lat="43.42817" lon="2.06175">
        <ele>588.4</ele>
        <time>2023-10-01T07:41:29Z</time>
      </trkpt>
      <trkpt lat="43.42816" lon="2.06169">
        <ele>587.6</ele>
        <time>2023-10-01T07:41:30Z</time>
      </trkpt>
      <trkpt lat="43.42816" lon="2.06164">
        <ele>586</ele>
        <time>2023-10-01T07:41:31Z</time>
      </trkpt>
      <trkpt lat="43.42823" lon="2.06152">
        <ele>585</ele>
        <time>2023-10-01T07:41:32Z</time>
      </trkpt>
      <trkpt lat="43.42826" lon="2.06146">
        <ele>584.4</ele>
        <time>2023-10-01T07:41:33Z</time>
      </trkpt>
      <trkpt lat="43.42829" lon="2.0614">
        <ele>583.6</ele>
        <time>2023-10-01T07:41:34Z</time>
      </trkpt>
      <trkpt lat="43.42838" lon="2.06129">
        <ele>582.6</ele>
        <time>2023-10-01T07:41:36Z</time>
      </trkpt>
      <trkpt lat="43.42842" lon="2.06123">
        <ele>582.2</ele>
        <time>2023-10-01T07:41:37Z</time>
      </trkpt>
      <trkpt lat="43.42847" lon="2.06116">
        <ele>581.2</ele>
        <time>2023-10-01T07:41:38Z</time>
      </trkpt>
      <trkpt lat="43.42852" lon="2.06109">
        <ele>580.4</ele>
        <time>2023-10-01T07:41:39Z</time>
      </trkpt>
      <trkpt lat="43.42859" lon="2.06105">
        <ele>579.4</ele>
        <time>2023-10-01T07:41:40Z</time>
      </trkpt>
      <trkpt lat="43.42868" lon="2.06103">
        <ele>578.8</ele>
        <time>2023-10-01T07:41:41Z</time>
      </trkpt>
      <trkpt lat="43.42873" lon="2.06098">
        <ele>578.4</ele>
        <time>2023-10-01T07:41:42Z</time>
      </trkpt>
      <trkpt lat="43.42879" lon="2.06094">
        <ele>578</ele>
        <time>2023-10-01T07:41:43Z</time>
      </trkpt>
      <trkpt lat="43.42891" lon="2.06085">
        <ele>576.6</ele>
        <time>2023-10-01T07:41:45Z</time>
      </trkpt>
      <trkpt lat="43.42896" lon="2.0608">
        <ele>576</ele>
        <time>2023-10-01T07:41:46Z</time>
      </trkpt>
      <trkpt lat="43.42901" lon="2.06074">
        <ele>575</ele>
        <time>2023-10-01T07:41:47Z</time>
      </trkpt>
      <trkpt lat="43.42903" lon="2.06067">
        <ele>574.2</ele>
        <time>2023-10-01T07:41:48Z</time>
      </trkpt>
      <trkpt lat="43.42902" lon="2.06061">
        <ele>573.6</ele>
        <time>2023-10-01T07:41:49Z</time>
      </trkpt>
      <trkpt lat="43.42899" lon="2.06054">
        <ele>572.2</ele>
        <time>2023-10-01T07:41:50Z</time>
      </trkpt>
      <trkpt lat="43.42893" lon="2.06041">
        <ele>570.2</ele>
        <time>2023-10-01T07:41:52Z</time>
      </trkpt>
      <trkpt lat="43.42891" lon="2.06032">
        <ele>569.4</ele>
        <time>2023-10-01T07:41:53Z</time>
      </trkpt>
      <trkpt lat="43.4289" lon="2.06024">
        <ele>567.8</ele>
        <time>2023-10-01T07:41:54Z</time>
      </trkpt>
      <trkpt lat="43.42887" lon="2.06015">
        <ele>566.4</ele>
        <time>2023-10-01T07:41:55Z</time>
      </trkpt>
      <trkpt lat="43.42884" lon="2.05995">
        <ele>565.2</ele>
        <time>2023-10-01T07:41:57Z</time>
      </trkpt>
      <trkpt lat="43.42885" lon="2.05986">
        <ele>564.8</ele>
        <time>2023-10-01T07:41:58Z</time>
      </trkpt>
      <trkpt lat="43.42886" lon="2.05978">
        <ele>564.4</ele>
        <time>2023-10-01T07:41:59Z</time>
      </trkpt>
      <trkpt lat="43.42887" lon="2.05968">
        <ele>564.2</ele>
        <time>2023-10-01T07:42:00Z</time>
      </trkpt>
      <trkpt lat="43.42889" lon="2.05957">
        <ele>563.6</ele>
        <time>2023-10-01T07:42:01Z</time>
      </trkpt>
      <trkpt lat="43.42889" lon="2.05948">
        <ele>562.6</ele>
        <time>2023-10-01T07:42:02Z</time>
      </trkpt>
      <trkpt lat="43.42887" lon="2.05938">
        <ele>562.2</ele>
        <time>2023-10-01T07:42:03Z</time>
      </trkpt>
      <trkpt lat="43.42886" lon="2.05934">
        <ele>560.6</ele>
        <time>2023-10-01T07:42:04Z</time>
      </trkpt>
      <trkpt lat="43.42883" lon="2.0593">
        <ele>559.6</ele>
        <time>2023-10-01T07:42:05Z</time>
      </trkpt>
      <trkpt lat="43.42883" lon="2.05928">
        <ele>558.4</ele>
        <time>2023-10-01T07:42:06Z</time>
      </trkpt>
      <trkpt lat="43.42882" lon="2.05928">
        <ele>557.4</ele>
        <time>2023-10-01T07:42:07Z</time>
      </trkpt>
      <trkpt lat="43.4288" lon="2.05928">
        <ele>555.8</ele>
        <time>2023-10-01T07:42:08Z</time>
      </trkpt>
      <trkpt lat="43.42878" lon="2.0593">
        <ele>554.8</ele>
        <time>2023-10-01T07:42:09Z</time>
      </trkpt>
      <trkpt lat="43.42872" lon="2.05929">
        <ele>554.4</ele>
        <time>2023-10-01T07:42:10Z</time>
      </trkpt>
      <trkpt lat="43.42866" lon="2.05929">
        <ele>553.6</ele>
        <time>2023-10-01T07:42:11Z</time>
      </trkpt>
      <trkpt lat="43.42853" lon="2.05931">
        <ele>552.4</ele>
        <time>2023-10-01T07:42:13Z</time>
      </trkpt>
      <trkpt lat="43.42849" lon="2.05934">
        <ele>552.2</ele>
        <time>2023-10-01T07:42:14Z</time>
      </trkpt>
      <trkpt lat="43.42844" lon="2.05937">
        <ele>551.6</ele>
        <time>2023-10-01T07:42:15Z</time>
      </trkpt>
      <trkpt lat="43.4284" lon="2.05941">
        <ele>551.4</ele>
        <time>2023-10-01T07:42:16Z</time>
      </trkpt>
      <trkpt lat="43.42837" lon="2.05946">
        <ele>551.2</ele>
        <time>2023-10-01T07:42:17Z</time>
      </trkpt>
      <trkpt lat="43.42836" lon="2.05951">
        <ele>550.8</ele>
        <time>2023-10-01T07:42:18Z</time>
      </trkpt>
      <trkpt lat="43.42835" lon="2.05955">
        <ele>550.6</ele>
        <time>2023-10-01T07:42:19Z</time>
      </trkpt>
      <trkpt lat="43.42832" lon="2.05959">
        <ele>550.4</ele>
        <time>2023-10-01T07:42:20Z</time>
      </trkpt>
      <trkpt lat="43.42821" lon="2.05968">
        <ele>550.2</ele>
        <time>2023-10-01T07:42:22Z</time>
      </trkpt>
      <trkpt lat="43.4282" lon="2.05972">
        <ele>550.2</ele>
        <time>2023-10-01T07:42:23Z</time>
      </trkpt>
      <trkpt lat="43.4281" lon="2.06004">
        <ele>550</ele>
        <time>2023-10-01T07:42:28Z</time>
      </trkpt>
      <trkpt lat="43.42805" lon="2.0601">
        <ele>550</ele>
        <time>2023-10-01T07:42:29Z</time>
      </trkpt>
      <trkpt lat="43.42802" lon="2.06016">
        <ele>550</ele>
        <time>2023-10-01T07:42:30Z</time>
      </trkpt>
      <trkpt lat="43.42789" lon="2.06039">
        <ele>551</ele>
        <time>2023-10-01T07:42:34Z</time>
      </trkpt>
      <trkpt lat="43.42786" lon="2.06044">
        <ele>551.2</ele>
        <time>2023-10-01T07:42:35Z</time>
      </trkpt>
      <trkpt lat="43.42775" lon="2.06049">
        <ele>551.6</ele>
        <time>2023-10-01T07:42:36Z</time>
      </trkpt>
      <trkpt lat="43.4277" lon="2.06061">
        <ele>552.4</ele>
        <time>2023-10-01T07:42:38Z</time>
      </trkpt>
      <trkpt lat="43.42769" lon="2.06067">
        <ele>552.6</ele>
        <time>2023-10-01T07:42:39Z</time>
      </trkpt>
      <trkpt lat="43.42766" lon="2.06072">
        <ele>552.8</ele>
        <time>2023-10-01T07:42:40Z</time>
      </trkpt>
      <trkpt lat="43.42765" lon="2.06077">
        <ele>553</ele>
        <time>2023-10-01T07:42:41Z</time>
      </trkpt>
      <trkpt lat="43.42763" lon="2.06084">
        <ele>553</ele>
        <time>2023-10-01T07:42:42Z</time>
      </trkpt>
      <trkpt lat="43.42761" lon="2.06091">
        <ele>553.2</ele>
        <time>2023-10-01T07:42:43Z</time>
      </trkpt>
      <trkpt lat="43.42761" lon="2.06096">
        <ele>553.2</ele>
        <time>2023-10-01T07:42:44Z</time>
      </trkpt>
      <trkpt lat="43.42761" lon="2.06103">
        <ele>553.4</ele>
        <time>2023-10-01T07:42:45Z</time>
      </trkpt>
      <trkpt lat="43.42758" lon="2.06111">
        <ele>553.8</ele>
        <time>2023-10-01T07:42:46Z</time>
      </trkpt>
      <trkpt lat="43.42758" lon="2.06118">
        <ele>554</ele>
        <time>2023-10-01T07:42:47Z</time>
      </trkpt>
      <trkpt lat="43.42755" lon="2.06132">
        <ele>554.4</ele>
        <time>2023-10-01T07:42:49Z</time>
      </trkpt>
      <trkpt lat="43.42748" lon="2.06141">
        <ele>554.6</ele>
        <time>2023-10-01T07:42:50Z</time>
      </trkpt>
      <trkpt lat="43.42744" lon="2.06153">
        <ele>555</ele>
        <time>2023-10-01T07:42:52Z</time>
      </trkpt>
      <trkpt lat="43.42743" lon="2.06157">
        <ele>555.2</ele>
        <time>2023-10-01T07:42:53Z</time>
      </trkpt>
      <trkpt lat="43.42742" lon="2.06161">
        <ele>555.2</ele>
        <time>2023-10-01T07:42:54Z</time>
      </trkpt>
      <trkpt lat="43.42741" lon="2.06167">
        <ele>555.4</ele>
        <time>2023-10-01T07:42:55Z</time>
      </trkpt>
      <trkpt lat="43.4274" lon="2.06171">
        <ele>555.6</ele>
        <time>2023-10-01T07:42:56Z</time>
      </trkpt>
      <trkpt lat="43.4273" lon="2.06174">
        <ele>555.8</ele>
        <time>2023-10-01T07:42:57Z</time>
      </trkpt>
      <trkpt lat="43.42728" lon="2.06179">
        <ele>556.2</ele>
        <time>2023-10-01T07:42:58Z</time>
      </trkpt>
      <trkpt lat="43.42728" lon="2.06185">
        <ele>557</ele>
        <time>2023-10-01T07:42:59Z</time>
      </trkpt>
      <trkpt lat="43.42728" lon="2.06192">
        <ele>557.2</ele>
        <time>2023-10-01T07:43:00Z</time>
      </trkpt>
      <trkpt lat="43.42728" lon="2.06199">
        <ele>557.4</ele>
        <time>2023-10-01T07:43:01Z</time>
      </trkpt>
      <trkpt lat="43.42728" lon="2.06207">
        <ele>557.4</ele>
        <time>2023-10-01T07:43:02Z</time>
      </trkpt>
      <trkpt lat="43.42725" lon="2.06217">
        <ele>557.6</ele>
        <time>2023-10-01T07:43:03Z</time>
      </trkpt>
      <trkpt lat="43.42723" lon="2.06225">
        <ele>557.6</ele>
        <time>2023-10-01T07:43:04Z</time>
      </trkpt>
      <trkpt lat="43.42721" lon="2.06233">
        <ele>557.6</ele>
        <time>2023-10-01T07:43:05Z</time>
      </trkpt>
      <trkpt lat="43.42715" lon="2.0624">
        <ele>557.6</ele>
        <time>2023-10-01T07:43:06Z</time>
      </trkpt>
      <trkpt lat="43.42711" lon="2.06248">
        <ele>557.6</ele>
        <time>2023-10-01T07:43:07Z</time>
      </trkpt>
      <trkpt lat="43.42709" lon="2.06257">
        <ele>557.6</ele>
        <time>2023-10-01T07:43:08Z</time>
      </trkpt>
      <trkpt lat="43.42709" lon="2.06267">
        <ele>557.6</ele>
        <time>2023-10-01T07:43:09Z</time>
      </trkpt>
      <trkpt lat="43.42707" lon="2.06274">
        <ele>557.4</ele>
        <time>2023-10-01T07:43:10Z</time>
      </trkpt>
      <trkpt lat="43.42706" lon="2.06282">
        <ele>557.4</ele>
        <time>2023-10-01T07:43:11Z</time>
      </trkpt>
      <trkpt lat="43.42706" lon="2.0629">
        <ele>557.2</ele>
        <time>2023-10-01T07:43:12Z</time>
      </trkpt>
      <trkpt lat="43.42706" lon="2.06296">
        <ele>557.2</ele>
        <time>2023-10-01T07:43:13Z</time>
      </trkpt>
      <trkpt lat="43.42704" lon="2.063">
        <ele>557.2</ele>
        <time>2023-10-01T07:43:14Z</time>
      </trkpt>
      <trkpt lat="43.42702" lon="2.06304">
        <ele>557.2</ele>
        <time>2023-10-01T07:43:15Z</time>
      </trkpt>
      <trkpt lat="43.42699" lon="2.06308">
        <ele>557.2</ele>
        <time>2023-10-01T07:43:16Z</time>
      </trkpt>
      <trkpt lat="43.42696" lon="2.06312">
        <ele>557.4</ele>
        <time>2023-10-01T07:43:17Z</time>
      </trkpt>
      <trkpt lat="43.4269" lon="2.06314">
        <ele>557.6</ele>
        <time>2023-10-01T07:43:18Z</time>
      </trkpt>
      <trkpt lat="43.42687" lon="2.06316">
        <ele>557.6</ele>
        <time>2023-10-01T07:43:19Z</time>
      </trkpt>
      <trkpt lat="43.42683" lon="2.06317">
        <ele>558.4</ele>
        <time>2023-10-01T07:43:20Z</time>
      </trkpt>
      <trkpt lat="43.42679" lon="2.06318">
        <ele>558.8</ele>
        <time>2023-10-01T07:43:21Z</time>
      </trkpt>
      <trkpt lat="43.42674" lon="2.0632">
        <ele>559</ele>
        <time>2023-10-01T07:43:22Z</time>
      </trkpt>
      <trkpt lat="43.42672" lon="2.06324">
        <ele>559.8</ele>
        <time>2023-10-01T07:43:23Z</time>
      </trkpt>
      <trkpt lat="43.4267" lon="2.06328">
        <ele>560.2</ele>
        <time>2023-10-01T07:43:24Z</time>
      </trkpt>
      <trkpt lat="43.42668" lon="2.06328">
        <ele>560.8</ele>
        <time>2023-10-01T07:43:25Z</time>
      </trkpt>
      <trkpt lat="43.42666" lon="2.0633">
        <ele>561</ele>
        <time>2023-10-01T07:43:26Z</time>
      </trkpt>
      <trkpt lat="43.42665" lon="2.0633">
        <ele>562.2</ele>
        <time>2023-10-01T07:43:27Z</time>
      </trkpt>
      <trkpt lat="43.42663" lon="2.06331">
        <ele>562.8</ele>
        <time>2023-10-01T07:43:28Z</time>
      </trkpt>
      <trkpt lat="43.4266" lon="2.06332">
        <ele>563.6</ele>
        <time>2023-10-01T07:43:29Z</time>
      </trkpt>
      <trkpt lat="43.42655" lon="2.06333">
        <ele>564.4</ele>
        <time>2023-10-01T07:43:30Z</time>
      </trkpt>
      <trkpt lat="43.42651" lon="2.06333">
        <ele>564.6</ele>
        <time>2023-10-01T07:43:31Z</time>
      </trkpt>
      <trkpt lat="43.42644" lon="2.06334">
        <ele>564.8</ele>
        <time>2023-10-01T07:43:32Z</time>
      </trkpt>
      <trkpt lat="43.42635" lon="2.06336">
        <ele>565</ele>
        <time>2023-10-01T07:43:33Z</time>
      </trkpt>
      <trkpt lat="43.42626" lon="2.06338">
        <ele>565</ele>
        <time>2023-10-01T07:43:34Z</time>
      </trkpt>
      <trkpt lat="43.42617" lon="2.06342">
        <ele>565</ele>
        <time>2023-10-01T07:43:35Z</time>
      </trkpt>
      <trkpt lat="43.42607" lon="2.06344">
        <ele>565</ele>
        <time>2023-10-01T07:43:36Z</time>
      </trkpt>
      <trkpt lat="43.42598" lon="2.06348">
        <ele>564.4</ele>
        <time>2023-10-01T07:43:37Z</time>
      </trkpt>
      <trkpt lat="43.42589" lon="2.06352">
        <ele>564</ele>
        <time>2023-10-01T07:43:38Z</time>
      </trkpt>
      <trkpt lat="43.42577" lon="2.06359">
        <ele>563.2</ele>
        <time>2023-10-01T07:43:39Z</time>
      </trkpt>
      <trkpt lat="43.42569" lon="2.06363">
        <ele>562.6</ele>
        <time>2023-10-01T07:43:40Z</time>
      </trkpt>
      <trkpt lat="43.42561" lon="2.06369">
        <ele>562</ele>
        <time>2023-10-01T07:43:41Z</time>
      </trkpt>
      <trkpt lat="43.42553" lon="2.06372">
        <ele>561.8</ele>
        <time>2023-10-01T07:43:42Z</time>
      </trkpt>
      <trkpt lat="43.42548" lon="2.06374">
        <ele>561</ele>
        <time>2023-10-01T07:43:43Z</time>
      </trkpt>
      <trkpt lat="43.42542" lon="2.06376">
        <ele>560.6</ele>
        <time>2023-10-01T07:43:44Z</time>
      </trkpt>
      <trkpt lat="43.42538" lon="2.06377">
        <ele>560.4</ele>
        <time>2023-10-01T07:43:45Z</time>
      </trkpt>
      <trkpt lat="43.42533" lon="2.06377">
        <ele>559.8</ele>
        <time>2023-10-01T07:43:46Z</time>
      </trkpt>
      <trkpt lat="43.42528" lon="2.06376">
        <ele>559.2</ele>
        <time>2023-10-01T07:43:47Z</time>
      </trkpt>
      <trkpt lat="43.42524" lon="2.06372">
        <ele>558</ele>
        <time>2023-10-01T07:43:48Z</time>
      </trkpt>
      <trkpt lat="43.42523" lon="2.06371">
        <ele>557.6</ele>
        <time>2023-10-01T07:43:49Z</time>
      </trkpt>
      <trkpt lat="43.4252" lon="2.06369">
        <ele>556.8</ele>
        <time>2023-10-01T07:43:50Z</time>
      </trkpt>
      <trkpt lat="43.42516" lon="2.06366">
        <ele>556.6</ele>
        <time>2023-10-01T07:43:51Z</time>
      </trkpt>
      <trkpt lat="43.42514" lon="2.06365">
        <ele>556.6</ele>
        <time>2023-10-01T07:43:52Z</time>
      </trkpt>
      <trkpt lat="43.42508" lon="2.0636">
        <ele>556.4</ele>
        <time>2023-10-01T07:43:53Z</time>
      </trkpt>
      <trkpt lat="43.42507" lon="2.06356">
        <ele>556.4</ele>
        <time>2023-10-01T07:43:54Z</time>
      </trkpt>
      <trkpt lat="43.42506" lon="2.06352">
        <ele>556.6</ele>
        <time>2023-10-01T07:43:55Z</time>
      </trkpt>
      <trkpt lat="43.42505" lon="2.06348">
        <ele>556.6</ele>
        <time>2023-10-01T07:43:56Z</time>
      </trkpt>
      <trkpt lat="43.42503" lon="2.06343">
        <ele>557</ele>
        <time>2023-10-01T07:43:57Z</time>
      </trkpt>
      <trkpt lat="43.42502" lon="2.06339">
        <ele>557.4</ele>
        <time>2023-10-01T07:43:58Z</time>
      </trkpt>
      <trkpt lat="43.42501" lon="2.06334">
        <ele>557.6</ele>
        <time>2023-10-01T07:43:59Z</time>
      </trkpt>
      <trkpt lat="43.425" lon="2.06329">
        <ele>558.2</ele>
        <time>2023-10-01T07:44:00Z</time>
      </trkpt>
      <trkpt lat="43.425" lon="2.06324">
        <ele>558.8</ele>
        <time>2023-10-01T07:44:01Z</time>
      </trkpt>
      <trkpt lat="43.425" lon="2.0632">
        <ele>559.4</ele>
        <time>2023-10-01T07:44:02Z</time>
      </trkpt>
      <trkpt lat="43.425" lon="2.06315">
        <ele>559.6</ele>
        <time>2023-10-01T07:44:03Z</time>
      </trkpt>
      <trkpt lat="43.425" lon="2.0631">
        <ele>560.2</ele>
        <time>2023-10-01T07:44:04Z</time>
      </trkpt>
      <trkpt lat="43.425" lon="2.06299">
        <ele>561</ele>
        <time>2023-10-01T07:44:06Z</time>
      </trkpt>
      <trkpt lat="43.425" lon="2.06294">
        <ele>561.4</ele>
        <time>2023-10-01T07:44:07Z</time>
      </trkpt>
      <trkpt lat="43.42501" lon="2.06284">
        <ele>562.4</ele>
        <time>2023-10-01T07:44:09Z</time>
      </trkpt>
      <trkpt lat="43.42498" lon="2.0626">
        <ele>563.8</ele>
        <time>2023-10-01T07:44:13Z</time>
      </trkpt>
      <trkpt lat="43.42497" lon="2.06254">
        <ele>564.2</ele>
        <time>2023-10-01T07:44:14Z</time>
      </trkpt>
      <trkpt lat="43.42495" lon="2.06249">
        <ele>564.2</ele>
        <time>2023-10-01T07:44:15Z</time>
      </trkpt>
      <trkpt lat="43.42492" lon="2.06245">
        <ele>564.6</ele>
        <time>2023-10-01T07:44:16Z</time>
      </trkpt>
      <trkpt lat="43.42489" lon="2.06241">
        <ele>565.2</ele>
        <time>2023-10-01T07:44:17Z</time>
      </trkpt>
      <trkpt lat="43.42487" lon="2.06238">
        <ele>566</ele>
        <time>2023-10-01T07:44:18Z</time>
      </trkpt>
      <trkpt lat="43.42485" lon="2.06234">
        <ele>566.2</ele>
        <time>2023-10-01T07:44:19Z</time>
      </trkpt>
      <trkpt lat="43.42482" lon="2.06231">
        <ele>566.6</ele>
        <time>2023-10-01T07:44:20Z</time>
      </trkpt>
      <trkpt lat="43.4248" lon="2.06227">
        <ele>567.4</ele>
        <time>2023-10-01T07:44:21Z</time>
      </trkpt>
      <trkpt lat="43.42478" lon="2.06223">
        <ele>568.2</ele>
        <time>2023-10-01T07:44:22Z</time>
      </trkpt>
      <trkpt lat="43.42473" lon="2.06219">
        <ele>569.2</ele>
        <time>2023-10-01T07:44:23Z</time>
      </trkpt>
      <trkpt lat="43.42469" lon="2.06215">
        <ele>569.8</ele>
        <time>2023-10-01T07:44:24Z</time>
      </trkpt>
      <trkpt lat="43.42464" lon="2.06211">
        <ele>570.8</ele>
        <time>2023-10-01T07:44:25Z</time>
      </trkpt>
      <trkpt lat="43.4246" lon="2.06208">
        <ele>571.2</ele>
        <time>2023-10-01T07:44:26Z</time>
      </trkpt>
      <trkpt lat="43.42457" lon="2.06206">
        <ele>572.2</ele>
        <time>2023-10-01T07:44:27Z</time>
      </trkpt>
      <trkpt lat="43.42454" lon="2.06205">
        <ele>573</ele>
        <time>2023-10-01T07:44:28Z</time>
      </trkpt>
      <trkpt lat="43.42451" lon="2.06204">
        <ele>573.6</ele>
        <time>2023-10-01T07:44:29Z</time>
      </trkpt>
      <trkpt lat="43.42447" lon="2.06203">
        <ele>574.2</ele>
        <time>2023-10-01T07:44:30Z</time>
      </trkpt>
      <trkpt lat="43.42444" lon="2.06202">
        <ele>574.4</ele>
        <time>2023-10-01T07:44:31Z</time>
      </trkpt>
      <trkpt lat="43.42439" lon="2.06201">
        <ele>574.8</ele>
        <time>2023-10-01T07:44:32Z</time>
      </trkpt>
      <trkpt lat="43.42435" lon="2.06199">
        <ele>574.8</ele>
        <time>2023-10-01T07:44:33Z</time>
      </trkpt>
      <trkpt lat="43.42431" lon="2.06197">
        <ele>575.2</ele>
        <time>2023-10-01T07:44:34Z</time>
      </trkpt>
      <trkpt lat="43.42427" lon="2.06197">
        <ele>575.6</ele>
        <time>2023-10-01T07:44:35Z</time>
      </trkpt>
      <trkpt lat="43.42424" lon="2.06196">
        <ele>575.8</ele>
        <time>2023-10-01T07:44:36Z</time>
      </trkpt>
      <trkpt lat="43.4242" lon="2.06195">
        <ele>576.2</ele>
        <time>2023-10-01T07:44:37Z</time>
      </trkpt>
      <trkpt lat="43.42418" lon="2.06194">
        <ele>576.4</ele>
        <time>2023-10-01T07:44:38Z</time>
      </trkpt>
      <trkpt lat="43.42415" lon="2.06193">
        <ele>576.8</ele>
        <time>2023-10-01T07:44:39Z</time>
      </trkpt>
      <trkpt lat="43.42412" lon="2.06191">
        <ele>577</ele>
        <time>2023-10-01T07:44:40Z</time>
      </trkpt>
      <trkpt lat="43.42407" lon="2.06188">
        <ele>577.4</ele>
        <time>2023-10-01T07:44:41Z</time>
      </trkpt>
      <trkpt lat="43.42404" lon="2.06185">
        <ele>577.8</ele>
        <time>2023-10-01T07:44:42Z</time>
      </trkpt>
      <trkpt lat="43.42401" lon="2.06183">
        <ele>578</ele>
        <time>2023-10-01T07:44:43Z</time>
      </trkpt>
      <trkpt lat="43.42397" lon="2.06179">
        <ele>578.2</ele>
        <time>2023-10-01T07:44:44Z</time>
      </trkpt>
      <trkpt lat="43.42394" lon="2.06176">
        <ele>578.2</ele>
        <time>2023-10-01T07:44:45Z</time>
      </trkpt>
      <trkpt lat="43.42391" lon="2.06172">
        <ele>578.6</ele>
        <time>2023-10-01T07:44:46Z</time>
      </trkpt>
      <trkpt lat="43.42387" lon="2.06168">
        <ele>578.6</ele>
        <time>2023-10-01T07:44:47Z</time>
      </trkpt>
      <trkpt lat="43.42383" lon="2.06164">
        <ele>578.6</ele>
        <time>2023-10-01T07:44:48Z</time>
      </trkpt>
      <trkpt lat="43.42379" lon="2.06162">
        <ele>578.6</ele>
        <time>2023-10-01T07:44:49Z</time>
      </trkpt>
      <trkpt lat="43.42374" lon="2.06159">
        <ele>578.6</ele>
        <time>2023-10-01T07:44:50Z</time>
      </trkpt>
      <trkpt lat="43.4237" lon="2.06157">
        <ele>578.2</ele>
        <time>2023-10-01T07:44:51Z</time>
      </trkpt>
      <trkpt lat="43.42366" lon="2.06153">
        <ele>578</ele>
        <time>2023-10-01T07:44:52Z</time>
      </trkpt>
      <trkpt lat="43.42362" lon="2.06149">
        <ele>577.6</ele>
        <time>2023-10-01T07:44:53Z</time>
      </trkpt>
      <trkpt lat="43.42359" lon="2.06144">
        <ele>577.2</ele>
        <time>2023-10-01T07:44:54Z</time>
      </trkpt>
      <trkpt lat="43.42355" lon="2.06139">
        <ele>576.2</ele>
        <time>2023-10-01T07:44:55Z</time>
      </trkpt>
      <trkpt lat="43.42349" lon="2.06133">
        <ele>575.8</ele>
        <time>2023-10-01T07:44:56Z</time>
      </trkpt>
      <trkpt lat="43.42347" lon="2.06128">
        <ele>575.2</ele>
        <time>2023-10-01T07:44:57Z</time>
      </trkpt>
      <trkpt lat="43.42345" lon="2.06123">
        <ele>574.8</ele>
        <time>2023-10-01T07:44:58Z</time>
      </trkpt>
      <trkpt lat="43.42345" lon="2.06119">
        <ele>574.6</ele>
        <time>2023-10-01T07:44:59Z</time>
      </trkpt>
      <trkpt lat="43.42345" lon="2.06114">
        <ele>574.6</ele>
        <time>2023-10-01T07:45:00Z</time>
      </trkpt>
      <trkpt lat="43.42344" lon="2.06109">
        <ele>574.6</ele>
        <time>2023-10-01T07:45:01Z</time>
      </trkpt>
      <trkpt lat="43.42344" lon="2.06104">
        <ele>574.6</ele>
        <time>2023-10-01T07:45:02Z</time>
      </trkpt>
      <trkpt lat="43.42343" lon="2.06097">
        <ele>574.6</ele>
        <time>2023-10-01T07:45:03Z</time>
      </trkpt>
      <trkpt lat="43.42345" lon="2.06083">
        <ele>575.2</ele>
        <time>2023-10-01T07:45:05Z</time>
      </trkpt>
      <trkpt lat="43.42345" lon="2.06076">
        <ele>575.4</ele>
        <time>2023-10-01T07:45:06Z</time>
      </trkpt>
      <trkpt lat="43.42345" lon="2.0607">
        <ele>575.8</ele>
        <time>2023-10-01T07:45:07Z</time>
      </trkpt>
      <trkpt lat="43.42346" lon="2.06063">
        <ele>576.2</ele>
        <time>2023-10-01T07:45:08Z</time>
      </trkpt>
      <trkpt lat="43.42347" lon="2.06056">
        <ele>576.8</ele>
        <time>2023-10-01T07:45:09Z</time>
      </trkpt>
      <trkpt lat="43.42347" lon="2.06051">
        <ele>577.2</ele>
        <time>2023-10-01T07:45:10Z</time>
      </trkpt>
      <trkpt lat="43.42348" lon="2.06047">
        <ele>577.6</ele>
        <time>2023-10-01T07:45:11Z</time>
      </trkpt>
      <trkpt lat="43.42349" lon="2.06045">
        <ele>578.4</ele>
        <time>2023-10-01T07:45:12Z</time>
      </trkpt>
      <trkpt lat="43.42351" lon="2.06041">
        <ele>578.6</ele>
        <time>2023-10-01T07:45:13Z</time>
      </trkpt>
      <trkpt lat="43.42353" lon="2.06038">
        <ele>579</ele>
        <time>2023-10-01T07:45:14Z</time>
      </trkpt>
      <trkpt lat="43.42354" lon="2.06034">
        <ele>579</ele>
        <time>2023-10-01T07:45:15Z</time>
      </trkpt>
      <trkpt lat="43.42355" lon="2.06031">
        <ele>579.2</ele>
        <time>2023-10-01T07:45:16Z</time>
      </trkpt>
      <trkpt lat="43.42357" lon="2.06028">
        <ele>579.2</ele>
        <time>2023-10-01T07:45:17Z</time>
      </trkpt>
      <trkpt lat="43.42357" lon="2.06025">
        <ele>579.2</ele>
        <time>2023-10-01T07:45:18Z</time>
      </trkpt>
      <trkpt lat="43.42358" lon="2.06022">
        <ele>579.2</ele>
        <time>2023-10-01T07:45:19Z</time>
      </trkpt>
      <trkpt lat="43.42359" lon="2.0602">
        <ele>579.2</ele>
        <time>2023-10-01T07:45:20Z</time>
      </trkpt>
      <trkpt lat="43.42359" lon="2.06016">
        <ele>579</ele>
        <time>2023-10-01T07:45:21Z</time>
      </trkpt>
      <trkpt lat="43.42358" lon="2.06016">
        <ele>578.8</ele>
        <time>2023-10-01T07:45:22Z</time>
      </trkpt>
      <trkpt lat="43.42358" lon="2.06014">
        <ele>578.6</ele>
        <time>2023-10-01T07:45:23Z</time>
      </trkpt>
      <trkpt lat="43.42357" lon="2.06012">
        <ele>578.8</ele>
        <time>2023-10-01T07:45:24Z</time>
      </trkpt>
      <trkpt lat="43.42355" lon="2.0601">
        <ele>578.8</ele>
        <time>2023-10-01T07:45:25Z</time>
      </trkpt>
      <trkpt lat="43.42353" lon="2.06008">
        <ele>578.8</ele>
        <time>2023-10-01T07:45:26Z</time>
      </trkpt>
      <trkpt lat="43.42347" lon="2.06006">
        <ele>578.8</ele>
        <time>2023-10-01T07:45:27Z</time>
      </trkpt>
      <trkpt lat="43.42346" lon="2.06004">
        <ele>579</ele>
        <time>2023-10-01T07:45:28Z</time>
      </trkpt>
      <trkpt lat="43.42347" lon="2.06002">
        <ele>579</ele>
        <time>2023-10-01T07:45:29Z</time>
      </trkpt>
      <trkpt lat="43.42348" lon="2.05999">
        <ele>579</ele>
        <time>2023-10-01T07:45:30Z</time>
      </trkpt>
      <trkpt lat="43.42349" lon="2.05996">
        <ele>579</ele>
        <time>2023-10-01T07:45:31Z</time>
      </trkpt>
      <trkpt lat="43.42349" lon="2.05996">
        <ele>579</ele>
        <time>2023-10-01T07:45:32Z</time>
      </trkpt>
      <trkpt lat="43.42351" lon="2.05994">
        <ele>579</ele>
        <time>2023-10-01T07:45:33Z</time>
      </trkpt>
      <trkpt lat="43.42359" lon="2.05985">
        <ele>579</ele>
        <time>2023-10-01T07:45:36Z</time>
      </trkpt>
      <trkpt lat="43.42376" lon="2.05963">
        <ele>578.4</ele>
        <time>2023-10-01T07:45:41Z</time>
      </trkpt>
      <trkpt lat="43.42379" lon="2.05959">
        <ele>578</ele>
        <time>2023-10-01T07:45:42Z</time>
      </trkpt>
      <trkpt lat="43.42383" lon="2.05953">
        <ele>577.8</ele>
        <time>2023-10-01T07:45:43Z</time>
      </trkpt>
      <trkpt lat="43.42389" lon="2.05948">
        <ele>577</ele>
        <time>2023-10-01T07:45:44Z</time>
      </trkpt>
      <trkpt lat="43.42393" lon="2.05943">
        <ele>576.8</ele>
        <time>2023-10-01T07:45:45Z</time>
      </trkpt>
      <trkpt lat="43.42405" lon="2.05934">
        <ele>575.6</ele>
        <time>2023-10-01T07:45:47Z</time>
      </trkpt>
      <trkpt lat="43.4241" lon="2.05931">
        <ele>574.4</ele>
        <time>2023-10-01T07:45:48Z</time>
      </trkpt>
      <trkpt lat="43.42414" lon="2.05928">
        <ele>573.4</ele>
        <time>2023-10-01T07:45:49Z</time>
      </trkpt>
      <trkpt lat="43.42418" lon="2.05925">
        <ele>573</ele>
        <time>2023-10-01T07:45:50Z</time>
      </trkpt>
      <trkpt lat="43.42421" lon="2.05919">
        <ele>572.4</ele>
        <time>2023-10-01T07:45:51Z</time>
      </trkpt>
      <trkpt lat="43.42425" lon="2.05913">
        <ele>572</ele>
        <time>2023-10-01T07:45:52Z</time>
      </trkpt>
      <trkpt lat="43.42427" lon="2.05908">
        <ele>571.4</ele>
        <time>2023-10-01T07:45:53Z</time>
      </trkpt>
      <trkpt lat="43.42427" lon="2.05903">
        <ele>571.2</ele>
        <time>2023-10-01T07:45:54Z</time>
      </trkpt>
      <trkpt lat="43.42427" lon="2.05898">
        <ele>570.8</ele>
        <time>2023-10-01T07:45:55Z</time>
      </trkpt>
      <trkpt lat="43.42427" lon="2.0589">
        <ele>570.4</ele>
        <time>2023-10-01T07:45:56Z</time>
      </trkpt>
      <trkpt lat="43.42427" lon="2.05884">
        <ele>569.8</ele>
        <time>2023-10-01T07:45:57Z</time>
      </trkpt>
      <trkpt lat="43.42428" lon="2.05878">
        <ele>568.2</ele>
        <time>2023-10-01T07:45:58Z</time>
      </trkpt>
      <trkpt lat="43.42429" lon="2.05874">
        <ele>567.6</ele>
        <time>2023-10-01T07:45:59Z</time>
      </trkpt>
      <trkpt lat="43.42432" lon="2.05871">
        <ele>566</ele>
        <time>2023-10-01T07:46:00Z</time>
      </trkpt>
      <trkpt lat="43.42435" lon="2.0587">
        <ele>565.2</ele>
        <time>2023-10-01T07:46:01Z</time>
      </trkpt>
      <trkpt lat="43.42439" lon="2.0587">
        <ele>564</ele>
        <time>2023-10-01T07:46:02Z</time>
      </trkpt>
      <trkpt lat="43.42444" lon="2.0587">
        <ele>562.6</ele>
        <time>2023-10-01T07:46:03Z</time>
      </trkpt>
      <trkpt lat="43.42451" lon="2.05872">
        <ele>562</ele>
        <time>2023-10-01T07:46:04Z</time>
      </trkpt>
      <trkpt lat="43.42455" lon="2.05875">
        <ele>561.2</ele>
        <time>2023-10-01T07:46:05Z</time>
      </trkpt>
      <trkpt lat="43.4246" lon="2.05881">
        <ele>560.8</ele>
        <time>2023-10-01T07:46:06Z</time>
      </trkpt>
      <trkpt lat="43.42465" lon="2.05882">
        <ele>560</ele>
        <time>2023-10-01T07:46:07Z</time>
      </trkpt>
      <trkpt lat="43.42466" lon="2.0588">
        <ele>559.8</ele>
        <time>2023-10-01T07:46:08Z</time>
      </trkpt>
      <trkpt lat="43.42468" lon="2.05876">
        <ele>559</ele>
        <time>2023-10-01T07:46:09Z</time>
      </trkpt>
      <trkpt lat="43.42471" lon="2.05873">
        <ele>558.6</ele>
        <time>2023-10-01T07:46:10Z</time>
      </trkpt>
      <trkpt lat="43.42474" lon="2.05868">
        <ele>558.2</ele>
        <time>2023-10-01T07:46:11Z</time>
      </trkpt>
      <trkpt lat="43.42478" lon="2.05864">
        <ele>557.4</ele>
        <time>2023-10-01T07:46:12Z</time>
      </trkpt>
      <trkpt lat="43.42488" lon="2.05852">
        <ele>556.4</ele>
        <time>2023-10-01T07:46:15Z</time>
      </trkpt>
      <trkpt lat="43.42492" lon="2.0585">
        <ele>555.2</ele>
        <time>2023-10-01T07:46:16Z</time>
      </trkpt>
      <trkpt lat="43.42496" lon="2.05847">
        <ele>553.4</ele>
        <time>2023-10-01T07:46:17Z</time>
      </trkpt>
      <trkpt lat="43.42499" lon="2.05844">
        <ele>552.8</ele>
        <time>2023-10-01T07:46:18Z</time>
      </trkpt>
      <trkpt lat="43.42502" lon="2.05839">
        <ele>551.6</ele>
        <time>2023-10-01T07:46:19Z</time>
      </trkpt>
      <trkpt lat="43.42503" lon="2.05835">
        <ele>551</ele>
        <time>2023-10-01T07:46:20Z</time>
      </trkpt>
      <trkpt lat="43.42506" lon="2.0583">
        <ele>549.2</ele>
        <time>2023-10-01T07:46:21Z</time>
      </trkpt>
      <trkpt lat="43.42509" lon="2.05825">
        <ele>548.2</ele>
        <time>2023-10-01T07:46:22Z</time>
      </trkpt>
      <trkpt lat="43.42515" lon="2.05819">
        <ele>546</ele>
        <time>2023-10-01T07:46:23Z</time>
      </trkpt>
      <trkpt lat="43.4252" lon="2.05815">
        <ele>544.6</ele>
        <time>2023-10-01T07:46:24Z</time>
      </trkpt>
      <trkpt lat="43.42525" lon="2.05812">
        <ele>544</ele>
        <time>2023-10-01T07:46:25Z</time>
      </trkpt>
      <trkpt lat="43.42531" lon="2.05808">
        <ele>542.4</ele>
        <time>2023-10-01T07:46:26Z</time>
      </trkpt>
      <trkpt lat="43.42534" lon="2.05804">
        <ele>541</ele>
        <time>2023-10-01T07:46:27Z</time>
      </trkpt>
      <trkpt lat="43.42537" lon="2.05799">
        <ele>539</ele>
        <time>2023-10-01T07:46:28Z</time>
      </trkpt>
      <trkpt lat="43.42546" lon="2.05788">
        <ele>536.6</ele>
        <time>2023-10-01T07:46:30Z</time>
      </trkpt>
      <trkpt lat="43.42558" lon="2.05777">
        <ele>534.4</ele>
        <time>2023-10-01T07:46:32Z</time>
      </trkpt>
      <trkpt lat="43.42563" lon="2.05774">
        <ele>533.4</ele>
        <time>2023-10-01T07:46:33Z</time>
      </trkpt>
      <trkpt lat="43.42567" lon="2.05773">
        <ele>532.6</ele>
        <time>2023-10-01T07:46:34Z</time>
      </trkpt>
      <trkpt lat="43.42573" lon="2.05774">
        <ele>530.4</ele>
        <time>2023-10-01T07:46:35Z</time>
      </trkpt>
      <trkpt lat="43.42577" lon="2.05775">
        <ele>529</ele>
        <time>2023-10-01T07:46:36Z</time>
      </trkpt>
      <trkpt lat="43.42581" lon="2.05778">
        <ele>527.2</ele>
        <time>2023-10-01T07:46:37Z</time>
      </trkpt>
      <trkpt lat="43.42587" lon="2.0578">
        <ele>526.6</ele>
        <time>2023-10-01T07:46:38Z</time>
      </trkpt>
      <trkpt lat="43.42589" lon="2.05784">
        <ele>525</ele>
        <time>2023-10-01T07:46:39Z</time>
      </trkpt>
      <trkpt lat="43.4259" lon="2.05788">
        <ele>523.2</ele>
        <time>2023-10-01T07:46:40Z</time>
      </trkpt>
      <trkpt lat="43.4259" lon="2.05793">
        <ele>522.6</ele>
        <time>2023-10-01T07:46:41Z</time>
      </trkpt>
      <trkpt lat="43.42592" lon="2.05799">
        <ele>521.8</ele>
        <time>2023-10-01T07:46:42Z</time>
      </trkpt>
      <trkpt lat="43.42596" lon="2.05815">
        <ele>520.4</ele>
        <time>2023-10-01T07:46:44Z</time>
      </trkpt>
      <trkpt lat="43.42597" lon="2.05825">
        <ele>520</ele>
        <time>2023-10-01T07:46:45Z</time>
      </trkpt>
      <trkpt lat="43.42597" lon="2.05835">
        <ele>519.2</ele>
        <time>2023-10-01T07:46:46Z</time>
      </trkpt>
      <trkpt lat="43.42596" lon="2.05855">
        <ele>518.2</ele>
        <time>2023-10-01T07:46:48Z</time>
      </trkpt>
      <trkpt lat="43.42594" lon="2.05865">
        <ele>517.6</ele>
        <time>2023-10-01T07:46:49Z</time>
      </trkpt>
      <trkpt lat="43.42594" lon="2.05876">
        <ele>517.4</ele>
        <time>2023-10-01T07:46:50Z</time>
      </trkpt>
      <trkpt lat="43.42593" lon="2.05886">
        <ele>516.8</ele>
        <time>2023-10-01T07:46:51Z</time>
      </trkpt>
      <trkpt lat="43.42593" lon="2.05895">
        <ele>516.6</ele>
        <time>2023-10-01T07:46:52Z</time>
      </trkpt>
      <trkpt lat="43.42593" lon="2.05903">
        <ele>516</ele>
        <time>2023-10-01T07:46:53Z</time>
      </trkpt>
      <trkpt lat="43.4259" lon="2.05908">
        <ele>515.4</ele>
        <time>2023-10-01T07:46:54Z</time>
      </trkpt>
      <trkpt lat="43.42588" lon="2.05915">
        <ele>515.2</ele>
        <time>2023-10-01T07:46:55Z</time>
      </trkpt>
      <trkpt lat="43.42589" lon="2.05925">
        <ele>514.6</ele>
        <time>2023-10-01T07:46:56Z</time>
      </trkpt>
      <trkpt lat="43.4259" lon="2.05935">
        <ele>514.4</ele>
        <time>2023-10-01T07:46:57Z</time>
      </trkpt>
      <trkpt lat="43.42592" lon="2.05945">
        <ele>514</ele>
        <time>2023-10-01T07:46:58Z</time>
      </trkpt>
      <trkpt lat="43.42593" lon="2.05954">
        <ele>513.8</ele>
        <time>2023-10-01T07:46:59Z</time>
      </trkpt>
      <trkpt lat="43.42593" lon="2.05973">
        <ele>512.8</ele>
        <time>2023-10-01T07:47:01Z</time>
      </trkpt>
      <trkpt lat="43.42591" lon="2.05978">
        <ele>512.6</ele>
        <time>2023-10-01T07:47:02Z</time>
      </trkpt>
      <trkpt lat="43.42588" lon="2.05982">
        <ele>512</ele>
        <time>2023-10-01T07:47:03Z</time>
      </trkpt>
      <trkpt lat="43.42583" lon="2.05983">
        <ele>511.8</ele>
        <time>2023-10-01T07:47:04Z</time>
      </trkpt>
      <trkpt lat="43.42581" lon="2.05985">
        <ele>510.2</ele>
        <time>2023-10-01T07:47:05Z</time>
      </trkpt>
      <trkpt lat="43.4258" lon="2.05987">
        <ele>509.6</ele>
        <time>2023-10-01T07:47:06Z</time>
      </trkpt>
      <trkpt lat="43.42579" lon="2.05991">
        <ele>508.4</ele>
        <time>2023-10-01T07:47:07Z</time>
      </trkpt>
      <trkpt lat="43.42577" lon="2.05994">
        <ele>507.8</ele>
        <time>2023-10-01T07:47:08Z</time>
      </trkpt>
      <trkpt lat="43.42571" lon="2.06">
        <ele>507.6</ele>
        <time>2023-10-01T07:47:10Z</time>
      </trkpt>
      <trkpt lat="43.42568" lon="2.06003">
        <ele>507.4</ele>
        <time>2023-10-01T07:47:11Z</time>
      </trkpt>
      <trkpt lat="43.42566" lon="2.06007">
        <ele>507.2</ele>
        <time>2023-10-01T07:47:12Z</time>
      </trkpt>
      <trkpt lat="43.42563" lon="2.06009">
        <ele>507.2</ele>
        <time>2023-10-01T07:47:13Z</time>
      </trkpt>
      <trkpt lat="43.42562" lon="2.06012">
        <ele>507</ele>
        <time>2023-10-01T07:47:14Z</time>
      </trkpt>
      <trkpt lat="43.42565" lon="2.06016">
        <ele>507</ele>
        <time>2023-10-01T07:47:15Z</time>
      </trkpt>
      <trkpt lat="43.42567" lon="2.06018">
        <ele>506.8</ele>
        <time>2023-10-01T07:47:16Z</time>
      </trkpt>
      <trkpt lat="43.42568" lon="2.06018">
        <ele>506.8</ele>
        <time>2023-10-01T07:47:17Z</time>
      </trkpt>
      <trkpt lat="43.42568" lon="2.06018">
        <ele>506.6</ele>
        <time>2023-10-01T07:47:18Z</time>
      </trkpt>
      <trkpt lat="43.42568" lon="2.06018">
        <ele>506.4</ele>
        <time>2023-10-01T07:47:19Z</time>
      </trkpt>
      <trkpt lat="43.42568" lon="2.06018">
        <ele>506.2</ele>
        <time>2023-10-01T07:47:20Z</time>
      </trkpt>
      <trkpt lat="43.42575" lon="2.0602">
        <ele>504.6</ele>
        <time>2023-10-01T07:47:24Z</time>
      </trkpt>
      <trkpt lat="43.42577" lon="2.06019">
        <ele>504.4</ele>
        <time>2023-10-01T07:47:25Z</time>
      </trkpt>
      <trkpt lat="43.42579" lon="2.06018">
        <ele>504.2</ele>
        <time>2023-10-01T07:47:26Z</time>
      </trkpt>
      <trkpt lat="43.42581" lon="2.06016">
        <ele>504</ele>
        <time>2023-10-01T07:47:27Z</time>
      </trkpt>
      <trkpt lat="43.42583" lon="2.06014">
        <ele>503.2</ele>
        <time>2023-10-01T07:47:28Z</time>
      </trkpt>
      <trkpt lat="43.42587" lon="2.06012">
        <ele>501.2</ele>
        <time>2023-10-01T07:47:30Z</time>
      </trkpt>
      <trkpt lat="43.42591" lon="2.06012">
        <ele>500.2</ele>
        <time>2023-10-01T07:47:31Z</time>
      </trkpt>
      <trkpt lat="43.42594" lon="2.06013">
        <ele>499.8</ele>
        <time>2023-10-01T07:47:32Z</time>
      </trkpt>
      <trkpt lat="43.426" lon="2.06019">
        <ele>498.6</ele>
        <time>2023-10-01T07:47:34Z</time>
      </trkpt>
      <trkpt lat="43.42603" lon="2.06022">
        <ele>497.8</ele>
        <time>2023-10-01T07:47:35Z</time>
      </trkpt>
      <trkpt lat="43.42605" lon="2.06025">
        <ele>497</ele>
        <time>2023-10-01T07:47:36Z</time>
      </trkpt>
      <trkpt lat="43.42607" lon="2.06029">
        <ele>496.4</ele>
        <time>2023-10-01T07:47:37Z</time>
      </trkpt>
      <trkpt lat="43.42608" lon="2.06032">
        <ele>496.2</ele>
        <time>2023-10-01T07:47:38Z</time>
      </trkpt>
      <trkpt lat="43.4261" lon="2.06035">
        <ele>496.2</ele>
        <time>2023-10-01T07:47:39Z</time>
      </trkpt>
      <trkpt lat="43.42619" lon="2.06051">
        <ele>496.4</ele>
        <time>2023-10-01T07:47:42Z</time>
      </trkpt>
      <trkpt lat="43.4262" lon="2.06055">
        <ele>496.4</ele>
        <time>2023-10-01T07:47:43Z</time>
      </trkpt>
      <trkpt lat="43.4262" lon="2.06059">
        <ele>496.6</ele>
        <time>2023-10-01T07:47:44Z</time>
      </trkpt>
      <trkpt lat="43.4262" lon="2.06062">
        <ele>497</ele>
        <time>2023-10-01T07:47:45Z</time>
      </trkpt>
      <trkpt lat="43.42622" lon="2.06066">
        <ele>497.2</ele>
        <time>2023-10-01T07:47:46Z</time>
      </trkpt>
      <trkpt lat="43.42625" lon="2.06071">
        <ele>497.4</ele>
        <time>2023-10-01T07:47:47Z</time>
      </trkpt>
      <trkpt lat="43.42628" lon="2.06074">
        <ele>497.6</ele>
        <time>2023-10-01T07:47:48Z</time>
      </trkpt>
      <trkpt lat="43.4263" lon="2.06076">
        <ele>498.4</ele>
        <time>2023-10-01T07:47:49Z</time>
      </trkpt>
      <trkpt lat="43.42633" lon="2.06077">
        <ele>498.6</ele>
        <time>2023-10-01T07:47:50Z</time>
      </trkpt>
      <trkpt lat="43.42636" lon="2.06076">
        <ele>499</ele>
        <time>2023-10-01T07:47:51Z</time>
      </trkpt>
      <trkpt lat="43.42639" lon="2.06075">
        <ele>499.6</ele>
        <time>2023-10-01T07:47:52Z</time>
      </trkpt>
      <trkpt lat="43.42643" lon="2.06074">
        <ele>499.8</ele>
        <time>2023-10-01T07:47:53Z</time>
      </trkpt>
      <trkpt lat="43.42646" lon="2.06073">
        <ele>500</ele>
        <time>2023-10-01T07:47:54Z</time>
      </trkpt>
      <trkpt lat="43.42652" lon="2.06071">
        <ele>500.6</ele>
        <time>2023-10-01T07:47:56Z</time>
      </trkpt>
      <trkpt lat="43.42655" lon="2.06069">
        <ele>500.6</ele>
        <time>2023-10-01T07:47:57Z</time>
      </trkpt>
      <trkpt lat="43.42657" lon="2.06068">
        <ele>501</ele>
        <time>2023-10-01T07:47:58Z</time>
      </trkpt>
      <trkpt lat="43.4266" lon="2.06066">
        <ele>501.2</ele>
        <time>2023-10-01T07:47:59Z</time>
      </trkpt>
      <trkpt lat="43.42663" lon="2.06065">
        <ele>501.6</ele>
        <time>2023-10-01T07:48:00Z</time>
      </trkpt>
      <trkpt lat="43.42664" lon="2.06063">
        <ele>502</ele>
        <time>2023-10-01T07:48:01Z</time>
      </trkpt>
      <trkpt lat="43.42667" lon="2.06061">
        <ele>502.2</ele>
        <time>2023-10-01T07:48:02Z</time>
      </trkpt>
      <trkpt lat="43.42669" lon="2.06058">
        <ele>502.8</ele>
        <time>2023-10-01T07:48:03Z</time>
      </trkpt>
      <trkpt lat="43.42671" lon="2.06056">
        <ele>503.2</ele>
        <time>2023-10-01T07:48:04Z</time>
      </trkpt>
      <trkpt lat="43.42673" lon="2.06053">
        <ele>503.6</ele>
        <time>2023-10-01T07:48:05Z</time>
      </trkpt>
      <trkpt lat="43.42675" lon="2.06051">
        <ele>503.8</ele>
        <time>2023-10-01T07:48:06Z</time>
      </trkpt>
      <trkpt lat="43.42676" lon="2.06048">
        <ele>504.2</ele>
        <time>2023-10-01T07:48:07Z</time>
      </trkpt>
      <trkpt lat="43.42677" lon="2.06046">
        <ele>504.4</ele>
        <time>2023-10-01T07:48:08Z</time>
      </trkpt>
      <trkpt lat="43.42679" lon="2.06042">
        <ele>504.6</ele>
        <time>2023-10-01T07:48:09Z</time>
      </trkpt>
      <trkpt lat="43.42681" lon="2.06037">
        <ele>504.8</ele>
        <time>2023-10-01T07:48:10Z</time>
      </trkpt>
      <trkpt lat="43.42683" lon="2.06034">
        <ele>505</ele>
        <time>2023-10-01T07:48:11Z</time>
      </trkpt>
      <trkpt lat="43.42684" lon="2.0603">
        <ele>505.4</ele>
        <time>2023-10-01T07:48:12Z</time>
      </trkpt>
      <trkpt lat="43.42687" lon="2.06026">
        <ele>505.6</ele>
        <time>2023-10-01T07:48:13Z</time>
      </trkpt>
      <trkpt lat="43.42689" lon="2.06023">
        <ele>506.2</ele>
        <time>2023-10-01T07:48:14Z</time>
      </trkpt>
      <trkpt lat="43.42692" lon="2.06019">
        <ele>506.6</ele>
        <time>2023-10-01T07:48:15Z</time>
      </trkpt>
      <trkpt lat="43.42694" lon="2.06014">
        <ele>507</ele>
        <time>2023-10-01T07:48:16Z</time>
      </trkpt>
      <trkpt lat="43.42696" lon="2.06008">
        <ele>507.4</ele>
        <time>2023-10-01T07:48:17Z</time>
      </trkpt>
      <trkpt lat="43.42699" lon="2.06003">
        <ele>507.6</ele>
        <time>2023-10-01T07:48:18Z</time>
      </trkpt>
      <trkpt lat="43.42701" lon="2.06">
        <ele>507.8</ele>
        <time>2023-10-01T07:48:19Z</time>
      </trkpt>
      <trkpt lat="43.42703" lon="2.05997">
        <ele>508</ele>
        <time>2023-10-01T07:48:20Z</time>
      </trkpt>
      <trkpt lat="43.42705" lon="2.05994">
        <ele>508.2</ele>
        <time>2023-10-01T07:48:21Z</time>
      </trkpt>
      <trkpt lat="43.42708" lon="2.05993">
        <ele>508.4</ele>
        <time>2023-10-01T07:48:22Z</time>
      </trkpt>
      <trkpt lat="43.42711" lon="2.05991">
        <ele>508.6</ele>
        <time>2023-10-01T07:48:23Z</time>
      </trkpt>
      <trkpt lat="43.42714" lon="2.05988">
        <ele>509.2</ele>
        <time>2023-10-01T07:48:24Z</time>
      </trkpt>
      <trkpt lat="43.42717" lon="2.05986">
        <ele>509.6</ele>
        <time>2023-10-01T07:48:25Z</time>
      </trkpt>
      <trkpt lat="43.42719" lon="2.05984">
        <ele>509.8</ele>
        <time>2023-10-01T07:48:26Z</time>
      </trkpt>
      <trkpt lat="43.42722" lon="2.05983">
        <ele>510</ele>
        <time>2023-10-01T07:48:27Z</time>
      </trkpt>
      <trkpt lat="43.42724" lon="2.05981">
        <ele>510.2</ele>
        <time>2023-10-01T07:48:28Z</time>
      </trkpt>
      <trkpt lat="43.42725" lon="2.05978">
        <ele>510.6</ele>
        <time>2023-10-01T07:48:29Z</time>
      </trkpt>
      <trkpt lat="43.42724" lon="2.05974">
        <ele>510.8</ele>
        <time>2023-10-01T07:48:30Z</time>
      </trkpt>
      <trkpt lat="43.42726" lon="2.05971">
        <ele>511.2</ele>
        <time>2023-10-01T07:48:31Z</time>
      </trkpt>
      <trkpt lat="43.42726" lon="2.05967">
        <ele>511.4</ele>
        <time>2023-10-01T07:48:32Z</time>
      </trkpt>
      <trkpt lat="43.42727" lon="2.05964">
        <ele>512</ele>
        <time>2023-10-01T07:48:33Z</time>
      </trkpt>
      <trkpt lat="43.42728" lon="2.05959">
        <ele>512</ele>
        <time>2023-10-01T07:48:34Z</time>
      </trkpt>
      <trkpt lat="43.42729" lon="2.05955">
        <ele>512.8</ele>
        <time>2023-10-01T07:48:35Z</time>
      </trkpt>
      <trkpt lat="43.42732" lon="2.05951">
        <ele>513.2</ele>
        <time>2023-10-01T07:48:36Z</time>
      </trkpt>
      <trkpt lat="43.42737" lon="2.05947">
        <ele>513.6</ele>
        <time>2023-10-01T07:48:37Z</time>
      </trkpt>
      <trkpt lat="43.42739" lon="2.05943">
        <ele>514</ele>
        <time>2023-10-01T07:48:38Z</time>
      </trkpt>
      <trkpt lat="43.42742" lon="2.05938">
        <ele>514.2</ele>
        <time>2023-10-01T07:48:39Z</time>
      </trkpt>
      <trkpt lat="43.42747" lon="2.05934">
        <ele>514.8</ele>
        <time>2023-10-01T07:48:40Z</time>
      </trkpt>
      <trkpt lat="43.4275" lon="2.0593">
        <ele>515</ele>
        <time>2023-10-01T07:48:41Z</time>
      </trkpt>
      <trkpt lat="43.42752" lon="2.05926">
        <ele>515.4</ele>
        <time>2023-10-01T07:48:42Z</time>
      </trkpt>
      <trkpt lat="43.42754" lon="2.05921">
        <ele>515.8</ele>
        <time>2023-10-01T07:48:43Z</time>
      </trkpt>
      <trkpt lat="43.42756" lon="2.05915">
        <ele>516</ele>
        <time>2023-10-01T07:48:44Z</time>
      </trkpt>
      <trkpt lat="43.42759" lon="2.05911">
        <ele>516.6</ele>
        <time>2023-10-01T07:48:45Z</time>
      </trkpt>
      <trkpt lat="43.42763" lon="2.05908">
        <ele>516.8</ele>
        <time>2023-10-01T07:48:46Z</time>
      </trkpt>
      <trkpt lat="43.42766" lon="2.05905">
        <ele>517.2</ele>
        <time>2023-10-01T07:48:47Z</time>
      </trkpt>
      <trkpt lat="43.42769" lon="2.05903">
        <ele>517.2</ele>
        <time>2023-10-01T07:48:48Z</time>
      </trkpt>
      <trkpt lat="43.42772" lon="2.059">
        <ele>517.4</ele>
        <time>2023-10-01T07:48:49Z</time>
      </trkpt>
      <trkpt lat="43.42775" lon="2.05897">
        <ele>517.8</ele>
        <time>2023-10-01T07:48:50Z</time>
      </trkpt>
      <trkpt lat="43.42778" lon="2.05892">
        <ele>518.2</ele>
        <time>2023-10-01T07:48:51Z</time>
      </trkpt>
      <trkpt lat="43.42781" lon="2.0589">
        <ele>519.2</ele>
        <time>2023-10-01T07:48:52Z</time>
      </trkpt>
      <trkpt lat="43.42784" lon="2.05886">
        <ele>519.4</ele>
        <time>2023-10-01T07:48:53Z</time>
      </trkpt>
      <trkpt lat="43.42786" lon="2.05881">
        <ele>519.8</ele>
        <time>2023-10-01T07:48:54Z</time>
      </trkpt>
      <trkpt lat="43.42789" lon="2.05878">
        <ele>520</ele>
        <time>2023-10-01T07:48:55Z</time>
      </trkpt>
      <trkpt lat="43.42792" lon="2.05874">
        <ele>520.4</ele>
        <time>2023-10-01T07:48:56Z</time>
      </trkpt>
      <trkpt lat="43.42794" lon="2.0587">
        <ele>520.8</ele>
        <time>2023-10-01T07:48:57Z</time>
      </trkpt>
      <trkpt lat="43.42797" lon="2.05869">
        <ele>521</ele>
        <time>2023-10-01T07:48:58Z</time>
      </trkpt>
      <trkpt lat="43.428" lon="2.05867">
        <ele>521.2</ele>
        <time>2023-10-01T07:48:59Z</time>
      </trkpt>
      <trkpt lat="43.42803" lon="2.05864">
        <ele>521.4</ele>
        <time>2023-10-01T07:49:00Z</time>
      </trkpt>
      <trkpt lat="43.42807" lon="2.05861">
        <ele>521.6</ele>
        <time>2023-10-01T07:49:01Z</time>
      </trkpt>
      <trkpt lat="43.4281" lon="2.05859">
        <ele>521.8</ele>
        <time>2023-10-01T07:49:02Z</time>
      </trkpt>
      <trkpt lat="43.42812" lon="2.05857">
        <ele>522.2</ele>
        <time>2023-10-01T07:49:03Z</time>
      </trkpt>
      <trkpt lat="43.42816" lon="2.05856">
        <ele>522.8</ele>
        <time>2023-10-01T07:49:04Z</time>
      </trkpt>
      <trkpt lat="43.4282" lon="2.05852">
        <ele>523</ele>
        <time>2023-10-01T07:49:05Z</time>
      </trkpt>
      <trkpt lat="43.42822" lon="2.05849">
        <ele>523.4</ele>
        <time>2023-10-01T07:49:06Z</time>
      </trkpt>
      <trkpt lat="43.42824" lon="2.05846">
        <ele>523.6</ele>
        <time>2023-10-01T07:49:07Z</time>
      </trkpt>
      <trkpt lat="43.42828" lon="2.05842">
        <ele>524</ele>
        <time>2023-10-01T07:49:08Z</time>
      </trkpt>
      <trkpt lat="43.42831" lon="2.0584">
        <ele>524.2</ele>
        <time>2023-10-01T07:49:09Z</time>
      </trkpt>
      <trkpt lat="43.42835" lon="2.05834">
        <ele>524.8</ele>
        <time>2023-10-01T07:49:10Z</time>
      </trkpt>
      <trkpt lat="43.42839" lon="2.05834">
        <ele>525</ele>
        <time>2023-10-01T07:49:11Z</time>
      </trkpt>
      <trkpt lat="43.42842" lon="2.05831">
        <ele>525.2</ele>
        <time>2023-10-01T07:49:12Z</time>
      </trkpt>
      <trkpt lat="43.42846" lon="2.05829">
        <ele>525.8</ele>
        <time>2023-10-01T07:49:13Z</time>
      </trkpt>
      <trkpt lat="43.42849" lon="2.05828">
        <ele>526</ele>
        <time>2023-10-01T07:49:14Z</time>
      </trkpt>
      <trkpt lat="43.42851" lon="2.05827">
        <ele>526.4</ele>
        <time>2023-10-01T07:49:15Z</time>
      </trkpt>
      <trkpt lat="43.42854" lon="2.05827">
        <ele>526.6</ele>
        <time>2023-10-01T07:49:16Z</time>
      </trkpt>
      <trkpt lat="43.42858" lon="2.05827">
        <ele>527</ele>
        <time>2023-10-01T07:49:17Z</time>
      </trkpt>
      <trkpt lat="43.42862" lon="2.0583">
        <ele>527.2</ele>
        <time>2023-10-01T07:49:18Z</time>
      </trkpt>
      <trkpt lat="43.42866" lon="2.0583">
        <ele>527.8</ele>
        <time>2023-10-01T07:49:19Z</time>
      </trkpt>
      <trkpt lat="43.4287" lon="2.05829">
        <ele>528.6</ele>
        <time>2023-10-01T07:49:20Z</time>
      </trkpt>
      <trkpt lat="43.42873" lon="2.05828">
        <ele>528.8</ele>
        <time>2023-10-01T07:49:21Z</time>
      </trkpt>
      <trkpt lat="43.42876" lon="2.05827">
        <ele>529.4</ele>
        <time>2023-10-01T07:49:22Z</time>
      </trkpt>
      <trkpt lat="43.4288" lon="2.05825">
        <ele>529.6</ele>
        <time>2023-10-01T07:49:23Z</time>
      </trkpt>
      <trkpt lat="43.42884" lon="2.05824">
        <ele>530.2</ele>
        <time>2023-10-01T07:49:24Z</time>
      </trkpt>
      <trkpt lat="43.42887" lon="2.05822">
        <ele>530.4</ele>
        <time>2023-10-01T07:49:25Z</time>
      </trkpt>
      <trkpt lat="43.42891" lon="2.05822">
        <ele>530.8</ele>
        <time>2023-10-01T07:49:26Z</time>
      </trkpt>
      <trkpt lat="43.42895" lon="2.0582">
        <ele>531.4</ele>
        <time>2023-10-01T07:49:27Z</time>
      </trkpt>
      <trkpt lat="43.42898" lon="2.05819">
        <ele>531.8</ele>
        <time>2023-10-01T07:49:28Z</time>
      </trkpt>
      <trkpt lat="43.42902" lon="2.05817">
        <ele>532.4</ele>
        <time>2023-10-01T07:49:29Z</time>
      </trkpt>
      <trkpt lat="43.42906" lon="2.05816">
        <ele>532.4</ele>
        <time>2023-10-01T07:49:30Z</time>
      </trkpt>
      <trkpt lat="43.4291" lon="2.05815">
        <ele>532.8</ele>
        <time>2023-10-01T07:49:31Z</time>
      </trkpt>
      <trkpt lat="43.42913" lon="2.05815">
        <ele>532.8</ele>
        <time>2023-10-01T07:49:32Z</time>
      </trkpt>
      <trkpt lat="43.42916" lon="2.05815">
        <ele>533.2</ele>
        <time>2023-10-01T07:49:33Z</time>
      </trkpt>
      <trkpt lat="43.42919" lon="2.05815">
        <ele>534.2</ele>
        <time>2023-10-01T07:49:34Z</time>
      </trkpt>
      <trkpt lat="43.42922" lon="2.05817">
        <ele>534.6</ele>
        <time>2023-10-01T07:49:35Z</time>
      </trkpt>
      <trkpt lat="43.42926" lon="2.0582">
        <ele>535.4</ele>
        <time>2023-10-01T07:49:36Z</time>
      </trkpt>
      <trkpt lat="43.42928" lon="2.05823">
        <ele>535.6</ele>
        <time>2023-10-01T07:49:37Z</time>
      </trkpt>
      <trkpt lat="43.42929" lon="2.05828">
        <ele>536</ele>
        <time>2023-10-01T07:49:38Z</time>
      </trkpt>
      <trkpt lat="43.4293" lon="2.05832">
        <ele>536.2</ele>
        <time>2023-10-01T07:49:39Z</time>
      </trkpt>
      <trkpt lat="43.4293" lon="2.05836">
        <ele>536.6</ele>
        <time>2023-10-01T07:49:40Z</time>
      </trkpt>
      <trkpt lat="43.4293" lon="2.0584">
        <ele>537</ele>
        <time>2023-10-01T07:49:41Z</time>
      </trkpt>
      <trkpt lat="43.42931" lon="2.05843">
        <ele>537.2</ele>
        <time>2023-10-01T07:49:42Z</time>
      </trkpt>
      <trkpt lat="43.42931" lon="2.05846">
        <ele>537.6</ele>
        <time>2023-10-01T07:49:43Z</time>
      </trkpt>
      <trkpt lat="43.42931" lon="2.0585">
        <ele>538</ele>
        <time>2023-10-01T07:49:44Z</time>
      </trkpt>
      <trkpt lat="43.42931" lon="2.05854">
        <ele>538.4</ele>
        <time>2023-10-01T07:49:45Z</time>
      </trkpt>
      <trkpt lat="43.4293" lon="2.05857">
        <ele>538.6</ele>
        <time>2023-10-01T07:49:46Z</time>
      </trkpt>
      <trkpt lat="43.4293" lon="2.05861">
        <ele>538.8</ele>
        <time>2023-10-01T07:49:47Z</time>
      </trkpt>
      <trkpt lat="43.42931" lon="2.05865">
        <ele>539.2</ele>
        <time>2023-10-01T07:49:48Z</time>
      </trkpt>
      <trkpt lat="43.42932" lon="2.05869">
        <ele>539.4</ele>
        <time>2023-10-01T07:49:49Z</time>
      </trkpt>
      <trkpt lat="43.42933" lon="2.05873">
        <ele>539.6</ele>
        <time>2023-10-01T07:49:50Z</time>
      </trkpt>
      <trkpt lat="43.42934" lon="2.05878">
        <ele>540</ele>
        <time>2023-10-01T07:49:51Z</time>
      </trkpt>
      <trkpt lat="43.42937" lon="2.05885">
        <ele>540.6</ele>
        <time>2023-10-01T07:49:52Z</time>
      </trkpt>
      <trkpt lat="43.42939" lon="2.05892">
        <ele>540.8</ele>
        <time>2023-10-01T07:49:53Z</time>
      </trkpt>
      <trkpt lat="43.4294" lon="2.05898">
        <ele>541.4</ele>
        <time>2023-10-01T07:49:54Z</time>
      </trkpt>
      <trkpt lat="43.42941" lon="2.05902">
        <ele>541.6</ele>
        <time>2023-10-01T07:49:55Z</time>
      </trkpt>
      <trkpt lat="43.42943" lon="2.05908">
        <ele>541.8</ele>
        <time>2023-10-01T07:49:56Z</time>
      </trkpt>
      <trkpt lat="43.42942" lon="2.05911">
        <ele>542</ele>
        <time>2023-10-01T07:49:57Z</time>
      </trkpt>
      <trkpt lat="43.42942" lon="2.05916">
        <ele>542.2</ele>
        <time>2023-10-01T07:49:58Z</time>
      </trkpt>
      <trkpt lat="43.42942" lon="2.05919">
        <ele>542.8</ele>
        <time>2023-10-01T07:49:59Z</time>
      </trkpt>
      <trkpt lat="43.42942" lon="2.05922">
        <ele>543</ele>
        <time>2023-10-01T07:50:00Z</time>
      </trkpt>
      <trkpt lat="43.42942" lon="2.05926">
        <ele>543.8</ele>
        <time>2023-10-01T07:50:01Z</time>
      </trkpt>
      <trkpt lat="43.42941" lon="2.05929">
        <ele>544.2</ele>
        <time>2023-10-01T07:50:02Z</time>
      </trkpt>
      <trkpt lat="43.42941" lon="2.05933">
        <ele>544.4</ele>
        <time>2023-10-01T07:50:03Z</time>
      </trkpt>
      <trkpt lat="43.42941" lon="2.05938">
        <ele>544.8</ele>
        <time>2023-10-01T07:50:04Z</time>
      </trkpt>
      <trkpt lat="43.42941" lon="2.05943">
        <ele>545</ele>
        <time>2023-10-01T07:50:05Z</time>
      </trkpt>
      <trkpt lat="43.42941" lon="2.05948">
        <ele>545.8</ele>
        <time>2023-10-01T07:50:06Z</time>
      </trkpt>
      <trkpt lat="43.42942" lon="2.05953">
        <ele>546</ele>
        <time>2023-10-01T07:50:07Z</time>
      </trkpt>
      <trkpt lat="43.42943" lon="2.05958">
        <ele>546.4</ele>
        <time>2023-10-01T07:50:08Z</time>
      </trkpt>
      <trkpt lat="43.42945" lon="2.05962">
        <ele>546.6</ele>
        <time>2023-10-01T07:50:09Z</time>
      </trkpt>
      <trkpt lat="43.42947" lon="2.05966">
        <ele>546.8</ele>
        <time>2023-10-01T07:50:10Z</time>
      </trkpt>
      <trkpt lat="43.42948" lon="2.0597">
        <ele>547</ele>
        <time>2023-10-01T07:50:11Z</time>
      </trkpt>
      <trkpt lat="43.4295" lon="2.05975">
        <ele>547.2</ele>
        <time>2023-10-01T07:50:12Z</time>
      </trkpt>
      <trkpt lat="43.42951" lon="2.05979">
        <ele>547.6</ele>
        <time>2023-10-01T07:50:13Z</time>
      </trkpt>
      <trkpt lat="43.42953" lon="2.05982">
        <ele>547.8</ele>
        <time>2023-10-01T07:50:14Z</time>
      </trkpt>
      <trkpt lat="43.42955" lon="2.05986">
        <ele>548.2</ele>
        <time>2023-10-01T07:50:15Z</time>
      </trkpt>
      <trkpt lat="43.42957" lon="2.05989">
        <ele>548.4</ele>
        <time>2023-10-01T07:50:16Z</time>
      </trkpt>
      <trkpt lat="43.42959" lon="2.05992">
        <ele>549</ele>
        <time>2023-10-01T07:50:17Z</time>
      </trkpt>
      <trkpt lat="43.42961" lon="2.05995">
        <ele>549.4</ele>
        <time>2023-10-01T07:50:18Z</time>
      </trkpt>
      <trkpt lat="43.42963" lon="2.05998">
        <ele>549.8</ele>
        <time>2023-10-01T07:50:19Z</time>
      </trkpt>
      <trkpt lat="43.42964" lon="2.06002">
        <ele>550.4</ele>
        <time>2023-10-01T07:50:20Z</time>
      </trkpt>
      <trkpt lat="43.42967" lon="2.06006">
        <ele>550.8</ele>
        <time>2023-10-01T07:50:21Z</time>
      </trkpt>
      <trkpt lat="43.42969" lon="2.06011">
        <ele>551.4</ele>
        <time>2023-10-01T07:50:22Z</time>
      </trkpt>
      <trkpt lat="43.42971" lon="2.06015">
        <ele>551.6</ele>
        <time>2023-10-01T07:50:23Z</time>
      </trkpt>
      <trkpt lat="43.42973" lon="2.06021">
        <ele>552</ele>
        <time>2023-10-01T07:50:24Z</time>
      </trkpt>
      <trkpt lat="43.42973" lon="2.06025">
        <ele>552.2</ele>
        <time>2023-10-01T07:50:25Z</time>
      </trkpt>
      <trkpt lat="43.42974" lon="2.0603">
        <ele>552.6</ele>
        <time>2023-10-01T07:50:26Z</time>
      </trkpt>
      <trkpt lat="43.42975" lon="2.06035">
        <ele>553.2</ele>
        <time>2023-10-01T07:50:27Z</time>
      </trkpt>
      <trkpt lat="43.42978" lon="2.0604">
        <ele>553.2</ele>
        <time>2023-10-01T07:50:28Z</time>
      </trkpt>
      <trkpt lat="43.42982" lon="2.06049">
        <ele>553.6</ele>
        <time>2023-10-01T07:50:29Z</time>
      </trkpt>
      <trkpt lat="43.42985" lon="2.06057">
        <ele>553.8</ele>
        <time>2023-10-01T07:50:30Z</time>
      </trkpt>
      <trkpt lat="43.42986" lon="2.06063">
        <ele>554.4</ele>
        <time>2023-10-01T07:50:31Z</time>
      </trkpt>
      <trkpt lat="43.42986" lon="2.06068">
        <ele>554.8</ele>
        <time>2023-10-01T07:50:32Z</time>
      </trkpt>
      <trkpt lat="43.42987" lon="2.06073">
        <ele>555</ele>
        <time>2023-10-01T07:50:33Z</time>
      </trkpt>
      <trkpt lat="43.42987" lon="2.06078">
        <ele>555.4</ele>
        <time>2023-10-01T07:50:34Z</time>
      </trkpt>
      <trkpt lat="43.4299" lon="2.06084">
        <ele>555.8</ele>
        <time>2023-10-01T07:50:35Z</time>
      </trkpt>
      <trkpt lat="43.42994" lon="2.06091">
        <ele>556.2</ele>
        <time>2023-10-01T07:50:36Z</time>
      </trkpt>
      <trkpt lat="43.42997" lon="2.06097">
        <ele>556.4</ele>
        <time>2023-10-01T07:50:37Z</time>
      </trkpt>
      <trkpt lat="43.42998" lon="2.06103">
        <ele>556.6</ele>
        <time>2023-10-01T07:50:38Z</time>
      </trkpt>
      <trkpt lat="43.42997" lon="2.06108">
        <ele>557</ele>
        <time>2023-10-01T07:50:39Z</time>
      </trkpt>
      <trkpt lat="43.42997" lon="2.06114">
        <ele>557.2</ele>
        <time>2023-10-01T07:50:40Z</time>
      </trkpt>
      <trkpt lat="43.42997" lon="2.06121">
        <ele>557.6</ele>
        <time>2023-10-01T07:50:41Z</time>
      </trkpt>
      <trkpt lat="43.42996" lon="2.06128">
        <ele>558</ele>
        <time>2023-10-01T07:50:42Z</time>
      </trkpt>
      <trkpt lat="43.42997" lon="2.06134">
        <ele>558.8</ele>
        <time>2023-10-01T07:50:43Z</time>
      </trkpt>
      <trkpt lat="43.42997" lon="2.06139">
        <ele>559.2</ele>
        <time>2023-10-01T07:50:44Z</time>
      </trkpt>
      <trkpt lat="43.42996" lon="2.06143">
        <ele>559.8</ele>
        <time>2023-10-01T07:50:45Z</time>
      </trkpt>
      <trkpt lat="43.42995" lon="2.06148">
        <ele>560.4</ele>
        <time>2023-10-01T07:50:46Z</time>
      </trkpt>
      <trkpt lat="43.42995" lon="2.06153">
        <ele>560.6</ele>
        <time>2023-10-01T07:50:47Z</time>
      </trkpt>
      <trkpt lat="43.42993" lon="2.06157">
        <ele>561</ele>
        <time>2023-10-01T07:50:48Z</time>
      </trkpt>
      <trkpt lat="43.4299" lon="2.06161">
        <ele>561.4</ele>
        <time>2023-10-01T07:50:49Z</time>
      </trkpt>
      <trkpt lat="43.42989" lon="2.06166">
        <ele>561.8</ele>
        <time>2023-10-01T07:50:50Z</time>
      </trkpt>
      <trkpt lat="43.42987" lon="2.06172">
        <ele>561.8</ele>
        <time>2023-10-01T07:50:51Z</time>
      </trkpt>
      <trkpt lat="43.42986" lon="2.06178">
        <ele>562.4</ele>
        <time>2023-10-01T07:50:52Z</time>
      </trkpt>
      <trkpt lat="43.42984" lon="2.06184">
        <ele>562.8</ele>
        <time>2023-10-01T07:50:53Z</time>
      </trkpt>
      <trkpt lat="43.42982" lon="2.0619">
        <ele>563</ele>
        <time>2023-10-01T07:50:54Z</time>
      </trkpt>
      <trkpt lat="43.4298" lon="2.06195">
        <ele>563.6</ele>
        <time>2023-10-01T07:50:55Z</time>
      </trkpt>
      <trkpt lat="43.42978" lon="2.062">
        <ele>564</ele>
        <time>2023-10-01T07:50:56Z</time>
      </trkpt>
      <trkpt lat="43.42976" lon="2.06209">
        <ele>564.6</ele>
        <time>2023-10-01T07:50:57Z</time>
      </trkpt>
      <trkpt lat="43.42974" lon="2.06215">
        <ele>564.8</ele>
        <time>2023-10-01T07:50:58Z</time>
      </trkpt>
      <trkpt lat="43.42972" lon="2.0622">
        <ele>565.4</ele>
        <time>2023-10-01T07:50:59Z</time>
      </trkpt>
      <trkpt lat="43.42969" lon="2.06225">
        <ele>565.6</ele>
        <time>2023-10-01T07:51:00Z</time>
      </trkpt>
      <trkpt lat="43.42967" lon="2.06231">
        <ele>565.8</ele>
        <time>2023-10-01T07:51:01Z</time>
      </trkpt>
      <trkpt lat="43.42965" lon="2.06236">
        <ele>566.2</ele>
        <time>2023-10-01T07:51:02Z</time>
      </trkpt>
      <trkpt lat="43.42962" lon="2.06242">
        <ele>566.6</ele>
        <time>2023-10-01T07:51:03Z</time>
      </trkpt>
      <trkpt lat="43.42959" lon="2.06245">
        <ele>567</ele>
        <time>2023-10-01T07:51:04Z</time>
      </trkpt>
      <trkpt lat="43.42956" lon="2.06249">
        <ele>567.4</ele>
        <time>2023-10-01T07:51:05Z</time>
      </trkpt>
      <trkpt lat="43.42957" lon="2.06255">
        <ele>567.8</ele>
        <time>2023-10-01T07:51:06Z</time>
      </trkpt>
      <trkpt lat="43.42956" lon="2.0626">
        <ele>568</ele>
        <time>2023-10-01T07:51:07Z</time>
      </trkpt>
      <trkpt lat="43.42954" lon="2.06264">
        <ele>568.6</ele>
        <time>2023-10-01T07:51:08Z</time>
      </trkpt>
      <trkpt lat="43.42951" lon="2.06267">
        <ele>569.2</ele>
        <time>2023-10-01T07:51:09Z</time>
      </trkpt>
      <trkpt lat="43.4295" lon="2.06272">
        <ele>569.4</ele>
        <time>2023-10-01T07:51:10Z</time>
      </trkpt>
      <trkpt lat="43.42949" lon="2.06275">
        <ele>569.8</ele>
        <time>2023-10-01T07:51:11Z</time>
      </trkpt>
      <trkpt lat="43.42948" lon="2.06279">
        <ele>570</ele>
        <time>2023-10-01T07:51:12Z</time>
      </trkpt>
      <trkpt lat="43.42949" lon="2.06284">
        <ele>570.4</ele>
        <time>2023-10-01T07:51:13Z</time>
      </trkpt>
      <trkpt lat="43.42949" lon="2.06289">
        <ele>570.6</ele>
        <time>2023-10-01T07:51:14Z</time>
      </trkpt>
      <trkpt lat="43.42947" lon="2.06293">
        <ele>571</ele>
        <time>2023-10-01T07:51:15Z</time>
      </trkpt>
      <trkpt lat="43.42943" lon="2.06296">
        <ele>571.2</ele>
        <time>2023-10-01T07:51:16Z</time>
      </trkpt>
      <trkpt lat="43.42941" lon="2.06299">
        <ele>571.4</ele>
        <time>2023-10-01T07:51:17Z</time>
      </trkpt>
      <trkpt lat="43.42939" lon="2.06303">
        <ele>572</ele>
        <time>2023-10-01T07:51:18Z</time>
      </trkpt>
      <trkpt lat="43.42939" lon="2.06307">
        <ele>572.4</ele>
        <time>2023-10-01T07:51:19Z</time>
      </trkpt>
      <trkpt lat="43.42938" lon="2.0631">
        <ele>572.8</ele>
        <time>2023-10-01T07:51:20Z</time>
      </trkpt>
      <trkpt lat="43.42938" lon="2.06314">
        <ele>573</ele>
        <time>2023-10-01T07:51:21Z</time>
      </trkpt>
      <trkpt lat="43.42937" lon="2.06321">
        <ele>573.4</ele>
        <time>2023-10-01T07:51:22Z</time>
      </trkpt>
      <trkpt lat="43.42936" lon="2.06324">
        <ele>573.6</ele>
        <time>2023-10-01T07:51:23Z</time>
      </trkpt>
      <trkpt lat="43.42935" lon="2.06328">
        <ele>573.8</ele>
        <time>2023-10-01T07:51:24Z</time>
      </trkpt>
      <trkpt lat="43.42934" lon="2.06331">
        <ele>574.2</ele>
        <time>2023-10-01T07:51:25Z</time>
      </trkpt>
      <trkpt lat="43.42933" lon="2.06334">
        <ele>574.4</ele>
        <time>2023-10-01T07:51:26Z</time>
      </trkpt>
      <trkpt lat="43.42932" lon="2.06338">
        <ele>574.6</ele>
        <time>2023-10-01T07:51:27Z</time>
      </trkpt>
      <trkpt lat="43.42932" lon="2.06341">
        <ele>574.8</ele>
        <time>2023-10-01T07:51:28Z</time>
      </trkpt>
      <trkpt lat="43.42931" lon="2.06344">
        <ele>575.4</ele>
        <time>2023-10-01T07:51:29Z</time>
      </trkpt>
      <trkpt lat="43.4293" lon="2.06346">
        <ele>575.8</ele>
        <time>2023-10-01T07:51:30Z</time>
      </trkpt>
      <trkpt lat="43.4293" lon="2.06348">
        <ele>576</ele>
        <time>2023-10-01T07:51:31Z</time>
      </trkpt>
      <trkpt lat="43.42929" lon="2.06352">
        <ele>576.4</ele>
        <time>2023-10-01T07:51:32Z</time>
      </trkpt>
      <trkpt lat="43.42929" lon="2.06356">
        <ele>576.6</ele>
        <time>2023-10-01T07:51:33Z</time>
      </trkpt>
      <trkpt lat="43.42929" lon="2.0636">
        <ele>576.8</ele>
        <time>2023-10-01T07:51:34Z</time>
      </trkpt>
      <trkpt lat="43.42931" lon="2.06364">
        <ele>577</ele>
        <time>2023-10-01T07:51:35Z</time>
      </trkpt>
      <trkpt lat="43.42936" lon="2.06373">
        <ele>577.2</ele>
        <time>2023-10-01T07:51:36Z</time>
      </trkpt>
      <trkpt lat="43.4294" lon="2.06378">
        <ele>577.4</ele>
        <time>2023-10-01T07:51:37Z</time>
      </trkpt>
      <trkpt lat="43.42943" lon="2.06384">
        <ele>577.6</ele>
        <time>2023-10-01T07:51:38Z</time>
      </trkpt>
      <trkpt lat="43.42947" lon="2.0639">
        <ele>577.8</ele>
        <time>2023-10-01T07:51:39Z</time>
      </trkpt>
      <trkpt lat="43.4295" lon="2.06395">
        <ele>577.8</ele>
        <time>2023-10-01T07:51:40Z</time>
      </trkpt>
      <trkpt lat="43.42953" lon="2.06401">
        <ele>578</ele>
        <time>2023-10-01T07:51:41Z</time>
      </trkpt>
      <trkpt lat="43.42955" lon="2.06406">
        <ele>578</ele>
        <time>2023-10-01T07:51:42Z</time>
      </trkpt>
      <trkpt lat="43.42955" lon="2.06411">
        <ele>578.2</ele>
        <time>2023-10-01T07:51:43Z</time>
      </trkpt>
      <trkpt lat="43.42956" lon="2.06418">
        <ele>578.2</ele>
        <time>2023-10-01T07:51:44Z</time>
      </trkpt>
      <trkpt lat="43.42957" lon="2.06423">
        <ele>578.2</ele>
        <time>2023-10-01T07:51:45Z</time>
      </trkpt>
      <trkpt lat="43.42957" lon="2.06429">
        <ele>578.4</ele>
        <time>2023-10-01T07:51:46Z</time>
      </trkpt>
      <trkpt lat="43.42958" lon="2.06434">
        <ele>578.6</ele>
        <time>2023-10-01T07:51:47Z</time>
      </trkpt>
      <trkpt lat="43.42961" lon="2.06441">
        <ele>578.8</ele>
        <time>2023-10-01T07:51:48Z</time>
      </trkpt>
      <trkpt lat="43.42963" lon="2.06447">
        <ele>578.8</ele>
        <time>2023-10-01T07:51:49Z</time>
      </trkpt>
      <trkpt lat="43.42965" lon="2.06454">
        <ele>579</ele>
        <time>2023-10-01T07:51:50Z</time>
      </trkpt>
      <trkpt lat="43.42968" lon="2.0646">
        <ele>579</ele>
        <time>2023-10-01T07:51:51Z</time>
      </trkpt>
      <trkpt lat="43.42968" lon="2.06463">
        <ele>579</ele>
        <time>2023-10-01T07:51:52Z</time>
      </trkpt>
      <trkpt lat="43.42968" lon="2.06468">
        <ele>579.4</ele>
        <time>2023-10-01T07:51:53Z</time>
      </trkpt>
      <trkpt lat="43.42968" lon="2.06472">
        <ele>579.6</ele>
        <time>2023-10-01T07:51:54Z</time>
      </trkpt>
      <trkpt lat="43.42974" lon="2.06481">
        <ele>579.8</ele>
        <time>2023-10-01T07:51:55Z</time>
      </trkpt>
      <trkpt lat="43.42977" lon="2.06488">
        <ele>579.8</ele>
        <time>2023-10-01T07:51:56Z</time>
      </trkpt>
      <trkpt lat="43.42981" lon="2.06495">
        <ele>580</ele>
        <time>2023-10-01T07:51:57Z</time>
      </trkpt>
      <trkpt lat="43.42982" lon="2.065">
        <ele>580.2</ele>
        <time>2023-10-01T07:51:58Z</time>
      </trkpt>
      <trkpt lat="43.42983" lon="2.06506">
        <ele>580.4</ele>
        <time>2023-10-01T07:51:59Z</time>
      </trkpt>
      <trkpt lat="43.42984" lon="2.06511">
        <ele>580.6</ele>
        <time>2023-10-01T07:52:00Z</time>
      </trkpt>
      <trkpt lat="43.42985" lon="2.06515">
        <ele>580.6</ele>
        <time>2023-10-01T07:52:01Z</time>
      </trkpt>
      <trkpt lat="43.42989" lon="2.06518">
        <ele>580.6</ele>
        <time>2023-10-01T07:52:02Z</time>
      </trkpt>
      <trkpt lat="43.42991" lon="2.06519">
        <ele>580.8</ele>
        <time>2023-10-01T07:52:03Z</time>
      </trkpt>
      <trkpt lat="43.42994" lon="2.06521">
        <ele>581</ele>
        <time>2023-10-01T07:52:04Z</time>
      </trkpt>
      <trkpt lat="43.42997" lon="2.06523">
        <ele>581.2</ele>
        <time>2023-10-01T07:52:05Z</time>
      </trkpt>
      <trkpt lat="43.43" lon="2.06525">
        <ele>581.4</ele>
        <time>2023-10-01T07:52:06Z</time>
      </trkpt>
      <trkpt lat="43.43004" lon="2.06528">
        <ele>581.6</ele>
        <time>2023-10-01T07:52:07Z</time>
      </trkpt>
      <trkpt lat="43.43008" lon="2.06532">
        <ele>582</ele>
        <time>2023-10-01T07:52:08Z</time>
      </trkpt>
      <trkpt lat="43.4301" lon="2.06535">
        <ele>582.4</ele>
        <time>2023-10-01T07:52:09Z</time>
      </trkpt>
      <trkpt lat="43.43011" lon="2.06537">
        <ele>582.4</ele>
        <time>2023-10-01T07:52:10Z</time>
      </trkpt>
      <trkpt lat="43.43013" lon="2.0654">
        <ele>582.6</ele>
        <time>2023-10-01T07:52:11Z</time>
      </trkpt>
      <trkpt lat="43.43015" lon="2.06542">
        <ele>582.8</ele>
        <time>2023-10-01T07:52:12Z</time>
      </trkpt>
      <trkpt lat="43.43017" lon="2.06544">
        <ele>583</ele>
        <time>2023-10-01T07:52:13Z</time>
      </trkpt>
      <trkpt lat="43.4302" lon="2.06546">
        <ele>583</ele>
        <time>2023-10-01T07:52:14Z</time>
      </trkpt>
      <trkpt lat="43.43023" lon="2.06549">
        <ele>583</ele>
        <time>2023-10-01T07:52:15Z</time>
      </trkpt>
      <trkpt lat="43.43025" lon="2.06551">
        <ele>583.4</ele>
        <time>2023-10-01T07:52:16Z</time>
      </trkpt>
      <trkpt lat="43.43028" lon="2.06553">
        <ele>583.4</ele>
        <time>2023-10-01T07:52:17Z</time>
      </trkpt>
      <trkpt lat="43.4303" lon="2.06555">
        <ele>583.4</ele>
        <time>2023-10-01T07:52:18Z</time>
      </trkpt>
      <trkpt lat="43.43035" lon="2.06558">
        <ele>583.6</ele>
        <time>2023-10-01T07:52:19Z</time>
      </trkpt>
      <trkpt lat="43.43039" lon="2.0656">
        <ele>583.8</ele>
        <time>2023-10-01T07:52:20Z</time>
      </trkpt>
      <trkpt lat="43.43043" lon="2.06561">
        <ele>584</ele>
        <time>2023-10-01T07:52:21Z</time>
      </trkpt>
      <trkpt lat="43.43046" lon="2.06563">
        <ele>584.2</ele>
        <time>2023-10-01T07:52:22Z</time>
      </trkpt>
      <trkpt lat="43.43051" lon="2.06564">
        <ele>584.2</ele>
        <time>2023-10-01T07:52:23Z</time>
      </trkpt>
      <trkpt lat="43.43059" lon="2.06565">
        <ele>584.4</ele>
        <time>2023-10-01T07:52:24Z</time>
      </trkpt>
      <trkpt lat="43.43065" lon="2.06565">
        <ele>584.4</ele>
        <time>2023-10-01T07:52:25Z</time>
      </trkpt>
      <trkpt lat="43.43071" lon="2.06564">
        <ele>584.4</ele>
        <time>2023-10-01T07:52:26Z</time>
      </trkpt>
      <trkpt lat="43.43078" lon="2.06564">
        <ele>584.4</ele>
        <time>2023-10-01T07:52:27Z</time>
      </trkpt>
      <trkpt lat="43.43084" lon="2.06562">
        <ele>584.6</ele>
        <time>2023-10-01T07:52:28Z</time>
      </trkpt>
      <trkpt lat="43.43089" lon="2.06561">
        <ele>584.6</ele>
        <time>2023-10-01T07:52:29Z</time>
      </trkpt>
      <trkpt lat="43.43095" lon="2.06561">
        <ele>584.4</ele>
        <time>2023-10-01T07:52:30Z</time>
      </trkpt>
      <trkpt lat="43.43102" lon="2.06562">
        <ele>584.2</ele>
        <time>2023-10-01T07:52:31Z</time>
      </trkpt>
      <trkpt lat="43.4311" lon="2.06563">
        <ele>583</ele>
        <time>2023-10-01T07:52:32Z</time>
      </trkpt>
      <trkpt lat="43.43117" lon="2.06564">
        <ele>582.4</ele>
        <time>2023-10-01T07:52:33Z</time>
      </trkpt>
      <trkpt lat="43.43125" lon="2.06565">
        <ele>581.6</ele>
        <time>2023-10-01T07:52:34Z</time>
      </trkpt>
      <trkpt lat="43.43131" lon="2.06563">
        <ele>581.4</ele>
        <time>2023-10-01T07:52:35Z</time>
      </trkpt>
      <trkpt lat="43.43137" lon="2.06561">
        <ele>581.2</ele>
        <time>2023-10-01T07:52:36Z</time>
      </trkpt>
      <trkpt lat="43.43143" lon="2.06559">
        <ele>580.4</ele>
        <time>2023-10-01T07:52:37Z</time>
      </trkpt>
      <trkpt lat="43.43149" lon="2.06557">
        <ele>580</ele>
        <time>2023-10-01T07:52:38Z</time>
      </trkpt>
      <trkpt lat="43.43156" lon="2.06555">
        <ele>578.8</ele>
        <time>2023-10-01T07:52:39Z</time>
      </trkpt>
      <trkpt lat="43.43163" lon="2.06553">
        <ele>578.2</ele>
        <time>2023-10-01T07:52:40Z</time>
      </trkpt>
      <trkpt lat="43.43172" lon="2.06551">
        <ele>577.2</ele>
        <time>2023-10-01T07:52:41Z</time>
      </trkpt>
      <trkpt lat="43.4318" lon="2.06549">
        <ele>576.2</ele>
        <time>2023-10-01T07:52:42Z</time>
      </trkpt>
      <trkpt lat="43.43189" lon="2.06547">
        <ele>574.8</ele>
        <time>2023-10-01T07:52:43Z</time>
      </trkpt>
      <trkpt lat="43.43198" lon="2.06545">
        <ele>572.6</ele>
        <time>2023-10-01T07:52:44Z</time>
      </trkpt>
      <trkpt lat="43.43206" lon="2.06541">
        <ele>571.4</ele>
        <time>2023-10-01T07:52:45Z</time>
      </trkpt>
      <trkpt lat="43.43212" lon="2.06535">
        <ele>569.4</ele>
        <time>2023-10-01T07:52:46Z</time>
      </trkpt>
      <trkpt lat="43.43218" lon="2.06529">
        <ele>568.2</ele>
        <time>2023-10-01T07:52:47Z</time>
      </trkpt>
      <trkpt lat="43.43225" lon="2.06522">
        <ele>566.4</ele>
        <time>2023-10-01T07:52:48Z</time>
      </trkpt>
      <trkpt lat="43.43232" lon="2.06515">
        <ele>565.8</ele>
        <time>2023-10-01T07:52:49Z</time>
      </trkpt>
      <trkpt lat="43.43243" lon="2.06508">
        <ele>564.8</ele>
        <time>2023-10-01T07:52:50Z</time>
      </trkpt>
      <trkpt lat="43.43255" lon="2.06504">
        <ele>562.2</ele>
        <time>2023-10-01T07:52:51Z</time>
      </trkpt>
      <trkpt lat="43.43268" lon="2.06492">
        <ele>560</ele>
        <time>2023-10-01T07:52:53Z</time>
      </trkpt>
      <trkpt lat="43.43275" lon="2.06486">
        <ele>559.2</ele>
        <time>2023-10-01T07:52:54Z</time>
      </trkpt>
      <trkpt lat="43.43281" lon="2.06479">
        <ele>557</ele>
        <time>2023-10-01T07:52:55Z</time>
      </trkpt>
      <trkpt lat="43.43286" lon="2.06471">
        <ele>556</ele>
        <time>2023-10-01T07:52:56Z</time>
      </trkpt>
      <trkpt lat="43.43293" lon="2.06464">
        <ele>554.4</ele>
        <time>2023-10-01T07:52:57Z</time>
      </trkpt>
      <trkpt lat="43.43297" lon="2.06458">
        <ele>552.8</ele>
        <time>2023-10-01T07:52:58Z</time>
      </trkpt>
      <trkpt lat="43.43304" lon="2.0645">
        <ele>552</ele>
        <time>2023-10-01T07:52:59Z</time>
      </trkpt>
      <trkpt lat="43.4331" lon="2.06442">
        <ele>551</ele>
        <time>2023-10-01T07:53:00Z</time>
      </trkpt>
      <trkpt lat="43.43315" lon="2.06436">
        <ele>550.4</ele>
        <time>2023-10-01T07:53:01Z</time>
      </trkpt>
      <trkpt lat="43.43318" lon="2.06433">
        <ele>549.2</ele>
        <time>2023-10-01T07:53:02Z</time>
      </trkpt>
      <trkpt lat="43.4332" lon="2.06433">
        <ele>548.6</ele>
        <time>2023-10-01T07:53:03Z</time>
      </trkpt>
      <trkpt lat="43.43323" lon="2.06436">
        <ele>547.6</ele>
        <time>2023-10-01T07:53:04Z</time>
      </trkpt>
      <trkpt lat="43.43321" lon="2.06441">
        <ele>546.2</ele>
        <time>2023-10-01T07:53:05Z</time>
      </trkpt>
      <trkpt lat="43.43319" lon="2.06448">
        <ele>545.4</ele>
        <time>2023-10-01T07:53:06Z</time>
      </trkpt>
      <trkpt lat="43.43319" lon="2.06456">
        <ele>544.2</ele>
        <time>2023-10-01T07:53:07Z</time>
      </trkpt>
      <trkpt lat="43.43321" lon="2.06472">
        <ele>542.8</ele>
        <time>2023-10-01T07:53:09Z</time>
      </trkpt>
      <trkpt lat="43.43323" lon="2.06482">
        <ele>542.4</ele>
        <time>2023-10-01T07:53:10Z</time>
      </trkpt>
      <trkpt lat="43.43324" lon="2.06489">
        <ele>541.2</ele>
        <time>2023-10-01T07:53:11Z</time>
      </trkpt>
      <trkpt lat="43.43325" lon="2.06497">
        <ele>540</ele>
        <time>2023-10-01T07:53:12Z</time>
      </trkpt>
      <trkpt lat="43.43326" lon="2.06503">
        <ele>539.6</ele>
        <time>2023-10-01T07:53:13Z</time>
      </trkpt>
      <trkpt lat="43.43328" lon="2.06511">
        <ele>538.2</ele>
        <time>2023-10-01T07:53:14Z</time>
      </trkpt>
      <trkpt lat="43.43334" lon="2.06542">
        <ele>537</ele>
        <time>2023-10-01T07:53:17Z</time>
      </trkpt>
      <trkpt lat="43.43335" lon="2.06551">
        <ele>536</ele>
        <time>2023-10-01T07:53:18Z</time>
      </trkpt>
      <trkpt lat="43.43335" lon="2.0656">
        <ele>535.6</ele>
        <time>2023-10-01T07:53:19Z</time>
      </trkpt>
      <trkpt lat="43.43337" lon="2.06568">
        <ele>533.4</ele>
        <time>2023-10-01T07:53:20Z</time>
      </trkpt>
      <trkpt lat="43.4334" lon="2.06577">
        <ele>531.6</ele>
        <time>2023-10-01T07:53:21Z</time>
      </trkpt>
      <trkpt lat="43.43341" lon="2.06585">
        <ele>531.2</ele>
        <time>2023-10-01T07:53:22Z</time>
      </trkpt>
      <trkpt lat="43.43341" lon="2.06589">
        <ele>530.2</ele>
        <time>2023-10-01T07:53:23Z</time>
      </trkpt>
      <trkpt lat="43.43341" lon="2.06593">
        <ele>529.8</ele>
        <time>2023-10-01T07:53:24Z</time>
      </trkpt>
      <trkpt lat="43.43342" lon="2.06598">
        <ele>529</ele>
        <time>2023-10-01T07:53:25Z</time>
      </trkpt>
      <trkpt lat="43.43343" lon="2.06602">
        <ele>528.8</ele>
        <time>2023-10-01T07:53:26Z</time>
      </trkpt>
      <trkpt lat="43.43343" lon="2.06605">
        <ele>527.4</ele>
        <time>2023-10-01T07:53:27Z</time>
      </trkpt>
      <trkpt lat="43.43346" lon="2.06607">
        <ele>526</ele>
        <time>2023-10-01T07:53:28Z</time>
      </trkpt>
      <trkpt lat="43.43349" lon="2.06611">
        <ele>525.8</ele>
        <time>2023-10-01T07:53:29Z</time>
      </trkpt>
      <trkpt lat="43.43353" lon="2.06614">
        <ele>525.2</ele>
        <time>2023-10-01T07:53:30Z</time>
      </trkpt>
      <trkpt lat="43.43359" lon="2.06618">
        <ele>525</ele>
        <time>2023-10-01T07:53:31Z</time>
      </trkpt>
      <trkpt lat="43.43363" lon="2.06621">
        <ele>524.4</ele>
        <time>2023-10-01T07:53:32Z</time>
      </trkpt>
      <trkpt lat="43.43367" lon="2.0662">
        <ele>523.8</ele>
        <time>2023-10-01T07:53:33Z</time>
      </trkpt>
      <trkpt lat="43.4337" lon="2.06621">
        <ele>522</ele>
        <time>2023-10-01T07:53:34Z</time>
      </trkpt>
      <trkpt lat="43.43373" lon="2.06622">
        <ele>521</ele>
        <time>2023-10-01T07:53:35Z</time>
      </trkpt>
      <trkpt lat="43.43376" lon="2.06623">
        <ele>520.6</ele>
        <time>2023-10-01T07:53:36Z</time>
      </trkpt>
      <trkpt lat="43.43379" lon="2.06623">
        <ele>519.8</ele>
        <time>2023-10-01T07:53:37Z</time>
      </trkpt>
      <trkpt lat="43.43383" lon="2.0662">
        <ele>519.4</ele>
        <time>2023-10-01T07:53:38Z</time>
      </trkpt>
      <trkpt lat="43.43386" lon="2.06617">
        <ele>517.8</ele>
        <time>2023-10-01T07:53:39Z</time>
      </trkpt>
      <trkpt lat="43.43389" lon="2.06614">
        <ele>517.2</ele>
        <time>2023-10-01T07:53:40Z</time>
      </trkpt>
      <trkpt lat="43.43392" lon="2.06611">
        <ele>516</ele>
        <time>2023-10-01T07:53:41Z</time>
      </trkpt>
      <trkpt lat="43.43397" lon="2.06606">
        <ele>515</ele>
        <time>2023-10-01T07:53:42Z</time>
      </trkpt>
      <trkpt lat="43.43399" lon="2.06601">
        <ele>514.4</ele>
        <time>2023-10-01T07:53:43Z</time>
      </trkpt>
      <trkpt lat="43.43404" lon="2.06596">
        <ele>513.8</ele>
        <time>2023-10-01T07:53:44Z</time>
      </trkpt>
      <trkpt lat="43.43407" lon="2.06587">
        <ele>512.8</ele>
        <time>2023-10-01T07:53:46Z</time>
      </trkpt>
      <trkpt lat="43.43409" lon="2.06581">
        <ele>512.2</ele>
        <time>2023-10-01T07:53:47Z</time>
      </trkpt>
      <trkpt lat="43.4341" lon="2.06577">
        <ele>510.8</ele>
        <time>2023-10-01T07:53:48Z</time>
      </trkpt>
      <trkpt lat="43.43414" lon="2.06572">
        <ele>508.4</ele>
        <time>2023-10-01T07:53:49Z</time>
      </trkpt>
      <trkpt lat="43.43415" lon="2.06566">
        <ele>507</ele>
        <time>2023-10-01T07:53:50Z</time>
      </trkpt>
      <trkpt lat="43.43416" lon="2.06559">
        <ele>505.4</ele>
        <time>2023-10-01T07:53:51Z</time>
      </trkpt>
      <trkpt lat="43.43419" lon="2.06548">
        <ele>504.2</ele>
        <time>2023-10-01T07:53:53Z</time>
      </trkpt>
      <trkpt lat="43.43419" lon="2.06544">
        <ele>503.6</ele>
        <time>2023-10-01T07:53:54Z</time>
      </trkpt>
      <trkpt lat="43.43422" lon="2.06538">
        <ele>502.8</ele>
        <time>2023-10-01T07:53:55Z</time>
      </trkpt>
      <trkpt lat="43.43424" lon="2.06533">
        <ele>502.2</ele>
        <time>2023-10-01T07:53:56Z</time>
      </trkpt>
      <trkpt lat="43.43425" lon="2.0653">
        <ele>501.6</ele>
        <time>2023-10-01T07:53:57Z</time>
      </trkpt>
      <trkpt lat="43.43427" lon="2.0653">
        <ele>500.8</ele>
        <time>2023-10-01T07:53:58Z</time>
      </trkpt>
      <trkpt lat="43.43429" lon="2.06532">
        <ele>499.8</ele>
        <time>2023-10-01T07:54:00Z</time>
      </trkpt>
      <trkpt lat="43.43429" lon="2.06537">
        <ele>498.4</ele>
        <time>2023-10-01T07:54:02Z</time>
      </trkpt>
      <trkpt lat="43.43431" lon="2.06546">
        <ele>497.4</ele>
        <time>2023-10-01T07:54:06Z</time>
      </trkpt>
      <trkpt lat="43.43431" lon="2.06549">
        <ele>497.2</ele>
        <time>2023-10-01T07:54:07Z</time>
      </trkpt>
      <trkpt lat="43.4343" lon="2.06551">
        <ele>497.2</ele>
        <time>2023-10-01T07:54:08Z</time>
      </trkpt>
      <trkpt lat="43.43431" lon="2.06555">
        <ele>497</ele>
        <time>2023-10-01T07:54:09Z</time>
      </trkpt>
      <trkpt lat="43.43435" lon="2.06566">
        <ele>497</ele>
        <time>2023-10-01T07:54:11Z</time>
      </trkpt>
      <trkpt lat="43.43439" lon="2.0657">
        <ele>497</ele>
        <time>2023-10-01T07:54:12Z</time>
      </trkpt>
      <trkpt lat="43.43443" lon="2.06575">
        <ele>497</ele>
        <time>2023-10-01T07:54:13Z</time>
      </trkpt>
      <trkpt lat="43.43447" lon="2.0658">
        <ele>496.8</ele>
        <time>2023-10-01T07:54:14Z</time>
      </trkpt>
      <trkpt lat="43.4345" lon="2.06585">
        <ele>496.8</ele>
        <time>2023-10-01T07:54:15Z</time>
      </trkpt>
      <trkpt lat="43.43462" lon="2.06602">
        <ele>497</ele>
        <time>2023-10-01T07:54:18Z</time>
      </trkpt>
      <trkpt lat="43.43468" lon="2.06617">
        <ele>496.8</ele>
        <time>2023-10-01T07:54:20Z</time>
      </trkpt>
      <trkpt lat="43.43469" lon="2.06626">
        <ele>496.8</ele>
        <time>2023-10-01T07:54:21Z</time>
      </trkpt>
      <trkpt lat="43.43469" lon="2.06634">
        <ele>496.8</ele>
        <time>2023-10-01T07:54:22Z</time>
      </trkpt>
      <trkpt lat="43.43467" lon="2.06643">
        <ele>497</ele>
        <time>2023-10-01T07:54:23Z</time>
      </trkpt>
      <trkpt lat="43.43464" lon="2.06651">
        <ele>497</ele>
        <time>2023-10-01T07:54:24Z</time>
      </trkpt>
      <trkpt lat="43.43461" lon="2.06658">
        <ele>497</ele>
        <time>2023-10-01T07:54:25Z</time>
      </trkpt>
      <trkpt lat="43.43457" lon="2.06663">
        <ele>497</ele>
        <time>2023-10-01T07:54:26Z</time>
      </trkpt>
      <trkpt lat="43.43452" lon="2.06668">
        <ele>497</ele>
        <time>2023-10-01T07:54:27Z</time>
      </trkpt>
      <trkpt lat="43.43447" lon="2.06672">
        <ele>496.8</ele>
        <time>2023-10-01T07:54:28Z</time>
      </trkpt>
      <trkpt lat="43.43441" lon="2.06675">
        <ele>496.8</ele>
        <time>2023-10-01T07:54:29Z</time>
      </trkpt>
      <trkpt lat="43.43435" lon="2.06677">
        <ele>496.6</ele>
        <time>2023-10-01T07:54:30Z</time>
      </trkpt>
      <trkpt lat="43.43423" lon="2.06684">
        <ele>496.4</ele>
        <time>2023-10-01T07:54:32Z</time>
      </trkpt>
      <trkpt lat="43.43382" lon="2.0671">
        <ele>496.4</ele>
        <time>2023-10-01T07:54:39Z</time>
      </trkpt>
      <trkpt lat="43.4334" lon="2.06721">
        <ele>496</ele>
        <time>2023-10-01T07:54:46Z</time>
      </trkpt>
      <trkpt lat="43.43322" lon="2.06718">
        <ele>495.8</ele>
        <time>2023-10-01T07:54:49Z</time>
      </trkpt>
      <trkpt lat="43.43309" lon="2.06718">
        <ele>495.8</ele>
        <time>2023-10-01T07:54:51Z</time>
      </trkpt>
      <trkpt lat="43.43303" lon="2.06721">
        <ele>495.8</ele>
        <time>2023-10-01T07:54:52Z</time>
      </trkpt>
      <trkpt lat="43.43297" lon="2.06725">
        <ele>495.6</ele>
        <time>2023-10-01T07:54:53Z</time>
      </trkpt>
      <trkpt lat="43.43291" lon="2.06729">
        <ele>495.6</ele>
        <time>2023-10-01T07:54:54Z</time>
      </trkpt>
      <trkpt lat="43.43284" lon="2.06733">
        <ele>495.6</ele>
        <time>2023-10-01T07:54:55Z</time>
      </trkpt>
      <trkpt lat="43.43272" lon="2.06742">
        <ele>495.2</ele>
        <time>2023-10-01T07:54:57Z</time>
      </trkpt>
      <trkpt lat="43.43258" lon="2.06746">
        <ele>494.8</ele>
        <time>2023-10-01T07:54:59Z</time>
      </trkpt>
      <trkpt lat="43.43251" lon="2.06746">
        <ele>494.4</ele>
        <time>2023-10-01T07:55:00Z</time>
      </trkpt>
      <trkpt lat="43.43244" lon="2.06744">
        <ele>494</ele>
        <time>2023-10-01T07:55:01Z</time>
      </trkpt>
      <trkpt lat="43.43238" lon="2.0674">
        <ele>494</ele>
        <time>2023-10-01T07:55:02Z</time>
      </trkpt>
      <trkpt lat="43.43231" lon="2.06737">
        <ele>493.6</ele>
        <time>2023-10-01T07:55:03Z</time>
      </trkpt>
      <trkpt lat="43.43223" lon="2.06735">
        <ele>493.4</ele>
        <time>2023-10-01T07:55:04Z</time>
      </trkpt>
      <trkpt lat="43.43214" lon="2.06736">
        <ele>493</ele>
        <time>2023-10-01T07:55:05Z</time>
      </trkpt>
      <trkpt lat="43.43207" lon="2.06739">
        <ele>492.8</ele>
        <time>2023-10-01T07:55:06Z</time>
      </trkpt>
      <trkpt lat="43.432" lon="2.06746">
        <ele>492</ele>
        <time>2023-10-01T07:55:07Z</time>
      </trkpt>
      <trkpt lat="43.43194" lon="2.06753">
        <ele>491.2</ele>
        <time>2023-10-01T07:55:08Z</time>
      </trkpt>
      <trkpt lat="43.43189" lon="2.0676">
        <ele>491</ele>
        <time>2023-10-01T07:55:09Z</time>
      </trkpt>
      <trkpt lat="43.43182" lon="2.06764">
        <ele>490.4</ele>
        <time>2023-10-01T07:55:10Z</time>
      </trkpt>
      <trkpt lat="43.43175" lon="2.06766">
        <ele>490.2</ele>
        <time>2023-10-01T07:55:11Z</time>
      </trkpt>
      <trkpt lat="43.43169" lon="2.06766">
        <ele>489.8</ele>
        <time>2023-10-01T07:55:12Z</time>
      </trkpt>
      <trkpt lat="43.43162" lon="2.06765">
        <ele>489.6</ele>
        <time>2023-10-01T07:55:13Z</time>
      </trkpt>
      <trkpt lat="43.43154" lon="2.06763">
        <ele>488.6</ele>
        <time>2023-10-01T07:55:14Z</time>
      </trkpt>
      <trkpt lat="43.43147" lon="2.06764">
        <ele>488</ele>
        <time>2023-10-01T07:55:15Z</time>
      </trkpt>
      <trkpt lat="43.43141" lon="2.06767">
        <ele>487.6</ele>
        <time>2023-10-01T07:55:16Z</time>
      </trkpt>
      <trkpt lat="43.43137" lon="2.06773">
        <ele>487.2</ele>
        <time>2023-10-01T07:55:17Z</time>
      </trkpt>
      <trkpt lat="43.43133" lon="2.06781">
        <ele>486.8</ele>
        <time>2023-10-01T07:55:18Z</time>
      </trkpt>
      <trkpt lat="43.43131" lon="2.0679">
        <ele>486.2</ele>
        <time>2023-10-01T07:55:19Z</time>
      </trkpt>
      <trkpt lat="43.43127" lon="2.0681">
        <ele>485.6</ele>
        <time>2023-10-01T07:55:21Z</time>
      </trkpt>
      <trkpt lat="43.43124" lon="2.0682">
        <ele>485.2</ele>
        <time>2023-10-01T07:55:22Z</time>
      </trkpt>
      <trkpt lat="43.43119" lon="2.06829">
        <ele>484.8</ele>
        <time>2023-10-01T07:55:23Z</time>
      </trkpt>
      <trkpt lat="43.43114" lon="2.06837">
        <ele>483.8</ele>
        <time>2023-10-01T07:55:24Z</time>
      </trkpt>
      <trkpt lat="43.43109" lon="2.06845">
        <ele>483.6</ele>
        <time>2023-10-01T07:55:25Z</time>
      </trkpt>
      <trkpt lat="43.43103" lon="2.06852">
        <ele>483</ele>
        <time>2023-10-01T07:55:26Z</time>
      </trkpt>
      <trkpt lat="43.43098" lon="2.06857">
        <ele>482.8</ele>
        <time>2023-10-01T07:55:27Z</time>
      </trkpt>
      <trkpt lat="43.43092" lon="2.06861">
        <ele>482.4</ele>
        <time>2023-10-01T07:55:28Z</time>
      </trkpt>
      <trkpt lat="43.43086" lon="2.06863">
        <ele>482.2</ele>
        <time>2023-10-01T07:55:29Z</time>
      </trkpt>
      <trkpt lat="43.43079" lon="2.06863">
        <ele>481.8</ele>
        <time>2023-10-01T07:55:30Z</time>
      </trkpt>
      <trkpt lat="43.43072" lon="2.06861">
        <ele>481</ele>
        <time>2023-10-01T07:55:31Z</time>
      </trkpt>
      <trkpt lat="43.43066" lon="2.06858">
        <ele>480.6</ele>
        <time>2023-10-01T07:55:32Z</time>
      </trkpt>
      <trkpt lat="43.43058" lon="2.06854">
        <ele>480</ele>
        <time>2023-10-01T07:55:33Z</time>
      </trkpt>
      <trkpt lat="43.4305" lon="2.06849">
        <ele>479.8</ele>
        <time>2023-10-01T07:55:34Z</time>
      </trkpt>
      <trkpt lat="43.43043" lon="2.06846">
        <ele>479</ele>
        <time>2023-10-01T07:55:35Z</time>
      </trkpt>
      <trkpt lat="43.43026" lon="2.06842">
        <ele>477.8</ele>
        <time>2023-10-01T07:55:37Z</time>
      </trkpt>
      <trkpt lat="43.43014" lon="2.06844">
        <ele>477.4</ele>
        <time>2023-10-01T07:55:39Z</time>
      </trkpt>
      <trkpt lat="43.43007" lon="2.06846">
        <ele>476.8</ele>
        <time>2023-10-01T07:55:40Z</time>
      </trkpt>
      <trkpt lat="43.42999" lon="2.06848">
        <ele>476.6</ele>
        <time>2023-10-01T07:55:41Z</time>
      </trkpt>
      <trkpt lat="43.42985" lon="2.06853">
        <ele>476.4</ele>
        <time>2023-10-01T07:55:43Z</time>
      </trkpt>
      <trkpt lat="43.42978" lon="2.06855">
        <ele>475.2</ele>
        <time>2023-10-01T07:55:44Z</time>
      </trkpt>
      <trkpt lat="43.42969" lon="2.06857">
        <ele>474.4</ele>
        <time>2023-10-01T07:55:45Z</time>
      </trkpt>
      <trkpt lat="43.42962" lon="2.06858">
        <ele>474.2</ele>
        <time>2023-10-01T07:55:46Z</time>
      </trkpt>
      <trkpt lat="43.42952" lon="2.06857">
        <ele>473.8</ele>
        <time>2023-10-01T07:55:47Z</time>
      </trkpt>
      <trkpt lat="43.42946" lon="2.06857">
        <ele>473.6</ele>
        <time>2023-10-01T07:55:48Z</time>
      </trkpt>
      <trkpt lat="43.42941" lon="2.0686">
        <ele>473</ele>
        <time>2023-10-01T07:55:49Z</time>
      </trkpt>
      <trkpt lat="43.42938" lon="2.06865">
        <ele>472.6</ele>
        <time>2023-10-01T07:55:50Z</time>
      </trkpt>
      <trkpt lat="43.42936" lon="2.06873">
        <ele>472.2</ele>
        <time>2023-10-01T07:55:51Z</time>
      </trkpt>
      <trkpt lat="43.42934" lon="2.06881">
        <ele>471.4</ele>
        <time>2023-10-01T07:55:52Z</time>
      </trkpt>
      <trkpt lat="43.42933" lon="2.06893">
        <ele>470.8</ele>
        <time>2023-10-01T07:55:54Z</time>
      </trkpt>
      <trkpt lat="43.42933" lon="2.06901">
        <ele>470.6</ele>
        <time>2023-10-01T07:55:55Z</time>
      </trkpt>
      <trkpt lat="43.42935" lon="2.06911">
        <ele>470.4</ele>
        <time>2023-10-01T07:55:56Z</time>
      </trkpt>
      <trkpt lat="43.42936" lon="2.06921">
        <ele>470.2</ele>
        <time>2023-10-01T07:55:57Z</time>
      </trkpt>
      <trkpt lat="43.42933" lon="2.06935">
        <ele>469.2</ele>
        <time>2023-10-01T07:55:59Z</time>
      </trkpt>
      <trkpt lat="43.42929" lon="2.06942">
        <ele>469</ele>
        <time>2023-10-01T07:56:00Z</time>
      </trkpt>
      <trkpt lat="43.42925" lon="2.06949">
        <ele>468.4</ele>
        <time>2023-10-01T07:56:01Z</time>
      </trkpt>
      <trkpt lat="43.42919" lon="2.06956">
        <ele>468.2</ele>
        <time>2023-10-01T07:56:02Z</time>
      </trkpt>
      <trkpt lat="43.42914" lon="2.0696">
        <ele>467.8</ele>
        <time>2023-10-01T07:56:03Z</time>
      </trkpt>
      <trkpt lat="43.42907" lon="2.06964">
        <ele>467.6</ele>
        <time>2023-10-01T07:56:04Z</time>
      </trkpt>
      <trkpt lat="43.429" lon="2.06968">
        <ele>467.2</ele>
        <time>2023-10-01T07:56:05Z</time>
      </trkpt>
      <trkpt lat="43.42895" lon="2.06975">
        <ele>466.6</ele>
        <time>2023-10-01T07:56:06Z</time>
      </trkpt>
      <trkpt lat="43.42886" lon="2.06992">
        <ele>465.8</ele>
        <time>2023-10-01T07:56:08Z</time>
      </trkpt>
      <trkpt lat="43.42881" lon="2.07001">
        <ele>465.6</ele>
        <time>2023-10-01T07:56:09Z</time>
      </trkpt>
      <trkpt lat="43.42878" lon="2.0701">
        <ele>465.4</ele>
        <time>2023-10-01T07:56:10Z</time>
      </trkpt>
      <trkpt lat="43.42876" lon="2.07017">
        <ele>465.4</ele>
        <time>2023-10-01T07:56:11Z</time>
      </trkpt>
      <trkpt lat="43.42876" lon="2.07023">
        <ele>464.8</ele>
        <time>2023-10-01T07:56:12Z</time>
      </trkpt>
      <trkpt lat="43.42876" lon="2.07026">
        <ele>464.2</ele>
        <time>2023-10-01T07:56:13Z</time>
      </trkpt>
      <trkpt lat="43.42879" lon="2.07032">
        <ele>464</ele>
        <time>2023-10-01T07:56:14Z</time>
      </trkpt>
      <trkpt lat="43.42884" lon="2.07038">
        <ele>463</ele>
        <time>2023-10-01T07:56:15Z</time>
      </trkpt>
      <trkpt lat="43.4289" lon="2.07047">
        <ele>462.4</ele>
        <time>2023-10-01T07:56:16Z</time>
      </trkpt>
      <trkpt lat="43.42895" lon="2.07056">
        <ele>461.8</ele>
        <time>2023-10-01T07:56:17Z</time>
      </trkpt>
      <trkpt lat="43.429" lon="2.07064">
        <ele>461.4</ele>
        <time>2023-10-01T07:56:18Z</time>
      </trkpt>
      <trkpt lat="43.42911" lon="2.07084">
        <ele>460</ele>
        <time>2023-10-01T07:56:20Z</time>
      </trkpt>
      <trkpt lat="43.4292" lon="2.07095">
        <ele>459.6</ele>
        <time>2023-10-01T07:56:21Z</time>
      </trkpt>
      <trkpt lat="43.42931" lon="2.07112">
        <ele>459</ele>
        <time>2023-10-01T07:56:23Z</time>
      </trkpt>
      <trkpt lat="43.42937" lon="2.07119">
        <ele>458.6</ele>
        <time>2023-10-01T07:56:24Z</time>
      </trkpt>
      <trkpt lat="43.42941" lon="2.07127">
        <ele>458.4</ele>
        <time>2023-10-01T07:56:25Z</time>
      </trkpt>
      <trkpt lat="43.42945" lon="2.07134">
        <ele>458.2</ele>
        <time>2023-10-01T07:56:26Z</time>
      </trkpt>
      <trkpt lat="43.4295" lon="2.07141">
        <ele>458</ele>
        <time>2023-10-01T07:56:27Z</time>
      </trkpt>
      <trkpt lat="43.42955" lon="2.07148">
        <ele>458</ele>
        <time>2023-10-01T07:56:28Z</time>
      </trkpt>
      <trkpt lat="43.4296" lon="2.07155">
        <ele>458</ele>
        <time>2023-10-01T07:56:29Z</time>
      </trkpt>
      <trkpt lat="43.42966" lon="2.07164">
        <ele>457.8</ele>
        <time>2023-10-01T07:56:31Z</time>
      </trkpt>
      <trkpt lat="43.42968" lon="2.07168">
        <ele>457.8</ele>
        <time>2023-10-01T07:56:32Z</time>
      </trkpt>
      <trkpt lat="43.42971" lon="2.07172">
        <ele>457.8</ele>
        <time>2023-10-01T07:56:33Z</time>
      </trkpt>
      <trkpt lat="43.42974" lon="2.07177">
        <ele>458.2</ele>
        <time>2023-10-01T07:56:34Z</time>
      </trkpt>
      <trkpt lat="43.42981" lon="2.07194">
        <ele>458.8</ele>
        <time>2023-10-01T07:56:37Z</time>
      </trkpt>
      <trkpt lat="43.42983" lon="2.07201">
        <ele>459</ele>
        <time>2023-10-01T07:56:38Z</time>
      </trkpt>
      <trkpt lat="43.42983" lon="2.07207">
        <ele>459.4</ele>
        <time>2023-10-01T07:56:39Z</time>
      </trkpt>
      <trkpt lat="43.42984" lon="2.07213">
        <ele>459.8</ele>
        <time>2023-10-01T07:56:40Z</time>
      </trkpt>
      <trkpt lat="43.42983" lon="2.07218">
        <ele>460</ele>
        <time>2023-10-01T07:56:41Z</time>
      </trkpt>
      <trkpt lat="43.42982" lon="2.07222">
        <ele>460.4</ele>
        <time>2023-10-01T07:56:42Z</time>
      </trkpt>
      <trkpt lat="43.42982" lon="2.07226">
        <ele>461</ele>
        <time>2023-10-01T07:56:43Z</time>
      </trkpt>
      <trkpt lat="43.42981" lon="2.0723">
        <ele>461.2</ele>
        <time>2023-10-01T07:56:44Z</time>
      </trkpt>
      <trkpt lat="43.42979" lon="2.07234">
        <ele>461.4</ele>
        <time>2023-10-01T07:56:45Z</time>
      </trkpt>
      <trkpt lat="43.42978" lon="2.07238">
        <ele>461.6</ele>
        <time>2023-10-01T07:56:46Z</time>
      </trkpt>
      <trkpt lat="43.42975" lon="2.07247">
        <ele>462.4</ele>
        <time>2023-10-01T07:56:48Z</time>
      </trkpt>
      <trkpt lat="43.42973" lon="2.07259">
        <ele>463.2</ele>
        <time>2023-10-01T07:56:50Z</time>
      </trkpt>
      <trkpt lat="43.42975" lon="2.07268">
        <ele>463.2</ele>
        <time>2023-10-01T07:56:51Z</time>
      </trkpt>
      <trkpt lat="43.42975" lon="2.07274">
        <ele>463.4</ele>
        <time>2023-10-01T07:56:52Z</time>
      </trkpt>
      <trkpt lat="43.42977" lon="2.07282">
        <ele>463.4</ele>
        <time>2023-10-01T07:56:53Z</time>
      </trkpt>
      <trkpt lat="43.42978" lon="2.07291">
        <ele>464</ele>
        <time>2023-10-01T07:56:54Z</time>
      </trkpt>
      <trkpt lat="43.42977" lon="2.07297">
        <ele>464.4</ele>
        <time>2023-10-01T07:56:55Z</time>
      </trkpt>
      <trkpt lat="43.42975" lon="2.07306">
        <ele>464.6</ele>
        <time>2023-10-01T07:56:56Z</time>
      </trkpt>
      <trkpt lat="43.42974" lon="2.07313">
        <ele>465</ele>
        <time>2023-10-01T07:56:57Z</time>
      </trkpt>
      <trkpt lat="43.42972" lon="2.0732">
        <ele>465.2</ele>
        <time>2023-10-01T07:56:58Z</time>
      </trkpt>
      <trkpt lat="43.4297" lon="2.07326">
        <ele>465.4</ele>
        <time>2023-10-01T07:56:59Z</time>
      </trkpt>
      <trkpt lat="43.42968" lon="2.07333">
        <ele>465.6</ele>
        <time>2023-10-01T07:57:00Z</time>
      </trkpt>
      <trkpt lat="43.42966" lon="2.07339">
        <ele>465.6</ele>
        <time>2023-10-01T07:57:01Z</time>
      </trkpt>
      <trkpt lat="43.42964" lon="2.07346">
        <ele>465.8</ele>
        <time>2023-10-01T07:57:02Z</time>
      </trkpt>
      <trkpt lat="43.42962" lon="2.07352">
        <ele>466</ele>
        <time>2023-10-01T07:57:03Z</time>
      </trkpt>
      <trkpt lat="43.42959" lon="2.07358">
        <ele>466.4</ele>
        <time>2023-10-01T07:57:04Z</time>
      </trkpt>
      <trkpt lat="43.42957" lon="2.07364">
        <ele>466.6</ele>
        <time>2023-10-01T07:57:05Z</time>
      </trkpt>
      <trkpt lat="43.42954" lon="2.0737">
        <ele>467</ele>
        <time>2023-10-01T07:57:06Z</time>
      </trkpt>
      <trkpt lat="43.42952" lon="2.07377">
        <ele>467.2</ele>
        <time>2023-10-01T07:57:07Z</time>
      </trkpt>
      <trkpt lat="43.42949" lon="2.07384">
        <ele>467.6</ele>
        <time>2023-10-01T07:57:08Z</time>
      </trkpt>
      <trkpt lat="43.42947" lon="2.07389">
        <ele>468</ele>
        <time>2023-10-01T07:57:09Z</time>
      </trkpt>
      <trkpt lat="43.42944" lon="2.07395">
        <ele>468.2</ele>
        <time>2023-10-01T07:57:10Z</time>
      </trkpt>
      <trkpt lat="43.42941" lon="2.074">
        <ele>468.6</ele>
        <time>2023-10-01T07:57:11Z</time>
      </trkpt>
      <trkpt lat="43.42938" lon="2.07404">
        <ele>468.6</ele>
        <time>2023-10-01T07:57:12Z</time>
      </trkpt>
      <trkpt lat="43.42935" lon="2.07408">
        <ele>468.8</ele>
        <time>2023-10-01T07:57:13Z</time>
      </trkpt>
      <trkpt lat="43.42931" lon="2.07412">
        <ele>468.8</ele>
        <time>2023-10-01T07:57:14Z</time>
      </trkpt>
      <trkpt lat="43.42928" lon="2.07416">
        <ele>469</ele>
        <time>2023-10-01T07:57:15Z</time>
      </trkpt>
      <trkpt lat="43.42925" lon="2.07419">
        <ele>469.2</ele>
        <time>2023-10-01T07:57:16Z</time>
      </trkpt>
      <trkpt lat="43.42923" lon="2.07423">
        <ele>469.4</ele>
        <time>2023-10-01T07:57:17Z</time>
      </trkpt>
      <trkpt lat="43.4292" lon="2.07427">
        <ele>469.8</ele>
        <time>2023-10-01T07:57:18Z</time>
      </trkpt>
      <trkpt lat="43.42917" lon="2.0743">
        <ele>469.8</ele>
        <time>2023-10-01T07:57:19Z</time>
      </trkpt>
      <trkpt lat="43.42914" lon="2.07434">
        <ele>470</ele>
        <time>2023-10-01T07:57:20Z</time>
      </trkpt>
      <trkpt lat="43.42911" lon="2.07438">
        <ele>470.2</ele>
        <time>2023-10-01T07:57:21Z</time>
      </trkpt>
      <trkpt lat="43.42909" lon="2.07442">
        <ele>470.4</ele>
        <time>2023-10-01T07:57:22Z</time>
      </trkpt>
      <trkpt lat="43.42906" lon="2.07446">
        <ele>470.6</ele>
        <time>2023-10-01T07:57:23Z</time>
      </trkpt>
      <trkpt lat="43.42903" lon="2.07449">
        <ele>470.8</ele>
        <time>2023-10-01T07:57:24Z</time>
      </trkpt>
      <trkpt lat="43.429" lon="2.07453">
        <ele>471</ele>
        <time>2023-10-01T07:57:25Z</time>
      </trkpt>
      <trkpt lat="43.42896" lon="2.07457">
        <ele>471.2</ele>
        <time>2023-10-01T07:57:26Z</time>
      </trkpt>
      <trkpt lat="43.42894" lon="2.07461">
        <ele>472.2</ele>
        <time>2023-10-01T07:57:27Z</time>
      </trkpt>
      <trkpt lat="43.42891" lon="2.07465">
        <ele>472.8</ele>
        <time>2023-10-01T07:57:28Z</time>
      </trkpt>
      <trkpt lat="43.42888" lon="2.07469">
        <ele>473.2</ele>
        <time>2023-10-01T07:57:29Z</time>
      </trkpt>
      <trkpt lat="43.42887" lon="2.07474">
        <ele>473.2</ele>
        <time>2023-10-01T07:57:30Z</time>
      </trkpt>
      <trkpt lat="43.42885" lon="2.07479">
        <ele>473.4</ele>
        <time>2023-10-01T07:57:31Z</time>
      </trkpt>
      <trkpt lat="43.42882" lon="2.07486">
        <ele>473.8</ele>
        <time>2023-10-01T07:57:32Z</time>
      </trkpt>
      <trkpt lat="43.42881" lon="2.07492">
        <ele>474</ele>
        <time>2023-10-01T07:57:33Z</time>
      </trkpt>
      <trkpt lat="43.42879" lon="2.07497">
        <ele>474.4</ele>
        <time>2023-10-01T07:57:34Z</time>
      </trkpt>
      <trkpt lat="43.42878" lon="2.07502">
        <ele>474.6</ele>
        <time>2023-10-01T07:57:35Z</time>
      </trkpt>
      <trkpt lat="43.42875" lon="2.07505">
        <ele>474.8</ele>
        <time>2023-10-01T07:57:36Z</time>
      </trkpt>
      <trkpt lat="43.42873" lon="2.0751">
        <ele>474.8</ele>
        <time>2023-10-01T07:57:37Z</time>
      </trkpt>
      <trkpt lat="43.4287" lon="2.07515">
        <ele>475</ele>
        <time>2023-10-01T07:57:38Z</time>
      </trkpt>
      <trkpt lat="43.42868" lon="2.0752">
        <ele>475.4</ele>
        <time>2023-10-01T07:57:39Z</time>
      </trkpt>
      <trkpt lat="43.42867" lon="2.07526">
        <ele>475.6</ele>
        <time>2023-10-01T07:57:40Z</time>
      </trkpt>
      <trkpt lat="43.42864" lon="2.07531">
        <ele>476.2</ele>
        <time>2023-10-01T07:57:41Z</time>
      </trkpt>
      <trkpt lat="43.4286" lon="2.07535">
        <ele>476.6</ele>
        <time>2023-10-01T07:57:42Z</time>
      </trkpt>
      <trkpt lat="43.42856" lon="2.0754">
        <ele>477</ele>
        <time>2023-10-01T07:57:43Z</time>
      </trkpt>
      <trkpt lat="43.42853" lon="2.07545">
        <ele>477.2</ele>
        <time>2023-10-01T07:57:44Z</time>
      </trkpt>
      <trkpt lat="43.42849" lon="2.0755">
        <ele>477.6</ele>
        <time>2023-10-01T07:57:45Z</time>
      </trkpt>
      <trkpt lat="43.42846" lon="2.07557">
        <ele>478</ele>
        <time>2023-10-01T07:57:46Z</time>
      </trkpt>
      <trkpt lat="43.42844" lon="2.07563">
        <ele>478.2</ele>
        <time>2023-10-01T07:57:47Z</time>
      </trkpt>
      <trkpt lat="43.42841" lon="2.07568">
        <ele>478.4</ele>
        <time>2023-10-01T07:57:48Z</time>
      </trkpt>
      <trkpt lat="43.42838" lon="2.07574">
        <ele>478.8</ele>
        <time>2023-10-01T07:57:49Z</time>
      </trkpt>
      <trkpt lat="43.42834" lon="2.07579">
        <ele>479.2</ele>
        <time>2023-10-01T07:57:50Z</time>
      </trkpt>
      <trkpt lat="43.42831" lon="2.07584">
        <ele>479.6</ele>
        <time>2023-10-01T07:57:51Z</time>
      </trkpt>
      <trkpt lat="43.42829" lon="2.0759">
        <ele>480</ele>
        <time>2023-10-01T07:57:52Z</time>
      </trkpt>
      <trkpt lat="43.42827" lon="2.07596">
        <ele>480.2</ele>
        <time>2023-10-01T07:57:53Z</time>
      </trkpt>
      <trkpt lat="43.42826" lon="2.07604">
        <ele>480.4</ele>
        <time>2023-10-01T07:57:54Z</time>
      </trkpt>
      <trkpt lat="43.42825" lon="2.0761">
        <ele>480.4</ele>
        <time>2023-10-01T07:57:55Z</time>
      </trkpt>
      <trkpt lat="43.42823" lon="2.07616">
        <ele>480.4</ele>
        <time>2023-10-01T07:57:56Z</time>
      </trkpt>
      <trkpt lat="43.42821" lon="2.07623">
        <ele>480.8</ele>
        <time>2023-10-01T07:57:57Z</time>
      </trkpt>
      <trkpt lat="43.4282" lon="2.07629">
        <ele>480.8</ele>
        <time>2023-10-01T07:57:58Z</time>
      </trkpt>
      <trkpt lat="43.4282" lon="2.07636">
        <ele>481</ele>
        <time>2023-10-01T07:57:59Z</time>
      </trkpt>
      <trkpt lat="43.42819" lon="2.07642">
        <ele>481.4</ele>
        <time>2023-10-01T07:58:00Z</time>
      </trkpt>
      <trkpt lat="43.42818" lon="2.07647">
        <ele>481.4</ele>
        <time>2023-10-01T07:58:01Z</time>
      </trkpt>
      <trkpt lat="43.42816" lon="2.07653">
        <ele>481.8</ele>
        <time>2023-10-01T07:58:02Z</time>
      </trkpt>
      <trkpt lat="43.42813" lon="2.07658">
        <ele>482</ele>
        <time>2023-10-01T07:58:03Z</time>
      </trkpt>
      <trkpt lat="43.4281" lon="2.07662">
        <ele>482.2</ele>
        <time>2023-10-01T07:58:04Z</time>
      </trkpt>
      <trkpt lat="43.42807" lon="2.07664">
        <ele>482.4</ele>
        <time>2023-10-01T07:58:05Z</time>
      </trkpt>
      <trkpt lat="43.42803" lon="2.07665">
        <ele>482.6</ele>
        <time>2023-10-01T07:58:06Z</time>
      </trkpt>
      <trkpt lat="43.42798" lon="2.07665">
        <ele>482.8</ele>
        <time>2023-10-01T07:58:07Z</time>
      </trkpt>
      <trkpt lat="43.42794" lon="2.07665">
        <ele>482.8</ele>
        <time>2023-10-01T07:58:08Z</time>
      </trkpt>
      <trkpt lat="43.42789" lon="2.07664">
        <ele>482.8</ele>
        <time>2023-10-01T07:58:09Z</time>
      </trkpt>
      <trkpt lat="43.42783" lon="2.07663">
        <ele>482.8</ele>
        <time>2023-10-01T07:58:10Z</time>
      </trkpt>
      <trkpt lat="43.42777" lon="2.07662">
        <ele>482.8</ele>
        <time>2023-10-01T07:58:11Z</time>
      </trkpt>
      <trkpt lat="43.42772" lon="2.07661">
        <ele>482.8</ele>
        <time>2023-10-01T07:58:12Z</time>
      </trkpt>
      <trkpt lat="43.42766" lon="2.0766">
        <ele>482.6</ele>
        <time>2023-10-01T07:58:13Z</time>
      </trkpt>
      <trkpt lat="43.4276" lon="2.07659">
        <ele>482.6</ele>
        <time>2023-10-01T07:58:14Z</time>
      </trkpt>
      <trkpt lat="43.42753" lon="2.07657">
        <ele>482.2</ele>
        <time>2023-10-01T07:58:15Z</time>
      </trkpt>
      <trkpt lat="43.42746" lon="2.07656">
        <ele>482.2</ele>
        <time>2023-10-01T07:58:16Z</time>
      </trkpt>
      <trkpt lat="43.42739" lon="2.07655">
        <ele>482</ele>
        <time>2023-10-01T07:58:17Z</time>
      </trkpt>
      <trkpt lat="43.42732" lon="2.07653">
        <ele>481.4</ele>
        <time>2023-10-01T07:58:18Z</time>
      </trkpt>
      <trkpt lat="43.42725" lon="2.07651">
        <ele>481.4</ele>
        <time>2023-10-01T07:58:19Z</time>
      </trkpt>
      <trkpt lat="43.42717" lon="2.07648">
        <ele>480.8</ele>
        <time>2023-10-01T07:58:20Z</time>
      </trkpt>
      <trkpt lat="43.42707" lon="2.07645">
        <ele>480.4</ele>
        <time>2023-10-01T07:58:21Z</time>
      </trkpt>
      <trkpt lat="43.4269" lon="2.07642">
        <ele>479.2</ele>
        <time>2023-10-01T07:58:23Z</time>
      </trkpt>
      <trkpt lat="43.42681" lon="2.0764">
        <ele>479</ele>
        <time>2023-10-01T07:58:24Z</time>
      </trkpt>
      <trkpt lat="43.42672" lon="2.07638">
        <ele>478</ele>
        <time>2023-10-01T07:58:25Z</time>
      </trkpt>
      <trkpt lat="43.42652" lon="2.07634">
        <ele>476.8</ele>
        <time>2023-10-01T07:58:27Z</time>
      </trkpt>
      <trkpt lat="43.42633" lon="2.07631">
        <ele>475.8</ele>
        <time>2023-10-01T07:58:29Z</time>
      </trkpt>
      <trkpt lat="43.42624" lon="2.07631">
        <ele>474.8</ele>
        <time>2023-10-01T07:58:30Z</time>
      </trkpt>
      <trkpt lat="43.42607" lon="2.07631">
        <ele>473.6</ele>
        <time>2023-10-01T07:58:32Z</time>
      </trkpt>
      <trkpt lat="43.42579" lon="2.07631">
        <ele>471.6</ele>
        <time>2023-10-01T07:58:35Z</time>
      </trkpt>
      <trkpt lat="43.42571" lon="2.0763">
        <ele>471.2</ele>
        <time>2023-10-01T07:58:36Z</time>
      </trkpt>
      <trkpt lat="43.42562" lon="2.07627">
        <ele>470.4</ele>
        <time>2023-10-01T07:58:37Z</time>
      </trkpt>
      <trkpt lat="43.42544" lon="2.07624">
        <ele>468.8</ele>
        <time>2023-10-01T07:58:39Z</time>
      </trkpt>
      <trkpt lat="43.42527" lon="2.07619">
        <ele>467.2</ele>
        <time>2023-10-01T07:58:41Z</time>
      </trkpt>
      <trkpt lat="43.42519" lon="2.07618">
        <ele>466.2</ele>
        <time>2023-10-01T07:58:42Z</time>
      </trkpt>
      <trkpt lat="43.42511" lon="2.07618">
        <ele>465.6</ele>
        <time>2023-10-01T07:58:43Z</time>
      </trkpt>
      <trkpt lat="43.42505" lon="2.07617">
        <ele>465</ele>
        <time>2023-10-01T07:58:44Z</time>
      </trkpt>
      <trkpt lat="43.42499" lon="2.07617">
        <ele>464.6</ele>
        <time>2023-10-01T07:58:45Z</time>
      </trkpt>
      <trkpt lat="43.42491" lon="2.07619">
        <ele>463.8</ele>
        <time>2023-10-01T07:58:46Z</time>
      </trkpt>
      <trkpt lat="43.42485" lon="2.0762">
        <ele>463</ele>
        <time>2023-10-01T07:58:47Z</time>
      </trkpt>
      <trkpt lat="43.42481" lon="2.07622">
        <ele>461.8</ele>
        <time>2023-10-01T07:58:48Z</time>
      </trkpt>
      <trkpt lat="43.42479" lon="2.07624">
        <ele>460.4</ele>
        <time>2023-10-01T07:58:49Z</time>
      </trkpt>
      <trkpt lat="43.42476" lon="2.07625">
        <ele>459.6</ele>
        <time>2023-10-01T07:58:50Z</time>
      </trkpt>
      <trkpt lat="43.42472" lon="2.07627">
        <ele>458.4</ele>
        <time>2023-10-01T07:58:51Z</time>
      </trkpt>
      <trkpt lat="43.42468" lon="2.07629">
        <ele>458</ele>
        <time>2023-10-01T07:58:52Z</time>
      </trkpt>
      <trkpt lat="43.42466" lon="2.07633">
        <ele>457.4</ele>
        <time>2023-10-01T07:58:53Z</time>
      </trkpt>
      <trkpt lat="43.42463" lon="2.07641">
        <ele>456.6</ele>
        <time>2023-10-01T07:58:55Z</time>
      </trkpt>
      <trkpt lat="43.42465" lon="2.07648">
        <ele>456.4</ele>
        <time>2023-10-01T07:58:56Z</time>
      </trkpt>
      <trkpt lat="43.42468" lon="2.07656">
        <ele>456.4</ele>
        <time>2023-10-01T07:58:57Z</time>
      </trkpt>
      <trkpt lat="43.4247" lon="2.07665">
        <ele>456</ele>
        <time>2023-10-01T07:58:58Z</time>
      </trkpt>
      <trkpt lat="43.42471" lon="2.07673">
        <ele>455.8</ele>
        <time>2023-10-01T07:58:59Z</time>
      </trkpt>
      <trkpt lat="43.42472" lon="2.07679">
        <ele>455.4</ele>
        <time>2023-10-01T07:59:00Z</time>
      </trkpt>
      <trkpt lat="43.42474" lon="2.07686">
        <ele>455.4</ele>
        <time>2023-10-01T07:59:01Z</time>
      </trkpt>
      <trkpt lat="43.42475" lon="2.07691">
        <ele>455.4</ele>
        <time>2023-10-01T07:59:02Z</time>
      </trkpt>
      <trkpt lat="43.42475" lon="2.07698">
        <ele>455.2</ele>
        <time>2023-10-01T07:59:03Z</time>
      </trkpt>
      <trkpt lat="43.42474" lon="2.07713">
        <ele>455.2</ele>
        <time>2023-10-01T07:59:05Z</time>
      </trkpt>
      <trkpt lat="43.42463" lon="2.07739">
        <ele>456.6</ele>
        <time>2023-10-01T07:59:09Z</time>
      </trkpt>
      <trkpt lat="43.42457" lon="2.07758">
        <ele>457.6</ele>
        <time>2023-10-01T07:59:12Z</time>
      </trkpt>
      <trkpt lat="43.42458" lon="2.07766">
        <ele>457.8</ele>
        <time>2023-10-01T07:59:13Z</time>
      </trkpt>
      <trkpt lat="43.42457" lon="2.07771">
        <ele>458</ele>
        <time>2023-10-01T07:59:14Z</time>
      </trkpt>
      <trkpt lat="43.42457" lon="2.07777">
        <ele>458.2</ele>
        <time>2023-10-01T07:59:15Z</time>
      </trkpt>
      <trkpt lat="43.42457" lon="2.0779">
        <ele>458.8</ele>
        <time>2023-10-01T07:59:17Z</time>
      </trkpt>
      <trkpt lat="43.42458" lon="2.07795">
        <ele>459</ele>
        <time>2023-10-01T07:59:18Z</time>
      </trkpt>
      <trkpt lat="43.42461" lon="2.07806">
        <ele>459.6</ele>
        <time>2023-10-01T07:59:20Z</time>
      </trkpt>
      <trkpt lat="43.42464" lon="2.0781">
        <ele>460</ele>
        <time>2023-10-01T07:59:21Z</time>
      </trkpt>
      <trkpt lat="43.42466" lon="2.07815">
        <ele>460.4</ele>
        <time>2023-10-01T07:59:22Z</time>
      </trkpt>
      <trkpt lat="43.42469" lon="2.0782">
        <ele>460.6</ele>
        <time>2023-10-01T07:59:23Z</time>
      </trkpt>
      <trkpt lat="43.42472" lon="2.07825">
        <ele>461</ele>
        <time>2023-10-01T07:59:24Z</time>
      </trkpt>
      <trkpt lat="43.42482" lon="2.07843">
        <ele>461.8</ele>
        <time>2023-10-01T07:59:27Z</time>
      </trkpt>
      <trkpt lat="43.42484" lon="2.07849">
        <ele>461.8</ele>
        <time>2023-10-01T07:59:28Z</time>
      </trkpt>
      <trkpt lat="43.42485" lon="2.07854">
        <ele>462.2</ele>
        <time>2023-10-01T07:59:29Z</time>
      </trkpt>
      <trkpt lat="43.42485" lon="2.0786">
        <ele>462.4</ele>
        <time>2023-10-01T07:59:30Z</time>
      </trkpt>
      <trkpt lat="43.42486" lon="2.07864">
        <ele>462.8</ele>
        <time>2023-10-01T07:59:31Z</time>
      </trkpt>
      <trkpt lat="43.42486" lon="2.0787">
        <ele>463</ele>
        <time>2023-10-01T07:59:32Z</time>
      </trkpt>
      <trkpt lat="43.42486" lon="2.07875">
        <ele>463.6</ele>
        <time>2023-10-01T07:59:33Z</time>
      </trkpt>
      <trkpt lat="43.42486" lon="2.0788">
        <ele>463.8</ele>
        <time>2023-10-01T07:59:34Z</time>
      </trkpt>
      <trkpt lat="43.42485" lon="2.07884">
        <ele>464.2</ele>
        <time>2023-10-01T07:59:35Z</time>
      </trkpt>
      <trkpt lat="43.42484" lon="2.07889">
        <ele>464.4</ele>
        <time>2023-10-01T07:59:36Z</time>
      </trkpt>
      <trkpt lat="43.42483" lon="2.07894">
        <ele>464.6</ele>
        <time>2023-10-01T07:59:37Z</time>
      </trkpt>
      <trkpt lat="43.42482" lon="2.07899">
        <ele>465.2</ele>
        <time>2023-10-01T07:59:38Z</time>
      </trkpt>
      <trkpt lat="43.42481" lon="2.07905">
        <ele>465.4</ele>
        <time>2023-10-01T07:59:39Z</time>
      </trkpt>
      <trkpt lat="43.4248" lon="2.0791">
        <ele>465.8</ele>
        <time>2023-10-01T07:59:40Z</time>
      </trkpt>
      <trkpt lat="43.42479" lon="2.07915">
        <ele>466.2</ele>
        <time>2023-10-01T07:59:41Z</time>
      </trkpt>
      <trkpt lat="43.42477" lon="2.07921">
        <ele>466.4</ele>
        <time>2023-10-01T07:59:42Z</time>
      </trkpt>
      <trkpt lat="43.42476" lon="2.07927">
        <ele>466.6</ele>
        <time>2023-10-01T07:59:43Z</time>
      </trkpt>
      <trkpt lat="43.42475" lon="2.07933">
        <ele>466.8</ele>
        <time>2023-10-01T07:59:44Z</time>
      </trkpt>
      <trkpt lat="43.42475" lon="2.07937">
        <ele>467.2</ele>
        <time>2023-10-01T07:59:45Z</time>
      </trkpt>
      <trkpt lat="43.42475" lon="2.07942">
        <ele>467.6</ele>
        <time>2023-10-01T07:59:46Z</time>
      </trkpt>
      <trkpt lat="43.42474" lon="2.07948">
        <ele>468</ele>
        <time>2023-10-01T07:59:47Z</time>
      </trkpt>
      <trkpt lat="43.42474" lon="2.07954">
        <ele>468</ele>
        <time>2023-10-01T07:59:48Z</time>
      </trkpt>
      <trkpt lat="43.42473" lon="2.07963">
        <ele>468.2</ele>
        <time>2023-10-01T07:59:49Z</time>
      </trkpt>
      <trkpt lat="43.42473" lon="2.0797">
        <ele>468.4</ele>
        <time>2023-10-01T07:59:50Z</time>
      </trkpt>
      <trkpt lat="43.42473" lon="2.07978">
        <ele>468.6</ele>
        <time>2023-10-01T07:59:51Z</time>
      </trkpt>
      <trkpt lat="43.42472" lon="2.07985">
        <ele>469</ele>
        <time>2023-10-01T07:59:52Z</time>
      </trkpt>
      <trkpt lat="43.42471" lon="2.07991">
        <ele>469.2</ele>
        <time>2023-10-01T07:59:53Z</time>
      </trkpt>
      <trkpt lat="43.4247" lon="2.07997">
        <ele>469.6</ele>
        <time>2023-10-01T07:59:54Z</time>
      </trkpt>
      <trkpt lat="43.4247" lon="2.08004">
        <ele>469.8</ele>
        <time>2023-10-01T07:59:55Z</time>
      </trkpt>
      <trkpt lat="43.42469" lon="2.08009">
        <ele>470</ele>
        <time>2023-10-01T07:59:56Z</time>
      </trkpt>
      <trkpt lat="43.42469" lon="2.08015">
        <ele>470.4</ele>
        <time>2023-10-01T07:59:57Z</time>
      </trkpt>
      <trkpt lat="43.42469" lon="2.08023">
        <ele>470.4</ele>
        <time>2023-10-01T07:59:58Z</time>
      </trkpt>
      <trkpt lat="43.42468" lon="2.08029">
        <ele>470.6</ele>
        <time>2023-10-01T07:59:59Z</time>
      </trkpt>
      <trkpt lat="43.42469" lon="2.08036">
        <ele>470.8</ele>
        <time>2023-10-01T08:00:00Z</time>
      </trkpt>
      <trkpt lat="43.42469" lon="2.08043">
        <ele>471.2</ele>
        <time>2023-10-01T08:00:01Z</time>
      </trkpt>
      <trkpt lat="43.4247" lon="2.08047">
        <ele>471.4</ele>
        <time>2023-10-01T08:00:02Z</time>
      </trkpt>
      <trkpt lat="43.42469" lon="2.08052">
        <ele>472</ele>
        <time>2023-10-01T08:00:03Z</time>
      </trkpt>
      <trkpt lat="43.4247" lon="2.08058">
        <ele>472.6</ele>
        <time>2023-10-01T08:00:04Z</time>
      </trkpt>
      <trkpt lat="43.42471" lon="2.08066">
        <ele>472.8</ele>
        <time>2023-10-01T08:00:05Z</time>
      </trkpt>
      <trkpt lat="43.42473" lon="2.08073">
        <ele>473</ele>
        <time>2023-10-01T08:00:06Z</time>
      </trkpt>
      <trkpt lat="43.42472" lon="2.0808">
        <ele>473</ele>
        <time>2023-10-01T08:00:07Z</time>
      </trkpt>
      <trkpt lat="43.42472" lon="2.08084">
        <ele>473.2</ele>
        <time>2023-10-01T08:00:08Z</time>
      </trkpt>
      <trkpt lat="43.42472" lon="2.08089">
        <ele>473.4</ele>
        <time>2023-10-01T08:00:09Z</time>
      </trkpt>
      <trkpt lat="43.42473" lon="2.08096">
        <ele>474</ele>
        <time>2023-10-01T08:00:10Z</time>
      </trkpt>
      <trkpt lat="43.42474" lon="2.08103">
        <ele>474.4</ele>
        <time>2023-10-01T08:00:11Z</time>
      </trkpt>
      <trkpt lat="43.42476" lon="2.08112">
        <ele>474.6</ele>
        <time>2023-10-01T08:00:12Z</time>
      </trkpt>
      <trkpt lat="43.42474" lon="2.08118">
        <ele>474.8</ele>
        <time>2023-10-01T08:00:13Z</time>
      </trkpt>
      <trkpt lat="43.42471" lon="2.08122">
        <ele>475</ele>
        <time>2023-10-01T08:00:14Z</time>
      </trkpt>
      <trkpt lat="43.42467" lon="2.08128">
        <ele>475.6</ele>
        <time>2023-10-01T08:00:15Z</time>
      </trkpt>
      <trkpt lat="43.42462" lon="2.08131">
        <ele>475.8</ele>
        <time>2023-10-01T08:00:16Z</time>
      </trkpt>
      <trkpt lat="43.42454" lon="2.08133">
        <ele>476.2</ele>
        <time>2023-10-01T08:00:17Z</time>
      </trkpt>
      <trkpt lat="43.42448" lon="2.08132">
        <ele>476.8</ele>
        <time>2023-10-01T08:00:18Z</time>
      </trkpt>
      <trkpt lat="43.42442" lon="2.08131">
        <ele>477</ele>
        <time>2023-10-01T08:00:19Z</time>
      </trkpt>
      <trkpt lat="43.42435" lon="2.08131">
        <ele>477.2</ele>
        <time>2023-10-01T08:00:20Z</time>
      </trkpt>
      <trkpt lat="43.4243" lon="2.0813">
        <ele>477.4</ele>
        <time>2023-10-01T08:00:21Z</time>
      </trkpt>
      <trkpt lat="43.42424" lon="2.08132">
        <ele>477.8</ele>
        <time>2023-10-01T08:00:22Z</time>
      </trkpt>
      <trkpt lat="43.42419" lon="2.08135">
        <ele>478</ele>
        <time>2023-10-01T08:00:23Z</time>
      </trkpt>
      <trkpt lat="43.42414" lon="2.08138">
        <ele>478.4</ele>
        <time>2023-10-01T08:00:24Z</time>
      </trkpt>
      <trkpt lat="43.42408" lon="2.08138">
        <ele>478.8</ele>
        <time>2023-10-01T08:00:25Z</time>
      </trkpt>
      <trkpt lat="43.42404" lon="2.08142">
        <ele>479</ele>
        <time>2023-10-01T08:00:26Z</time>
      </trkpt>
      <trkpt lat="43.42399" lon="2.08147">
        <ele>479.2</ele>
        <time>2023-10-01T08:00:27Z</time>
      </trkpt>
      <trkpt lat="43.42395" lon="2.08149">
        <ele>479.2</ele>
        <time>2023-10-01T08:00:28Z</time>
      </trkpt>
      <trkpt lat="43.42392" lon="2.08154">
        <ele>479.6</ele>
        <time>2023-10-01T08:00:29Z</time>
      </trkpt>
      <trkpt lat="43.42388" lon="2.0816">
        <ele>479.8</ele>
        <time>2023-10-01T08:00:30Z</time>
      </trkpt>
      <trkpt lat="43.42385" lon="2.08164">
        <ele>480</ele>
        <time>2023-10-01T08:00:31Z</time>
      </trkpt>
      <trkpt lat="43.42384" lon="2.08172">
        <ele>480.4</ele>
        <time>2023-10-01T08:00:32Z</time>
      </trkpt>
      <trkpt lat="43.42383" lon="2.08178">
        <ele>480.6</ele>
        <time>2023-10-01T08:00:33Z</time>
      </trkpt>
      <trkpt lat="43.42379" lon="2.08182">
        <ele>480.8</ele>
        <time>2023-10-01T08:00:34Z</time>
      </trkpt>
      <trkpt lat="43.42374" lon="2.08184">
        <ele>481</ele>
        <time>2023-10-01T08:00:35Z</time>
      </trkpt>
      <trkpt lat="43.42368" lon="2.08188">
        <ele>481.6</ele>
        <time>2023-10-01T08:00:36Z</time>
      </trkpt>
      <trkpt lat="43.42364" lon="2.08189">
        <ele>482</ele>
        <time>2023-10-01T08:00:37Z</time>
      </trkpt>
      <trkpt lat="43.42359" lon="2.0819">
        <ele>482.4</ele>
        <time>2023-10-01T08:00:38Z</time>
      </trkpt>
      <trkpt lat="43.42354" lon="2.0819">
        <ele>483</ele>
        <time>2023-10-01T08:00:39Z</time>
      </trkpt>
      <trkpt lat="43.42349" lon="2.0819">
        <ele>483.2</ele>
        <time>2023-10-01T08:00:40Z</time>
      </trkpt>
      <trkpt lat="43.42343" lon="2.08189">
        <ele>483.6</ele>
        <time>2023-10-01T08:00:41Z</time>
      </trkpt>
      <trkpt lat="43.42338" lon="2.08189">
        <ele>483.8</ele>
        <time>2023-10-01T08:00:42Z</time>
      </trkpt>
      <trkpt lat="43.42333" lon="2.08189">
        <ele>484.2</ele>
        <time>2023-10-01T08:00:43Z</time>
      </trkpt>
      <trkpt lat="43.42328" lon="2.08188">
        <ele>484.4</ele>
        <time>2023-10-01T08:00:44Z</time>
      </trkpt>
      <trkpt lat="43.42323" lon="2.08189">
        <ele>484.6</ele>
        <time>2023-10-01T08:00:45Z</time>
      </trkpt>
      <trkpt lat="43.42318" lon="2.08189">
        <ele>485</ele>
        <time>2023-10-01T08:00:46Z</time>
      </trkpt>
      <trkpt lat="43.42315" lon="2.08192">
        <ele>485</ele>
        <time>2023-10-01T08:00:47Z</time>
      </trkpt>
      <trkpt lat="43.42311" lon="2.08196">
        <ele>485.4</ele>
        <time>2023-10-01T08:00:48Z</time>
      </trkpt>
      <trkpt lat="43.42308" lon="2.08201">
        <ele>485.6</ele>
        <time>2023-10-01T08:00:49Z</time>
      </trkpt>
      <trkpt lat="43.42305" lon="2.08205">
        <ele>486.4</ele>
        <time>2023-10-01T08:00:50Z</time>
      </trkpt>
      <trkpt lat="43.42303" lon="2.0821">
        <ele>486.6</ele>
        <time>2023-10-01T08:00:51Z</time>
      </trkpt>
      <trkpt lat="43.42301" lon="2.08215">
        <ele>486.8</ele>
        <time>2023-10-01T08:00:52Z</time>
      </trkpt>
      <trkpt lat="43.42297" lon="2.08219">
        <ele>487.2</ele>
        <time>2023-10-01T08:00:53Z</time>
      </trkpt>
      <trkpt lat="43.42293" lon="2.08222">
        <ele>487.2</ele>
        <time>2023-10-01T08:00:54Z</time>
      </trkpt>
      <trkpt lat="43.42287" lon="2.08222">
        <ele>487.6</ele>
        <time>2023-10-01T08:00:55Z</time>
      </trkpt>
      <trkpt lat="43.42282" lon="2.08222">
        <ele>487.8</ele>
        <time>2023-10-01T08:00:56Z</time>
      </trkpt>
      <trkpt lat="43.42277" lon="2.08223">
        <ele>488.4</ele>
        <time>2023-10-01T08:00:57Z</time>
      </trkpt>
      <trkpt lat="43.42273" lon="2.08224">
        <ele>488.6</ele>
        <time>2023-10-01T08:00:58Z</time>
      </trkpt>
      <trkpt lat="43.42268" lon="2.08224">
        <ele>489</ele>
        <time>2023-10-01T08:00:59Z</time>
      </trkpt>
      <trkpt lat="43.42263" lon="2.08225">
        <ele>489.4</ele>
        <time>2023-10-01T08:01:00Z</time>
      </trkpt>
      <trkpt lat="43.42258" lon="2.08227">
        <ele>489.6</ele>
        <time>2023-10-01T08:01:01Z</time>
      </trkpt>
      <trkpt lat="43.42253" lon="2.08229">
        <ele>490.2</ele>
        <time>2023-10-01T08:01:02Z</time>
      </trkpt>
      <trkpt lat="43.4225" lon="2.08232">
        <ele>490.4</ele>
        <time>2023-10-01T08:01:03Z</time>
      </trkpt>
      <trkpt lat="43.42248" lon="2.08238">
        <ele>490.8</ele>
        <time>2023-10-01T08:01:04Z</time>
      </trkpt>
      <trkpt lat="43.42246" lon="2.08244">
        <ele>491</ele>
        <time>2023-10-01T08:01:05Z</time>
      </trkpt>
      <trkpt lat="43.42246" lon="2.08249">
        <ele>491.4</ele>
        <time>2023-10-01T08:01:06Z</time>
      </trkpt>
      <trkpt lat="43.42246" lon="2.08255">
        <ele>492</ele>
        <time>2023-10-01T08:01:07Z</time>
      </trkpt>
      <trkpt lat="43.42248" lon="2.08263">
        <ele>492.2</ele>
        <time>2023-10-01T08:01:08Z</time>
      </trkpt>
      <trkpt lat="43.42249" lon="2.0827">
        <ele>492.8</ele>
        <time>2023-10-01T08:01:09Z</time>
      </trkpt>
      <trkpt lat="43.42251" lon="2.08276">
        <ele>493.2</ele>
        <time>2023-10-01T08:01:10Z</time>
      </trkpt>
      <trkpt lat="43.42252" lon="2.08284">
        <ele>493.8</ele>
        <time>2023-10-01T08:01:11Z</time>
      </trkpt>
      <trkpt lat="43.42252" lon="2.08291">
        <ele>494</ele>
        <time>2023-10-01T08:01:12Z</time>
      </trkpt>
      <trkpt lat="43.42253" lon="2.08299">
        <ele>494.4</ele>
        <time>2023-10-01T08:01:13Z</time>
      </trkpt>
      <trkpt lat="43.42253" lon="2.08307">
        <ele>495.2</ele>
        <time>2023-10-01T08:01:14Z</time>
      </trkpt>
      <trkpt lat="43.42253" lon="2.08312">
        <ele>495.6</ele>
        <time>2023-10-01T08:01:15Z</time>
      </trkpt>
      <trkpt lat="43.42253" lon="2.08319">
        <ele>496.2</ele>
        <time>2023-10-01T08:01:16Z</time>
      </trkpt>
      <trkpt lat="43.42252" lon="2.08326">
        <ele>496.4</ele>
        <time>2023-10-01T08:01:17Z</time>
      </trkpt>
      <trkpt lat="43.42253" lon="2.08334">
        <ele>497</ele>
        <time>2023-10-01T08:01:18Z</time>
      </trkpt>
      <trkpt lat="43.42253" lon="2.08341">
        <ele>497.2</ele>
        <time>2023-10-01T08:01:19Z</time>
      </trkpt>
      <trkpt lat="43.42254" lon="2.08347">
        <ele>497.8</ele>
        <time>2023-10-01T08:01:20Z</time>
      </trkpt>
      <trkpt lat="43.42253" lon="2.08354">
        <ele>498.4</ele>
        <time>2023-10-01T08:01:21Z</time>
      </trkpt>
      <trkpt lat="43.42251" lon="2.08361">
        <ele>498.8</ele>
        <time>2023-10-01T08:01:22Z</time>
      </trkpt>
      <trkpt lat="43.42248" lon="2.08367">
        <ele>499</ele>
        <time>2023-10-01T08:01:23Z</time>
      </trkpt>
      <trkpt lat="43.42244" lon="2.08371">
        <ele>499.2</ele>
        <time>2023-10-01T08:01:24Z</time>
      </trkpt>
      <trkpt lat="43.4224" lon="2.08375">
        <ele>499.6</ele>
        <time>2023-10-01T08:01:25Z</time>
      </trkpt>
      <trkpt lat="43.42233" lon="2.08378">
        <ele>499.8</ele>
        <time>2023-10-01T08:01:26Z</time>
      </trkpt>
      <trkpt lat="43.42227" lon="2.0838">
        <ele>500.4</ele>
        <time>2023-10-01T08:01:27Z</time>
      </trkpt>
      <trkpt lat="43.42222" lon="2.08382">
        <ele>501</ele>
        <time>2023-10-01T08:01:28Z</time>
      </trkpt>
      <trkpt lat="43.42217" lon="2.08381">
        <ele>501.2</ele>
        <time>2023-10-01T08:01:29Z</time>
      </trkpt>
      <trkpt lat="43.42212" lon="2.08378">
        <ele>501.8</ele>
        <time>2023-10-01T08:01:30Z</time>
      </trkpt>
      <trkpt lat="43.42208" lon="2.08375">
        <ele>502.4</ele>
        <time>2023-10-01T08:01:31Z</time>
      </trkpt>
      <trkpt lat="43.42203" lon="2.08372">
        <ele>502.8</ele>
        <time>2023-10-01T08:01:32Z</time>
      </trkpt>
      <trkpt lat="43.42197" lon="2.08369">
        <ele>503</ele>
        <time>2023-10-01T08:01:33Z</time>
      </trkpt>
      <trkpt lat="43.42193" lon="2.08368">
        <ele>503.4</ele>
        <time>2023-10-01T08:01:34Z</time>
      </trkpt>
      <trkpt lat="43.42187" lon="2.08367">
        <ele>503.6</ele>
        <time>2023-10-01T08:01:35Z</time>
      </trkpt>
      <trkpt lat="43.42182" lon="2.08365">
        <ele>503.8</ele>
        <time>2023-10-01T08:01:36Z</time>
      </trkpt>
      <trkpt lat="43.42177" lon="2.08365">
        <ele>504</ele>
        <time>2023-10-01T08:01:37Z</time>
      </trkpt>
      <trkpt lat="43.42172" lon="2.08365">
        <ele>504</ele>
        <time>2023-10-01T08:01:38Z</time>
      </trkpt>
      <trkpt lat="43.42167" lon="2.08366">
        <ele>504.2</ele>
        <time>2023-10-01T08:01:39Z</time>
      </trkpt>
      <trkpt lat="43.42162" lon="2.08366">
        <ele>504.2</ele>
        <time>2023-10-01T08:01:40Z</time>
      </trkpt>
      <trkpt lat="43.42157" lon="2.08366">
        <ele>504.4</ele>
        <time>2023-10-01T08:01:41Z</time>
      </trkpt>
      <trkpt lat="43.42151" lon="2.08365">
        <ele>504.8</ele>
        <time>2023-10-01T08:01:42Z</time>
      </trkpt>
      <trkpt lat="43.42146" lon="2.08363">
        <ele>505</ele>
        <time>2023-10-01T08:01:43Z</time>
      </trkpt>
      <trkpt lat="43.42141" lon="2.08362">
        <ele>505.4</ele>
        <time>2023-10-01T08:01:44Z</time>
      </trkpt>
      <trkpt lat="43.42136" lon="2.08362">
        <ele>505.4</ele>
        <time>2023-10-01T08:01:45Z</time>
      </trkpt>
      <trkpt lat="43.42131" lon="2.08362">
        <ele>505.8</ele>
        <time>2023-10-01T08:01:46Z</time>
      </trkpt>
      <trkpt lat="43.42126" lon="2.08362">
        <ele>505.8</ele>
        <time>2023-10-01T08:01:47Z</time>
      </trkpt>
      <trkpt lat="43.42122" lon="2.08362">
        <ele>506</ele>
        <time>2023-10-01T08:01:48Z</time>
      </trkpt>
      <trkpt lat="43.42117" lon="2.08362">
        <ele>506.8</ele>
        <time>2023-10-01T08:01:49Z</time>
      </trkpt>
      <trkpt lat="43.42114" lon="2.08363">
        <ele>507</ele>
        <time>2023-10-01T08:01:50Z</time>
      </trkpt>
      <trkpt lat="43.4211" lon="2.08362">
        <ele>507.4</ele>
        <time>2023-10-01T08:01:51Z</time>
      </trkpt>
      <trkpt lat="43.42108" lon="2.08362">
        <ele>507.6</ele>
        <time>2023-10-01T08:01:52Z</time>
      </trkpt>
      <trkpt lat="43.42106" lon="2.08362">
        <ele>508</ele>
        <time>2023-10-01T08:01:53Z</time>
      </trkpt>
      <trkpt lat="43.42105" lon="2.08362">
        <ele>508</ele>
        <time>2023-10-01T08:01:54Z</time>
      </trkpt>
      <trkpt lat="43.42104" lon="2.08362">
        <ele>508.4</ele>
        <time>2023-10-01T08:01:55Z</time>
      </trkpt>
      <trkpt lat="43.42104" lon="2.08362">
        <ele>508.6</ele>
        <time>2023-10-01T08:01:56Z</time>
      </trkpt>
      <trkpt lat="43.42104" lon="2.08362">
        <ele>508.6</ele>
        <time>2023-10-01T08:01:57Z</time>
      </trkpt>
      <trkpt lat="43.42104" lon="2.08362">
        <ele>509</ele>
        <time>2023-10-01T08:01:59Z</time>
      </trkpt>
      <trkpt lat="43.42098" lon="2.08364">
        <ele>508.8</ele>
        <time>2023-10-01T08:10:01Z</time>
      </trkpt>
      <trkpt lat="43.42094" lon="2.08365">
        <ele>508.8</ele>
        <time>2023-10-01T08:10:02Z</time>
      </trkpt>
      <trkpt lat="43.42084" lon="2.08366">
        <ele>509</ele>
        <time>2023-10-01T08:10:05Z</time>
      </trkpt>
      <trkpt lat="43.42073" lon="2.08367">
        <ele>509.2</ele>
        <time>2023-10-01T08:10:08Z</time>
      </trkpt>
      <trkpt lat="43.42059" lon="2.08372">
        <ele>510</ele>
        <time>2023-10-01T08:10:12Z</time>
      </trkpt>
      <trkpt lat="43.42056" lon="2.08374">
        <ele>510.2</ele>
        <time>2023-10-01T08:10:13Z</time>
      </trkpt>
      <trkpt lat="43.42055" lon="2.08376">
        <ele>510.4</ele>
        <time>2023-10-01T08:10:14Z</time>
      </trkpt>
      <trkpt lat="43.42054" lon="2.08379">
        <ele>510.8</ele>
        <time>2023-10-01T08:10:15Z</time>
      </trkpt>
      <trkpt lat="43.42053" lon="2.08381">
        <ele>510.8</ele>
        <time>2023-10-01T08:10:16Z</time>
      </trkpt>
      <trkpt lat="43.42052" lon="2.08383">
        <ele>511</ele>
        <time>2023-10-01T08:10:17Z</time>
      </trkpt>
      <trkpt lat="43.42052" lon="2.08386">
        <ele>511</ele>
        <time>2023-10-01T08:10:18Z</time>
      </trkpt>
      <trkpt lat="43.42052" lon="2.08389">
        <ele>511.2</ele>
        <time>2023-10-01T08:10:19Z</time>
      </trkpt>
      <trkpt lat="43.4205" lon="2.08392">
        <ele>511.2</ele>
        <time>2023-10-01T08:10:20Z</time>
      </trkpt>
      <trkpt lat="43.42047" lon="2.08393">
        <ele>511.6</ele>
        <time>2023-10-01T08:10:21Z</time>
      </trkpt>
      <trkpt lat="43.42044" lon="2.08394">
        <ele>511.8</ele>
        <time>2023-10-01T08:10:22Z</time>
      </trkpt>
      <trkpt lat="43.42043" lon="2.08395">
        <ele>511.8</ele>
        <time>2023-10-01T08:10:23Z</time>
      </trkpt>
      <trkpt lat="43.42042" lon="2.08396">
        <ele>511.8</ele>
        <time>2023-10-01T08:10:24Z</time>
      </trkpt>
      <trkpt lat="43.42042" lon="2.08396">
        <ele>511.8</ele>
        <time>2023-10-01T08:10:25Z</time>
      </trkpt>
      <trkpt lat="43.42042" lon="2.08396">
        <ele>512</ele>
        <time>2023-10-01T08:10:26Z</time>
      </trkpt>
      <trkpt lat="43.42042" lon="2.08398">
        <ele>512</ele>
        <time>2023-10-01T08:10:27Z</time>
      </trkpt>
      <trkpt lat="43.42042" lon="2.08402">
        <ele>512</ele>
        <time>2023-10-01T08:10:28Z</time>
      </trkpt>
      <trkpt lat="43.4204" lon="2.08406">
        <ele>512</ele>
        <time>2023-10-01T08:10:29Z</time>
      </trkpt>
      <trkpt lat="43.42037" lon="2.08412">
        <ele>512</ele>
        <time>2023-10-01T08:10:30Z</time>
      </trkpt>
      <trkpt lat="43.42034" lon="2.08417">
        <ele>511.8</ele>
        <time>2023-10-01T08:10:31Z</time>
      </trkpt>
      <trkpt lat="43.42031" lon="2.08421">
        <ele>511.8</ele>
        <time>2023-10-01T08:10:32Z</time>
      </trkpt>
      <trkpt lat="43.42026" lon="2.08427">
        <ele>511.8</ele>
        <time>2023-10-01T08:10:33Z</time>
      </trkpt>
      <trkpt lat="43.42022" lon="2.08431">
        <ele>511.8</ele>
        <time>2023-10-01T08:10:34Z</time>
      </trkpt>
      <trkpt lat="43.42019" lon="2.08436">
        <ele>512</ele>
        <time>2023-10-01T08:10:35Z</time>
      </trkpt>
      <trkpt lat="43.42015" lon="2.0844">
        <ele>512</ele>
        <time>2023-10-01T08:10:36Z</time>
      </trkpt>
      <trkpt lat="43.42002" lon="2.08457">
        <ele>511.8</ele>
        <time>2023-10-01T08:10:39Z</time>
      </trkpt>
      <trkpt lat="43.41984" lon="2.08496">
        <ele>511.6</ele>
        <time>2023-10-01T08:10:44Z</time>
      </trkpt>
      <trkpt lat="43.41983" lon="2.08504">
        <ele>511.6</ele>
        <time>2023-10-01T08:10:45Z</time>
      </trkpt>
      <trkpt lat="43.41982" lon="2.08511">
        <ele>511.6</ele>
        <time>2023-10-01T08:10:46Z</time>
      </trkpt>
      <trkpt lat="43.41978" lon="2.08517">
        <ele>511.4</ele>
        <time>2023-10-01T08:10:47Z</time>
      </trkpt>
      <trkpt lat="43.41972" lon="2.08524">
        <ele>511.4</ele>
        <time>2023-10-01T08:10:48Z</time>
      </trkpt>
      <trkpt lat="43.41967" lon="2.08529">
        <ele>511.4</ele>
        <time>2023-10-01T08:10:49Z</time>
      </trkpt>
      <trkpt lat="43.41962" lon="2.08537">
        <ele>511.2</ele>
        <time>2023-10-01T08:10:50Z</time>
      </trkpt>
      <trkpt lat="43.41958" lon="2.08544">
        <ele>511.2</ele>
        <time>2023-10-01T08:10:51Z</time>
      </trkpt>
      <trkpt lat="43.41954" lon="2.08551">
        <ele>511.2</ele>
        <time>2023-10-01T08:10:52Z</time>
      </trkpt>
      <trkpt lat="43.4195" lon="2.08558">
        <ele>511.2</ele>
        <time>2023-10-01T08:10:53Z</time>
      </trkpt>
      <trkpt lat="43.41943" lon="2.08574">
        <ele>511.2</ele>
        <time>2023-10-01T08:10:55Z</time>
      </trkpt>
      <trkpt lat="43.41941" lon="2.08581">
        <ele>511.2</ele>
        <time>2023-10-01T08:10:56Z</time>
      </trkpt>
      <trkpt lat="43.41935" lon="2.08606">
        <ele>511</ele>
        <time>2023-10-01T08:10:59Z</time>
      </trkpt>
      <trkpt lat="43.41935" lon="2.08613">
        <ele>511</ele>
        <time>2023-10-01T08:11:00Z</time>
      </trkpt>
      <trkpt lat="43.41934" lon="2.08621">
        <ele>510.8</ele>
        <time>2023-10-01T08:11:01Z</time>
      </trkpt>
      <trkpt lat="43.41933" lon="2.08628">
        <ele>510.8</ele>
        <time>2023-10-01T08:11:02Z</time>
      </trkpt>
      <trkpt lat="43.41933" lon="2.08636">
        <ele>510.8</ele>
        <time>2023-10-01T08:11:03Z</time>
      </trkpt>
      <trkpt lat="43.41934" lon="2.0865">
        <ele>510.8</ele>
        <time>2023-10-01T08:11:05Z</time>
      </trkpt>
      <trkpt lat="43.41934" lon="2.08659">
        <ele>510.8</ele>
        <time>2023-10-01T08:11:06Z</time>
      </trkpt>
      <trkpt lat="43.41934" lon="2.08666">
        <ele>510.8</ele>
        <time>2023-10-01T08:11:07Z</time>
      </trkpt>
      <trkpt lat="43.41935" lon="2.0868">
        <ele>511</ele>
        <time>2023-10-01T08:11:09Z</time>
      </trkpt>
      <trkpt lat="43.41935" lon="2.08685">
        <ele>511</ele>
        <time>2023-10-01T08:11:10Z</time>
      </trkpt>
      <trkpt lat="43.41936" lon="2.08693">
        <ele>511</ele>
        <time>2023-10-01T08:11:11Z</time>
      </trkpt>
      <trkpt lat="43.41943" lon="2.08715">
        <ele>511.2</ele>
        <time>2023-10-01T08:11:14Z</time>
      </trkpt>
      <trkpt lat="43.41946" lon="2.08721">
        <ele>511.2</ele>
        <time>2023-10-01T08:11:15Z</time>
      </trkpt>
      <trkpt lat="43.4195" lon="2.08727">
        <ele>511.4</ele>
        <time>2023-10-01T08:11:16Z</time>
      </trkpt>
      <trkpt lat="43.41955" lon="2.08734">
        <ele>511.4</ele>
        <time>2023-10-01T08:11:17Z</time>
      </trkpt>
      <trkpt lat="43.41959" lon="2.08746">
        <ele>511.4</ele>
        <time>2023-10-01T08:11:19Z</time>
      </trkpt>
      <trkpt lat="43.41958" lon="2.0875">
        <ele>511.6</ele>
        <time>2023-10-01T08:11:20Z</time>
      </trkpt>
      <trkpt lat="43.41954" lon="2.08756">
        <ele>511.6</ele>
        <time>2023-10-01T08:11:21Z</time>
      </trkpt>
      <trkpt lat="43.41945" lon="2.08759">
        <ele>512</ele>
        <time>2023-10-01T08:11:23Z</time>
      </trkpt>
      <trkpt lat="43.41937" lon="2.0876">
        <ele>512</ele>
        <time>2023-10-01T08:11:24Z</time>
      </trkpt>
      <trkpt lat="43.4193" lon="2.0876">
        <ele>512</ele>
        <time>2023-10-01T08:11:25Z</time>
      </trkpt>
      <trkpt lat="43.41923" lon="2.08762">
        <ele>512</ele>
        <time>2023-10-01T08:11:26Z</time>
      </trkpt>
      <trkpt lat="43.41905" lon="2.08766">
        <ele>512</ele>
        <time>2023-10-01T08:11:29Z</time>
      </trkpt>
      <trkpt lat="43.41899" lon="2.08767">
        <ele>512</ele>
        <time>2023-10-01T08:11:30Z</time>
      </trkpt>
      <trkpt lat="43.41893" lon="2.08768">
        <ele>512</ele>
        <time>2023-10-01T08:11:31Z</time>
      </trkpt>
      <trkpt lat="43.41868" lon="2.08765">
        <ele>512</ele>
        <time>2023-10-01T08:11:35Z</time>
      </trkpt>
      <trkpt lat="43.41824" lon="2.08755">
        <ele>511.8</ele>
        <time>2023-10-01T08:11:42Z</time>
      </trkpt>
      <trkpt lat="43.41813" lon="2.08754">
        <ele>512.2</ele>
        <time>2023-10-01T08:11:44Z</time>
      </trkpt>
      <trkpt lat="43.41795" lon="2.08753">
        <ele>512.2</ele>
        <time>2023-10-01T08:11:47Z</time>
      </trkpt>
      <trkpt lat="43.41789" lon="2.08753">
        <ele>512.2</ele>
        <time>2023-10-01T08:11:48Z</time>
      </trkpt>
      <trkpt lat="43.41784" lon="2.08753">
        <ele>512.2</ele>
        <time>2023-10-01T08:11:49Z</time>
      </trkpt>
      <trkpt lat="43.41759" lon="2.0875">
        <ele>512.2</ele>
        <time>2023-10-01T08:11:53Z</time>
      </trkpt>
      <trkpt lat="43.41742" lon="2.08748">
        <ele>512.2</ele>
        <time>2023-10-01T08:11:56Z</time>
      </trkpt>
      <trkpt lat="43.41736" lon="2.08747">
        <ele>512.2</ele>
        <time>2023-10-01T08:11:57Z</time>
      </trkpt>
      <trkpt lat="43.4173" lon="2.08746">
        <ele>512.2</ele>
        <time>2023-10-01T08:11:58Z</time>
      </trkpt>
      <trkpt lat="43.41725" lon="2.08745">
        <ele>512</ele>
        <time>2023-10-01T08:11:59Z</time>
      </trkpt>
      <trkpt lat="43.41719" lon="2.08745">
        <ele>512</ele>
        <time>2023-10-01T08:12:00Z</time>
      </trkpt>
      <trkpt lat="43.41714" lon="2.08748">
        <ele>512</ele>
        <time>2023-10-01T08:12:01Z</time>
      </trkpt>
      <trkpt lat="43.41709" lon="2.08752">
        <ele>512</ele>
        <time>2023-10-01T08:12:02Z</time>
      </trkpt>
      <trkpt lat="43.41706" lon="2.08756">
        <ele>512</ele>
        <time>2023-10-01T08:12:03Z</time>
      </trkpt>
      <trkpt lat="43.41702" lon="2.08761">
        <ele>512</ele>
        <time>2023-10-01T08:12:04Z</time>
      </trkpt>
      <trkpt lat="43.41697" lon="2.08762">
        <ele>512</ele>
        <time>2023-10-01T08:12:05Z</time>
      </trkpt>
      <trkpt lat="43.41691" lon="2.0876">
        <ele>512</ele>
        <time>2023-10-01T08:12:06Z</time>
      </trkpt>
      <trkpt lat="43.41687" lon="2.08758">
        <ele>512</ele>
        <time>2023-10-01T08:12:07Z</time>
      </trkpt>
      <trkpt lat="43.41682" lon="2.08756">
        <ele>512</ele>
        <time>2023-10-01T08:12:08Z</time>
      </trkpt>
      <trkpt lat="43.41671" lon="2.0875">
        <ele>511.8</ele>
        <time>2023-10-01T08:12:10Z</time>
      </trkpt>
      <trkpt lat="43.41665" lon="2.08748">
        <ele>511.8</ele>
        <time>2023-10-01T08:12:11Z</time>
      </trkpt>
      <trkpt lat="43.41654" lon="2.08748">
        <ele>511.8</ele>
        <time>2023-10-01T08:12:13Z</time>
      </trkpt>
      <trkpt lat="43.41648" lon="2.08749">
        <ele>511.8</ele>
        <time>2023-10-01T08:12:14Z</time>
      </trkpt>
      <trkpt lat="43.41643" lon="2.0875">
        <ele>512</ele>
        <time>2023-10-01T08:12:15Z</time>
      </trkpt>
      <trkpt lat="43.41638" lon="2.08753">
        <ele>511.8</ele>
        <time>2023-10-01T08:12:16Z</time>
      </trkpt>
      <trkpt lat="43.41632" lon="2.08758">
        <ele>511.8</ele>
        <time>2023-10-01T08:12:17Z</time>
      </trkpt>
      <trkpt lat="43.41628" lon="2.08764">
        <ele>511.8</ele>
        <time>2023-10-01T08:12:18Z</time>
      </trkpt>
      <trkpt lat="43.41625" lon="2.08772">
        <ele>511.8</ele>
        <time>2023-10-01T08:12:19Z</time>
      </trkpt>
      <trkpt lat="43.41624" lon="2.0878">
        <ele>511.8</ele>
        <time>2023-10-01T08:12:20Z</time>
      </trkpt>
      <trkpt lat="43.41624" lon="2.08789">
        <ele>512</ele>
        <time>2023-10-01T08:12:21Z</time>
      </trkpt>
      <trkpt lat="43.41625" lon="2.08795">
        <ele>512</ele>
        <time>2023-10-01T08:12:22Z</time>
      </trkpt>
      <trkpt lat="43.41625" lon="2.08803">
        <ele>512</ele>
        <time>2023-10-01T08:12:23Z</time>
      </trkpt>
      <trkpt lat="43.41626" lon="2.0881">
        <ele>512</ele>
        <time>2023-10-01T08:12:24Z</time>
      </trkpt>
      <trkpt lat="43.41626" lon="2.08817">
        <ele>512</ele>
        <time>2023-10-01T08:12:25Z</time>
      </trkpt>
      <trkpt lat="43.41624" lon="2.08824">
        <ele>512</ele>
        <time>2023-10-01T08:12:26Z</time>
      </trkpt>
      <trkpt lat="43.4162" lon="2.08829">
        <ele>512</ele>
        <time>2023-10-01T08:12:27Z</time>
      </trkpt>
      <trkpt lat="43.41615" lon="2.08834">
        <ele>512</ele>
        <time>2023-10-01T08:12:28Z</time>
      </trkpt>
      <trkpt lat="43.41608" lon="2.08839">
        <ele>512.2</ele>
        <time>2023-10-01T08:12:29Z</time>
      </trkpt>
      <trkpt lat="43.41604" lon="2.08842">
        <ele>512.2</ele>
        <time>2023-10-01T08:12:30Z</time>
      </trkpt>
      <trkpt lat="43.41599" lon="2.08846">
        <ele>512.2</ele>
        <time>2023-10-01T08:12:31Z</time>
      </trkpt>
      <trkpt lat="43.41587" lon="2.08854">
        <ele>511.8</ele>
        <time>2023-10-01T08:12:33Z</time>
      </trkpt>
      <trkpt lat="43.41575" lon="2.08862">
        <ele>511.8</ele>
        <time>2023-10-01T08:12:35Z</time>
      </trkpt>
      <trkpt lat="43.41571" lon="2.08866">
        <ele>511.6</ele>
        <time>2023-10-01T08:12:36Z</time>
      </trkpt>
      <trkpt lat="43.41547" lon="2.08882">
        <ele>511.2</ele>
        <time>2023-10-01T08:12:40Z</time>
      </trkpt>
      <trkpt lat="43.41542" lon="2.08884">
        <ele>511.2</ele>
        <time>2023-10-01T08:12:41Z</time>
      </trkpt>
      <trkpt lat="43.41537" lon="2.08886">
        <ele>510.8</ele>
        <time>2023-10-01T08:12:42Z</time>
      </trkpt>
      <trkpt lat="43.41533" lon="2.08887">
        <ele>510.2</ele>
        <time>2023-10-01T08:12:43Z</time>
      </trkpt>
      <trkpt lat="43.41529" lon="2.08889">
        <ele>509.8</ele>
        <time>2023-10-01T08:12:44Z</time>
      </trkpt>
      <trkpt lat="43.41528" lon="2.0889">
        <ele>509.6</ele>
        <time>2023-10-01T08:12:45Z</time>
      </trkpt>
      <trkpt lat="43.41527" lon="2.08892">
        <ele>509.2</ele>
        <time>2023-10-01T08:12:46Z</time>
      </trkpt>
      <trkpt lat="43.41528" lon="2.08894">
        <ele>508.8</ele>
        <time>2023-10-01T08:12:47Z</time>
      </trkpt>
      <trkpt lat="43.4153" lon="2.08894">
        <ele>508.2</ele>
        <time>2023-10-01T08:12:48Z</time>
      </trkpt>
      <trkpt lat="43.41539" lon="2.08892">
        <ele>507.4</ele>
        <time>2023-10-01T08:12:51Z</time>
      </trkpt>
      <trkpt lat="43.41544" lon="2.08891">
        <ele>507</ele>
        <time>2023-10-01T08:12:52Z</time>
      </trkpt>
      <trkpt lat="43.41547" lon="2.08891">
        <ele>506.6</ele>
        <time>2023-10-01T08:12:53Z</time>
      </trkpt>
      <trkpt lat="43.4155" lon="2.08892">
        <ele>505.8</ele>
        <time>2023-10-01T08:12:54Z</time>
      </trkpt>
      <trkpt lat="43.41552" lon="2.08893">
        <ele>504.6</ele>
        <time>2023-10-01T08:12:55Z</time>
      </trkpt>
      <trkpt lat="43.41553" lon="2.08894">
        <ele>504</ele>
        <time>2023-10-01T08:12:56Z</time>
      </trkpt>
      <trkpt lat="43.41553" lon="2.08895">
        <ele>503</ele>
        <time>2023-10-01T08:12:57Z</time>
      </trkpt>
      <trkpt lat="43.41552" lon="2.08898">
        <ele>502.6</ele>
        <time>2023-10-01T08:12:58Z</time>
      </trkpt>
      <trkpt lat="43.41549" lon="2.08902">
        <ele>501.8</ele>
        <time>2023-10-01T08:12:59Z</time>
      </trkpt>
      <trkpt lat="43.41546" lon="2.08906">
        <ele>501.6</ele>
        <time>2023-10-01T08:13:00Z</time>
      </trkpt>
      <trkpt lat="43.4154" lon="2.08917">
        <ele>500.4</ele>
        <time>2023-10-01T08:13:02Z</time>
      </trkpt>
      <trkpt lat="43.41539" lon="2.08921">
        <ele>499.8</ele>
        <time>2023-10-01T08:13:03Z</time>
      </trkpt>
      <trkpt lat="43.4154" lon="2.08923">
        <ele>498.8</ele>
        <time>2023-10-01T08:13:04Z</time>
      </trkpt>
      <trkpt lat="43.41541" lon="2.08925">
        <ele>498.2</ele>
        <time>2023-10-01T08:13:05Z</time>
      </trkpt>
      <trkpt lat="43.41541" lon="2.08926">
        <ele>496.6</ele>
        <time>2023-10-01T08:13:06Z</time>
      </trkpt>
      <trkpt lat="43.41541" lon="2.08929">
        <ele>495.2</ele>
        <time>2023-10-01T08:13:07Z</time>
      </trkpt>
      <trkpt lat="43.41541" lon="2.08932">
        <ele>494</ele>
        <time>2023-10-01T08:13:08Z</time>
      </trkpt>
      <trkpt lat="43.4154" lon="2.08934">
        <ele>492.8</ele>
        <time>2023-10-01T08:13:09Z</time>
      </trkpt>
      <trkpt lat="43.41541" lon="2.08937">
        <ele>492.4</ele>
        <time>2023-10-01T08:13:10Z</time>
      </trkpt>
      <trkpt lat="43.4154" lon="2.0894">
        <ele>491.6</ele>
        <time>2023-10-01T08:13:11Z</time>
      </trkpt>
      <trkpt lat="43.41539" lon="2.08942">
        <ele>491.4</ele>
        <time>2023-10-01T08:13:12Z</time>
      </trkpt>
      <trkpt lat="43.41537" lon="2.08945">
        <ele>491.2</ele>
        <time>2023-10-01T08:13:13Z</time>
      </trkpt>
      <trkpt lat="43.41535" lon="2.08949">
        <ele>491</ele>
        <time>2023-10-01T08:13:14Z</time>
      </trkpt>
      <trkpt lat="43.41534" lon="2.08953">
        <ele>491</ele>
        <time>2023-10-01T08:13:15Z</time>
      </trkpt>
      <trkpt lat="43.41531" lon="2.08961">
        <ele>491</ele>
        <time>2023-10-01T08:13:16Z</time>
      </trkpt>
      <trkpt lat="43.41527" lon="2.08988">
        <ele>491</ele>
        <time>2023-10-01T08:13:19Z</time>
      </trkpt>
      <trkpt lat="43.41525" lon="2.08997">
        <ele>491</ele>
        <time>2023-10-01T08:13:20Z</time>
      </trkpt>
      <trkpt lat="43.41522" lon="2.09016">
        <ele>491.2</ele>
        <time>2023-10-01T08:13:22Z</time>
      </trkpt>
      <trkpt lat="43.4152" lon="2.09022">
        <ele>491.4</ele>
        <time>2023-10-01T08:13:23Z</time>
      </trkpt>
      <trkpt lat="43.41519" lon="2.09027">
        <ele>491.4</ele>
        <time>2023-10-01T08:13:24Z</time>
      </trkpt>
      <trkpt lat="43.41516" lon="2.09032">
        <ele>491.6</ele>
        <time>2023-10-01T08:13:25Z</time>
      </trkpt>
      <trkpt lat="43.41513" lon="2.09036">
        <ele>491.6</ele>
        <time>2023-10-01T08:13:26Z</time>
      </trkpt>
      <trkpt lat="43.4151" lon="2.09039">
        <ele>491.6</ele>
        <time>2023-10-01T08:13:27Z</time>
      </trkpt>
      <trkpt lat="43.41508" lon="2.09044">
        <ele>491.6</ele>
        <time>2023-10-01T08:13:28Z</time>
      </trkpt>
      <trkpt lat="43.41507" lon="2.09054">
        <ele>491.4</ele>
        <time>2023-10-01T08:13:30Z</time>
      </trkpt>
      <trkpt lat="43.41506" lon="2.09059">
        <ele>491.6</ele>
        <time>2023-10-01T08:13:31Z</time>
      </trkpt>
      <trkpt lat="43.41505" lon="2.09065">
        <ele>491.8</ele>
        <time>2023-10-01T08:13:32Z</time>
      </trkpt>
      <trkpt lat="43.41504" lon="2.09068">
        <ele>491.8</ele>
        <time>2023-10-01T08:13:33Z</time>
      </trkpt>
      <trkpt lat="43.41504" lon="2.09071">
        <ele>491.8</ele>
        <time>2023-10-01T08:13:34Z</time>
      </trkpt>
      <trkpt lat="43.41503" lon="2.09075">
        <ele>491.8</ele>
        <time>2023-10-01T08:13:35Z</time>
      </trkpt>
      <trkpt lat="43.41502" lon="2.09079">
        <ele>492</ele>
        <time>2023-10-01T08:13:36Z</time>
      </trkpt>
      <trkpt lat="43.415" lon="2.09085">
        <ele>492.2</ele>
        <time>2023-10-01T08:13:37Z</time>
      </trkpt>
      <trkpt lat="43.41495" lon="2.09094">
        <ele>492.4</ele>
        <time>2023-10-01T08:13:39Z</time>
      </trkpt>
      <trkpt lat="43.41492" lon="2.09097">
        <ele>492.6</ele>
        <time>2023-10-01T08:13:40Z</time>
      </trkpt>
      <trkpt lat="43.41491" lon="2.09099">
        <ele>493.2</ele>
        <time>2023-10-01T08:13:41Z</time>
      </trkpt>
      <trkpt lat="43.41489" lon="2.09103">
        <ele>493.6</ele>
        <time>2023-10-01T08:13:42Z</time>
      </trkpt>
      <trkpt lat="43.41483" lon="2.09114">
        <ele>494.6</ele>
        <time>2023-10-01T08:13:45Z</time>
      </trkpt>
      <trkpt lat="43.41483" lon="2.0912">
        <ele>495</ele>
        <time>2023-10-01T08:13:46Z</time>
      </trkpt>
      <trkpt lat="43.41485" lon="2.09127">
        <ele>495.2</ele>
        <time>2023-10-01T08:13:47Z</time>
      </trkpt>
      <trkpt lat="43.4149" lon="2.09146">
        <ele>495.6</ele>
        <time>2023-10-01T08:13:50Z</time>
      </trkpt>
      <trkpt lat="43.4149" lon="2.09149">
        <ele>495.6</ele>
        <time>2023-10-01T08:13:51Z</time>
      </trkpt>
      <trkpt lat="43.41491" lon="2.09152">
        <ele>495.6</ele>
        <time>2023-10-01T08:13:52Z</time>
      </trkpt>
      <trkpt lat="43.41491" lon="2.09155">
        <ele>495.2</ele>
        <time>2023-10-01T08:13:53Z</time>
      </trkpt>
      <trkpt lat="43.41492" lon="2.09158">
        <ele>495</ele>
        <time>2023-10-01T08:13:54Z</time>
      </trkpt>
      <trkpt lat="43.41493" lon="2.09163">
        <ele>494.8</ele>
        <time>2023-10-01T08:13:55Z</time>
      </trkpt>
      <trkpt lat="43.41493" lon="2.09169">
        <ele>494.4</ele>
        <time>2023-10-01T08:13:56Z</time>
      </trkpt>
      <trkpt lat="43.41495" lon="2.09175">
        <ele>494.4</ele>
        <time>2023-10-01T08:13:57Z</time>
      </trkpt>
      <trkpt lat="43.41496" lon="2.09179">
        <ele>494.2</ele>
        <time>2023-10-01T08:13:58Z</time>
      </trkpt>
      <trkpt lat="43.41497" lon="2.09184">
        <ele>494.2</ele>
        <time>2023-10-01T08:13:59Z</time>
      </trkpt>
      <trkpt lat="43.41498" lon="2.0919">
        <ele>494.2</ele>
        <time>2023-10-01T08:14:00Z</time>
      </trkpt>
      <trkpt lat="43.41498" lon="2.09196">
        <ele>494.2</ele>
        <time>2023-10-01T08:14:01Z</time>
      </trkpt>
      <trkpt lat="43.41495" lon="2.09226">
        <ele>494.6</ele>
        <time>2023-10-01T08:14:06Z</time>
      </trkpt>
      <trkpt lat="43.41492" lon="2.09235">
        <ele>495</ele>
        <time>2023-10-01T08:14:08Z</time>
      </trkpt>
      <trkpt lat="43.41486" lon="2.09246">
        <ele>495.4</ele>
        <time>2023-10-01T08:14:10Z</time>
      </trkpt>
      <trkpt lat="43.41478" lon="2.09269">
        <ele>496</ele>
        <time>2023-10-01T08:14:14Z</time>
      </trkpt>
      <trkpt lat="43.41477" lon="2.09275">
        <ele>496</ele>
        <time>2023-10-01T08:14:15Z</time>
      </trkpt>
      <trkpt lat="43.41474" lon="2.0928">
        <ele>496.2</ele>
        <time>2023-10-01T08:14:16Z</time>
      </trkpt>
      <trkpt lat="43.41471" lon="2.09286">
        <ele>496.2</ele>
        <time>2023-10-01T08:14:17Z</time>
      </trkpt>
      <trkpt lat="43.41468" lon="2.09289">
        <ele>496.6</ele>
        <time>2023-10-01T08:14:18Z</time>
      </trkpt>
      <trkpt lat="43.41467" lon="2.09292">
        <ele>496.8</ele>
        <time>2023-10-01T08:14:19Z</time>
      </trkpt>
      <trkpt lat="43.41465" lon="2.09295">
        <ele>496.8</ele>
        <time>2023-10-01T08:14:20Z</time>
      </trkpt>
      <trkpt lat="43.41462" lon="2.09299">
        <ele>497</ele>
        <time>2023-10-01T08:14:21Z</time>
      </trkpt>
      <trkpt lat="43.41459" lon="2.09301">
        <ele>497</ele>
        <time>2023-10-01T08:14:22Z</time>
      </trkpt>
      <trkpt lat="43.41454" lon="2.09306">
        <ele>497.2</ele>
        <time>2023-10-01T08:14:23Z</time>
      </trkpt>
      <trkpt lat="43.4145" lon="2.09313">
        <ele>497.2</ele>
        <time>2023-10-01T08:14:24Z</time>
      </trkpt>
      <trkpt lat="43.41447" lon="2.0932">
        <ele>497.2</ele>
        <time>2023-10-01T08:14:25Z</time>
      </trkpt>
      <trkpt lat="43.41444" lon="2.09327">
        <ele>497.2</ele>
        <time>2023-10-01T08:14:26Z</time>
      </trkpt>
      <trkpt lat="43.41442" lon="2.09334">
        <ele>497.2</ele>
        <time>2023-10-01T08:14:27Z</time>
      </trkpt>
      <trkpt lat="43.41441" lon="2.09342">
        <ele>497.2</ele>
        <time>2023-10-01T08:14:28Z</time>
      </trkpt>
      <trkpt lat="43.4144" lon="2.09351">
        <ele>497.2</ele>
        <time>2023-10-01T08:14:29Z</time>
      </trkpt>
      <trkpt lat="43.41439" lon="2.09358">
        <ele>497</ele>
        <time>2023-10-01T08:14:30Z</time>
      </trkpt>
      <trkpt lat="43.41438" lon="2.09366">
        <ele>497</ele>
        <time>2023-10-01T08:14:31Z</time>
      </trkpt>
      <trkpt lat="43.41437" lon="2.09374">
        <ele>496.8</ele>
        <time>2023-10-01T08:14:32Z</time>
      </trkpt>
      <trkpt lat="43.4144" lon="2.09397">
        <ele>497</ele>
        <time>2023-10-01T08:14:34Z</time>
      </trkpt>
      <trkpt lat="43.41441" lon="2.09404">
        <ele>497</ele>
        <time>2023-10-01T08:14:35Z</time>
      </trkpt>
      <trkpt lat="43.41439" lon="2.0941">
        <ele>497.2</ele>
        <time>2023-10-01T08:14:36Z</time>
      </trkpt>
      <trkpt lat="43.41436" lon="2.09414">
        <ele>497.2</ele>
        <time>2023-10-01T08:14:37Z</time>
      </trkpt>
      <trkpt lat="43.41431" lon="2.09417">
        <ele>497.2</ele>
        <time>2023-10-01T08:14:38Z</time>
      </trkpt>
      <trkpt lat="43.41426" lon="2.09421">
        <ele>497.4</ele>
        <time>2023-10-01T08:14:39Z</time>
      </trkpt>
      <trkpt lat="43.41422" lon="2.09425">
        <ele>497.4</ele>
        <time>2023-10-01T08:14:40Z</time>
      </trkpt>
      <trkpt lat="43.41421" lon="2.0943">
        <ele>497.6</ele>
        <time>2023-10-01T08:14:41Z</time>
      </trkpt>
      <trkpt lat="43.4142" lon="2.09438">
        <ele>497.6</ele>
        <time>2023-10-01T08:14:42Z</time>
      </trkpt>
      <trkpt lat="43.41418" lon="2.09445">
        <ele>497.6</ele>
        <time>2023-10-01T08:14:43Z</time>
      </trkpt>
      <trkpt lat="43.41417" lon="2.09454">
        <ele>497.6</ele>
        <time>2023-10-01T08:14:44Z</time>
      </trkpt>
      <trkpt lat="43.41417" lon="2.0946">
        <ele>497.6</ele>
        <time>2023-10-01T08:14:45Z</time>
      </trkpt>
      <trkpt lat="43.41414" lon="2.09467">
        <ele>497.8</ele>
        <time>2023-10-01T08:14:46Z</time>
      </trkpt>
      <trkpt lat="43.4141" lon="2.0947">
        <ele>497.8</ele>
        <time>2023-10-01T08:14:47Z</time>
      </trkpt>
      <trkpt lat="43.41406" lon="2.09473">
        <ele>497.8</ele>
        <time>2023-10-01T08:14:48Z</time>
      </trkpt>
      <trkpt lat="43.41404" lon="2.09476">
        <ele>498</ele>
        <time>2023-10-01T08:14:49Z</time>
      </trkpt>
      <trkpt lat="43.41402" lon="2.0948">
        <ele>498</ele>
        <time>2023-10-01T08:14:50Z</time>
      </trkpt>
      <trkpt lat="43.414" lon="2.0948">
        <ele>498.2</ele>
        <time>2023-10-01T08:14:51Z</time>
      </trkpt>
      <trkpt lat="43.41396" lon="2.0948">
        <ele>498.2</ele>
        <time>2023-10-01T08:14:52Z</time>
      </trkpt>
      <trkpt lat="43.41393" lon="2.09483">
        <ele>498.4</ele>
        <time>2023-10-01T08:14:53Z</time>
      </trkpt>
      <trkpt lat="43.41392" lon="2.09486">
        <ele>498.6</ele>
        <time>2023-10-01T08:14:54Z</time>
      </trkpt>
      <trkpt lat="43.41388" lon="2.09496">
        <ele>499.4</ele>
        <time>2023-10-01T08:14:57Z</time>
      </trkpt>
      <trkpt lat="43.41387" lon="2.09499">
        <ele>499.8</ele>
        <time>2023-10-01T08:14:58Z</time>
      </trkpt>
      <trkpt lat="43.41386" lon="2.09501">
        <ele>500</ele>
        <time>2023-10-01T08:14:59Z</time>
      </trkpt>
      <trkpt lat="43.41385" lon="2.09504">
        <ele>500.4</ele>
        <time>2023-10-01T08:15:00Z</time>
      </trkpt>
      <trkpt lat="43.41382" lon="2.09508">
        <ele>500.8</ele>
        <time>2023-10-01T08:15:01Z</time>
      </trkpt>
      <trkpt lat="43.41377" lon="2.09507">
        <ele>501.8</ele>
        <time>2023-10-01T08:15:02Z</time>
      </trkpt>
      <trkpt lat="43.41375" lon="2.0951">
        <ele>502.6</ele>
        <time>2023-10-01T08:15:03Z</time>
      </trkpt>
      <trkpt lat="43.41375" lon="2.0951">
        <ele>502.8</ele>
        <time>2023-10-01T08:15:04Z</time>
      </trkpt>
      <trkpt lat="43.41372" lon="2.09514">
        <ele>503.8</ele>
        <time>2023-10-01T08:15:05Z</time>
      </trkpt>
      <trkpt lat="43.4137" lon="2.09517">
        <ele>504.4</ele>
        <time>2023-10-01T08:15:06Z</time>
      </trkpt>
      <trkpt lat="43.41369" lon="2.09519">
        <ele>504.8</ele>
        <time>2023-10-01T08:15:07Z</time>
      </trkpt>
      <trkpt lat="43.41367" lon="2.09521">
        <ele>505.2</ele>
        <time>2023-10-01T08:15:08Z</time>
      </trkpt>
      <trkpt lat="43.41365" lon="2.09522">
        <ele>506</ele>
        <time>2023-10-01T08:15:09Z</time>
      </trkpt>
      <trkpt lat="43.41363" lon="2.09524">
        <ele>507</ele>
        <time>2023-10-01T08:15:10Z</time>
      </trkpt>
      <trkpt lat="43.41361" lon="2.09525">
        <ele>507.2</ele>
        <time>2023-10-01T08:15:11Z</time>
      </trkpt>
      <trkpt lat="43.41359" lon="2.09527">
        <ele>507.8</ele>
        <time>2023-10-01T08:15:12Z</time>
      </trkpt>
      <trkpt lat="43.41357" lon="2.09528">
        <ele>508</ele>
        <time>2023-10-01T08:15:13Z</time>
      </trkpt>
      <trkpt lat="43.41353" lon="2.09531">
        <ele>508.6</ele>
        <time>2023-10-01T08:15:14Z</time>
      </trkpt>
      <trkpt lat="43.41351" lon="2.09535">
        <ele>508.8</ele>
        <time>2023-10-01T08:15:15Z</time>
      </trkpt>
      <trkpt lat="43.4135" lon="2.09538">
        <ele>509.4</ele>
        <time>2023-10-01T08:15:16Z</time>
      </trkpt>
      <trkpt lat="43.41349" lon="2.0954">
        <ele>510</ele>
        <time>2023-10-01T08:15:17Z</time>
      </trkpt>
      <trkpt lat="43.41348" lon="2.09541">
        <ele>510.4</ele>
        <time>2023-10-01T08:15:18Z</time>
      </trkpt>
      <trkpt lat="43.41344" lon="2.09542">
        <ele>510.8</ele>
        <time>2023-10-01T08:15:19Z</time>
      </trkpt>
      <trkpt lat="43.4134" lon="2.09542">
        <ele>511.2</ele>
        <time>2023-10-01T08:15:20Z</time>
      </trkpt>
      <trkpt lat="43.41336" lon="2.09543">
        <ele>511.8</ele>
        <time>2023-10-01T08:15:21Z</time>
      </trkpt>
      <trkpt lat="43.41333" lon="2.09545">
        <ele>512</ele>
        <time>2023-10-01T08:15:22Z</time>
      </trkpt>
      <trkpt lat="43.41329" lon="2.09547">
        <ele>512.8</ele>
        <time>2023-10-01T08:15:23Z</time>
      </trkpt>
      <trkpt lat="43.41325" lon="2.0955">
        <ele>513.4</ele>
        <time>2023-10-01T08:15:24Z</time>
      </trkpt>
      <trkpt lat="43.4132" lon="2.09553">
        <ele>513.6</ele>
        <time>2023-10-01T08:15:25Z</time>
      </trkpt>
      <trkpt lat="43.41314" lon="2.09554">
        <ele>513.8</ele>
        <time>2023-10-01T08:15:26Z</time>
      </trkpt>
      <trkpt lat="43.41308" lon="2.09555">
        <ele>513.8</ele>
        <time>2023-10-01T08:15:27Z</time>
      </trkpt>
      <trkpt lat="43.41302" lon="2.09553">
        <ele>514</ele>
        <time>2023-10-01T08:15:28Z</time>
      </trkpt>
      <trkpt lat="43.41297" lon="2.0955">
        <ele>514</ele>
        <time>2023-10-01T08:15:29Z</time>
      </trkpt>
      <trkpt lat="43.41292" lon="2.09546">
        <ele>514.2</ele>
        <time>2023-10-01T08:15:30Z</time>
      </trkpt>
      <trkpt lat="43.41288" lon="2.09541">
        <ele>514.2</ele>
        <time>2023-10-01T08:15:31Z</time>
      </trkpt>
      <trkpt lat="43.41283" lon="2.09535">
        <ele>514.2</ele>
        <time>2023-10-01T08:15:32Z</time>
      </trkpt>
      <trkpt lat="43.41278" lon="2.09528">
        <ele>514.2</ele>
        <time>2023-10-01T08:15:33Z</time>
      </trkpt>
      <trkpt lat="43.41274" lon="2.09523">
        <ele>514.4</ele>
        <time>2023-10-01T08:15:34Z</time>
      </trkpt>
      <trkpt lat="43.41271" lon="2.09517">
        <ele>514.4</ele>
        <time>2023-10-01T08:15:35Z</time>
      </trkpt>
      <trkpt lat="43.41268" lon="2.0951">
        <ele>514.4</ele>
        <time>2023-10-01T08:15:36Z</time>
      </trkpt>
      <trkpt lat="43.41266" lon="2.09503">
        <ele>514.4</ele>
        <time>2023-10-01T08:15:37Z</time>
      </trkpt>
      <trkpt lat="43.41263" lon="2.09495">
        <ele>514.4</ele>
        <time>2023-10-01T08:15:38Z</time>
      </trkpt>
      <trkpt lat="43.41259" lon="2.09487">
        <ele>514.6</ele>
        <time>2023-10-01T08:15:39Z</time>
      </trkpt>
      <trkpt lat="43.41257" lon="2.09479">
        <ele>514.6</ele>
        <time>2023-10-01T08:15:40Z</time>
      </trkpt>
      <trkpt lat="43.41254" lon="2.09473">
        <ele>514.6</ele>
        <time>2023-10-01T08:15:41Z</time>
      </trkpt>
      <trkpt lat="43.41252" lon="2.09466">
        <ele>514.4</ele>
        <time>2023-10-01T08:15:42Z</time>
      </trkpt>
      <trkpt lat="43.41248" lon="2.09461">
        <ele>514.4</ele>
        <time>2023-10-01T08:15:43Z</time>
      </trkpt>
      <trkpt lat="43.41244" lon="2.09455">
        <ele>514.4</ele>
        <time>2023-10-01T08:15:44Z</time>
      </trkpt>
      <trkpt lat="43.41239" lon="2.0945">
        <ele>514.4</ele>
        <time>2023-10-01T08:15:45Z</time>
      </trkpt>
      <trkpt lat="43.41233" lon="2.09446">
        <ele>514.6</ele>
        <time>2023-10-01T08:15:46Z</time>
      </trkpt>
      <trkpt lat="43.41228" lon="2.09442">
        <ele>514.4</ele>
        <time>2023-10-01T08:15:47Z</time>
      </trkpt>
      <trkpt lat="43.41223" lon="2.09439">
        <ele>514.6</ele>
        <time>2023-10-01T08:15:48Z</time>
      </trkpt>
      <trkpt lat="43.41217" lon="2.09437">
        <ele>514.6</ele>
        <time>2023-10-01T08:15:49Z</time>
      </trkpt>
      <trkpt lat="43.41211" lon="2.09436">
        <ele>514.6</ele>
        <time>2023-10-01T08:15:50Z</time>
      </trkpt>
      <trkpt lat="43.41205" lon="2.09435">
        <ele>514.6</ele>
        <time>2023-10-01T08:15:51Z</time>
      </trkpt>
      <trkpt lat="43.41199" lon="2.09434">
        <ele>514.6</ele>
        <time>2023-10-01T08:15:52Z</time>
      </trkpt>
      <trkpt lat="43.41193" lon="2.09433">
        <ele>514.6</ele>
        <time>2023-10-01T08:15:53Z</time>
      </trkpt>
      <trkpt lat="43.41187" lon="2.09431">
        <ele>514.6</ele>
        <time>2023-10-01T08:15:54Z</time>
      </trkpt>
      <trkpt lat="43.41174" lon="2.09429">
        <ele>514.6</ele>
        <time>2023-10-01T08:15:56Z</time>
      </trkpt>
      <trkpt lat="43.41168" lon="2.09428">
        <ele>514.6</ele>
        <time>2023-10-01T08:15:57Z</time>
      </trkpt>
      <trkpt lat="43.41152" lon="2.09433">
        <ele>514.6</ele>
        <time>2023-10-01T08:16:00Z</time>
      </trkpt>
      <trkpt lat="43.41147" lon="2.09435">
        <ele>514.6</ele>
        <time>2023-10-01T08:16:01Z</time>
      </trkpt>
      <trkpt lat="43.41137" lon="2.09443">
        <ele>514.6</ele>
        <time>2023-10-01T08:16:03Z</time>
      </trkpt>
      <trkpt lat="43.4113" lon="2.09448">
        <ele>514.6</ele>
        <time>2023-10-01T08:16:04Z</time>
      </trkpt>
      <trkpt lat="43.41124" lon="2.09451">
        <ele>514.6</ele>
        <time>2023-10-01T08:16:05Z</time>
      </trkpt>
      <trkpt lat="43.41114" lon="2.09458">
        <ele>514.6</ele>
        <time>2023-10-01T08:16:07Z</time>
      </trkpt>
      <trkpt lat="43.41109" lon="2.09461">
        <ele>514.6</ele>
        <time>2023-10-01T08:16:08Z</time>
      </trkpt>
      <trkpt lat="43.41103" lon="2.09463">
        <ele>514.6</ele>
        <time>2023-10-01T08:16:09Z</time>
      </trkpt>
      <trkpt lat="43.41096" lon="2.09465">
        <ele>514.6</ele>
        <time>2023-10-01T08:16:10Z</time>
      </trkpt>
      <trkpt lat="43.41088" lon="2.09465">
        <ele>514.6</ele>
        <time>2023-10-01T08:16:11Z</time>
      </trkpt>
      <trkpt lat="43.4108" lon="2.09463">
        <ele>514.6</ele>
        <time>2023-10-01T08:16:12Z</time>
      </trkpt>
      <trkpt lat="43.41075" lon="2.0946">
        <ele>514.6</ele>
        <time>2023-10-01T08:16:13Z</time>
      </trkpt>
      <trkpt lat="43.4107" lon="2.09454">
        <ele>514.4</ele>
        <time>2023-10-01T08:16:14Z</time>
      </trkpt>
      <trkpt lat="43.41066" lon="2.09448">
        <ele>514.4</ele>
        <time>2023-10-01T08:16:15Z</time>
      </trkpt>
      <trkpt lat="43.41062" lon="2.09442">
        <ele>514.4</ele>
        <time>2023-10-01T08:16:16Z</time>
      </trkpt>
      <trkpt lat="43.41054" lon="2.09431">
        <ele>514.4</ele>
        <time>2023-10-01T08:16:18Z</time>
      </trkpt>
      <trkpt lat="43.4105" lon="2.09426">
        <ele>514.4</ele>
        <time>2023-10-01T08:16:19Z</time>
      </trkpt>
      <trkpt lat="43.41041" lon="2.09416">
        <ele>514.4</ele>
        <time>2023-10-01T08:16:21Z</time>
      </trkpt>
      <trkpt lat="43.41034" lon="2.09405">
        <ele>514.4</ele>
        <time>2023-10-01T08:16:23Z</time>
      </trkpt>
      <trkpt lat="43.41028" lon="2.09392">
        <ele>514.6</ele>
        <time>2023-10-01T08:16:25Z</time>
      </trkpt>
      <trkpt lat="43.41024" lon="2.09385">
        <ele>514.6</ele>
        <time>2023-10-01T08:16:26Z</time>
      </trkpt>
      <trkpt lat="43.41021" lon="2.0938">
        <ele>514.8</ele>
        <time>2023-10-01T08:16:27Z</time>
      </trkpt>
      <trkpt lat="43.41012" lon="2.09371">
        <ele>514.8</ele>
        <time>2023-10-01T08:16:29Z</time>
      </trkpt>
      <trkpt lat="43.41007" lon="2.09366">
        <ele>514.8</ele>
        <time>2023-10-01T08:16:30Z</time>
      </trkpt>
      <trkpt lat="43.41001" lon="2.09361">
        <ele>514.8</ele>
        <time>2023-10-01T08:16:31Z</time>
      </trkpt>
      <trkpt lat="43.40988" lon="2.09358">
        <ele>514.8</ele>
        <time>2023-10-01T08:16:33Z</time>
      </trkpt>
      <trkpt lat="43.40982" lon="2.09358">
        <ele>514.8</ele>
        <time>2023-10-01T08:16:34Z</time>
      </trkpt>
      <trkpt lat="43.40975" lon="2.09357">
        <ele>514.8</ele>
        <time>2023-10-01T08:16:35Z</time>
      </trkpt>
      <trkpt lat="43.40969" lon="2.09358">
        <ele>514.8</ele>
        <time>2023-10-01T08:16:36Z</time>
      </trkpt>
      <trkpt lat="43.40964" lon="2.0936">
        <ele>515</ele>
        <time>2023-10-01T08:16:37Z</time>
      </trkpt>
      <trkpt lat="43.40958" lon="2.09363">
        <ele>515</ele>
        <time>2023-10-01T08:16:38Z</time>
      </trkpt>
      <trkpt lat="43.40953" lon="2.09366">
        <ele>515</ele>
        <time>2023-10-01T08:16:39Z</time>
      </trkpt>
      <trkpt lat="43.40948" lon="2.0937">
        <ele>515</ele>
        <time>2023-10-01T08:16:40Z</time>
      </trkpt>
      <trkpt lat="43.40944" lon="2.09375">
        <ele>515</ele>
        <time>2023-10-01T08:16:41Z</time>
      </trkpt>
      <trkpt lat="43.4094" lon="2.09379">
        <ele>514.8</ele>
        <time>2023-10-01T08:16:42Z</time>
      </trkpt>
      <trkpt lat="43.40937" lon="2.09384">
        <ele>515</ele>
        <time>2023-10-01T08:16:43Z</time>
      </trkpt>
      <trkpt lat="43.40928" lon="2.09396">
        <ele>515</ele>
        <time>2023-10-01T08:16:45Z</time>
      </trkpt>
      <trkpt lat="43.40923" lon="2.09401">
        <ele>515</ele>
        <time>2023-10-01T08:16:46Z</time>
      </trkpt>
      <trkpt lat="43.40919" lon="2.09407">
        <ele>515</ele>
        <time>2023-10-01T08:16:47Z</time>
      </trkpt>
      <trkpt lat="43.40916" lon="2.09413">
        <ele>515</ele>
        <time>2023-10-01T08:16:48Z</time>
      </trkpt>
      <trkpt lat="43.40915" lon="2.0942">
        <ele>515</ele>
        <time>2023-10-01T08:16:49Z</time>
      </trkpt>
      <trkpt lat="43.40914" lon="2.09427">
        <ele>515</ele>
        <time>2023-10-01T08:16:50Z</time>
      </trkpt>
      <trkpt lat="43.40913" lon="2.09433">
        <ele>515</ele>
        <time>2023-10-01T08:16:51Z</time>
      </trkpt>
      <trkpt lat="43.40913" lon="2.0944">
        <ele>515</ele>
        <time>2023-10-01T08:16:52Z</time>
      </trkpt>
      <trkpt lat="43.40912" lon="2.09448">
        <ele>515.2</ele>
        <time>2023-10-01T08:16:53Z</time>
      </trkpt>
      <trkpt lat="43.4091" lon="2.09464">
        <ele>515.2</ele>
        <time>2023-10-01T08:16:55Z</time>
      </trkpt>
      <trkpt lat="43.40909" lon="2.09471">
        <ele>515.2</ele>
        <time>2023-10-01T08:16:56Z</time>
      </trkpt>
      <trkpt lat="43.40908" lon="2.09478">
        <ele>515.2</ele>
        <time>2023-10-01T08:16:57Z</time>
      </trkpt>
      <trkpt lat="43.40907" lon="2.09485">
        <ele>515.4</ele>
        <time>2023-10-01T08:16:58Z</time>
      </trkpt>
      <trkpt lat="43.40905" lon="2.09491">
        <ele>515.4</ele>
        <time>2023-10-01T08:16:59Z</time>
      </trkpt>
      <trkpt lat="43.40903" lon="2.09499">
        <ele>515.4</ele>
        <time>2023-10-01T08:17:00Z</time>
      </trkpt>
      <trkpt lat="43.409" lon="2.09507">
        <ele>515.4</ele>
        <time>2023-10-01T08:17:01Z</time>
      </trkpt>
      <trkpt lat="43.40894" lon="2.09522">
        <ele>515.6</ele>
        <time>2023-10-01T08:17:03Z</time>
      </trkpt>
      <trkpt lat="43.40891" lon="2.0953">
        <ele>515.6</ele>
        <time>2023-10-01T08:17:04Z</time>
      </trkpt>
      <trkpt lat="43.40886" lon="2.09537">
        <ele>515.6</ele>
        <time>2023-10-01T08:17:05Z</time>
      </trkpt>
      <trkpt lat="43.40877" lon="2.09546">
        <ele>515.6</ele>
        <time>2023-10-01T08:17:07Z</time>
      </trkpt>
      <trkpt lat="43.40872" lon="2.09553">
        <ele>515.6</ele>
        <time>2023-10-01T08:17:08Z</time>
      </trkpt>
      <trkpt lat="43.40868" lon="2.09558">
        <ele>515.6</ele>
        <time>2023-10-01T08:17:09Z</time>
      </trkpt>
      <trkpt lat="43.40863" lon="2.09561">
        <ele>515.6</ele>
        <time>2023-10-01T08:17:10Z</time>
      </trkpt>
      <trkpt lat="43.4086" lon="2.09562">
        <ele>515.6</ele>
        <time>2023-10-01T08:17:11Z</time>
      </trkpt>
      <trkpt lat="43.40857" lon="2.09559">
        <ele>515.6</ele>
        <time>2023-10-01T08:17:12Z</time>
      </trkpt>
      <trkpt lat="43.40857" lon="2.09555">
        <ele>515.6</ele>
        <time>2023-10-01T08:17:13Z</time>
      </trkpt>
      <trkpt lat="43.4086" lon="2.09552">
        <ele>515.6</ele>
        <time>2023-10-01T08:17:14Z</time>
      </trkpt>
      <trkpt lat="43.40865" lon="2.09542">
        <ele>515.6</ele>
        <time>2023-10-01T08:17:17Z</time>
      </trkpt>
      <trkpt lat="43.40873" lon="2.09523">
        <ele>516.4</ele>
        <time>2023-10-01T08:17:21Z</time>
      </trkpt>
      <trkpt lat="43.40877" lon="2.09515">
        <ele>517.2</ele>
        <time>2023-10-01T08:17:23Z</time>
      </trkpt>
      <trkpt lat="43.40879" lon="2.09509">
        <ele>517.6</ele>
        <time>2023-10-01T08:17:24Z</time>
      </trkpt>
      <trkpt lat="43.40879" lon="2.09505">
        <ele>518.6</ele>
        <time>2023-10-01T08:17:25Z</time>
      </trkpt>
      <trkpt lat="43.40882" lon="2.09494">
        <ele>519.8</ele>
        <time>2023-10-01T08:17:27Z</time>
      </trkpt>
      <trkpt lat="43.40884" lon="2.0949">
        <ele>520.8</ele>
        <time>2023-10-01T08:17:28Z</time>
      </trkpt>
      <trkpt lat="43.40885" lon="2.09485">
        <ele>521.2</ele>
        <time>2023-10-01T08:17:29Z</time>
      </trkpt>
      <trkpt lat="43.40885" lon="2.09481">
        <ele>522.2</ele>
        <time>2023-10-01T08:17:30Z</time>
      </trkpt>
      <trkpt lat="43.40885" lon="2.09475">
        <ele>522.6</ele>
        <time>2023-10-01T08:17:31Z</time>
      </trkpt>
      <trkpt lat="43.40885" lon="2.09469">
        <ele>523.4</ele>
        <time>2023-10-01T08:17:32Z</time>
      </trkpt>
      <trkpt lat="43.40883" lon="2.09464">
        <ele>524</ele>
        <time>2023-10-01T08:17:33Z</time>
      </trkpt>
      <trkpt lat="43.40881" lon="2.09462">
        <ele>524.6</ele>
        <time>2023-10-01T08:17:34Z</time>
      </trkpt>
      <trkpt lat="43.40878" lon="2.09461">
        <ele>525.6</ele>
        <time>2023-10-01T08:17:35Z</time>
      </trkpt>
      <trkpt lat="43.40875" lon="2.09463">
        <ele>526</ele>
        <time>2023-10-01T08:17:36Z</time>
      </trkpt>
      <trkpt lat="43.40872" lon="2.09465">
        <ele>526.4</ele>
        <time>2023-10-01T08:17:37Z</time>
      </trkpt>
      <trkpt lat="43.40869" lon="2.09469">
        <ele>527</ele>
        <time>2023-10-01T08:17:38Z</time>
      </trkpt>
      <trkpt lat="43.40867" lon="2.09472">
        <ele>527.8</ele>
        <time>2023-10-01T08:17:39Z</time>
      </trkpt>
      <trkpt lat="43.40865" lon="2.09476">
        <ele>528.4</ele>
        <time>2023-10-01T08:17:40Z</time>
      </trkpt>
      <trkpt lat="43.40863" lon="2.0948">
        <ele>528.8</ele>
        <time>2023-10-01T08:17:41Z</time>
      </trkpt>
      <trkpt lat="43.4086" lon="2.09482">
        <ele>529.6</ele>
        <time>2023-10-01T08:17:42Z</time>
      </trkpt>
      <trkpt lat="43.40857" lon="2.09482">
        <ele>530</ele>
        <time>2023-10-01T08:17:43Z</time>
      </trkpt>
      <trkpt lat="43.40853" lon="2.09482">
        <ele>530.6</ele>
        <time>2023-10-01T08:17:44Z</time>
      </trkpt>
      <trkpt lat="43.4085" lon="2.0948">
        <ele>531</ele>
        <time>2023-10-01T08:17:45Z</time>
      </trkpt>
      <trkpt lat="43.40848" lon="2.09477">
        <ele>531.6</ele>
        <time>2023-10-01T08:17:46Z</time>
      </trkpt>
      <trkpt lat="43.40848" lon="2.09473">
        <ele>532</ele>
        <time>2023-10-01T08:17:47Z</time>
      </trkpt>
      <trkpt lat="43.40849" lon="2.09469">
        <ele>532.4</ele>
        <time>2023-10-01T08:17:48Z</time>
      </trkpt>
      <trkpt lat="43.40851" lon="2.09466">
        <ele>533.2</ele>
        <time>2023-10-01T08:17:49Z</time>
      </trkpt>
      <trkpt lat="43.40852" lon="2.09461">
        <ele>533.6</ele>
        <time>2023-10-01T08:17:50Z</time>
      </trkpt>
      <trkpt lat="43.40854" lon="2.09456">
        <ele>534.4</ele>
        <time>2023-10-01T08:17:51Z</time>
      </trkpt>
      <trkpt lat="43.40855" lon="2.09451">
        <ele>534.6</ele>
        <time>2023-10-01T08:17:52Z</time>
      </trkpt>
      <trkpt lat="43.40856" lon="2.09447">
        <ele>535.4</ele>
        <time>2023-10-01T08:17:53Z</time>
      </trkpt>
      <trkpt lat="43.40857" lon="2.09443">
        <ele>536</ele>
        <time>2023-10-01T08:17:54Z</time>
      </trkpt>
      <trkpt lat="43.40858" lon="2.09439">
        <ele>536.6</ele>
        <time>2023-10-01T08:17:55Z</time>
      </trkpt>
      <trkpt lat="43.40858" lon="2.09434">
        <ele>537.4</ele>
        <time>2023-10-01T08:17:56Z</time>
      </trkpt>
      <trkpt lat="43.40859" lon="2.0943">
        <ele>537.8</ele>
        <time>2023-10-01T08:17:57Z</time>
      </trkpt>
      <trkpt lat="43.4086" lon="2.09426">
        <ele>538.4</ele>
        <time>2023-10-01T08:17:58Z</time>
      </trkpt>
      <trkpt lat="43.4086" lon="2.09422">
        <ele>538.8</ele>
        <time>2023-10-01T08:17:59Z</time>
      </trkpt>
      <trkpt lat="43.40861" lon="2.09418">
        <ele>539.6</ele>
        <time>2023-10-01T08:18:00Z</time>
      </trkpt>
      <trkpt lat="43.40862" lon="2.09412">
        <ele>540</ele>
        <time>2023-10-01T08:18:01Z</time>
      </trkpt>
      <trkpt lat="43.40862" lon="2.09407">
        <ele>540.4</ele>
        <time>2023-10-01T08:18:02Z</time>
      </trkpt>
      <trkpt lat="43.40862" lon="2.09404">
        <ele>540.6</ele>
        <time>2023-10-01T08:18:03Z</time>
      </trkpt>
      <trkpt lat="43.40862" lon="2.09399">
        <ele>541.4</ele>
        <time>2023-10-01T08:18:04Z</time>
      </trkpt>
      <trkpt lat="43.40862" lon="2.09394">
        <ele>542</ele>
        <time>2023-10-01T08:18:05Z</time>
      </trkpt>
      <trkpt lat="43.40862" lon="2.09389">
        <ele>542.2</ele>
        <time>2023-10-01T08:18:06Z</time>
      </trkpt>
      <trkpt lat="43.40862" lon="2.09384">
        <ele>542.8</ele>
        <time>2023-10-01T08:18:07Z</time>
      </trkpt>
      <trkpt lat="43.40863" lon="2.0938">
        <ele>543</ele>
        <time>2023-10-01T08:18:08Z</time>
      </trkpt>
      <trkpt lat="43.40863" lon="2.09375">
        <ele>543.8</ele>
        <time>2023-10-01T08:18:09Z</time>
      </trkpt>
      <trkpt lat="43.40864" lon="2.09371">
        <ele>544</ele>
        <time>2023-10-01T08:18:10Z</time>
      </trkpt>
      <trkpt lat="43.40865" lon="2.09367">
        <ele>545</ele>
        <time>2023-10-01T08:18:11Z</time>
      </trkpt>
      <trkpt lat="43.40867" lon="2.09361">
        <ele>545.8</ele>
        <time>2023-10-01T08:18:12Z</time>
      </trkpt>
      <trkpt lat="43.40868" lon="2.09357">
        <ele>546.2</ele>
        <time>2023-10-01T08:18:13Z</time>
      </trkpt>
      <trkpt lat="43.40869" lon="2.09352">
        <ele>546.8</ele>
        <time>2023-10-01T08:18:14Z</time>
      </trkpt>
      <trkpt lat="43.4087" lon="2.09347">
        <ele>547.4</ele>
        <time>2023-10-01T08:18:15Z</time>
      </trkpt>
      <trkpt lat="43.40871" lon="2.09342">
        <ele>548.4</ele>
        <time>2023-10-01T08:18:16Z</time>
      </trkpt>
      <trkpt lat="43.40871" lon="2.09335">
        <ele>548.8</ele>
        <time>2023-10-01T08:18:17Z</time>
      </trkpt>
      <trkpt lat="43.4087" lon="2.09331">
        <ele>549.6</ele>
        <time>2023-10-01T08:18:18Z</time>
      </trkpt>
      <trkpt lat="43.40867" lon="2.09328">
        <ele>550.2</ele>
        <time>2023-10-01T08:18:19Z</time>
      </trkpt>
      <trkpt lat="43.40864" lon="2.09327">
        <ele>550.6</ele>
        <time>2023-10-01T08:18:20Z</time>
      </trkpt>
      <trkpt lat="43.40861" lon="2.09329">
        <ele>551</ele>
        <time>2023-10-01T08:18:21Z</time>
      </trkpt>
      <trkpt lat="43.4086" lon="2.09332">
        <ele>551.2</ele>
        <time>2023-10-01T08:18:22Z</time>
      </trkpt>
      <trkpt lat="43.40859" lon="2.09335">
        <ele>551.8</ele>
        <time>2023-10-01T08:18:23Z</time>
      </trkpt>
      <trkpt lat="43.40857" lon="2.09339">
        <ele>552.2</ele>
        <time>2023-10-01T08:18:24Z</time>
      </trkpt>
      <trkpt lat="43.40856" lon="2.09342">
        <ele>553</ele>
        <time>2023-10-01T08:18:25Z</time>
      </trkpt>
      <trkpt lat="43.40855" lon="2.09347">
        <ele>553.2</ele>
        <time>2023-10-01T08:18:26Z</time>
      </trkpt>
      <trkpt lat="43.40854" lon="2.09352">
        <ele>554</ele>
        <time>2023-10-01T08:18:27Z</time>
      </trkpt>
      <trkpt lat="43.40853" lon="2.09357">
        <ele>554.6</ele>
        <time>2023-10-01T08:18:28Z</time>
      </trkpt>
      <trkpt lat="43.40851" lon="2.09362">
        <ele>555</ele>
        <time>2023-10-01T08:18:29Z</time>
      </trkpt>
      <trkpt lat="43.4085" lon="2.09368">
        <ele>555.8</ele>
        <time>2023-10-01T08:18:30Z</time>
      </trkpt>
      <trkpt lat="43.40848" lon="2.09373">
        <ele>556</ele>
        <time>2023-10-01T08:18:31Z</time>
      </trkpt>
      <trkpt lat="43.40847" lon="2.09378">
        <ele>556.4</ele>
        <time>2023-10-01T08:18:32Z</time>
      </trkpt>
      <trkpt lat="43.40846" lon="2.09382">
        <ele>556.6</ele>
        <time>2023-10-01T08:18:33Z</time>
      </trkpt>
      <trkpt lat="43.40843" lon="2.09388">
        <ele>556.8</ele>
        <time>2023-10-01T08:18:34Z</time>
      </trkpt>
      <trkpt lat="43.40842" lon="2.09393">
        <ele>557.2</ele>
        <time>2023-10-01T08:18:35Z</time>
      </trkpt>
      <trkpt lat="43.40839" lon="2.094">
        <ele>557.2</ele>
        <time>2023-10-01T08:18:36Z</time>
      </trkpt>
      <trkpt lat="43.40837" lon="2.09404">
        <ele>557.6</ele>
        <time>2023-10-01T08:18:37Z</time>
      </trkpt>
      <trkpt lat="43.40835" lon="2.09409">
        <ele>557.6</ele>
        <time>2023-10-01T08:18:38Z</time>
      </trkpt>
      <trkpt lat="43.40832" lon="2.09414">
        <ele>557.8</ele>
        <time>2023-10-01T08:18:39Z</time>
      </trkpt>
      <trkpt lat="43.4083" lon="2.09417">
        <ele>557.8</ele>
        <time>2023-10-01T08:18:40Z</time>
      </trkpt>
      <trkpt lat="43.40827" lon="2.0942">
        <ele>558.2</ele>
        <time>2023-10-01T08:18:41Z</time>
      </trkpt>
      <trkpt lat="43.40824" lon="2.09422">
        <ele>558.4</ele>
        <time>2023-10-01T08:18:42Z</time>
      </trkpt>
      <trkpt lat="43.40821" lon="2.09423">
        <ele>559</ele>
        <time>2023-10-01T08:18:43Z</time>
      </trkpt>
      <trkpt lat="43.40818" lon="2.09425">
        <ele>559.2</ele>
        <time>2023-10-01T08:18:44Z</time>
      </trkpt>
      <trkpt lat="43.40815" lon="2.09426">
        <ele>559.4</ele>
        <time>2023-10-01T08:18:45Z</time>
      </trkpt>
      <trkpt lat="43.40812" lon="2.09427">
        <ele>559.8</ele>
        <time>2023-10-01T08:18:46Z</time>
      </trkpt>
      <trkpt lat="43.40808" lon="2.09425">
        <ele>560</ele>
        <time>2023-10-01T08:18:47Z</time>
      </trkpt>
      <trkpt lat="43.40805" lon="2.09423">
        <ele>560.4</ele>
        <time>2023-10-01T08:18:48Z</time>
      </trkpt>
      <trkpt lat="43.40802" lon="2.09421">
        <ele>560.8</ele>
        <time>2023-10-01T08:18:49Z</time>
      </trkpt>
      <trkpt lat="43.40801" lon="2.09417">
        <ele>561</ele>
        <time>2023-10-01T08:18:50Z</time>
      </trkpt>
      <trkpt lat="43.40801" lon="2.09413">
        <ele>561.6</ele>
        <time>2023-10-01T08:18:51Z</time>
      </trkpt>
      <trkpt lat="43.40801" lon="2.09408">
        <ele>561.8</ele>
        <time>2023-10-01T08:18:52Z</time>
      </trkpt>
      <trkpt lat="43.40802" lon="2.09404">
        <ele>562.2</ele>
        <time>2023-10-01T08:18:53Z</time>
      </trkpt>
      <trkpt lat="43.40803" lon="2.094">
        <ele>562.4</ele>
        <time>2023-10-01T08:18:54Z</time>
      </trkpt>
      <trkpt lat="43.40804" lon="2.09396">
        <ele>562.8</ele>
        <time>2023-10-01T08:18:55Z</time>
      </trkpt>
      <trkpt lat="43.40805" lon="2.09391">
        <ele>563</ele>
        <time>2023-10-01T08:18:56Z</time>
      </trkpt>
      <trkpt lat="43.40806" lon="2.09387">
        <ele>563.4</ele>
        <time>2023-10-01T08:18:57Z</time>
      </trkpt>
      <trkpt lat="43.40807" lon="2.09383">
        <ele>563.8</ele>
        <time>2023-10-01T08:18:58Z</time>
      </trkpt>
      <trkpt lat="43.40809" lon="2.09379">
        <ele>564</ele>
        <time>2023-10-01T08:18:59Z</time>
      </trkpt>
      <trkpt lat="43.4081" lon="2.09376">
        <ele>564.6</ele>
        <time>2023-10-01T08:19:00Z</time>
      </trkpt>
      <trkpt lat="43.40811" lon="2.09372">
        <ele>564.8</ele>
        <time>2023-10-01T08:19:01Z</time>
      </trkpt>
      <trkpt lat="43.40812" lon="2.09369">
        <ele>565.6</ele>
        <time>2023-10-01T08:19:02Z</time>
      </trkpt>
      <trkpt lat="43.40813" lon="2.09366">
        <ele>566</ele>
        <time>2023-10-01T08:19:03Z</time>
      </trkpt>
      <trkpt lat="43.40814" lon="2.09363">
        <ele>566.8</ele>
        <time>2023-10-01T08:19:04Z</time>
      </trkpt>
      <trkpt lat="43.40814" lon="2.09359">
        <ele>567.2</ele>
        <time>2023-10-01T08:19:05Z</time>
      </trkpt>
      <trkpt lat="43.40814" lon="2.09356">
        <ele>567.6</ele>
        <time>2023-10-01T08:19:06Z</time>
      </trkpt>
      <trkpt lat="43.40815" lon="2.09353">
        <ele>568.6</ele>
        <time>2023-10-01T08:19:07Z</time>
      </trkpt>
      <trkpt lat="43.40815" lon="2.09349">
        <ele>568.6</ele>
        <time>2023-10-01T08:19:08Z</time>
      </trkpt>
      <trkpt lat="43.40815" lon="2.09344">
        <ele>569.2</ele>
        <time>2023-10-01T08:19:09Z</time>
      </trkpt>
      <trkpt lat="43.40816" lon="2.09339">
        <ele>569.4</ele>
        <time>2023-10-01T08:19:10Z</time>
      </trkpt>
      <trkpt lat="43.40816" lon="2.09335">
        <ele>569.6</ele>
        <time>2023-10-01T08:19:11Z</time>
      </trkpt>
      <trkpt lat="43.40817" lon="2.0933">
        <ele>569.8</ele>
        <time>2023-10-01T08:19:12Z</time>
      </trkpt>
      <trkpt lat="43.40817" lon="2.09325">
        <ele>570.6</ele>
        <time>2023-10-01T08:19:13Z</time>
      </trkpt>
      <trkpt lat="43.40817" lon="2.09319">
        <ele>571.4</ele>
        <time>2023-10-01T08:19:14Z</time>
      </trkpt>
      <trkpt lat="43.40817" lon="2.09314">
        <ele>571.8</ele>
        <time>2023-10-01T08:19:15Z</time>
      </trkpt>
      <trkpt lat="43.40817" lon="2.09308">
        <ele>572.4</ele>
        <time>2023-10-01T08:19:16Z</time>
      </trkpt>
      <trkpt lat="43.40818" lon="2.09302">
        <ele>572.6</ele>
        <time>2023-10-01T08:19:17Z</time>
      </trkpt>
      <trkpt lat="43.40819" lon="2.09298">
        <ele>573.2</ele>
        <time>2023-10-01T08:19:18Z</time>
      </trkpt>
      <trkpt lat="43.4082" lon="2.09294">
        <ele>573.6</ele>
        <time>2023-10-01T08:19:19Z</time>
      </trkpt>
      <trkpt lat="43.40821" lon="2.0929">
        <ele>574.4</ele>
        <time>2023-10-01T08:19:20Z</time>
      </trkpt>
      <trkpt lat="43.40822" lon="2.09287">
        <ele>574.6</ele>
        <time>2023-10-01T08:19:21Z</time>
      </trkpt>
      <trkpt lat="43.40821" lon="2.09282">
        <ele>575</ele>
        <time>2023-10-01T08:19:22Z</time>
      </trkpt>
      <trkpt lat="43.4082" lon="2.09277">
        <ele>575.6</ele>
        <time>2023-10-01T08:19:23Z</time>
      </trkpt>
      <trkpt lat="43.4082" lon="2.09271">
        <ele>576.2</ele>
        <time>2023-10-01T08:19:24Z</time>
      </trkpt>
      <trkpt lat="43.40821" lon="2.09266">
        <ele>576.4</ele>
        <time>2023-10-01T08:19:25Z</time>
      </trkpt>
      <trkpt lat="43.40819" lon="2.0926">
        <ele>576.8</ele>
        <time>2023-10-01T08:19:26Z</time>
      </trkpt>
      <trkpt lat="43.40819" lon="2.09256">
        <ele>577.6</ele>
        <time>2023-10-01T08:19:27Z</time>
      </trkpt>
      <trkpt lat="43.40818" lon="2.09252">
        <ele>577.8</ele>
        <time>2023-10-01T08:19:28Z</time>
      </trkpt>
      <trkpt lat="43.40817" lon="2.09249">
        <ele>578.6</ele>
        <time>2023-10-01T08:19:29Z</time>
      </trkpt>
      <trkpt lat="43.40814" lon="2.09247">
        <ele>579.4</ele>
        <time>2023-10-01T08:19:30Z</time>
      </trkpt>
      <trkpt lat="43.40811" lon="2.09248">
        <ele>579.8</ele>
        <time>2023-10-01T08:19:31Z</time>
      </trkpt>
      <trkpt lat="43.40809" lon="2.0925">
        <ele>580</ele>
        <time>2023-10-01T08:19:32Z</time>
      </trkpt>
      <trkpt lat="43.40807" lon="2.09254">
        <ele>580.4</ele>
        <time>2023-10-01T08:19:33Z</time>
      </trkpt>
      <trkpt lat="43.40805" lon="2.09258">
        <ele>581.2</ele>
        <time>2023-10-01T08:19:34Z</time>
      </trkpt>
      <trkpt lat="43.40803" lon="2.09262">
        <ele>581.2</ele>
        <time>2023-10-01T08:19:35Z</time>
      </trkpt>
      <trkpt lat="43.408" lon="2.09267">
        <ele>581.8</ele>
        <time>2023-10-01T08:19:36Z</time>
      </trkpt>
      <trkpt lat="43.40798" lon="2.09271">
        <ele>582</ele>
        <time>2023-10-01T08:19:37Z</time>
      </trkpt>
      <trkpt lat="43.40796" lon="2.09274">
        <ele>582.4</ele>
        <time>2023-10-01T08:19:38Z</time>
      </trkpt>
      <trkpt lat="43.40794" lon="2.09277">
        <ele>582.6</ele>
        <time>2023-10-01T08:19:39Z</time>
      </trkpt>
      <trkpt lat="43.40792" lon="2.0928">
        <ele>582.8</ele>
        <time>2023-10-01T08:19:40Z</time>
      </trkpt>
      <trkpt lat="43.4079" lon="2.09284">
        <ele>583.2</ele>
        <time>2023-10-01T08:19:41Z</time>
      </trkpt>
      <trkpt lat="43.40788" lon="2.09288">
        <ele>583.4</ele>
        <time>2023-10-01T08:19:42Z</time>
      </trkpt>
      <trkpt lat="43.40787" lon="2.09292">
        <ele>583.8</ele>
        <time>2023-10-01T08:19:43Z</time>
      </trkpt>
      <trkpt lat="43.40785" lon="2.09296">
        <ele>584.2</ele>
        <time>2023-10-01T08:19:44Z</time>
      </trkpt>
      <trkpt lat="43.40782" lon="2.09299">
        <ele>584.6</ele>
        <time>2023-10-01T08:19:45Z</time>
      </trkpt>
      <trkpt lat="43.40779" lon="2.09304">
        <ele>584.8</ele>
        <time>2023-10-01T08:19:46Z</time>
      </trkpt>
      <trkpt lat="43.40776" lon="2.09309">
        <ele>585</ele>
        <time>2023-10-01T08:19:47Z</time>
      </trkpt>
      <trkpt lat="43.40773" lon="2.09313">
        <ele>585.4</ele>
        <time>2023-10-01T08:19:48Z</time>
      </trkpt>
      <trkpt lat="43.40771" lon="2.09318">
        <ele>585.4</ele>
        <time>2023-10-01T08:19:49Z</time>
      </trkpt>
      <trkpt lat="43.40768" lon="2.09323">
        <ele>585.4</ele>
        <time>2023-10-01T08:19:50Z</time>
      </trkpt>
      <trkpt lat="43.40764" lon="2.09328">
        <ele>585.4</ele>
        <time>2023-10-01T08:19:51Z</time>
      </trkpt>
      <trkpt lat="43.4076" lon="2.09332">
        <ele>585.4</ele>
        <time>2023-10-01T08:19:52Z</time>
      </trkpt>
      <trkpt lat="43.40756" lon="2.09334">
        <ele>585.2</ele>
        <time>2023-10-01T08:19:53Z</time>
      </trkpt>
      <trkpt lat="43.40751" lon="2.09335">
        <ele>585.2</ele>
        <time>2023-10-01T08:19:54Z</time>
      </trkpt>
      <trkpt lat="43.40746" lon="2.09334">
        <ele>585.2</ele>
        <time>2023-10-01T08:19:55Z</time>
      </trkpt>
      <trkpt lat="43.40742" lon="2.0933">
        <ele>585</ele>
        <time>2023-10-01T08:19:56Z</time>
      </trkpt>
      <trkpt lat="43.40739" lon="2.09324">
        <ele>584.8</ele>
        <time>2023-10-01T08:19:57Z</time>
      </trkpt>
      <trkpt lat="43.40736" lon="2.09317">
        <ele>584.8</ele>
        <time>2023-10-01T08:19:58Z</time>
      </trkpt>
      <trkpt lat="43.40732" lon="2.09309">
        <ele>584.6</ele>
        <time>2023-10-01T08:19:59Z</time>
      </trkpt>
      <trkpt lat="43.40729" lon="2.093">
        <ele>584.6</ele>
        <time>2023-10-01T08:20:00Z</time>
      </trkpt>
      <trkpt lat="43.40725" lon="2.09292">
        <ele>584.2</ele>
        <time>2023-10-01T08:20:01Z</time>
      </trkpt>
      <trkpt lat="43.4072" lon="2.09284">
        <ele>583.2</ele>
        <time>2023-10-01T08:20:02Z</time>
      </trkpt>
      <trkpt lat="43.40714" lon="2.09274">
        <ele>582.6</ele>
        <time>2023-10-01T08:20:03Z</time>
      </trkpt>
      <trkpt lat="43.40708" lon="2.09265">
        <ele>581.8</ele>
        <time>2023-10-01T08:20:04Z</time>
      </trkpt>
      <trkpt lat="43.40703" lon="2.09254">
        <ele>581.2</ele>
        <time>2023-10-01T08:20:05Z</time>
      </trkpt>
      <trkpt lat="43.40698" lon="2.09243">
        <ele>580.2</ele>
        <time>2023-10-01T08:20:06Z</time>
      </trkpt>
      <trkpt lat="43.40695" lon="2.09232">
        <ele>579.8</ele>
        <time>2023-10-01T08:20:07Z</time>
      </trkpt>
      <trkpt lat="43.40693" lon="2.0922">
        <ele>579.2</ele>
        <time>2023-10-01T08:20:08Z</time>
      </trkpt>
      <trkpt lat="43.40692" lon="2.0921">
        <ele>577.8</ele>
        <time>2023-10-01T08:20:09Z</time>
      </trkpt>
      <trkpt lat="43.4069" lon="2.09201">
        <ele>577.4</ele>
        <time>2023-10-01T08:20:10Z</time>
      </trkpt>
      <trkpt lat="43.40686" lon="2.09195">
        <ele>576.6</ele>
        <time>2023-10-01T08:20:11Z</time>
      </trkpt>
      <trkpt lat="43.40682" lon="2.09189">
        <ele>576.4</ele>
        <time>2023-10-01T08:20:12Z</time>
      </trkpt>
      <trkpt lat="43.4068" lon="2.09186">
        <ele>575.8</ele>
        <time>2023-10-01T08:20:13Z</time>
      </trkpt>
      <trkpt lat="43.40676" lon="2.09185">
        <ele>575.4</ele>
        <time>2023-10-01T08:20:14Z</time>
      </trkpt>
      <trkpt lat="43.40673" lon="2.09187">
        <ele>575.2</ele>
        <time>2023-10-01T08:20:15Z</time>
      </trkpt>
      <trkpt lat="43.40669" lon="2.09191">
        <ele>575.2</ele>
        <time>2023-10-01T08:20:16Z</time>
      </trkpt>
      <trkpt lat="43.40663" lon="2.09202">
        <ele>575.2</ele>
        <time>2023-10-01T08:20:18Z</time>
      </trkpt>
      <trkpt lat="43.4066" lon="2.09209">
        <ele>575.2</ele>
        <time>2023-10-01T08:20:19Z</time>
      </trkpt>
      <trkpt lat="43.4065" lon="2.09236">
        <ele>575.6</ele>
        <time>2023-10-01T08:20:23Z</time>
      </trkpt>
      <trkpt lat="43.40645" lon="2.09249">
        <ele>576.4</ele>
        <time>2023-10-01T08:20:25Z</time>
      </trkpt>
      <trkpt lat="43.40643" lon="2.09255">
        <ele>576.6</ele>
        <time>2023-10-01T08:20:26Z</time>
      </trkpt>
      <trkpt lat="43.40641" lon="2.09261">
        <ele>576.8</ele>
        <time>2023-10-01T08:20:27Z</time>
      </trkpt>
      <trkpt lat="43.40638" lon="2.09268">
        <ele>577.2</ele>
        <time>2023-10-01T08:20:28Z</time>
      </trkpt>
      <trkpt lat="43.40636" lon="2.09274">
        <ele>577.6</ele>
        <time>2023-10-01T08:20:29Z</time>
      </trkpt>
      <trkpt lat="43.40631" lon="2.09288">
        <ele>577.8</ele>
        <time>2023-10-01T08:20:31Z</time>
      </trkpt>
      <trkpt lat="43.40618" lon="2.09311">
        <ele>578.4</ele>
        <time>2023-10-01T08:20:35Z</time>
      </trkpt>
      <trkpt lat="43.40603" lon="2.09333">
        <ele>579.2</ele>
        <time>2023-10-01T08:20:39Z</time>
      </trkpt>
      <trkpt lat="43.40599" lon="2.09338">
        <ele>579.4</ele>
        <time>2023-10-01T08:20:40Z</time>
      </trkpt>
      <trkpt lat="43.40595" lon="2.09342">
        <ele>579.4</ele>
        <time>2023-10-01T08:20:41Z</time>
      </trkpt>
      <trkpt lat="43.40586" lon="2.09349">
        <ele>579.8</ele>
        <time>2023-10-01T08:20:43Z</time>
      </trkpt>
      <trkpt lat="43.40576" lon="2.09356">
        <ele>580</ele>
        <time>2023-10-01T08:20:45Z</time>
      </trkpt>
      <trkpt lat="43.40572" lon="2.09359">
        <ele>580.2</ele>
        <time>2023-10-01T08:20:46Z</time>
      </trkpt>
      <trkpt lat="43.40567" lon="2.09362">
        <ele>580.4</ele>
        <time>2023-10-01T08:20:47Z</time>
      </trkpt>
      <trkpt lat="43.40563" lon="2.09365">
        <ele>580.8</ele>
        <time>2023-10-01T08:20:48Z</time>
      </trkpt>
      <trkpt lat="43.40558" lon="2.09368">
        <ele>581</ele>
        <time>2023-10-01T08:20:49Z</time>
      </trkpt>
      <trkpt lat="43.40554" lon="2.09371">
        <ele>581.2</ele>
        <time>2023-10-01T08:20:50Z</time>
      </trkpt>
      <trkpt lat="43.40549" lon="2.09376">
        <ele>581.4</ele>
        <time>2023-10-01T08:20:51Z</time>
      </trkpt>
      <trkpt lat="43.40545" lon="2.09379">
        <ele>581.6</ele>
        <time>2023-10-01T08:20:52Z</time>
      </trkpt>
      <trkpt lat="43.4054" lon="2.09382">
        <ele>581.6</ele>
        <time>2023-10-01T08:20:53Z</time>
      </trkpt>
      <trkpt lat="43.40535" lon="2.09384">
        <ele>582</ele>
        <time>2023-10-01T08:20:54Z</time>
      </trkpt>
      <trkpt lat="43.4053" lon="2.09387">
        <ele>582</ele>
        <time>2023-10-01T08:20:55Z</time>
      </trkpt>
      <trkpt lat="43.40525" lon="2.09389">
        <ele>582.4</ele>
        <time>2023-10-01T08:20:56Z</time>
      </trkpt>
      <trkpt lat="43.4052" lon="2.09391">
        <ele>583</ele>
        <time>2023-10-01T08:20:57Z</time>
      </trkpt>
      <trkpt lat="43.40515" lon="2.09393">
        <ele>583</ele>
        <time>2023-10-01T08:20:58Z</time>
      </trkpt>
      <trkpt lat="43.4051" lon="2.09396">
        <ele>583.2</ele>
        <time>2023-10-01T08:20:59Z</time>
      </trkpt>
      <trkpt lat="43.40505" lon="2.09398">
        <ele>583.2</ele>
        <time>2023-10-01T08:21:00Z</time>
      </trkpt>
      <trkpt lat="43.40501" lon="2.094">
        <ele>583.4</ele>
        <time>2023-10-01T08:21:01Z</time>
      </trkpt>
      <trkpt lat="43.40496" lon="2.09401">
        <ele>583.4</ele>
        <time>2023-10-01T08:21:02Z</time>
      </trkpt>
      <trkpt lat="43.40491" lon="2.09401">
        <ele>583.6</ele>
        <time>2023-10-01T08:21:03Z</time>
      </trkpt>
      <trkpt lat="43.40487" lon="2.09401">
        <ele>583.8</ele>
        <time>2023-10-01T08:21:04Z</time>
      </trkpt>
      <trkpt lat="43.40483" lon="2.094">
        <ele>583.8</ele>
        <time>2023-10-01T08:21:05Z</time>
      </trkpt>
      <trkpt lat="43.40478" lon="2.094">
        <ele>584</ele>
        <time>2023-10-01T08:21:06Z</time>
      </trkpt>
      <trkpt lat="43.40473" lon="2.09398">
        <ele>584</ele>
        <time>2023-10-01T08:21:07Z</time>
      </trkpt>
      <trkpt lat="43.40469" lon="2.09396">
        <ele>584.4</ele>
        <time>2023-10-01T08:21:08Z</time>
      </trkpt>
      <trkpt lat="43.40465" lon="2.09392">
        <ele>584.4</ele>
        <time>2023-10-01T08:21:09Z</time>
      </trkpt>
      <trkpt lat="43.40462" lon="2.09386">
        <ele>584.6</ele>
        <time>2023-10-01T08:21:10Z</time>
      </trkpt>
      <trkpt lat="43.40459" lon="2.09381">
        <ele>584.8</ele>
        <time>2023-10-01T08:21:11Z</time>
      </trkpt>
      <trkpt lat="43.40458" lon="2.09375">
        <ele>584.8</ele>
        <time>2023-10-01T08:21:12Z</time>
      </trkpt>
      <trkpt lat="43.40457" lon="2.09369">
        <ele>585</ele>
        <time>2023-10-01T08:21:13Z</time>
      </trkpt>
      <trkpt lat="43.40456" lon="2.09363">
        <ele>585.2</ele>
        <time>2023-10-01T08:21:14Z</time>
      </trkpt>
      <trkpt lat="43.40456" lon="2.09358">
        <ele>585.4</ele>
        <time>2023-10-01T08:21:15Z</time>
      </trkpt>
      <trkpt lat="43.40455" lon="2.09352">
        <ele>585.4</ele>
        <time>2023-10-01T08:21:16Z</time>
      </trkpt>
      <trkpt lat="43.40453" lon="2.09347">
        <ele>585.6</ele>
        <time>2023-10-01T08:21:17Z</time>
      </trkpt>
      <trkpt lat="43.40452" lon="2.09341">
        <ele>585.6</ele>
        <time>2023-10-01T08:21:18Z</time>
      </trkpt>
      <trkpt lat="43.40451" lon="2.09336">
        <ele>585.8</ele>
        <time>2023-10-01T08:21:19Z</time>
      </trkpt>
      <trkpt lat="43.40449" lon="2.0933">
        <ele>586.2</ele>
        <time>2023-10-01T08:21:20Z</time>
      </trkpt>
      <trkpt lat="43.40448" lon="2.09324">
        <ele>586.4</ele>
        <time>2023-10-01T08:21:21Z</time>
      </trkpt>
      <trkpt lat="43.40445" lon="2.09319">
        <ele>587.2</ele>
        <time>2023-10-01T08:21:22Z</time>
      </trkpt>
      <trkpt lat="43.40443" lon="2.09314">
        <ele>587.6</ele>
        <time>2023-10-01T08:21:23Z</time>
      </trkpt>
      <trkpt lat="43.4044" lon="2.09308">
        <ele>588.2</ele>
        <time>2023-10-01T08:21:24Z</time>
      </trkpt>
      <trkpt lat="43.40436" lon="2.09304">
        <ele>588.4</ele>
        <time>2023-10-01T08:21:25Z</time>
      </trkpt>
      <trkpt lat="43.40432" lon="2.093">
        <ele>588.8</ele>
        <time>2023-10-01T08:21:26Z</time>
      </trkpt>
      <trkpt lat="43.40428" lon="2.09297">
        <ele>589</ele>
        <time>2023-10-01T08:21:27Z</time>
      </trkpt>
      <trkpt lat="43.40423" lon="2.09295">
        <ele>589.2</ele>
        <time>2023-10-01T08:21:28Z</time>
      </trkpt>
      <trkpt lat="43.40418" lon="2.09295">
        <ele>589.4</ele>
        <time>2023-10-01T08:21:29Z</time>
      </trkpt>
      <trkpt lat="43.40413" lon="2.09296">
        <ele>589.4</ele>
        <time>2023-10-01T08:21:30Z</time>
      </trkpt>
      <trkpt lat="43.40409" lon="2.093">
        <ele>589.6</ele>
        <time>2023-10-01T08:21:31Z</time>
      </trkpt>
      <trkpt lat="43.40405" lon="2.09305">
        <ele>589.6</ele>
        <time>2023-10-01T08:21:32Z</time>
      </trkpt>
      <trkpt lat="43.40401" lon="2.09311">
        <ele>589.8</ele>
        <time>2023-10-01T08:21:33Z</time>
      </trkpt>
      <trkpt lat="43.40398" lon="2.09317">
        <ele>589.8</ele>
        <time>2023-10-01T08:21:34Z</time>
      </trkpt>
      <trkpt lat="43.40395" lon="2.09323">
        <ele>589.8</ele>
        <time>2023-10-01T08:21:35Z</time>
      </trkpt>
      <trkpt lat="43.40391" lon="2.09328">
        <ele>590</ele>
        <time>2023-10-01T08:21:36Z</time>
      </trkpt>
      <trkpt lat="43.40388" lon="2.09334">
        <ele>590.2</ele>
        <time>2023-10-01T08:21:37Z</time>
      </trkpt>
      <trkpt lat="43.40384" lon="2.0934">
        <ele>590.4</ele>
        <time>2023-10-01T08:21:38Z</time>
      </trkpt>
      <trkpt lat="43.40381" lon="2.09345">
        <ele>590.6</ele>
        <time>2023-10-01T08:21:39Z</time>
      </trkpt>
      <trkpt lat="43.40377" lon="2.09349">
        <ele>590.8</ele>
        <time>2023-10-01T08:21:40Z</time>
      </trkpt>
      <trkpt lat="43.40373" lon="2.09353">
        <ele>590.8</ele>
        <time>2023-10-01T08:21:41Z</time>
      </trkpt>
      <trkpt lat="43.40369" lon="2.09357">
        <ele>591</ele>
        <time>2023-10-01T08:21:42Z</time>
      </trkpt>
      <trkpt lat="43.40364" lon="2.09361">
        <ele>591</ele>
        <time>2023-10-01T08:21:43Z</time>
      </trkpt>
      <trkpt lat="43.4036" lon="2.09366">
        <ele>591.2</ele>
        <time>2023-10-01T08:21:44Z</time>
      </trkpt>
      <trkpt lat="43.40355" lon="2.09369">
        <ele>591.4</ele>
        <time>2023-10-01T08:21:45Z</time>
      </trkpt>
      <trkpt lat="43.40351" lon="2.09373">
        <ele>591.4</ele>
        <time>2023-10-01T08:21:46Z</time>
      </trkpt>
      <trkpt lat="43.40347" lon="2.09377">
        <ele>591.6</ele>
        <time>2023-10-01T08:21:47Z</time>
      </trkpt>
      <trkpt lat="43.40342" lon="2.0938">
        <ele>591.8</ele>
        <time>2023-10-01T08:21:48Z</time>
      </trkpt>
      <trkpt lat="43.40338" lon="2.09383">
        <ele>592</ele>
        <time>2023-10-01T08:21:49Z</time>
      </trkpt>
      <trkpt lat="43.40333" lon="2.09387">
        <ele>592.2</ele>
        <time>2023-10-01T08:21:50Z</time>
      </trkpt>
      <trkpt lat="43.40328" lon="2.0939">
        <ele>592.2</ele>
        <time>2023-10-01T08:21:51Z</time>
      </trkpt>
      <trkpt lat="43.40323" lon="2.09392">
        <ele>592.6</ele>
        <time>2023-10-01T08:21:52Z</time>
      </trkpt>
      <trkpt lat="43.40318" lon="2.09394">
        <ele>592.8</ele>
        <time>2023-10-01T08:21:53Z</time>
      </trkpt>
      <trkpt lat="43.40313" lon="2.09396">
        <ele>593</ele>
        <time>2023-10-01T08:21:54Z</time>
      </trkpt>
      <trkpt lat="43.40308" lon="2.09398">
        <ele>593</ele>
        <time>2023-10-01T08:21:55Z</time>
      </trkpt>
      <trkpt lat="43.40303" lon="2.09401">
        <ele>593</ele>
        <time>2023-10-01T08:21:56Z</time>
      </trkpt>
      <trkpt lat="43.40297" lon="2.09404">
        <ele>593.2</ele>
        <time>2023-10-01T08:21:57Z</time>
      </trkpt>
      <trkpt lat="43.40292" lon="2.09408">
        <ele>593.2</ele>
        <time>2023-10-01T08:21:58Z</time>
      </trkpt>
      <trkpt lat="43.40286" lon="2.09412">
        <ele>593</ele>
        <time>2023-10-01T08:21:59Z</time>
      </trkpt>
      <trkpt lat="43.4028" lon="2.09416">
        <ele>593</ele>
        <time>2023-10-01T08:22:00Z</time>
      </trkpt>
      <trkpt lat="43.40273" lon="2.0942">
        <ele>593</ele>
        <time>2023-10-01T08:22:01Z</time>
      </trkpt>
      <trkpt lat="43.40267" lon="2.09426">
        <ele>592.8</ele>
        <time>2023-10-01T08:22:02Z</time>
      </trkpt>
      <trkpt lat="43.40261" lon="2.09433">
        <ele>592.8</ele>
        <time>2023-10-01T08:22:03Z</time>
      </trkpt>
      <trkpt lat="43.40256" lon="2.09441">
        <ele>592.6</ele>
        <time>2023-10-01T08:22:04Z</time>
      </trkpt>
      <trkpt lat="43.40251" lon="2.0945">
        <ele>592.4</ele>
        <time>2023-10-01T08:22:05Z</time>
      </trkpt>
      <trkpt lat="43.40245" lon="2.09457">
        <ele>591.6</ele>
        <time>2023-10-01T08:22:06Z</time>
      </trkpt>
      <trkpt lat="43.4024" lon="2.09464">
        <ele>591.2</ele>
        <time>2023-10-01T08:22:07Z</time>
      </trkpt>
      <trkpt lat="43.40234" lon="2.09471">
        <ele>590</ele>
        <time>2023-10-01T08:22:08Z</time>
      </trkpt>
      <trkpt lat="43.40227" lon="2.09476">
        <ele>589.6</ele>
        <time>2023-10-01T08:22:09Z</time>
      </trkpt>
      <trkpt lat="43.40212" lon="2.09481">
        <ele>589</ele>
        <time>2023-10-01T08:22:11Z</time>
      </trkpt>
      <trkpt lat="43.40205" lon="2.0948">
        <ele>588.6</ele>
        <time>2023-10-01T08:22:12Z</time>
      </trkpt>
      <trkpt lat="43.40198" lon="2.09477">
        <ele>588</ele>
        <time>2023-10-01T08:22:13Z</time>
      </trkpt>
      <trkpt lat="43.40191" lon="2.09474">
        <ele>587.8</ele>
        <time>2023-10-01T08:22:14Z</time>
      </trkpt>
      <trkpt lat="43.40183" lon="2.0947">
        <ele>587</ele>
        <time>2023-10-01T08:22:15Z</time>
      </trkpt>
      <trkpt lat="43.40175" lon="2.09466">
        <ele>586.8</ele>
        <time>2023-10-01T08:22:16Z</time>
      </trkpt>
      <trkpt lat="43.40158" lon="2.09456">
        <ele>586.2</ele>
        <time>2023-10-01T08:22:18Z</time>
      </trkpt>
      <trkpt lat="43.40151" lon="2.0945">
        <ele>585.8</ele>
        <time>2023-10-01T08:22:19Z</time>
      </trkpt>
      <trkpt lat="43.40144" lon="2.09444">
        <ele>585.4</ele>
        <time>2023-10-01T08:22:20Z</time>
      </trkpt>
      <trkpt lat="43.40137" lon="2.09439">
        <ele>584.8</ele>
        <time>2023-10-01T08:22:21Z</time>
      </trkpt>
      <trkpt lat="43.40129" lon="2.09437">
        <ele>584</ele>
        <time>2023-10-01T08:22:22Z</time>
      </trkpt>
      <trkpt lat="43.40121" lon="2.09437">
        <ele>583.6</ele>
        <time>2023-10-01T08:22:23Z</time>
      </trkpt>
      <trkpt lat="43.40115" lon="2.09441">
        <ele>583.4</ele>
        <time>2023-10-01T08:22:24Z</time>
      </trkpt>
      <trkpt lat="43.4011" lon="2.09446">
        <ele>583</ele>
        <time>2023-10-01T08:22:25Z</time>
      </trkpt>
      <trkpt lat="43.40105" lon="2.09452">
        <ele>582.6</ele>
        <time>2023-10-01T08:22:26Z</time>
      </trkpt>
      <trkpt lat="43.40101" lon="2.09457">
        <ele>582.4</ele>
        <time>2023-10-01T08:22:27Z</time>
      </trkpt>
      <trkpt lat="43.40097" lon="2.09464">
        <ele>582.2</ele>
        <time>2023-10-01T08:22:28Z</time>
      </trkpt>
      <trkpt lat="43.40094" lon="2.09471">
        <ele>582.2</ele>
        <time>2023-10-01T08:22:29Z</time>
      </trkpt>
      <trkpt lat="43.40091" lon="2.09477">
        <ele>582</ele>
        <time>2023-10-01T08:22:30Z</time>
      </trkpt>
      <trkpt lat="43.40086" lon="2.09489">
        <ele>581.8</ele>
        <time>2023-10-01T08:22:32Z</time>
      </trkpt>
      <trkpt lat="43.40084" lon="2.09495">
        <ele>581.8</ele>
        <time>2023-10-01T08:22:33Z</time>
      </trkpt>
      <trkpt lat="43.40082" lon="2.09501">
        <ele>581.8</ele>
        <time>2023-10-01T08:22:34Z</time>
      </trkpt>
      <trkpt lat="43.4008" lon="2.09507">
        <ele>582</ele>
        <time>2023-10-01T08:22:35Z</time>
      </trkpt>
      <trkpt lat="43.40079" lon="2.09511">
        <ele>582</ele>
        <time>2023-10-01T08:22:36Z</time>
      </trkpt>
      <trkpt lat="43.40075" lon="2.09521">
        <ele>582.2</ele>
        <time>2023-10-01T08:22:38Z</time>
      </trkpt>
      <trkpt lat="43.40073" lon="2.09527">
        <ele>582.4</ele>
        <time>2023-10-01T08:22:39Z</time>
      </trkpt>
      <trkpt lat="43.40069" lon="2.0954">
        <ele>582.8</ele>
        <time>2023-10-01T08:22:41Z</time>
      </trkpt>
      <trkpt lat="43.40064" lon="2.09563">
        <ele>583.6</ele>
        <time>2023-10-01T08:22:44Z</time>
      </trkpt>
      <trkpt lat="43.40063" lon="2.09581">
        <ele>583.8</ele>
        <time>2023-10-01T08:22:46Z</time>
      </trkpt>
      <trkpt lat="43.40063" lon="2.09589">
        <ele>584</ele>
        <time>2023-10-01T08:22:47Z</time>
      </trkpt>
      <trkpt lat="43.40062" lon="2.09597">
        <ele>584</ele>
        <time>2023-10-01T08:22:48Z</time>
      </trkpt>
      <trkpt lat="43.4006" lon="2.09612">
        <ele>584.4</ele>
        <time>2023-10-01T08:22:50Z</time>
      </trkpt>
      <trkpt lat="43.40056" lon="2.09627">
        <ele>584.6</ele>
        <time>2023-10-01T08:22:52Z</time>
      </trkpt>
      <trkpt lat="43.40053" lon="2.09634">
        <ele>584.8</ele>
        <time>2023-10-01T08:22:53Z</time>
      </trkpt>
      <trkpt lat="43.4005" lon="2.0964">
        <ele>585</ele>
        <time>2023-10-01T08:22:54Z</time>
      </trkpt>
      <trkpt lat="43.40047" lon="2.09646">
        <ele>585</ele>
        <time>2023-10-01T08:22:55Z</time>
      </trkpt>
      <trkpt lat="43.40039" lon="2.09656">
        <ele>585.2</ele>
        <time>2023-10-01T08:22:57Z</time>
      </trkpt>
      <trkpt lat="43.40035" lon="2.09662">
        <ele>585.2</ele>
        <time>2023-10-01T08:22:58Z</time>
      </trkpt>
      <trkpt lat="43.4003" lon="2.09669">
        <ele>585.4</ele>
        <time>2023-10-01T08:22:59Z</time>
      </trkpt>
      <trkpt lat="43.40026" lon="2.09673">
        <ele>585.6</ele>
        <time>2023-10-01T08:23:00Z</time>
      </trkpt>
      <trkpt lat="43.40021" lon="2.09679">
        <ele>586.4</ele>
        <time>2023-10-01T08:23:01Z</time>
      </trkpt>
      <trkpt lat="43.40017" lon="2.09684">
        <ele>586.6</ele>
        <time>2023-10-01T08:23:02Z</time>
      </trkpt>
      <trkpt lat="43.40013" lon="2.09689">
        <ele>587</ele>
        <time>2023-10-01T08:23:03Z</time>
      </trkpt>
      <trkpt lat="43.40008" lon="2.09694">
        <ele>587.2</ele>
        <time>2023-10-01T08:23:04Z</time>
      </trkpt>
      <trkpt lat="43.40003" lon="2.09699">
        <ele>587.4</ele>
        <time>2023-10-01T08:23:05Z</time>
      </trkpt>
      <trkpt lat="43.39997" lon="2.09703">
        <ele>587.6</ele>
        <time>2023-10-01T08:23:06Z</time>
      </trkpt>
      <trkpt lat="43.39992" lon="2.09708">
        <ele>587.8</ele>
        <time>2023-10-01T08:23:07Z</time>
      </trkpt>
      <trkpt lat="43.39987" lon="2.09713">
        <ele>587.8</ele>
        <time>2023-10-01T08:23:08Z</time>
      </trkpt>
      <trkpt lat="43.39983" lon="2.09719">
        <ele>587.8</ele>
        <time>2023-10-01T08:23:09Z</time>
      </trkpt>
      <trkpt lat="43.39978" lon="2.09725">
        <ele>587.8</ele>
        <time>2023-10-01T08:23:10Z</time>
      </trkpt>
      <trkpt lat="43.39974" lon="2.09731">
        <ele>588</ele>
        <time>2023-10-01T08:23:11Z</time>
      </trkpt>
      <trkpt lat="43.39969" lon="2.09737">
        <ele>588</ele>
        <time>2023-10-01T08:23:12Z</time>
      </trkpt>
      <trkpt lat="43.39964" lon="2.09745">
        <ele>588</ele>
        <time>2023-10-01T08:23:13Z</time>
      </trkpt>
      <trkpt lat="43.39961" lon="2.0975">
        <ele>588</ele>
        <time>2023-10-01T08:23:14Z</time>
      </trkpt>
      <trkpt lat="43.39956" lon="2.09757">
        <ele>587.8</ele>
        <time>2023-10-01T08:23:15Z</time>
      </trkpt>
      <trkpt lat="43.39952" lon="2.09763">
        <ele>587.8</ele>
        <time>2023-10-01T08:23:16Z</time>
      </trkpt>
      <trkpt lat="43.39948" lon="2.0977">
        <ele>587.4</ele>
        <time>2023-10-01T08:23:17Z</time>
      </trkpt>
      <trkpt lat="43.39943" lon="2.09778">
        <ele>587.2</ele>
        <time>2023-10-01T08:23:18Z</time>
      </trkpt>
      <trkpt lat="43.39939" lon="2.09784">
        <ele>586.8</ele>
        <time>2023-10-01T08:23:19Z</time>
      </trkpt>
      <trkpt lat="43.39935" lon="2.09791">
        <ele>586.8</ele>
        <time>2023-10-01T08:23:20Z</time>
      </trkpt>
      <trkpt lat="43.39931" lon="2.09799">
        <ele>586.6</ele>
        <time>2023-10-01T08:23:21Z</time>
      </trkpt>
      <trkpt lat="43.39919" lon="2.09828">
        <ele>586</ele>
        <time>2023-10-01T08:23:25Z</time>
      </trkpt>
      <trkpt lat="43.39915" lon="2.09834">
        <ele>585.6</ele>
        <time>2023-10-01T08:23:26Z</time>
      </trkpt>
      <trkpt lat="43.39912" lon="2.09842">
        <ele>585.6</ele>
        <time>2023-10-01T08:23:27Z</time>
      </trkpt>
      <trkpt lat="43.39892" lon="2.0988">
        <ele>585</ele>
        <time>2023-10-01T08:23:32Z</time>
      </trkpt>
      <trkpt lat="43.39888" lon="2.09888">
        <ele>585</ele>
        <time>2023-10-01T08:23:33Z</time>
      </trkpt>
      <trkpt lat="43.39872" lon="2.09904">
        <ele>585</ele>
        <time>2023-10-01T08:23:36Z</time>
      </trkpt>
      <trkpt lat="43.39867" lon="2.09908">
        <ele>585</ele>
        <time>2023-10-01T08:23:37Z</time>
      </trkpt>
      <trkpt lat="43.39861" lon="2.0991">
        <ele>585</ele>
        <time>2023-10-01T08:23:38Z</time>
      </trkpt>
      <trkpt lat="43.39856" lon="2.09908">
        <ele>585</ele>
        <time>2023-10-01T08:23:39Z</time>
      </trkpt>
      <trkpt lat="43.39851" lon="2.09905">
        <ele>585</ele>
        <time>2023-10-01T08:23:40Z</time>
      </trkpt>
      <trkpt lat="43.39846" lon="2.099">
        <ele>585</ele>
        <time>2023-10-01T08:23:41Z</time>
      </trkpt>
      <trkpt lat="43.39843" lon="2.09894">
        <ele>585</ele>
        <time>2023-10-01T08:23:42Z</time>
      </trkpt>
      <trkpt lat="43.39842" lon="2.09869">
        <ele>584.8</ele>
        <time>2023-10-01T08:23:45Z</time>
      </trkpt>
      <trkpt lat="43.39841" lon="2.09859">
        <ele>584.8</ele>
        <time>2023-10-01T08:23:46Z</time>
      </trkpt>
      <trkpt lat="43.39838" lon="2.09841">
        <ele>584.6</ele>
        <time>2023-10-01T08:23:48Z</time>
      </trkpt>
      <trkpt lat="43.39833" lon="2.09832">
        <ele>584.4</ele>
        <time>2023-10-01T08:23:49Z</time>
      </trkpt>
      <trkpt lat="43.39828" lon="2.09824">
        <ele>584.2</ele>
        <time>2023-10-01T08:23:50Z</time>
      </trkpt>
      <trkpt lat="43.39821" lon="2.09818">
        <ele>584.2</ele>
        <time>2023-10-01T08:23:51Z</time>
      </trkpt>
      <trkpt lat="43.39815" lon="2.09814">
        <ele>583.8</ele>
        <time>2023-10-01T08:23:52Z</time>
      </trkpt>
      <trkpt lat="43.39807" lon="2.0981">
        <ele>583.8</ele>
        <time>2023-10-01T08:23:53Z</time>
      </trkpt>
      <trkpt lat="43.39798" lon="2.09806">
        <ele>583.6</ele>
        <time>2023-10-01T08:23:54Z</time>
      </trkpt>
      <trkpt lat="43.39789" lon="2.09805">
        <ele>583.2</ele>
        <time>2023-10-01T08:23:55Z</time>
      </trkpt>
      <trkpt lat="43.39781" lon="2.09804">
        <ele>582.6</ele>
        <time>2023-10-01T08:23:56Z</time>
      </trkpt>
      <trkpt lat="43.39774" lon="2.09805">
        <ele>582.2</ele>
        <time>2023-10-01T08:23:57Z</time>
      </trkpt>
      <trkpt lat="43.39768" lon="2.09804">
        <ele>582</ele>
        <time>2023-10-01T08:23:58Z</time>
      </trkpt>
      <trkpt lat="43.39762" lon="2.09802">
        <ele>581.6</ele>
        <time>2023-10-01T08:23:59Z</time>
      </trkpt>
      <trkpt lat="43.39757" lon="2.09798">
        <ele>581.4</ele>
        <time>2023-10-01T08:24:00Z</time>
      </trkpt>
      <trkpt lat="43.39753" lon="2.09793">
        <ele>581.2</ele>
        <time>2023-10-01T08:24:01Z</time>
      </trkpt>
      <trkpt lat="43.3975" lon="2.09787">
        <ele>581.2</ele>
        <time>2023-10-01T08:24:02Z</time>
      </trkpt>
      <trkpt lat="43.39747" lon="2.09781">
        <ele>581.2</ele>
        <time>2023-10-01T08:24:03Z</time>
      </trkpt>
      <trkpt lat="43.39745" lon="2.09774">
        <ele>581.4</ele>
        <time>2023-10-01T08:24:04Z</time>
      </trkpt>
      <trkpt lat="43.39743" lon="2.09767">
        <ele>581.4</ele>
        <time>2023-10-01T08:24:05Z</time>
      </trkpt>
      <trkpt lat="43.39742" lon="2.0976">
        <ele>581.4</ele>
        <time>2023-10-01T08:24:06Z</time>
      </trkpt>
      <trkpt lat="43.39742" lon="2.09752">
        <ele>581.4</ele>
        <time>2023-10-01T08:24:07Z</time>
      </trkpt>
      <trkpt lat="43.39741" lon="2.09738">
        <ele>582</ele>
        <time>2023-10-01T08:24:09Z</time>
      </trkpt>
      <trkpt lat="43.39739" lon="2.09731">
        <ele>582.4</ele>
        <time>2023-10-01T08:24:10Z</time>
      </trkpt>
      <trkpt lat="43.39737" lon="2.09725">
        <ele>582.6</ele>
        <time>2023-10-01T08:24:11Z</time>
      </trkpt>
      <trkpt lat="43.39734" lon="2.09721">
        <ele>582.8</ele>
        <time>2023-10-01T08:24:12Z</time>
      </trkpt>
      <trkpt lat="43.39729" lon="2.09722">
        <ele>583.2</ele>
        <time>2023-10-01T08:24:13Z</time>
      </trkpt>
      <trkpt lat="43.39725" lon="2.09724">
        <ele>583.2</ele>
        <time>2023-10-01T08:24:14Z</time>
      </trkpt>
      <trkpt lat="43.39721" lon="2.09728">
        <ele>583.4</ele>
        <time>2023-10-01T08:24:15Z</time>
      </trkpt>
      <trkpt lat="43.39719" lon="2.09733">
        <ele>583.6</ele>
        <time>2023-10-01T08:24:16Z</time>
      </trkpt>
      <trkpt lat="43.39717" lon="2.09739">
        <ele>583.6</ele>
        <time>2023-10-01T08:24:17Z</time>
      </trkpt>
      <trkpt lat="43.39714" lon="2.09746">
        <ele>583.8</ele>
        <time>2023-10-01T08:24:18Z</time>
      </trkpt>
      <trkpt lat="43.39711" lon="2.09755">
        <ele>584</ele>
        <time>2023-10-01T08:24:19Z</time>
      </trkpt>
      <trkpt lat="43.39703" lon="2.09771">
        <ele>584</ele>
        <time>2023-10-01T08:24:21Z</time>
      </trkpt>
      <trkpt lat="43.39699" lon="2.0978">
        <ele>584.2</ele>
        <time>2023-10-01T08:24:22Z</time>
      </trkpt>
      <trkpt lat="43.39694" lon="2.09797">
        <ele>584.2</ele>
        <time>2023-10-01T08:24:24Z</time>
      </trkpt>
      <trkpt lat="43.39692" lon="2.09805">
        <ele>584.2</ele>
        <time>2023-10-01T08:24:25Z</time>
      </trkpt>
      <trkpt lat="43.39687" lon="2.0985">
        <ele>583.8</ele>
        <time>2023-10-01T08:24:30Z</time>
      </trkpt>
      <trkpt lat="43.39684" lon="2.09867">
        <ele>583.6</ele>
        <time>2023-10-01T08:24:32Z</time>
      </trkpt>
      <trkpt lat="43.39683" lon="2.09875">
        <ele>583.6</ele>
        <time>2023-10-01T08:24:33Z</time>
      </trkpt>
      <trkpt lat="43.39681" lon="2.09883">
        <ele>583.4</ele>
        <time>2023-10-01T08:24:34Z</time>
      </trkpt>
      <trkpt lat="43.3968" lon="2.09891">
        <ele>583.4</ele>
        <time>2023-10-01T08:24:35Z</time>
      </trkpt>
      <trkpt lat="43.39678" lon="2.09908">
        <ele>583.2</ele>
        <time>2023-10-01T08:24:37Z</time>
      </trkpt>
      <trkpt lat="43.39679" lon="2.09927">
        <ele>583</ele>
        <time>2023-10-01T08:24:39Z</time>
      </trkpt>
      <trkpt lat="43.3968" lon="2.09936">
        <ele>583</ele>
        <time>2023-10-01T08:24:40Z</time>
      </trkpt>
      <trkpt lat="43.39682" lon="2.09944">
        <ele>583</ele>
        <time>2023-10-01T08:24:41Z</time>
      </trkpt>
      <trkpt lat="43.39688" lon="2.0996">
        <ele>583</ele>
        <time>2023-10-01T08:24:43Z</time>
      </trkpt>
      <trkpt lat="43.39696" lon="2.09989">
        <ele>583.2</ele>
        <time>2023-10-01T08:24:47Z</time>
      </trkpt>
      <trkpt lat="43.39698" lon="2.09997">
        <ele>583.2</ele>
        <time>2023-10-01T08:24:48Z</time>
      </trkpt>
      <trkpt lat="43.39704" lon="2.10023">
        <ele>583.4</ele>
        <time>2023-10-01T08:24:51Z</time>
      </trkpt>
      <trkpt lat="43.39706" lon="2.10031">
        <ele>583.4</ele>
        <time>2023-10-01T08:24:52Z</time>
      </trkpt>
      <trkpt lat="43.39708" lon="2.10038">
        <ele>583.4</ele>
        <time>2023-10-01T08:24:53Z</time>
      </trkpt>
      <trkpt lat="43.39711" lon="2.10045">
        <ele>583.4</ele>
        <time>2023-10-01T08:24:54Z</time>
      </trkpt>
      <trkpt lat="43.39714" lon="2.10053">
        <ele>583.4</ele>
        <time>2023-10-01T08:24:55Z</time>
      </trkpt>
      <trkpt lat="43.39732" lon="2.10081">
        <ele>582.8</ele>
        <time>2023-10-01T08:24:59Z</time>
      </trkpt>
      <trkpt lat="43.39734" lon="2.10089">
        <ele>582.8</ele>
        <time>2023-10-01T08:25:00Z</time>
      </trkpt>
      <trkpt lat="43.39733" lon="2.10097">
        <ele>582.6</ele>
        <time>2023-10-01T08:25:01Z</time>
      </trkpt>
      <trkpt lat="43.3973" lon="2.10104">
        <ele>582.4</ele>
        <time>2023-10-01T08:25:02Z</time>
      </trkpt>
      <trkpt lat="43.39725" lon="2.1011">
        <ele>582.4</ele>
        <time>2023-10-01T08:25:03Z</time>
      </trkpt>
      <trkpt lat="43.3972" lon="2.10116">
        <ele>582.2</ele>
        <time>2023-10-01T08:25:04Z</time>
      </trkpt>
      <trkpt lat="43.3971" lon="2.10128">
        <ele>582</ele>
        <time>2023-10-01T08:25:06Z</time>
      </trkpt>
      <trkpt lat="43.39698" lon="2.1015">
        <ele>582</ele>
        <time>2023-10-01T08:25:09Z</time>
      </trkpt>
      <trkpt lat="43.39694" lon="2.10157">
        <ele>582</ele>
        <time>2023-10-01T08:25:10Z</time>
      </trkpt>
      <trkpt lat="43.39692" lon="2.10164">
        <ele>582</ele>
        <time>2023-10-01T08:25:11Z</time>
      </trkpt>
      <trkpt lat="43.39689" lon="2.10171">
        <ele>582</ele>
        <time>2023-10-01T08:25:12Z</time>
      </trkpt>
      <trkpt lat="43.39687" lon="2.10177">
        <ele>582</ele>
        <time>2023-10-01T08:25:13Z</time>
      </trkpt>
      <trkpt lat="43.39687" lon="2.10184">
        <ele>582</ele>
        <time>2023-10-01T08:25:14Z</time>
      </trkpt>
      <trkpt lat="43.39686" lon="2.10192">
        <ele>582.2</ele>
        <time>2023-10-01T08:25:15Z</time>
      </trkpt>
      <trkpt lat="43.39684" lon="2.10197">
        <ele>582.4</ele>
        <time>2023-10-01T08:25:16Z</time>
      </trkpt>
      <trkpt lat="43.39683" lon="2.10204">
        <ele>582.4</ele>
        <time>2023-10-01T08:25:17Z</time>
      </trkpt>
      <trkpt lat="43.39683" lon="2.10211">
        <ele>582.6</ele>
        <time>2023-10-01T08:25:18Z</time>
      </trkpt>
      <trkpt lat="43.39684" lon="2.10216">
        <ele>582.6</ele>
        <time>2023-10-01T08:25:19Z</time>
      </trkpt>
      <trkpt lat="43.39686" lon="2.1022">
        <ele>582.6</ele>
        <time>2023-10-01T08:25:20Z</time>
      </trkpt>
      <trkpt lat="43.39687" lon="2.10222">
        <ele>582.6</ele>
        <time>2023-10-01T08:25:21Z</time>
      </trkpt>
      <trkpt lat="43.39688" lon="2.10223">
        <ele>582.6</ele>
        <time>2023-10-01T08:25:22Z</time>
      </trkpt>
      <trkpt lat="43.39688" lon="2.10223">
        <ele>582.4</ele>
        <time>2023-10-01T08:25:23Z</time>
      </trkpt>
      <trkpt lat="43.39689" lon="2.10223">
        <ele>582.4</ele>
        <time>2023-10-01T08:25:24Z</time>
      </trkpt>
      <trkpt lat="43.39691" lon="2.10223">
        <ele>582.4</ele>
        <time>2023-10-01T08:25:25Z</time>
      </trkpt>
      <trkpt lat="43.39692" lon="2.10225">
        <ele>582.4</ele>
        <time>2023-10-01T08:25:26Z</time>
      </trkpt>
      <trkpt lat="43.39692" lon="2.10227">
        <ele>582.4</ele>
        <time>2023-10-01T08:25:27Z</time>
      </trkpt>
      <trkpt lat="43.39692" lon="2.10232">
        <ele>582.4</ele>
        <time>2023-10-01T08:25:29Z</time>
      </trkpt>
      <trkpt lat="43.39691" lon="2.10235">
        <ele>582.4</ele>
        <time>2023-10-01T08:25:30Z</time>
      </trkpt>
      <trkpt lat="43.3969" lon="2.10238">
        <ele>582.4</ele>
        <time>2023-10-01T08:25:31Z</time>
      </trkpt>
      <trkpt lat="43.3969" lon="2.1024">
        <ele>582.6</ele>
        <time>2023-10-01T08:25:32Z</time>
      </trkpt>
      <trkpt lat="43.3969" lon="2.10242">
        <ele>582.6</ele>
        <time>2023-10-01T08:25:33Z</time>
      </trkpt>
      <trkpt lat="43.39689" lon="2.10244">
        <ele>583.2</ele>
        <time>2023-10-01T08:25:34Z</time>
      </trkpt>
      <trkpt lat="43.39688" lon="2.10245">
        <ele>583.4</ele>
        <time>2023-10-01T08:25:35Z</time>
      </trkpt>
      <trkpt lat="43.39688" lon="2.10246">
        <ele>583.6</ele>
        <time>2023-10-01T08:25:36Z</time>
      </trkpt>
      <trkpt lat="43.39687" lon="2.10248">
        <ele>584.2</ele>
        <time>2023-10-01T08:25:37Z</time>
      </trkpt>
      <trkpt lat="43.39685" lon="2.10249">
        <ele>584.6</ele>
        <time>2023-10-01T08:25:38Z</time>
      </trkpt>
      <trkpt lat="43.39684" lon="2.10251">
        <ele>585.2</ele>
        <time>2023-10-01T08:25:39Z</time>
      </trkpt>
      <trkpt lat="43.39683" lon="2.10252">
        <ele>585.4</ele>
        <time>2023-10-01T08:25:40Z</time>
      </trkpt>
      <trkpt lat="43.39683" lon="2.10253">
        <ele>586</ele>
        <time>2023-10-01T08:25:41Z</time>
      </trkpt>
      <trkpt lat="43.39683" lon="2.10254">
        <ele>586.2</ele>
        <time>2023-10-01T08:25:42Z</time>
      </trkpt>
      <trkpt lat="43.39684" lon="2.10256">
        <ele>587</ele>
        <time>2023-10-01T08:25:43Z</time>
      </trkpt>
      <trkpt lat="43.39684" lon="2.10256">
        <ele>587.4</ele>
        <time>2023-10-01T08:25:44Z</time>
      </trkpt>
      <trkpt lat="43.39684" lon="2.10258">
        <ele>587.8</ele>
        <time>2023-10-01T08:25:45Z</time>
      </trkpt>
      <trkpt lat="43.39686" lon="2.1026">
        <ele>588.4</ele>
        <time>2023-10-01T08:25:46Z</time>
      </trkpt>
      <trkpt lat="43.39687" lon="2.10262">
        <ele>588.6</ele>
        <time>2023-10-01T08:25:47Z</time>
      </trkpt>
      <trkpt lat="43.3969" lon="2.10265">
        <ele>589</ele>
        <time>2023-10-01T08:25:48Z</time>
      </trkpt>
      <trkpt lat="43.39692" lon="2.10268">
        <ele>588.8</ele>
        <time>2023-10-01T08:25:49Z</time>
      </trkpt>
      <trkpt lat="43.39692" lon="2.1027">
        <ele>589.4</ele>
        <time>2023-10-01T08:25:50Z</time>
      </trkpt>
      <trkpt lat="43.39693" lon="2.10271">
        <ele>589.6</ele>
        <time>2023-10-01T08:25:51Z</time>
      </trkpt>
      <trkpt lat="43.39693" lon="2.10273">
        <ele>590</ele>
        <time>2023-10-01T08:25:52Z</time>
      </trkpt>
      <trkpt lat="43.39694" lon="2.10275">
        <ele>590.6</ele>
        <time>2023-10-01T08:25:53Z</time>
      </trkpt>
      <trkpt lat="43.39697" lon="2.10278">
        <ele>590.8</ele>
        <time>2023-10-01T08:25:54Z</time>
      </trkpt>
      <trkpt lat="43.39699" lon="2.1028">
        <ele>591.2</ele>
        <time>2023-10-01T08:25:55Z</time>
      </trkpt>
      <trkpt lat="43.39701" lon="2.10283">
        <ele>591.4</ele>
        <time>2023-10-01T08:25:56Z</time>
      </trkpt>
      <trkpt lat="43.39703" lon="2.10285">
        <ele>591.6</ele>
        <time>2023-10-01T08:25:57Z</time>
      </trkpt>
      <trkpt lat="43.39704" lon="2.10287">
        <ele>591.8</ele>
        <time>2023-10-01T08:25:58Z</time>
      </trkpt>
      <trkpt lat="43.39705" lon="2.10289">
        <ele>592.2</ele>
        <time>2023-10-01T08:25:59Z</time>
      </trkpt>
      <trkpt lat="43.39706" lon="2.10292">
        <ele>592.6</ele>
        <time>2023-10-01T08:26:00Z</time>
      </trkpt>
      <trkpt lat="43.39706" lon="2.10292">
        <ele>592.8</ele>
        <time>2023-10-01T08:26:01Z</time>
      </trkpt>
      <trkpt lat="43.39706" lon="2.10294">
        <ele>593.2</ele>
        <time>2023-10-01T08:26:02Z</time>
      </trkpt>
      <trkpt lat="43.39705" lon="2.10297">
        <ele>593.4</ele>
        <time>2023-10-01T08:26:03Z</time>
      </trkpt>
      <trkpt lat="43.39703" lon="2.10301">
        <ele>593.6</ele>
        <time>2023-10-01T08:26:04Z</time>
      </trkpt>
      <trkpt lat="43.397" lon="2.10305">
        <ele>593.8</ele>
        <time>2023-10-01T08:26:05Z</time>
      </trkpt>
      <trkpt lat="43.39701" lon="2.10307">
        <ele>594.2</ele>
        <time>2023-10-01T08:26:06Z</time>
      </trkpt>
      <trkpt lat="43.39701" lon="2.1031">
        <ele>594.8</ele>
        <time>2023-10-01T08:26:07Z</time>
      </trkpt>
      <trkpt lat="43.39701" lon="2.10312">
        <ele>595</ele>
        <time>2023-10-01T08:26:08Z</time>
      </trkpt>
      <trkpt lat="43.397" lon="2.10315">
        <ele>595.4</ele>
        <time>2023-10-01T08:26:09Z</time>
      </trkpt>
      <trkpt lat="43.397" lon="2.10318">
        <ele>595.8</ele>
        <time>2023-10-01T08:26:10Z</time>
      </trkpt>
      <trkpt lat="43.39699" lon="2.10321">
        <ele>596</ele>
        <time>2023-10-01T08:26:11Z</time>
      </trkpt>
      <trkpt lat="43.39697" lon="2.10322">
        <ele>596.2</ele>
        <time>2023-10-01T08:26:12Z</time>
      </trkpt>
      <trkpt lat="43.39696" lon="2.10323">
        <ele>597.2</ele>
        <time>2023-10-01T08:26:13Z</time>
      </trkpt>
      <trkpt lat="43.39691" lon="2.10321">
        <ele>598</ele>
        <time>2023-10-01T08:26:14Z</time>
      </trkpt>
      <trkpt lat="43.39691" lon="2.10321">
        <ele>598.2</ele>
        <time>2023-10-01T08:26:15Z</time>
      </trkpt>
      <trkpt lat="43.39692" lon="2.10322">
        <ele>598.4</ele>
        <time>2023-10-01T08:26:16Z</time>
      </trkpt>
      <trkpt lat="43.39693" lon="2.10325">
        <ele>598.6</ele>
        <time>2023-10-01T08:26:17Z</time>
      </trkpt>
      <trkpt lat="43.39694" lon="2.10328">
        <ele>599</ele>
        <time>2023-10-01T08:26:18Z</time>
      </trkpt>
      <trkpt lat="43.3969" lon="2.10327">
        <ele>599.2</ele>
        <time>2023-10-01T08:26:19Z</time>
      </trkpt>
      <trkpt lat="43.39689" lon="2.1033">
        <ele>599.6</ele>
        <time>2023-10-01T08:26:20Z</time>
      </trkpt>
      <trkpt lat="43.39689" lon="2.10333">
        <ele>599.8</ele>
        <time>2023-10-01T08:26:21Z</time>
      </trkpt>
      <trkpt lat="43.3969" lon="2.10336">
        <ele>600</ele>
        <time>2023-10-01T08:26:22Z</time>
      </trkpt>
      <trkpt lat="43.39694" lon="2.1034">
        <ele>600.4</ele>
        <time>2023-10-01T08:26:23Z</time>
      </trkpt>
      <trkpt lat="43.39697" lon="2.10343">
        <ele>600.4</ele>
        <time>2023-10-01T08:26:24Z</time>
      </trkpt>
      <trkpt lat="43.39699" lon="2.10346">
        <ele>600.8</ele>
        <time>2023-10-01T08:26:25Z</time>
      </trkpt>
      <trkpt lat="43.397" lon="2.10349">
        <ele>600.8</ele>
        <time>2023-10-01T08:26:26Z</time>
      </trkpt>
      <trkpt lat="43.39702" lon="2.10352">
        <ele>601</ele>
        <time>2023-10-01T08:26:27Z</time>
      </trkpt>
      <trkpt lat="43.39702" lon="2.10355">
        <ele>601</ele>
        <time>2023-10-01T08:26:28Z</time>
      </trkpt>
      <trkpt lat="43.397" lon="2.10356">
        <ele>601.2</ele>
        <time>2023-10-01T08:26:29Z</time>
      </trkpt>
      <trkpt lat="43.39698" lon="2.1036">
        <ele>601.2</ele>
        <time>2023-10-01T08:26:30Z</time>
      </trkpt>
      <trkpt lat="43.39696" lon="2.10362">
        <ele>601.2</ele>
        <time>2023-10-01T08:26:31Z</time>
      </trkpt>
      <trkpt lat="43.39694" lon="2.10364">
        <ele>601.2</ele>
        <time>2023-10-01T08:26:32Z</time>
      </trkpt>
      <trkpt lat="43.39692" lon="2.10367">
        <ele>601.2</ele>
        <time>2023-10-01T08:26:33Z</time>
      </trkpt>
      <trkpt lat="43.3969" lon="2.1037">
        <ele>601.2</ele>
        <time>2023-10-01T08:26:34Z</time>
      </trkpt>
      <trkpt lat="43.39686" lon="2.10374">
        <ele>601.2</ele>
        <time>2023-10-01T08:26:35Z</time>
      </trkpt>
      <trkpt lat="43.39682" lon="2.10378">
        <ele>601.2</ele>
        <time>2023-10-01T08:26:36Z</time>
      </trkpt>
      <trkpt lat="43.39679" lon="2.1038">
        <ele>601.2</ele>
        <time>2023-10-01T08:26:37Z</time>
      </trkpt>
      <trkpt lat="43.39675" lon="2.1038">
        <ele>601.2</ele>
        <time>2023-10-01T08:26:38Z</time>
      </trkpt>
      <trkpt lat="43.39673" lon="2.10382">
        <ele>601.2</ele>
        <time>2023-10-01T08:26:39Z</time>
      </trkpt>
      <trkpt lat="43.3967" lon="2.10381">
        <ele>601.2</ele>
        <time>2023-10-01T08:26:40Z</time>
      </trkpt>
      <trkpt lat="43.39669" lon="2.10381">
        <ele>601.2</ele>
        <time>2023-10-01T08:26:41Z</time>
      </trkpt>
      <trkpt lat="43.39667" lon="2.1038">
        <ele>601.2</ele>
        <time>2023-10-01T08:26:42Z</time>
      </trkpt>
      <trkpt lat="43.39663" lon="2.10377">
        <ele>601.2</ele>
        <time>2023-10-01T08:26:43Z</time>
      </trkpt>
      <trkpt lat="43.3966" lon="2.10376">
        <ele>601.2</ele>
        <time>2023-10-01T08:26:44Z</time>
      </trkpt>
      <trkpt lat="43.39657" lon="2.10373">
        <ele>601.4</ele>
        <time>2023-10-01T08:26:45Z</time>
      </trkpt>
      <trkpt lat="43.39655" lon="2.10373">
        <ele>601.4</ele>
        <time>2023-10-01T08:26:46Z</time>
      </trkpt>
      <trkpt lat="43.39654" lon="2.10375">
        <ele>601.2</ele>
        <time>2023-10-01T08:26:47Z</time>
      </trkpt>
      <trkpt lat="43.39652" lon="2.10379">
        <ele>601.2</ele>
        <time>2023-10-01T08:26:48Z</time>
      </trkpt>
      <trkpt lat="43.3965" lon="2.10381">
        <ele>601.2</ele>
        <time>2023-10-01T08:26:49Z</time>
      </trkpt>
      <trkpt lat="43.39646" lon="2.1038">
        <ele>601.2</ele>
        <time>2023-10-01T08:26:50Z</time>
      </trkpt>
      <trkpt lat="43.39643" lon="2.1038">
        <ele>601.2</ele>
        <time>2023-10-01T08:26:51Z</time>
      </trkpt>
      <trkpt lat="43.39641" lon="2.10379">
        <ele>601.2</ele>
        <time>2023-10-01T08:26:52Z</time>
      </trkpt>
      <trkpt lat="43.39639" lon="2.10382">
        <ele>601</ele>
        <time>2023-10-01T08:26:53Z</time>
      </trkpt>
      <trkpt lat="43.39638" lon="2.10385">
        <ele>601</ele>
        <time>2023-10-01T08:26:54Z</time>
      </trkpt>
      <trkpt lat="43.39638" lon="2.1039">
        <ele>600.2</ele>
        <time>2023-10-01T08:26:56Z</time>
      </trkpt>
      <trkpt lat="43.39638" lon="2.10392">
        <ele>599.6</ele>
        <time>2023-10-01T08:26:57Z</time>
      </trkpt>
      <trkpt lat="43.3964" lon="2.10397">
        <ele>599</ele>
        <time>2023-10-01T08:26:59Z</time>
      </trkpt>
      <trkpt lat="43.39641" lon="2.10399">
        <ele>598.4</ele>
        <time>2023-10-01T08:27:00Z</time>
      </trkpt>
      <trkpt lat="43.39641" lon="2.10399">
        <ele>598.2</ele>
        <time>2023-10-01T08:27:01Z</time>
      </trkpt>
      <trkpt lat="43.39641" lon="2.10399">
        <ele>597</ele>
        <time>2023-10-01T08:27:02Z</time>
      </trkpt>
      <trkpt lat="43.3964" lon="2.10403">
        <ele>596.4</ele>
        <time>2023-10-01T08:27:03Z</time>
      </trkpt>
      <trkpt lat="43.39639" lon="2.10408">
        <ele>595.6</ele>
        <time>2023-10-01T08:27:04Z</time>
      </trkpt>
      <trkpt lat="43.39639" lon="2.10413">
        <ele>593.6</ele>
        <time>2023-10-01T08:27:07Z</time>
      </trkpt>
      <trkpt lat="43.39639" lon="2.10413">
        <ele>593</ele>
        <time>2023-10-01T08:27:08Z</time>
      </trkpt>
      <trkpt lat="43.39639" lon="2.10416">
        <ele>591.2</ele>
        <time>2023-10-01T08:27:09Z</time>
      </trkpt>
      <trkpt lat="43.39641" lon="2.10419">
        <ele>590.6</ele>
        <time>2023-10-01T08:27:10Z</time>
      </trkpt>
      <trkpt lat="43.39643" lon="2.10423">
        <ele>590</ele>
        <time>2023-10-01T08:27:11Z</time>
      </trkpt>
      <trkpt lat="43.39644" lon="2.10426">
        <ele>589.8</ele>
        <time>2023-10-01T08:27:12Z</time>
      </trkpt>
      <trkpt lat="43.39646" lon="2.10428">
        <ele>588.8</ele>
        <time>2023-10-01T08:27:13Z</time>
      </trkpt>
      <trkpt lat="43.39653" lon="2.10434">
        <ele>587.6</ele>
        <time>2023-10-01T08:27:14Z</time>
      </trkpt>
      <trkpt lat="43.39655" lon="2.10438">
        <ele>587.2</ele>
        <time>2023-10-01T08:27:15Z</time>
      </trkpt>
      <trkpt lat="43.39655" lon="2.10443">
        <ele>586.4</ele>
        <time>2023-10-01T08:27:16Z</time>
      </trkpt>
      <trkpt lat="43.39653" lon="2.10452">
        <ele>584.6</ele>
        <time>2023-10-01T08:27:18Z</time>
      </trkpt>
      <trkpt lat="43.39652" lon="2.10458">
        <ele>584</ele>
        <time>2023-10-01T08:27:19Z</time>
      </trkpt>
      <trkpt lat="43.3965" lon="2.10464">
        <ele>583.2</ele>
        <time>2023-10-01T08:27:20Z</time>
      </trkpt>
      <trkpt lat="43.39648" lon="2.1047">
        <ele>582.8</ele>
        <time>2023-10-01T08:27:21Z</time>
      </trkpt>
      <trkpt lat="43.39644" lon="2.10484">
        <ele>582.4</ele>
        <time>2023-10-01T08:27:23Z</time>
      </trkpt>
      <trkpt lat="43.39637" lon="2.10501">
        <ele>582.2</ele>
        <time>2023-10-01T08:27:26Z</time>
      </trkpt>
      <trkpt lat="43.39634" lon="2.10506">
        <ele>582.2</ele>
        <time>2023-10-01T08:27:27Z</time>
      </trkpt>
      <trkpt lat="43.39619" lon="2.10544">
        <ele>582.2</ele>
        <time>2023-10-01T08:27:32Z</time>
      </trkpt>
      <trkpt lat="43.39616" lon="2.1055">
        <ele>582.4</ele>
        <time>2023-10-01T08:27:33Z</time>
      </trkpt>
      <trkpt lat="43.39615" lon="2.10558">
        <ele>582.4</ele>
        <time>2023-10-01T08:27:34Z</time>
      </trkpt>
      <trkpt lat="43.39612" lon="2.10574">
        <ele>582.4</ele>
        <time>2023-10-01T08:27:36Z</time>
      </trkpt>
      <trkpt lat="43.39611" lon="2.10583">
        <ele>582.4</ele>
        <time>2023-10-01T08:27:37Z</time>
      </trkpt>
      <trkpt lat="43.39609" lon="2.1061">
        <ele>582.6</ele>
        <time>2023-10-01T08:27:40Z</time>
      </trkpt>
      <trkpt lat="43.3961" lon="2.10627">
        <ele>582.6</ele>
        <time>2023-10-01T08:27:42Z</time>
      </trkpt>
      <trkpt lat="43.39612" lon="2.10635">
        <ele>582.6</ele>
        <time>2023-10-01T08:27:43Z</time>
      </trkpt>
      <trkpt lat="43.39616" lon="2.10641">
        <ele>582.6</ele>
        <time>2023-10-01T08:27:44Z</time>
      </trkpt>
      <trkpt lat="43.39621" lon="2.10646">
        <ele>582.6</ele>
        <time>2023-10-01T08:27:45Z</time>
      </trkpt>
      <trkpt lat="43.39626" lon="2.10653">
        <ele>582.4</ele>
        <time>2023-10-01T08:27:46Z</time>
      </trkpt>
      <trkpt lat="43.3963" lon="2.10671">
        <ele>582.2</ele>
        <time>2023-10-01T08:27:48Z</time>
      </trkpt>
      <trkpt lat="43.39631" lon="2.10691">
        <ele>582</ele>
        <time>2023-10-01T08:27:50Z</time>
      </trkpt>
      <trkpt lat="43.39631" lon="2.10702">
        <ele>582</ele>
        <time>2023-10-01T08:27:51Z</time>
      </trkpt>
      <trkpt lat="43.39631" lon="2.10722">
        <ele>581.8</ele>
        <time>2023-10-01T08:27:53Z</time>
      </trkpt>
      <trkpt lat="43.39631" lon="2.10732">
        <ele>581.6</ele>
        <time>2023-10-01T08:27:54Z</time>
      </trkpt>
      <trkpt lat="43.39628" lon="2.10761">
        <ele>581.4</ele>
        <time>2023-10-01T08:27:57Z</time>
      </trkpt>
      <trkpt lat="43.39627" lon="2.1078">
        <ele>581.2</ele>
        <time>2023-10-01T08:27:59Z</time>
      </trkpt>
      <trkpt lat="43.39627" lon="2.10789">
        <ele>581</ele>
        <time>2023-10-01T08:28:00Z</time>
      </trkpt>
      <trkpt lat="43.39627" lon="2.10797">
        <ele>580.8</ele>
        <time>2023-10-01T08:28:01Z</time>
      </trkpt>
      <trkpt lat="43.39629" lon="2.10804">
        <ele>580.8</ele>
        <time>2023-10-01T08:28:02Z</time>
      </trkpt>
      <trkpt lat="43.39631" lon="2.10812">
        <ele>580.8</ele>
        <time>2023-10-01T08:28:03Z</time>
      </trkpt>
      <trkpt lat="43.39633" lon="2.10819">
        <ele>580.8</ele>
        <time>2023-10-01T08:28:04Z</time>
      </trkpt>
      <trkpt lat="43.39635" lon="2.10826">
        <ele>581</ele>
        <time>2023-10-01T08:28:05Z</time>
      </trkpt>
      <trkpt lat="43.3964" lon="2.1084">
        <ele>581.2</ele>
        <time>2023-10-01T08:28:07Z</time>
      </trkpt>
      <trkpt lat="43.39643" lon="2.10847">
        <ele>581.2</ele>
        <time>2023-10-01T08:28:08Z</time>
      </trkpt>
      <trkpt lat="43.39646" lon="2.10855">
        <ele>581.2</ele>
        <time>2023-10-01T08:28:09Z</time>
      </trkpt>
      <trkpt lat="43.39648" lon="2.1087">
        <ele>581.2</ele>
        <time>2023-10-01T08:28:11Z</time>
      </trkpt>
      <trkpt lat="43.39648" lon="2.10877">
        <ele>581.4</ele>
        <time>2023-10-01T08:28:12Z</time>
      </trkpt>
      <trkpt lat="43.39646" lon="2.10884">
        <ele>581.4</ele>
        <time>2023-10-01T08:28:13Z</time>
      </trkpt>
      <trkpt lat="43.39645" lon="2.1089">
        <ele>581.4</ele>
        <time>2023-10-01T08:28:14Z</time>
      </trkpt>
      <trkpt lat="43.39643" lon="2.10895">
        <ele>581.6</ele>
        <time>2023-10-01T08:28:15Z</time>
      </trkpt>
      <trkpt lat="43.3964" lon="2.10901">
        <ele>581.8</ele>
        <time>2023-10-01T08:28:16Z</time>
      </trkpt>
      <trkpt lat="43.39638" lon="2.10907">
        <ele>581.8</ele>
        <time>2023-10-01T08:28:17Z</time>
      </trkpt>
      <trkpt lat="43.39636" lon="2.10913">
        <ele>582</ele>
        <time>2023-10-01T08:28:18Z</time>
      </trkpt>
      <trkpt lat="43.39634" lon="2.10919">
        <ele>582.2</ele>
        <time>2023-10-01T08:28:19Z</time>
      </trkpt>
      <trkpt lat="43.39631" lon="2.10926">
        <ele>582.4</ele>
        <time>2023-10-01T08:28:20Z</time>
      </trkpt>
      <trkpt lat="43.39628" lon="2.10932">
        <ele>582.8</ele>
        <time>2023-10-01T08:28:21Z</time>
      </trkpt>
      <trkpt lat="43.39625" lon="2.10938">
        <ele>583</ele>
        <time>2023-10-01T08:28:22Z</time>
      </trkpt>
      <trkpt lat="43.39621" lon="2.10944">
        <ele>583.4</ele>
        <time>2023-10-01T08:28:23Z</time>
      </trkpt>
      <trkpt lat="43.39617" lon="2.1095">
        <ele>583.4</ele>
        <time>2023-10-01T08:28:24Z</time>
      </trkpt>
      <trkpt lat="43.39608" lon="2.10962">
        <ele>583.6</ele>
        <time>2023-10-01T08:28:26Z</time>
      </trkpt>
      <trkpt lat="43.39602" lon="2.10965">
        <ele>583.6</ele>
        <time>2023-10-01T08:28:27Z</time>
      </trkpt>
      <trkpt lat="43.39596" lon="2.10969">
        <ele>583.6</ele>
        <time>2023-10-01T08:28:28Z</time>
      </trkpt>
      <trkpt lat="43.39589" lon="2.10971">
        <ele>583.6</ele>
        <time>2023-10-01T08:28:29Z</time>
      </trkpt>
      <trkpt lat="43.39583" lon="2.10974">
        <ele>583.4</ele>
        <time>2023-10-01T08:28:30Z</time>
      </trkpt>
      <trkpt lat="43.39577" lon="2.10977">
        <ele>583.4</ele>
        <time>2023-10-01T08:28:31Z</time>
      </trkpt>
      <trkpt lat="43.39572" lon="2.10979">
        <ele>583.2</ele>
        <time>2023-10-01T08:28:32Z</time>
      </trkpt>
      <trkpt lat="43.39566" lon="2.10982">
        <ele>583</ele>
        <time>2023-10-01T08:28:33Z</time>
      </trkpt>
      <trkpt lat="43.39562" lon="2.10986">
        <ele>582.6</ele>
        <time>2023-10-01T08:28:34Z</time>
      </trkpt>
      <trkpt lat="43.39557" lon="2.10989">
        <ele>582.6</ele>
        <time>2023-10-01T08:28:35Z</time>
      </trkpt>
      <trkpt lat="43.39553" lon="2.10992">
        <ele>582.4</ele>
        <time>2023-10-01T08:28:36Z</time>
      </trkpt>
      <trkpt lat="43.3955" lon="2.10999">
        <ele>582.4</ele>
        <time>2023-10-01T08:28:37Z</time>
      </trkpt>
      <trkpt lat="43.39548" lon="2.11007">
        <ele>582.4</ele>
        <time>2023-10-01T08:28:38Z</time>
      </trkpt>
      <trkpt lat="43.39545" lon="2.11013">
        <ele>582.4</ele>
        <time>2023-10-01T08:28:39Z</time>
      </trkpt>
      <trkpt lat="43.39543" lon="2.11021">
        <ele>582.4</ele>
        <time>2023-10-01T08:28:40Z</time>
      </trkpt>
      <trkpt lat="43.39542" lon="2.11029">
        <ele>582.4</ele>
        <time>2023-10-01T08:28:41Z</time>
      </trkpt>
      <trkpt lat="43.39534" lon="2.11072">
        <ele>582.2</ele>
        <time>2023-10-01T08:28:46Z</time>
      </trkpt>
      <trkpt lat="43.39532" lon="2.11088">
        <ele>582</ele>
        <time>2023-10-01T08:28:48Z</time>
      </trkpt>
      <trkpt lat="43.39531" lon="2.11096">
        <ele>582</ele>
        <time>2023-10-01T08:28:49Z</time>
      </trkpt>
      <trkpt lat="43.3953" lon="2.11102">
        <ele>581.8</ele>
        <time>2023-10-01T08:28:50Z</time>
      </trkpt>
      <trkpt lat="43.39529" lon="2.11109">
        <ele>581.8</ele>
        <time>2023-10-01T08:28:51Z</time>
      </trkpt>
      <trkpt lat="43.39529" lon="2.11116">
        <ele>582</ele>
        <time>2023-10-01T08:28:52Z</time>
      </trkpt>
      <trkpt lat="43.39529" lon="2.11123">
        <ele>582</ele>
        <time>2023-10-01T08:28:53Z</time>
      </trkpt>
      <trkpt lat="43.39529" lon="2.11137">
        <ele>582</ele>
        <time>2023-10-01T08:28:55Z</time>
      </trkpt>
      <trkpt lat="43.3953" lon="2.11144">
        <ele>582.2</ele>
        <time>2023-10-01T08:28:56Z</time>
      </trkpt>
      <trkpt lat="43.39531" lon="2.11152">
        <ele>582.2</ele>
        <time>2023-10-01T08:28:57Z</time>
      </trkpt>
      <trkpt lat="43.39531" lon="2.11159">
        <ele>582.6</ele>
        <time>2023-10-01T08:28:58Z</time>
      </trkpt>
      <trkpt lat="43.39533" lon="2.11195">
        <ele>583.2</ele>
        <time>2023-10-01T08:29:03Z</time>
      </trkpt>
      <trkpt lat="43.39535" lon="2.11203">
        <ele>583.4</ele>
        <time>2023-10-01T08:29:04Z</time>
      </trkpt>
      <trkpt lat="43.39538" lon="2.1121">
        <ele>583.6</ele>
        <time>2023-10-01T08:29:05Z</time>
      </trkpt>
      <trkpt lat="43.39542" lon="2.11217">
        <ele>583.6</ele>
        <time>2023-10-01T08:29:06Z</time>
      </trkpt>
      <trkpt lat="43.39546" lon="2.11223">
        <ele>583.6</ele>
        <time>2023-10-01T08:29:07Z</time>
      </trkpt>
      <trkpt lat="43.39555" lon="2.11237">
        <ele>583.6</ele>
        <time>2023-10-01T08:29:09Z</time>
      </trkpt>
      <trkpt lat="43.3957" lon="2.11267">
        <ele>583.6</ele>
        <time>2023-10-01T08:29:13Z</time>
      </trkpt>
      <trkpt lat="43.3959" lon="2.11307">
        <ele>583.2</ele>
        <time>2023-10-01T08:29:18Z</time>
      </trkpt>
      <trkpt lat="43.39595" lon="2.11313">
        <ele>583.2</ele>
        <time>2023-10-01T08:29:19Z</time>
      </trkpt>
      <trkpt lat="43.39602" lon="2.11319">
        <ele>583</ele>
        <time>2023-10-01T08:29:20Z</time>
      </trkpt>
      <trkpt lat="43.39609" lon="2.11324">
        <ele>582.8</ele>
        <time>2023-10-01T08:29:21Z</time>
      </trkpt>
      <trkpt lat="43.39616" lon="2.11328">
        <ele>582.8</ele>
        <time>2023-10-01T08:29:22Z</time>
      </trkpt>
      <trkpt lat="43.39623" lon="2.11331">
        <ele>582.4</ele>
        <time>2023-10-01T08:29:23Z</time>
      </trkpt>
      <trkpt lat="43.39631" lon="2.11333">
        <ele>582.2</ele>
        <time>2023-10-01T08:29:24Z</time>
      </trkpt>
      <trkpt lat="43.39655" lon="2.11345">
        <ele>581.4</ele>
        <time>2023-10-01T08:29:28Z</time>
      </trkpt>
      <trkpt lat="43.3966" lon="2.11348">
        <ele>581.4</ele>
        <time>2023-10-01T08:29:29Z</time>
      </trkpt>
      <trkpt lat="43.39665" lon="2.11352">
        <ele>581.2</ele>
        <time>2023-10-01T08:29:30Z</time>
      </trkpt>
      <trkpt lat="43.3967" lon="2.11356">
        <ele>581.2</ele>
        <time>2023-10-01T08:29:31Z</time>
      </trkpt>
      <trkpt lat="43.39675" lon="2.11359">
        <ele>581.2</ele>
        <time>2023-10-01T08:29:32Z</time>
      </trkpt>
      <trkpt lat="43.39679" lon="2.11362">
        <ele>581.2</ele>
        <time>2023-10-01T08:29:33Z</time>
      </trkpt>
      <trkpt lat="43.39684" lon="2.11365">
        <ele>581.2</ele>
        <time>2023-10-01T08:29:34Z</time>
      </trkpt>
      <trkpt lat="43.39688" lon="2.11368">
        <ele>581.4</ele>
        <time>2023-10-01T08:29:35Z</time>
      </trkpt>
      <trkpt lat="43.39698" lon="2.11373">
        <ele>581.8</ele>
        <time>2023-10-01T08:29:37Z</time>
      </trkpt>
      <trkpt lat="43.39709" lon="2.11378">
        <ele>582</ele>
        <time>2023-10-01T08:29:39Z</time>
      </trkpt>
      <trkpt lat="43.3972" lon="2.11381">
        <ele>582.4</ele>
        <time>2023-10-01T08:29:41Z</time>
      </trkpt>
      <trkpt lat="43.39726" lon="2.11383">
        <ele>582.6</ele>
        <time>2023-10-01T08:29:42Z</time>
      </trkpt>
      <trkpt lat="43.39751" lon="2.11394">
        <ele>583</ele>
        <time>2023-10-01T08:29:47Z</time>
      </trkpt>
      <trkpt lat="43.39756" lon="2.11397">
        <ele>583</ele>
        <time>2023-10-01T08:29:48Z</time>
      </trkpt>
      <trkpt lat="43.39761" lon="2.114">
        <ele>583</ele>
        <time>2023-10-01T08:29:49Z</time>
      </trkpt>
      <trkpt lat="43.39771" lon="2.11404">
        <ele>583.4</ele>
        <time>2023-10-01T08:29:51Z</time>
      </trkpt>
      <trkpt lat="43.39776" lon="2.11406">
        <ele>583.6</ele>
        <time>2023-10-01T08:29:52Z</time>
      </trkpt>
      <trkpt lat="43.39781" lon="2.11409">
        <ele>583.6</ele>
        <time>2023-10-01T08:29:53Z</time>
      </trkpt>
      <trkpt lat="43.39785" lon="2.11412">
        <ele>583.6</ele>
        <time>2023-10-01T08:29:54Z</time>
      </trkpt>
      <trkpt lat="43.39789" lon="2.11417">
        <ele>583.8</ele>
        <time>2023-10-01T08:29:55Z</time>
      </trkpt>
      <trkpt lat="43.39791" lon="2.11422">
        <ele>584</ele>
        <time>2023-10-01T08:29:56Z</time>
      </trkpt>
      <trkpt lat="43.39793" lon="2.11427">
        <ele>584.2</ele>
        <time>2023-10-01T08:29:57Z</time>
      </trkpt>
      <trkpt lat="43.39793" lon="2.11433">
        <ele>584.4</ele>
        <time>2023-10-01T08:29:58Z</time>
      </trkpt>
      <trkpt lat="43.39794" lon="2.11438">
        <ele>584.6</ele>
        <time>2023-10-01T08:29:59Z</time>
      </trkpt>
      <trkpt lat="43.39794" lon="2.11443">
        <ele>585.4</ele>
        <time>2023-10-01T08:30:00Z</time>
      </trkpt>
      <trkpt lat="43.39794" lon="2.11449">
        <ele>585.6</ele>
        <time>2023-10-01T08:30:01Z</time>
      </trkpt>
      <trkpt lat="43.39794" lon="2.11454">
        <ele>586.2</ele>
        <time>2023-10-01T08:30:02Z</time>
      </trkpt>
      <trkpt lat="43.39793" lon="2.11459">
        <ele>586.4</ele>
        <time>2023-10-01T08:30:03Z</time>
      </trkpt>
      <trkpt lat="43.39793" lon="2.11465">
        <ele>586.8</ele>
        <time>2023-10-01T08:30:04Z</time>
      </trkpt>
      <trkpt lat="43.39793" lon="2.11471">
        <ele>587.4</ele>
        <time>2023-10-01T08:30:05Z</time>
      </trkpt>
      <trkpt lat="43.39792" lon="2.11477">
        <ele>587.6</ele>
        <time>2023-10-01T08:30:06Z</time>
      </trkpt>
      <trkpt lat="43.39792" lon="2.11484">
        <ele>588</ele>
        <time>2023-10-01T08:30:07Z</time>
      </trkpt>
      <trkpt lat="43.39792" lon="2.11491">
        <ele>588.2</ele>
        <time>2023-10-01T08:30:08Z</time>
      </trkpt>
      <trkpt lat="43.39792" lon="2.11498">
        <ele>588.6</ele>
        <time>2023-10-01T08:30:09Z</time>
      </trkpt>
      <trkpt lat="43.39793" lon="2.11506">
        <ele>588.8</ele>
        <time>2023-10-01T08:30:10Z</time>
      </trkpt>
      <trkpt lat="43.39794" lon="2.11514">
        <ele>589</ele>
        <time>2023-10-01T08:30:11Z</time>
      </trkpt>
      <trkpt lat="43.39794" lon="2.11521">
        <ele>589.2</ele>
        <time>2023-10-01T08:30:12Z</time>
      </trkpt>
      <trkpt lat="43.39794" lon="2.11528">
        <ele>589.2</ele>
        <time>2023-10-01T08:30:13Z</time>
      </trkpt>
      <trkpt lat="43.39795" lon="2.11535">
        <ele>589.2</ele>
        <time>2023-10-01T08:30:14Z</time>
      </trkpt>
      <trkpt lat="43.39795" lon="2.11543">
        <ele>589.4</ele>
        <time>2023-10-01T08:30:15Z</time>
      </trkpt>
      <trkpt lat="43.39796" lon="2.11551">
        <ele>589.4</ele>
        <time>2023-10-01T08:30:16Z</time>
      </trkpt>
      <trkpt lat="43.39796" lon="2.11559">
        <ele>589.4</ele>
        <time>2023-10-01T08:30:17Z</time>
      </trkpt>
      <trkpt lat="43.39797" lon="2.11567">
        <ele>589.4</ele>
        <time>2023-10-01T08:30:18Z</time>
      </trkpt>
      <trkpt lat="43.39798" lon="2.11575">
        <ele>589.4</ele>
        <time>2023-10-01T08:30:19Z</time>
      </trkpt>
      <trkpt lat="43.39799" lon="2.11584">
        <ele>589.4</ele>
        <time>2023-10-01T08:30:20Z</time>
      </trkpt>
      <trkpt lat="43.39801" lon="2.11593">
        <ele>589.4</ele>
        <time>2023-10-01T08:30:21Z</time>
      </trkpt>
      <trkpt lat="43.39803" lon="2.11601">
        <ele>589.4</ele>
        <time>2023-10-01T08:30:22Z</time>
      </trkpt>
      <trkpt lat="43.39806" lon="2.11609">
        <ele>589.2</ele>
        <time>2023-10-01T08:30:23Z</time>
      </trkpt>
      <trkpt lat="43.39808" lon="2.11616">
        <ele>589.2</ele>
        <time>2023-10-01T08:30:24Z</time>
      </trkpt>
      <trkpt lat="43.39809" lon="2.11624">
        <ele>589.2</ele>
        <time>2023-10-01T08:30:25Z</time>
      </trkpt>
      <trkpt lat="43.39809" lon="2.11632">
        <ele>589.2</ele>
        <time>2023-10-01T08:30:26Z</time>
      </trkpt>
      <trkpt lat="43.3981" lon="2.1164">
        <ele>589.2</ele>
        <time>2023-10-01T08:30:27Z</time>
      </trkpt>
      <trkpt lat="43.3981" lon="2.11648">
        <ele>589.2</ele>
        <time>2023-10-01T08:30:28Z</time>
      </trkpt>
      <trkpt lat="43.39811" lon="2.11656">
        <ele>589.2</ele>
        <time>2023-10-01T08:30:29Z</time>
      </trkpt>
      <trkpt lat="43.3981" lon="2.11664">
        <ele>589</ele>
        <time>2023-10-01T08:30:30Z</time>
      </trkpt>
      <trkpt lat="43.3981" lon="2.11672">
        <ele>589</ele>
        <time>2023-10-01T08:30:31Z</time>
      </trkpt>
      <trkpt lat="43.39809" lon="2.11681">
        <ele>588.8</ele>
        <time>2023-10-01T08:30:32Z</time>
      </trkpt>
      <trkpt lat="43.39809" lon="2.11708">
        <ele>588.8</ele>
        <time>2023-10-01T08:30:35Z</time>
      </trkpt>
      <trkpt lat="43.39809" lon="2.11717">
        <ele>588.6</ele>
        <time>2023-10-01T08:30:36Z</time>
      </trkpt>
      <trkpt lat="43.3981" lon="2.11744">
        <ele>588</ele>
        <time>2023-10-01T08:30:39Z</time>
      </trkpt>
      <trkpt lat="43.39811" lon="2.11752">
        <ele>587.8</ele>
        <time>2023-10-01T08:30:40Z</time>
      </trkpt>
      <trkpt lat="43.39812" lon="2.1176">
        <ele>587.8</ele>
        <time>2023-10-01T08:30:41Z</time>
      </trkpt>
      <trkpt lat="43.39813" lon="2.11767">
        <ele>587.8</ele>
        <time>2023-10-01T08:30:42Z</time>
      </trkpt>
      <trkpt lat="43.39814" lon="2.11774">
        <ele>587.8</ele>
        <time>2023-10-01T08:30:43Z</time>
      </trkpt>
      <trkpt lat="43.39814" lon="2.11779">
        <ele>587.8</ele>
        <time>2023-10-01T08:30:44Z</time>
      </trkpt>
      <trkpt lat="43.39815" lon="2.11783">
        <ele>587.8</ele>
        <time>2023-10-01T08:30:45Z</time>
      </trkpt>
      <trkpt lat="43.39816" lon="2.11787">
        <ele>587.8</ele>
        <time>2023-10-01T08:30:46Z</time>
      </trkpt>
      <trkpt lat="43.39816" lon="2.1179">
        <ele>587.8</ele>
        <time>2023-10-01T08:30:47Z</time>
      </trkpt>
      <trkpt lat="43.39818" lon="2.11794">
        <ele>588</ele>
        <time>2023-10-01T08:30:48Z</time>
      </trkpt>
      <trkpt lat="43.39819" lon="2.11797">
        <ele>588.4</ele>
        <time>2023-10-01T08:30:49Z</time>
      </trkpt>
      <trkpt lat="43.3982" lon="2.118">
        <ele>588.8</ele>
        <time>2023-10-01T08:30:50Z</time>
      </trkpt>
      <trkpt lat="43.39821" lon="2.11804">
        <ele>589.4</ele>
        <time>2023-10-01T08:30:51Z</time>
      </trkpt>
      <trkpt lat="43.39832" lon="2.11822">
        <ele>590.8</ele>
        <time>2023-10-01T08:30:56Z</time>
      </trkpt>
      <trkpt lat="43.39834" lon="2.11825">
        <ele>591</ele>
        <time>2023-10-01T08:30:57Z</time>
      </trkpt>
      <trkpt lat="43.39841" lon="2.11835">
        <ele>592.2</ele>
        <time>2023-10-01T08:31:00Z</time>
      </trkpt>
      <trkpt lat="43.39844" lon="2.11839">
        <ele>592.6</ele>
        <time>2023-10-01T08:31:01Z</time>
      </trkpt>
      <trkpt lat="43.39845" lon="2.11843">
        <ele>593</ele>
        <time>2023-10-01T08:31:02Z</time>
      </trkpt>
      <trkpt lat="43.39846" lon="2.11846">
        <ele>593</ele>
        <time>2023-10-01T08:31:03Z</time>
      </trkpt>
      <trkpt lat="43.39847" lon="2.1185">
        <ele>593.4</ele>
        <time>2023-10-01T08:31:04Z</time>
      </trkpt>
      <trkpt lat="43.39848" lon="2.11854">
        <ele>594</ele>
        <time>2023-10-01T08:31:05Z</time>
      </trkpt>
      <trkpt lat="43.39849" lon="2.11857">
        <ele>594.2</ele>
        <time>2023-10-01T08:31:06Z</time>
      </trkpt>
      <trkpt lat="43.39851" lon="2.11861">
        <ele>594.6</ele>
        <time>2023-10-01T08:31:07Z</time>
      </trkpt>
      <trkpt lat="43.39853" lon="2.11865">
        <ele>594.8</ele>
        <time>2023-10-01T08:31:08Z</time>
      </trkpt>
      <trkpt lat="43.39855" lon="2.11869">
        <ele>595.4</ele>
        <time>2023-10-01T08:31:09Z</time>
      </trkpt>
      <trkpt lat="43.39856" lon="2.11873">
        <ele>595.6</ele>
        <time>2023-10-01T08:31:10Z</time>
      </trkpt>
      <trkpt lat="43.39857" lon="2.11878">
        <ele>596</ele>
        <time>2023-10-01T08:31:11Z</time>
      </trkpt>
      <trkpt lat="43.39857" lon="2.11883">
        <ele>596.4</ele>
        <time>2023-10-01T08:31:12Z</time>
      </trkpt>
      <trkpt lat="43.39857" lon="2.11888">
        <ele>596.6</ele>
        <time>2023-10-01T08:31:13Z</time>
      </trkpt>
      <trkpt lat="43.39857" lon="2.11892">
        <ele>597</ele>
        <time>2023-10-01T08:31:14Z</time>
      </trkpt>
      <trkpt lat="43.39858" lon="2.11897">
        <ele>597.2</ele>
        <time>2023-10-01T08:31:15Z</time>
      </trkpt>
      <trkpt lat="43.39858" lon="2.11904">
        <ele>597.6</ele>
        <time>2023-10-01T08:31:16Z</time>
      </trkpt>
      <trkpt lat="43.39858" lon="2.1191">
        <ele>597.8</ele>
        <time>2023-10-01T08:31:17Z</time>
      </trkpt>
      <trkpt lat="43.39857" lon="2.11916">
        <ele>598</ele>
        <time>2023-10-01T08:31:18Z</time>
      </trkpt>
      <trkpt lat="43.39857" lon="2.11922">
        <ele>598.4</ele>
        <time>2023-10-01T08:31:19Z</time>
      </trkpt>
      <trkpt lat="43.39856" lon="2.11927">
        <ele>598.6</ele>
        <time>2023-10-01T08:31:20Z</time>
      </trkpt>
      <trkpt lat="43.39855" lon="2.11932">
        <ele>598.8</ele>
        <time>2023-10-01T08:31:21Z</time>
      </trkpt>
      <trkpt lat="43.39855" lon="2.11938">
        <ele>598.8</ele>
        <time>2023-10-01T08:31:22Z</time>
      </trkpt>
      <trkpt lat="43.39855" lon="2.11943">
        <ele>599.2</ele>
        <time>2023-10-01T08:31:23Z</time>
      </trkpt>
      <trkpt lat="43.39855" lon="2.11948">
        <ele>599.4</ele>
        <time>2023-10-01T08:31:24Z</time>
      </trkpt>
      <trkpt lat="43.39855" lon="2.11955">
        <ele>599.6</ele>
        <time>2023-10-01T08:31:25Z</time>
      </trkpt>
      <trkpt lat="43.39855" lon="2.11961">
        <ele>600</ele>
        <time>2023-10-01T08:31:26Z</time>
      </trkpt>
      <trkpt lat="43.39853" lon="2.11968">
        <ele>600</ele>
        <time>2023-10-01T08:31:27Z</time>
      </trkpt>
      <trkpt lat="43.39851" lon="2.11974">
        <ele>600.2</ele>
        <time>2023-10-01T08:31:28Z</time>
      </trkpt>
      <trkpt lat="43.3985" lon="2.11981">
        <ele>600.2</ele>
        <time>2023-10-01T08:31:29Z</time>
      </trkpt>
      <trkpt lat="43.3985" lon="2.11988">
        <ele>600.2</ele>
        <time>2023-10-01T08:31:30Z</time>
      </trkpt>
      <trkpt lat="43.39849" lon="2.11994">
        <ele>600.2</ele>
        <time>2023-10-01T08:31:31Z</time>
      </trkpt>
      <trkpt lat="43.39847" lon="2.11999">
        <ele>600.2</ele>
        <time>2023-10-01T08:31:32Z</time>
      </trkpt>
      <trkpt lat="43.39847" lon="2.12004">
        <ele>600.4</ele>
        <time>2023-10-01T08:31:33Z</time>
      </trkpt>
      <trkpt lat="43.39847" lon="2.12011">
        <ele>600.4</ele>
        <time>2023-10-01T08:31:34Z</time>
      </trkpt>
      <trkpt lat="43.39847" lon="2.1202">
        <ele>600.4</ele>
        <time>2023-10-01T08:31:35Z</time>
      </trkpt>
      <trkpt lat="43.39848" lon="2.12032">
        <ele>600.4</ele>
        <time>2023-10-01T08:31:36Z</time>
      </trkpt>
      <trkpt lat="43.39845" lon="2.12041">
        <ele>600.4</ele>
        <time>2023-10-01T08:31:37Z</time>
      </trkpt>
      <trkpt lat="43.39844" lon="2.12048">
        <ele>600.6</ele>
        <time>2023-10-01T08:31:38Z</time>
      </trkpt>
      <trkpt lat="43.39844" lon="2.12053">
        <ele>600.4</ele>
        <time>2023-10-01T08:31:39Z</time>
      </trkpt>
      <trkpt lat="43.39843" lon="2.12059">
        <ele>600.4</ele>
        <time>2023-10-01T08:31:40Z</time>
      </trkpt>
      <trkpt lat="43.39843" lon="2.12066">
        <ele>600.6</ele>
        <time>2023-10-01T08:31:41Z</time>
      </trkpt>
      <trkpt lat="43.39842" lon="2.12074">
        <ele>600.8</ele>
        <time>2023-10-01T08:31:42Z</time>
      </trkpt>
      <trkpt lat="43.3984" lon="2.12082">
        <ele>601</ele>
        <time>2023-10-01T08:31:43Z</time>
      </trkpt>
      <trkpt lat="43.3984" lon="2.12091">
        <ele>600.8</ele>
        <time>2023-10-01T08:31:44Z</time>
      </trkpt>
      <trkpt lat="43.39839" lon="2.121">
        <ele>600.8</ele>
        <time>2023-10-01T08:31:45Z</time>
      </trkpt>
      <trkpt lat="43.39838" lon="2.12117">
        <ele>600.6</ele>
        <time>2023-10-01T08:31:46Z</time>
      </trkpt>
      <trkpt lat="43.39837" lon="2.12124">
        <ele>600.6</ele>
        <time>2023-10-01T08:31:47Z</time>
      </trkpt>
      <trkpt lat="43.39837" lon="2.12131">
        <ele>600.6</ele>
        <time>2023-10-01T08:31:48Z</time>
      </trkpt>
      <trkpt lat="43.39837" lon="2.12138">
        <ele>600.6</ele>
        <time>2023-10-01T08:31:49Z</time>
      </trkpt>
      <trkpt lat="43.39836" lon="2.12145">
        <ele>600.6</ele>
        <time>2023-10-01T08:31:50Z</time>
      </trkpt>
      <trkpt lat="43.39837" lon="2.1215">
        <ele>600.6</ele>
        <time>2023-10-01T08:31:51Z</time>
      </trkpt>
      <trkpt lat="43.39836" lon="2.12156">
        <ele>600.6</ele>
        <time>2023-10-01T08:31:52Z</time>
      </trkpt>
      <trkpt lat="43.39836" lon="2.12163">
        <ele>600.6</ele>
        <time>2023-10-01T08:31:53Z</time>
      </trkpt>
      <trkpt lat="43.39837" lon="2.1217">
        <ele>600.6</ele>
        <time>2023-10-01T08:31:54Z</time>
      </trkpt>
      <trkpt lat="43.39836" lon="2.12176">
        <ele>600.6</ele>
        <time>2023-10-01T08:31:55Z</time>
      </trkpt>
      <trkpt lat="43.39834" lon="2.1219">
        <ele>600.6</ele>
        <time>2023-10-01T08:31:57Z</time>
      </trkpt>
      <trkpt lat="43.39833" lon="2.12195">
        <ele>600.8</ele>
        <time>2023-10-01T08:31:58Z</time>
      </trkpt>
      <trkpt lat="43.39832" lon="2.12199">
        <ele>600.8</ele>
        <time>2023-10-01T08:31:59Z</time>
      </trkpt>
      <trkpt lat="43.39831" lon="2.12203">
        <ele>601</ele>
        <time>2023-10-01T08:32:00Z</time>
      </trkpt>
      <trkpt lat="43.39824" lon="2.12211">
        <ele>601.2</ele>
        <time>2023-10-01T08:32:02Z</time>
      </trkpt>
      <trkpt lat="43.39811" lon="2.12228">
        <ele>601.6</ele>
        <time>2023-10-01T08:32:05Z</time>
      </trkpt>
      <trkpt lat="43.39808" lon="2.12234">
        <ele>601.8</ele>
        <time>2023-10-01T08:32:06Z</time>
      </trkpt>
      <trkpt lat="43.39806" lon="2.12238">
        <ele>601.8</ele>
        <time>2023-10-01T08:32:07Z</time>
      </trkpt>
      <trkpt lat="43.39807" lon="2.12243">
        <ele>602</ele>
        <time>2023-10-01T08:32:08Z</time>
      </trkpt>
      <trkpt lat="43.39802" lon="2.12255">
        <ele>602</ele>
        <time>2023-10-01T08:32:10Z</time>
      </trkpt>
      <trkpt lat="43.398" lon="2.12261">
        <ele>602.2</ele>
        <time>2023-10-01T08:32:11Z</time>
      </trkpt>
      <trkpt lat="43.39784" lon="2.12262">
        <ele>602.6</ele>
        <time>2023-10-01T08:32:14Z</time>
      </trkpt>
      <trkpt lat="43.3978" lon="2.12263">
        <ele>602.6</ele>
        <time>2023-10-01T08:32:15Z</time>
      </trkpt>
      <trkpt lat="43.39776" lon="2.12264">
        <ele>602.6</ele>
        <time>2023-10-01T08:32:16Z</time>
      </trkpt>
      <trkpt lat="43.39768" lon="2.12269">
        <ele>602.6</ele>
        <time>2023-10-01T08:32:18Z</time>
      </trkpt>
      <trkpt lat="43.39766" lon="2.12271">
        <ele>602.4</ele>
        <time>2023-10-01T08:32:19Z</time>
      </trkpt>
      <trkpt lat="43.39765" lon="2.12273">
        <ele>602.4</ele>
        <time>2023-10-01T08:32:20Z</time>
      </trkpt>
      <trkpt lat="43.39764" lon="2.12276">
        <ele>602.2</ele>
        <time>2023-10-01T08:32:21Z</time>
      </trkpt>
      <trkpt lat="43.39762" lon="2.12279">
        <ele>602</ele>
        <time>2023-10-01T08:32:22Z</time>
      </trkpt>
      <trkpt lat="43.39758" lon="2.12284">
        <ele>601.8</ele>
        <time>2023-10-01T08:32:23Z</time>
      </trkpt>
      <trkpt lat="43.39753" lon="2.12288">
        <ele>601.6</ele>
        <time>2023-10-01T08:32:24Z</time>
      </trkpt>
      <trkpt lat="43.3975" lon="2.1229">
        <ele>601.6</ele>
        <time>2023-10-01T08:32:25Z</time>
      </trkpt>
      <trkpt lat="43.39747" lon="2.12292">
        <ele>601.6</ele>
        <time>2023-10-01T08:32:26Z</time>
      </trkpt>
      <trkpt lat="43.39745" lon="2.12293">
        <ele>601.6</ele>
        <time>2023-10-01T08:32:27Z</time>
      </trkpt>
      <trkpt lat="43.39744" lon="2.12294">
        <ele>601.6</ele>
        <time>2023-10-01T08:32:28Z</time>
      </trkpt>
      <trkpt lat="43.39745" lon="2.12297">
        <ele>601.6</ele>
        <time>2023-10-01T08:32:29Z</time>
      </trkpt>
      <trkpt lat="43.39744" lon="2.12301">
        <ele>601.6</ele>
        <time>2023-10-01T08:32:30Z</time>
      </trkpt>
      <trkpt lat="43.39743" lon="2.12303">
        <ele>601.6</ele>
        <time>2023-10-01T08:32:31Z</time>
      </trkpt>
      <trkpt lat="43.39742" lon="2.12308">
        <ele>601.8</ele>
        <time>2023-10-01T08:32:32Z</time>
      </trkpt>
      <trkpt lat="43.39741" lon="2.12313">
        <ele>601.8</ele>
        <time>2023-10-01T08:32:33Z</time>
      </trkpt>
      <trkpt lat="43.3974" lon="2.12316">
        <ele>601.8</ele>
        <time>2023-10-01T08:32:34Z</time>
      </trkpt>
      <trkpt lat="43.39739" lon="2.12321">
        <ele>601.4</ele>
        <time>2023-10-01T08:32:35Z</time>
      </trkpt>
      <trkpt lat="43.39738" lon="2.12326">
        <ele>601.2</ele>
        <time>2023-10-01T08:32:36Z</time>
      </trkpt>
      <trkpt lat="43.39735" lon="2.12342">
        <ele>600.2</ele>
        <time>2023-10-01T08:32:38Z</time>
      </trkpt>
      <trkpt lat="43.39734" lon="2.12349">
        <ele>599.2</ele>
        <time>2023-10-01T08:32:39Z</time>
      </trkpt>
      <trkpt lat="43.39733" lon="2.12354">
        <ele>598.8</ele>
        <time>2023-10-01T08:32:40Z</time>
      </trkpt>
      <trkpt lat="43.39733" lon="2.12357">
        <ele>598</ele>
        <time>2023-10-01T08:32:41Z</time>
      </trkpt>
      <trkpt lat="43.39733" lon="2.12358">
        <ele>597.2</ele>
        <time>2023-10-01T08:32:42Z</time>
      </trkpt>
      <trkpt lat="43.39735" lon="2.1236">
        <ele>597</ele>
        <time>2023-10-01T08:32:43Z</time>
      </trkpt>
      <trkpt lat="43.39738" lon="2.12362">
        <ele>596.2</ele>
        <time>2023-10-01T08:32:44Z</time>
      </trkpt>
      <trkpt lat="43.39747" lon="2.12365">
        <ele>595</ele>
        <time>2023-10-01T08:32:46Z</time>
      </trkpt>
      <trkpt lat="43.39759" lon="2.12365">
        <ele>593.6</ele>
        <time>2023-10-01T08:32:48Z</time>
      </trkpt>
      <trkpt lat="43.39765" lon="2.12362">
        <ele>592.4</ele>
        <time>2023-10-01T08:32:49Z</time>
      </trkpt>
      <trkpt lat="43.39771" lon="2.1236">
        <ele>592</ele>
        <time>2023-10-01T08:32:50Z</time>
      </trkpt>
      <trkpt lat="43.39775" lon="2.12356">
        <ele>591.4</ele>
        <time>2023-10-01T08:32:51Z</time>
      </trkpt>
      <trkpt lat="43.39779" lon="2.12351">
        <ele>591.2</ele>
        <time>2023-10-01T08:32:52Z</time>
      </trkpt>
      <trkpt lat="43.39785" lon="2.12347">
        <ele>591</ele>
        <time>2023-10-01T08:32:53Z</time>
      </trkpt>
      <trkpt lat="43.39797" lon="2.12345">
        <ele>589.2</ele>
        <time>2023-10-01T08:32:55Z</time>
      </trkpt>
      <trkpt lat="43.39803" lon="2.12346">
        <ele>588</ele>
        <time>2023-10-01T08:32:56Z</time>
      </trkpt>
      <trkpt lat="43.39807" lon="2.12349">
        <ele>587.2</ele>
        <time>2023-10-01T08:32:57Z</time>
      </trkpt>
      <trkpt lat="43.39809" lon="2.12353">
        <ele>586</ele>
        <time>2023-10-01T08:32:58Z</time>
      </trkpt>
      <trkpt lat="43.3981" lon="2.12355">
        <ele>585.4</ele>
        <time>2023-10-01T08:32:59Z</time>
      </trkpt>
      <trkpt lat="43.39809" lon="2.12358">
        <ele>584.4</ele>
        <time>2023-10-01T08:33:00Z</time>
      </trkpt>
      <trkpt lat="43.39806" lon="2.1236">
        <ele>583.6</ele>
        <time>2023-10-01T08:33:01Z</time>
      </trkpt>
      <trkpt lat="43.39804" lon="2.12363">
        <ele>581.8</ele>
        <time>2023-10-01T08:33:02Z</time>
      </trkpt>
      <trkpt lat="43.39802" lon="2.12367">
        <ele>581.4</ele>
        <time>2023-10-01T08:33:03Z</time>
      </trkpt>
      <trkpt lat="43.398" lon="2.12371">
        <ele>580.8</ele>
        <time>2023-10-01T08:33:04Z</time>
      </trkpt>
      <trkpt lat="43.39798" lon="2.12375">
        <ele>580.6</ele>
        <time>2023-10-01T08:33:05Z</time>
      </trkpt>
      <trkpt lat="43.39795" lon="2.12378">
        <ele>580.6</ele>
        <time>2023-10-01T08:33:06Z</time>
      </trkpt>
      <trkpt lat="43.39788" lon="2.12387">
        <ele>580.4</ele>
        <time>2023-10-01T08:33:08Z</time>
      </trkpt>
      <trkpt lat="43.39783" lon="2.124">
        <ele>580.6</ele>
        <time>2023-10-01T08:33:10Z</time>
      </trkpt>
      <trkpt lat="43.39782" lon="2.12407">
        <ele>581</ele>
        <time>2023-10-01T08:33:11Z</time>
      </trkpt>
      <trkpt lat="43.39783" lon="2.12412">
        <ele>581.2</ele>
        <time>2023-10-01T08:33:12Z</time>
      </trkpt>
      <trkpt lat="43.39785" lon="2.12415">
        <ele>581.4</ele>
        <time>2023-10-01T08:33:13Z</time>
      </trkpt>
      <trkpt lat="43.39793" lon="2.12422">
        <ele>581.8</ele>
        <time>2023-10-01T08:33:15Z</time>
      </trkpt>
      <trkpt lat="43.39797" lon="2.12426">
        <ele>582.2</ele>
        <time>2023-10-01T08:33:16Z</time>
      </trkpt>
      <trkpt lat="43.39811" lon="2.12434">
        <ele>583</ele>
        <time>2023-10-01T08:33:19Z</time>
      </trkpt>
      <trkpt lat="43.39816" lon="2.12436">
        <ele>583.2</ele>
        <time>2023-10-01T08:33:20Z</time>
      </trkpt>
      <trkpt lat="43.39829" lon="2.12444">
        <ele>583.2</ele>
        <time>2023-10-01T08:33:23Z</time>
      </trkpt>
      <trkpt lat="43.39834" lon="2.12446">
        <ele>583.4</ele>
        <time>2023-10-01T08:33:24Z</time>
      </trkpt>
      <trkpt lat="43.3985" lon="2.12454">
        <ele>583.2</ele>
        <time>2023-10-01T08:33:27Z</time>
      </trkpt>
      <trkpt lat="43.39861" lon="2.12457">
        <ele>583.2</ele>
        <time>2023-10-01T08:33:29Z</time>
      </trkpt>
      <trkpt lat="43.39867" lon="2.12457">
        <ele>583</ele>
        <time>2023-10-01T08:33:30Z</time>
      </trkpt>
      <trkpt lat="43.39895" lon="2.12455">
        <ele>582.6</ele>
        <time>2023-10-01T08:33:34Z</time>
      </trkpt>
      <trkpt lat="43.39901" lon="2.12457">
        <ele>582.4</ele>
        <time>2023-10-01T08:33:35Z</time>
      </trkpt>
      <trkpt lat="43.39906" lon="2.1246">
        <ele>582.2</ele>
        <time>2023-10-01T08:33:36Z</time>
      </trkpt>
      <trkpt lat="43.3991" lon="2.12465">
        <ele>582.2</ele>
        <time>2023-10-01T08:33:37Z</time>
      </trkpt>
      <trkpt lat="43.39913" lon="2.12471">
        <ele>582.2</ele>
        <time>2023-10-01T08:33:38Z</time>
      </trkpt>
      <trkpt lat="43.39915" lon="2.12479">
        <ele>582.2</ele>
        <time>2023-10-01T08:33:39Z</time>
      </trkpt>
      <trkpt lat="43.39916" lon="2.12486">
        <ele>582</ele>
        <time>2023-10-01T08:33:40Z</time>
      </trkpt>
      <trkpt lat="43.39915" lon="2.12493">
        <ele>582</ele>
        <time>2023-10-01T08:33:41Z</time>
      </trkpt>
      <trkpt lat="43.39915" lon="2.12499">
        <ele>582.2</ele>
        <time>2023-10-01T08:33:42Z</time>
      </trkpt>
      <trkpt lat="43.39914" lon="2.12504">
        <ele>582.2</ele>
        <time>2023-10-01T08:33:43Z</time>
      </trkpt>
      <trkpt lat="43.39913" lon="2.1251">
        <ele>582.4</ele>
        <time>2023-10-01T08:33:44Z</time>
      </trkpt>
      <trkpt lat="43.39911" lon="2.12522">
        <ele>583.2</ele>
        <time>2023-10-01T08:33:46Z</time>
      </trkpt>
      <trkpt lat="43.39908" lon="2.1254">
        <ele>583.8</ele>
        <time>2023-10-01T08:33:49Z</time>
      </trkpt>
      <trkpt lat="43.39905" lon="2.12551">
        <ele>584.4</ele>
        <time>2023-10-01T08:33:51Z</time>
      </trkpt>
      <trkpt lat="43.39903" lon="2.12557">
        <ele>584.8</ele>
        <time>2023-10-01T08:33:52Z</time>
      </trkpt>
      <trkpt lat="43.39901" lon="2.12562">
        <ele>585.6</ele>
        <time>2023-10-01T08:33:53Z</time>
      </trkpt>
      <trkpt lat="43.39896" lon="2.12574">
        <ele>586.8</ele>
        <time>2023-10-01T08:33:55Z</time>
      </trkpt>
      <trkpt lat="43.39893" lon="2.12579">
        <ele>587</ele>
        <time>2023-10-01T08:33:56Z</time>
      </trkpt>
      <trkpt lat="43.3989" lon="2.12584">
        <ele>587.4</ele>
        <time>2023-10-01T08:33:57Z</time>
      </trkpt>
      <trkpt lat="43.39887" lon="2.12589">
        <ele>587.8</ele>
        <time>2023-10-01T08:33:58Z</time>
      </trkpt>
      <trkpt lat="43.39884" lon="2.12594">
        <ele>588</ele>
        <time>2023-10-01T08:33:59Z</time>
      </trkpt>
      <trkpt lat="43.39881" lon="2.12599">
        <ele>588.2</ele>
        <time>2023-10-01T08:34:00Z</time>
      </trkpt>
      <trkpt lat="43.39879" lon="2.12604">
        <ele>588.4</ele>
        <time>2023-10-01T08:34:01Z</time>
      </trkpt>
      <trkpt lat="43.39874" lon="2.12615">
        <ele>588.6</ele>
        <time>2023-10-01T08:34:02Z</time>
      </trkpt>
      <trkpt lat="43.39871" lon="2.1262">
        <ele>588.6</ele>
        <time>2023-10-01T08:34:03Z</time>
      </trkpt>
      <trkpt lat="43.3987" lon="2.12626">
        <ele>588.8</ele>
        <time>2023-10-01T08:34:04Z</time>
      </trkpt>
      <trkpt lat="43.39869" lon="2.12633">
        <ele>589</ele>
        <time>2023-10-01T08:34:05Z</time>
      </trkpt>
      <trkpt lat="43.39868" lon="2.12636">
        <ele>589.2</ele>
        <time>2023-10-01T08:34:06Z</time>
      </trkpt>
      <trkpt lat="43.39868" lon="2.1264">
        <ele>589.2</ele>
        <time>2023-10-01T08:34:07Z</time>
      </trkpt>
      <trkpt lat="43.39867" lon="2.12652">
        <ele>589.4</ele>
        <time>2023-10-01T08:34:08Z</time>
      </trkpt>
      <trkpt lat="43.39867" lon="2.12656">
        <ele>589.6</ele>
        <time>2023-10-01T08:34:09Z</time>
      </trkpt>
      <trkpt lat="43.39867" lon="2.1267">
        <ele>589.6</ele>
        <time>2023-10-01T08:34:10Z</time>
      </trkpt>
      <trkpt lat="43.39867" lon="2.12676">
        <ele>590</ele>
        <time>2023-10-01T08:34:11Z</time>
      </trkpt>
      <trkpt lat="43.39867" lon="2.12688">
        <ele>590</ele>
        <time>2023-10-01T08:34:12Z</time>
      </trkpt>
      <trkpt lat="43.39867" lon="2.12696">
        <ele>590</ele>
        <time>2023-10-01T08:34:13Z</time>
      </trkpt>
      <trkpt lat="43.39867" lon="2.12702">
        <ele>590.2</ele>
        <time>2023-10-01T08:34:14Z</time>
      </trkpt>
      <trkpt lat="43.39867" lon="2.12709">
        <ele>590.2</ele>
        <time>2023-10-01T08:34:15Z</time>
      </trkpt>
      <trkpt lat="43.39867" lon="2.12721">
        <ele>590.4</ele>
        <time>2023-10-01T08:34:16Z</time>
      </trkpt>
      <trkpt lat="43.39867" lon="2.12725">
        <ele>590.4</ele>
        <time>2023-10-01T08:34:17Z</time>
      </trkpt>
      <trkpt lat="43.39867" lon="2.12729">
        <ele>590.6</ele>
        <time>2023-10-01T08:34:18Z</time>
      </trkpt>
      <trkpt lat="43.39866" lon="2.12747">
        <ele>590.8</ele>
        <time>2023-10-01T08:34:19Z</time>
      </trkpt>
      <trkpt lat="43.39865" lon="2.12756">
        <ele>590.6</ele>
        <time>2023-10-01T08:34:20Z</time>
      </trkpt>
      <trkpt lat="43.39866" lon="2.12765">
        <ele>590.8</ele>
        <time>2023-10-01T08:34:21Z</time>
      </trkpt>
      <trkpt lat="43.39866" lon="2.12774">
        <ele>590.8</ele>
        <time>2023-10-01T08:34:22Z</time>
      </trkpt>
      <trkpt lat="43.39867" lon="2.12791">
        <ele>590.6</ele>
        <time>2023-10-01T08:34:23Z</time>
      </trkpt>
      <trkpt lat="43.39869" lon="2.12805">
        <ele>590.6</ele>
        <time>2023-10-01T08:34:24Z</time>
      </trkpt>
      <trkpt lat="43.39872" lon="2.12818">
        <ele>590.6</ele>
        <time>2023-10-01T08:34:25Z</time>
      </trkpt>
      <trkpt lat="43.39874" lon="2.1283">
        <ele>590.2</ele>
        <time>2023-10-01T08:34:26Z</time>
      </trkpt>
      <trkpt lat="43.39876" lon="2.12835">
        <ele>589.8</ele>
        <time>2023-10-01T08:34:27Z</time>
      </trkpt>
      <trkpt lat="43.39877" lon="2.1284">
        <ele>588.8</ele>
        <time>2023-10-01T08:34:28Z</time>
      </trkpt>
      <trkpt lat="43.39881" lon="2.12854">
        <ele>588.4</ele>
        <time>2023-10-01T08:34:29Z</time>
      </trkpt>
      <trkpt lat="43.39882" lon="2.12858">
        <ele>587.8</ele>
        <time>2023-10-01T08:34:30Z</time>
      </trkpt>
      <trkpt lat="43.39887" lon="2.12872">
        <ele>587.4</ele>
        <time>2023-10-01T08:34:31Z</time>
      </trkpt>
      <trkpt lat="43.3989" lon="2.1288">
        <ele>587</ele>
        <time>2023-10-01T08:34:32Z</time>
      </trkpt>
      <trkpt lat="43.39893" lon="2.12888">
        <ele>586.6</ele>
        <time>2023-10-01T08:34:33Z</time>
      </trkpt>
      <trkpt lat="43.39897" lon="2.12897">
        <ele>586.2</ele>
        <time>2023-10-01T08:34:34Z</time>
      </trkpt>
      <trkpt lat="43.39903" lon="2.12913">
        <ele>585.8</ele>
        <time>2023-10-01T08:34:37Z</time>
      </trkpt>
      <trkpt lat="43.39906" lon="2.12921">
        <ele>585.8</ele>
        <time>2023-10-01T08:34:38Z</time>
      </trkpt>
      <trkpt lat="43.39911" lon="2.1294">
        <ele>585.8</ele>
        <time>2023-10-01T08:34:39Z</time>
      </trkpt>
      <trkpt lat="43.39924" lon="2.12993">
        <ele>585.2</ele>
        <time>2023-10-01T08:34:45Z</time>
      </trkpt>
      <trkpt lat="43.39929" lon="2.13008">
        <ele>585.2</ele>
        <time>2023-10-01T08:34:46Z</time>
      </trkpt>
      <trkpt lat="43.39933" lon="2.13023">
        <ele>584.8</ele>
        <time>2023-10-01T08:34:48Z</time>
      </trkpt>
      <trkpt lat="43.39939" lon="2.1304">
        <ele>584.6</ele>
        <time>2023-10-01T08:34:50Z</time>
      </trkpt>
      <trkpt lat="43.39945" lon="2.13046">
        <ele>584.2</ele>
        <time>2023-10-01T08:34:52Z</time>
      </trkpt>
      <trkpt lat="43.39949" lon="2.13048">
        <ele>584</ele>
        <time>2023-10-01T08:34:53Z</time>
      </trkpt>
      <trkpt lat="43.39953" lon="2.13049">
        <ele>584</ele>
        <time>2023-10-01T08:34:54Z</time>
      </trkpt>
      <trkpt lat="43.39957" lon="2.13051">
        <ele>583.6</ele>
        <time>2023-10-01T08:34:55Z</time>
      </trkpt>
      <trkpt lat="43.39957" lon="2.13051">
        <ele>583.6</ele>
        <time>2023-10-01T08:34:56Z</time>
      </trkpt>
      <trkpt lat="43.3997" lon="2.13056">
        <ele>584.2</ele>
        <time>2023-10-01T08:34:59Z</time>
      </trkpt>
      <trkpt lat="43.39979" lon="2.13062">
        <ele>584.4</ele>
        <time>2023-10-01T08:35:00Z</time>
      </trkpt>
      <trkpt lat="43.39987" lon="2.13069">
        <ele>584.8</ele>
        <time>2023-10-01T08:35:03Z</time>
      </trkpt>
      <trkpt lat="43.39994" lon="2.13072">
        <ele>584.8</ele>
        <time>2023-10-01T08:35:04Z</time>
      </trkpt>
      <trkpt lat="43.39997" lon="2.13074">
        <ele>585</ele>
        <time>2023-10-01T08:35:05Z</time>
      </trkpt>
      <trkpt lat="43.4" lon="2.13077">
        <ele>585</ele>
        <time>2023-10-01T08:35:06Z</time>
      </trkpt>
      <trkpt lat="43.40003" lon="2.1308">
        <ele>585.4</ele>
        <time>2023-10-01T08:35:07Z</time>
      </trkpt>
      <trkpt lat="43.40025" lon="2.13099">
        <ele>586</ele>
        <time>2023-10-01T08:35:14Z</time>
      </trkpt>
      <trkpt lat="43.40027" lon="2.13102">
        <ele>586</ele>
        <time>2023-10-01T08:35:15Z</time>
      </trkpt>
      <trkpt lat="43.40028" lon="2.13104">
        <ele>586.2</ele>
        <time>2023-10-01T08:35:16Z</time>
      </trkpt>
      <trkpt lat="43.40026" lon="2.13106">
        <ele>586.2</ele>
        <time>2023-10-01T08:35:17Z</time>
      </trkpt>
      <trkpt lat="43.40025" lon="2.13106">
        <ele>586.6</ele>
        <time>2023-10-01T08:35:18Z</time>
      </trkpt>
      <trkpt lat="43.40023" lon="2.13105">
        <ele>586.6</ele>
        <time>2023-10-01T08:35:19Z</time>
      </trkpt>
      <trkpt lat="43.40018" lon="2.13101">
        <ele>587.4</ele>
        <time>2023-10-01T08:35:21Z</time>
      </trkpt>
      <trkpt lat="43.40012" lon="2.13098">
        <ele>587.8</ele>
        <time>2023-10-01T08:35:23Z</time>
      </trkpt>
      <trkpt lat="43.40005" lon="2.13095">
        <ele>588.2</ele>
        <time>2023-10-01T08:35:25Z</time>
      </trkpt>
      <trkpt lat="43.40001" lon="2.13093">
        <ele>588.4</ele>
        <time>2023-10-01T08:35:26Z</time>
      </trkpt>
      <trkpt lat="43.39997" lon="2.13091">
        <ele>588.6</ele>
        <time>2023-10-01T08:35:27Z</time>
      </trkpt>
      <trkpt lat="43.39992" lon="2.1309">
        <ele>589</ele>
        <time>2023-10-01T08:35:28Z</time>
      </trkpt>
      <trkpt lat="43.3999" lon="2.1309">
        <ele>589.2</ele>
        <time>2023-10-01T08:35:29Z</time>
      </trkpt>
      <trkpt lat="43.39988" lon="2.1309">
        <ele>589.6</ele>
        <time>2023-10-01T08:35:30Z</time>
      </trkpt>
      <trkpt lat="43.39979" lon="2.13087">
        <ele>589.6</ele>
        <time>2023-10-01T08:35:31Z</time>
      </trkpt>
      <trkpt lat="43.39975" lon="2.13085">
        <ele>590</ele>
        <time>2023-10-01T08:35:32Z</time>
      </trkpt>
      <trkpt lat="43.39974" lon="2.13084">
        <ele>590</ele>
        <time>2023-10-01T08:35:33Z</time>
      </trkpt>
      <trkpt lat="43.39972" lon="2.13083">
        <ele>590.4</ele>
        <time>2023-10-01T08:35:34Z</time>
      </trkpt>
      <trkpt lat="43.39964" lon="2.13079">
        <ele>590.6</ele>
        <time>2023-10-01T08:35:35Z</time>
      </trkpt>
      <trkpt lat="43.39959" lon="2.13078">
        <ele>590.8</ele>
        <time>2023-10-01T08:35:36Z</time>
      </trkpt>
      <trkpt lat="43.39955" lon="2.13077">
        <ele>591</ele>
        <time>2023-10-01T08:35:37Z</time>
      </trkpt>
      <trkpt lat="43.3995" lon="2.13077">
        <ele>591.2</ele>
        <time>2023-10-01T08:35:38Z</time>
      </trkpt>
      <trkpt lat="43.39947" lon="2.13077">
        <ele>592</ele>
        <time>2023-10-01T08:35:39Z</time>
      </trkpt>
      <trkpt lat="43.39943" lon="2.13077">
        <ele>592.4</ele>
        <time>2023-10-01T08:35:40Z</time>
      </trkpt>
      <trkpt lat="43.3994" lon="2.13078">
        <ele>593</ele>
        <time>2023-10-01T08:35:41Z</time>
      </trkpt>
      <trkpt lat="43.39936" lon="2.13079">
        <ele>593.4</ele>
        <time>2023-10-01T08:35:42Z</time>
      </trkpt>
      <trkpt lat="43.39932" lon="2.13081">
        <ele>593.8</ele>
        <time>2023-10-01T08:35:43Z</time>
      </trkpt>
      <trkpt lat="43.39928" lon="2.13083">
        <ele>594.2</ele>
        <time>2023-10-01T08:35:44Z</time>
      </trkpt>
      <trkpt lat="43.39924" lon="2.13086">
        <ele>594.4</ele>
        <time>2023-10-01T08:35:45Z</time>
      </trkpt>
      <trkpt lat="43.3992" lon="2.13089">
        <ele>594.4</ele>
        <time>2023-10-01T08:35:46Z</time>
      </trkpt>
      <trkpt lat="43.39917" lon="2.13092">
        <ele>594.6</ele>
        <time>2023-10-01T08:35:47Z</time>
      </trkpt>
      <trkpt lat="43.39914" lon="2.13095">
        <ele>595.4</ele>
        <time>2023-10-01T08:35:48Z</time>
      </trkpt>
      <trkpt lat="43.39912" lon="2.13098">
        <ele>595.6</ele>
        <time>2023-10-01T08:35:49Z</time>
      </trkpt>
      <trkpt lat="43.3991" lon="2.13101">
        <ele>596.2</ele>
        <time>2023-10-01T08:35:50Z</time>
      </trkpt>
      <trkpt lat="43.39908" lon="2.13105">
        <ele>596.6</ele>
        <time>2023-10-01T08:35:51Z</time>
      </trkpt>
      <trkpt lat="43.39904" lon="2.13108">
        <ele>596.8</ele>
        <time>2023-10-01T08:35:52Z</time>
      </trkpt>
      <trkpt lat="43.39901" lon="2.13112">
        <ele>597</ele>
        <time>2023-10-01T08:35:53Z</time>
      </trkpt>
      <trkpt lat="43.39898" lon="2.13116">
        <ele>597.2</ele>
        <time>2023-10-01T08:35:54Z</time>
      </trkpt>
      <trkpt lat="43.39893" lon="2.13121">
        <ele>597.6</ele>
        <time>2023-10-01T08:35:55Z</time>
      </trkpt>
      <trkpt lat="43.39888" lon="2.13123">
        <ele>598</ele>
        <time>2023-10-01T08:35:56Z</time>
      </trkpt>
      <trkpt lat="43.39884" lon="2.13125">
        <ele>598.8</ele>
        <time>2023-10-01T08:35:57Z</time>
      </trkpt>
      <trkpt lat="43.3988" lon="2.13127">
        <ele>599.4</ele>
        <time>2023-10-01T08:35:58Z</time>
      </trkpt>
      <trkpt lat="43.39876" lon="2.13129">
        <ele>599.6</ele>
        <time>2023-10-01T08:35:59Z</time>
      </trkpt>
      <trkpt lat="43.39872" lon="2.13131">
        <ele>600.2</ele>
        <time>2023-10-01T08:36:00Z</time>
      </trkpt>
      <trkpt lat="43.39868" lon="2.13133">
        <ele>600.6</ele>
        <time>2023-10-01T08:36:01Z</time>
      </trkpt>
      <trkpt lat="43.39863" lon="2.13134">
        <ele>601.4</ele>
        <time>2023-10-01T08:36:02Z</time>
      </trkpt>
      <trkpt lat="43.39859" lon="2.13137">
        <ele>602</ele>
        <time>2023-10-01T08:36:03Z</time>
      </trkpt>
      <trkpt lat="43.39853" lon="2.13139">
        <ele>602.8</ele>
        <time>2023-10-01T08:36:04Z</time>
      </trkpt>
      <trkpt lat="43.39848" lon="2.1314">
        <ele>603.2</ele>
        <time>2023-10-01T08:36:05Z</time>
      </trkpt>
      <trkpt lat="43.39842" lon="2.1314">
        <ele>603.6</ele>
        <time>2023-10-01T08:36:06Z</time>
      </trkpt>
      <trkpt lat="43.39838" lon="2.1314">
        <ele>603.8</ele>
        <time>2023-10-01T08:36:07Z</time>
      </trkpt>
      <trkpt lat="43.39835" lon="2.13141">
        <ele>604</ele>
        <time>2023-10-01T08:36:08Z</time>
      </trkpt>
      <trkpt lat="43.39831" lon="2.13141">
        <ele>604.6</ele>
        <time>2023-10-01T08:36:09Z</time>
      </trkpt>
      <trkpt lat="43.39827" lon="2.13141">
        <ele>604.6</ele>
        <time>2023-10-01T08:36:10Z</time>
      </trkpt>
      <trkpt lat="43.39822" lon="2.13143">
        <ele>605</ele>
        <time>2023-10-01T08:36:11Z</time>
      </trkpt>
      <trkpt lat="43.39818" lon="2.13146">
        <ele>605</ele>
        <time>2023-10-01T08:36:12Z</time>
      </trkpt>
      <trkpt lat="43.39814" lon="2.13148">
        <ele>605.4</ele>
        <time>2023-10-01T08:36:13Z</time>
      </trkpt>
      <trkpt lat="43.39809" lon="2.13149">
        <ele>605.6</ele>
        <time>2023-10-01T08:36:14Z</time>
      </trkpt>
      <trkpt lat="43.39805" lon="2.13151">
        <ele>606</ele>
        <time>2023-10-01T08:36:15Z</time>
      </trkpt>
      <trkpt lat="43.39802" lon="2.13151">
        <ele>606.6</ele>
        <time>2023-10-01T08:36:16Z</time>
      </trkpt>
      <trkpt lat="43.39798" lon="2.13151">
        <ele>606.8</ele>
        <time>2023-10-01T08:36:17Z</time>
      </trkpt>
      <trkpt lat="43.39795" lon="2.13153">
        <ele>607</ele>
        <time>2023-10-01T08:36:18Z</time>
      </trkpt>
      <trkpt lat="43.39793" lon="2.13155">
        <ele>607.2</ele>
        <time>2023-10-01T08:36:19Z</time>
      </trkpt>
      <trkpt lat="43.3979" lon="2.13157">
        <ele>607.4</ele>
        <time>2023-10-01T08:36:20Z</time>
      </trkpt>
      <trkpt lat="43.39787" lon="2.13161">
        <ele>608</ele>
        <time>2023-10-01T08:36:21Z</time>
      </trkpt>
      <trkpt lat="43.39783" lon="2.13164">
        <ele>608.2</ele>
        <time>2023-10-01T08:36:22Z</time>
      </trkpt>
      <trkpt lat="43.39779" lon="2.13166">
        <ele>608.6</ele>
        <time>2023-10-01T08:36:23Z</time>
      </trkpt>
      <trkpt lat="43.39776" lon="2.13168">
        <ele>608.8</ele>
        <time>2023-10-01T08:36:24Z</time>
      </trkpt>
      <trkpt lat="43.39773" lon="2.13171">
        <ele>609</ele>
        <time>2023-10-01T08:36:25Z</time>
      </trkpt>
      <trkpt lat="43.39768" lon="2.13174">
        <ele>609.2</ele>
        <time>2023-10-01T08:36:26Z</time>
      </trkpt>
      <trkpt lat="43.39765" lon="2.13176">
        <ele>609.6</ele>
        <time>2023-10-01T08:36:27Z</time>
      </trkpt>
      <trkpt lat="43.39761" lon="2.13179">
        <ele>609.6</ele>
        <time>2023-10-01T08:36:28Z</time>
      </trkpt>
      <trkpt lat="43.39758" lon="2.1318">
        <ele>610</ele>
        <time>2023-10-01T08:36:29Z</time>
      </trkpt>
      <trkpt lat="43.39755" lon="2.13183">
        <ele>610.6</ele>
        <time>2023-10-01T08:36:30Z</time>
      </trkpt>
      <trkpt lat="43.39751" lon="2.13187">
        <ele>610.8</ele>
        <time>2023-10-01T08:36:31Z</time>
      </trkpt>
      <trkpt lat="43.39747" lon="2.1319">
        <ele>611.2</ele>
        <time>2023-10-01T08:36:32Z</time>
      </trkpt>
      <trkpt lat="43.39743" lon="2.13193">
        <ele>611.4</ele>
        <time>2023-10-01T08:36:33Z</time>
      </trkpt>
      <trkpt lat="43.39739" lon="2.13196">
        <ele>611.8</ele>
        <time>2023-10-01T08:36:34Z</time>
      </trkpt>
      <trkpt lat="43.39734" lon="2.13201">
        <ele>611.8</ele>
        <time>2023-10-01T08:36:35Z</time>
      </trkpt>
      <trkpt lat="43.39729" lon="2.13204">
        <ele>612.2</ele>
        <time>2023-10-01T08:36:36Z</time>
      </trkpt>
      <trkpt lat="43.39725" lon="2.13209">
        <ele>612.8</ele>
        <time>2023-10-01T08:36:37Z</time>
      </trkpt>
      <trkpt lat="43.39722" lon="2.13212">
        <ele>613.4</ele>
        <time>2023-10-01T08:36:38Z</time>
      </trkpt>
      <trkpt lat="43.39719" lon="2.13215">
        <ele>614</ele>
        <time>2023-10-01T08:36:39Z</time>
      </trkpt>
      <trkpt lat="43.39714" lon="2.13218">
        <ele>614</ele>
        <time>2023-10-01T08:36:40Z</time>
      </trkpt>
      <trkpt lat="43.3971" lon="2.13221">
        <ele>614.8</ele>
        <time>2023-10-01T08:36:41Z</time>
      </trkpt>
      <trkpt lat="43.39706" lon="2.13223">
        <ele>615.2</ele>
        <time>2023-10-01T08:36:42Z</time>
      </trkpt>
      <trkpt lat="43.39702" lon="2.13223">
        <ele>615.6</ele>
        <time>2023-10-01T08:36:43Z</time>
      </trkpt>
      <trkpt lat="43.39699" lon="2.13224">
        <ele>616</ele>
        <time>2023-10-01T08:36:44Z</time>
      </trkpt>
      <trkpt lat="43.39695" lon="2.13227">
        <ele>616.2</ele>
        <time>2023-10-01T08:36:45Z</time>
      </trkpt>
      <trkpt lat="43.39692" lon="2.13229">
        <ele>616.4</ele>
        <time>2023-10-01T08:36:46Z</time>
      </trkpt>
      <trkpt lat="43.39689" lon="2.13231">
        <ele>616.8</ele>
        <time>2023-10-01T08:36:47Z</time>
      </trkpt>
      <trkpt lat="43.39687" lon="2.13233">
        <ele>617.6</ele>
        <time>2023-10-01T08:36:48Z</time>
      </trkpt>
      <trkpt lat="43.39684" lon="2.13235">
        <ele>618</ele>
        <time>2023-10-01T08:36:49Z</time>
      </trkpt>
      <trkpt lat="43.39682" lon="2.13236">
        <ele>618.4</ele>
        <time>2023-10-01T08:36:50Z</time>
      </trkpt>
      <trkpt lat="43.39679" lon="2.13236">
        <ele>619</ele>
        <time>2023-10-01T08:36:51Z</time>
      </trkpt>
      <trkpt lat="43.39677" lon="2.13237">
        <ele>619.8</ele>
        <time>2023-10-01T08:36:52Z</time>
      </trkpt>
      <trkpt lat="43.39674" lon="2.13237">
        <ele>620.2</ele>
        <time>2023-10-01T08:36:53Z</time>
      </trkpt>
      <trkpt lat="43.3967" lon="2.13236">
        <ele>620.4</ele>
        <time>2023-10-01T08:36:54Z</time>
      </trkpt>
      <trkpt lat="43.39666" lon="2.13236">
        <ele>620.8</ele>
        <time>2023-10-01T08:36:55Z</time>
      </trkpt>
      <trkpt lat="43.39662" lon="2.13235">
        <ele>621</ele>
        <time>2023-10-01T08:36:56Z</time>
      </trkpt>
      <trkpt lat="43.39658" lon="2.13235">
        <ele>621.2</ele>
        <time>2023-10-01T08:36:57Z</time>
      </trkpt>
      <trkpt lat="43.39654" lon="2.13233">
        <ele>621.4</ele>
        <time>2023-10-01T08:36:58Z</time>
      </trkpt>
      <trkpt lat="43.39649" lon="2.1323">
        <ele>621.8</ele>
        <time>2023-10-01T08:36:59Z</time>
      </trkpt>
      <trkpt lat="43.39646" lon="2.13228">
        <ele>622.2</ele>
        <time>2023-10-01T08:37:00Z</time>
      </trkpt>
      <trkpt lat="43.39642" lon="2.13224">
        <ele>622.2</ele>
        <time>2023-10-01T08:37:01Z</time>
      </trkpt>
      <trkpt lat="43.39639" lon="2.1322">
        <ele>622.4</ele>
        <time>2023-10-01T08:37:02Z</time>
      </trkpt>
      <trkpt lat="43.39636" lon="2.13214">
        <ele>622.6</ele>
        <time>2023-10-01T08:37:03Z</time>
      </trkpt>
      <trkpt lat="43.39634" lon="2.1321">
        <ele>622.6</ele>
        <time>2023-10-01T08:37:04Z</time>
      </trkpt>
      <trkpt lat="43.39631" lon="2.13205">
        <ele>622.6</ele>
        <time>2023-10-01T08:37:05Z</time>
      </trkpt>
      <trkpt lat="43.39629" lon="2.13201">
        <ele>622.6</ele>
        <time>2023-10-01T08:37:06Z</time>
      </trkpt>
      <trkpt lat="43.39626" lon="2.13197">
        <ele>622.8</ele>
        <time>2023-10-01T08:37:07Z</time>
      </trkpt>
      <trkpt lat="43.39623" lon="2.13193">
        <ele>622.8</ele>
        <time>2023-10-01T08:37:08Z</time>
      </trkpt>
      <trkpt lat="43.39621" lon="2.13189">
        <ele>623</ele>
        <time>2023-10-01T08:37:09Z</time>
      </trkpt>
      <trkpt lat="43.39618" lon="2.13184">
        <ele>623.2</ele>
        <time>2023-10-01T08:37:10Z</time>
      </trkpt>
      <trkpt lat="43.39616" lon="2.1318">
        <ele>623.4</ele>
        <time>2023-10-01T08:37:11Z</time>
      </trkpt>
      <trkpt lat="43.39614" lon="2.13177">
        <ele>623.6</ele>
        <time>2023-10-01T08:37:12Z</time>
      </trkpt>
      <trkpt lat="43.39613" lon="2.13175">
        <ele>623.8</ele>
        <time>2023-10-01T08:37:13Z</time>
      </trkpt>
      <trkpt lat="43.39607" lon="2.13166">
        <ele>623.8</ele>
        <time>2023-10-01T08:37:14Z</time>
      </trkpt>
      <trkpt lat="43.39606" lon="2.13164">
        <ele>624</ele>
        <time>2023-10-01T08:37:15Z</time>
      </trkpt>
      <trkpt lat="43.39605" lon="2.13161">
        <ele>624</ele>
        <time>2023-10-01T08:37:16Z</time>
      </trkpt>
      <trkpt lat="43.39598" lon="2.13154">
        <ele>624</ele>
        <time>2023-10-01T08:37:17Z</time>
      </trkpt>
      <trkpt lat="43.39595" lon="2.1315">
        <ele>624.2</ele>
        <time>2023-10-01T08:37:18Z</time>
      </trkpt>
      <trkpt lat="43.39592" lon="2.13147">
        <ele>624.2</ele>
        <time>2023-10-01T08:37:19Z</time>
      </trkpt>
      <trkpt lat="43.39588" lon="2.13143">
        <ele>624.2</ele>
        <time>2023-10-01T08:37:20Z</time>
      </trkpt>
      <trkpt lat="43.39585" lon="2.1314">
        <ele>624.4</ele>
        <time>2023-10-01T08:37:21Z</time>
      </trkpt>
      <trkpt lat="43.39581" lon="2.13138">
        <ele>624.4</ele>
        <time>2023-10-01T08:37:22Z</time>
      </trkpt>
      <trkpt lat="43.39578" lon="2.13135">
        <ele>624.6</ele>
        <time>2023-10-01T08:37:23Z</time>
      </trkpt>
      <trkpt lat="43.39574" lon="2.13133">
        <ele>624.6</ele>
        <time>2023-10-01T08:37:24Z</time>
      </trkpt>
      <trkpt lat="43.3957" lon="2.13131">
        <ele>624.6</ele>
        <time>2023-10-01T08:37:25Z</time>
      </trkpt>
      <trkpt lat="43.39566" lon="2.13129">
        <ele>624.8</ele>
        <time>2023-10-01T08:37:26Z</time>
      </trkpt>
      <trkpt lat="43.39563" lon="2.13127">
        <ele>625</ele>
        <time>2023-10-01T08:37:27Z</time>
      </trkpt>
      <trkpt lat="43.3956" lon="2.13125">
        <ele>625.2</ele>
        <time>2023-10-01T08:37:28Z</time>
      </trkpt>
      <trkpt lat="43.39557" lon="2.13122">
        <ele>625.2</ele>
        <time>2023-10-01T08:37:29Z</time>
      </trkpt>
      <trkpt lat="43.39554" lon="2.1312">
        <ele>625.4</ele>
        <time>2023-10-01T08:37:30Z</time>
      </trkpt>
      <trkpt lat="43.39551" lon="2.13118">
        <ele>625.6</ele>
        <time>2023-10-01T08:37:31Z</time>
      </trkpt>
      <trkpt lat="43.39549" lon="2.13114">
        <ele>625.8</ele>
        <time>2023-10-01T08:37:32Z</time>
      </trkpt>
      <trkpt lat="43.39546" lon="2.13111">
        <ele>626</ele>
        <time>2023-10-01T08:37:33Z</time>
      </trkpt>
      <trkpt lat="43.39543" lon="2.13107">
        <ele>626.2</ele>
        <time>2023-10-01T08:37:34Z</time>
      </trkpt>
      <trkpt lat="43.39541" lon="2.13103">
        <ele>626.4</ele>
        <time>2023-10-01T08:37:35Z</time>
      </trkpt>
      <trkpt lat="43.39539" lon="2.13099">
        <ele>626.6</ele>
        <time>2023-10-01T08:37:36Z</time>
      </trkpt>
      <trkpt lat="43.39538" lon="2.13094">
        <ele>626.8</ele>
        <time>2023-10-01T08:37:37Z</time>
      </trkpt>
      <trkpt lat="43.39537" lon="2.13089">
        <ele>627.4</ele>
        <time>2023-10-01T08:37:38Z</time>
      </trkpt>
      <trkpt lat="43.39537" lon="2.13084">
        <ele>627.8</ele>
        <time>2023-10-01T08:37:39Z</time>
      </trkpt>
      <trkpt lat="43.39537" lon="2.13079">
        <ele>628</ele>
        <time>2023-10-01T08:37:40Z</time>
      </trkpt>
      <trkpt lat="43.39537" lon="2.13073">
        <ele>628.2</ele>
        <time>2023-10-01T08:37:41Z</time>
      </trkpt>
      <trkpt lat="43.39538" lon="2.13068">
        <ele>628.4</ele>
        <time>2023-10-01T08:37:42Z</time>
      </trkpt>
      <trkpt lat="43.39538" lon="2.13064">
        <ele>628.8</ele>
        <time>2023-10-01T08:37:43Z</time>
      </trkpt>
      <trkpt lat="43.39539" lon="2.13059">
        <ele>628.8</ele>
        <time>2023-10-01T08:37:44Z</time>
      </trkpt>
      <trkpt lat="43.39541" lon="2.13055">
        <ele>629</ele>
        <time>2023-10-01T08:37:45Z</time>
      </trkpt>
      <trkpt lat="43.39542" lon="2.1305">
        <ele>629.2</ele>
        <time>2023-10-01T08:37:46Z</time>
      </trkpt>
      <trkpt lat="43.39544" lon="2.13046">
        <ele>629.4</ele>
        <time>2023-10-01T08:37:47Z</time>
      </trkpt>
      <trkpt lat="43.39545" lon="2.13043">
        <ele>629.6</ele>
        <time>2023-10-01T08:37:48Z</time>
      </trkpt>
      <trkpt lat="43.39548" lon="2.13041">
        <ele>630</ele>
        <time>2023-10-01T08:37:49Z</time>
      </trkpt>
      <trkpt lat="43.3955" lon="2.13038">
        <ele>630</ele>
        <time>2023-10-01T08:37:50Z</time>
      </trkpt>
      <trkpt lat="43.39553" lon="2.13035">
        <ele>630.2</ele>
        <time>2023-10-01T08:37:51Z</time>
      </trkpt>
      <trkpt lat="43.39556" lon="2.13032">
        <ele>630.6</ele>
        <time>2023-10-01T08:37:52Z</time>
      </trkpt>
      <trkpt lat="43.39559" lon="2.13029">
        <ele>630.6</ele>
        <time>2023-10-01T08:37:53Z</time>
      </trkpt>
      <trkpt lat="43.39562" lon="2.13025">
        <ele>630.8</ele>
        <time>2023-10-01T08:37:54Z</time>
      </trkpt>
      <trkpt lat="43.39565" lon="2.13021">
        <ele>631.2</ele>
        <time>2023-10-01T08:37:55Z</time>
      </trkpt>
      <trkpt lat="43.39568" lon="2.13017">
        <ele>631.4</ele>
        <time>2023-10-01T08:37:56Z</time>
      </trkpt>
      <trkpt lat="43.3957" lon="2.13014">
        <ele>631.8</ele>
        <time>2023-10-01T08:37:57Z</time>
      </trkpt>
      <trkpt lat="43.39573" lon="2.1301">
        <ele>632.2</ele>
        <time>2023-10-01T08:37:58Z</time>
      </trkpt>
      <trkpt lat="43.39575" lon="2.13007">
        <ele>632.6</ele>
        <time>2023-10-01T08:37:59Z</time>
      </trkpt>
      <trkpt lat="43.39577" lon="2.13003">
        <ele>632.6</ele>
        <time>2023-10-01T08:38:00Z</time>
      </trkpt>
      <trkpt lat="43.3958" lon="2.13">
        <ele>633.2</ele>
        <time>2023-10-01T08:38:01Z</time>
      </trkpt>
      <trkpt lat="43.39583" lon="2.12997">
        <ele>634</ele>
        <time>2023-10-01T08:38:02Z</time>
      </trkpt>
      <trkpt lat="43.39585" lon="2.12993">
        <ele>634.2</ele>
        <time>2023-10-01T08:38:03Z</time>
      </trkpt>
      <trkpt lat="43.39589" lon="2.1299">
        <ele>635.2</ele>
        <time>2023-10-01T08:38:04Z</time>
      </trkpt>
      <trkpt lat="43.39591" lon="2.12986">
        <ele>635.4</ele>
        <time>2023-10-01T08:38:05Z</time>
      </trkpt>
      <trkpt lat="43.39594" lon="2.12981">
        <ele>635.8</ele>
        <time>2023-10-01T08:38:06Z</time>
      </trkpt>
      <trkpt lat="43.39598" lon="2.12976">
        <ele>636</ele>
        <time>2023-10-01T08:38:07Z</time>
      </trkpt>
      <trkpt lat="43.39602" lon="2.12971">
        <ele>636.4</ele>
        <time>2023-10-01T08:38:08Z</time>
      </trkpt>
      <trkpt lat="43.39605" lon="2.12966">
        <ele>636.4</ele>
        <time>2023-10-01T08:38:09Z</time>
      </trkpt>
      <trkpt lat="43.39608" lon="2.12961">
        <ele>636.6</ele>
        <time>2023-10-01T08:38:10Z</time>
      </trkpt>
      <trkpt lat="43.39615" lon="2.12952">
        <ele>637</ele>
        <time>2023-10-01T08:38:11Z</time>
      </trkpt>
      <trkpt lat="43.39619" lon="2.12947">
        <ele>637</ele>
        <time>2023-10-01T08:38:12Z</time>
      </trkpt>
      <trkpt lat="43.39623" lon="2.12941">
        <ele>637.4</ele>
        <time>2023-10-01T08:38:13Z</time>
      </trkpt>
      <trkpt lat="43.39629" lon="2.12936">
        <ele>637.4</ele>
        <time>2023-10-01T08:38:14Z</time>
      </trkpt>
      <trkpt lat="43.39633" lon="2.12929">
        <ele>637.4</ele>
        <time>2023-10-01T08:38:15Z</time>
      </trkpt>
      <trkpt lat="43.39636" lon="2.12921">
        <ele>637.8</ele>
        <time>2023-10-01T08:38:16Z</time>
      </trkpt>
      <trkpt lat="43.39638" lon="2.12912">
        <ele>637.8</ele>
        <time>2023-10-01T08:38:17Z</time>
      </trkpt>
      <trkpt lat="43.3964" lon="2.12901">
        <ele>637.8</ele>
        <time>2023-10-01T08:38:18Z</time>
      </trkpt>
      <trkpt lat="43.39641" lon="2.12892">
        <ele>637.4</ele>
        <time>2023-10-01T08:38:19Z</time>
      </trkpt>
      <trkpt lat="43.39643" lon="2.12885">
        <ele>637.4</ele>
        <time>2023-10-01T08:38:20Z</time>
      </trkpt>
      <trkpt lat="43.39645" lon="2.12877">
        <ele>637.2</ele>
        <time>2023-10-01T08:38:21Z</time>
      </trkpt>
      <trkpt lat="43.39648" lon="2.12869">
        <ele>636.8</ele>
        <time>2023-10-01T08:38:22Z</time>
      </trkpt>
      <trkpt lat="43.3965" lon="2.1286">
        <ele>636.8</ele>
        <time>2023-10-01T08:38:23Z</time>
      </trkpt>
      <trkpt lat="43.39651" lon="2.12851">
        <ele>636.4</ele>
        <time>2023-10-01T08:38:24Z</time>
      </trkpt>
      <trkpt lat="43.39653" lon="2.12834">
        <ele>636.2</ele>
        <time>2023-10-01T08:38:25Z</time>
      </trkpt>
      <trkpt lat="43.39654" lon="2.12823">
        <ele>636</ele>
        <time>2023-10-01T08:38:26Z</time>
      </trkpt>
      <trkpt lat="43.39654" lon="2.12811">
        <ele>635.6</ele>
        <time>2023-10-01T08:38:27Z</time>
      </trkpt>
      <trkpt lat="43.39653" lon="2.128">
        <ele>635.6</ele>
        <time>2023-10-01T08:38:28Z</time>
      </trkpt>
      <trkpt lat="43.39653" lon="2.12793">
        <ele>635</ele>
        <time>2023-10-01T08:38:29Z</time>
      </trkpt>
      <trkpt lat="43.39652" lon="2.12786">
        <ele>634.8</ele>
        <time>2023-10-01T08:38:30Z</time>
      </trkpt>
      <trkpt lat="43.39651" lon="2.12778">
        <ele>634.6</ele>
        <time>2023-10-01T08:38:31Z</time>
      </trkpt>
      <trkpt lat="43.39651" lon="2.12771">
        <ele>634.4</ele>
        <time>2023-10-01T08:38:32Z</time>
      </trkpt>
      <trkpt lat="43.39652" lon="2.12765">
        <ele>634.4</ele>
        <time>2023-10-01T08:38:33Z</time>
      </trkpt>
      <trkpt lat="43.39651" lon="2.12756">
        <ele>634.4</ele>
        <time>2023-10-01T08:38:34Z</time>
      </trkpt>
      <trkpt lat="43.39654" lon="2.12736">
        <ele>634.6</ele>
        <time>2023-10-01T08:38:37Z</time>
      </trkpt>
      <trkpt lat="43.39654" lon="2.12733">
        <ele>635.2</ele>
        <time>2023-10-01T08:38:38Z</time>
      </trkpt>
      <trkpt lat="43.39655" lon="2.12729">
        <ele>635.2</ele>
        <time>2023-10-01T08:38:39Z</time>
      </trkpt>
      <trkpt lat="43.39656" lon="2.12724">
        <ele>635.4</ele>
        <time>2023-10-01T08:38:40Z</time>
      </trkpt>
      <trkpt lat="43.39659" lon="2.12715">
        <ele>635.8</ele>
        <time>2023-10-01T08:38:42Z</time>
      </trkpt>
      <trkpt lat="43.3966" lon="2.12711">
        <ele>636.2</ele>
        <time>2023-10-01T08:38:43Z</time>
      </trkpt>
      <trkpt lat="43.39659" lon="2.12708">
        <ele>636.4</ele>
        <time>2023-10-01T08:38:44Z</time>
      </trkpt>
      <trkpt lat="43.39658" lon="2.12703">
        <ele>637</ele>
        <time>2023-10-01T08:38:45Z</time>
      </trkpt>
      <trkpt lat="43.39659" lon="2.12698">
        <ele>637</ele>
        <time>2023-10-01T08:38:46Z</time>
      </trkpt>
      <trkpt lat="43.3966" lon="2.12692">
        <ele>637.4</ele>
        <time>2023-10-01T08:38:47Z</time>
      </trkpt>
      <trkpt lat="43.3966" lon="2.12687">
        <ele>637.4</ele>
        <time>2023-10-01T08:38:48Z</time>
      </trkpt>
      <trkpt lat="43.39659" lon="2.12679">
        <ele>637.8</ele>
        <time>2023-10-01T08:38:50Z</time>
      </trkpt>
      <trkpt lat="43.39655" lon="2.12666">
        <ele>638.2</ele>
        <time>2023-10-01T08:38:53Z</time>
      </trkpt>
      <trkpt lat="43.39652" lon="2.12662">
        <ele>638.4</ele>
        <time>2023-10-01T08:38:54Z</time>
      </trkpt>
      <trkpt lat="43.3965" lon="2.12657">
        <ele>638.6</ele>
        <time>2023-10-01T08:38:55Z</time>
      </trkpt>
      <trkpt lat="43.39646" lon="2.12652">
        <ele>638.8</ele>
        <time>2023-10-01T08:38:56Z</time>
      </trkpt>
      <trkpt lat="43.39643" lon="2.12648">
        <ele>639.2</ele>
        <time>2023-10-01T08:38:57Z</time>
      </trkpt>
      <trkpt lat="43.3964" lon="2.12643">
        <ele>639.2</ele>
        <time>2023-10-01T08:38:58Z</time>
      </trkpt>
      <trkpt lat="43.39637" lon="2.1264">
        <ele>639.2</ele>
        <time>2023-10-01T08:38:59Z</time>
      </trkpt>
      <trkpt lat="43.39633" lon="2.12636">
        <ele>639.2</ele>
        <time>2023-10-01T08:39:00Z</time>
      </trkpt>
      <trkpt lat="43.3963" lon="2.12633">
        <ele>639.4</ele>
        <time>2023-10-01T08:39:01Z</time>
      </trkpt>
      <trkpt lat="43.39626" lon="2.1263">
        <ele>639.4</ele>
        <time>2023-10-01T08:39:02Z</time>
      </trkpt>
      <trkpt lat="43.39619" lon="2.12624">
        <ele>639.4</ele>
        <time>2023-10-01T08:39:03Z</time>
      </trkpt>
      <trkpt lat="43.39615" lon="2.1262">
        <ele>639.4</ele>
        <time>2023-10-01T08:39:04Z</time>
      </trkpt>
      <trkpt lat="43.39611" lon="2.12617">
        <ele>639.4</ele>
        <time>2023-10-01T08:39:05Z</time>
      </trkpt>
      <trkpt lat="43.39607" lon="2.12613">
        <ele>639.4</ele>
        <time>2023-10-01T08:39:06Z</time>
      </trkpt>
      <trkpt lat="43.39602" lon="2.12608">
        <ele>639.4</ele>
        <time>2023-10-01T08:39:07Z</time>
      </trkpt>
      <trkpt lat="43.39597" lon="2.12603">
        <ele>639.4</ele>
        <time>2023-10-01T08:39:08Z</time>
      </trkpt>
      <trkpt lat="43.39592" lon="2.12599">
        <ele>639.4</ele>
        <time>2023-10-01T08:39:09Z</time>
      </trkpt>
      <trkpt lat="43.39586" lon="2.12594">
        <ele>639.4</ele>
        <time>2023-10-01T08:39:10Z</time>
      </trkpt>
      <trkpt lat="43.39581" lon="2.12589">
        <ele>639.4</ele>
        <time>2023-10-01T08:39:11Z</time>
      </trkpt>
      <trkpt lat="43.39577" lon="2.12583">
        <ele>639.2</ele>
        <time>2023-10-01T08:39:12Z</time>
      </trkpt>
      <trkpt lat="43.39573" lon="2.12575">
        <ele>639.2</ele>
        <time>2023-10-01T08:39:13Z</time>
      </trkpt>
      <trkpt lat="43.39568" lon="2.12568">
        <ele>639.2</ele>
        <time>2023-10-01T08:39:14Z</time>
      </trkpt>
      <trkpt lat="43.39555" lon="2.1255">
        <ele>639.2</ele>
        <time>2023-10-01T08:39:18Z</time>
      </trkpt>
      <trkpt lat="43.39546" lon="2.12538">
        <ele>639.2</ele>
        <time>2023-10-01T08:39:19Z</time>
      </trkpt>
      <trkpt lat="43.3954" lon="2.12532">
        <ele>639.2</ele>
        <time>2023-10-01T08:39:20Z</time>
      </trkpt>
      <trkpt lat="43.39518" lon="2.12511">
        <ele>639.6</ele>
        <time>2023-10-01T08:39:25Z</time>
      </trkpt>
      <trkpt lat="43.39514" lon="2.12506">
        <ele>639.6</ele>
        <time>2023-10-01T08:39:26Z</time>
      </trkpt>
      <trkpt lat="43.3951" lon="2.12501">
        <ele>639.8</ele>
        <time>2023-10-01T08:39:27Z</time>
      </trkpt>
      <trkpt lat="43.39505" lon="2.12497">
        <ele>639.8</ele>
        <time>2023-10-01T08:39:28Z</time>
      </trkpt>
      <trkpt lat="43.39501" lon="2.12493">
        <ele>640.2</ele>
        <time>2023-10-01T08:39:29Z</time>
      </trkpt>
      <trkpt lat="43.39496" lon="2.1249">
        <ele>640.4</ele>
        <time>2023-10-01T08:39:30Z</time>
      </trkpt>
      <trkpt lat="43.39491" lon="2.12486">
        <ele>640.6</ele>
        <time>2023-10-01T08:39:31Z</time>
      </trkpt>
      <trkpt lat="43.39487" lon="2.12482">
        <ele>640.6</ele>
        <time>2023-10-01T08:39:32Z</time>
      </trkpt>
      <trkpt lat="43.39483" lon="2.12479">
        <ele>640.8</ele>
        <time>2023-10-01T08:39:33Z</time>
      </trkpt>
      <trkpt lat="43.39475" lon="2.12471">
        <ele>640.8</ele>
        <time>2023-10-01T08:39:35Z</time>
      </trkpt>
      <trkpt lat="43.39472" lon="2.12466">
        <ele>640.8</ele>
        <time>2023-10-01T08:39:36Z</time>
      </trkpt>
      <trkpt lat="43.39468" lon="2.1246">
        <ele>640.8</ele>
        <time>2023-10-01T08:39:37Z</time>
      </trkpt>
      <trkpt lat="43.39467" lon="2.12455">
        <ele>640.8</ele>
        <time>2023-10-01T08:39:38Z</time>
      </trkpt>
      <trkpt lat="43.39465" lon="2.12451">
        <ele>640.8</ele>
        <time>2023-10-01T08:39:39Z</time>
      </trkpt>
      <trkpt lat="43.39458" lon="2.12432">
        <ele>641</ele>
        <time>2023-10-01T08:39:41Z</time>
      </trkpt>
      <trkpt lat="43.39457" lon="2.12425">
        <ele>641</ele>
        <time>2023-10-01T08:39:42Z</time>
      </trkpt>
      <trkpt lat="43.39456" lon="2.12419">
        <ele>641.2</ele>
        <time>2023-10-01T08:39:43Z</time>
      </trkpt>
      <trkpt lat="43.39455" lon="2.12412">
        <ele>641.2</ele>
        <time>2023-10-01T08:39:44Z</time>
      </trkpt>
      <trkpt lat="43.39455" lon="2.12405">
        <ele>641.2</ele>
        <time>2023-10-01T08:39:45Z</time>
      </trkpt>
      <trkpt lat="43.39455" lon="2.12399">
        <ele>641.4</ele>
        <time>2023-10-01T08:39:46Z</time>
      </trkpt>
      <trkpt lat="43.39454" lon="2.12393">
        <ele>641.6</ele>
        <time>2023-10-01T08:39:47Z</time>
      </trkpt>
      <trkpt lat="43.39453" lon="2.12387">
        <ele>641.6</ele>
        <time>2023-10-01T08:39:48Z</time>
      </trkpt>
      <trkpt lat="43.39451" lon="2.12384">
        <ele>641.8</ele>
        <time>2023-10-01T08:39:49Z</time>
      </trkpt>
      <trkpt lat="43.39449" lon="2.12381">
        <ele>642</ele>
        <time>2023-10-01T08:39:50Z</time>
      </trkpt>
      <trkpt lat="43.39447" lon="2.12379">
        <ele>642</ele>
        <time>2023-10-01T08:39:51Z</time>
      </trkpt>
      <trkpt lat="43.39444" lon="2.12377">
        <ele>642.2</ele>
        <time>2023-10-01T08:39:52Z</time>
      </trkpt>
      <trkpt lat="43.39441" lon="2.12374">
        <ele>642.2</ele>
        <time>2023-10-01T08:39:53Z</time>
      </trkpt>
      <trkpt lat="43.39439" lon="2.12372">
        <ele>642.4</ele>
        <time>2023-10-01T08:39:54Z</time>
      </trkpt>
      <trkpt lat="43.39438" lon="2.12369">
        <ele>642.6</ele>
        <time>2023-10-01T08:39:55Z</time>
      </trkpt>
      <trkpt lat="43.39438" lon="2.12367">
        <ele>642.8</ele>
        <time>2023-10-01T08:39:56Z</time>
      </trkpt>
      <trkpt lat="43.39438" lon="2.12362">
        <ele>642.8</ele>
        <time>2023-10-01T08:39:57Z</time>
      </trkpt>
      <trkpt lat="43.39438" lon="2.12359">
        <ele>643</ele>
        <time>2023-10-01T08:39:58Z</time>
      </trkpt>
      <trkpt lat="43.39438" lon="2.12347">
        <ele>643.2</ele>
        <time>2023-10-01T08:40:01Z</time>
      </trkpt>
      <trkpt lat="43.39436" lon="2.12342">
        <ele>643.4</ele>
        <time>2023-10-01T08:40:02Z</time>
      </trkpt>
      <trkpt lat="43.39434" lon="2.12336">
        <ele>643.4</ele>
        <time>2023-10-01T08:40:03Z</time>
      </trkpt>
      <trkpt lat="43.39433" lon="2.1233">
        <ele>643.6</ele>
        <time>2023-10-01T08:40:04Z</time>
      </trkpt>
      <trkpt lat="43.39432" lon="2.12323">
        <ele>643.6</ele>
        <time>2023-10-01T08:40:05Z</time>
      </trkpt>
      <trkpt lat="43.3943" lon="2.12319">
        <ele>644</ele>
        <time>2023-10-01T08:40:06Z</time>
      </trkpt>
      <trkpt lat="43.39429" lon="2.12314">
        <ele>644.4</ele>
        <time>2023-10-01T08:40:07Z</time>
      </trkpt>
      <trkpt lat="43.39429" lon="2.12309">
        <ele>644.6</ele>
        <time>2023-10-01T08:40:08Z</time>
      </trkpt>
      <trkpt lat="43.39428" lon="2.12303">
        <ele>644.8</ele>
        <time>2023-10-01T08:40:09Z</time>
      </trkpt>
      <trkpt lat="43.39428" lon="2.12298">
        <ele>645.2</ele>
        <time>2023-10-01T08:40:10Z</time>
      </trkpt>
      <trkpt lat="43.39427" lon="2.12292">
        <ele>645.4</ele>
        <time>2023-10-01T08:40:11Z</time>
      </trkpt>
      <trkpt lat="43.39427" lon="2.12286">
        <ele>646</ele>
        <time>2023-10-01T08:40:12Z</time>
      </trkpt>
      <trkpt lat="43.39426" lon="2.12281">
        <ele>646.2</ele>
        <time>2023-10-01T08:40:13Z</time>
      </trkpt>
      <trkpt lat="43.39426" lon="2.12276">
        <ele>646.4</ele>
        <time>2023-10-01T08:40:14Z</time>
      </trkpt>
      <trkpt lat="43.39425" lon="2.1227">
        <ele>646.8</ele>
        <time>2023-10-01T08:40:15Z</time>
      </trkpt>
      <trkpt lat="43.39426" lon="2.12264">
        <ele>647.2</ele>
        <time>2023-10-01T08:40:16Z</time>
      </trkpt>
      <trkpt lat="43.39425" lon="2.1226">
        <ele>647.8</ele>
        <time>2023-10-01T08:40:17Z</time>
      </trkpt>
      <trkpt lat="43.39425" lon="2.12255">
        <ele>648</ele>
        <time>2023-10-01T08:40:18Z</time>
      </trkpt>
      <trkpt lat="43.39424" lon="2.12249">
        <ele>648.6</ele>
        <time>2023-10-01T08:40:19Z</time>
      </trkpt>
      <trkpt lat="43.39423" lon="2.12244">
        <ele>649.4</ele>
        <time>2023-10-01T08:40:20Z</time>
      </trkpt>
      <trkpt lat="43.39423" lon="2.12239">
        <ele>649.6</ele>
        <time>2023-10-01T08:40:21Z</time>
      </trkpt>
      <trkpt lat="43.39423" lon="2.12235">
        <ele>650.6</ele>
        <time>2023-10-01T08:40:22Z</time>
      </trkpt>
      <trkpt lat="43.39423" lon="2.12229">
        <ele>651</ele>
        <time>2023-10-01T08:40:23Z</time>
      </trkpt>
      <trkpt lat="43.39423" lon="2.12223">
        <ele>651.6</ele>
        <time>2023-10-01T08:40:24Z</time>
      </trkpt>
      <trkpt lat="43.39422" lon="2.12218">
        <ele>652</ele>
        <time>2023-10-01T08:40:25Z</time>
      </trkpt>
      <trkpt lat="43.39421" lon="2.12214">
        <ele>652.4</ele>
        <time>2023-10-01T08:40:26Z</time>
      </trkpt>
      <trkpt lat="43.39419" lon="2.12214">
        <ele>652.8</ele>
        <time>2023-10-01T08:40:27Z</time>
      </trkpt>
      <trkpt lat="43.39418" lon="2.12214">
        <ele>653</ele>
        <time>2023-10-01T08:40:28Z</time>
      </trkpt>
      <trkpt lat="43.39415" lon="2.12213">
        <ele>653.6</ele>
        <time>2023-10-01T08:40:29Z</time>
      </trkpt>
      <trkpt lat="43.39414" lon="2.12211">
        <ele>654</ele>
        <time>2023-10-01T08:40:30Z</time>
      </trkpt>
      <trkpt lat="43.39413" lon="2.12209">
        <ele>654.2</ele>
        <time>2023-10-01T08:40:31Z</time>
      </trkpt>
      <trkpt lat="43.39413" lon="2.12206">
        <ele>654.4</ele>
        <time>2023-10-01T08:40:32Z</time>
      </trkpt>
      <trkpt lat="43.39412" lon="2.12202">
        <ele>654.6</ele>
        <time>2023-10-01T08:40:33Z</time>
      </trkpt>
      <trkpt lat="43.39412" lon="2.12199">
        <ele>654.8</ele>
        <time>2023-10-01T08:40:34Z</time>
      </trkpt>
      <trkpt lat="43.39413" lon="2.12194">
        <ele>654.8</ele>
        <time>2023-10-01T08:40:35Z</time>
      </trkpt>
      <trkpt lat="43.39412" lon="2.1219">
        <ele>655</ele>
        <time>2023-10-01T08:40:36Z</time>
      </trkpt>
      <trkpt lat="43.3941" lon="2.12187">
        <ele>655.2</ele>
        <time>2023-10-01T08:40:37Z</time>
      </trkpt>
      <trkpt lat="43.39408" lon="2.12185">
        <ele>655.2</ele>
        <time>2023-10-01T08:40:38Z</time>
      </trkpt>
      <trkpt lat="43.39407" lon="2.12183">
        <ele>655.2</ele>
        <time>2023-10-01T08:40:39Z</time>
      </trkpt>
      <trkpt lat="43.39406" lon="2.12177">
        <ele>655.4</ele>
        <time>2023-10-01T08:40:40Z</time>
      </trkpt>
      <trkpt lat="43.39406" lon="2.12175">
        <ele>655.6</ele>
        <time>2023-10-01T08:40:41Z</time>
      </trkpt>
      <trkpt lat="43.39405" lon="2.12172">
        <ele>655.6</ele>
        <time>2023-10-01T08:40:42Z</time>
      </trkpt>
      <trkpt lat="43.39405" lon="2.12169">
        <ele>655.8</ele>
        <time>2023-10-01T08:40:43Z</time>
      </trkpt>
      <trkpt lat="43.39404" lon="2.12167">
        <ele>655.8</ele>
        <time>2023-10-01T08:40:44Z</time>
      </trkpt>
      <trkpt lat="43.39403" lon="2.12164">
        <ele>655.8</ele>
        <time>2023-10-01T08:40:45Z</time>
      </trkpt>
      <trkpt lat="43.39403" lon="2.1216">
        <ele>656</ele>
        <time>2023-10-01T08:40:46Z</time>
      </trkpt>
      <trkpt lat="43.39403" lon="2.12158">
        <ele>656</ele>
        <time>2023-10-01T08:40:47Z</time>
      </trkpt>
      <trkpt lat="43.39404" lon="2.12157">
        <ele>656</ele>
        <time>2023-10-01T08:40:48Z</time>
      </trkpt>
      <trkpt lat="43.39405" lon="2.12155">
        <ele>656.2</ele>
        <time>2023-10-01T08:40:49Z</time>
      </trkpt>
      <trkpt lat="43.39407" lon="2.12152">
        <ele>656.4</ele>
        <time>2023-10-01T08:40:50Z</time>
      </trkpt>
      <trkpt lat="43.3941" lon="2.12148">
        <ele>656.6</ele>
        <time>2023-10-01T08:40:51Z</time>
      </trkpt>
      <trkpt lat="43.39413" lon="2.12145">
        <ele>656.6</ele>
        <time>2023-10-01T08:40:52Z</time>
      </trkpt>
      <trkpt lat="43.39415" lon="2.12142">
        <ele>656.6</ele>
        <time>2023-10-01T08:40:53Z</time>
      </trkpt>
      <trkpt lat="43.39417" lon="2.12139">
        <ele>657</ele>
        <time>2023-10-01T08:40:54Z</time>
      </trkpt>
      <trkpt lat="43.39417" lon="2.12136">
        <ele>657</ele>
        <time>2023-10-01T08:40:55Z</time>
      </trkpt>
      <trkpt lat="43.39418" lon="2.12131">
        <ele>657.2</ele>
        <time>2023-10-01T08:40:56Z</time>
      </trkpt>
      <trkpt lat="43.39419" lon="2.12125">
        <ele>657.4</ele>
        <time>2023-10-01T08:40:57Z</time>
      </trkpt>
      <trkpt lat="43.39421" lon="2.1212">
        <ele>657.6</ele>
        <time>2023-10-01T08:40:58Z</time>
      </trkpt>
      <trkpt lat="43.39422" lon="2.12116">
        <ele>657.8</ele>
        <time>2023-10-01T08:40:59Z</time>
      </trkpt>
      <trkpt lat="43.39425" lon="2.12108">
        <ele>658</ele>
        <time>2023-10-01T08:41:00Z</time>
      </trkpt>
      <trkpt lat="43.39426" lon="2.121">
        <ele>658.2</ele>
        <time>2023-10-01T08:41:01Z</time>
      </trkpt>
      <trkpt lat="43.39428" lon="2.12092">
        <ele>658.4</ele>
        <time>2023-10-01T08:41:02Z</time>
      </trkpt>
      <trkpt lat="43.3943" lon="2.12086">
        <ele>658.6</ele>
        <time>2023-10-01T08:41:03Z</time>
      </trkpt>
      <trkpt lat="43.39432" lon="2.12081">
        <ele>658.8</ele>
        <time>2023-10-01T08:41:04Z</time>
      </trkpt>
      <trkpt lat="43.39435" lon="2.12078">
        <ele>658.8</ele>
        <time>2023-10-01T08:41:05Z</time>
      </trkpt>
      <trkpt lat="43.39437" lon="2.12075">
        <ele>659</ele>
        <time>2023-10-01T08:41:06Z</time>
      </trkpt>
      <trkpt lat="43.39439" lon="2.12075">
        <ele>659</ele>
        <time>2023-10-01T08:41:07Z</time>
      </trkpt>
      <trkpt lat="43.39442" lon="2.12075">
        <ele>659</ele>
        <time>2023-10-01T08:41:08Z</time>
      </trkpt>
      <trkpt lat="43.39443" lon="2.12073">
        <ele>659.2</ele>
        <time>2023-10-01T08:41:09Z</time>
      </trkpt>
      <trkpt lat="43.39444" lon="2.12072">
        <ele>659.8</ele>
        <time>2023-10-01T08:41:10Z</time>
      </trkpt>
      <trkpt lat="43.39445" lon="2.12071">
        <ele>660</ele>
        <time>2023-10-01T08:41:11Z</time>
      </trkpt>
      <trkpt lat="43.39445" lon="2.1207">
        <ele>660.2</ele>
        <time>2023-10-01T08:41:12Z</time>
      </trkpt>
      <trkpt lat="43.39446" lon="2.12067">
        <ele>660.4</ele>
        <time>2023-10-01T08:41:13Z</time>
      </trkpt>
      <trkpt lat="43.39448" lon="2.12066">
        <ele>660.6</ele>
        <time>2023-10-01T08:41:14Z</time>
      </trkpt>
      <trkpt lat="43.39452" lon="2.12065">
        <ele>660.8</ele>
        <time>2023-10-01T08:41:15Z</time>
      </trkpt>
      <trkpt lat="43.39453" lon="2.12062">
        <ele>661</ele>
        <time>2023-10-01T08:41:16Z</time>
      </trkpt>
      <trkpt lat="43.39452" lon="2.1206">
        <ele>661.2</ele>
        <time>2023-10-01T08:41:17Z</time>
      </trkpt>
      <trkpt lat="43.3945" lon="2.12058">
        <ele>661.4</ele>
        <time>2023-10-01T08:41:18Z</time>
      </trkpt>
      <trkpt lat="43.39447" lon="2.12056">
        <ele>661.4</ele>
        <time>2023-10-01T08:41:19Z</time>
      </trkpt>
      <trkpt lat="43.39444" lon="2.12054">
        <ele>661.6</ele>
        <time>2023-10-01T08:41:20Z</time>
      </trkpt>
      <trkpt lat="43.39441" lon="2.12052">
        <ele>661.6</ele>
        <time>2023-10-01T08:41:21Z</time>
      </trkpt>
      <trkpt lat="43.39439" lon="2.1205">
        <ele>661.6</ele>
        <time>2023-10-01T08:41:22Z</time>
      </trkpt>
      <trkpt lat="43.39438" lon="2.12047">
        <ele>661.4</ele>
        <time>2023-10-01T08:41:23Z</time>
      </trkpt>
      <trkpt lat="43.39437" lon="2.12043">
        <ele>661</ele>
        <time>2023-10-01T08:41:24Z</time>
      </trkpt>
      <trkpt lat="43.39434" lon="2.12038">
        <ele>661</ele>
        <time>2023-10-01T08:41:25Z</time>
      </trkpt>
      <trkpt lat="43.39429" lon="2.12031">
        <ele>660.6</ele>
        <time>2023-10-01T08:41:26Z</time>
      </trkpt>
      <trkpt lat="43.39422" lon="2.12021">
        <ele>660.2</ele>
        <time>2023-10-01T08:41:27Z</time>
      </trkpt>
      <trkpt lat="43.39418" lon="2.12018">
        <ele>660.2</ele>
        <time>2023-10-01T08:41:28Z</time>
      </trkpt>
      <trkpt lat="43.39413" lon="2.12013">
        <ele>660</ele>
        <time>2023-10-01T08:41:29Z</time>
      </trkpt>
      <trkpt lat="43.39409" lon="2.12009">
        <ele>659.8</ele>
        <time>2023-10-01T08:41:30Z</time>
      </trkpt>
      <trkpt lat="43.39404" lon="2.12004">
        <ele>659.4</ele>
        <time>2023-10-01T08:41:31Z</time>
      </trkpt>
      <trkpt lat="43.39392" lon="2.11991">
        <ele>658.6</ele>
        <time>2023-10-01T08:41:34Z</time>
      </trkpt>
      <trkpt lat="43.3939" lon="2.11987">
        <ele>658.2</ele>
        <time>2023-10-01T08:41:35Z</time>
      </trkpt>
      <trkpt lat="43.39391" lon="2.11983">
        <ele>658</ele>
        <time>2023-10-01T08:41:36Z</time>
      </trkpt>
      <trkpt lat="43.39391" lon="2.11979">
        <ele>657.6</ele>
        <time>2023-10-01T08:41:37Z</time>
      </trkpt>
      <trkpt lat="43.39394" lon="2.11975">
        <ele>656.8</ele>
        <time>2023-10-01T08:41:38Z</time>
      </trkpt>
      <trkpt lat="43.39398" lon="2.11972">
        <ele>656.6</ele>
        <time>2023-10-01T08:41:39Z</time>
      </trkpt>
      <trkpt lat="43.39404" lon="2.11964">
        <ele>655.4</ele>
        <time>2023-10-01T08:41:41Z</time>
      </trkpt>
      <trkpt lat="43.39408" lon="2.11959">
        <ele>654.6</ele>
        <time>2023-10-01T08:41:42Z</time>
      </trkpt>
      <trkpt lat="43.39411" lon="2.11955">
        <ele>654</ele>
        <time>2023-10-01T08:41:43Z</time>
      </trkpt>
      <trkpt lat="43.3942" lon="2.11943">
        <ele>653.8</ele>
        <time>2023-10-01T08:41:45Z</time>
      </trkpt>
      <trkpt lat="43.3943" lon="2.1193">
        <ele>652.8</ele>
        <time>2023-10-01T08:41:47Z</time>
      </trkpt>
      <trkpt lat="43.39434" lon="2.11921">
        <ele>651.4</ele>
        <time>2023-10-01T08:41:49Z</time>
      </trkpt>
      <trkpt lat="43.39435" lon="2.1192">
        <ele>651</ele>
        <time>2023-10-01T08:41:50Z</time>
      </trkpt>
      <trkpt lat="43.39435" lon="2.1192">
        <ele>650.8</ele>
        <time>2023-10-01T08:41:51Z</time>
      </trkpt>
      <trkpt lat="43.39431" lon="2.11919">
        <ele>649.8</ele>
        <time>2023-10-01T08:48:36Z</time>
      </trkpt>
      <trkpt lat="43.39426" lon="2.11919">
        <ele>649.6</ele>
        <time>2023-10-01T08:48:38Z</time>
      </trkpt>
      <trkpt lat="43.39419" lon="2.1192">
        <ele>649.4</ele>
        <time>2023-10-01T08:48:41Z</time>
      </trkpt>
      <trkpt lat="43.39417" lon="2.1192">
        <ele>649.4</ele>
        <time>2023-10-01T08:48:42Z</time>
      </trkpt>
      <trkpt lat="43.39415" lon="2.11919">
        <ele>649.4</ele>
        <time>2023-10-01T08:48:43Z</time>
      </trkpt>
      <trkpt lat="43.39412" lon="2.11918">
        <ele>649.4</ele>
        <time>2023-10-01T08:48:45Z</time>
      </trkpt>
      <trkpt lat="43.39411" lon="2.11917">
        <ele>649.2</ele>
        <time>2023-10-01T08:48:46Z</time>
      </trkpt>
      <trkpt lat="43.39409" lon="2.11915">
        <ele>649.2</ele>
        <time>2023-10-01T08:48:47Z</time>
      </trkpt>
      <trkpt lat="43.39407" lon="2.11913">
        <ele>649.2</ele>
        <time>2023-10-01T08:48:48Z</time>
      </trkpt>
      <trkpt lat="43.394" lon="2.11907">
        <ele>648.8</ele>
        <time>2023-10-01T08:48:51Z</time>
      </trkpt>
      <trkpt lat="43.39388" lon="2.11901">
        <ele>648.8</ele>
        <time>2023-10-01T08:48:54Z</time>
      </trkpt>
      <trkpt lat="43.39385" lon="2.11899">
        <ele>648.6</ele>
        <time>2023-10-01T08:48:55Z</time>
      </trkpt>
      <trkpt lat="43.39376" lon="2.1189">
        <ele>648.4</ele>
        <time>2023-10-01T08:48:57Z</time>
      </trkpt>
      <trkpt lat="43.39372" lon="2.11884">
        <ele>648.2</ele>
        <time>2023-10-01T08:48:58Z</time>
      </trkpt>
      <trkpt lat="43.39367" lon="2.11881">
        <ele>648.2</ele>
        <time>2023-10-01T08:48:59Z</time>
      </trkpt>
      <trkpt lat="43.39363" lon="2.1188">
        <ele>647.8</ele>
        <time>2023-10-01T08:49:00Z</time>
      </trkpt>
      <trkpt lat="43.39359" lon="2.11878">
        <ele>647.2</ele>
        <time>2023-10-01T08:49:01Z</time>
      </trkpt>
      <trkpt lat="43.39343" lon="2.1187">
        <ele>645.6</ele>
        <time>2023-10-01T08:49:05Z</time>
      </trkpt>
      <trkpt lat="43.39341" lon="2.11866">
        <ele>645.6</ele>
        <time>2023-10-01T08:49:06Z</time>
      </trkpt>
      <trkpt lat="43.39342" lon="2.11863">
        <ele>645</ele>
        <time>2023-10-01T08:49:07Z</time>
      </trkpt>
      <trkpt lat="43.39343" lon="2.11859">
        <ele>644.6</ele>
        <time>2023-10-01T08:49:08Z</time>
      </trkpt>
      <trkpt lat="43.39346" lon="2.11852">
        <ele>644.2</ele>
        <time>2023-10-01T08:49:10Z</time>
      </trkpt>
      <trkpt lat="43.39349" lon="2.11847">
        <ele>644</ele>
        <time>2023-10-01T08:49:11Z</time>
      </trkpt>
      <trkpt lat="43.39352" lon="2.11841">
        <ele>643.6</ele>
        <time>2023-10-01T08:49:12Z</time>
      </trkpt>
      <trkpt lat="43.39354" lon="2.11835">
        <ele>643.6</ele>
        <time>2023-10-01T08:49:13Z</time>
      </trkpt>
      <trkpt lat="43.39356" lon="2.1183">
        <ele>642.8</ele>
        <time>2023-10-01T08:49:14Z</time>
      </trkpt>
      <trkpt lat="43.39356" lon="2.11824">
        <ele>642.2</ele>
        <time>2023-10-01T08:49:15Z</time>
      </trkpt>
      <trkpt lat="43.39355" lon="2.11819">
        <ele>641.6</ele>
        <time>2023-10-01T08:49:16Z</time>
      </trkpt>
      <trkpt lat="43.39351" lon="2.11813">
        <ele>640</ele>
        <time>2023-10-01T08:49:17Z</time>
      </trkpt>
      <trkpt lat="43.39344" lon="2.11807">
        <ele>639</ele>
        <time>2023-10-01T08:49:18Z</time>
      </trkpt>
      <trkpt lat="43.39335" lon="2.118">
        <ele>637</ele>
        <time>2023-10-01T08:49:19Z</time>
      </trkpt>
      <trkpt lat="43.39317" lon="2.11785">
        <ele>635.4</ele>
        <time>2023-10-01T08:49:21Z</time>
      </trkpt>
      <trkpt lat="43.3931" lon="2.11779">
        <ele>635</ele>
        <time>2023-10-01T08:49:22Z</time>
      </trkpt>
      <trkpt lat="43.39304" lon="2.11768">
        <ele>634</ele>
        <time>2023-10-01T08:49:23Z</time>
      </trkpt>
      <trkpt lat="43.39296" lon="2.11762">
        <ele>632.8</ele>
        <time>2023-10-01T08:49:24Z</time>
      </trkpt>
      <trkpt lat="43.3928" lon="2.11751">
        <ele>631.4</ele>
        <time>2023-10-01T08:49:26Z</time>
      </trkpt>
      <trkpt lat="43.39276" lon="2.11747">
        <ele>630.4</ele>
        <time>2023-10-01T08:49:27Z</time>
      </trkpt>
      <trkpt lat="43.39269" lon="2.11741">
        <ele>629.4</ele>
        <time>2023-10-01T08:49:28Z</time>
      </trkpt>
      <trkpt lat="43.39262" lon="2.11734">
        <ele>628.8</ele>
        <time>2023-10-01T08:49:29Z</time>
      </trkpt>
      <trkpt lat="43.39256" lon="2.11728">
        <ele>627.2</ele>
        <time>2023-10-01T08:49:30Z</time>
      </trkpt>
      <trkpt lat="43.39252" lon="2.11724">
        <ele>625.8</ele>
        <time>2023-10-01T08:49:31Z</time>
      </trkpt>
      <trkpt lat="43.39248" lon="2.11719">
        <ele>625.2</ele>
        <time>2023-10-01T08:49:32Z</time>
      </trkpt>
      <trkpt lat="43.39242" lon="2.11714">
        <ele>624.4</ele>
        <time>2023-10-01T08:49:33Z</time>
      </trkpt>
      <trkpt lat="43.39235" lon="2.11709">
        <ele>624</ele>
        <time>2023-10-01T08:49:34Z</time>
      </trkpt>
      <trkpt lat="43.39226" lon="2.11702">
        <ele>622.8</ele>
        <time>2023-10-01T08:49:35Z</time>
      </trkpt>
      <trkpt lat="43.39219" lon="2.11699">
        <ele>621.2</ele>
        <time>2023-10-01T08:49:36Z</time>
      </trkpt>
      <trkpt lat="43.39209" lon="2.11695">
        <ele>619.4</ele>
        <time>2023-10-01T08:49:37Z</time>
      </trkpt>
      <trkpt lat="43.39201" lon="2.11692">
        <ele>618.6</ele>
        <time>2023-10-01T08:49:38Z</time>
      </trkpt>
      <trkpt lat="43.39193" lon="2.1169">
        <ele>618</ele>
        <time>2023-10-01T08:49:39Z</time>
      </trkpt>
      <trkpt lat="43.39185" lon="2.11688">
        <ele>616.4</ele>
        <time>2023-10-01T08:49:40Z</time>
      </trkpt>
      <trkpt lat="43.3917" lon="2.11681">
        <ele>615</ele>
        <time>2023-10-01T08:49:42Z</time>
      </trkpt>
      <trkpt lat="43.39162" lon="2.11678">
        <ele>614.6</ele>
        <time>2023-10-01T08:49:43Z</time>
      </trkpt>
      <trkpt lat="43.39154" lon="2.11675">
        <ele>613.2</ele>
        <time>2023-10-01T08:49:44Z</time>
      </trkpt>
      <trkpt lat="43.39146" lon="2.11674">
        <ele>612</ele>
        <time>2023-10-01T08:49:45Z</time>
      </trkpt>
      <trkpt lat="43.39133" lon="2.11676">
        <ele>610.8</ele>
        <time>2023-10-01T08:49:47Z</time>
      </trkpt>
      <trkpt lat="43.39127" lon="2.11677">
        <ele>610.4</ele>
        <time>2023-10-01T08:49:48Z</time>
      </trkpt>
      <trkpt lat="43.39121" lon="2.11676">
        <ele>609.4</ele>
        <time>2023-10-01T08:49:49Z</time>
      </trkpt>
      <trkpt lat="43.39115" lon="2.11674">
        <ele>608.8</ele>
        <time>2023-10-01T08:49:50Z</time>
      </trkpt>
      <trkpt lat="43.3911" lon="2.11673">
        <ele>608</ele>
        <time>2023-10-01T08:49:51Z</time>
      </trkpt>
      <trkpt lat="43.39105" lon="2.11672">
        <ele>607</ele>
        <time>2023-10-01T08:49:52Z</time>
      </trkpt>
      <trkpt lat="43.39098" lon="2.11671">
        <ele>606.8</ele>
        <time>2023-10-01T08:49:53Z</time>
      </trkpt>
      <trkpt lat="43.39092" lon="2.1167">
        <ele>606</ele>
        <time>2023-10-01T08:49:54Z</time>
      </trkpt>
      <trkpt lat="43.39085" lon="2.1167">
        <ele>605.6</ele>
        <time>2023-10-01T08:49:55Z</time>
      </trkpt>
      <trkpt lat="43.39078" lon="2.11671">
        <ele>604.8</ele>
        <time>2023-10-01T08:49:56Z</time>
      </trkpt>
      <trkpt lat="43.39066" lon="2.11678">
        <ele>603.2</ele>
        <time>2023-10-01T08:49:58Z</time>
      </trkpt>
      <trkpt lat="43.3906" lon="2.11681">
        <ele>602.4</ele>
        <time>2023-10-01T08:49:59Z</time>
      </trkpt>
      <trkpt lat="43.39055" lon="2.11685">
        <ele>602.2</ele>
        <time>2023-10-01T08:50:00Z</time>
      </trkpt>
      <trkpt lat="43.39051" lon="2.11689">
        <ele>601.2</ele>
        <time>2023-10-01T08:50:01Z</time>
      </trkpt>
      <trkpt lat="43.39047" lon="2.11692">
        <ele>600.4</ele>
        <time>2023-10-01T08:50:02Z</time>
      </trkpt>
      <trkpt lat="43.39042" lon="2.11694">
        <ele>599.2</ele>
        <time>2023-10-01T08:50:03Z</time>
      </trkpt>
      <trkpt lat="43.39036" lon="2.11696">
        <ele>598.8</ele>
        <time>2023-10-01T08:50:04Z</time>
      </trkpt>
      <trkpt lat="43.39032" lon="2.11698">
        <ele>598.2</ele>
        <time>2023-10-01T08:50:05Z</time>
      </trkpt>
      <trkpt lat="43.39027" lon="2.11702">
        <ele>597.8</ele>
        <time>2023-10-01T08:50:06Z</time>
      </trkpt>
      <trkpt lat="43.39022" lon="2.11707">
        <ele>597.8</ele>
        <time>2023-10-01T08:50:07Z</time>
      </trkpt>
      <trkpt lat="43.39019" lon="2.11712">
        <ele>597.6</ele>
        <time>2023-10-01T08:50:08Z</time>
      </trkpt>
      <trkpt lat="43.39016" lon="2.11717">
        <ele>597.6</ele>
        <time>2023-10-01T08:50:09Z</time>
      </trkpt>
      <trkpt lat="43.39013" lon="2.11722">
        <ele>597.6</ele>
        <time>2023-10-01T08:50:10Z</time>
      </trkpt>
      <trkpt lat="43.3901" lon="2.11725">
        <ele>597.8</ele>
        <time>2023-10-01T08:50:11Z</time>
      </trkpt>
      <trkpt lat="43.39006" lon="2.11728">
        <ele>597.8</ele>
        <time>2023-10-01T08:50:12Z</time>
      </trkpt>
      <trkpt lat="43.39001" lon="2.1173">
        <ele>597.8</ele>
        <time>2023-10-01T08:50:13Z</time>
      </trkpt>
      <trkpt lat="43.38995" lon="2.11731">
        <ele>597.8</ele>
        <time>2023-10-01T08:50:14Z</time>
      </trkpt>
      <trkpt lat="43.38991" lon="2.11731">
        <ele>597.8</ele>
        <time>2023-10-01T08:50:15Z</time>
      </trkpt>
      <trkpt lat="43.38987" lon="2.11733">
        <ele>597.6</ele>
        <time>2023-10-01T08:50:16Z</time>
      </trkpt>
      <trkpt lat="43.38973" lon="2.1174">
        <ele>597.6</ele>
        <time>2023-10-01T08:50:18Z</time>
      </trkpt>
      <trkpt lat="43.38966" lon="2.11745">
        <ele>597.6</ele>
        <time>2023-10-01T08:50:19Z</time>
      </trkpt>
      <trkpt lat="43.38949" lon="2.11754">
        <ele>597.2</ele>
        <time>2023-10-01T08:50:21Z</time>
      </trkpt>
      <trkpt lat="43.38935" lon="2.11763">
        <ele>596.8</ele>
        <time>2023-10-01T08:50:23Z</time>
      </trkpt>
      <trkpt lat="43.38925" lon="2.11777">
        <ele>595.6</ele>
        <time>2023-10-01T08:50:25Z</time>
      </trkpt>
      <trkpt lat="43.38923" lon="2.11783">
        <ele>595.2</ele>
        <time>2023-10-01T08:50:26Z</time>
      </trkpt>
      <trkpt lat="43.3892" lon="2.11787">
        <ele>595</ele>
        <time>2023-10-01T08:50:27Z</time>
      </trkpt>
      <trkpt lat="43.38918" lon="2.11792">
        <ele>594.8</ele>
        <time>2023-10-01T08:50:28Z</time>
      </trkpt>
      <trkpt lat="43.38915" lon="2.11794">
        <ele>594.6</ele>
        <time>2023-10-01T08:50:29Z</time>
      </trkpt>
      <trkpt lat="43.38913" lon="2.11795">
        <ele>594.4</ele>
        <time>2023-10-01T08:50:30Z</time>
      </trkpt>
      <trkpt lat="43.38912" lon="2.11794">
        <ele>594.4</ele>
        <time>2023-10-01T08:50:31Z</time>
      </trkpt>
      <trkpt lat="43.38908" lon="2.11791">
        <ele>594.2</ele>
        <time>2023-10-01T08:50:32Z</time>
      </trkpt>
      <trkpt lat="43.38904" lon="2.11788">
        <ele>593.8</ele>
        <time>2023-10-01T08:50:33Z</time>
      </trkpt>
      <trkpt lat="43.38899" lon="2.11786">
        <ele>593.4</ele>
        <time>2023-10-01T08:50:34Z</time>
      </trkpt>
      <trkpt lat="43.38895" lon="2.11788">
        <ele>593.4</ele>
        <time>2023-10-01T08:50:35Z</time>
      </trkpt>
      <trkpt lat="43.38882" lon="2.11791">
        <ele>592.6</ele>
        <time>2023-10-01T08:50:38Z</time>
      </trkpt>
      <trkpt lat="43.38874" lon="2.11787">
        <ele>592.6</ele>
        <time>2023-10-01T08:50:39Z</time>
      </trkpt>
      <trkpt lat="43.38869" lon="2.11784">
        <ele>592.2</ele>
        <time>2023-10-01T08:50:40Z</time>
      </trkpt>
      <trkpt lat="43.38862" lon="2.11783">
        <ele>592.2</ele>
        <time>2023-10-01T08:50:41Z</time>
      </trkpt>
      <trkpt lat="43.38856" lon="2.11785">
        <ele>592</ele>
        <time>2023-10-01T08:50:42Z</time>
      </trkpt>
      <trkpt lat="43.38851" lon="2.11785">
        <ele>592</ele>
        <time>2023-10-01T08:50:43Z</time>
      </trkpt>
      <trkpt lat="43.38844" lon="2.11784">
        <ele>591.8</ele>
        <time>2023-10-01T08:50:44Z</time>
      </trkpt>
      <trkpt lat="43.38817" lon="2.11773">
        <ele>591.4</ele>
        <time>2023-10-01T08:50:48Z</time>
      </trkpt>
      <trkpt lat="43.3881" lon="2.11769">
        <ele>591.4</ele>
        <time>2023-10-01T08:50:49Z</time>
      </trkpt>
      <trkpt lat="43.38806" lon="2.11767">
        <ele>591.2</ele>
        <time>2023-10-01T08:50:50Z</time>
      </trkpt>
      <trkpt lat="43.388" lon="2.11768">
        <ele>591.2</ele>
        <time>2023-10-01T08:50:51Z</time>
      </trkpt>
      <trkpt lat="43.38795" lon="2.11771">
        <ele>591</ele>
        <time>2023-10-01T08:50:52Z</time>
      </trkpt>
      <trkpt lat="43.3879" lon="2.11775">
        <ele>590.6</ele>
        <time>2023-10-01T08:50:53Z</time>
      </trkpt>
      <trkpt lat="43.38785" lon="2.1178">
        <ele>590.2</ele>
        <time>2023-10-01T08:50:54Z</time>
      </trkpt>
      <trkpt lat="43.38782" lon="2.11784">
        <ele>590</ele>
        <time>2023-10-01T08:50:55Z</time>
      </trkpt>
      <trkpt lat="43.38778" lon="2.11789">
        <ele>589.8</ele>
        <time>2023-10-01T08:50:56Z</time>
      </trkpt>
      <trkpt lat="43.38774" lon="2.11793">
        <ele>589.6</ele>
        <time>2023-10-01T08:50:57Z</time>
      </trkpt>
      <trkpt lat="43.3877" lon="2.11799">
        <ele>589.6</ele>
        <time>2023-10-01T08:50:58Z</time>
      </trkpt>
      <trkpt lat="43.38766" lon="2.11805">
        <ele>589.2</ele>
        <time>2023-10-01T08:50:59Z</time>
      </trkpt>
      <trkpt lat="43.38758" lon="2.11816">
        <ele>588.8</ele>
        <time>2023-10-01T08:51:01Z</time>
      </trkpt>
      <trkpt lat="43.38754" lon="2.1182">
        <ele>588.6</ele>
        <time>2023-10-01T08:51:02Z</time>
      </trkpt>
      <trkpt lat="43.38751" lon="2.11825">
        <ele>588.4</ele>
        <time>2023-10-01T08:51:03Z</time>
      </trkpt>
      <trkpt lat="43.38747" lon="2.11829">
        <ele>588.4</ele>
        <time>2023-10-01T08:51:04Z</time>
      </trkpt>
      <trkpt lat="43.38741" lon="2.11832">
        <ele>588.2</ele>
        <time>2023-10-01T08:51:05Z</time>
      </trkpt>
      <trkpt lat="43.38737" lon="2.11834">
        <ele>587.8</ele>
        <time>2023-10-01T08:51:06Z</time>
      </trkpt>
      <trkpt lat="43.38732" lon="2.11836">
        <ele>587.6</ele>
        <time>2023-10-01T08:51:07Z</time>
      </trkpt>
      <trkpt lat="43.38726" lon="2.11837">
        <ele>587.4</ele>
        <time>2023-10-01T08:51:08Z</time>
      </trkpt>
      <trkpt lat="43.3872" lon="2.1184">
        <ele>587.4</ele>
        <time>2023-10-01T08:51:09Z</time>
      </trkpt>
      <trkpt lat="43.38714" lon="2.11841">
        <ele>587.2</ele>
        <time>2023-10-01T08:51:10Z</time>
      </trkpt>
      <trkpt lat="43.38707" lon="2.11841">
        <ele>587.2</ele>
        <time>2023-10-01T08:51:11Z</time>
      </trkpt>
      <trkpt lat="43.38686" lon="2.11837">
        <ele>587</ele>
        <time>2023-10-01T08:51:14Z</time>
      </trkpt>
      <trkpt lat="43.3868" lon="2.11834">
        <ele>587</ele>
        <time>2023-10-01T08:51:15Z</time>
      </trkpt>
      <trkpt lat="43.38673" lon="2.11831">
        <ele>587</ele>
        <time>2023-10-01T08:51:16Z</time>
      </trkpt>
      <trkpt lat="43.38668" lon="2.11828">
        <ele>587</ele>
        <time>2023-10-01T08:51:17Z</time>
      </trkpt>
      <trkpt lat="43.38662" lon="2.11825">
        <ele>586.8</ele>
        <time>2023-10-01T08:51:18Z</time>
      </trkpt>
      <trkpt lat="43.38655" lon="2.11819">
        <ele>586.4</ele>
        <time>2023-10-01T08:51:19Z</time>
      </trkpt>
      <trkpt lat="43.38649" lon="2.11813">
        <ele>585.8</ele>
        <time>2023-10-01T08:51:20Z</time>
      </trkpt>
      <trkpt lat="43.38645" lon="2.11808">
        <ele>585.6</ele>
        <time>2023-10-01T08:51:21Z</time>
      </trkpt>
      <trkpt lat="43.38627" lon="2.11791">
        <ele>585.2</ele>
        <time>2023-10-01T08:51:24Z</time>
      </trkpt>
      <trkpt lat="43.38616" lon="2.11785">
        <ele>584.8</ele>
        <time>2023-10-01T08:51:26Z</time>
      </trkpt>
      <trkpt lat="43.38611" lon="2.11784">
        <ele>584.6</ele>
        <time>2023-10-01T08:51:27Z</time>
      </trkpt>
      <trkpt lat="43.38605" lon="2.11784">
        <ele>584.4</ele>
        <time>2023-10-01T08:51:28Z</time>
      </trkpt>
      <trkpt lat="43.386" lon="2.11786">
        <ele>584.2</ele>
        <time>2023-10-01T08:51:29Z</time>
      </trkpt>
      <trkpt lat="43.38594" lon="2.11786">
        <ele>584</ele>
        <time>2023-10-01T08:51:30Z</time>
      </trkpt>
      <trkpt lat="43.38586" lon="2.11784">
        <ele>583.6</ele>
        <time>2023-10-01T08:51:31Z</time>
      </trkpt>
      <trkpt lat="43.38578" lon="2.11782">
        <ele>583.2</ele>
        <time>2023-10-01T08:51:32Z</time>
      </trkpt>
      <trkpt lat="43.38571" lon="2.11784">
        <ele>583</ele>
        <time>2023-10-01T08:51:33Z</time>
      </trkpt>
      <trkpt lat="43.38554" lon="2.11776">
        <ele>582.4</ele>
        <time>2023-10-01T08:51:36Z</time>
      </trkpt>
      <trkpt lat="43.38546" lon="2.11771">
        <ele>582.2</ele>
        <time>2023-10-01T08:51:37Z</time>
      </trkpt>
      <trkpt lat="43.38539" lon="2.11769">
        <ele>581.8</ele>
        <time>2023-10-01T08:51:38Z</time>
      </trkpt>
      <trkpt lat="43.38518" lon="2.11766">
        <ele>581</ele>
        <time>2023-10-01T08:51:41Z</time>
      </trkpt>
      <trkpt lat="43.38512" lon="2.11765">
        <ele>580.8</ele>
        <time>2023-10-01T08:51:42Z</time>
      </trkpt>
      <trkpt lat="43.38507" lon="2.11764">
        <ele>580.2</ele>
        <time>2023-10-01T08:51:43Z</time>
      </trkpt>
      <trkpt lat="43.38502" lon="2.11765">
        <ele>580</ele>
        <time>2023-10-01T08:51:44Z</time>
      </trkpt>
      <trkpt lat="43.38497" lon="2.11765">
        <ele>577.8</ele>
        <time>2023-10-01T08:51:45Z</time>
      </trkpt>
      <trkpt lat="43.38492" lon="2.11768">
        <ele>576.2</ele>
        <time>2023-10-01T08:51:46Z</time>
      </trkpt>
      <trkpt lat="43.38488" lon="2.11772">
        <ele>575.8</ele>
        <time>2023-10-01T08:51:47Z</time>
      </trkpt>
      <trkpt lat="43.38483" lon="2.11776">
        <ele>575.2</ele>
        <time>2023-10-01T08:51:48Z</time>
      </trkpt>
      <trkpt lat="43.38478" lon="2.1178">
        <ele>575</ele>
        <time>2023-10-01T08:51:49Z</time>
      </trkpt>
      <trkpt lat="43.38474" lon="2.11782">
        <ele>574.4</ele>
        <time>2023-10-01T08:51:50Z</time>
      </trkpt>
      <trkpt lat="43.3847" lon="2.11785">
        <ele>574.2</ele>
        <time>2023-10-01T08:51:51Z</time>
      </trkpt>
      <trkpt lat="43.38465" lon="2.11787">
        <ele>573.6</ele>
        <time>2023-10-01T08:51:52Z</time>
      </trkpt>
      <trkpt lat="43.3846" lon="2.11787">
        <ele>573.2</ele>
        <time>2023-10-01T08:51:53Z</time>
      </trkpt>
      <trkpt lat="43.38456" lon="2.11787">
        <ele>572.8</ele>
        <time>2023-10-01T08:51:54Z</time>
      </trkpt>
      <trkpt lat="43.38451" lon="2.11789">
        <ele>572.4</ele>
        <time>2023-10-01T08:51:55Z</time>
      </trkpt>
      <trkpt lat="43.38448" lon="2.11791">
        <ele>572.2</ele>
        <time>2023-10-01T08:51:56Z</time>
      </trkpt>
      <trkpt lat="43.38443" lon="2.11793">
        <ele>572</ele>
        <time>2023-10-01T08:51:57Z</time>
      </trkpt>
      <trkpt lat="43.38427" lon="2.11794">
        <ele>571.4</ele>
        <time>2023-10-01T08:51:59Z</time>
      </trkpt>
      <trkpt lat="43.38409" lon="2.11789">
        <ele>571</ele>
        <time>2023-10-01T08:52:01Z</time>
      </trkpt>
      <trkpt lat="43.38403" lon="2.11789">
        <ele>570.8</ele>
        <time>2023-10-01T08:52:02Z</time>
      </trkpt>
      <trkpt lat="43.38392" lon="2.11791">
        <ele>570.6</ele>
        <time>2023-10-01T08:52:04Z</time>
      </trkpt>
      <trkpt lat="43.38389" lon="2.11794">
        <ele>570.6</ele>
        <time>2023-10-01T08:52:05Z</time>
      </trkpt>
      <trkpt lat="43.38385" lon="2.11799">
        <ele>570</ele>
        <time>2023-10-01T08:52:06Z</time>
      </trkpt>
      <trkpt lat="43.38381" lon="2.11803">
        <ele>569.6</ele>
        <time>2023-10-01T08:52:07Z</time>
      </trkpt>
      <trkpt lat="43.38373" lon="2.11805">
        <ele>569</ele>
        <time>2023-10-01T08:52:08Z</time>
      </trkpt>
      <trkpt lat="43.38366" lon="2.11805">
        <ele>568.2</ele>
        <time>2023-10-01T08:52:09Z</time>
      </trkpt>
      <trkpt lat="43.38358" lon="2.11804">
        <ele>568</ele>
        <time>2023-10-01T08:52:10Z</time>
      </trkpt>
      <trkpt lat="43.38352" lon="2.11803">
        <ele>567.4</ele>
        <time>2023-10-01T08:52:11Z</time>
      </trkpt>
      <trkpt lat="43.38347" lon="2.11803">
        <ele>567.2</ele>
        <time>2023-10-01T08:52:12Z</time>
      </trkpt>
      <trkpt lat="43.38343" lon="2.11805">
        <ele>566.8</ele>
        <time>2023-10-01T08:52:13Z</time>
      </trkpt>
      <trkpt lat="43.3834" lon="2.11805">
        <ele>566.2</ele>
        <time>2023-10-01T08:52:14Z</time>
      </trkpt>
      <trkpt lat="43.38337" lon="2.11803">
        <ele>565.4</ele>
        <time>2023-10-01T08:52:15Z</time>
      </trkpt>
      <trkpt lat="43.38333" lon="2.118">
        <ele>564.6</ele>
        <time>2023-10-01T08:52:16Z</time>
      </trkpt>
      <trkpt lat="43.3833" lon="2.11795">
        <ele>564.4</ele>
        <time>2023-10-01T08:52:17Z</time>
      </trkpt>
      <trkpt lat="43.38328" lon="2.11792">
        <ele>563.8</ele>
        <time>2023-10-01T08:52:18Z</time>
      </trkpt>
      <trkpt lat="43.38326" lon="2.11786">
        <ele>563.6</ele>
        <time>2023-10-01T08:52:19Z</time>
      </trkpt>
      <trkpt lat="43.38324" lon="2.1178">
        <ele>563</ele>
        <time>2023-10-01T08:52:20Z</time>
      </trkpt>
      <trkpt lat="43.38323" lon="2.11773">
        <ele>562.8</ele>
        <time>2023-10-01T08:52:21Z</time>
      </trkpt>
      <trkpt lat="43.38321" lon="2.11767">
        <ele>562.2</ele>
        <time>2023-10-01T08:52:22Z</time>
      </trkpt>
      <trkpt lat="43.38318" lon="2.11761">
        <ele>561.8</ele>
        <time>2023-10-01T08:52:23Z</time>
      </trkpt>
      <trkpt lat="43.38309" lon="2.11744">
        <ele>560.8</ele>
        <time>2023-10-01T08:52:25Z</time>
      </trkpt>
      <trkpt lat="43.38298" lon="2.11729">
        <ele>560.2</ele>
        <time>2023-10-01T08:52:27Z</time>
      </trkpt>
      <trkpt lat="43.38285" lon="2.11722">
        <ele>558.8</ele>
        <time>2023-10-01T08:52:29Z</time>
      </trkpt>
      <trkpt lat="43.3828" lon="2.11721">
        <ele>558.2</ele>
        <time>2023-10-01T08:52:30Z</time>
      </trkpt>
      <trkpt lat="43.38276" lon="2.1172">
        <ele>557.6</ele>
        <time>2023-10-01T08:52:31Z</time>
      </trkpt>
      <trkpt lat="43.38273" lon="2.11718">
        <ele>556.8</ele>
        <time>2023-10-01T08:52:32Z</time>
      </trkpt>
      <trkpt lat="43.3827" lon="2.11716">
        <ele>556.4</ele>
        <time>2023-10-01T08:52:33Z</time>
      </trkpt>
      <trkpt lat="43.38269" lon="2.11713">
        <ele>556</ele>
        <time>2023-10-01T08:52:34Z</time>
      </trkpt>
      <trkpt lat="43.38269" lon="2.11711">
        <ele>555.8</ele>
        <time>2023-10-01T08:52:35Z</time>
      </trkpt>
      <trkpt lat="43.38271" lon="2.11708">
        <ele>555.4</ele>
        <time>2023-10-01T08:52:36Z</time>
      </trkpt>
      <trkpt lat="43.38274" lon="2.11706">
        <ele>554.8</ele>
        <time>2023-10-01T08:52:37Z</time>
      </trkpt>
      <trkpt lat="43.3828" lon="2.117">
        <ele>553.6</ele>
        <time>2023-10-01T08:52:39Z</time>
      </trkpt>
      <trkpt lat="43.38288" lon="2.11696">
        <ele>553.4</ele>
        <time>2023-10-01T08:52:41Z</time>
      </trkpt>
      <trkpt lat="43.38294" lon="2.11696">
        <ele>553.2</ele>
        <time>2023-10-01T08:52:42Z</time>
      </trkpt>
      <trkpt lat="43.383" lon="2.11695">
        <ele>553</ele>
        <time>2023-10-01T08:52:43Z</time>
      </trkpt>
      <trkpt lat="43.38305" lon="2.11695">
        <ele>553</ele>
        <time>2023-10-01T08:52:44Z</time>
      </trkpt>
      <trkpt lat="43.38311" lon="2.11694">
        <ele>553</ele>
        <time>2023-10-01T08:52:45Z</time>
      </trkpt>
      <trkpt lat="43.38327" lon="2.11692">
        <ele>553</ele>
        <time>2023-10-01T08:52:48Z</time>
      </trkpt>
      <trkpt lat="43.38332" lon="2.11691">
        <ele>553</ele>
        <time>2023-10-01T08:52:49Z</time>
      </trkpt>
      <trkpt lat="43.38337" lon="2.11691">
        <ele>553</ele>
        <time>2023-10-01T08:52:50Z</time>
      </trkpt>
      <trkpt lat="43.38348" lon="2.11691">
        <ele>553.2</ele>
        <time>2023-10-01T08:52:52Z</time>
      </trkpt>
      <trkpt lat="43.38363" lon="2.1169">
        <ele>553.2</ele>
        <time>2023-10-01T08:52:55Z</time>
      </trkpt>
      <trkpt lat="43.38367" lon="2.1169">
        <ele>553.4</ele>
        <time>2023-10-01T08:52:56Z</time>
      </trkpt>
      <trkpt lat="43.38372" lon="2.1169">
        <ele>553.4</ele>
        <time>2023-10-01T08:52:57Z</time>
      </trkpt>
      <trkpt lat="43.38394" lon="2.11687">
        <ele>554.4</ele>
        <time>2023-10-01T08:53:01Z</time>
      </trkpt>
      <trkpt lat="43.38399" lon="2.11687">
        <ele>555</ele>
        <time>2023-10-01T08:53:02Z</time>
      </trkpt>
      <trkpt lat="43.38403" lon="2.11685">
        <ele>555.2</ele>
        <time>2023-10-01T08:53:03Z</time>
      </trkpt>
      <trkpt lat="43.38407" lon="2.11684">
        <ele>555.8</ele>
        <time>2023-10-01T08:53:04Z</time>
      </trkpt>
      <trkpt lat="43.38416" lon="2.11681">
        <ele>556.4</ele>
        <time>2023-10-01T08:53:06Z</time>
      </trkpt>
      <trkpt lat="43.38421" lon="2.1168">
        <ele>556.8</ele>
        <time>2023-10-01T08:53:07Z</time>
      </trkpt>
      <trkpt lat="43.38431" lon="2.11682">
        <ele>557.4</ele>
        <time>2023-10-01T08:53:09Z</time>
      </trkpt>
      <trkpt lat="43.38434" lon="2.11682">
        <ele>557.6</ele>
        <time>2023-10-01T08:53:10Z</time>
      </trkpt>
      <trkpt lat="43.38439" lon="2.11681">
        <ele>558.4</ele>
        <time>2023-10-01T08:53:11Z</time>
      </trkpt>
      <trkpt lat="43.38445" lon="2.11683">
        <ele>558.6</ele>
        <time>2023-10-01T08:53:12Z</time>
      </trkpt>
      <trkpt lat="43.3845" lon="2.11681">
        <ele>559</ele>
        <time>2023-10-01T08:53:13Z</time>
      </trkpt>
      <trkpt lat="43.38455" lon="2.1168">
        <ele>559.4</ele>
        <time>2023-10-01T08:53:14Z</time>
      </trkpt>
      <trkpt lat="43.38458" lon="2.11678">
        <ele>559.6</ele>
        <time>2023-10-01T08:53:15Z</time>
      </trkpt>
      <trkpt lat="43.38462" lon="2.11676">
        <ele>560</ele>
        <time>2023-10-01T08:53:16Z</time>
      </trkpt>
      <trkpt lat="43.38464" lon="2.11675">
        <ele>560.4</ele>
        <time>2023-10-01T08:53:17Z</time>
      </trkpt>
      <trkpt lat="43.38467" lon="2.11674">
        <ele>560.8</ele>
        <time>2023-10-01T08:53:18Z</time>
      </trkpt>
      <trkpt lat="43.3847" lon="2.11675">
        <ele>561</ele>
        <time>2023-10-01T08:53:19Z</time>
      </trkpt>
      <trkpt lat="43.38476" lon="2.11678">
        <ele>561.4</ele>
        <time>2023-10-01T08:53:20Z</time>
      </trkpt>
      <trkpt lat="43.38479" lon="2.11676">
        <ele>562.2</ele>
        <time>2023-10-01T08:53:21Z</time>
      </trkpt>
      <trkpt lat="43.38482" lon="2.11675">
        <ele>562.4</ele>
        <time>2023-10-01T08:53:22Z</time>
      </trkpt>
      <trkpt lat="43.38485" lon="2.11674">
        <ele>563</ele>
        <time>2023-10-01T08:53:23Z</time>
      </trkpt>
      <trkpt lat="43.38489" lon="2.11673">
        <ele>563.6</ele>
        <time>2023-10-01T08:53:24Z</time>
      </trkpt>
      <trkpt lat="43.38493" lon="2.11674">
        <ele>564.4</ele>
        <time>2023-10-01T08:53:25Z</time>
      </trkpt>
      <trkpt lat="43.38496" lon="2.11673">
        <ele>564.6</ele>
        <time>2023-10-01T08:53:26Z</time>
      </trkpt>
      <trkpt lat="43.385" lon="2.11673">
        <ele>565</ele>
        <time>2023-10-01T08:53:27Z</time>
      </trkpt>
      <trkpt lat="43.38503" lon="2.11673">
        <ele>565.4</ele>
        <time>2023-10-01T08:53:28Z</time>
      </trkpt>
      <trkpt lat="43.38505" lon="2.11672">
        <ele>565.6</ele>
        <time>2023-10-01T08:53:29Z</time>
      </trkpt>
      <trkpt lat="43.38509" lon="2.1167">
        <ele>566.2</ele>
        <time>2023-10-01T08:53:30Z</time>
      </trkpt>
      <trkpt lat="43.38513" lon="2.11671">
        <ele>566.4</ele>
        <time>2023-10-01T08:53:31Z</time>
      </trkpt>
      <trkpt lat="43.38516" lon="2.1167">
        <ele>566.8</ele>
        <time>2023-10-01T08:53:32Z</time>
      </trkpt>
      <trkpt lat="43.3852" lon="2.11668">
        <ele>567</ele>
        <time>2023-10-01T08:53:33Z</time>
      </trkpt>
      <trkpt lat="43.38525" lon="2.11668">
        <ele>567.6</ele>
        <time>2023-10-01T08:53:34Z</time>
      </trkpt>
      <trkpt lat="43.38526" lon="2.11666">
        <ele>568</ele>
        <time>2023-10-01T08:53:35Z</time>
      </trkpt>
      <trkpt lat="43.38529" lon="2.11664">
        <ele>568.4</ele>
        <time>2023-10-01T08:53:36Z</time>
      </trkpt>
      <trkpt lat="43.38533" lon="2.11664">
        <ele>569</ele>
        <time>2023-10-01T08:53:37Z</time>
      </trkpt>
      <trkpt lat="43.38538" lon="2.11664">
        <ele>569.2</ele>
        <time>2023-10-01T08:53:38Z</time>
      </trkpt>
      <trkpt lat="43.38542" lon="2.11664">
        <ele>569.8</ele>
        <time>2023-10-01T08:53:39Z</time>
      </trkpt>
      <trkpt lat="43.38546" lon="2.11665">
        <ele>570</ele>
        <time>2023-10-01T08:53:40Z</time>
      </trkpt>
      <trkpt lat="43.38549" lon="2.11666">
        <ele>570.8</ele>
        <time>2023-10-01T08:53:41Z</time>
      </trkpt>
      <trkpt lat="43.38552" lon="2.11666">
        <ele>571.4</ele>
        <time>2023-10-01T08:53:42Z</time>
      </trkpt>
      <trkpt lat="43.38555" lon="2.11666">
        <ele>571.6</ele>
        <time>2023-10-01T08:53:43Z</time>
      </trkpt>
      <trkpt lat="43.38558" lon="2.11664">
        <ele>572</ele>
        <time>2023-10-01T08:53:44Z</time>
      </trkpt>
      <trkpt lat="43.38563" lon="2.11665">
        <ele>572.2</ele>
        <time>2023-10-01T08:53:45Z</time>
      </trkpt>
      <trkpt lat="43.38566" lon="2.11664">
        <ele>572.6</ele>
        <time>2023-10-01T08:53:46Z</time>
      </trkpt>
      <trkpt lat="43.38569" lon="2.11664">
        <ele>573</ele>
        <time>2023-10-01T08:53:47Z</time>
      </trkpt>
      <trkpt lat="43.38573" lon="2.11663">
        <ele>574</ele>
        <time>2023-10-01T08:53:48Z</time>
      </trkpt>
      <trkpt lat="43.38576" lon="2.11665">
        <ele>574.4</ele>
        <time>2023-10-01T08:53:49Z</time>
      </trkpt>
      <trkpt lat="43.3858" lon="2.11664">
        <ele>574.6</ele>
        <time>2023-10-01T08:53:50Z</time>
      </trkpt>
      <trkpt lat="43.38584" lon="2.11662">
        <ele>575</ele>
        <time>2023-10-01T08:53:51Z</time>
      </trkpt>
      <trkpt lat="43.38589" lon="2.1166">
        <ele>575.2</ele>
        <time>2023-10-01T08:53:52Z</time>
      </trkpt>
      <trkpt lat="43.38593" lon="2.11659">
        <ele>575.4</ele>
        <time>2023-10-01T08:53:53Z</time>
      </trkpt>
      <trkpt lat="43.38598" lon="2.11657">
        <ele>575.4</ele>
        <time>2023-10-01T08:53:54Z</time>
      </trkpt>
      <trkpt lat="43.38603" lon="2.11657">
        <ele>575.6</ele>
        <time>2023-10-01T08:53:55Z</time>
      </trkpt>
      <trkpt lat="43.38608" lon="2.11657">
        <ele>575.8</ele>
        <time>2023-10-01T08:53:56Z</time>
      </trkpt>
      <trkpt lat="43.38613" lon="2.11656">
        <ele>575.8</ele>
        <time>2023-10-01T08:53:57Z</time>
      </trkpt>
      <trkpt lat="43.38618" lon="2.11656">
        <ele>575.8</ele>
        <time>2023-10-01T08:53:58Z</time>
      </trkpt>
      <trkpt lat="43.38623" lon="2.11655">
        <ele>575.8</ele>
        <time>2023-10-01T08:53:59Z</time>
      </trkpt>
      <trkpt lat="43.38628" lon="2.11655">
        <ele>575.8</ele>
        <time>2023-10-01T08:54:00Z</time>
      </trkpt>
      <trkpt lat="43.38633" lon="2.11655">
        <ele>575.8</ele>
        <time>2023-10-01T08:54:01Z</time>
      </trkpt>
      <trkpt lat="43.38638" lon="2.11653">
        <ele>575.8</ele>
        <time>2023-10-01T08:54:02Z</time>
      </trkpt>
      <trkpt lat="43.38642" lon="2.11653">
        <ele>575.6</ele>
        <time>2023-10-01T08:54:03Z</time>
      </trkpt>
      <trkpt lat="43.38647" lon="2.11652">
        <ele>575.6</ele>
        <time>2023-10-01T08:54:04Z</time>
      </trkpt>
      <trkpt lat="43.38651" lon="2.1165">
        <ele>575.6</ele>
        <time>2023-10-01T08:54:05Z</time>
      </trkpt>
      <trkpt lat="43.38654" lon="2.1165">
        <ele>575.6</ele>
        <time>2023-10-01T08:54:06Z</time>
      </trkpt>
      <trkpt lat="43.38659" lon="2.11649">
        <ele>575.4</ele>
        <time>2023-10-01T08:54:07Z</time>
      </trkpt>
      <trkpt lat="43.38662" lon="2.11649">
        <ele>575.4</ele>
        <time>2023-10-01T08:54:08Z</time>
      </trkpt>
      <trkpt lat="43.38666" lon="2.11647">
        <ele>575.4</ele>
        <time>2023-10-01T08:54:09Z</time>
      </trkpt>
      <trkpt lat="43.38671" lon="2.11646">
        <ele>575.4</ele>
        <time>2023-10-01T08:54:10Z</time>
      </trkpt>
      <trkpt lat="43.38675" lon="2.11646">
        <ele>575.4</ele>
        <time>2023-10-01T08:54:11Z</time>
      </trkpt>
      <trkpt lat="43.38679" lon="2.11646">
        <ele>575.4</ele>
        <time>2023-10-01T08:54:12Z</time>
      </trkpt>
      <trkpt lat="43.38684" lon="2.11646">
        <ele>575.4</ele>
        <time>2023-10-01T08:54:13Z</time>
      </trkpt>
      <trkpt lat="43.38689" lon="2.11645">
        <ele>575.4</ele>
        <time>2023-10-01T08:54:14Z</time>
      </trkpt>
      <trkpt lat="43.38695" lon="2.11644">
        <ele>575.4</ele>
        <time>2023-10-01T08:54:15Z</time>
      </trkpt>
      <trkpt lat="43.38701" lon="2.11642">
        <ele>575.4</ele>
        <time>2023-10-01T08:54:16Z</time>
      </trkpt>
      <trkpt lat="43.38706" lon="2.11641">
        <ele>575.6</ele>
        <time>2023-10-01T08:54:17Z</time>
      </trkpt>
      <trkpt lat="43.38724" lon="2.11639">
        <ele>575.8</ele>
        <time>2023-10-01T08:54:20Z</time>
      </trkpt>
      <trkpt lat="43.38729" lon="2.11639">
        <ele>575.8</ele>
        <time>2023-10-01T08:54:21Z</time>
      </trkpt>
      <trkpt lat="43.38734" lon="2.11638">
        <ele>575.8</ele>
        <time>2023-10-01T08:54:22Z</time>
      </trkpt>
      <trkpt lat="43.38747" lon="2.11637">
        <ele>576</ele>
        <time>2023-10-01T08:54:24Z</time>
      </trkpt>
      <trkpt lat="43.38758" lon="2.11633">
        <ele>576</ele>
        <time>2023-10-01T08:54:26Z</time>
      </trkpt>
      <trkpt lat="43.38762" lon="2.11631">
        <ele>576.2</ele>
        <time>2023-10-01T08:54:27Z</time>
      </trkpt>
      <trkpt lat="43.38772" lon="2.11628">
        <ele>576.4</ele>
        <time>2023-10-01T08:54:29Z</time>
      </trkpt>
      <trkpt lat="43.38777" lon="2.11627">
        <ele>576.4</ele>
        <time>2023-10-01T08:54:30Z</time>
      </trkpt>
      <trkpt lat="43.38782" lon="2.11625">
        <ele>576.4</ele>
        <time>2023-10-01T08:54:31Z</time>
      </trkpt>
      <trkpt lat="43.38786" lon="2.11623">
        <ele>576.6</ele>
        <time>2023-10-01T08:54:32Z</time>
      </trkpt>
      <trkpt lat="43.3879" lon="2.11622">
        <ele>577</ele>
        <time>2023-10-01T08:54:33Z</time>
      </trkpt>
      <trkpt lat="43.38796" lon="2.11623">
        <ele>577</ele>
        <time>2023-10-01T08:54:34Z</time>
      </trkpt>
      <trkpt lat="43.38801" lon="2.11624">
        <ele>577.2</ele>
        <time>2023-10-01T08:54:35Z</time>
      </trkpt>
      <trkpt lat="43.38812" lon="2.11624">
        <ele>577.8</ele>
        <time>2023-10-01T08:54:37Z</time>
      </trkpt>
      <trkpt lat="43.38817" lon="2.11625">
        <ele>578</ele>
        <time>2023-10-01T08:54:38Z</time>
      </trkpt>
      <trkpt lat="43.38827" lon="2.11624">
        <ele>579</ele>
        <time>2023-10-01T08:54:40Z</time>
      </trkpt>
      <trkpt lat="43.38835" lon="2.11625">
        <ele>580</ele>
        <time>2023-10-01T08:54:42Z</time>
      </trkpt>
      <trkpt lat="43.38839" lon="2.11628">
        <ele>580.4</ele>
        <time>2023-10-01T08:54:43Z</time>
      </trkpt>
      <trkpt lat="43.38843" lon="2.1163">
        <ele>580.6</ele>
        <time>2023-10-01T08:54:44Z</time>
      </trkpt>
      <trkpt lat="43.38846" lon="2.11632">
        <ele>581</ele>
        <time>2023-10-01T08:54:45Z</time>
      </trkpt>
      <trkpt lat="43.38849" lon="2.11635">
        <ele>581.2</ele>
        <time>2023-10-01T08:54:46Z</time>
      </trkpt>
      <trkpt lat="43.38852" lon="2.11639">
        <ele>582.2</ele>
        <time>2023-10-01T08:54:47Z</time>
      </trkpt>
      <trkpt lat="43.38854" lon="2.11644">
        <ele>582.6</ele>
        <time>2023-10-01T08:54:48Z</time>
      </trkpt>
      <trkpt lat="43.38857" lon="2.11647">
        <ele>583</ele>
        <time>2023-10-01T08:54:49Z</time>
      </trkpt>
      <trkpt lat="43.3886" lon="2.11651">
        <ele>583.2</ele>
        <time>2023-10-01T08:54:50Z</time>
      </trkpt>
      <trkpt lat="43.38862" lon="2.11654">
        <ele>583.6</ele>
        <time>2023-10-01T08:54:51Z</time>
      </trkpt>
      <trkpt lat="43.38863" lon="2.11657">
        <ele>583.8</ele>
        <time>2023-10-01T08:54:52Z</time>
      </trkpt>
      <trkpt lat="43.38865" lon="2.11658">
        <ele>584.2</ele>
        <time>2023-10-01T08:54:53Z</time>
      </trkpt>
      <trkpt lat="43.38867" lon="2.11658">
        <ele>584.6</ele>
        <time>2023-10-01T08:54:54Z</time>
      </trkpt>
      <trkpt lat="43.38871" lon="2.11655">
        <ele>584.8</ele>
        <time>2023-10-01T08:54:55Z</time>
      </trkpt>
      <trkpt lat="43.38876" lon="2.11651">
        <ele>585</ele>
        <time>2023-10-01T08:54:56Z</time>
      </trkpt>
      <trkpt lat="43.38881" lon="2.11649">
        <ele>585</ele>
        <time>2023-10-01T08:54:57Z</time>
      </trkpt>
      <trkpt lat="43.38886" lon="2.11649">
        <ele>585</ele>
        <time>2023-10-01T08:54:58Z</time>
      </trkpt>
      <trkpt lat="43.3889" lon="2.11649">
        <ele>585</ele>
        <time>2023-10-01T08:54:59Z</time>
      </trkpt>
      <trkpt lat="43.38895" lon="2.11649">
        <ele>585</ele>
        <time>2023-10-01T08:55:00Z</time>
      </trkpt>
      <trkpt lat="43.389" lon="2.11644">
        <ele>585</ele>
        <time>2023-10-01T08:55:01Z</time>
      </trkpt>
      <trkpt lat="43.38904" lon="2.11639">
        <ele>585</ele>
        <time>2023-10-01T08:55:02Z</time>
      </trkpt>
      <trkpt lat="43.38907" lon="2.11632">
        <ele>585</ele>
        <time>2023-10-01T08:55:03Z</time>
      </trkpt>
      <trkpt lat="43.38911" lon="2.11626">
        <ele>584.8</ele>
        <time>2023-10-01T08:55:04Z</time>
      </trkpt>
      <trkpt lat="43.38914" lon="2.11621">
        <ele>584.6</ele>
        <time>2023-10-01T08:55:05Z</time>
      </trkpt>
      <trkpt lat="43.38918" lon="2.11611">
        <ele>584.6</ele>
        <time>2023-10-01T08:55:06Z</time>
      </trkpt>
      <trkpt lat="43.3892" lon="2.11601">
        <ele>584.4</ele>
        <time>2023-10-01T08:55:07Z</time>
      </trkpt>
      <trkpt lat="43.38922" lon="2.11598">
        <ele>584.2</ele>
        <time>2023-10-01T08:55:08Z</time>
      </trkpt>
      <trkpt lat="43.38924" lon="2.11593">
        <ele>583.8</ele>
        <time>2023-10-01T08:55:09Z</time>
      </trkpt>
      <trkpt lat="43.38927" lon="2.11586">
        <ele>583</ele>
        <time>2023-10-01T08:55:10Z</time>
      </trkpt>
      <trkpt lat="43.3893" lon="2.11578">
        <ele>582.4</ele>
        <time>2023-10-01T08:55:11Z</time>
      </trkpt>
      <trkpt lat="43.38938" lon="2.11568">
        <ele>581.6</ele>
        <time>2023-10-01T08:55:12Z</time>
      </trkpt>
      <trkpt lat="43.38946" lon="2.11559">
        <ele>581.2</ele>
        <time>2023-10-01T08:55:13Z</time>
      </trkpt>
      <trkpt lat="43.38953" lon="2.11552">
        <ele>579.8</ele>
        <time>2023-10-01T08:55:14Z</time>
      </trkpt>
      <trkpt lat="43.38967" lon="2.1154">
        <ele>578.4</ele>
        <time>2023-10-01T08:55:16Z</time>
      </trkpt>
      <trkpt lat="43.38978" lon="2.11532">
        <ele>577.2</ele>
        <time>2023-10-01T08:55:18Z</time>
      </trkpt>
      <trkpt lat="43.3898" lon="2.11526">
        <ele>576.2</ele>
        <time>2023-10-01T08:55:19Z</time>
      </trkpt>
      <trkpt lat="43.38979" lon="2.1152">
        <ele>575.4</ele>
        <time>2023-10-01T08:55:20Z</time>
      </trkpt>
      <trkpt lat="43.38977" lon="2.11516">
        <ele>573.6</ele>
        <time>2023-10-01T08:55:21Z</time>
      </trkpt>
      <trkpt lat="43.38975" lon="2.11512">
        <ele>573</ele>
        <time>2023-10-01T08:55:22Z</time>
      </trkpt>
      <trkpt lat="43.38972" lon="2.11507">
        <ele>572</ele>
        <time>2023-10-01T08:55:23Z</time>
      </trkpt>
      <trkpt lat="43.3897" lon="2.11503">
        <ele>571</ele>
        <time>2023-10-01T08:55:24Z</time>
      </trkpt>
      <trkpt lat="43.38967" lon="2.11499">
        <ele>570.8</ele>
        <time>2023-10-01T08:55:25Z</time>
      </trkpt>
      <trkpt lat="43.3896" lon="2.11494">
        <ele>570.4</ele>
        <time>2023-10-01T08:55:27Z</time>
      </trkpt>
      <trkpt lat="43.38956" lon="2.11494">
        <ele>570.2</ele>
        <time>2023-10-01T08:55:28Z</time>
      </trkpt>
      <trkpt lat="43.3895" lon="2.11494">
        <ele>570</ele>
        <time>2023-10-01T08:55:29Z</time>
      </trkpt>
      <trkpt lat="43.38944" lon="2.11493">
        <ele>569.6</ele>
        <time>2023-10-01T08:55:30Z</time>
      </trkpt>
      <trkpt lat="43.38937" lon="2.11492">
        <ele>569.4</ele>
        <time>2023-10-01T08:55:31Z</time>
      </trkpt>
      <trkpt lat="43.38931" lon="2.11491">
        <ele>569.2</ele>
        <time>2023-10-01T08:55:32Z</time>
      </trkpt>
      <trkpt lat="43.38918" lon="2.11484">
        <ele>569</ele>
        <time>2023-10-01T08:55:34Z</time>
      </trkpt>
      <trkpt lat="43.38911" lon="2.1148">
        <ele>568.6</ele>
        <time>2023-10-01T08:55:35Z</time>
      </trkpt>
      <trkpt lat="43.38903" lon="2.11474">
        <ele>568.6</ele>
        <time>2023-10-01T08:55:36Z</time>
      </trkpt>
      <trkpt lat="43.38896" lon="2.11469">
        <ele>568.2</ele>
        <time>2023-10-01T08:55:37Z</time>
      </trkpt>
      <trkpt lat="43.38874" lon="2.11453">
        <ele>567.6</ele>
        <time>2023-10-01T08:55:40Z</time>
      </trkpt>
      <trkpt lat="43.38866" lon="2.11443">
        <ele>567.6</ele>
        <time>2023-10-01T08:55:42Z</time>
      </trkpt>
      <trkpt lat="43.38861" lon="2.11438">
        <ele>567.6</ele>
        <time>2023-10-01T08:55:43Z</time>
      </trkpt>
      <trkpt lat="43.38857" lon="2.11433">
        <ele>567.4</ele>
        <time>2023-10-01T08:55:44Z</time>
      </trkpt>
      <trkpt lat="43.38853" lon="2.11428">
        <ele>567.6</ele>
        <time>2023-10-01T08:55:45Z</time>
      </trkpt>
      <trkpt lat="43.3885" lon="2.11424">
        <ele>567.6</ele>
        <time>2023-10-01T08:55:46Z</time>
      </trkpt>
      <trkpt lat="43.38846" lon="2.11419">
        <ele>567.8</ele>
        <time>2023-10-01T08:55:47Z</time>
      </trkpt>
      <trkpt lat="43.38842" lon="2.11412">
        <ele>568</ele>
        <time>2023-10-01T08:55:48Z</time>
      </trkpt>
      <trkpt lat="43.38835" lon="2.11392">
        <ele>568.8</ele>
        <time>2023-10-01T08:55:51Z</time>
      </trkpt>
      <trkpt lat="43.38833" lon="2.11384">
        <ele>569</ele>
        <time>2023-10-01T08:55:52Z</time>
      </trkpt>
      <trkpt lat="43.38832" lon="2.11377">
        <ele>569</ele>
        <time>2023-10-01T08:55:53Z</time>
      </trkpt>
      <trkpt lat="43.38832" lon="2.11367">
        <ele>569.4</ele>
        <time>2023-10-01T08:55:54Z</time>
      </trkpt>
      <trkpt lat="43.38835" lon="2.11343">
        <ele>569.8</ele>
        <time>2023-10-01T08:55:56Z</time>
      </trkpt>
      <trkpt lat="43.38837" lon="2.11334">
        <ele>570</ele>
        <time>2023-10-01T08:55:57Z</time>
      </trkpt>
      <trkpt lat="43.38837" lon="2.11325">
        <ele>570</ele>
        <time>2023-10-01T08:55:58Z</time>
      </trkpt>
      <trkpt lat="43.38837" lon="2.11317">
        <ele>570</ele>
        <time>2023-10-01T08:55:59Z</time>
      </trkpt>
      <trkpt lat="43.38836" lon="2.11308">
        <ele>570.2</ele>
        <time>2023-10-01T08:56:00Z</time>
      </trkpt>
      <trkpt lat="43.38836" lon="2.11301">
        <ele>570.2</ele>
        <time>2023-10-01T08:56:01Z</time>
      </trkpt>
      <trkpt lat="43.38837" lon="2.11293">
        <ele>570.2</ele>
        <time>2023-10-01T08:56:02Z</time>
      </trkpt>
      <trkpt lat="43.38838" lon="2.11287">
        <ele>570.2</ele>
        <time>2023-10-01T08:56:03Z</time>
      </trkpt>
      <trkpt lat="43.38839" lon="2.1128">
        <ele>570.2</ele>
        <time>2023-10-01T08:56:04Z</time>
      </trkpt>
      <trkpt lat="43.38838" lon="2.11272">
        <ele>570.2</ele>
        <time>2023-10-01T08:56:05Z</time>
      </trkpt>
      <trkpt lat="43.38839" lon="2.11265">
        <ele>570.2</ele>
        <time>2023-10-01T08:56:06Z</time>
      </trkpt>
      <trkpt lat="43.38848" lon="2.11224">
        <ele>570.2</ele>
        <time>2023-10-01T08:56:11Z</time>
      </trkpt>
      <trkpt lat="43.38851" lon="2.11216">
        <ele>570.4</ele>
        <time>2023-10-01T08:56:12Z</time>
      </trkpt>
      <trkpt lat="43.38857" lon="2.112">
        <ele>570.4</ele>
        <time>2023-10-01T08:56:14Z</time>
      </trkpt>
      <trkpt lat="43.38862" lon="2.11193">
        <ele>570.4</ele>
        <time>2023-10-01T08:56:15Z</time>
      </trkpt>
      <trkpt lat="43.38867" lon="2.11185">
        <ele>570.4</ele>
        <time>2023-10-01T08:56:16Z</time>
      </trkpt>
      <trkpt lat="43.38889" lon="2.11151">
        <ele>570.4</ele>
        <time>2023-10-01T08:56:21Z</time>
      </trkpt>
      <trkpt lat="43.38904" lon="2.11121">
        <ele>570.2</ele>
        <time>2023-10-01T08:56:25Z</time>
      </trkpt>
      <trkpt lat="43.38905" lon="2.11117">
        <ele>569.8</ele>
        <time>2023-10-01T08:56:26Z</time>
      </trkpt>
      <trkpt lat="43.38905" lon="2.11114">
        <ele>569.6</ele>
        <time>2023-10-01T08:56:27Z</time>
      </trkpt>
      <trkpt lat="43.38904" lon="2.11112">
        <ele>569.4</ele>
        <time>2023-10-01T08:56:28Z</time>
      </trkpt>
      <trkpt lat="43.38902" lon="2.1111">
        <ele>569</ele>
        <time>2023-10-01T08:56:29Z</time>
      </trkpt>
      <trkpt lat="43.38899" lon="2.11107">
        <ele>569</ele>
        <time>2023-10-01T08:56:30Z</time>
      </trkpt>
      <trkpt lat="43.3889" lon="2.11105">
        <ele>568.8</ele>
        <time>2023-10-01T08:56:33Z</time>
      </trkpt>
      <trkpt lat="43.38883" lon="2.11106">
        <ele>568.8</ele>
        <time>2023-10-01T08:56:35Z</time>
      </trkpt>
      <trkpt lat="43.38878" lon="2.11106">
        <ele>568.8</ele>
        <time>2023-10-01T08:56:36Z</time>
      </trkpt>
      <trkpt lat="43.38873" lon="2.11105">
        <ele>569</ele>
        <time>2023-10-01T08:56:37Z</time>
      </trkpt>
      <trkpt lat="43.38849" lon="2.11108">
        <ele>569.8</ele>
        <time>2023-10-01T08:56:42Z</time>
      </trkpt>
      <trkpt lat="43.38845" lon="2.11109">
        <ele>570.4</ele>
        <time>2023-10-01T08:56:43Z</time>
      </trkpt>
      <trkpt lat="43.38841" lon="2.11111">
        <ele>570.8</ele>
        <time>2023-10-01T08:56:44Z</time>
      </trkpt>
      <trkpt lat="43.38836" lon="2.11112">
        <ele>571.6</ele>
        <time>2023-10-01T08:56:45Z</time>
      </trkpt>
      <trkpt lat="43.38832" lon="2.11114">
        <ele>571.8</ele>
        <time>2023-10-01T08:56:46Z</time>
      </trkpt>
      <trkpt lat="43.38827" lon="2.11115">
        <ele>572.2</ele>
        <time>2023-10-01T08:56:47Z</time>
      </trkpt>
      <trkpt lat="43.38807" lon="2.11114">
        <ele>573</ele>
        <time>2023-10-01T08:56:50Z</time>
      </trkpt>
      <trkpt lat="43.38796" lon="2.11114">
        <ele>573.8</ele>
        <time>2023-10-01T08:56:52Z</time>
      </trkpt>
      <trkpt lat="43.38791" lon="2.11114">
        <ele>574</ele>
        <time>2023-10-01T08:56:53Z</time>
      </trkpt>
      <trkpt lat="43.38786" lon="2.11115">
        <ele>574.2</ele>
        <time>2023-10-01T08:56:54Z</time>
      </trkpt>
      <trkpt lat="43.3878" lon="2.11116">
        <ele>574.6</ele>
        <time>2023-10-01T08:56:55Z</time>
      </trkpt>
      <trkpt lat="43.38773" lon="2.11117">
        <ele>575</ele>
        <time>2023-10-01T08:56:56Z</time>
      </trkpt>
      <trkpt lat="43.38767" lon="2.11117">
        <ele>575</ele>
        <time>2023-10-01T08:56:57Z</time>
      </trkpt>
      <trkpt lat="43.38762" lon="2.11116">
        <ele>575.2</ele>
        <time>2023-10-01T08:56:58Z</time>
      </trkpt>
      <trkpt lat="43.38755" lon="2.11115">
        <ele>575.4</ele>
        <time>2023-10-01T08:56:59Z</time>
      </trkpt>
      <trkpt lat="43.38748" lon="2.11113">
        <ele>575.4</ele>
        <time>2023-10-01T08:57:00Z</time>
      </trkpt>
      <trkpt lat="43.38741" lon="2.11111">
        <ele>575.8</ele>
        <time>2023-10-01T08:57:01Z</time>
      </trkpt>
      <trkpt lat="43.38734" lon="2.11108">
        <ele>575.8</ele>
        <time>2023-10-01T08:57:02Z</time>
      </trkpt>
      <trkpt lat="43.38728" lon="2.11104">
        <ele>576.2</ele>
        <time>2023-10-01T08:57:03Z</time>
      </trkpt>
      <trkpt lat="43.38722" lon="2.11099">
        <ele>576.6</ele>
        <time>2023-10-01T08:57:04Z</time>
      </trkpt>
      <trkpt lat="43.38716" lon="2.11095">
        <ele>577</ele>
        <time>2023-10-01T08:57:05Z</time>
      </trkpt>
      <trkpt lat="43.3871" lon="2.11089">
        <ele>577.4</ele>
        <time>2023-10-01T08:57:06Z</time>
      </trkpt>
      <trkpt lat="43.38705" lon="2.11084">
        <ele>577.4</ele>
        <time>2023-10-01T08:57:07Z</time>
      </trkpt>
      <trkpt lat="43.38701" lon="2.11079">
        <ele>577.8</ele>
        <time>2023-10-01T08:57:08Z</time>
      </trkpt>
      <trkpt lat="43.38697" lon="2.11074">
        <ele>578.2</ele>
        <time>2023-10-01T08:57:09Z</time>
      </trkpt>
      <trkpt lat="43.38695" lon="2.11068">
        <ele>578.8</ele>
        <time>2023-10-01T08:57:10Z</time>
      </trkpt>
      <trkpt lat="43.38694" lon="2.1106">
        <ele>579</ele>
        <time>2023-10-01T08:57:11Z</time>
      </trkpt>
      <trkpt lat="43.38693" lon="2.11055">
        <ele>579.2</ele>
        <time>2023-10-01T08:57:12Z</time>
      </trkpt>
      <trkpt lat="43.38692" lon="2.1105">
        <ele>579.4</ele>
        <time>2023-10-01T08:57:13Z</time>
      </trkpt>
      <trkpt lat="43.38691" lon="2.11046">
        <ele>579.4</ele>
        <time>2023-10-01T08:57:14Z</time>
      </trkpt>
      <trkpt lat="43.38691" lon="2.11041">
        <ele>579.6</ele>
        <time>2023-10-01T08:57:15Z</time>
      </trkpt>
      <trkpt lat="43.38691" lon="2.11035">
        <ele>579.6</ele>
        <time>2023-10-01T08:57:16Z</time>
      </trkpt>
      <trkpt lat="43.3869" lon="2.11029">
        <ele>579.8</ele>
        <time>2023-10-01T08:57:17Z</time>
      </trkpt>
      <trkpt lat="43.38692" lon="2.11022">
        <ele>579.8</ele>
        <time>2023-10-01T08:57:18Z</time>
      </trkpt>
      <trkpt lat="43.38694" lon="2.1102">
        <ele>579.8</ele>
        <time>2023-10-01T08:57:19Z</time>
      </trkpt>
      <trkpt lat="43.38698" lon="2.11021">
        <ele>580</ele>
        <time>2023-10-01T08:57:20Z</time>
      </trkpt>
      <trkpt lat="43.38701" lon="2.11023">
        <ele>580.2</ele>
        <time>2023-10-01T08:57:21Z</time>
      </trkpt>
      <trkpt lat="43.38703" lon="2.11027">
        <ele>580.4</ele>
        <time>2023-10-01T08:57:22Z</time>
      </trkpt>
      <trkpt lat="43.38706" lon="2.1103">
        <ele>580.6</ele>
        <time>2023-10-01T08:57:23Z</time>
      </trkpt>
      <trkpt lat="43.3871" lon="2.11034">
        <ele>580.8</ele>
        <time>2023-10-01T08:57:24Z</time>
      </trkpt>
      <trkpt lat="43.38714" lon="2.11037">
        <ele>580.8</ele>
        <time>2023-10-01T08:57:25Z</time>
      </trkpt>
      <trkpt lat="43.38717" lon="2.1104">
        <ele>581</ele>
        <time>2023-10-01T08:57:26Z</time>
      </trkpt>
      <trkpt lat="43.38721" lon="2.11043">
        <ele>581</ele>
        <time>2023-10-01T08:57:27Z</time>
      </trkpt>
      <trkpt lat="43.38726" lon="2.11045">
        <ele>581.2</ele>
        <time>2023-10-01T08:57:28Z</time>
      </trkpt>
      <trkpt lat="43.3873" lon="2.11047">
        <ele>581.6</ele>
        <time>2023-10-01T08:57:29Z</time>
      </trkpt>
      <trkpt lat="43.38735" lon="2.11049">
        <ele>581.8</ele>
        <time>2023-10-01T08:57:30Z</time>
      </trkpt>
      <trkpt lat="43.38739" lon="2.1105">
        <ele>582</ele>
        <time>2023-10-01T08:57:31Z</time>
      </trkpt>
      <trkpt lat="43.38744" lon="2.11052">
        <ele>582.2</ele>
        <time>2023-10-01T08:57:32Z</time>
      </trkpt>
      <trkpt lat="43.38749" lon="2.11052">
        <ele>582.4</ele>
        <time>2023-10-01T08:57:33Z</time>
      </trkpt>
      <trkpt lat="43.38754" lon="2.11053">
        <ele>582.8</ele>
        <time>2023-10-01T08:57:34Z</time>
      </trkpt>
      <trkpt lat="43.38759" lon="2.11052">
        <ele>583</ele>
        <time>2023-10-01T08:57:35Z</time>
      </trkpt>
      <trkpt lat="43.38764" lon="2.11052">
        <ele>583.4</ele>
        <time>2023-10-01T08:57:36Z</time>
      </trkpt>
      <trkpt lat="43.38769" lon="2.11051">
        <ele>583.6</ele>
        <time>2023-10-01T08:57:37Z</time>
      </trkpt>
      <trkpt lat="43.38774" lon="2.1105">
        <ele>583.8</ele>
        <time>2023-10-01T08:57:38Z</time>
      </trkpt>
      <trkpt lat="43.38778" lon="2.11049">
        <ele>583.8</ele>
        <time>2023-10-01T08:57:39Z</time>
      </trkpt>
      <trkpt lat="43.38783" lon="2.11047">
        <ele>584.2</ele>
        <time>2023-10-01T08:57:40Z</time>
      </trkpt>
      <trkpt lat="43.38787" lon="2.11045">
        <ele>584.4</ele>
        <time>2023-10-01T08:57:41Z</time>
      </trkpt>
      <trkpt lat="43.38791" lon="2.11043">
        <ele>584.6</ele>
        <time>2023-10-01T08:57:42Z</time>
      </trkpt>
      <trkpt lat="43.38795" lon="2.11041">
        <ele>585</ele>
        <time>2023-10-01T08:57:43Z</time>
      </trkpt>
      <trkpt lat="43.388" lon="2.11039">
        <ele>585.2</ele>
        <time>2023-10-01T08:57:44Z</time>
      </trkpt>
      <trkpt lat="43.38804" lon="2.11037">
        <ele>585.6</ele>
        <time>2023-10-01T08:57:45Z</time>
      </trkpt>
      <trkpt lat="43.38808" lon="2.11034">
        <ele>585.8</ele>
        <time>2023-10-01T08:57:46Z</time>
      </trkpt>
      <trkpt lat="43.38812" lon="2.1103">
        <ele>586.2</ele>
        <time>2023-10-01T08:57:47Z</time>
      </trkpt>
      <trkpt lat="43.38816" lon="2.11027">
        <ele>586.2</ele>
        <time>2023-10-01T08:57:48Z</time>
      </trkpt>
      <trkpt lat="43.38819" lon="2.11024">
        <ele>586.8</ele>
        <time>2023-10-01T08:57:49Z</time>
      </trkpt>
      <trkpt lat="43.38823" lon="2.1102">
        <ele>587.2</ele>
        <time>2023-10-01T08:57:50Z</time>
      </trkpt>
      <trkpt lat="43.38827" lon="2.11017">
        <ele>587.4</ele>
        <time>2023-10-01T08:57:51Z</time>
      </trkpt>
      <trkpt lat="43.3883" lon="2.11013">
        <ele>587.6</ele>
        <time>2023-10-01T08:57:52Z</time>
      </trkpt>
      <trkpt lat="43.38833" lon="2.11009">
        <ele>587.8</ele>
        <time>2023-10-01T08:57:53Z</time>
      </trkpt>
      <trkpt lat="43.38837" lon="2.11005">
        <ele>588</ele>
        <time>2023-10-01T08:57:54Z</time>
      </trkpt>
      <trkpt lat="43.3884" lon="2.11001">
        <ele>588.2</ele>
        <time>2023-10-01T08:57:55Z</time>
      </trkpt>
      <trkpt lat="43.38843" lon="2.10997">
        <ele>588.6</ele>
        <time>2023-10-01T08:57:56Z</time>
      </trkpt>
      <trkpt lat="43.38846" lon="2.10992">
        <ele>589</ele>
        <time>2023-10-01T08:57:57Z</time>
      </trkpt>
      <trkpt lat="43.38849" lon="2.10988">
        <ele>589.2</ele>
        <time>2023-10-01T08:57:58Z</time>
      </trkpt>
      <trkpt lat="43.38852" lon="2.10984">
        <ele>589.4</ele>
        <time>2023-10-01T08:57:59Z</time>
      </trkpt>
      <trkpt lat="43.38856" lon="2.1098">
        <ele>589.4</ele>
        <time>2023-10-01T08:58:00Z</time>
      </trkpt>
      <trkpt lat="43.38859" lon="2.10976">
        <ele>589.6</ele>
        <time>2023-10-01T08:58:01Z</time>
      </trkpt>
      <trkpt lat="43.38862" lon="2.10971">
        <ele>589.6</ele>
        <time>2023-10-01T08:58:02Z</time>
      </trkpt>
      <trkpt lat="43.38866" lon="2.10967">
        <ele>590</ele>
        <time>2023-10-01T08:58:03Z</time>
      </trkpt>
      <trkpt lat="43.38869" lon="2.10963">
        <ele>590.2</ele>
        <time>2023-10-01T08:58:04Z</time>
      </trkpt>
      <trkpt lat="43.38872" lon="2.10959">
        <ele>590.4</ele>
        <time>2023-10-01T08:58:05Z</time>
      </trkpt>
      <trkpt lat="43.38876" lon="2.10955">
        <ele>590.6</ele>
        <time>2023-10-01T08:58:06Z</time>
      </trkpt>
      <trkpt lat="43.3888" lon="2.10952">
        <ele>590.8</ele>
        <time>2023-10-01T08:58:07Z</time>
      </trkpt>
      <trkpt lat="43.38883" lon="2.10948">
        <ele>591</ele>
        <time>2023-10-01T08:58:08Z</time>
      </trkpt>
      <trkpt lat="43.38887" lon="2.10944">
        <ele>591</ele>
        <time>2023-10-01T08:58:09Z</time>
      </trkpt>
      <trkpt lat="43.38891" lon="2.10941">
        <ele>591.4</ele>
        <time>2023-10-01T08:58:10Z</time>
      </trkpt>
      <trkpt lat="43.38896" lon="2.10938">
        <ele>591.6</ele>
        <time>2023-10-01T08:58:11Z</time>
      </trkpt>
      <trkpt lat="43.38899" lon="2.10936">
        <ele>591.8</ele>
        <time>2023-10-01T08:58:12Z</time>
      </trkpt>
      <trkpt lat="43.38903" lon="2.10934">
        <ele>592.2</ele>
        <time>2023-10-01T08:58:13Z</time>
      </trkpt>
      <trkpt lat="43.38907" lon="2.10933">
        <ele>592.4</ele>
        <time>2023-10-01T08:58:14Z</time>
      </trkpt>
      <trkpt lat="43.38912" lon="2.10932">
        <ele>592.6</ele>
        <time>2023-10-01T08:58:15Z</time>
      </trkpt>
      <trkpt lat="43.38916" lon="2.10931">
        <ele>592.8</ele>
        <time>2023-10-01T08:58:16Z</time>
      </trkpt>
      <trkpt lat="43.3892" lon="2.10931">
        <ele>593</ele>
        <time>2023-10-01T08:58:17Z</time>
      </trkpt>
      <trkpt lat="43.38924" lon="2.10932">
        <ele>593.2</ele>
        <time>2023-10-01T08:58:18Z</time>
      </trkpt>
      <trkpt lat="43.38927" lon="2.10933">
        <ele>593.6</ele>
        <time>2023-10-01T08:58:19Z</time>
      </trkpt>
      <trkpt lat="43.38931" lon="2.10935">
        <ele>593.8</ele>
        <time>2023-10-01T08:58:20Z</time>
      </trkpt>
      <trkpt lat="43.38935" lon="2.10937">
        <ele>593.8</ele>
        <time>2023-10-01T08:58:21Z</time>
      </trkpt>
      <trkpt lat="43.38938" lon="2.1094">
        <ele>594</ele>
        <time>2023-10-01T08:58:22Z</time>
      </trkpt>
      <trkpt lat="43.38942" lon="2.10943">
        <ele>594.2</ele>
        <time>2023-10-01T08:58:23Z</time>
      </trkpt>
      <trkpt lat="43.38946" lon="2.10947">
        <ele>594.6</ele>
        <time>2023-10-01T08:58:24Z</time>
      </trkpt>
      <trkpt lat="43.3895" lon="2.10951">
        <ele>594.6</ele>
        <time>2023-10-01T08:58:25Z</time>
      </trkpt>
      <trkpt lat="43.38953" lon="2.10953">
        <ele>595</ele>
        <time>2023-10-01T08:58:26Z</time>
      </trkpt>
      <trkpt lat="43.38957" lon="2.10956">
        <ele>595.4</ele>
        <time>2023-10-01T08:58:27Z</time>
      </trkpt>
      <trkpt lat="43.38961" lon="2.10958">
        <ele>595.6</ele>
        <time>2023-10-01T08:58:28Z</time>
      </trkpt>
      <trkpt lat="43.38965" lon="2.1096">
        <ele>596.4</ele>
        <time>2023-10-01T08:58:29Z</time>
      </trkpt>
      <trkpt lat="43.3897" lon="2.10962">
        <ele>596.6</ele>
        <time>2023-10-01T08:58:30Z</time>
      </trkpt>
      <trkpt lat="43.38974" lon="2.10963">
        <ele>596.8</ele>
        <time>2023-10-01T08:58:31Z</time>
      </trkpt>
      <trkpt lat="43.38978" lon="2.10963">
        <ele>597</ele>
        <time>2023-10-01T08:58:32Z</time>
      </trkpt>
      <trkpt lat="43.38983" lon="2.10963">
        <ele>597.4</ele>
        <time>2023-10-01T08:58:33Z</time>
      </trkpt>
      <trkpt lat="43.38987" lon="2.10961">
        <ele>597.6</ele>
        <time>2023-10-01T08:58:34Z</time>
      </trkpt>
      <trkpt lat="43.38991" lon="2.10959">
        <ele>597.8</ele>
        <time>2023-10-01T08:58:35Z</time>
      </trkpt>
      <trkpt lat="43.38996" lon="2.10957">
        <ele>598.4</ele>
        <time>2023-10-01T08:58:36Z</time>
      </trkpt>
      <trkpt lat="43.39" lon="2.10955">
        <ele>598.6</ele>
        <time>2023-10-01T08:58:37Z</time>
      </trkpt>
      <trkpt lat="43.39004" lon="2.10952">
        <ele>599</ele>
        <time>2023-10-01T08:58:38Z</time>
      </trkpt>
      <trkpt lat="43.39008" lon="2.10948">
        <ele>599.2</ele>
        <time>2023-10-01T08:58:39Z</time>
      </trkpt>
      <trkpt lat="43.39012" lon="2.10945">
        <ele>599.4</ele>
        <time>2023-10-01T08:58:40Z</time>
      </trkpt>
      <trkpt lat="43.39016" lon="2.10941">
        <ele>599.8</ele>
        <time>2023-10-01T08:58:41Z</time>
      </trkpt>
      <trkpt lat="43.39019" lon="2.10937">
        <ele>600</ele>
        <time>2023-10-01T08:58:42Z</time>
      </trkpt>
      <trkpt lat="43.39023" lon="2.10932">
        <ele>600.6</ele>
        <time>2023-10-01T08:58:43Z</time>
      </trkpt>
      <trkpt lat="43.39027" lon="2.10928">
        <ele>600.8</ele>
        <time>2023-10-01T08:58:44Z</time>
      </trkpt>
      <trkpt lat="43.3903" lon="2.10923">
        <ele>601</ele>
        <time>2023-10-01T08:58:45Z</time>
      </trkpt>
      <trkpt lat="43.39034" lon="2.10919">
        <ele>601.2</ele>
        <time>2023-10-01T08:58:46Z</time>
      </trkpt>
      <trkpt lat="43.39038" lon="2.10915">
        <ele>601.4</ele>
        <time>2023-10-01T08:58:47Z</time>
      </trkpt>
      <trkpt lat="43.39042" lon="2.1091">
        <ele>601.6</ele>
        <time>2023-10-01T08:58:48Z</time>
      </trkpt>
      <trkpt lat="43.39045" lon="2.10906">
        <ele>601.6</ele>
        <time>2023-10-01T08:58:49Z</time>
      </trkpt>
      <trkpt lat="43.3905" lon="2.10902">
        <ele>602</ele>
        <time>2023-10-01T08:58:50Z</time>
      </trkpt>
      <trkpt lat="43.39053" lon="2.10898">
        <ele>602.2</ele>
        <time>2023-10-01T08:58:51Z</time>
      </trkpt>
      <trkpt lat="43.39057" lon="2.10894">
        <ele>602.4</ele>
        <time>2023-10-01T08:58:52Z</time>
      </trkpt>
      <trkpt lat="43.39061" lon="2.10889">
        <ele>602.6</ele>
        <time>2023-10-01T08:58:53Z</time>
      </trkpt>
      <trkpt lat="43.39065" lon="2.10885">
        <ele>603.2</ele>
        <time>2023-10-01T08:58:54Z</time>
      </trkpt>
      <trkpt lat="43.39068" lon="2.10882">
        <ele>603.4</ele>
        <time>2023-10-01T08:58:55Z</time>
      </trkpt>
      <trkpt lat="43.39071" lon="2.10878">
        <ele>603.8</ele>
        <time>2023-10-01T08:58:56Z</time>
      </trkpt>
      <trkpt lat="43.39075" lon="2.10875">
        <ele>604</ele>
        <time>2023-10-01T08:58:57Z</time>
      </trkpt>
      <trkpt lat="43.39079" lon="2.10871">
        <ele>604.2</ele>
        <time>2023-10-01T08:58:58Z</time>
      </trkpt>
      <trkpt lat="43.39083" lon="2.10868">
        <ele>604.8</ele>
        <time>2023-10-01T08:58:59Z</time>
      </trkpt>
      <trkpt lat="43.39088" lon="2.10865">
        <ele>605</ele>
        <time>2023-10-01T08:59:00Z</time>
      </trkpt>
      <trkpt lat="43.39092" lon="2.10862">
        <ele>605.4</ele>
        <time>2023-10-01T08:59:01Z</time>
      </trkpt>
      <trkpt lat="43.39096" lon="2.1086">
        <ele>605.4</ele>
        <time>2023-10-01T08:59:02Z</time>
      </trkpt>
      <trkpt lat="43.391" lon="2.10858">
        <ele>605.6</ele>
        <time>2023-10-01T08:59:03Z</time>
      </trkpt>
      <trkpt lat="43.39105" lon="2.10855">
        <ele>606</ele>
        <time>2023-10-01T08:59:04Z</time>
      </trkpt>
      <trkpt lat="43.39109" lon="2.10853">
        <ele>606.2</ele>
        <time>2023-10-01T08:59:05Z</time>
      </trkpt>
      <trkpt lat="43.39113" lon="2.10851">
        <ele>606.4</ele>
        <time>2023-10-01T08:59:06Z</time>
      </trkpt>
      <trkpt lat="43.39116" lon="2.10849">
        <ele>606.6</ele>
        <time>2023-10-01T08:59:07Z</time>
      </trkpt>
      <trkpt lat="43.3912" lon="2.10847">
        <ele>607</ele>
        <time>2023-10-01T08:59:08Z</time>
      </trkpt>
      <trkpt lat="43.39125" lon="2.10845">
        <ele>607</ele>
        <time>2023-10-01T08:59:09Z</time>
      </trkpt>
      <trkpt lat="43.39129" lon="2.10843">
        <ele>607.4</ele>
        <time>2023-10-01T08:59:10Z</time>
      </trkpt>
      <trkpt lat="43.39134" lon="2.10841">
        <ele>607.6</ele>
        <time>2023-10-01T08:59:11Z</time>
      </trkpt>
      <trkpt lat="43.39138" lon="2.10839">
        <ele>608</ele>
        <time>2023-10-01T08:59:12Z</time>
      </trkpt>
      <trkpt lat="43.39142" lon="2.10837">
        <ele>608.4</ele>
        <time>2023-10-01T08:59:13Z</time>
      </trkpt>
      <trkpt lat="43.39147" lon="2.10835">
        <ele>608.6</ele>
        <time>2023-10-01T08:59:14Z</time>
      </trkpt>
      <trkpt lat="43.39151" lon="2.10833">
        <ele>608.8</ele>
        <time>2023-10-01T08:59:15Z</time>
      </trkpt>
      <trkpt lat="43.39156" lon="2.1083">
        <ele>609</ele>
        <time>2023-10-01T08:59:16Z</time>
      </trkpt>
      <trkpt lat="43.3916" lon="2.10828">
        <ele>609.2</ele>
        <time>2023-10-01T08:59:17Z</time>
      </trkpt>
      <trkpt lat="43.39164" lon="2.10825">
        <ele>609.8</ele>
        <time>2023-10-01T08:59:18Z</time>
      </trkpt>
      <trkpt lat="43.39169" lon="2.10821">
        <ele>610</ele>
        <time>2023-10-01T08:59:19Z</time>
      </trkpt>
      <trkpt lat="43.39174" lon="2.10819">
        <ele>610.2</ele>
        <time>2023-10-01T08:59:20Z</time>
      </trkpt>
      <trkpt lat="43.39178" lon="2.10816">
        <ele>610.4</ele>
        <time>2023-10-01T08:59:21Z</time>
      </trkpt>
      <trkpt lat="43.39182" lon="2.10812">
        <ele>610.6</ele>
        <time>2023-10-01T08:59:22Z</time>
      </trkpt>
      <trkpt lat="43.39187" lon="2.10809">
        <ele>610.6</ele>
        <time>2023-10-01T08:59:23Z</time>
      </trkpt>
      <trkpt lat="43.39191" lon="2.10805">
        <ele>610.8</ele>
        <time>2023-10-01T08:59:24Z</time>
      </trkpt>
      <trkpt lat="43.39195" lon="2.10799">
        <ele>611.2</ele>
        <time>2023-10-01T08:59:25Z</time>
      </trkpt>
      <trkpt lat="43.39199" lon="2.10794">
        <ele>611.4</ele>
        <time>2023-10-01T08:59:26Z</time>
      </trkpt>
      <trkpt lat="43.39203" lon="2.1079">
        <ele>611.8</ele>
        <time>2023-10-01T08:59:27Z</time>
      </trkpt>
      <trkpt lat="43.39207" lon="2.10784">
        <ele>612</ele>
        <time>2023-10-01T08:59:28Z</time>
      </trkpt>
      <trkpt lat="43.39211" lon="2.10779">
        <ele>612.4</ele>
        <time>2023-10-01T08:59:29Z</time>
      </trkpt>
      <trkpt lat="43.39215" lon="2.10774">
        <ele>612.4</ele>
        <time>2023-10-01T08:59:30Z</time>
      </trkpt>
      <trkpt lat="43.39219" lon="2.10768">
        <ele>612.8</ele>
        <time>2023-10-01T08:59:31Z</time>
      </trkpt>
      <trkpt lat="43.39224" lon="2.10763">
        <ele>613</ele>
        <time>2023-10-01T08:59:32Z</time>
      </trkpt>
      <trkpt lat="43.39228" lon="2.10759">
        <ele>613.2</ele>
        <time>2023-10-01T08:59:33Z</time>
      </trkpt>
      <trkpt lat="43.39233" lon="2.10754">
        <ele>613.8</ele>
        <time>2023-10-01T08:59:34Z</time>
      </trkpt>
      <trkpt lat="43.39237" lon="2.1075">
        <ele>614</ele>
        <time>2023-10-01T08:59:35Z</time>
      </trkpt>
      <trkpt lat="43.39241" lon="2.10745">
        <ele>614.6</ele>
        <time>2023-10-01T08:59:36Z</time>
      </trkpt>
      <trkpt lat="43.39245" lon="2.1074">
        <ele>614.8</ele>
        <time>2023-10-01T08:59:37Z</time>
      </trkpt>
      <trkpt lat="43.39248" lon="2.10735">
        <ele>615</ele>
        <time>2023-10-01T08:59:38Z</time>
      </trkpt>
      <trkpt lat="43.39252" lon="2.1073">
        <ele>615.4</ele>
        <time>2023-10-01T08:59:39Z</time>
      </trkpt>
      <trkpt lat="43.39255" lon="2.10724">
        <ele>615.6</ele>
        <time>2023-10-01T08:59:40Z</time>
      </trkpt>
      <trkpt lat="43.39258" lon="2.1072">
        <ele>616</ele>
        <time>2023-10-01T08:59:41Z</time>
      </trkpt>
      <trkpt lat="43.3926" lon="2.10714">
        <ele>616.2</ele>
        <time>2023-10-01T08:59:42Z</time>
      </trkpt>
      <trkpt lat="43.39263" lon="2.10709">
        <ele>616.6</ele>
        <time>2023-10-01T08:59:43Z</time>
      </trkpt>
      <trkpt lat="43.39266" lon="2.10703">
        <ele>616.8</ele>
        <time>2023-10-01T08:59:44Z</time>
      </trkpt>
      <trkpt lat="43.39268" lon="2.10698">
        <ele>617.4</ele>
        <time>2023-10-01T08:59:45Z</time>
      </trkpt>
      <trkpt lat="43.39271" lon="2.10693">
        <ele>617.6</ele>
        <time>2023-10-01T08:59:46Z</time>
      </trkpt>
      <trkpt lat="43.39274" lon="2.10688">
        <ele>617.8</ele>
        <time>2023-10-01T08:59:47Z</time>
      </trkpt>
      <trkpt lat="43.39277" lon="2.10684">
        <ele>618</ele>
        <time>2023-10-01T08:59:48Z</time>
      </trkpt>
      <trkpt lat="43.39282" lon="2.1068">
        <ele>618.4</ele>
        <time>2023-10-01T08:59:49Z</time>
      </trkpt>
      <trkpt lat="43.39286" lon="2.10678">
        <ele>618.6</ele>
        <time>2023-10-01T08:59:50Z</time>
      </trkpt>
      <trkpt lat="43.39291" lon="2.10677">
        <ele>618.8</ele>
        <time>2023-10-01T08:59:51Z</time>
      </trkpt>
      <trkpt lat="43.39296" lon="2.10677">
        <ele>619</ele>
        <time>2023-10-01T08:59:52Z</time>
      </trkpt>
      <trkpt lat="43.393" lon="2.10679">
        <ele>619.2</ele>
        <time>2023-10-01T08:59:53Z</time>
      </trkpt>
      <trkpt lat="43.39304" lon="2.10681">
        <ele>619.2</ele>
        <time>2023-10-01T08:59:54Z</time>
      </trkpt>
      <trkpt lat="43.39308" lon="2.10685">
        <ele>619.4</ele>
        <time>2023-10-01T08:59:55Z</time>
      </trkpt>
      <trkpt lat="43.39311" lon="2.1069">
        <ele>619.4</ele>
        <time>2023-10-01T08:59:56Z</time>
      </trkpt>
      <trkpt lat="43.39314" lon="2.10695">
        <ele>619.6</ele>
        <time>2023-10-01T08:59:57Z</time>
      </trkpt>
      <trkpt lat="43.39317" lon="2.10701">
        <ele>619.6</ele>
        <time>2023-10-01T08:59:58Z</time>
      </trkpt>
      <trkpt lat="43.39319" lon="2.10707">
        <ele>619.8</ele>
        <time>2023-10-01T08:59:59Z</time>
      </trkpt>
      <trkpt lat="43.3932" lon="2.10713">
        <ele>620</ele>
        <time>2023-10-01T09:00:00Z</time>
      </trkpt>
      <trkpt lat="43.39322" lon="2.10719">
        <ele>620.2</ele>
        <time>2023-10-01T09:00:01Z</time>
      </trkpt>
      <trkpt lat="43.39324" lon="2.10725">
        <ele>620.8</ele>
        <time>2023-10-01T09:00:02Z</time>
      </trkpt>
      <trkpt lat="43.39326" lon="2.10731">
        <ele>621</ele>
        <time>2023-10-01T09:00:03Z</time>
      </trkpt>
      <trkpt lat="43.39327" lon="2.10737">
        <ele>621.4</ele>
        <time>2023-10-01T09:00:04Z</time>
      </trkpt>
      <trkpt lat="43.39329" lon="2.10743">
        <ele>621.6</ele>
        <time>2023-10-01T09:00:05Z</time>
      </trkpt>
      <trkpt lat="43.39331" lon="2.10748">
        <ele>622</ele>
        <time>2023-10-01T09:00:06Z</time>
      </trkpt>
      <trkpt lat="43.39333" lon="2.10754">
        <ele>622.4</ele>
        <time>2023-10-01T09:00:07Z</time>
      </trkpt>
      <trkpt lat="43.39336" lon="2.10758">
        <ele>622.8</ele>
        <time>2023-10-01T09:00:08Z</time>
      </trkpt>
      <trkpt lat="43.39339" lon="2.10763">
        <ele>623.2</ele>
        <time>2023-10-01T09:00:09Z</time>
      </trkpt>
      <trkpt lat="43.39341" lon="2.10767">
        <ele>623.4</ele>
        <time>2023-10-01T09:00:10Z</time>
      </trkpt>
      <trkpt lat="43.39344" lon="2.10771">
        <ele>623.6</ele>
        <time>2023-10-01T09:00:11Z</time>
      </trkpt>
      <trkpt lat="43.39347" lon="2.10774">
        <ele>623.6</ele>
        <time>2023-10-01T09:00:12Z</time>
      </trkpt>
      <trkpt lat="43.39349" lon="2.10777">
        <ele>623.8</ele>
        <time>2023-10-01T09:00:13Z</time>
      </trkpt>
      <trkpt lat="43.39351" lon="2.1078">
        <ele>623.8</ele>
        <time>2023-10-01T09:00:14Z</time>
      </trkpt>
      <trkpt lat="43.39352" lon="2.10784">
        <ele>623.8</ele>
        <time>2023-10-01T09:00:15Z</time>
      </trkpt>
      <trkpt lat="43.39352" lon="2.10787">
        <ele>624</ele>
        <time>2023-10-01T09:00:16Z</time>
      </trkpt>
      <trkpt lat="43.39351" lon="2.10791">
        <ele>624</ele>
        <time>2023-10-01T09:00:17Z</time>
      </trkpt>
      <trkpt lat="43.3935" lon="2.10795">
        <ele>624</ele>
        <time>2023-10-01T09:00:18Z</time>
      </trkpt>
      <trkpt lat="43.39349" lon="2.10799">
        <ele>624.2</ele>
        <time>2023-10-01T09:00:19Z</time>
      </trkpt>
      <trkpt lat="43.39349" lon="2.10803">
        <ele>624.2</ele>
        <time>2023-10-01T09:00:20Z</time>
      </trkpt>
      <trkpt lat="43.39349" lon="2.10804">
        <ele>624.2</ele>
        <time>2023-10-01T09:00:21Z</time>
      </trkpt>
      <trkpt lat="43.3935" lon="2.10804">
        <ele>624.2</ele>
        <time>2023-10-01T09:00:22Z</time>
      </trkpt>
      <trkpt lat="43.39351" lon="2.10802">
        <ele>624.2</ele>
        <time>2023-10-01T09:00:23Z</time>
      </trkpt>
      <trkpt lat="43.39352" lon="2.108">
        <ele>624.2</ele>
        <time>2023-10-01T09:00:24Z</time>
      </trkpt>
      <trkpt lat="43.39353" lon="2.10798">
        <ele>624.2</ele>
        <time>2023-10-01T09:00:25Z</time>
      </trkpt>
      <trkpt lat="43.39352" lon="2.10796">
        <ele>624.2</ele>
        <time>2023-10-01T09:00:26Z</time>
      </trkpt>
      <trkpt lat="43.39352" lon="2.10796">
        <ele>624.2</ele>
        <time>2023-10-01T09:00:27Z</time>
      </trkpt>
      <trkpt lat="43.39352" lon="2.10796">
        <ele>624.2</ele>
        <time>2023-10-01T09:00:28Z</time>
      </trkpt>
      <trkpt lat="43.39352" lon="2.10796">
        <ele>624.2</ele>
        <time>2023-10-01T09:00:29Z</time>
      </trkpt>
      <trkpt lat="43.39348" lon="2.108">
        <ele>623.8</ele>
        <time>2023-10-01T09:00:35Z</time>
      </trkpt>
      <trkpt lat="43.39347" lon="2.10803">
        <ele>623.8</ele>
        <time>2023-10-01T09:00:36Z</time>
      </trkpt>
      <trkpt lat="43.39346" lon="2.10806">
        <ele>623.8</ele>
        <time>2023-10-01T09:00:37Z</time>
      </trkpt>
      <trkpt lat="43.39344" lon="2.10809">
        <ele>623.8</ele>
        <time>2023-10-01T09:00:38Z</time>
      </trkpt>
      <trkpt lat="43.39341" lon="2.10815">
        <ele>624</ele>
        <time>2023-10-01T09:00:40Z</time>
      </trkpt>
      <trkpt lat="43.39342" lon="2.10818">
        <ele>624</ele>
        <time>2023-10-01T09:00:41Z</time>
      </trkpt>
      <trkpt lat="43.39343" lon="2.1082">
        <ele>624</ele>
        <time>2023-10-01T09:00:42Z</time>
      </trkpt>
      <trkpt lat="43.39344" lon="2.10822">
        <ele>624.2</ele>
        <time>2023-10-01T09:00:43Z</time>
      </trkpt>
      <trkpt lat="43.39346" lon="2.10824">
        <ele>624.2</ele>
        <time>2023-10-01T09:00:44Z</time>
      </trkpt>
      <trkpt lat="43.39349" lon="2.10826">
        <ele>624.2</ele>
        <time>2023-10-01T09:00:45Z</time>
      </trkpt>
      <trkpt lat="43.39352" lon="2.10828">
        <ele>624.2</ele>
        <time>2023-10-01T09:00:46Z</time>
      </trkpt>
      <trkpt lat="43.39354" lon="2.1083">
        <ele>624.2</ele>
        <time>2023-10-01T09:00:47Z</time>
      </trkpt>
      <trkpt lat="43.39356" lon="2.10835">
        <ele>624</ele>
        <time>2023-10-01T09:00:49Z</time>
      </trkpt>
      <trkpt lat="43.39357" lon="2.10839">
        <ele>623.8</ele>
        <time>2023-10-01T09:00:50Z</time>
      </trkpt>
      <trkpt lat="43.39358" lon="2.10841">
        <ele>623.6</ele>
        <time>2023-10-01T09:00:51Z</time>
      </trkpt>
      <trkpt lat="43.39359" lon="2.10844">
        <ele>623.4</ele>
        <time>2023-10-01T09:00:52Z</time>
      </trkpt>
      <trkpt lat="43.3936" lon="2.10845">
        <ele>623.2</ele>
        <time>2023-10-01T09:00:53Z</time>
      </trkpt>
      <trkpt lat="43.3936" lon="2.10846">
        <ele>623</ele>
        <time>2023-10-01T09:00:54Z</time>
      </trkpt>
      <trkpt lat="43.3936" lon="2.10846">
        <ele>623</ele>
        <time>2023-10-01T09:00:55Z</time>
      </trkpt>
      <trkpt lat="43.39361" lon="2.10846">
        <ele>622.8</ele>
        <time>2023-10-01T09:00:56Z</time>
      </trkpt>
      <trkpt lat="43.39362" lon="2.10857">
        <ele>622.4</ele>
        <time>2023-10-01T09:01:36Z</time>
      </trkpt>
      <trkpt lat="43.39363" lon="2.10868">
        <ele>622.8</ele>
        <time>2023-10-01T09:01:39Z</time>
      </trkpt>
      <trkpt lat="43.39363" lon="2.10872">
        <ele>623</ele>
        <time>2023-10-01T09:01:40Z</time>
      </trkpt>
      <trkpt lat="43.39364" lon="2.10875">
        <ele>623.2</ele>
        <time>2023-10-01T09:01:41Z</time>
      </trkpt>
      <trkpt lat="43.39365" lon="2.10877">
        <ele>623.4</ele>
        <time>2023-10-01T09:01:42Z</time>
      </trkpt>
      <trkpt lat="43.39366" lon="2.10878">
        <ele>623.6</ele>
        <time>2023-10-01T09:01:43Z</time>
      </trkpt>
      <trkpt lat="43.39366" lon="2.10879">
        <ele>623.8</ele>
        <time>2023-10-01T09:01:44Z</time>
      </trkpt>
      <trkpt lat="43.39367" lon="2.10881">
        <ele>624.2</ele>
        <time>2023-10-01T09:01:45Z</time>
      </trkpt>
      <trkpt lat="43.39368" lon="2.10883">
        <ele>624.4</ele>
        <time>2023-10-01T09:01:46Z</time>
      </trkpt>
      <trkpt lat="43.39376" lon="2.10902">
        <ele>625</ele>
        <time>2023-10-01T09:01:49Z</time>
      </trkpt>
      <trkpt lat="43.39391" lon="2.1093">
        <ele>625.4</ele>
        <time>2023-10-01T09:01:53Z</time>
      </trkpt>
      <trkpt lat="43.39394" lon="2.10937">
        <ele>625.6</ele>
        <time>2023-10-01T09:01:54Z</time>
      </trkpt>
      <trkpt lat="43.39397" lon="2.10942">
        <ele>625.6</ele>
        <time>2023-10-01T09:01:55Z</time>
      </trkpt>
      <trkpt lat="43.39399" lon="2.10952">
        <ele>626</ele>
        <time>2023-10-01T09:01:56Z</time>
      </trkpt>
      <trkpt lat="43.39405" lon="2.10961">
        <ele>626</ele>
        <time>2023-10-01T09:01:57Z</time>
      </trkpt>
      <trkpt lat="43.39409" lon="2.1097">
        <ele>626</ele>
        <time>2023-10-01T09:01:58Z</time>
      </trkpt>
      <trkpt lat="43.39413" lon="2.10978">
        <ele>626</ele>
        <time>2023-10-01T09:01:59Z</time>
      </trkpt>
      <trkpt lat="43.39415" lon="2.10985">
        <ele>626</ele>
        <time>2023-10-01T09:02:00Z</time>
      </trkpt>
      <trkpt lat="43.39417" lon="2.10993">
        <ele>625.8</ele>
        <time>2023-10-01T09:02:01Z</time>
      </trkpt>
      <trkpt lat="43.39418" lon="2.11007">
        <ele>625.8</ele>
        <time>2023-10-01T09:02:02Z</time>
      </trkpt>
      <trkpt lat="43.39417" lon="2.11018">
        <ele>625.4</ele>
        <time>2023-10-01T09:02:03Z</time>
      </trkpt>
      <trkpt lat="43.39418" lon="2.11027">
        <ele>625.4</ele>
        <time>2023-10-01T09:02:04Z</time>
      </trkpt>
      <trkpt lat="43.39419" lon="2.11037">
        <ele>625</ele>
        <time>2023-10-01T09:02:05Z</time>
      </trkpt>
      <trkpt lat="43.39421" lon="2.11047">
        <ele>624.8</ele>
        <time>2023-10-01T09:02:06Z</time>
      </trkpt>
      <trkpt lat="43.39423" lon="2.11056">
        <ele>624.4</ele>
        <time>2023-10-01T09:02:07Z</time>
      </trkpt>
      <trkpt lat="43.39425" lon="2.11066">
        <ele>624</ele>
        <time>2023-10-01T09:02:08Z</time>
      </trkpt>
      <trkpt lat="43.39427" lon="2.11077">
        <ele>623.8</ele>
        <time>2023-10-01T09:02:09Z</time>
      </trkpt>
      <trkpt lat="43.39428" lon="2.11088">
        <ele>623.6</ele>
        <time>2023-10-01T09:02:10Z</time>
      </trkpt>
      <trkpt lat="43.39429" lon="2.11096">
        <ele>623.2</ele>
        <time>2023-10-01T09:02:11Z</time>
      </trkpt>
      <trkpt lat="43.39429" lon="2.11103">
        <ele>622.6</ele>
        <time>2023-10-01T09:02:12Z</time>
      </trkpt>
      <trkpt lat="43.3943" lon="2.11108">
        <ele>622.4</ele>
        <time>2023-10-01T09:02:13Z</time>
      </trkpt>
      <trkpt lat="43.39432" lon="2.11113">
        <ele>622.4</ele>
        <time>2023-10-01T09:02:14Z</time>
      </trkpt>
      <trkpt lat="43.39433" lon="2.11118">
        <ele>622.2</ele>
        <time>2023-10-01T09:02:15Z</time>
      </trkpt>
      <trkpt lat="43.39433" lon="2.11129">
        <ele>622.2</ele>
        <time>2023-10-01T09:02:16Z</time>
      </trkpt>
      <trkpt lat="43.39434" lon="2.11137">
        <ele>622.2</ele>
        <time>2023-10-01T09:02:17Z</time>
      </trkpt>
      <trkpt lat="43.39434" lon="2.11143">
        <ele>622.2</ele>
        <time>2023-10-01T09:02:18Z</time>
      </trkpt>
      <trkpt lat="43.39436" lon="2.11154">
        <ele>622.6</ele>
        <time>2023-10-01T09:02:19Z</time>
      </trkpt>
      <trkpt lat="43.39438" lon="2.11174">
        <ele>623.2</ele>
        <time>2023-10-01T09:02:22Z</time>
      </trkpt>
      <trkpt lat="43.39438" lon="2.11182">
        <ele>623.2</ele>
        <time>2023-10-01T09:02:23Z</time>
      </trkpt>
      <trkpt lat="43.39437" lon="2.1119">
        <ele>623.6</ele>
        <time>2023-10-01T09:02:24Z</time>
      </trkpt>
      <trkpt lat="43.39437" lon="2.11201">
        <ele>623.6</ele>
        <time>2023-10-01T09:02:25Z</time>
      </trkpt>
      <trkpt lat="43.39441" lon="2.11238">
        <ele>624.4</ele>
        <time>2023-10-01T09:02:29Z</time>
      </trkpt>
      <trkpt lat="43.39442" lon="2.11244">
        <ele>624.4</ele>
        <time>2023-10-01T09:02:30Z</time>
      </trkpt>
      <trkpt lat="43.39443" lon="2.1125">
        <ele>624.6</ele>
        <time>2023-10-01T09:02:31Z</time>
      </trkpt>
      <trkpt lat="43.39443" lon="2.11259">
        <ele>624.6</ele>
        <time>2023-10-01T09:02:32Z</time>
      </trkpt>
      <trkpt lat="43.39447" lon="2.11285">
        <ele>625.6</ele>
        <time>2023-10-01T09:02:36Z</time>
      </trkpt>
      <trkpt lat="43.39446" lon="2.11293">
        <ele>625.6</ele>
        <time>2023-10-01T09:02:37Z</time>
      </trkpt>
      <trkpt lat="43.39446" lon="2.11298">
        <ele>626</ele>
        <time>2023-10-01T09:02:38Z</time>
      </trkpt>
      <trkpt lat="43.39445" lon="2.11304">
        <ele>626.4</ele>
        <time>2023-10-01T09:02:39Z</time>
      </trkpt>
      <trkpt lat="43.39446" lon="2.11313">
        <ele>626.6</ele>
        <time>2023-10-01T09:02:40Z</time>
      </trkpt>
      <trkpt lat="43.39448" lon="2.11321">
        <ele>627</ele>
        <time>2023-10-01T09:02:41Z</time>
      </trkpt>
      <trkpt lat="43.3945" lon="2.11329">
        <ele>627.2</ele>
        <time>2023-10-01T09:02:42Z</time>
      </trkpt>
      <trkpt lat="43.39452" lon="2.11334">
        <ele>627.4</ele>
        <time>2023-10-01T09:02:43Z</time>
      </trkpt>
      <trkpt lat="43.39455" lon="2.11339">
        <ele>627.6</ele>
        <time>2023-10-01T09:02:44Z</time>
      </trkpt>
      <trkpt lat="43.39458" lon="2.11345">
        <ele>628</ele>
        <time>2023-10-01T09:02:45Z</time>
      </trkpt>
      <trkpt lat="43.39462" lon="2.11352">
        <ele>628.2</ele>
        <time>2023-10-01T09:02:46Z</time>
      </trkpt>
      <trkpt lat="43.39466" lon="2.11356">
        <ele>628.4</ele>
        <time>2023-10-01T09:02:47Z</time>
      </trkpt>
      <trkpt lat="43.3947" lon="2.11359">
        <ele>628.6</ele>
        <time>2023-10-01T09:02:48Z</time>
      </trkpt>
      <trkpt lat="43.39474" lon="2.11362">
        <ele>628.6</ele>
        <time>2023-10-01T09:02:49Z</time>
      </trkpt>
      <trkpt lat="43.3948" lon="2.11364">
        <ele>628.6</ele>
        <time>2023-10-01T09:02:50Z</time>
      </trkpt>
      <trkpt lat="43.39485" lon="2.1137">
        <ele>628.8</ele>
        <time>2023-10-01T09:02:51Z</time>
      </trkpt>
      <trkpt lat="43.3949" lon="2.11378">
        <ele>628.8</ele>
        <time>2023-10-01T09:02:52Z</time>
      </trkpt>
      <trkpt lat="43.39494" lon="2.11384">
        <ele>628.8</ele>
        <time>2023-10-01T09:02:53Z</time>
      </trkpt>
      <trkpt lat="43.39497" lon="2.1139">
        <ele>629</ele>
        <time>2023-10-01T09:02:54Z</time>
      </trkpt>
      <trkpt lat="43.39499" lon="2.11397">
        <ele>629</ele>
        <time>2023-10-01T09:02:55Z</time>
      </trkpt>
      <trkpt lat="43.39501" lon="2.11403">
        <ele>629</ele>
        <time>2023-10-01T09:02:56Z</time>
      </trkpt>
      <trkpt lat="43.39505" lon="2.11409">
        <ele>629.2</ele>
        <time>2023-10-01T09:02:57Z</time>
      </trkpt>
      <trkpt lat="43.39508" lon="2.11415">
        <ele>629.2</ele>
        <time>2023-10-01T09:02:58Z</time>
      </trkpt>
      <trkpt lat="43.39511" lon="2.11421">
        <ele>629.8</ele>
        <time>2023-10-01T09:02:59Z</time>
      </trkpt>
      <trkpt lat="43.39514" lon="2.11427">
        <ele>630.2</ele>
        <time>2023-10-01T09:03:00Z</time>
      </trkpt>
      <trkpt lat="43.39516" lon="2.11432">
        <ele>630.4</ele>
        <time>2023-10-01T09:03:01Z</time>
      </trkpt>
      <trkpt lat="43.39521" lon="2.11439">
        <ele>630.6</ele>
        <time>2023-10-01T09:03:02Z</time>
      </trkpt>
      <trkpt lat="43.39524" lon="2.11444">
        <ele>630.8</ele>
        <time>2023-10-01T09:03:03Z</time>
      </trkpt>
      <trkpt lat="43.39528" lon="2.1145">
        <ele>631</ele>
        <time>2023-10-01T09:03:04Z</time>
      </trkpt>
      <trkpt lat="43.39532" lon="2.11457">
        <ele>631.2</ele>
        <time>2023-10-01T09:03:05Z</time>
      </trkpt>
      <trkpt lat="43.39534" lon="2.11462">
        <ele>631.2</ele>
        <time>2023-10-01T09:03:06Z</time>
      </trkpt>
      <trkpt lat="43.39536" lon="2.11468">
        <ele>631.4</ele>
        <time>2023-10-01T09:03:07Z</time>
      </trkpt>
      <trkpt lat="43.39539" lon="2.11473">
        <ele>631.6</ele>
        <time>2023-10-01T09:03:08Z</time>
      </trkpt>
      <trkpt lat="43.39542" lon="2.11477">
        <ele>631.6</ele>
        <time>2023-10-01T09:03:09Z</time>
      </trkpt>
      <trkpt lat="43.39544" lon="2.1148">
        <ele>631.8</ele>
        <time>2023-10-01T09:03:10Z</time>
      </trkpt>
      <trkpt lat="43.39542" lon="2.11484">
        <ele>632.2</ele>
        <time>2023-10-01T09:03:11Z</time>
      </trkpt>
      <trkpt lat="43.39544" lon="2.11487">
        <ele>632.2</ele>
        <time>2023-10-01T09:03:12Z</time>
      </trkpt>
      <trkpt lat="43.39545" lon="2.11487">
        <ele>632.6</ele>
        <time>2023-10-01T09:03:13Z</time>
      </trkpt>
      <trkpt lat="43.39547" lon="2.11488">
        <ele>632.8</ele>
        <time>2023-10-01T09:03:14Z</time>
      </trkpt>
      <trkpt lat="43.3955" lon="2.11488">
        <ele>632.8</ele>
        <time>2023-10-01T09:03:15Z</time>
      </trkpt>
      <trkpt lat="43.39553" lon="2.11488">
        <ele>632.8</ele>
        <time>2023-10-01T09:03:16Z</time>
      </trkpt>
      <trkpt lat="43.39557" lon="2.11487">
        <ele>633</ele>
        <time>2023-10-01T09:03:17Z</time>
      </trkpt>
      <trkpt lat="43.39561" lon="2.11488">
        <ele>633.2</ele>
        <time>2023-10-01T09:03:18Z</time>
      </trkpt>
      <trkpt lat="43.39564" lon="2.11488">
        <ele>633.4</ele>
        <time>2023-10-01T09:03:19Z</time>
      </trkpt>
      <trkpt lat="43.39567" lon="2.11488">
        <ele>633.6</ele>
        <time>2023-10-01T09:03:20Z</time>
      </trkpt>
      <trkpt lat="43.3957" lon="2.11488">
        <ele>633.6</ele>
        <time>2023-10-01T09:03:21Z</time>
      </trkpt>
      <trkpt lat="43.39573" lon="2.11489">
        <ele>633.6</ele>
        <time>2023-10-01T09:03:22Z</time>
      </trkpt>
      <trkpt lat="43.39575" lon="2.1149">
        <ele>633.8</ele>
        <time>2023-10-01T09:03:23Z</time>
      </trkpt>
      <trkpt lat="43.39577" lon="2.11491">
        <ele>634</ele>
        <time>2023-10-01T09:03:24Z</time>
      </trkpt>
      <trkpt lat="43.39579" lon="2.11493">
        <ele>634.2</ele>
        <time>2023-10-01T09:03:25Z</time>
      </trkpt>
      <trkpt lat="43.39582" lon="2.11496">
        <ele>634.2</ele>
        <time>2023-10-01T09:03:26Z</time>
      </trkpt>
      <trkpt lat="43.39585" lon="2.11499">
        <ele>634.6</ele>
        <time>2023-10-01T09:03:27Z</time>
      </trkpt>
      <trkpt lat="43.39589" lon="2.11502">
        <ele>634.8</ele>
        <time>2023-10-01T09:03:28Z</time>
      </trkpt>
      <trkpt lat="43.39593" lon="2.11504">
        <ele>635</ele>
        <time>2023-10-01T09:03:29Z</time>
      </trkpt>
      <trkpt lat="43.39597" lon="2.11507">
        <ele>635.2</ele>
        <time>2023-10-01T09:03:30Z</time>
      </trkpt>
      <trkpt lat="43.396" lon="2.11509">
        <ele>635.2</ele>
        <time>2023-10-01T09:03:31Z</time>
      </trkpt>
      <trkpt lat="43.39604" lon="2.11512">
        <ele>636</ele>
        <time>2023-10-01T09:03:32Z</time>
      </trkpt>
      <trkpt lat="43.39608" lon="2.11515">
        <ele>636.2</ele>
        <time>2023-10-01T09:03:33Z</time>
      </trkpt>
      <trkpt lat="43.39611" lon="2.11519">
        <ele>636.8</ele>
        <time>2023-10-01T09:03:34Z</time>
      </trkpt>
      <trkpt lat="43.39614" lon="2.11523">
        <ele>637</ele>
        <time>2023-10-01T09:03:35Z</time>
      </trkpt>
      <trkpt lat="43.39617" lon="2.11525">
        <ele>637.2</ele>
        <time>2023-10-01T09:03:36Z</time>
      </trkpt>
      <trkpt lat="43.39618" lon="2.11526">
        <ele>637.6</ele>
        <time>2023-10-01T09:03:37Z</time>
      </trkpt>
      <trkpt lat="43.39619" lon="2.1153">
        <ele>637.8</ele>
        <time>2023-10-01T09:03:38Z</time>
      </trkpt>
      <trkpt lat="43.3962" lon="2.11533">
        <ele>638.2</ele>
        <time>2023-10-01T09:03:39Z</time>
      </trkpt>
      <trkpt lat="43.39621" lon="2.11537">
        <ele>638.6</ele>
        <time>2023-10-01T09:03:40Z</time>
      </trkpt>
      <trkpt lat="43.39621" lon="2.11541">
        <ele>639.6</ele>
        <time>2023-10-01T09:03:41Z</time>
      </trkpt>
      <trkpt lat="43.39623" lon="2.11545">
        <ele>640</ele>
        <time>2023-10-01T09:03:42Z</time>
      </trkpt>
      <trkpt lat="43.39625" lon="2.1155">
        <ele>640.8</ele>
        <time>2023-10-01T09:03:43Z</time>
      </trkpt>
      <trkpt lat="43.39628" lon="2.11551">
        <ele>641.6</ele>
        <time>2023-10-01T09:03:44Z</time>
      </trkpt>
      <trkpt lat="43.39629" lon="2.11552">
        <ele>642</ele>
        <time>2023-10-01T09:03:45Z</time>
      </trkpt>
      <trkpt lat="43.39633" lon="2.11553">
        <ele>642.4</ele>
        <time>2023-10-01T09:03:46Z</time>
      </trkpt>
      <trkpt lat="43.39636" lon="2.11552">
        <ele>642.4</ele>
        <time>2023-10-01T09:03:47Z</time>
      </trkpt>
      <trkpt lat="43.3964" lon="2.11552">
        <ele>642.8</ele>
        <time>2023-10-01T09:03:48Z</time>
      </trkpt>
      <trkpt lat="43.39644" lon="2.11553">
        <ele>642.8</ele>
        <time>2023-10-01T09:03:49Z</time>
      </trkpt>
      <trkpt lat="43.39648" lon="2.11555">
        <ele>643</ele>
        <time>2023-10-01T09:03:50Z</time>
      </trkpt>
      <trkpt lat="43.39652" lon="2.11559">
        <ele>643</ele>
        <time>2023-10-01T09:03:51Z</time>
      </trkpt>
      <trkpt lat="43.39654" lon="2.11563">
        <ele>643</ele>
        <time>2023-10-01T09:03:52Z</time>
      </trkpt>
      <trkpt lat="43.39656" lon="2.11568">
        <ele>643</ele>
        <time>2023-10-01T09:03:53Z</time>
      </trkpt>
      <trkpt lat="43.39659" lon="2.11572">
        <ele>643</ele>
        <time>2023-10-01T09:03:54Z</time>
      </trkpt>
      <trkpt lat="43.39662" lon="2.11574">
        <ele>642.8</ele>
        <time>2023-10-01T09:03:55Z</time>
      </trkpt>
      <trkpt lat="43.39666" lon="2.11576">
        <ele>642.8</ele>
        <time>2023-10-01T09:03:56Z</time>
      </trkpt>
      <trkpt lat="43.39669" lon="2.11579">
        <ele>642.8</ele>
        <time>2023-10-01T09:03:57Z</time>
      </trkpt>
      <trkpt lat="43.39674" lon="2.11582">
        <ele>642.6</ele>
        <time>2023-10-01T09:03:58Z</time>
      </trkpt>
      <trkpt lat="43.39678" lon="2.11585">
        <ele>642.6</ele>
        <time>2023-10-01T09:03:59Z</time>
      </trkpt>
      <trkpt lat="43.39683" lon="2.11588">
        <ele>642.2</ele>
        <time>2023-10-01T09:04:00Z</time>
      </trkpt>
      <trkpt lat="43.39687" lon="2.11591">
        <ele>642</ele>
        <time>2023-10-01T09:04:01Z</time>
      </trkpt>
      <trkpt lat="43.39689" lon="2.11595">
        <ele>641.8</ele>
        <time>2023-10-01T09:04:02Z</time>
      </trkpt>
      <trkpt lat="43.39691" lon="2.11598">
        <ele>641.6</ele>
        <time>2023-10-01T09:04:03Z</time>
      </trkpt>
      <trkpt lat="43.39694" lon="2.11601">
        <ele>641.2</ele>
        <time>2023-10-01T09:04:04Z</time>
      </trkpt>
      <trkpt lat="43.39695" lon="2.11605">
        <ele>640.6</ele>
        <time>2023-10-01T09:04:05Z</time>
      </trkpt>
      <trkpt lat="43.39698" lon="2.11608">
        <ele>640.4</ele>
        <time>2023-10-01T09:04:06Z</time>
      </trkpt>
      <trkpt lat="43.39701" lon="2.11614">
        <ele>639.6</ele>
        <time>2023-10-01T09:04:07Z</time>
      </trkpt>
      <trkpt lat="43.3971" lon="2.11618">
        <ele>639.4</ele>
        <time>2023-10-01T09:04:08Z</time>
      </trkpt>
      <trkpt lat="43.39719" lon="2.11635">
        <ele>638.2</ele>
        <time>2023-10-01T09:04:11Z</time>
      </trkpt>
      <trkpt lat="43.39722" lon="2.11641">
        <ele>637.8</ele>
        <time>2023-10-01T09:04:12Z</time>
      </trkpt>
      <trkpt lat="43.39725" lon="2.11649">
        <ele>637.6</ele>
        <time>2023-10-01T09:04:13Z</time>
      </trkpt>
      <trkpt lat="43.39729" lon="2.11655">
        <ele>637</ele>
        <time>2023-10-01T09:04:14Z</time>
      </trkpt>
      <trkpt lat="43.39727" lon="2.11663">
        <ele>636.6</ele>
        <time>2023-10-01T09:04:16Z</time>
      </trkpt>
      <trkpt lat="43.39726" lon="2.11665">
        <ele>636.6</ele>
        <time>2023-10-01T09:04:17Z</time>
      </trkpt>
      <trkpt lat="43.39724" lon="2.11667">
        <ele>636.6</ele>
        <time>2023-10-01T09:04:18Z</time>
      </trkpt>
      <trkpt lat="43.39722" lon="2.1167">
        <ele>636.6</ele>
        <time>2023-10-01T09:04:19Z</time>
      </trkpt>
      <trkpt lat="43.3972" lon="2.11672">
        <ele>636.6</ele>
        <time>2023-10-01T09:04:20Z</time>
      </trkpt>
      <trkpt lat="43.39718" lon="2.11674">
        <ele>636.6</ele>
        <time>2023-10-01T09:04:21Z</time>
      </trkpt>
      <trkpt lat="43.39717" lon="2.11677">
        <ele>637.4</ele>
        <time>2023-10-01T09:04:23Z</time>
      </trkpt>
      <trkpt lat="43.39716" lon="2.11678">
        <ele>637.6</ele>
        <time>2023-10-01T09:04:24Z</time>
      </trkpt>
      <trkpt lat="43.39715" lon="2.11681">
        <ele>638.6</ele>
        <time>2023-10-01T09:04:25Z</time>
      </trkpt>
      <trkpt lat="43.39713" lon="2.11683">
        <ele>639.4</ele>
        <time>2023-10-01T09:04:26Z</time>
      </trkpt>
      <trkpt lat="43.39714" lon="2.11686">
        <ele>639.8</ele>
        <time>2023-10-01T09:04:27Z</time>
      </trkpt>
      <trkpt lat="43.39715" lon="2.11691">
        <ele>640.8</ele>
        <time>2023-10-01T09:04:28Z</time>
      </trkpt>
      <trkpt lat="43.39716" lon="2.11696">
        <ele>641</ele>
        <time>2023-10-01T09:04:29Z</time>
      </trkpt>
      <trkpt lat="43.3972" lon="2.11702">
        <ele>641.4</ele>
        <time>2023-10-01T09:04:30Z</time>
      </trkpt>
      <trkpt lat="43.39724" lon="2.11711">
        <ele>641.6</ele>
        <time>2023-10-01T09:04:31Z</time>
      </trkpt>
      <trkpt lat="43.39728" lon="2.11723">
        <ele>641.8</ele>
        <time>2023-10-01T09:04:33Z</time>
      </trkpt>
      <trkpt lat="43.39729" lon="2.11727">
        <ele>641.8</ele>
        <time>2023-10-01T09:04:34Z</time>
      </trkpt>
      <trkpt lat="43.39729" lon="2.11729">
        <ele>641.8</ele>
        <time>2023-10-01T09:04:35Z</time>
      </trkpt>
      <trkpt lat="43.3973" lon="2.11732">
        <ele>641.6</ele>
        <time>2023-10-01T09:04:36Z</time>
      </trkpt>
      <trkpt lat="43.39731" lon="2.11737">
        <ele>641.2</ele>
        <time>2023-10-01T09:04:37Z</time>
      </trkpt>
      <trkpt lat="43.39731" lon="2.11744">
        <ele>640.8</ele>
        <time>2023-10-01T09:04:38Z</time>
      </trkpt>
      <trkpt lat="43.39732" lon="2.11752">
        <ele>640</ele>
        <time>2023-10-01T09:04:39Z</time>
      </trkpt>
      <trkpt lat="43.39732" lon="2.11759">
        <ele>639.6</ele>
        <time>2023-10-01T09:04:40Z</time>
      </trkpt>
      <trkpt lat="43.39731" lon="2.11764">
        <ele>639.4</ele>
        <time>2023-10-01T09:04:41Z</time>
      </trkpt>
      <trkpt lat="43.39731" lon="2.11769">
        <ele>638.8</ele>
        <time>2023-10-01T09:04:42Z</time>
      </trkpt>
      <trkpt lat="43.39731" lon="2.11773">
        <ele>638.6</ele>
        <time>2023-10-01T09:04:43Z</time>
      </trkpt>
      <trkpt lat="43.39736" lon="2.11782">
        <ele>638.2</ele>
        <time>2023-10-01T09:04:44Z</time>
      </trkpt>
      <trkpt lat="43.39735" lon="2.11786">
        <ele>638.2</ele>
        <time>2023-10-01T09:04:45Z</time>
      </trkpt>
      <trkpt lat="43.39737" lon="2.11791">
        <ele>638.2</ele>
        <time>2023-10-01T09:04:46Z</time>
      </trkpt>
      <trkpt lat="43.39736" lon="2.11795">
        <ele>638.2</ele>
        <time>2023-10-01T09:04:47Z</time>
      </trkpt>
      <trkpt lat="43.39735" lon="2.11798">
        <ele>638.2</ele>
        <time>2023-10-01T09:04:48Z</time>
      </trkpt>
      <trkpt lat="43.39735" lon="2.11806">
        <ele>638.8</ele>
        <time>2023-10-01T09:04:49Z</time>
      </trkpt>
      <trkpt lat="43.39736" lon="2.11811">
        <ele>639</ele>
        <time>2023-10-01T09:04:50Z</time>
      </trkpt>
      <trkpt lat="43.39734" lon="2.11814">
        <ele>639.6</ele>
        <time>2023-10-01T09:04:51Z</time>
      </trkpt>
      <trkpt lat="43.39733" lon="2.11817">
        <ele>639.8</ele>
        <time>2023-10-01T09:04:52Z</time>
      </trkpt>
      <trkpt lat="43.39732" lon="2.11819">
        <ele>640.2</ele>
        <time>2023-10-01T09:04:53Z</time>
      </trkpt>
      <trkpt lat="43.39731" lon="2.11823">
        <ele>641</ele>
        <time>2023-10-01T09:04:54Z</time>
      </trkpt>
      <trkpt lat="43.39732" lon="2.11826">
        <ele>641.4</ele>
        <time>2023-10-01T09:04:55Z</time>
      </trkpt>
      <trkpt lat="43.39732" lon="2.11832">
        <ele>642.2</ele>
        <time>2023-10-01T09:04:57Z</time>
      </trkpt>
      <trkpt lat="43.39732" lon="2.11834">
        <ele>642.6</ele>
        <time>2023-10-01T09:04:58Z</time>
      </trkpt>
      <trkpt lat="43.39731" lon="2.11837">
        <ele>642.6</ele>
        <time>2023-10-01T09:04:59Z</time>
      </trkpt>
      <trkpt lat="43.39727" lon="2.11842">
        <ele>642.8</ele>
        <time>2023-10-01T09:05:00Z</time>
      </trkpt>
      <trkpt lat="43.39727" lon="2.11847">
        <ele>643</ele>
        <time>2023-10-01T09:05:01Z</time>
      </trkpt>
      <trkpt lat="43.39727" lon="2.11851">
        <ele>643.2</ele>
        <time>2023-10-01T09:05:02Z</time>
      </trkpt>
      <trkpt lat="43.39728" lon="2.11858">
        <ele>643.4</ele>
        <time>2023-10-01T09:05:03Z</time>
      </trkpt>
      <trkpt lat="43.39729" lon="2.11863">
        <ele>643.8</ele>
        <time>2023-10-01T09:05:04Z</time>
      </trkpt>
      <trkpt lat="43.39729" lon="2.11867">
        <ele>644.4</ele>
        <time>2023-10-01T09:05:05Z</time>
      </trkpt>
      <trkpt lat="43.39729" lon="2.1187">
        <ele>644.6</ele>
        <time>2023-10-01T09:05:06Z</time>
      </trkpt>
      <trkpt lat="43.39727" lon="2.11874">
        <ele>644.8</ele>
        <time>2023-10-01T09:05:07Z</time>
      </trkpt>
      <trkpt lat="43.39727" lon="2.11875">
        <ele>645.2</ele>
        <time>2023-10-01T09:05:08Z</time>
      </trkpt>
      <trkpt lat="43.39725" lon="2.11876">
        <ele>645.2</ele>
        <time>2023-10-01T09:05:09Z</time>
      </trkpt>
      <trkpt lat="43.39724" lon="2.11877">
        <ele>645.6</ele>
        <time>2023-10-01T09:05:10Z</time>
      </trkpt>
      <trkpt lat="43.39722" lon="2.11878">
        <ele>645.8</ele>
        <time>2023-10-01T09:05:11Z</time>
      </trkpt>
      <trkpt lat="43.39721" lon="2.11882">
        <ele>646.4</ele>
        <time>2023-10-01T09:05:12Z</time>
      </trkpt>
      <trkpt lat="43.3972" lon="2.11885">
        <ele>646.6</ele>
        <time>2023-10-01T09:05:13Z</time>
      </trkpt>
      <trkpt lat="43.39718" lon="2.11888">
        <ele>646.8</ele>
        <time>2023-10-01T09:05:14Z</time>
      </trkpt>
      <trkpt lat="43.39716" lon="2.11891">
        <ele>647</ele>
        <time>2023-10-01T09:05:15Z</time>
      </trkpt>
      <trkpt lat="43.39715" lon="2.11894">
        <ele>647.4</ele>
        <time>2023-10-01T09:05:16Z</time>
      </trkpt>
      <trkpt lat="43.39712" lon="2.11898">
        <ele>648</ele>
        <time>2023-10-01T09:05:17Z</time>
      </trkpt>
      <trkpt lat="43.39711" lon="2.11902">
        <ele>648.4</ele>
        <time>2023-10-01T09:05:18Z</time>
      </trkpt>
      <trkpt lat="43.39708" lon="2.11906">
        <ele>649</ele>
        <time>2023-10-01T09:05:19Z</time>
      </trkpt>
      <trkpt lat="43.39705" lon="2.1191">
        <ele>649.4</ele>
        <time>2023-10-01T09:05:20Z</time>
      </trkpt>
      <trkpt lat="43.39704" lon="2.11912">
        <ele>650</ele>
        <time>2023-10-01T09:05:21Z</time>
      </trkpt>
      <trkpt lat="43.39703" lon="2.11913">
        <ele>650.4</ele>
        <time>2023-10-01T09:05:22Z</time>
      </trkpt>
      <trkpt lat="43.39704" lon="2.11914">
        <ele>651</ele>
        <time>2023-10-01T09:05:23Z</time>
      </trkpt>
      <trkpt lat="43.39706" lon="2.11916">
        <ele>651.4</ele>
        <time>2023-10-01T09:05:24Z</time>
      </trkpt>
      <trkpt lat="43.39707" lon="2.11918">
        <ele>651.8</ele>
        <time>2023-10-01T09:05:25Z</time>
      </trkpt>
      <trkpt lat="43.39709" lon="2.11921">
        <ele>652</ele>
        <time>2023-10-01T09:05:26Z</time>
      </trkpt>
      <trkpt lat="43.39711" lon="2.11924">
        <ele>652</ele>
        <time>2023-10-01T09:05:27Z</time>
      </trkpt>
      <trkpt lat="43.39714" lon="2.11926">
        <ele>652.2</ele>
        <time>2023-10-01T09:05:28Z</time>
      </trkpt>
      <trkpt lat="43.39716" lon="2.11928">
        <ele>652.2</ele>
        <time>2023-10-01T09:05:29Z</time>
      </trkpt>
      <trkpt lat="43.39718" lon="2.11936">
        <ele>652</ele>
        <time>2023-10-01T09:05:30Z</time>
      </trkpt>
      <trkpt lat="43.3972" lon="2.11939">
        <ele>652</ele>
        <time>2023-10-01T09:05:31Z</time>
      </trkpt>
      <trkpt lat="43.39721" lon="2.11943">
        <ele>652</ele>
        <time>2023-10-01T09:05:32Z</time>
      </trkpt>
      <trkpt lat="43.39725" lon="2.11947">
        <ele>652</ele>
        <time>2023-10-01T09:05:33Z</time>
      </trkpt>
      <trkpt lat="43.39728" lon="2.11952">
        <ele>651.6</ele>
        <time>2023-10-01T09:05:34Z</time>
      </trkpt>
      <trkpt lat="43.39731" lon="2.11958">
        <ele>651</ele>
        <time>2023-10-01T09:05:35Z</time>
      </trkpt>
      <trkpt lat="43.39735" lon="2.11962">
        <ele>650.8</ele>
        <time>2023-10-01T09:05:36Z</time>
      </trkpt>
      <trkpt lat="43.39738" lon="2.11967">
        <ele>650.4</ele>
        <time>2023-10-01T09:05:37Z</time>
      </trkpt>
      <trkpt lat="43.3974" lon="2.11973">
        <ele>650</ele>
        <time>2023-10-01T09:05:38Z</time>
      </trkpt>
      <trkpt lat="43.39743" lon="2.11979">
        <ele>650</ele>
        <time>2023-10-01T09:05:39Z</time>
      </trkpt>
      <trkpt lat="43.39746" lon="2.11983">
        <ele>649</ele>
        <time>2023-10-01T09:05:40Z</time>
      </trkpt>
      <trkpt lat="43.39748" lon="2.11987">
        <ele>648.6</ele>
        <time>2023-10-01T09:05:41Z</time>
      </trkpt>
      <trkpt lat="43.39751" lon="2.1199">
        <ele>647.6</ele>
        <time>2023-10-01T09:05:42Z</time>
      </trkpt>
      <trkpt lat="43.39754" lon="2.11995">
        <ele>646.6</ele>
        <time>2023-10-01T09:05:43Z</time>
      </trkpt>
      <trkpt lat="43.39756" lon="2.12">
        <ele>645</ele>
        <time>2023-10-01T09:05:44Z</time>
      </trkpt>
      <trkpt lat="43.39757" lon="2.12005">
        <ele>643.6</ele>
        <time>2023-10-01T09:05:45Z</time>
      </trkpt>
      <trkpt lat="43.3976" lon="2.1201">
        <ele>643.2</ele>
        <time>2023-10-01T09:05:46Z</time>
      </trkpt>
      <trkpt lat="43.39764" lon="2.12016">
        <ele>642</ele>
        <time>2023-10-01T09:05:47Z</time>
      </trkpt>
      <trkpt lat="43.39769" lon="2.12024">
        <ele>641.2</ele>
        <time>2023-10-01T09:05:48Z</time>
      </trkpt>
      <trkpt lat="43.39772" lon="2.12036">
        <ele>640.4</ele>
        <time>2023-10-01T09:05:49Z</time>
      </trkpt>
      <trkpt lat="43.39775" lon="2.12045">
        <ele>639.8</ele>
        <time>2023-10-01T09:05:50Z</time>
      </trkpt>
      <trkpt lat="43.39777" lon="2.12054">
        <ele>638</ele>
        <time>2023-10-01T09:05:51Z</time>
      </trkpt>
      <trkpt lat="43.39777" lon="2.12064">
        <ele>636.8</ele>
        <time>2023-10-01T09:05:52Z</time>
      </trkpt>
      <trkpt lat="43.39773" lon="2.12071">
        <ele>636.4</ele>
        <time>2023-10-01T09:05:53Z</time>
      </trkpt>
      <trkpt lat="43.39768" lon="2.12077">
        <ele>635.8</ele>
        <time>2023-10-01T09:05:54Z</time>
      </trkpt>
      <trkpt lat="43.39764" lon="2.12081">
        <ele>635.4</ele>
        <time>2023-10-01T09:05:55Z</time>
      </trkpt>
      <trkpt lat="43.39762" lon="2.12084">
        <ele>635</ele>
        <time>2023-10-01T09:05:56Z</time>
      </trkpt>
      <trkpt lat="43.39759" lon="2.12086">
        <ele>634.8</ele>
        <time>2023-10-01T09:05:57Z</time>
      </trkpt>
      <trkpt lat="43.39756" lon="2.1209">
        <ele>634.8</ele>
        <time>2023-10-01T09:05:58Z</time>
      </trkpt>
      <trkpt lat="43.39751" lon="2.12092">
        <ele>634.8</ele>
        <time>2023-10-01T09:05:59Z</time>
      </trkpt>
      <trkpt lat="43.39748" lon="2.12094">
        <ele>634.6</ele>
        <time>2023-10-01T09:06:00Z</time>
      </trkpt>
      <trkpt lat="43.39746" lon="2.12095">
        <ele>634.8</ele>
        <time>2023-10-01T09:06:01Z</time>
      </trkpt>
      <trkpt lat="43.39744" lon="2.12095">
        <ele>635</ele>
        <time>2023-10-01T09:06:02Z</time>
      </trkpt>
      <trkpt lat="43.39741" lon="2.12095">
        <ele>635.2</ele>
        <time>2023-10-01T09:06:03Z</time>
      </trkpt>
      <trkpt lat="43.39738" lon="2.12097">
        <ele>635.4</ele>
        <time>2023-10-01T09:06:04Z</time>
      </trkpt>
      <trkpt lat="43.39735" lon="2.12098">
        <ele>635.6</ele>
        <time>2023-10-01T09:06:05Z</time>
      </trkpt>
      <trkpt lat="43.39733" lon="2.12101">
        <ele>636</ele>
        <time>2023-10-01T09:06:06Z</time>
      </trkpt>
      <trkpt lat="43.39729" lon="2.12103">
        <ele>636.2</ele>
        <time>2023-10-01T09:06:07Z</time>
      </trkpt>
      <trkpt lat="43.39727" lon="2.12103">
        <ele>636.8</ele>
        <time>2023-10-01T09:06:08Z</time>
      </trkpt>
      <trkpt lat="43.39723" lon="2.12104">
        <ele>637.2</ele>
        <time>2023-10-01T09:06:09Z</time>
      </trkpt>
      <trkpt lat="43.3972" lon="2.12106">
        <ele>637.6</ele>
        <time>2023-10-01T09:06:10Z</time>
      </trkpt>
      <trkpt lat="43.39717" lon="2.12107">
        <ele>637.8</ele>
        <time>2023-10-01T09:06:11Z</time>
      </trkpt>
      <trkpt lat="43.39714" lon="2.12108">
        <ele>638.2</ele>
        <time>2023-10-01T09:06:12Z</time>
      </trkpt>
      <trkpt lat="43.3971" lon="2.12109">
        <ele>638.8</ele>
        <time>2023-10-01T09:06:13Z</time>
      </trkpt>
      <trkpt lat="43.39687" lon="2.12121">
        <ele>640</ele>
        <time>2023-10-01T09:06:19Z</time>
      </trkpt>
      <trkpt lat="43.39682" lon="2.12123">
        <ele>640.6</ele>
        <time>2023-10-01T09:06:21Z</time>
      </trkpt>
      <trkpt lat="43.39673" lon="2.12127">
        <ele>641.4</ele>
        <time>2023-10-01T09:06:24Z</time>
      </trkpt>
      <trkpt lat="43.39669" lon="2.1213">
        <ele>641.6</ele>
        <time>2023-10-01T09:06:25Z</time>
      </trkpt>
      <trkpt lat="43.39665" lon="2.12131">
        <ele>641.8</ele>
        <time>2023-10-01T09:06:26Z</time>
      </trkpt>
      <trkpt lat="43.39662" lon="2.12132">
        <ele>642.6</ele>
        <time>2023-10-01T09:06:27Z</time>
      </trkpt>
      <trkpt lat="43.39659" lon="2.12133">
        <ele>642.8</ele>
        <time>2023-10-01T09:06:28Z</time>
      </trkpt>
      <trkpt lat="43.39656" lon="2.12134">
        <ele>643.2</ele>
        <time>2023-10-01T09:06:29Z</time>
      </trkpt>
      <trkpt lat="43.39653" lon="2.12135">
        <ele>643.4</ele>
        <time>2023-10-01T09:06:30Z</time>
      </trkpt>
      <trkpt lat="43.3965" lon="2.12136">
        <ele>643.6</ele>
        <time>2023-10-01T09:06:31Z</time>
      </trkpt>
      <trkpt lat="43.39648" lon="2.12135">
        <ele>643.8</ele>
        <time>2023-10-01T09:06:32Z</time>
      </trkpt>
      <trkpt lat="43.39645" lon="2.12137">
        <ele>644</ele>
        <time>2023-10-01T09:06:33Z</time>
      </trkpt>
      <trkpt lat="43.39642" lon="2.12136">
        <ele>644.4</ele>
        <time>2023-10-01T09:06:34Z</time>
      </trkpt>
      <trkpt lat="43.39638" lon="2.1214">
        <ele>644.4</ele>
        <time>2023-10-01T09:06:35Z</time>
      </trkpt>
      <trkpt lat="43.39634" lon="2.12143">
        <ele>644.8</ele>
        <time>2023-10-01T09:06:36Z</time>
      </trkpt>
      <trkpt lat="43.39631" lon="2.12147">
        <ele>645</ele>
        <time>2023-10-01T09:06:37Z</time>
      </trkpt>
      <trkpt lat="43.39628" lon="2.12149">
        <ele>645.2</ele>
        <time>2023-10-01T09:06:38Z</time>
      </trkpt>
      <trkpt lat="43.39626" lon="2.12151">
        <ele>645.4</ele>
        <time>2023-10-01T09:06:39Z</time>
      </trkpt>
      <trkpt lat="43.39622" lon="2.12155">
        <ele>646</ele>
        <time>2023-10-01T09:06:40Z</time>
      </trkpt>
      <trkpt lat="43.39619" lon="2.12157">
        <ele>646.2</ele>
        <time>2023-10-01T09:06:41Z</time>
      </trkpt>
      <trkpt lat="43.39615" lon="2.12158">
        <ele>646.4</ele>
        <time>2023-10-01T09:06:42Z</time>
      </trkpt>
      <trkpt lat="43.39612" lon="2.1216">
        <ele>646.6</ele>
        <time>2023-10-01T09:06:43Z</time>
      </trkpt>
      <trkpt lat="43.39608" lon="2.12162">
        <ele>646.8</ele>
        <time>2023-10-01T09:06:44Z</time>
      </trkpt>
      <trkpt lat="43.39604" lon="2.12165">
        <ele>647</ele>
        <time>2023-10-01T09:06:45Z</time>
      </trkpt>
      <trkpt lat="43.39603" lon="2.12166">
        <ele>647.2</ele>
        <time>2023-10-01T09:06:46Z</time>
      </trkpt>
      <trkpt lat="43.39598" lon="2.12168">
        <ele>647.4</ele>
        <time>2023-10-01T09:06:47Z</time>
      </trkpt>
      <trkpt lat="43.39596" lon="2.1217">
        <ele>647.6</ele>
        <time>2023-10-01T09:06:48Z</time>
      </trkpt>
      <trkpt lat="43.39594" lon="2.12172">
        <ele>647.8</ele>
        <time>2023-10-01T09:06:49Z</time>
      </trkpt>
      <trkpt lat="43.39591" lon="2.12175">
        <ele>648.2</ele>
        <time>2023-10-01T09:06:50Z</time>
      </trkpt>
      <trkpt lat="43.39588" lon="2.12178">
        <ele>648.2</ele>
        <time>2023-10-01T09:06:51Z</time>
      </trkpt>
      <trkpt lat="43.39585" lon="2.12179">
        <ele>648.6</ele>
        <time>2023-10-01T09:06:52Z</time>
      </trkpt>
      <trkpt lat="43.39582" lon="2.12183">
        <ele>648.8</ele>
        <time>2023-10-01T09:06:53Z</time>
      </trkpt>
      <trkpt lat="43.39578" lon="2.12189">
        <ele>649.2</ele>
        <time>2023-10-01T09:06:54Z</time>
      </trkpt>
      <trkpt lat="43.39574" lon="2.12194">
        <ele>649.4</ele>
        <time>2023-10-01T09:06:55Z</time>
      </trkpt>
      <trkpt lat="43.3957" lon="2.12198">
        <ele>649.6</ele>
        <time>2023-10-01T09:06:56Z</time>
      </trkpt>
      <trkpt lat="43.39567" lon="2.12202">
        <ele>649.6</ele>
        <time>2023-10-01T09:06:57Z</time>
      </trkpt>
      <trkpt lat="43.39565" lon="2.12205">
        <ele>649.8</ele>
        <time>2023-10-01T09:06:58Z</time>
      </trkpt>
      <trkpt lat="43.39562" lon="2.12209">
        <ele>650</ele>
        <time>2023-10-01T09:06:59Z</time>
      </trkpt>
      <trkpt lat="43.39557" lon="2.12213">
        <ele>650</ele>
        <time>2023-10-01T09:07:00Z</time>
      </trkpt>
      <trkpt lat="43.39552" lon="2.12217">
        <ele>650</ele>
        <time>2023-10-01T09:07:01Z</time>
      </trkpt>
      <trkpt lat="43.39549" lon="2.1222">
        <ele>650.2</ele>
        <time>2023-10-01T09:07:02Z</time>
      </trkpt>
      <trkpt lat="43.39544" lon="2.12222">
        <ele>650.2</ele>
        <time>2023-10-01T09:07:03Z</time>
      </trkpt>
      <trkpt lat="43.39539" lon="2.12225">
        <ele>650.4</ele>
        <time>2023-10-01T09:07:04Z</time>
      </trkpt>
      <trkpt lat="43.39535" lon="2.1223">
        <ele>650.4</ele>
        <time>2023-10-01T09:07:05Z</time>
      </trkpt>
      <trkpt lat="43.39532" lon="2.12235">
        <ele>650.6</ele>
        <time>2023-10-01T09:07:06Z</time>
      </trkpt>
      <trkpt lat="43.3953" lon="2.1224">
        <ele>650.6</ele>
        <time>2023-10-01T09:07:07Z</time>
      </trkpt>
      <trkpt lat="43.39527" lon="2.12247">
        <ele>650.6</ele>
        <time>2023-10-01T09:07:08Z</time>
      </trkpt>
      <trkpt lat="43.39525" lon="2.12256">
        <ele>650.6</ele>
        <time>2023-10-01T09:07:09Z</time>
      </trkpt>
      <trkpt lat="43.39521" lon="2.12263">
        <ele>650.6</ele>
        <time>2023-10-01T09:07:10Z</time>
      </trkpt>
      <trkpt lat="43.39518" lon="2.1227">
        <ele>650.6</ele>
        <time>2023-10-01T09:07:11Z</time>
      </trkpt>
      <trkpt lat="43.39516" lon="2.12277">
        <ele>650.4</ele>
        <time>2023-10-01T09:07:12Z</time>
      </trkpt>
      <trkpt lat="43.39515" lon="2.1228">
        <ele>650.4</ele>
        <time>2023-10-01T09:07:13Z</time>
      </trkpt>
      <trkpt lat="43.39514" lon="2.12281">
        <ele>650.2</ele>
        <time>2023-10-01T09:07:14Z</time>
      </trkpt>
      <trkpt lat="43.39513" lon="2.12281">
        <ele>649.6</ele>
        <time>2023-10-01T09:07:15Z</time>
      </trkpt>
      <trkpt lat="43.39513" lon="2.12285">
        <ele>649.2</ele>
        <time>2023-10-01T09:07:16Z</time>
      </trkpt>
      <trkpt lat="43.3951" lon="2.12289">
        <ele>648.8</ele>
        <time>2023-10-01T09:07:17Z</time>
      </trkpt>
      <trkpt lat="43.39504" lon="2.12296">
        <ele>648.2</ele>
        <time>2023-10-01T09:07:19Z</time>
      </trkpt>
      <trkpt lat="43.39504" lon="2.12296">
        <ele>648</ele>
        <time>2023-10-01T09:07:20Z</time>
      </trkpt>
      <trkpt lat="43.39504" lon="2.12297">
        <ele>647.8</ele>
        <time>2023-10-01T09:07:21Z</time>
      </trkpt>
      <trkpt lat="43.39504" lon="2.12297">
        <ele>647.6</ele>
        <time>2023-10-01T09:07:22Z</time>
      </trkpt>
      <trkpt lat="43.39504" lon="2.12297">
        <ele>647.6</ele>
        <time>2023-10-01T09:07:23Z</time>
      </trkpt>
      <trkpt lat="43.39504" lon="2.12297">
        <ele>647.2</ele>
        <time>2023-10-01T09:07:25Z</time>
      </trkpt>
      <trkpt lat="43.39507" lon="2.12293">
        <ele>646.8</ele>
        <time>2023-10-01T09:07:27Z</time>
      </trkpt>
      <trkpt lat="43.39508" lon="2.12291">
        <ele>646.8</ele>
        <time>2023-10-01T09:07:28Z</time>
      </trkpt>
      <trkpt lat="43.39509" lon="2.12288">
        <ele>646.8</ele>
        <time>2023-10-01T09:07:29Z</time>
      </trkpt>
      <trkpt lat="43.39511" lon="2.12287">
        <ele>646.8</ele>
        <time>2023-10-01T09:07:30Z</time>
      </trkpt>
      <trkpt lat="43.39512" lon="2.12286">
        <ele>646.6</ele>
        <time>2023-10-01T09:07:31Z</time>
      </trkpt>
      <trkpt lat="43.39513" lon="2.12283">
        <ele>646.6</ele>
        <time>2023-10-01T09:07:32Z</time>
      </trkpt>
      <trkpt lat="43.39513" lon="2.12283">
        <ele>646.6</ele>
        <time>2023-10-01T09:07:33Z</time>
      </trkpt>
      <trkpt lat="43.39513" lon="2.12283">
        <ele>646.6</ele>
        <time>2023-10-01T09:07:34Z</time>
      </trkpt>
      <trkpt lat="43.39513" lon="2.12283">
        <ele>646.8</ele>
        <time>2023-10-01T09:07:35Z</time>
      </trkpt>
      <trkpt lat="43.39514" lon="2.12288">
        <ele>647.2</ele>
        <time>2023-10-01T09:07:43Z</time>
      </trkpt>
      <trkpt lat="43.39515" lon="2.12294">
        <ele>647.2</ele>
        <time>2023-10-01T09:07:45Z</time>
      </trkpt>
      <trkpt lat="43.39515" lon="2.12296">
        <ele>647</ele>
        <time>2023-10-01T09:07:46Z</time>
      </trkpt>
      <trkpt lat="43.39514" lon="2.123">
        <ele>647</ele>
        <time>2023-10-01T09:07:47Z</time>
      </trkpt>
      <trkpt lat="43.39514" lon="2.12303">
        <ele>646.4</ele>
        <time>2023-10-01T09:07:48Z</time>
      </trkpt>
      <trkpt lat="43.39514" lon="2.12312">
        <ele>646</ele>
        <time>2023-10-01T09:07:50Z</time>
      </trkpt>
      <trkpt lat="43.39513" lon="2.12317">
        <ele>646</ele>
        <time>2023-10-01T09:07:51Z</time>
      </trkpt>
      <trkpt lat="43.39512" lon="2.12326">
        <ele>644.6</ele>
        <time>2023-10-01T09:07:53Z</time>
      </trkpt>
      <trkpt lat="43.39508" lon="2.12332">
        <ele>643.8</ele>
        <time>2023-10-01T09:07:54Z</time>
      </trkpt>
      <trkpt lat="43.39505" lon="2.12336">
        <ele>643.2</ele>
        <time>2023-10-01T09:07:55Z</time>
      </trkpt>
      <trkpt lat="43.39502" lon="2.12342">
        <ele>643</ele>
        <time>2023-10-01T09:07:56Z</time>
      </trkpt>
      <trkpt lat="43.39499" lon="2.12346">
        <ele>642.4</ele>
        <time>2023-10-01T09:07:57Z</time>
      </trkpt>
      <trkpt lat="43.39496" lon="2.12352">
        <ele>642.2</ele>
        <time>2023-10-01T09:07:58Z</time>
      </trkpt>
      <trkpt lat="43.39494" lon="2.12359">
        <ele>642</ele>
        <time>2023-10-01T09:07:59Z</time>
      </trkpt>
      <trkpt lat="43.39492" lon="2.12363">
        <ele>641.4</ele>
        <time>2023-10-01T09:08:00Z</time>
      </trkpt>
      <trkpt lat="43.39493" lon="2.12366">
        <ele>641.2</ele>
        <time>2023-10-01T09:08:01Z</time>
      </trkpt>
      <trkpt lat="43.39494" lon="2.12367">
        <ele>641</ele>
        <time>2023-10-01T09:08:02Z</time>
      </trkpt>
      <trkpt lat="43.39497" lon="2.12368">
        <ele>640.8</ele>
        <time>2023-10-01T09:08:03Z</time>
      </trkpt>
      <trkpt lat="43.395" lon="2.12369">
        <ele>639.8</ele>
        <time>2023-10-01T09:08:04Z</time>
      </trkpt>
      <trkpt lat="43.39503" lon="2.12369">
        <ele>639.6</ele>
        <time>2023-10-01T09:08:05Z</time>
      </trkpt>
      <trkpt lat="43.39507" lon="2.12372">
        <ele>638.2</ele>
        <time>2023-10-01T09:08:07Z</time>
      </trkpt>
      <trkpt lat="43.39509" lon="2.12374">
        <ele>637.2</ele>
        <time>2023-10-01T09:08:08Z</time>
      </trkpt>
      <trkpt lat="43.39511" lon="2.12377">
        <ele>635.6</ele>
        <time>2023-10-01T09:08:09Z</time>
      </trkpt>
      <trkpt lat="43.39511" lon="2.12377">
        <ele>635.2</ele>
        <time>2023-10-01T09:08:10Z</time>
      </trkpt>
      <trkpt lat="43.39514" lon="2.12378">
        <ele>634</ele>
        <time>2023-10-01T09:08:11Z</time>
      </trkpt>
      <trkpt lat="43.39518" lon="2.1238">
        <ele>633.6</ele>
        <time>2023-10-01T09:08:12Z</time>
      </trkpt>
      <trkpt lat="43.39522" lon="2.12383">
        <ele>633.2</ele>
        <time>2023-10-01T09:08:13Z</time>
      </trkpt>
      <trkpt lat="43.39529" lon="2.12389">
        <ele>633</ele>
        <time>2023-10-01T09:08:14Z</time>
      </trkpt>
      <trkpt lat="43.39534" lon="2.12395">
        <ele>632.2</ele>
        <time>2023-10-01T09:08:15Z</time>
      </trkpt>
      <trkpt lat="43.39542" lon="2.12401">
        <ele>631.6</ele>
        <time>2023-10-01T09:08:16Z</time>
      </trkpt>
      <trkpt lat="43.3955" lon="2.12406">
        <ele>631.4</ele>
        <time>2023-10-01T09:08:17Z</time>
      </trkpt>
      <trkpt lat="43.39558" lon="2.12409">
        <ele>631.2</ele>
        <time>2023-10-01T09:08:18Z</time>
      </trkpt>
      <trkpt lat="43.39563" lon="2.12412">
        <ele>630.8</ele>
        <time>2023-10-01T09:08:19Z</time>
      </trkpt>
      <trkpt lat="43.39568" lon="2.12416">
        <ele>630</ele>
        <time>2023-10-01T09:08:20Z</time>
      </trkpt>
      <trkpt lat="43.39586" lon="2.12433">
        <ele>629</ele>
        <time>2023-10-01T09:08:23Z</time>
      </trkpt>
      <trkpt lat="43.39594" lon="2.12438">
        <ele>628.8</ele>
        <time>2023-10-01T09:08:24Z</time>
      </trkpt>
      <trkpt lat="43.39608" lon="2.1245">
        <ele>628</ele>
        <time>2023-10-01T09:08:26Z</time>
      </trkpt>
      <trkpt lat="43.39617" lon="2.12457">
        <ele>627</ele>
        <time>2023-10-01T09:08:27Z</time>
      </trkpt>
      <trkpt lat="43.39623" lon="2.12465">
        <ele>626.6</ele>
        <time>2023-10-01T09:08:28Z</time>
      </trkpt>
      <trkpt lat="43.39629" lon="2.12472">
        <ele>625.4</ele>
        <time>2023-10-01T09:08:29Z</time>
      </trkpt>
      <trkpt lat="43.39636" lon="2.12483">
        <ele>624.4</ele>
        <time>2023-10-01T09:08:31Z</time>
      </trkpt>
      <trkpt lat="43.39639" lon="2.12484">
        <ele>623.8</ele>
        <time>2023-10-01T09:08:32Z</time>
      </trkpt>
      <trkpt lat="43.3964" lon="2.12484">
        <ele>623.4</ele>
        <time>2023-10-01T09:08:33Z</time>
      </trkpt>
      <trkpt lat="43.39641" lon="2.12482">
        <ele>622.4</ele>
        <time>2023-10-01T09:08:34Z</time>
      </trkpt>
      <trkpt lat="43.39641" lon="2.1248">
        <ele>622</ele>
        <time>2023-10-01T09:08:35Z</time>
      </trkpt>
      <trkpt lat="43.39641" lon="2.12477">
        <ele>621.2</ele>
        <time>2023-10-01T09:08:36Z</time>
      </trkpt>
      <trkpt lat="43.39639" lon="2.12474">
        <ele>620.6</ele>
        <time>2023-10-01T09:08:37Z</time>
      </trkpt>
      <trkpt lat="43.39637" lon="2.12471">
        <ele>620.2</ele>
        <time>2023-10-01T09:08:38Z</time>
      </trkpt>
      <trkpt lat="43.39635" lon="2.12467">
        <ele>619.4</ele>
        <time>2023-10-01T09:08:39Z</time>
      </trkpt>
      <trkpt lat="43.39623" lon="2.1245">
        <ele>618.6</ele>
        <time>2023-10-01T09:08:43Z</time>
      </trkpt>
      <trkpt lat="43.39606" lon="2.12432">
        <ele>618.6</ele>
        <time>2023-10-01T09:08:47Z</time>
      </trkpt>
      <trkpt lat="43.39604" lon="2.12425">
        <ele>618.6</ele>
        <time>2023-10-01T09:08:48Z</time>
      </trkpt>
      <trkpt lat="43.39602" lon="2.12418">
        <ele>618.6</ele>
        <time>2023-10-01T09:08:49Z</time>
      </trkpt>
      <trkpt lat="43.39603" lon="2.12411">
        <ele>618.6</ele>
        <time>2023-10-01T09:08:50Z</time>
      </trkpt>
      <trkpt lat="43.39605" lon="2.12404">
        <ele>618.8</ele>
        <time>2023-10-01T09:08:51Z</time>
      </trkpt>
      <trkpt lat="43.39609" lon="2.12399">
        <ele>619</ele>
        <time>2023-10-01T09:08:52Z</time>
      </trkpt>
      <trkpt lat="43.39613" lon="2.12394">
        <ele>619.2</ele>
        <time>2023-10-01T09:08:53Z</time>
      </trkpt>
      <trkpt lat="43.39616" lon="2.1239">
        <ele>619.4</ele>
        <time>2023-10-01T09:08:54Z</time>
      </trkpt>
      <trkpt lat="43.39626" lon="2.12378">
        <ele>619.4</ele>
        <time>2023-10-01T09:08:56Z</time>
      </trkpt>
      <trkpt lat="43.39631" lon="2.12371">
        <ele>619.6</ele>
        <time>2023-10-01T09:08:57Z</time>
      </trkpt>
      <trkpt lat="43.39649" lon="2.12339">
        <ele>619.6</ele>
        <time>2023-10-01T09:09:01Z</time>
      </trkpt>
      <trkpt lat="43.39674" lon="2.12298">
        <ele>619.2</ele>
        <time>2023-10-01T09:09:07Z</time>
      </trkpt>
      <trkpt lat="43.39697" lon="2.1226">
        <ele>618.8</ele>
        <time>2023-10-01T09:09:13Z</time>
      </trkpt>
      <trkpt lat="43.39701" lon="2.12255">
        <ele>618.6</ele>
        <time>2023-10-01T09:09:14Z</time>
      </trkpt>
      <trkpt lat="43.39705" lon="2.12249">
        <ele>618.6</ele>
        <time>2023-10-01T09:09:15Z</time>
      </trkpt>
      <trkpt lat="43.39709" lon="2.12244">
        <ele>618.6</ele>
        <time>2023-10-01T09:09:16Z</time>
      </trkpt>
      <trkpt lat="43.39718" lon="2.12235">
        <ele>618.4</ele>
        <time>2023-10-01T09:09:18Z</time>
      </trkpt>
      <trkpt lat="43.39724" lon="2.12232">
        <ele>618.2</ele>
        <time>2023-10-01T09:09:19Z</time>
      </trkpt>
      <trkpt lat="43.39734" lon="2.12226">
        <ele>618.2</ele>
        <time>2023-10-01T09:09:21Z</time>
      </trkpt>
      <trkpt lat="43.3974" lon="2.12224">
        <ele>618.2</ele>
        <time>2023-10-01T09:09:22Z</time>
      </trkpt>
      <trkpt lat="43.39746" lon="2.1222">
        <ele>618.2</ele>
        <time>2023-10-01T09:09:23Z</time>
      </trkpt>
      <trkpt lat="43.3975" lon="2.12217">
        <ele>618.2</ele>
        <time>2023-10-01T09:09:24Z</time>
      </trkpt>
      <trkpt lat="43.39755" lon="2.12213">
        <ele>618</ele>
        <time>2023-10-01T09:09:25Z</time>
      </trkpt>
      <trkpt lat="43.3976" lon="2.12209">
        <ele>618</ele>
        <time>2023-10-01T09:09:26Z</time>
      </trkpt>
      <trkpt lat="43.39765" lon="2.12204">
        <ele>618</ele>
        <time>2023-10-01T09:09:27Z</time>
      </trkpt>
      <trkpt lat="43.39774" lon="2.12193">
        <ele>617.8</ele>
        <time>2023-10-01T09:09:29Z</time>
      </trkpt>
      <trkpt lat="43.39783" lon="2.12179">
        <ele>617.6</ele>
        <time>2023-10-01T09:09:31Z</time>
      </trkpt>
      <trkpt lat="43.39787" lon="2.12173">
        <ele>617.6</ele>
        <time>2023-10-01T09:09:32Z</time>
      </trkpt>
      <trkpt lat="43.39794" lon="2.1216">
        <ele>617.6</ele>
        <time>2023-10-01T09:09:34Z</time>
      </trkpt>
      <trkpt lat="43.39796" lon="2.12144">
        <ele>617.6</ele>
        <time>2023-10-01T09:09:36Z</time>
      </trkpt>
      <trkpt lat="43.398" lon="2.12127">
        <ele>617.4</ele>
        <time>2023-10-01T09:09:38Z</time>
      </trkpt>
      <trkpt lat="43.39801" lon="2.12118">
        <ele>617.4</ele>
        <time>2023-10-01T09:09:39Z</time>
      </trkpt>
      <trkpt lat="43.39802" lon="2.12108">
        <ele>617.4</ele>
        <time>2023-10-01T09:09:40Z</time>
      </trkpt>
      <trkpt lat="43.39804" lon="2.12053">
        <ele>617.4</ele>
        <time>2023-10-01T09:09:46Z</time>
      </trkpt>
      <trkpt lat="43.39804" lon="2.12043">
        <ele>617.4</ele>
        <time>2023-10-01T09:09:47Z</time>
      </trkpt>
      <trkpt lat="43.39802" lon="2.1201">
        <ele>617.4</ele>
        <time>2023-10-01T09:09:51Z</time>
      </trkpt>
      <trkpt lat="43.39803" lon="2.12002">
        <ele>617.4</ele>
        <time>2023-10-01T09:09:52Z</time>
      </trkpt>
      <trkpt lat="43.39807" lon="2.11991">
        <ele>617.4</ele>
        <time>2023-10-01T09:09:53Z</time>
      </trkpt>
      <trkpt lat="43.39809" lon="2.11981">
        <ele>617.4</ele>
        <time>2023-10-01T09:09:54Z</time>
      </trkpt>
      <trkpt lat="43.3981" lon="2.11965">
        <ele>617.4</ele>
        <time>2023-10-01T09:09:56Z</time>
      </trkpt>
      <trkpt lat="43.39812" lon="2.11958">
        <ele>617.4</ele>
        <time>2023-10-01T09:09:57Z</time>
      </trkpt>
      <trkpt lat="43.39812" lon="2.11948">
        <ele>617.4</ele>
        <time>2023-10-01T09:09:58Z</time>
      </trkpt>
      <trkpt lat="43.39813" lon="2.11939">
        <ele>617.4</ele>
        <time>2023-10-01T09:09:59Z</time>
      </trkpt>
      <trkpt lat="43.39815" lon="2.11931">
        <ele>617.4</ele>
        <time>2023-10-01T09:10:00Z</time>
      </trkpt>
      <trkpt lat="43.39814" lon="2.11925">
        <ele>617.4</ele>
        <time>2023-10-01T09:10:01Z</time>
      </trkpt>
      <trkpt lat="43.39814" lon="2.11919">
        <ele>617.4</ele>
        <time>2023-10-01T09:10:02Z</time>
      </trkpt>
      <trkpt lat="43.39814" lon="2.11915">
        <ele>617.4</ele>
        <time>2023-10-01T09:10:03Z</time>
      </trkpt>
      <trkpt lat="43.39811" lon="2.11907">
        <ele>617.4</ele>
        <time>2023-10-01T09:10:04Z</time>
      </trkpt>
      <trkpt lat="43.3981" lon="2.11903">
        <ele>617.2</ele>
        <time>2023-10-01T09:10:05Z</time>
      </trkpt>
      <trkpt lat="43.39809" lon="2.11899">
        <ele>617</ele>
        <time>2023-10-01T09:10:06Z</time>
      </trkpt>
      <trkpt lat="43.39807" lon="2.11893">
        <ele>617</ele>
        <time>2023-10-01T09:10:07Z</time>
      </trkpt>
      <trkpt lat="43.39805" lon="2.11875">
        <ele>617</ele>
        <time>2023-10-01T09:10:11Z</time>
      </trkpt>
      <trkpt lat="43.39804" lon="2.11867">
        <ele>617</ele>
        <time>2023-10-01T09:10:12Z</time>
      </trkpt>
      <trkpt lat="43.39802" lon="2.1186">
        <ele>617</ele>
        <time>2023-10-01T09:10:13Z</time>
      </trkpt>
      <trkpt lat="43.39793" lon="2.11842">
        <ele>617</ele>
        <time>2023-10-01T09:10:15Z</time>
      </trkpt>
      <trkpt lat="43.3979" lon="2.11837">
        <ele>617</ele>
        <time>2023-10-01T09:10:16Z</time>
      </trkpt>
      <trkpt lat="43.39787" lon="2.11832">
        <ele>617</ele>
        <time>2023-10-01T09:10:17Z</time>
      </trkpt>
      <trkpt lat="43.39773" lon="2.11798">
        <ele>616.8</ele>
        <time>2023-10-01T09:10:22Z</time>
      </trkpt>
      <trkpt lat="43.39773" lon="2.1179">
        <ele>616.6</ele>
        <time>2023-10-01T09:10:23Z</time>
      </trkpt>
      <trkpt lat="43.3977" lon="2.11782">
        <ele>616.6</ele>
        <time>2023-10-01T09:10:24Z</time>
      </trkpt>
      <trkpt lat="43.39767" lon="2.11774">
        <ele>616.6</ele>
        <time>2023-10-01T09:10:25Z</time>
      </trkpt>
      <trkpt lat="43.39766" lon="2.11765">
        <ele>616.4</ele>
        <time>2023-10-01T09:10:26Z</time>
      </trkpt>
      <trkpt lat="43.39763" lon="2.11751">
        <ele>616.4</ele>
        <time>2023-10-01T09:10:28Z</time>
      </trkpt>
      <trkpt lat="43.39765" lon="2.11738">
        <ele>616.4</ele>
        <time>2023-10-01T09:10:30Z</time>
      </trkpt>
      <trkpt lat="43.39766" lon="2.11731">
        <ele>616.4</ele>
        <time>2023-10-01T09:10:31Z</time>
      </trkpt>
      <trkpt lat="43.39765" lon="2.11721">
        <ele>616.4</ele>
        <time>2023-10-01T09:10:32Z</time>
      </trkpt>
      <trkpt lat="43.39762" lon="2.11682">
        <ele>616.2</ele>
        <time>2023-10-01T09:10:37Z</time>
      </trkpt>
      <trkpt lat="43.39762" lon="2.11674">
        <ele>616.2</ele>
        <time>2023-10-01T09:10:38Z</time>
      </trkpt>
      <trkpt lat="43.39762" lon="2.11666">
        <ele>616.2</ele>
        <time>2023-10-01T09:10:39Z</time>
      </trkpt>
      <trkpt lat="43.39761" lon="2.11651">
        <ele>616</ele>
        <time>2023-10-01T09:10:41Z</time>
      </trkpt>
      <trkpt lat="43.39759" lon="2.11644">
        <ele>616</ele>
        <time>2023-10-01T09:10:42Z</time>
      </trkpt>
      <trkpt lat="43.39757" lon="2.11637">
        <ele>616</ele>
        <time>2023-10-01T09:10:43Z</time>
      </trkpt>
      <trkpt lat="43.39755" lon="2.1163">
        <ele>616</ele>
        <time>2023-10-01T09:10:44Z</time>
      </trkpt>
      <trkpt lat="43.39753" lon="2.11622">
        <ele>616</ele>
        <time>2023-10-01T09:10:45Z</time>
      </trkpt>
      <trkpt lat="43.39753" lon="2.11614">
        <ele>616</ele>
        <time>2023-10-01T09:10:46Z</time>
      </trkpt>
      <trkpt lat="43.39752" lon="2.11606">
        <ele>615.8</ele>
        <time>2023-10-01T09:10:47Z</time>
      </trkpt>
      <trkpt lat="43.39751" lon="2.11595">
        <ele>615.8</ele>
        <time>2023-10-01T09:10:48Z</time>
      </trkpt>
      <trkpt lat="43.3975" lon="2.11586">
        <ele>615.8</ele>
        <time>2023-10-01T09:10:49Z</time>
      </trkpt>
      <trkpt lat="43.39746" lon="2.11563">
        <ele>615.6</ele>
        <time>2023-10-01T09:10:52Z</time>
      </trkpt>
      <trkpt lat="43.39744" lon="2.11559">
        <ele>615.6</ele>
        <time>2023-10-01T09:10:53Z</time>
      </trkpt>
      <trkpt lat="43.39743" lon="2.11555">
        <ele>615.6</ele>
        <time>2023-10-01T09:10:54Z</time>
      </trkpt>
      <trkpt lat="43.39742" lon="2.11552">
        <ele>615.6</ele>
        <time>2023-10-01T09:10:55Z</time>
      </trkpt>
      <trkpt lat="43.39742" lon="2.11546">
        <ele>615.6</ele>
        <time>2023-10-01T09:10:56Z</time>
      </trkpt>
      <trkpt lat="43.39741" lon="2.1154">
        <ele>615.4</ele>
        <time>2023-10-01T09:10:57Z</time>
      </trkpt>
      <trkpt lat="43.39742" lon="2.11533">
        <ele>615.4</ele>
        <time>2023-10-01T09:10:58Z</time>
      </trkpt>
      <trkpt lat="43.39742" lon="2.11528">
        <ele>615.4</ele>
        <time>2023-10-01T09:10:59Z</time>
      </trkpt>
      <trkpt lat="43.39744" lon="2.11523">
        <ele>615.4</ele>
        <time>2023-10-01T09:11:00Z</time>
      </trkpt>
      <trkpt lat="43.39746" lon="2.11517">
        <ele>615</ele>
        <time>2023-10-01T09:11:01Z</time>
      </trkpt>
      <trkpt lat="43.39746" lon="2.11511">
        <ele>615</ele>
        <time>2023-10-01T09:11:02Z</time>
      </trkpt>
      <trkpt lat="43.39747" lon="2.11496">
        <ele>614.6</ele>
        <time>2023-10-01T09:11:04Z</time>
      </trkpt>
      <trkpt lat="43.39747" lon="2.1149">
        <ele>614.4</ele>
        <time>2023-10-01T09:11:05Z</time>
      </trkpt>
      <trkpt lat="43.39746" lon="2.11484">
        <ele>614.2</ele>
        <time>2023-10-01T09:11:06Z</time>
      </trkpt>
      <trkpt lat="43.39746" lon="2.11477">
        <ele>613.8</ele>
        <time>2023-10-01T09:11:07Z</time>
      </trkpt>
      <trkpt lat="43.39746" lon="2.11473">
        <ele>613</ele>
        <time>2023-10-01T09:11:08Z</time>
      </trkpt>
      <trkpt lat="43.39749" lon="2.11471">
        <ele>612.6</ele>
        <time>2023-10-01T09:11:09Z</time>
      </trkpt>
      <trkpt lat="43.39751" lon="2.11468">
        <ele>611.4</ele>
        <time>2023-10-01T09:11:10Z</time>
      </trkpt>
      <trkpt lat="43.39754" lon="2.11468">
        <ele>611</ele>
        <time>2023-10-01T09:11:11Z</time>
      </trkpt>
      <trkpt lat="43.39757" lon="2.11467">
        <ele>609.6</ele>
        <time>2023-10-01T09:11:12Z</time>
      </trkpt>
      <trkpt lat="43.39759" lon="2.11464">
        <ele>608.4</ele>
        <time>2023-10-01T09:11:13Z</time>
      </trkpt>
      <trkpt lat="43.39759" lon="2.11461">
        <ele>607.8</ele>
        <time>2023-10-01T09:11:14Z</time>
      </trkpt>
      <trkpt lat="43.39758" lon="2.11459">
        <ele>606.8</ele>
        <time>2023-10-01T09:11:15Z</time>
      </trkpt>
      <trkpt lat="43.39756" lon="2.11457">
        <ele>606.4</ele>
        <time>2023-10-01T09:11:16Z</time>
      </trkpt>
      <trkpt lat="43.39753" lon="2.11455">
        <ele>606</ele>
        <time>2023-10-01T09:11:17Z</time>
      </trkpt>
      <trkpt lat="43.39752" lon="2.11454">
        <ele>605.6</ele>
        <time>2023-10-01T09:11:18Z</time>
      </trkpt>
      <trkpt lat="43.39749" lon="2.11451">
        <ele>605</ele>
        <time>2023-10-01T09:11:19Z</time>
      </trkpt>
      <trkpt lat="43.39745" lon="2.11443">
        <ele>603.6</ele>
        <time>2023-10-01T09:11:21Z</time>
      </trkpt>
      <trkpt lat="43.39741" lon="2.11437">
        <ele>603.4</ele>
        <time>2023-10-01T09:11:22Z</time>
      </trkpt>
      <trkpt lat="43.3973" lon="2.1143">
        <ele>602.2</ele>
        <time>2023-10-01T09:11:24Z</time>
      </trkpt>
      <trkpt lat="43.39723" lon="2.11426">
        <ele>602</ele>
        <time>2023-10-01T09:11:25Z</time>
      </trkpt>
      <trkpt lat="43.39715" lon="2.11422">
        <ele>600.8</ele>
        <time>2023-10-01T09:11:26Z</time>
      </trkpt>
      <trkpt lat="43.39707" lon="2.11416">
        <ele>599.8</ele>
        <time>2023-10-01T09:11:27Z</time>
      </trkpt>
      <trkpt lat="43.39699" lon="2.11411">
        <ele>599</ele>
        <time>2023-10-01T09:11:28Z</time>
      </trkpt>
      <trkpt lat="43.39691" lon="2.11408">
        <ele>598</ele>
        <time>2023-10-01T09:11:29Z</time>
      </trkpt>
      <trkpt lat="43.39684" lon="2.11405">
        <ele>597.6</ele>
        <time>2023-10-01T09:11:30Z</time>
      </trkpt>
      <trkpt lat="43.39677" lon="2.11403">
        <ele>596.8</ele>
        <time>2023-10-01T09:11:31Z</time>
      </trkpt>
      <trkpt lat="43.39671" lon="2.11401">
        <ele>596.6</ele>
        <time>2023-10-01T09:11:32Z</time>
      </trkpt>
      <trkpt lat="43.39664" lon="2.114">
        <ele>596</ele>
        <time>2023-10-01T09:11:33Z</time>
      </trkpt>
      <trkpt lat="43.39658" lon="2.11399">
        <ele>595.4</ele>
        <time>2023-10-01T09:11:34Z</time>
      </trkpt>
      <trkpt lat="43.39653" lon="2.11398">
        <ele>595.4</ele>
        <time>2023-10-01T09:11:35Z</time>
      </trkpt>
      <trkpt lat="43.39649" lon="2.11399">
        <ele>594.6</ele>
        <time>2023-10-01T09:11:36Z</time>
      </trkpt>
      <trkpt lat="43.39645" lon="2.11396">
        <ele>594.4</ele>
        <time>2023-10-01T09:11:37Z</time>
      </trkpt>
      <trkpt lat="43.39641" lon="2.11389">
        <ele>594.4</ele>
        <time>2023-10-01T09:11:38Z</time>
      </trkpt>
      <trkpt lat="43.39637" lon="2.11385">
        <ele>594.2</ele>
        <time>2023-10-01T09:11:39Z</time>
      </trkpt>
      <trkpt lat="43.39633" lon="2.11383">
        <ele>593.4</ele>
        <time>2023-10-01T09:11:40Z</time>
      </trkpt>
      <trkpt lat="43.39628" lon="2.11382">
        <ele>593</ele>
        <time>2023-10-01T09:11:41Z</time>
      </trkpt>
      <trkpt lat="43.39622" lon="2.1138">
        <ele>593</ele>
        <time>2023-10-01T09:11:42Z</time>
      </trkpt>
      <trkpt lat="43.39611" lon="2.11372">
        <ele>592.6</ele>
        <time>2023-10-01T09:11:44Z</time>
      </trkpt>
      <trkpt lat="43.39597" lon="2.11367">
        <ele>592.6</ele>
        <time>2023-10-01T09:11:46Z</time>
      </trkpt>
      <trkpt lat="43.39589" lon="2.1136">
        <ele>592</ele>
        <time>2023-10-01T09:11:48Z</time>
      </trkpt>
      <trkpt lat="43.39585" lon="2.11355">
        <ele>591.8</ele>
        <time>2023-10-01T09:11:49Z</time>
      </trkpt>
      <trkpt lat="43.39581" lon="2.1135">
        <ele>591.6</ele>
        <time>2023-10-01T09:11:50Z</time>
      </trkpt>
      <trkpt lat="43.39577" lon="2.11347">
        <ele>591.6</ele>
        <time>2023-10-01T09:11:51Z</time>
      </trkpt>
      <trkpt lat="43.39574" lon="2.11341">
        <ele>591.4</ele>
        <time>2023-10-01T09:11:52Z</time>
      </trkpt>
      <trkpt lat="43.39568" lon="2.11334">
        <ele>591.2</ele>
        <time>2023-10-01T09:11:54Z</time>
      </trkpt>
      <trkpt lat="43.39564" lon="2.11331">
        <ele>591</ele>
        <time>2023-10-01T09:11:55Z</time>
      </trkpt>
      <trkpt lat="43.39561" lon="2.11327">
        <ele>591</ele>
        <time>2023-10-01T09:11:56Z</time>
      </trkpt>
      <trkpt lat="43.39558" lon="2.11321">
        <ele>591</ele>
        <time>2023-10-01T09:11:57Z</time>
      </trkpt>
      <trkpt lat="43.39555" lon="2.11318">
        <ele>591</ele>
        <time>2023-10-01T09:11:58Z</time>
      </trkpt>
      <trkpt lat="43.39544" lon="2.11308">
        <ele>591.6</ele>
        <time>2023-10-01T09:12:01Z</time>
      </trkpt>
      <trkpt lat="43.39538" lon="2.11299">
        <ele>591.8</ele>
        <time>2023-10-01T09:12:03Z</time>
      </trkpt>
      <trkpt lat="43.39535" lon="2.11294">
        <ele>592.2</ele>
        <time>2023-10-01T09:12:04Z</time>
      </trkpt>
      <trkpt lat="43.39533" lon="2.11289">
        <ele>592.4</ele>
        <time>2023-10-01T09:12:05Z</time>
      </trkpt>
      <trkpt lat="43.39531" lon="2.11284">
        <ele>592.6</ele>
        <time>2023-10-01T09:12:06Z</time>
      </trkpt>
      <trkpt lat="43.39522" lon="2.11267">
        <ele>593</ele>
        <time>2023-10-01T09:12:09Z</time>
      </trkpt>
      <trkpt lat="43.39522" lon="2.11263">
        <ele>593</ele>
        <time>2023-10-01T09:12:10Z</time>
      </trkpt>
      <trkpt lat="43.39522" lon="2.11259">
        <ele>593</ele>
        <time>2023-10-01T09:12:11Z</time>
      </trkpt>
      <trkpt lat="43.39523" lon="2.11255">
        <ele>593</ele>
        <time>2023-10-01T09:12:12Z</time>
      </trkpt>
      <trkpt lat="43.39524" lon="2.11248">
        <ele>593</ele>
        <time>2023-10-01T09:12:13Z</time>
      </trkpt>
      <trkpt lat="43.39524" lon="2.11241">
        <ele>593</ele>
        <time>2023-10-01T09:12:14Z</time>
      </trkpt>
      <trkpt lat="43.39523" lon="2.11233">
        <ele>593</ele>
        <time>2023-10-01T09:12:15Z</time>
      </trkpt>
      <trkpt lat="43.39521" lon="2.11225">
        <ele>592.4</ele>
        <time>2023-10-01T09:12:16Z</time>
      </trkpt>
      <trkpt lat="43.39519" lon="2.11218">
        <ele>590.8</ele>
        <time>2023-10-01T09:12:17Z</time>
      </trkpt>
      <trkpt lat="43.39514" lon="2.1121">
        <ele>589.8</ele>
        <time>2023-10-01T09:12:18Z</time>
      </trkpt>
      <trkpt lat="43.39512" lon="2.11204">
        <ele>589.4</ele>
        <time>2023-10-01T09:12:19Z</time>
      </trkpt>
      <trkpt lat="43.39508" lon="2.11198">
        <ele>589</ele>
        <time>2023-10-01T09:12:20Z</time>
      </trkpt>
      <trkpt lat="43.39506" lon="2.11186">
        <ele>588.8</ele>
        <time>2023-10-01T09:12:22Z</time>
      </trkpt>
      <trkpt lat="43.39505" lon="2.11179">
        <ele>589</ele>
        <time>2023-10-01T09:12:23Z</time>
      </trkpt>
      <trkpt lat="43.39502" lon="2.11173">
        <ele>589.2</ele>
        <time>2023-10-01T09:12:24Z</time>
      </trkpt>
      <trkpt lat="43.39495" lon="2.11139">
        <ele>590</ele>
        <time>2023-10-01T09:12:29Z</time>
      </trkpt>
      <trkpt lat="43.39493" lon="2.11126">
        <ele>590.8</ele>
        <time>2023-10-01T09:12:31Z</time>
      </trkpt>
      <trkpt lat="43.39486" lon="2.11106">
        <ele>592</ele>
        <time>2023-10-01T09:12:34Z</time>
      </trkpt>
      <trkpt lat="43.39484" lon="2.11102">
        <ele>592.6</ele>
        <time>2023-10-01T09:12:35Z</time>
      </trkpt>
      <trkpt lat="43.39483" lon="2.11097">
        <ele>593.4</ele>
        <time>2023-10-01T09:12:36Z</time>
      </trkpt>
      <trkpt lat="43.39484" lon="2.11091">
        <ele>593.6</ele>
        <time>2023-10-01T09:12:37Z</time>
      </trkpt>
      <trkpt lat="43.39483" lon="2.11088">
        <ele>594.2</ele>
        <time>2023-10-01T09:12:38Z</time>
      </trkpt>
      <trkpt lat="43.39482" lon="2.11083">
        <ele>595</ele>
        <time>2023-10-01T09:12:39Z</time>
      </trkpt>
      <trkpt lat="43.39481" lon="2.11079">
        <ele>595.4</ele>
        <time>2023-10-01T09:12:40Z</time>
      </trkpt>
      <trkpt lat="43.3948" lon="2.11073">
        <ele>595.8</ele>
        <time>2023-10-01T09:12:41Z</time>
      </trkpt>
      <trkpt lat="43.3948" lon="2.11068">
        <ele>596</ele>
        <time>2023-10-01T09:12:42Z</time>
      </trkpt>
      <trkpt lat="43.39479" lon="2.11064">
        <ele>596.4</ele>
        <time>2023-10-01T09:12:43Z</time>
      </trkpt>
      <trkpt lat="43.39478" lon="2.1106">
        <ele>596.6</ele>
        <time>2023-10-01T09:12:44Z</time>
      </trkpt>
      <trkpt lat="43.39478" lon="2.11056">
        <ele>597</ele>
        <time>2023-10-01T09:12:45Z</time>
      </trkpt>
      <trkpt lat="43.39477" lon="2.11054">
        <ele>597.4</ele>
        <time>2023-10-01T09:12:46Z</time>
      </trkpt>
      <trkpt lat="43.39475" lon="2.11051">
        <ele>597.6</ele>
        <time>2023-10-01T09:12:47Z</time>
      </trkpt>
      <trkpt lat="43.39474" lon="2.11047">
        <ele>598</ele>
        <time>2023-10-01T09:12:48Z</time>
      </trkpt>
      <trkpt lat="43.39473" lon="2.11043">
        <ele>598.2</ele>
        <time>2023-10-01T09:12:49Z</time>
      </trkpt>
      <trkpt lat="43.39472" lon="2.11037">
        <ele>598.6</ele>
        <time>2023-10-01T09:12:50Z</time>
      </trkpt>
      <trkpt lat="43.39471" lon="2.1103">
        <ele>598.8</ele>
        <time>2023-10-01T09:12:51Z</time>
      </trkpt>
      <trkpt lat="43.3947" lon="2.11023">
        <ele>599.2</ele>
        <time>2023-10-01T09:12:52Z</time>
      </trkpt>
      <trkpt lat="43.39469" lon="2.11018">
        <ele>599.4</ele>
        <time>2023-10-01T09:12:53Z</time>
      </trkpt>
      <trkpt lat="43.39469" lon="2.11009">
        <ele>599.6</ele>
        <time>2023-10-01T09:12:54Z</time>
      </trkpt>
      <trkpt lat="43.39467" lon="2.11004">
        <ele>600</ele>
        <time>2023-10-01T09:12:55Z</time>
      </trkpt>
      <trkpt lat="43.39468" lon="2.10997">
        <ele>600.2</ele>
        <time>2023-10-01T09:12:56Z</time>
      </trkpt>
      <trkpt lat="43.39468" lon="2.10991">
        <ele>600.4</ele>
        <time>2023-10-01T09:12:57Z</time>
      </trkpt>
      <trkpt lat="43.39467" lon="2.10984">
        <ele>601</ele>
        <time>2023-10-01T09:12:58Z</time>
      </trkpt>
      <trkpt lat="43.39467" lon="2.10979">
        <ele>601.4</ele>
        <time>2023-10-01T09:12:59Z</time>
      </trkpt>
      <trkpt lat="43.39467" lon="2.10973">
        <ele>601.6</ele>
        <time>2023-10-01T09:13:00Z</time>
      </trkpt>
      <trkpt lat="43.39464" lon="2.10968">
        <ele>601.6</ele>
        <time>2023-10-01T09:13:01Z</time>
      </trkpt>
      <trkpt lat="43.39461" lon="2.10961">
        <ele>601.8</ele>
        <time>2023-10-01T09:13:02Z</time>
      </trkpt>
      <trkpt lat="43.39461" lon="2.10956">
        <ele>602</ele>
        <time>2023-10-01T09:13:03Z</time>
      </trkpt>
      <trkpt lat="43.39461" lon="2.10952">
        <ele>602.4</ele>
        <time>2023-10-01T09:13:04Z</time>
      </trkpt>
      <trkpt lat="43.3946" lon="2.10949">
        <ele>602.4</ele>
        <time>2023-10-01T09:13:05Z</time>
      </trkpt>
      <trkpt lat="43.39459" lon="2.10946">
        <ele>602.6</ele>
        <time>2023-10-01T09:13:06Z</time>
      </trkpt>
      <trkpt lat="43.39457" lon="2.10942">
        <ele>603</ele>
        <time>2023-10-01T09:13:07Z</time>
      </trkpt>
      <trkpt lat="43.39454" lon="2.10936">
        <ele>603.2</ele>
        <time>2023-10-01T09:13:08Z</time>
      </trkpt>
      <trkpt lat="43.39452" lon="2.10931">
        <ele>603.4</ele>
        <time>2023-10-01T09:13:09Z</time>
      </trkpt>
      <trkpt lat="43.39452" lon="2.10926">
        <ele>603.6</ele>
        <time>2023-10-01T09:13:10Z</time>
      </trkpt>
      <trkpt lat="43.39452" lon="2.10922">
        <ele>604</ele>
        <time>2023-10-01T09:13:11Z</time>
      </trkpt>
      <trkpt lat="43.39451" lon="2.1092">
        <ele>604.4</ele>
        <time>2023-10-01T09:13:12Z</time>
      </trkpt>
      <trkpt lat="43.39452" lon="2.10916">
        <ele>605.2</ele>
        <time>2023-10-01T09:13:13Z</time>
      </trkpt>
      <trkpt lat="43.39452" lon="2.10911">
        <ele>605.6</ele>
        <time>2023-10-01T09:13:14Z</time>
      </trkpt>
      <trkpt lat="43.3945" lon="2.10908">
        <ele>606.2</ele>
        <time>2023-10-01T09:13:15Z</time>
      </trkpt>
      <trkpt lat="43.39448" lon="2.10905">
        <ele>606.8</ele>
        <time>2023-10-01T09:13:16Z</time>
      </trkpt>
      <trkpt lat="43.39444" lon="2.10899">
        <ele>607.2</ele>
        <time>2023-10-01T09:13:17Z</time>
      </trkpt>
      <trkpt lat="43.39444" lon="2.10894">
        <ele>607.6</ele>
        <time>2023-10-01T09:13:18Z</time>
      </trkpt>
      <trkpt lat="43.39444" lon="2.1089">
        <ele>608</ele>
        <time>2023-10-01T09:13:19Z</time>
      </trkpt>
      <trkpt lat="43.39446" lon="2.10884">
        <ele>608.4</ele>
        <time>2023-10-01T09:13:20Z</time>
      </trkpt>
      <trkpt lat="43.39449" lon="2.1088">
        <ele>608.6</ele>
        <time>2023-10-01T09:13:21Z</time>
      </trkpt>
      <trkpt lat="43.3945" lon="2.10876">
        <ele>609.2</ele>
        <time>2023-10-01T09:13:22Z</time>
      </trkpt>
      <trkpt lat="43.39452" lon="2.10872">
        <ele>609.6</ele>
        <time>2023-10-01T09:13:23Z</time>
      </trkpt>
      <trkpt lat="43.39457" lon="2.10867">
        <ele>609.6</ele>
        <time>2023-10-01T09:13:24Z</time>
      </trkpt>
      <trkpt lat="43.39459" lon="2.10861">
        <ele>609.8</ele>
        <time>2023-10-01T09:13:25Z</time>
      </trkpt>
      <trkpt lat="43.39461" lon="2.10857">
        <ele>609.8</ele>
        <time>2023-10-01T09:13:26Z</time>
      </trkpt>
      <trkpt lat="43.39465" lon="2.10852">
        <ele>610</ele>
        <time>2023-10-01T09:13:27Z</time>
      </trkpt>
      <trkpt lat="43.39467" lon="2.10848">
        <ele>610</ele>
        <time>2023-10-01T09:13:28Z</time>
      </trkpt>
      <trkpt lat="43.3947" lon="2.10845">
        <ele>610.2</ele>
        <time>2023-10-01T09:13:29Z</time>
      </trkpt>
      <trkpt lat="43.39474" lon="2.10841">
        <ele>610.2</ele>
        <time>2023-10-01T09:13:30Z</time>
      </trkpt>
      <trkpt lat="43.39479" lon="2.10837">
        <ele>610.2</ele>
        <time>2023-10-01T09:13:31Z</time>
      </trkpt>
      <trkpt lat="43.39484" lon="2.10835">
        <ele>610.4</ele>
        <time>2023-10-01T09:13:32Z</time>
      </trkpt>
      <trkpt lat="43.39487" lon="2.10831">
        <ele>610.6</ele>
        <time>2023-10-01T09:13:33Z</time>
      </trkpt>
      <trkpt lat="43.3949" lon="2.10828">
        <ele>610.8</ele>
        <time>2023-10-01T09:13:34Z</time>
      </trkpt>
      <trkpt lat="43.39494" lon="2.10825">
        <ele>610.8</ele>
        <time>2023-10-01T09:13:35Z</time>
      </trkpt>
      <trkpt lat="43.39497" lon="2.10823">
        <ele>611.2</ele>
        <time>2023-10-01T09:13:36Z</time>
      </trkpt>
      <trkpt lat="43.39499" lon="2.10819">
        <ele>611.4</ele>
        <time>2023-10-01T09:13:37Z</time>
      </trkpt>
      <trkpt lat="43.39502" lon="2.10817">
        <ele>611.4</ele>
        <time>2023-10-01T09:13:38Z</time>
      </trkpt>
      <trkpt lat="43.39505" lon="2.10814">
        <ele>611.8</ele>
        <time>2023-10-01T09:13:39Z</time>
      </trkpt>
      <trkpt lat="43.39506" lon="2.10814">
        <ele>612</ele>
        <time>2023-10-01T09:13:40Z</time>
      </trkpt>
      <trkpt lat="43.39508" lon="2.10815">
        <ele>612.2</ele>
        <time>2023-10-01T09:13:41Z</time>
      </trkpt>
      <trkpt lat="43.39509" lon="2.10816">
        <ele>612.4</ele>
        <time>2023-10-01T09:13:42Z</time>
      </trkpt>
      <trkpt lat="43.3951" lon="2.10816">
        <ele>612.8</ele>
        <time>2023-10-01T09:13:43Z</time>
      </trkpt>
      <trkpt lat="43.39511" lon="2.10817">
        <ele>613</ele>
        <time>2023-10-01T09:13:44Z</time>
      </trkpt>
      <trkpt lat="43.39512" lon="2.10819">
        <ele>613.2</ele>
        <time>2023-10-01T09:13:45Z</time>
      </trkpt>
      <trkpt lat="43.39513" lon="2.10821">
        <ele>613.4</ele>
        <time>2023-10-01T09:13:46Z</time>
      </trkpt>
      <trkpt lat="43.39515" lon="2.10823">
        <ele>613.6</ele>
        <time>2023-10-01T09:13:47Z</time>
      </trkpt>
      <trkpt lat="43.39516" lon="2.10825">
        <ele>613.6</ele>
        <time>2023-10-01T09:13:48Z</time>
      </trkpt>
      <trkpt lat="43.39517" lon="2.10827">
        <ele>613.8</ele>
        <time>2023-10-01T09:13:49Z</time>
      </trkpt>
      <trkpt lat="43.39519" lon="2.1083">
        <ele>614</ele>
        <time>2023-10-01T09:13:50Z</time>
      </trkpt>
      <trkpt lat="43.39521" lon="2.10833">
        <ele>614</ele>
        <time>2023-10-01T09:13:51Z</time>
      </trkpt>
      <trkpt lat="43.39522" lon="2.10835">
        <ele>614</ele>
        <time>2023-10-01T09:13:52Z</time>
      </trkpt>
      <trkpt lat="43.39524" lon="2.10838">
        <ele>613.6</ele>
        <time>2023-10-01T09:13:53Z</time>
      </trkpt>
      <trkpt lat="43.39526" lon="2.1084">
        <ele>613.6</ele>
        <time>2023-10-01T09:13:54Z</time>
      </trkpt>
      <trkpt lat="43.39527" lon="2.10842">
        <ele>613.4</ele>
        <time>2023-10-01T09:13:55Z</time>
      </trkpt>
      <trkpt lat="43.39529" lon="2.10845">
        <ele>613.2</ele>
        <time>2023-10-01T09:13:56Z</time>
      </trkpt>
      <trkpt lat="43.39531" lon="2.10848">
        <ele>612.8</ele>
        <time>2023-10-01T09:13:57Z</time>
      </trkpt>
      <trkpt lat="43.39533" lon="2.10851">
        <ele>612.4</ele>
        <time>2023-10-01T09:13:58Z</time>
      </trkpt>
      <trkpt lat="43.39533" lon="2.10851">
        <ele>612.2</ele>
        <time>2023-10-01T09:13:59Z</time>
      </trkpt>
      <trkpt lat="43.39534" lon="2.10853">
        <ele>611.2</ele>
        <time>2023-10-01T09:14:00Z</time>
      </trkpt>
      <trkpt lat="43.39534" lon="2.10855">
        <ele>610.6</ele>
        <time>2023-10-01T09:14:01Z</time>
      </trkpt>
      <trkpt lat="43.39534" lon="2.10857">
        <ele>610</ele>
        <time>2023-10-01T09:14:02Z</time>
      </trkpt>
      <trkpt lat="43.39534" lon="2.10857">
        <ele>609.8</ele>
        <time>2023-10-01T09:14:03Z</time>
      </trkpt>
      <trkpt lat="43.39534" lon="2.10857">
        <ele>609.4</ele>
        <time>2023-10-01T09:14:04Z</time>
      </trkpt>
      <trkpt lat="43.39534" lon="2.10857">
        <ele>608.4</ele>
        <time>2023-10-01T09:14:05Z</time>
      </trkpt>
      <trkpt lat="43.39533" lon="2.10858">
        <ele>607.4</ele>
        <time>2023-10-01T09:14:07Z</time>
      </trkpt>
      <trkpt lat="43.39531" lon="2.10859">
        <ele>607</ele>
        <time>2023-10-01T09:14:08Z</time>
      </trkpt>
      <trkpt lat="43.39529" lon="2.10861">
        <ele>605.8</ele>
        <time>2023-10-01T09:14:09Z</time>
      </trkpt>
      <trkpt lat="43.39527" lon="2.10863">
        <ele>605.4</ele>
        <time>2023-10-01T09:14:10Z</time>
      </trkpt>
      <trkpt lat="43.39526" lon="2.10863">
        <ele>604.4</ele>
        <time>2023-10-01T09:14:11Z</time>
      </trkpt>
      <trkpt lat="43.39526" lon="2.10865">
        <ele>603.2</ele>
        <time>2023-10-01T09:14:12Z</time>
      </trkpt>
      <trkpt lat="43.39524" lon="2.10869">
        <ele>603</ele>
        <time>2023-10-01T09:14:13Z</time>
      </trkpt>
      <trkpt lat="43.39522" lon="2.10872">
        <ele>602.4</ele>
        <time>2023-10-01T09:14:14Z</time>
      </trkpt>
      <trkpt lat="43.3952" lon="2.10876">
        <ele>602</ele>
        <time>2023-10-01T09:14:15Z</time>
      </trkpt>
      <trkpt lat="43.39515" lon="2.10887">
        <ele>600.8</ele>
        <time>2023-10-01T09:14:17Z</time>
      </trkpt>
      <trkpt lat="43.39515" lon="2.1089">
        <ele>600.4</ele>
        <time>2023-10-01T09:14:18Z</time>
      </trkpt>
      <trkpt lat="43.39516" lon="2.10893">
        <ele>600.4</ele>
        <time>2023-10-01T09:14:19Z</time>
      </trkpt>
      <trkpt lat="43.39518" lon="2.10896">
        <ele>600.2</ele>
        <time>2023-10-01T09:14:20Z</time>
      </trkpt>
      <trkpt lat="43.39519" lon="2.109">
        <ele>599.4</ele>
        <time>2023-10-01T09:14:22Z</time>
      </trkpt>
      <trkpt lat="43.39521" lon="2.10904">
        <ele>598.8</ele>
        <time>2023-10-01T09:14:23Z</time>
      </trkpt>
      <trkpt lat="43.39521" lon="2.10904">
        <ele>598.4</ele>
        <time>2023-10-01T09:14:24Z</time>
      </trkpt>
      <trkpt lat="43.39523" lon="2.10907">
        <ele>598</ele>
        <time>2023-10-01T09:14:25Z</time>
      </trkpt>
      <trkpt lat="43.39529" lon="2.1092">
        <ele>597.4</ele>
        <time>2023-10-01T09:14:27Z</time>
      </trkpt>
      <trkpt lat="43.39545" lon="2.10938">
        <ele>596.2</ele>
        <time>2023-10-01T09:14:31Z</time>
      </trkpt>
      <trkpt lat="43.39549" lon="2.10938">
        <ele>595.4</ele>
        <time>2023-10-01T09:14:32Z</time>
      </trkpt>
      <trkpt lat="43.39553" lon="2.10939">
        <ele>595.2</ele>
        <time>2023-10-01T09:14:33Z</time>
      </trkpt>
      <trkpt lat="43.39557" lon="2.10939">
        <ele>594.8</ele>
        <time>2023-10-01T09:14:34Z</time>
      </trkpt>
      <trkpt lat="43.39561" lon="2.10937">
        <ele>594.2</ele>
        <time>2023-10-01T09:14:35Z</time>
      </trkpt>
      <trkpt lat="43.39565" lon="2.10932">
        <ele>594</ele>
        <time>2023-10-01T09:14:36Z</time>
      </trkpt>
      <trkpt lat="43.39569" lon="2.10928">
        <ele>593.8</ele>
        <time>2023-10-01T09:14:37Z</time>
      </trkpt>
      <trkpt lat="43.39573" lon="2.10923">
        <ele>594</ele>
        <time>2023-10-01T09:14:38Z</time>
      </trkpt>
      <trkpt lat="43.39576" lon="2.1092">
        <ele>594</ele>
        <time>2023-10-01T09:14:39Z</time>
      </trkpt>
      <trkpt lat="43.39578" lon="2.10918">
        <ele>594</ele>
        <time>2023-10-01T09:14:40Z</time>
      </trkpt>
      <trkpt lat="43.3958" lon="2.10915">
        <ele>594.2</ele>
        <time>2023-10-01T09:14:41Z</time>
      </trkpt>
      <trkpt lat="43.39581" lon="2.10911">
        <ele>594.2</ele>
        <time>2023-10-01T09:14:42Z</time>
      </trkpt>
      <trkpt lat="43.39586" lon="2.10899">
        <ele>594.8</ele>
        <time>2023-10-01T09:14:45Z</time>
      </trkpt>
      <trkpt lat="43.39591" lon="2.10891">
        <ele>595.2</ele>
        <time>2023-10-01T09:14:47Z</time>
      </trkpt>
      <trkpt lat="43.39593" lon="2.10889">
        <ele>595.4</ele>
        <time>2023-10-01T09:14:48Z</time>
      </trkpt>
      <trkpt lat="43.39594" lon="2.10887">
        <ele>595.4</ele>
        <time>2023-10-01T09:14:49Z</time>
      </trkpt>
      <trkpt lat="43.39593" lon="2.10884">
        <ele>595.6</ele>
        <time>2023-10-01T09:14:50Z</time>
      </trkpt>
      <trkpt lat="43.39593" lon="2.10879">
        <ele>595.6</ele>
        <time>2023-10-01T09:14:51Z</time>
      </trkpt>
      <trkpt lat="43.39593" lon="2.10873">
        <ele>595.6</ele>
        <time>2023-10-01T09:14:52Z</time>
      </trkpt>
      <trkpt lat="43.39593" lon="2.10868">
        <ele>595.6</ele>
        <time>2023-10-01T09:14:53Z</time>
      </trkpt>
      <trkpt lat="43.39592" lon="2.10863">
        <ele>595.6</ele>
        <time>2023-10-01T09:14:54Z</time>
      </trkpt>
      <trkpt lat="43.39592" lon="2.10859">
        <ele>595.4</ele>
        <time>2023-10-01T09:14:55Z</time>
      </trkpt>
      <trkpt lat="43.39591" lon="2.10854">
        <ele>595.4</ele>
        <time>2023-10-01T09:14:56Z</time>
      </trkpt>
      <trkpt lat="43.39589" lon="2.10849">
        <ele>595.4</ele>
        <time>2023-10-01T09:14:57Z</time>
      </trkpt>
      <trkpt lat="43.39587" lon="2.10844">
        <ele>595.4</ele>
        <time>2023-10-01T09:14:58Z</time>
      </trkpt>
      <trkpt lat="43.39586" lon="2.10838">
        <ele>595.4</ele>
        <time>2023-10-01T09:14:59Z</time>
      </trkpt>
      <trkpt lat="43.39587" lon="2.10833">
        <ele>595.4</ele>
        <time>2023-10-01T09:15:00Z</time>
      </trkpt>
      <trkpt lat="43.39587" lon="2.10826">
        <ele>595.2</ele>
        <time>2023-10-01T09:15:01Z</time>
      </trkpt>
      <trkpt lat="43.39585" lon="2.10817">
        <ele>595</ele>
        <time>2023-10-01T09:15:02Z</time>
      </trkpt>
      <trkpt lat="43.39582" lon="2.1081">
        <ele>594.8</ele>
        <time>2023-10-01T09:15:03Z</time>
      </trkpt>
      <trkpt lat="43.3958" lon="2.10805">
        <ele>594.6</ele>
        <time>2023-10-01T09:15:04Z</time>
      </trkpt>
      <trkpt lat="43.39577" lon="2.10801">
        <ele>594.4</ele>
        <time>2023-10-01T09:15:05Z</time>
      </trkpt>
      <trkpt lat="43.39575" lon="2.10797">
        <ele>594.2</ele>
        <time>2023-10-01T09:15:06Z</time>
      </trkpt>
      <trkpt lat="43.39574" lon="2.10793">
        <ele>594</ele>
        <time>2023-10-01T09:15:07Z</time>
      </trkpt>
      <trkpt lat="43.39574" lon="2.10789">
        <ele>594</ele>
        <time>2023-10-01T09:15:08Z</time>
      </trkpt>
      <trkpt lat="43.39572" lon="2.10785">
        <ele>594</ele>
        <time>2023-10-01T09:15:09Z</time>
      </trkpt>
      <trkpt lat="43.39572" lon="2.10782">
        <ele>594</ele>
        <time>2023-10-01T09:15:10Z</time>
      </trkpt>
      <trkpt lat="43.3957" lon="2.10776">
        <ele>594</ele>
        <time>2023-10-01T09:15:11Z</time>
      </trkpt>
      <trkpt lat="43.39568" lon="2.10773">
        <ele>594.2</ele>
        <time>2023-10-01T09:15:12Z</time>
      </trkpt>
      <trkpt lat="43.39568" lon="2.10768">
        <ele>594.4</ele>
        <time>2023-10-01T09:15:13Z</time>
      </trkpt>
      <trkpt lat="43.39568" lon="2.10763">
        <ele>594.6</ele>
        <time>2023-10-01T09:15:14Z</time>
      </trkpt>
      <trkpt lat="43.39566" lon="2.10751">
        <ele>594.6</ele>
        <time>2023-10-01T09:15:16Z</time>
      </trkpt>
      <trkpt lat="43.39566" lon="2.10746">
        <ele>594.6</ele>
        <time>2023-10-01T09:15:17Z</time>
      </trkpt>
      <trkpt lat="43.39566" lon="2.10743">
        <ele>594.8</ele>
        <time>2023-10-01T09:15:18Z</time>
      </trkpt>
      <trkpt lat="43.39565" lon="2.10742">
        <ele>594.8</ele>
        <time>2023-10-01T09:15:19Z</time>
      </trkpt>
      <trkpt lat="43.39565" lon="2.10742">
        <ele>594.8</ele>
        <time>2023-10-01T09:15:20Z</time>
      </trkpt>
      <trkpt lat="43.39565" lon="2.10742">
        <ele>595.2</ele>
        <time>2023-10-01T09:15:21Z</time>
      </trkpt>
      <trkpt lat="43.39563" lon="2.10739">
        <ele>595.2</ele>
        <time>2023-10-01T09:15:22Z</time>
      </trkpt>
      <trkpt lat="43.39561" lon="2.10735">
        <ele>595.4</ele>
        <time>2023-10-01T09:15:23Z</time>
      </trkpt>
      <trkpt lat="43.39561" lon="2.10724">
        <ele>595.8</ele>
        <time>2023-10-01T09:15:25Z</time>
      </trkpt>
      <trkpt lat="43.3956" lon="2.10718">
        <ele>595.8</ele>
        <time>2023-10-01T09:15:26Z</time>
      </trkpt>
      <trkpt lat="43.3956" lon="2.10713">
        <ele>596</ele>
        <time>2023-10-01T09:15:27Z</time>
      </trkpt>
      <trkpt lat="43.39559" lon="2.10709">
        <ele>596</ele>
        <time>2023-10-01T09:15:28Z</time>
      </trkpt>
      <trkpt lat="43.3956" lon="2.10697">
        <ele>596</ele>
        <time>2023-10-01T09:15:30Z</time>
      </trkpt>
      <trkpt lat="43.39564" lon="2.1069">
        <ele>596</ele>
        <time>2023-10-01T09:15:31Z</time>
      </trkpt>
      <trkpt lat="43.39563" lon="2.10686">
        <ele>596</ele>
        <time>2023-10-01T09:15:32Z</time>
      </trkpt>
      <trkpt lat="43.3956" lon="2.10682">
        <ele>596</ele>
        <time>2023-10-01T09:15:33Z</time>
      </trkpt>
      <trkpt lat="43.39559" lon="2.1068">
        <ele>595.8</ele>
        <time>2023-10-01T09:15:34Z</time>
      </trkpt>
      <trkpt lat="43.39558" lon="2.10676">
        <ele>595.8</ele>
        <time>2023-10-01T09:15:35Z</time>
      </trkpt>
      <trkpt lat="43.39553" lon="2.10669">
        <ele>595.6</ele>
        <time>2023-10-01T09:15:36Z</time>
      </trkpt>
      <trkpt lat="43.39551" lon="2.10654">
        <ele>595.4</ele>
        <time>2023-10-01T09:15:38Z</time>
      </trkpt>
      <trkpt lat="43.39552" lon="2.1065">
        <ele>595.2</ele>
        <time>2023-10-01T09:15:39Z</time>
      </trkpt>
      <trkpt lat="43.39551" lon="2.10644">
        <ele>594.8</ele>
        <time>2023-10-01T09:15:40Z</time>
      </trkpt>
      <trkpt lat="43.39549" lon="2.1064">
        <ele>594.6</ele>
        <time>2023-10-01T09:15:41Z</time>
      </trkpt>
      <trkpt lat="43.39549" lon="2.10633">
        <ele>594.6</ele>
        <time>2023-10-01T09:15:42Z</time>
      </trkpt>
      <trkpt lat="43.39549" lon="2.10626">
        <ele>594.6</ele>
        <time>2023-10-01T09:15:43Z</time>
      </trkpt>
      <trkpt lat="43.39548" lon="2.10623">
        <ele>594.6</ele>
        <time>2023-10-01T09:15:44Z</time>
      </trkpt>
      <trkpt lat="43.39547" lon="2.10619">
        <ele>594.6</ele>
        <time>2023-10-01T09:15:45Z</time>
      </trkpt>
      <trkpt lat="43.39547" lon="2.10616">
        <ele>594.6</ele>
        <time>2023-10-01T09:15:46Z</time>
      </trkpt>
      <trkpt lat="43.39546" lon="2.10612">
        <ele>594.6</ele>
        <time>2023-10-01T09:15:47Z</time>
      </trkpt>
      <trkpt lat="43.39553" lon="2.10588">
        <ele>594.6</ele>
        <time>2023-10-01T09:15:52Z</time>
      </trkpt>
      <trkpt lat="43.3955" lon="2.10567">
        <ele>594.8</ele>
        <time>2023-10-01T09:15:55Z</time>
      </trkpt>
      <trkpt lat="43.39553" lon="2.10554">
        <ele>595.2</ele>
        <time>2023-10-01T09:15:57Z</time>
      </trkpt>
      <trkpt lat="43.39555" lon="2.10549">
        <ele>595.4</ele>
        <time>2023-10-01T09:15:58Z</time>
      </trkpt>
      <trkpt lat="43.39556" lon="2.10544">
        <ele>595.6</ele>
        <time>2023-10-01T09:15:59Z</time>
      </trkpt>
      <trkpt lat="43.39557" lon="2.10541">
        <ele>596</ele>
        <time>2023-10-01T09:16:00Z</time>
      </trkpt>
      <trkpt lat="43.39559" lon="2.1054">
        <ele>596</ele>
        <time>2023-10-01T09:16:01Z</time>
      </trkpt>
      <trkpt lat="43.39561" lon="2.10538">
        <ele>596</ele>
        <time>2023-10-01T09:16:02Z</time>
      </trkpt>
      <trkpt lat="43.39563" lon="2.10535">
        <ele>596.2</ele>
        <time>2023-10-01T09:16:03Z</time>
      </trkpt>
      <trkpt lat="43.39566" lon="2.10531">
        <ele>596.2</ele>
        <time>2023-10-01T09:16:04Z</time>
      </trkpt>
      <trkpt lat="43.39566" lon="2.10527">
        <ele>596.4</ele>
        <time>2023-10-01T09:16:05Z</time>
      </trkpt>
      <trkpt lat="43.39567" lon="2.10522">
        <ele>596.4</ele>
        <time>2023-10-01T09:16:06Z</time>
      </trkpt>
      <trkpt lat="43.39566" lon="2.1052">
        <ele>596.4</ele>
        <time>2023-10-01T09:16:07Z</time>
      </trkpt>
      <trkpt lat="43.39565" lon="2.10518">
        <ele>596.6</ele>
        <time>2023-10-01T09:16:08Z</time>
      </trkpt>
      <trkpt lat="43.39564" lon="2.10515">
        <ele>596.6</ele>
        <time>2023-10-01T09:16:09Z</time>
      </trkpt>
      <trkpt lat="43.39564" lon="2.10512">
        <ele>596.6</ele>
        <time>2023-10-01T09:16:10Z</time>
      </trkpt>
      <trkpt lat="43.39563" lon="2.10508">
        <ele>596.6</ele>
        <time>2023-10-01T09:16:11Z</time>
      </trkpt>
      <trkpt lat="43.39564" lon="2.10505">
        <ele>596.6</ele>
        <time>2023-10-01T09:16:12Z</time>
      </trkpt>
      <trkpt lat="43.39564" lon="2.10498">
        <ele>596.8</ele>
        <time>2023-10-01T09:16:13Z</time>
      </trkpt>
      <trkpt lat="43.39564" lon="2.10494">
        <ele>597</ele>
        <time>2023-10-01T09:16:14Z</time>
      </trkpt>
      <trkpt lat="43.39568" lon="2.10487">
        <ele>598.2</ele>
        <time>2023-10-01T09:16:17Z</time>
      </trkpt>
      <trkpt lat="43.39568" lon="2.10487">
        <ele>598.2</ele>
        <time>2023-10-01T09:16:18Z</time>
      </trkpt>
      <trkpt lat="43.3957" lon="2.10485">
        <ele>598.4</ele>
        <time>2023-10-01T09:16:19Z</time>
      </trkpt>
      <trkpt lat="43.39573" lon="2.10483">
        <ele>598.4</ele>
        <time>2023-10-01T09:16:20Z</time>
      </trkpt>
      <trkpt lat="43.39578" lon="2.10479">
        <ele>598.6</ele>
        <time>2023-10-01T09:16:21Z</time>
      </trkpt>
      <trkpt lat="43.39581" lon="2.10477">
        <ele>598.6</ele>
        <time>2023-10-01T09:16:22Z</time>
      </trkpt>
      <trkpt lat="43.39584" lon="2.10473">
        <ele>598.6</ele>
        <time>2023-10-01T09:16:23Z</time>
      </trkpt>
      <trkpt lat="43.39589" lon="2.10465">
        <ele>598.6</ele>
        <time>2023-10-01T09:16:24Z</time>
      </trkpt>
      <trkpt lat="43.39589" lon="2.10458">
        <ele>598.6</ele>
        <time>2023-10-01T09:16:25Z</time>
      </trkpt>
      <trkpt lat="43.39591" lon="2.10452">
        <ele>598.6</ele>
        <time>2023-10-01T09:16:26Z</time>
      </trkpt>
      <trkpt lat="43.39592" lon="2.10448">
        <ele>598.6</ele>
        <time>2023-10-01T09:16:27Z</time>
      </trkpt>
      <trkpt lat="43.39592" lon="2.10443">
        <ele>598.6</ele>
        <time>2023-10-01T09:16:28Z</time>
      </trkpt>
      <trkpt lat="43.39592" lon="2.1044">
        <ele>598.6</ele>
        <time>2023-10-01T09:16:29Z</time>
      </trkpt>
      <trkpt lat="43.39591" lon="2.10438">
        <ele>598.6</ele>
        <time>2023-10-01T09:16:30Z</time>
      </trkpt>
      <trkpt lat="43.3959" lon="2.10436">
        <ele>598.6</ele>
        <time>2023-10-01T09:16:31Z</time>
      </trkpt>
      <trkpt lat="43.39591" lon="2.10432">
        <ele>598.8</ele>
        <time>2023-10-01T09:16:32Z</time>
      </trkpt>
      <trkpt lat="43.39592" lon="2.10428">
        <ele>599.2</ele>
        <time>2023-10-01T09:16:33Z</time>
      </trkpt>
      <trkpt lat="43.39592" lon="2.10424">
        <ele>599.4</ele>
        <time>2023-10-01T09:16:34Z</time>
      </trkpt>
      <trkpt lat="43.39592" lon="2.10421">
        <ele>599.6</ele>
        <time>2023-10-01T09:16:35Z</time>
      </trkpt>
      <trkpt lat="43.39594" lon="2.10417">
        <ele>599.8</ele>
        <time>2023-10-01T09:16:36Z</time>
      </trkpt>
      <trkpt lat="43.39596" lon="2.10414">
        <ele>600</ele>
        <time>2023-10-01T09:16:37Z</time>
      </trkpt>
      <trkpt lat="43.39596" lon="2.10414">
        <ele>600</ele>
        <time>2023-10-01T09:16:38Z</time>
      </trkpt>
      <trkpt lat="43.39599" lon="2.10411">
        <ele>600</ele>
        <time>2023-10-01T09:16:39Z</time>
      </trkpt>
      <trkpt lat="43.39602" lon="2.10408">
        <ele>600.2</ele>
        <time>2023-10-01T09:16:40Z</time>
      </trkpt>
      <trkpt lat="43.39602" lon="2.10405">
        <ele>600.2</ele>
        <time>2023-10-01T09:16:41Z</time>
      </trkpt>
      <trkpt lat="43.39602" lon="2.10403">
        <ele>600.2</ele>
        <time>2023-10-01T09:16:42Z</time>
      </trkpt>
      <trkpt lat="43.39604" lon="2.10399">
        <ele>600</ele>
        <time>2023-10-01T09:16:43Z</time>
      </trkpt>
      <trkpt lat="43.39604" lon="2.10395">
        <ele>600.2</ele>
        <time>2023-10-01T09:16:44Z</time>
      </trkpt>
      <trkpt lat="43.39603" lon="2.10392">
        <ele>600.2</ele>
        <time>2023-10-01T09:16:45Z</time>
      </trkpt>
      <trkpt lat="43.39603" lon="2.10386">
        <ele>600.2</ele>
        <time>2023-10-01T09:16:46Z</time>
      </trkpt>
      <trkpt lat="43.39605" lon="2.1038">
        <ele>600.4</ele>
        <time>2023-10-01T09:16:47Z</time>
      </trkpt>
      <trkpt lat="43.39608" lon="2.10376">
        <ele>600.8</ele>
        <time>2023-10-01T09:16:48Z</time>
      </trkpt>
      <trkpt lat="43.39609" lon="2.10373">
        <ele>601.4</ele>
        <time>2023-10-01T09:16:49Z</time>
      </trkpt>
      <trkpt lat="43.39608" lon="2.1037">
        <ele>601.8</ele>
        <time>2023-10-01T09:16:50Z</time>
      </trkpt>
      <trkpt lat="43.39606" lon="2.10367">
        <ele>602</ele>
        <time>2023-10-01T09:16:51Z</time>
      </trkpt>
      <trkpt lat="43.39604" lon="2.10365">
        <ele>602.4</ele>
        <time>2023-10-01T09:16:52Z</time>
      </trkpt>
      <trkpt lat="43.39603" lon="2.10362">
        <ele>602.6</ele>
        <time>2023-10-01T09:16:53Z</time>
      </trkpt>
      <trkpt lat="43.39602" lon="2.1036">
        <ele>602.8</ele>
        <time>2023-10-01T09:16:54Z</time>
      </trkpt>
      <trkpt lat="43.39602" lon="2.10359">
        <ele>602.8</ele>
        <time>2023-10-01T09:16:55Z</time>
      </trkpt>
      <trkpt lat="43.39604" lon="2.10356">
        <ele>603</ele>
        <time>2023-10-01T09:16:56Z</time>
      </trkpt>
      <trkpt lat="43.39607" lon="2.10353">
        <ele>603.2</ele>
        <time>2023-10-01T09:16:57Z</time>
      </trkpt>
      <trkpt lat="43.3961" lon="2.10349">
        <ele>603.2</ele>
        <time>2023-10-01T09:16:58Z</time>
      </trkpt>
      <trkpt lat="43.39612" lon="2.10345">
        <ele>603.2</ele>
        <time>2023-10-01T09:16:59Z</time>
      </trkpt>
      <trkpt lat="43.39614" lon="2.10342">
        <ele>603.2</ele>
        <time>2023-10-01T09:17:00Z</time>
      </trkpt>
      <trkpt lat="43.39616" lon="2.10337">
        <ele>603.2</ele>
        <time>2023-10-01T09:17:01Z</time>
      </trkpt>
      <trkpt lat="43.39616" lon="2.10333">
        <ele>603.2</ele>
        <time>2023-10-01T09:17:02Z</time>
      </trkpt>
      <trkpt lat="43.39617" lon="2.10329">
        <ele>603.2</ele>
        <time>2023-10-01T09:17:03Z</time>
      </trkpt>
      <trkpt lat="43.39618" lon="2.10324">
        <ele>603.2</ele>
        <time>2023-10-01T09:17:04Z</time>
      </trkpt>
      <trkpt lat="43.39618" lon="2.10318">
        <ele>602.8</ele>
        <time>2023-10-01T09:17:05Z</time>
      </trkpt>
      <trkpt lat="43.39617" lon="2.10311">
        <ele>602.6</ele>
        <time>2023-10-01T09:17:06Z</time>
      </trkpt>
      <trkpt lat="43.39617" lon="2.10305">
        <ele>602</ele>
        <time>2023-10-01T09:17:07Z</time>
      </trkpt>
      <trkpt lat="43.39617" lon="2.10299">
        <ele>601.8</ele>
        <time>2023-10-01T09:17:08Z</time>
      </trkpt>
      <trkpt lat="43.39617" lon="2.10294">
        <ele>601.6</ele>
        <time>2023-10-01T09:17:09Z</time>
      </trkpt>
      <trkpt lat="43.39618" lon="2.10288">
        <ele>601.4</ele>
        <time>2023-10-01T09:17:10Z</time>
      </trkpt>
      <trkpt lat="43.3962" lon="2.10282">
        <ele>601.2</ele>
        <time>2023-10-01T09:17:11Z</time>
      </trkpt>
      <trkpt lat="43.39621" lon="2.10274">
        <ele>601</ele>
        <time>2023-10-01T09:17:12Z</time>
      </trkpt>
      <trkpt lat="43.39625" lon="2.10263">
        <ele>600.2</ele>
        <time>2023-10-01T09:17:14Z</time>
      </trkpt>
      <trkpt lat="43.39627" lon="2.1026">
        <ele>599.4</ele>
        <time>2023-10-01T09:17:15Z</time>
      </trkpt>
      <trkpt lat="43.39628" lon="2.10255">
        <ele>599.2</ele>
        <time>2023-10-01T09:17:16Z</time>
      </trkpt>
      <trkpt lat="43.39629" lon="2.10252">
        <ele>598.6</ele>
        <time>2023-10-01T09:17:17Z</time>
      </trkpt>
      <trkpt lat="43.39628" lon="2.10249">
        <ele>598.2</ele>
        <time>2023-10-01T09:17:18Z</time>
      </trkpt>
      <trkpt lat="43.39627" lon="2.10246">
        <ele>597.2</ele>
        <time>2023-10-01T09:17:19Z</time>
      </trkpt>
      <trkpt lat="43.39628" lon="2.10238">
        <ele>596.8</ele>
        <time>2023-10-01T09:17:20Z</time>
      </trkpt>
      <trkpt lat="43.39629" lon="2.10233">
        <ele>596.2</ele>
        <time>2023-10-01T09:17:21Z</time>
      </trkpt>
      <trkpt lat="43.39631" lon="2.10231">
        <ele>596</ele>
        <time>2023-10-01T09:17:22Z</time>
      </trkpt>
      <trkpt lat="43.39633" lon="2.10229">
        <ele>595.8</ele>
        <time>2023-10-01T09:17:23Z</time>
      </trkpt>
      <trkpt lat="43.39635" lon="2.10228">
        <ele>595.8</ele>
        <time>2023-10-01T09:17:24Z</time>
      </trkpt>
      <trkpt lat="43.39638" lon="2.10224">
        <ele>595.6</ele>
        <time>2023-10-01T09:17:25Z</time>
      </trkpt>
      <trkpt lat="43.39641" lon="2.10218">
        <ele>595.4</ele>
        <time>2023-10-01T09:17:26Z</time>
      </trkpt>
      <trkpt lat="43.39643" lon="2.10212">
        <ele>595.2</ele>
        <time>2023-10-01T09:17:27Z</time>
      </trkpt>
      <trkpt lat="43.39645" lon="2.10206">
        <ele>594.6</ele>
        <time>2023-10-01T09:17:28Z</time>
      </trkpt>
      <trkpt lat="43.39645" lon="2.10202">
        <ele>594</ele>
        <time>2023-10-01T09:17:29Z</time>
      </trkpt>
      <trkpt lat="43.39645" lon="2.10195">
        <ele>593.6</ele>
        <time>2023-10-01T09:17:30Z</time>
      </trkpt>
      <trkpt lat="43.39646" lon="2.10191">
        <ele>592.8</ele>
        <time>2023-10-01T09:17:31Z</time>
      </trkpt>
      <trkpt lat="43.39645" lon="2.10185">
        <ele>592.6</ele>
        <time>2023-10-01T09:17:32Z</time>
      </trkpt>
      <trkpt lat="43.39644" lon="2.10181">
        <ele>592.4</ele>
        <time>2023-10-01T09:17:33Z</time>
      </trkpt>
      <trkpt lat="43.39644" lon="2.10176">
        <ele>592.2</ele>
        <time>2023-10-01T09:17:34Z</time>
      </trkpt>
      <trkpt lat="43.39645" lon="2.10172">
        <ele>592.2</ele>
        <time>2023-10-01T09:17:35Z</time>
      </trkpt>
      <trkpt lat="43.39647" lon="2.10155">
        <ele>592.2</ele>
        <time>2023-10-01T09:17:38Z</time>
      </trkpt>
      <trkpt lat="43.39649" lon="2.10147">
        <ele>592.2</ele>
        <time>2023-10-01T09:17:39Z</time>
      </trkpt>
      <trkpt lat="43.39647" lon="2.10136">
        <ele>592.6</ele>
        <time>2023-10-01T09:17:41Z</time>
      </trkpt>
      <trkpt lat="43.39646" lon="2.10132">
        <ele>593.4</ele>
        <time>2023-10-01T09:17:42Z</time>
      </trkpt>
      <trkpt lat="43.39647" lon="2.10127">
        <ele>594</ele>
        <time>2023-10-01T09:17:43Z</time>
      </trkpt>
      <trkpt lat="43.39646" lon="2.10112">
        <ele>595.2</ele>
        <time>2023-10-01T09:17:46Z</time>
      </trkpt>
      <trkpt lat="43.39646" lon="2.10099">
        <ele>595.8</ele>
        <time>2023-10-01T09:17:48Z</time>
      </trkpt>
      <trkpt lat="43.39648" lon="2.10094">
        <ele>596</ele>
        <time>2023-10-01T09:17:49Z</time>
      </trkpt>
      <trkpt lat="43.39649" lon="2.10091">
        <ele>596.6</ele>
        <time>2023-10-01T09:17:50Z</time>
      </trkpt>
      <trkpt lat="43.39648" lon="2.10086">
        <ele>596.8</ele>
        <time>2023-10-01T09:17:51Z</time>
      </trkpt>
      <trkpt lat="43.39646" lon="2.10073">
        <ele>597.2</ele>
        <time>2023-10-01T09:17:53Z</time>
      </trkpt>
      <trkpt lat="43.39644" lon="2.10066">
        <ele>597.4</ele>
        <time>2023-10-01T09:17:54Z</time>
      </trkpt>
      <trkpt lat="43.39646" lon="2.1006">
        <ele>597.4</ele>
        <time>2023-10-01T09:17:55Z</time>
      </trkpt>
      <trkpt lat="43.39648" lon="2.10053">
        <ele>597.4</ele>
        <time>2023-10-01T09:17:56Z</time>
      </trkpt>
      <trkpt lat="43.39649" lon="2.10047">
        <ele>597.6</ele>
        <time>2023-10-01T09:17:57Z</time>
      </trkpt>
      <trkpt lat="43.39649" lon="2.10039">
        <ele>597.6</ele>
        <time>2023-10-01T09:17:58Z</time>
      </trkpt>
      <trkpt lat="43.39649" lon="2.10031">
        <ele>597.4</ele>
        <time>2023-10-01T09:17:59Z</time>
      </trkpt>
      <trkpt lat="43.39651" lon="2.10023">
        <ele>597.4</ele>
        <time>2023-10-01T09:18:00Z</time>
      </trkpt>
      <trkpt lat="43.39652" lon="2.10017">
        <ele>597.4</ele>
        <time>2023-10-01T09:18:01Z</time>
      </trkpt>
      <trkpt lat="43.39651" lon="2.10009">
        <ele>597.2</ele>
        <time>2023-10-01T09:18:02Z</time>
      </trkpt>
      <trkpt lat="43.3965" lon="2.1">
        <ele>596.8</ele>
        <time>2023-10-01T09:18:03Z</time>
      </trkpt>
      <trkpt lat="43.39648" lon="2.0999">
        <ele>596.8</ele>
        <time>2023-10-01T09:18:04Z</time>
      </trkpt>
      <trkpt lat="43.39649" lon="2.09982">
        <ele>596.6</ele>
        <time>2023-10-01T09:18:05Z</time>
      </trkpt>
      <trkpt lat="43.39652" lon="2.09976">
        <ele>596.4</ele>
        <time>2023-10-01T09:18:06Z</time>
      </trkpt>
      <trkpt lat="43.39654" lon="2.09972">
        <ele>596.2</ele>
        <time>2023-10-01T09:18:07Z</time>
      </trkpt>
      <trkpt lat="43.39654" lon="2.09968">
        <ele>595.8</ele>
        <time>2023-10-01T09:18:08Z</time>
      </trkpt>
      <trkpt lat="43.39653" lon="2.09964">
        <ele>595.6</ele>
        <time>2023-10-01T09:18:09Z</time>
      </trkpt>
      <trkpt lat="43.39652" lon="2.09962">
        <ele>594.8</ele>
        <time>2023-10-01T09:18:10Z</time>
      </trkpt>
      <trkpt lat="43.3965" lon="2.09958">
        <ele>594.4</ele>
        <time>2023-10-01T09:18:11Z</time>
      </trkpt>
      <trkpt lat="43.39647" lon="2.09954">
        <ele>593.6</ele>
        <time>2023-10-01T09:18:12Z</time>
      </trkpt>
      <trkpt lat="43.39643" lon="2.09952">
        <ele>593</ele>
        <time>2023-10-01T09:18:13Z</time>
      </trkpt>
      <trkpt lat="43.3964" lon="2.0995">
        <ele>593</ele>
        <time>2023-10-01T09:18:14Z</time>
      </trkpt>
      <trkpt lat="43.39638" lon="2.09947">
        <ele>592.6</ele>
        <time>2023-10-01T09:18:15Z</time>
      </trkpt>
      <trkpt lat="43.39637" lon="2.09944">
        <ele>592.6</ele>
        <time>2023-10-01T09:18:16Z</time>
      </trkpt>
      <trkpt lat="43.39637" lon="2.09942">
        <ele>592.6</ele>
        <time>2023-10-01T09:18:17Z</time>
      </trkpt>
      <trkpt lat="43.39636" lon="2.09939">
        <ele>592.6</ele>
        <time>2023-10-01T09:18:18Z</time>
      </trkpt>
      <trkpt lat="43.39636" lon="2.09937">
        <ele>592.6</ele>
        <time>2023-10-01T09:18:19Z</time>
      </trkpt>
      <trkpt lat="43.39633" lon="2.09933">
        <ele>592.8</ele>
        <time>2023-10-01T09:18:21Z</time>
      </trkpt>
      <trkpt lat="43.39631" lon="2.09932">
        <ele>593.2</ele>
        <time>2023-10-01T09:18:22Z</time>
      </trkpt>
      <trkpt lat="43.39631" lon="2.0993">
        <ele>593.2</ele>
        <time>2023-10-01T09:18:23Z</time>
      </trkpt>
      <trkpt lat="43.3963" lon="2.09928">
        <ele>593.8</ele>
        <time>2023-10-01T09:18:24Z</time>
      </trkpt>
      <trkpt lat="43.39631" lon="2.09925">
        <ele>593.8</ele>
        <time>2023-10-01T09:18:25Z</time>
      </trkpt>
      <trkpt lat="43.39631" lon="2.09921">
        <ele>594.6</ele>
        <time>2023-10-01T09:18:26Z</time>
      </trkpt>
      <trkpt lat="43.39631" lon="2.09916">
        <ele>595.2</ele>
        <time>2023-10-01T09:18:27Z</time>
      </trkpt>
      <trkpt lat="43.39631" lon="2.0991">
        <ele>595.6</ele>
        <time>2023-10-01T09:18:28Z</time>
      </trkpt>
      <trkpt lat="43.3963" lon="2.09905">
        <ele>596</ele>
        <time>2023-10-01T09:18:29Z</time>
      </trkpt>
      <trkpt lat="43.39632" lon="2.09895">
        <ele>596.4</ele>
        <time>2023-10-01T09:18:31Z</time>
      </trkpt>
      <trkpt lat="43.39632" lon="2.09886">
        <ele>596.8</ele>
        <time>2023-10-01T09:18:33Z</time>
      </trkpt>
      <trkpt lat="43.39632" lon="2.09876">
        <ele>597</ele>
        <time>2023-10-01T09:18:35Z</time>
      </trkpt>
      <trkpt lat="43.39632" lon="2.09872">
        <ele>597.2</ele>
        <time>2023-10-01T09:18:36Z</time>
      </trkpt>
      <trkpt lat="43.3963" lon="2.09863">
        <ele>597.4</ele>
        <time>2023-10-01T09:18:38Z</time>
      </trkpt>
      <trkpt lat="43.39631" lon="2.09859">
        <ele>597.4</ele>
        <time>2023-10-01T09:18:39Z</time>
      </trkpt>
      <trkpt lat="43.39633" lon="2.09853">
        <ele>597.6</ele>
        <time>2023-10-01T09:18:40Z</time>
      </trkpt>
      <trkpt lat="43.39634" lon="2.09842">
        <ele>597.8</ele>
        <time>2023-10-01T09:18:41Z</time>
      </trkpt>
      <trkpt lat="43.39633" lon="2.09836">
        <ele>597.8</ele>
        <time>2023-10-01T09:18:42Z</time>
      </trkpt>
      <trkpt lat="43.39633" lon="2.09832">
        <ele>598</ele>
        <time>2023-10-01T09:18:43Z</time>
      </trkpt>
      <trkpt lat="43.39631" lon="2.09829">
        <ele>598.2</ele>
        <time>2023-10-01T09:18:44Z</time>
      </trkpt>
      <trkpt lat="43.3963" lon="2.09825">
        <ele>598.6</ele>
        <time>2023-10-01T09:18:45Z</time>
      </trkpt>
      <trkpt lat="43.39629" lon="2.0982">
        <ele>598.6</ele>
        <time>2023-10-01T09:18:46Z</time>
      </trkpt>
      <trkpt lat="43.3963" lon="2.09816">
        <ele>598.8</ele>
        <time>2023-10-01T09:18:47Z</time>
      </trkpt>
      <trkpt lat="43.39632" lon="2.09809">
        <ele>599</ele>
        <time>2023-10-01T09:18:48Z</time>
      </trkpt>
      <trkpt lat="43.39635" lon="2.09805">
        <ele>599</ele>
        <time>2023-10-01T09:18:49Z</time>
      </trkpt>
      <trkpt lat="43.39638" lon="2.09801">
        <ele>599</ele>
        <time>2023-10-01T09:18:50Z</time>
      </trkpt>
      <trkpt lat="43.39639" lon="2.09797">
        <ele>598.8</ele>
        <time>2023-10-01T09:18:51Z</time>
      </trkpt>
      <trkpt lat="43.39639" lon="2.09793">
        <ele>598.6</ele>
        <time>2023-10-01T09:18:52Z</time>
      </trkpt>
      <trkpt lat="43.39639" lon="2.09789">
        <ele>598.6</ele>
        <time>2023-10-01T09:18:53Z</time>
      </trkpt>
      <trkpt lat="43.39638" lon="2.09788">
        <ele>598.4</ele>
        <time>2023-10-01T09:18:54Z</time>
      </trkpt>
      <trkpt lat="43.39637" lon="2.09786">
        <ele>598.4</ele>
        <time>2023-10-01T09:18:55Z</time>
      </trkpt>
      <trkpt lat="43.39635" lon="2.09782">
        <ele>598.2</ele>
        <time>2023-10-01T09:18:56Z</time>
      </trkpt>
      <trkpt lat="43.39633" lon="2.09778">
        <ele>598</ele>
        <time>2023-10-01T09:18:57Z</time>
      </trkpt>
      <trkpt lat="43.3963" lon="2.09773">
        <ele>598</ele>
        <time>2023-10-01T09:18:58Z</time>
      </trkpt>
      <trkpt lat="43.39628" lon="2.09767">
        <ele>598</ele>
        <time>2023-10-01T09:18:59Z</time>
      </trkpt>
      <trkpt lat="43.39628" lon="2.09764">
        <ele>598</ele>
        <time>2023-10-01T09:19:00Z</time>
      </trkpt>
      <trkpt lat="43.3963" lon="2.09761">
        <ele>598</ele>
        <time>2023-10-01T09:19:01Z</time>
      </trkpt>
      <trkpt lat="43.39631" lon="2.09758">
        <ele>598</ele>
        <time>2023-10-01T09:19:02Z</time>
      </trkpt>
      <trkpt lat="43.39634" lon="2.09752">
        <ele>598.2</ele>
        <time>2023-10-01T09:19:03Z</time>
      </trkpt>
      <trkpt lat="43.39636" lon="2.09744">
        <ele>598.4</ele>
        <time>2023-10-01T09:19:04Z</time>
      </trkpt>
      <trkpt lat="43.39639" lon="2.09729">
        <ele>599</ele>
        <time>2023-10-01T09:19:08Z</time>
      </trkpt>
      <trkpt lat="43.39644" lon="2.09721">
        <ele>599.4</ele>
        <time>2023-10-01T09:19:10Z</time>
      </trkpt>
      <trkpt lat="43.39648" lon="2.09718">
        <ele>599.4</ele>
        <time>2023-10-01T09:19:11Z</time>
      </trkpt>
      <trkpt lat="43.39652" lon="2.09712">
        <ele>599.4</ele>
        <time>2023-10-01T09:19:12Z</time>
      </trkpt>
      <trkpt lat="43.39654" lon="2.09708">
        <ele>599.4</ele>
        <time>2023-10-01T09:19:13Z</time>
      </trkpt>
      <trkpt lat="43.3966" lon="2.09699">
        <ele>599.2</ele>
        <time>2023-10-01T09:19:15Z</time>
      </trkpt>
      <trkpt lat="43.39659" lon="2.09696">
        <ele>599</ele>
        <time>2023-10-01T09:19:16Z</time>
      </trkpt>
      <trkpt lat="43.39659" lon="2.09693">
        <ele>598.8</ele>
        <time>2023-10-01T09:19:17Z</time>
      </trkpt>
      <trkpt lat="43.39659" lon="2.0969">
        <ele>598.2</ele>
        <time>2023-10-01T09:19:18Z</time>
      </trkpt>
      <trkpt lat="43.39659" lon="2.09683">
        <ele>598.2</ele>
        <time>2023-10-01T09:19:19Z</time>
      </trkpt>
      <trkpt lat="43.39659" lon="2.09676">
        <ele>598</ele>
        <time>2023-10-01T09:19:20Z</time>
      </trkpt>
      <trkpt lat="43.39657" lon="2.09669">
        <ele>597.8</ele>
        <time>2023-10-01T09:19:21Z</time>
      </trkpt>
      <trkpt lat="43.39654" lon="2.09665">
        <ele>597.8</ele>
        <time>2023-10-01T09:19:22Z</time>
      </trkpt>
      <trkpt lat="43.39651" lon="2.09662">
        <ele>597.8</ele>
        <time>2023-10-01T09:19:23Z</time>
      </trkpt>
      <trkpt lat="43.39649" lon="2.09658">
        <ele>597.8</ele>
        <time>2023-10-01T09:19:24Z</time>
      </trkpt>
      <trkpt lat="43.39649" lon="2.09653">
        <ele>598</ele>
        <time>2023-10-01T09:19:25Z</time>
      </trkpt>
      <trkpt lat="43.3965" lon="2.09639">
        <ele>598.4</ele>
        <time>2023-10-01T09:19:28Z</time>
      </trkpt>
      <trkpt lat="43.39649" lon="2.09629">
        <ele>598.8</ele>
        <time>2023-10-01T09:19:30Z</time>
      </trkpt>
      <trkpt lat="43.39649" lon="2.09624">
        <ele>598.8</ele>
        <time>2023-10-01T09:19:31Z</time>
      </trkpt>
      <trkpt lat="43.3965" lon="2.09618">
        <ele>599</ele>
        <time>2023-10-01T09:19:32Z</time>
      </trkpt>
      <trkpt lat="43.39651" lon="2.09611">
        <ele>599.2</ele>
        <time>2023-10-01T09:19:33Z</time>
      </trkpt>
      <trkpt lat="43.39652" lon="2.09603">
        <ele>599.4</ele>
        <time>2023-10-01T09:19:34Z</time>
      </trkpt>
      <trkpt lat="43.39652" lon="2.09597">
        <ele>599.6</ele>
        <time>2023-10-01T09:19:35Z</time>
      </trkpt>
      <trkpt lat="43.39655" lon="2.09592">
        <ele>600.4</ele>
        <time>2023-10-01T09:19:36Z</time>
      </trkpt>
      <trkpt lat="43.39659" lon="2.09588">
        <ele>600.8</ele>
        <time>2023-10-01T09:19:37Z</time>
      </trkpt>
      <trkpt lat="43.39662" lon="2.09584">
        <ele>601.4</ele>
        <time>2023-10-01T09:19:38Z</time>
      </trkpt>
      <trkpt lat="43.39665" lon="2.09579">
        <ele>601.8</ele>
        <time>2023-10-01T09:19:39Z</time>
      </trkpt>
      <trkpt lat="43.39669" lon="2.09572">
        <ele>602</ele>
        <time>2023-10-01T09:19:40Z</time>
      </trkpt>
      <trkpt lat="43.39673" lon="2.09567">
        <ele>602.2</ele>
        <time>2023-10-01T09:19:41Z</time>
      </trkpt>
      <trkpt lat="43.39677" lon="2.09561">
        <ele>602.4</ele>
        <time>2023-10-01T09:19:42Z</time>
      </trkpt>
      <trkpt lat="43.39681" lon="2.09558">
        <ele>602.4</ele>
        <time>2023-10-01T09:19:43Z</time>
      </trkpt>
      <trkpt lat="43.39686" lon="2.09554">
        <ele>602.6</ele>
        <time>2023-10-01T09:19:44Z</time>
      </trkpt>
      <trkpt lat="43.39691" lon="2.09549">
        <ele>602.6</ele>
        <time>2023-10-01T09:19:45Z</time>
      </trkpt>
      <trkpt lat="43.39695" lon="2.09546">
        <ele>602.8</ele>
        <time>2023-10-01T09:19:46Z</time>
      </trkpt>
      <trkpt lat="43.397" lon="2.09543">
        <ele>602.8</ele>
        <time>2023-10-01T09:19:47Z</time>
      </trkpt>
      <trkpt lat="43.39705" lon="2.09541">
        <ele>603</ele>
        <time>2023-10-01T09:19:48Z</time>
      </trkpt>
      <trkpt lat="43.3971" lon="2.09539">
        <ele>603</ele>
        <time>2023-10-01T09:19:49Z</time>
      </trkpt>
      <trkpt lat="43.39717" lon="2.09535">
        <ele>603</ele>
        <time>2023-10-01T09:19:50Z</time>
      </trkpt>
      <trkpt lat="43.39722" lon="2.09534">
        <ele>603</ele>
        <time>2023-10-01T09:19:51Z</time>
      </trkpt>
      <trkpt lat="43.39727" lon="2.09533">
        <ele>603</ele>
        <time>2023-10-01T09:19:52Z</time>
      </trkpt>
      <trkpt lat="43.39733" lon="2.09533">
        <ele>603</ele>
        <time>2023-10-01T09:19:53Z</time>
      </trkpt>
      <trkpt lat="43.3974" lon="2.09534">
        <ele>603</ele>
        <time>2023-10-01T09:19:54Z</time>
      </trkpt>
      <trkpt lat="43.39747" lon="2.09536">
        <ele>603</ele>
        <time>2023-10-01T09:19:55Z</time>
      </trkpt>
      <trkpt lat="43.39753" lon="2.09539">
        <ele>603</ele>
        <time>2023-10-01T09:19:56Z</time>
      </trkpt>
      <trkpt lat="43.39759" lon="2.09542">
        <ele>603</ele>
        <time>2023-10-01T09:19:57Z</time>
      </trkpt>
      <trkpt lat="43.39765" lon="2.09546">
        <ele>602.8</ele>
        <time>2023-10-01T09:19:58Z</time>
      </trkpt>
      <trkpt lat="43.3977" lon="2.09549">
        <ele>602.6</ele>
        <time>2023-10-01T09:19:59Z</time>
      </trkpt>
      <trkpt lat="43.39774" lon="2.09554">
        <ele>602.6</ele>
        <time>2023-10-01T09:20:00Z</time>
      </trkpt>
      <trkpt lat="43.39776" lon="2.09559">
        <ele>602.6</ele>
        <time>2023-10-01T09:20:01Z</time>
      </trkpt>
      <trkpt lat="43.39777" lon="2.09563">
        <ele>602.6</ele>
        <time>2023-10-01T09:20:02Z</time>
      </trkpt>
      <trkpt lat="43.39778" lon="2.09568">
        <ele>602.6</ele>
        <time>2023-10-01T09:20:03Z</time>
      </trkpt>
      <trkpt lat="43.39779" lon="2.09573">
        <ele>602.6</ele>
        <time>2023-10-01T09:20:04Z</time>
      </trkpt>
      <trkpt lat="43.3978" lon="2.0958">
        <ele>602.4</ele>
        <time>2023-10-01T09:20:05Z</time>
      </trkpt>
      <trkpt lat="43.39782" lon="2.09594">
        <ele>602.4</ele>
        <time>2023-10-01T09:20:07Z</time>
      </trkpt>
      <trkpt lat="43.39784" lon="2.09599">
        <ele>602.2</ele>
        <time>2023-10-01T09:20:08Z</time>
      </trkpt>
      <trkpt lat="43.39786" lon="2.09606">
        <ele>602.2</ele>
        <time>2023-10-01T09:20:09Z</time>
      </trkpt>
      <trkpt lat="43.39789" lon="2.09621">
        <ele>602</ele>
        <time>2023-10-01T09:20:11Z</time>
      </trkpt>
      <trkpt lat="43.39791" lon="2.09627">
        <ele>602</ele>
        <time>2023-10-01T09:20:12Z</time>
      </trkpt>
      <trkpt lat="43.39793" lon="2.09632">
        <ele>602</ele>
        <time>2023-10-01T09:20:13Z</time>
      </trkpt>
      <trkpt lat="43.39795" lon="2.09638">
        <ele>602</ele>
        <time>2023-10-01T09:20:14Z</time>
      </trkpt>
      <trkpt lat="43.39797" lon="2.09642">
        <ele>602</ele>
        <time>2023-10-01T09:20:15Z</time>
      </trkpt>
      <trkpt lat="43.39799" lon="2.09648">
        <ele>602</ele>
        <time>2023-10-01T09:20:16Z</time>
      </trkpt>
      <trkpt lat="43.39802" lon="2.09655">
        <ele>602</ele>
        <time>2023-10-01T09:20:17Z</time>
      </trkpt>
      <trkpt lat="43.39804" lon="2.0966">
        <ele>602</ele>
        <time>2023-10-01T09:20:18Z</time>
      </trkpt>
      <trkpt lat="43.39807" lon="2.09667">
        <ele>602</ele>
        <time>2023-10-01T09:20:19Z</time>
      </trkpt>
      <trkpt lat="43.39815" lon="2.09684">
        <ele>602</ele>
        <time>2023-10-01T09:20:22Z</time>
      </trkpt>
      <trkpt lat="43.39817" lon="2.0969">
        <ele>602</ele>
        <time>2023-10-01T09:20:23Z</time>
      </trkpt>
      <trkpt lat="43.39818" lon="2.09697">
        <ele>602</ele>
        <time>2023-10-01T09:20:24Z</time>
      </trkpt>
      <trkpt lat="43.39822" lon="2.09711">
        <ele>602</ele>
        <time>2023-10-01T09:20:26Z</time>
      </trkpt>
      <trkpt lat="43.3983" lon="2.09739">
        <ele>602</ele>
        <time>2023-10-01T09:20:30Z</time>
      </trkpt>
      <trkpt lat="43.39832" lon="2.09745">
        <ele>602</ele>
        <time>2023-10-01T09:20:31Z</time>
      </trkpt>
      <trkpt lat="43.39834" lon="2.09751">
        <ele>602</ele>
        <time>2023-10-01T09:20:32Z</time>
      </trkpt>
      <trkpt lat="43.39846" lon="2.09774">
        <ele>601.8</ele>
        <time>2023-10-01T09:20:35Z</time>
      </trkpt>
      <trkpt lat="43.39852" lon="2.0978">
        <ele>601.8</ele>
        <time>2023-10-01T09:20:36Z</time>
      </trkpt>
      <trkpt lat="43.39856" lon="2.09784">
        <ele>601.8</ele>
        <time>2023-10-01T09:20:37Z</time>
      </trkpt>
      <trkpt lat="43.3986" lon="2.09784">
        <ele>601.6</ele>
        <time>2023-10-01T09:20:38Z</time>
      </trkpt>
      <trkpt lat="43.3987" lon="2.09779">
        <ele>601.6</ele>
        <time>2023-10-01T09:20:40Z</time>
      </trkpt>
      <trkpt lat="43.39902" lon="2.09753">
        <ele>601.4</ele>
        <time>2023-10-01T09:20:46Z</time>
      </trkpt>
      <trkpt lat="43.39912" lon="2.09744">
        <ele>601.4</ele>
        <time>2023-10-01T09:20:48Z</time>
      </trkpt>
      <trkpt lat="43.39918" lon="2.0974">
        <ele>601.4</ele>
        <time>2023-10-01T09:20:49Z</time>
      </trkpt>
      <trkpt lat="43.39924" lon="2.09734">
        <ele>601.4</ele>
        <time>2023-10-01T09:20:50Z</time>
      </trkpt>
      <trkpt lat="43.39934" lon="2.09724">
        <ele>601.6</ele>
        <time>2023-10-01T09:20:52Z</time>
      </trkpt>
      <trkpt lat="43.39939" lon="2.0972">
        <ele>601.6</ele>
        <time>2023-10-01T09:20:53Z</time>
      </trkpt>
      <trkpt lat="43.39943" lon="2.09716">
        <ele>601.6</ele>
        <time>2023-10-01T09:20:54Z</time>
      </trkpt>
      <trkpt lat="43.39972" lon="2.09682">
        <ele>601.8</ele>
        <time>2023-10-01T09:21:00Z</time>
      </trkpt>
      <trkpt lat="43.39975" lon="2.09677">
        <ele>602</ele>
        <time>2023-10-01T09:21:01Z</time>
      </trkpt>
      <trkpt lat="43.39978" lon="2.09671">
        <ele>602</ele>
        <time>2023-10-01T09:21:02Z</time>
      </trkpt>
      <trkpt lat="43.39981" lon="2.09665">
        <ele>602</ele>
        <time>2023-10-01T09:21:03Z</time>
      </trkpt>
      <trkpt lat="43.39984" lon="2.0966">
        <ele>602</ele>
        <time>2023-10-01T09:21:04Z</time>
      </trkpt>
      <trkpt lat="43.39987" lon="2.09653">
        <ele>602</ele>
        <time>2023-10-01T09:21:05Z</time>
      </trkpt>
      <trkpt lat="43.3999" lon="2.09647">
        <ele>602</ele>
        <time>2023-10-01T09:21:06Z</time>
      </trkpt>
      <trkpt lat="43.39991" lon="2.09642">
        <ele>602</ele>
        <time>2023-10-01T09:21:07Z</time>
      </trkpt>
      <trkpt lat="43.39996" lon="2.09628">
        <ele>601.8</ele>
        <time>2023-10-01T09:21:09Z</time>
      </trkpt>
      <trkpt lat="43.39997" lon="2.09621">
        <ele>601.8</ele>
        <time>2023-10-01T09:21:10Z</time>
      </trkpt>
      <trkpt lat="43.39998" lon="2.09615">
        <ele>601.8</ele>
        <time>2023-10-01T09:21:11Z</time>
      </trkpt>
      <trkpt lat="43.39999" lon="2.09609">
        <ele>601.8</ele>
        <time>2023-10-01T09:21:12Z</time>
      </trkpt>
      <trkpt lat="43.4" lon="2.09603">
        <ele>601.8</ele>
        <time>2023-10-01T09:21:13Z</time>
      </trkpt>
      <trkpt lat="43.4" lon="2.09597">
        <ele>601.8</ele>
        <time>2023-10-01T09:21:14Z</time>
      </trkpt>
      <trkpt lat="43.40001" lon="2.09591">
        <ele>601.6</ele>
        <time>2023-10-01T09:21:15Z</time>
      </trkpt>
      <trkpt lat="43.40001" lon="2.09586">
        <ele>601.6</ele>
        <time>2023-10-01T09:21:16Z</time>
      </trkpt>
      <trkpt lat="43.40001" lon="2.09578">
        <ele>601.6</ele>
        <time>2023-10-01T09:21:17Z</time>
      </trkpt>
      <trkpt lat="43.40001" lon="2.09572">
        <ele>601.6</ele>
        <time>2023-10-01T09:21:18Z</time>
      </trkpt>
      <trkpt lat="43.40001" lon="2.09565">
        <ele>601.6</ele>
        <time>2023-10-01T09:21:19Z</time>
      </trkpt>
      <trkpt lat="43.40002" lon="2.09559">
        <ele>601.6</ele>
        <time>2023-10-01T09:21:20Z</time>
      </trkpt>
      <trkpt lat="43.40004" lon="2.09551">
        <ele>601.4</ele>
        <time>2023-10-01T09:21:21Z</time>
      </trkpt>
      <trkpt lat="43.40006" lon="2.09547">
        <ele>601.4</ele>
        <time>2023-10-01T09:21:22Z</time>
      </trkpt>
      <trkpt lat="43.40008" lon="2.09542">
        <ele>601.4</ele>
        <time>2023-10-01T09:21:23Z</time>
      </trkpt>
      <trkpt lat="43.4001" lon="2.09538">
        <ele>601.4</ele>
        <time>2023-10-01T09:21:24Z</time>
      </trkpt>
      <trkpt lat="43.40011" lon="2.09534">
        <ele>601.4</ele>
        <time>2023-10-01T09:21:25Z</time>
      </trkpt>
      <trkpt lat="43.40013" lon="2.09532">
        <ele>601.4</ele>
        <time>2023-10-01T09:21:26Z</time>
      </trkpt>
      <trkpt lat="43.40013" lon="2.0953">
        <ele>601.4</ele>
        <time>2023-10-01T09:21:27Z</time>
      </trkpt>
      <trkpt lat="43.40013" lon="2.09528">
        <ele>601.4</ele>
        <time>2023-10-01T09:21:28Z</time>
      </trkpt>
      <trkpt lat="43.40012" lon="2.09527">
        <ele>601.4</ele>
        <time>2023-10-01T09:21:29Z</time>
      </trkpt>
      <trkpt lat="43.40012" lon="2.09526">
        <ele>601.4</ele>
        <time>2023-10-01T09:21:30Z</time>
      </trkpt>
      <trkpt lat="43.4001" lon="2.09525">
        <ele>601.4</ele>
        <time>2023-10-01T09:21:31Z</time>
      </trkpt>
      <trkpt lat="43.4001" lon="2.09522">
        <ele>601.4</ele>
        <time>2023-10-01T09:21:32Z</time>
      </trkpt>
      <trkpt lat="43.40007" lon="2.09522">
        <ele>601.6</ele>
        <time>2023-10-01T09:21:36Z</time>
      </trkpt>
      <trkpt lat="43.40006" lon="2.09523">
        <ele>601.8</ele>
        <time>2023-10-01T09:21:37Z</time>
      </trkpt>
      <trkpt lat="43.40005" lon="2.09524">
        <ele>601.8</ele>
        <time>2023-10-01T09:21:38Z</time>
      </trkpt>
      <trkpt lat="43.40004" lon="2.09524">
        <ele>602</ele>
        <time>2023-10-01T09:21:39Z</time>
      </trkpt>
      <trkpt lat="43.40004" lon="2.09524">
        <ele>602.2</ele>
        <time>2023-10-01T09:21:40Z</time>
      </trkpt>
      <trkpt lat="43.40004" lon="2.09524">
        <ele>602.2</ele>
        <time>2023-10-01T09:21:41Z</time>
      </trkpt>
      <trkpt lat="43.40003" lon="2.09524">
        <ele>602.4</ele>
        <time>2023-10-01T09:21:43Z</time>
      </trkpt>
      <trkpt lat="43.40001" lon="2.09525">
        <ele>603</ele>
        <time>2023-10-01T09:21:52Z</time>
      </trkpt>
      <trkpt lat="43.39996" lon="2.09524">
        <ele>603.2</ele>
        <time>2023-10-01T09:21:54Z</time>
      </trkpt>
      <trkpt lat="43.39995" lon="2.09523">
        <ele>603.4</ele>
        <time>2023-10-01T09:21:55Z</time>
      </trkpt>
      <trkpt lat="43.39994" lon="2.09521">
        <ele>603.6</ele>
        <time>2023-10-01T09:21:56Z</time>
      </trkpt>
      <trkpt lat="43.39993" lon="2.0952">
        <ele>603.8</ele>
        <time>2023-10-01T09:21:57Z</time>
      </trkpt>
      <trkpt lat="43.39992" lon="2.09517">
        <ele>604</ele>
        <time>2023-10-01T09:21:58Z</time>
      </trkpt>
      <trkpt lat="43.39992" lon="2.09514">
        <ele>604.2</ele>
        <time>2023-10-01T09:21:59Z</time>
      </trkpt>
      <trkpt lat="43.39993" lon="2.09512">
        <ele>604.6</ele>
        <time>2023-10-01T09:22:00Z</time>
      </trkpt>
      <trkpt lat="43.39994" lon="2.09509">
        <ele>605</ele>
        <time>2023-10-01T09:22:01Z</time>
      </trkpt>
      <trkpt lat="43.39995" lon="2.09507">
        <ele>605.6</ele>
        <time>2023-10-01T09:22:02Z</time>
      </trkpt>
      <trkpt lat="43.39996" lon="2.09505">
        <ele>606.6</ele>
        <time>2023-10-01T09:22:03Z</time>
      </trkpt>
      <trkpt lat="43.39998" lon="2.09502">
        <ele>606.8</ele>
        <time>2023-10-01T09:22:04Z</time>
      </trkpt>
      <trkpt lat="43.40001" lon="2.09498">
        <ele>607.4</ele>
        <time>2023-10-01T09:22:05Z</time>
      </trkpt>
      <trkpt lat="43.40004" lon="2.09493">
        <ele>607.6</ele>
        <time>2023-10-01T09:22:06Z</time>
      </trkpt>
      <trkpt lat="43.40007" lon="2.09489">
        <ele>608</ele>
        <time>2023-10-01T09:22:07Z</time>
      </trkpt>
      <trkpt lat="43.4001" lon="2.09483">
        <ele>608.2</ele>
        <time>2023-10-01T09:22:08Z</time>
      </trkpt>
      <trkpt lat="43.40011" lon="2.09479">
        <ele>608.6</ele>
        <time>2023-10-01T09:22:09Z</time>
      </trkpt>
      <trkpt lat="43.40012" lon="2.09474">
        <ele>608.6</ele>
        <time>2023-10-01T09:22:10Z</time>
      </trkpt>
      <trkpt lat="43.40016" lon="2.09469">
        <ele>608.8</ele>
        <time>2023-10-01T09:22:11Z</time>
      </trkpt>
      <trkpt lat="43.40019" lon="2.09464">
        <ele>608.8</ele>
        <time>2023-10-01T09:22:12Z</time>
      </trkpt>
      <trkpt lat="43.40021" lon="2.0946">
        <ele>608.8</ele>
        <time>2023-10-01T09:22:13Z</time>
      </trkpt>
      <trkpt lat="43.40023" lon="2.09456">
        <ele>609</ele>
        <time>2023-10-01T09:22:14Z</time>
      </trkpt>
      <trkpt lat="43.40025" lon="2.09453">
        <ele>609</ele>
        <time>2023-10-01T09:22:15Z</time>
      </trkpt>
      <trkpt lat="43.40026" lon="2.09449">
        <ele>609</ele>
        <time>2023-10-01T09:22:16Z</time>
      </trkpt>
      <trkpt lat="43.40029" lon="2.09445">
        <ele>609</ele>
        <time>2023-10-01T09:22:17Z</time>
      </trkpt>
      <trkpt lat="43.40031" lon="2.0944">
        <ele>609</ele>
        <time>2023-10-01T09:22:18Z</time>
      </trkpt>
      <trkpt lat="43.40034" lon="2.09436">
        <ele>609.2</ele>
        <time>2023-10-01T09:22:19Z</time>
      </trkpt>
      <trkpt lat="43.40036" lon="2.09432">
        <ele>609.2</ele>
        <time>2023-10-01T09:22:20Z</time>
      </trkpt>
      <trkpt lat="43.40039" lon="2.09428">
        <ele>609.2</ele>
        <time>2023-10-01T09:22:21Z</time>
      </trkpt>
      <trkpt lat="43.4004" lon="2.09425">
        <ele>609.4</ele>
        <time>2023-10-01T09:22:22Z</time>
      </trkpt>
      <trkpt lat="43.40042" lon="2.0942">
        <ele>609.4</ele>
        <time>2023-10-01T09:22:23Z</time>
      </trkpt>
      <trkpt lat="43.40048" lon="2.09414">
        <ele>609.6</ele>
        <time>2023-10-01T09:22:24Z</time>
      </trkpt>
      <trkpt lat="43.40052" lon="2.09408">
        <ele>609.6</ele>
        <time>2023-10-01T09:22:25Z</time>
      </trkpt>
      <trkpt lat="43.40053" lon="2.09405">
        <ele>609.8</ele>
        <time>2023-10-01T09:22:26Z</time>
      </trkpt>
      <trkpt lat="43.40055" lon="2.09401">
        <ele>609.8</ele>
        <time>2023-10-01T09:22:27Z</time>
      </trkpt>
      <trkpt lat="43.40056" lon="2.09398">
        <ele>610</ele>
        <time>2023-10-01T09:22:28Z</time>
      </trkpt>
      <trkpt lat="43.40057" lon="2.09394">
        <ele>610</ele>
        <time>2023-10-01T09:22:29Z</time>
      </trkpt>
      <trkpt lat="43.40056" lon="2.09392">
        <ele>610.2</ele>
        <time>2023-10-01T09:22:30Z</time>
      </trkpt>
      <trkpt lat="43.40058" lon="2.09388">
        <ele>610.2</ele>
        <time>2023-10-01T09:22:31Z</time>
      </trkpt>
      <trkpt lat="43.4006" lon="2.09383">
        <ele>610.2</ele>
        <time>2023-10-01T09:22:32Z</time>
      </trkpt>
      <trkpt lat="43.40063" lon="2.09378">
        <ele>610.2</ele>
        <time>2023-10-01T09:22:33Z</time>
      </trkpt>
      <trkpt lat="43.40066" lon="2.09376">
        <ele>610.2</ele>
        <time>2023-10-01T09:22:34Z</time>
      </trkpt>
      <trkpt lat="43.40067" lon="2.09376">
        <ele>610.2</ele>
        <time>2023-10-01T09:22:35Z</time>
      </trkpt>
      <trkpt lat="43.40069" lon="2.09376">
        <ele>610</ele>
        <time>2023-10-01T09:22:36Z</time>
      </trkpt>
      <trkpt lat="43.40072" lon="2.09376">
        <ele>609.8</ele>
        <time>2023-10-01T09:22:37Z</time>
      </trkpt>
      <trkpt lat="43.40075" lon="2.09376">
        <ele>609.4</ele>
        <time>2023-10-01T09:22:38Z</time>
      </trkpt>
      <trkpt lat="43.40079" lon="2.09374">
        <ele>609</ele>
        <time>2023-10-01T09:22:39Z</time>
      </trkpt>
      <trkpt lat="43.40083" lon="2.09372">
        <ele>608.6</ele>
        <time>2023-10-01T09:22:40Z</time>
      </trkpt>
      <trkpt lat="43.40092" lon="2.09368">
        <ele>607.8</ele>
        <time>2023-10-01T09:22:42Z</time>
      </trkpt>
      <trkpt lat="43.40097" lon="2.09367">
        <ele>606.6</ele>
        <time>2023-10-01T09:22:44Z</time>
      </trkpt>
      <trkpt lat="43.401" lon="2.09366">
        <ele>606.4</ele>
        <time>2023-10-01T09:22:45Z</time>
      </trkpt>
      <trkpt lat="43.40102" lon="2.09365">
        <ele>606.2</ele>
        <time>2023-10-01T09:22:46Z</time>
      </trkpt>
      <trkpt lat="43.40106" lon="2.09365">
        <ele>606.2</ele>
        <time>2023-10-01T09:22:47Z</time>
      </trkpt>
      <trkpt lat="43.40108" lon="2.09366">
        <ele>606.2</ele>
        <time>2023-10-01T09:22:48Z</time>
      </trkpt>
      <trkpt lat="43.40113" lon="2.09363">
        <ele>606.4</ele>
        <time>2023-10-01T09:22:50Z</time>
      </trkpt>
      <trkpt lat="43.40122" lon="2.09361">
        <ele>607.8</ele>
        <time>2023-10-01T09:22:53Z</time>
      </trkpt>
      <trkpt lat="43.40124" lon="2.09361">
        <ele>608.4</ele>
        <time>2023-10-01T09:22:54Z</time>
      </trkpt>
      <trkpt lat="43.40128" lon="2.09361">
        <ele>608.6</ele>
        <time>2023-10-01T09:22:55Z</time>
      </trkpt>
      <trkpt lat="43.4013" lon="2.09361">
        <ele>609.2</ele>
        <time>2023-10-01T09:22:56Z</time>
      </trkpt>
      <trkpt lat="43.40132" lon="2.09362">
        <ele>609.4</ele>
        <time>2023-10-01T09:22:57Z</time>
      </trkpt>
      <trkpt lat="43.40133" lon="2.09362">
        <ele>609.8</ele>
        <time>2023-10-01T09:22:58Z</time>
      </trkpt>
      <trkpt lat="43.40133" lon="2.09363">
        <ele>610</ele>
        <time>2023-10-01T09:22:59Z</time>
      </trkpt>
      <trkpt lat="43.40133" lon="2.09363">
        <ele>610.2</ele>
        <time>2023-10-01T09:23:00Z</time>
      </trkpt>
      <trkpt lat="43.40133" lon="2.09363">
        <ele>610.2</ele>
        <time>2023-10-01T09:23:01Z</time>
      </trkpt>
      <trkpt lat="43.40133" lon="2.09363">
        <ele>610.4</ele>
        <time>2023-10-01T09:23:02Z</time>
      </trkpt>
      <trkpt lat="43.40138" lon="2.09366">
        <ele>610.8</ele>
        <time>2023-10-01T09:23:34Z</time>
      </trkpt>
      <trkpt lat="43.40141" lon="2.09368">
        <ele>611</ele>
        <time>2023-10-01T09:23:36Z</time>
      </trkpt>
      <trkpt lat="43.40142" lon="2.09368">
        <ele>611</ele>
        <time>2023-10-01T09:23:37Z</time>
      </trkpt>
      <trkpt lat="43.40143" lon="2.0937">
        <ele>611.2</ele>
        <time>2023-10-01T09:23:38Z</time>
      </trkpt>
      <trkpt lat="43.4015" lon="2.09374">
        <ele>612.6</ele>
        <time>2023-10-01T09:23:41Z</time>
      </trkpt>
      <trkpt lat="43.40154" lon="2.09378">
        <ele>613.6</ele>
        <time>2023-10-01T09:23:43Z</time>
      </trkpt>
      <trkpt lat="43.40157" lon="2.09382">
        <ele>613.6</ele>
        <time>2023-10-01T09:23:44Z</time>
      </trkpt>
      <trkpt lat="43.40165" lon="2.09388">
        <ele>614</ele>
        <time>2023-10-01T09:23:46Z</time>
      </trkpt>
      <trkpt lat="43.4017" lon="2.09389">
        <ele>614.2</ele>
        <time>2023-10-01T09:23:47Z</time>
      </trkpt>
      <trkpt lat="43.40176" lon="2.09391">
        <ele>614.2</ele>
        <time>2023-10-01T09:23:48Z</time>
      </trkpt>
      <trkpt lat="43.40182" lon="2.09391">
        <ele>614.2</ele>
        <time>2023-10-01T09:23:49Z</time>
      </trkpt>
      <trkpt lat="43.40189" lon="2.0939">
        <ele>614.2</ele>
        <time>2023-10-01T09:23:50Z</time>
      </trkpt>
      <trkpt lat="43.40195" lon="2.09388">
        <ele>614</ele>
        <time>2023-10-01T09:23:51Z</time>
      </trkpt>
      <trkpt lat="43.40203" lon="2.09386">
        <ele>614</ele>
        <time>2023-10-01T09:23:52Z</time>
      </trkpt>
      <trkpt lat="43.4021" lon="2.09384">
        <ele>614</ele>
        <time>2023-10-01T09:23:53Z</time>
      </trkpt>
      <trkpt lat="43.40216" lon="2.09383">
        <ele>613.8</ele>
        <time>2023-10-01T09:23:54Z</time>
      </trkpt>
      <trkpt lat="43.40223" lon="2.09383">
        <ele>613.8</ele>
        <time>2023-10-01T09:23:55Z</time>
      </trkpt>
      <trkpt lat="43.40231" lon="2.0938">
        <ele>613.6</ele>
        <time>2023-10-01T09:23:56Z</time>
      </trkpt>
      <trkpt lat="43.40242" lon="2.09377">
        <ele>613.2</ele>
        <time>2023-10-01T09:23:57Z</time>
      </trkpt>
      <trkpt lat="43.40249" lon="2.09374">
        <ele>613</ele>
        <time>2023-10-01T09:23:58Z</time>
      </trkpt>
      <trkpt lat="43.40254" lon="2.09372">
        <ele>612.4</ele>
        <time>2023-10-01T09:23:59Z</time>
      </trkpt>
      <trkpt lat="43.40259" lon="2.0937">
        <ele>612.2</ele>
        <time>2023-10-01T09:24:00Z</time>
      </trkpt>
      <trkpt lat="43.40265" lon="2.09369">
        <ele>611.2</ele>
        <time>2023-10-01T09:24:01Z</time>
      </trkpt>
      <trkpt lat="43.4027" lon="2.09369">
        <ele>610.6</ele>
        <time>2023-10-01T09:24:02Z</time>
      </trkpt>
      <trkpt lat="43.40275" lon="2.09369">
        <ele>609.6</ele>
        <time>2023-10-01T09:24:03Z</time>
      </trkpt>
      <trkpt lat="43.40286" lon="2.09364">
        <ele>608.2</ele>
        <time>2023-10-01T09:24:05Z</time>
      </trkpt>
      <trkpt lat="43.40295" lon="2.0936">
        <ele>607.4</ele>
        <time>2023-10-01T09:24:07Z</time>
      </trkpt>
      <trkpt lat="43.403" lon="2.09356">
        <ele>607</ele>
        <time>2023-10-01T09:24:08Z</time>
      </trkpt>
      <trkpt lat="43.40303" lon="2.09352">
        <ele>606.8</ele>
        <time>2023-10-01T09:24:09Z</time>
      </trkpt>
      <trkpt lat="43.40305" lon="2.09348">
        <ele>606.6</ele>
        <time>2023-10-01T09:24:10Z</time>
      </trkpt>
      <trkpt lat="43.40308" lon="2.09345">
        <ele>606</ele>
        <time>2023-10-01T09:24:11Z</time>
      </trkpt>
      <trkpt lat="43.40312" lon="2.09343">
        <ele>605.8</ele>
        <time>2023-10-01T09:24:12Z</time>
      </trkpt>
      <trkpt lat="43.40314" lon="2.0934">
        <ele>605.4</ele>
        <time>2023-10-01T09:24:13Z</time>
      </trkpt>
      <trkpt lat="43.40316" lon="2.09338">
        <ele>605.4</ele>
        <time>2023-10-01T09:24:14Z</time>
      </trkpt>
      <trkpt lat="43.40318" lon="2.09337">
        <ele>605</ele>
        <time>2023-10-01T09:24:15Z</time>
      </trkpt>
      <trkpt lat="43.4032" lon="2.09336">
        <ele>605</ele>
        <time>2023-10-01T09:24:16Z</time>
      </trkpt>
      <trkpt lat="43.40323" lon="2.09334">
        <ele>604.6</ele>
        <time>2023-10-01T09:24:17Z</time>
      </trkpt>
      <trkpt lat="43.40329" lon="2.09332">
        <ele>604.2</ele>
        <time>2023-10-01T09:24:19Z</time>
      </trkpt>
      <trkpt lat="43.40333" lon="2.09333">
        <ele>603.4</ele>
        <time>2023-10-01T09:24:20Z</time>
      </trkpt>
      <trkpt lat="43.40335" lon="2.09332">
        <ele>603.2</ele>
        <time>2023-10-01T09:24:21Z</time>
      </trkpt>
      <trkpt lat="43.40338" lon="2.0933">
        <ele>603</ele>
        <time>2023-10-01T09:24:22Z</time>
      </trkpt>
      <trkpt lat="43.40341" lon="2.09327">
        <ele>602.8</ele>
        <time>2023-10-01T09:24:23Z</time>
      </trkpt>
      <trkpt lat="43.40345" lon="2.09323">
        <ele>602</ele>
        <time>2023-10-01T09:24:24Z</time>
      </trkpt>
      <trkpt lat="43.40348" lon="2.0932">
        <ele>601.6</ele>
        <time>2023-10-01T09:24:25Z</time>
      </trkpt>
      <trkpt lat="43.4036" lon="2.09305">
        <ele>601.2</ele>
        <time>2023-10-01T09:24:29Z</time>
      </trkpt>
      <trkpt lat="43.40363" lon="2.09302">
        <ele>601.2</ele>
        <time>2023-10-01T09:24:30Z</time>
      </trkpt>
      <trkpt lat="43.40365" lon="2.09298">
        <ele>601</ele>
        <time>2023-10-01T09:24:31Z</time>
      </trkpt>
      <trkpt lat="43.40367" lon="2.09294">
        <ele>601</ele>
        <time>2023-10-01T09:24:32Z</time>
      </trkpt>
      <trkpt lat="43.4037" lon="2.09291">
        <ele>601</ele>
        <time>2023-10-01T09:24:33Z</time>
      </trkpt>
      <trkpt lat="43.40372" lon="2.09287">
        <ele>601</ele>
        <time>2023-10-01T09:24:34Z</time>
      </trkpt>
      <trkpt lat="43.40377" lon="2.0928">
        <ele>601</ele>
        <time>2023-10-01T09:24:36Z</time>
      </trkpt>
      <trkpt lat="43.40379" lon="2.09277">
        <ele>601</ele>
        <time>2023-10-01T09:24:37Z</time>
      </trkpt>
      <trkpt lat="43.40385" lon="2.09266">
        <ele>601</ele>
        <time>2023-10-01T09:24:39Z</time>
      </trkpt>
      <trkpt lat="43.4039" lon="2.09251">
        <ele>601</ele>
        <time>2023-10-01T09:24:42Z</time>
      </trkpt>
      <trkpt lat="43.40393" lon="2.09245">
        <ele>601</ele>
        <time>2023-10-01T09:24:43Z</time>
      </trkpt>
      <trkpt lat="43.404" lon="2.0923">
        <ele>601.2</ele>
        <time>2023-10-01T09:24:46Z</time>
      </trkpt>
      <trkpt lat="43.40404" lon="2.09226">
        <ele>601</ele>
        <time>2023-10-01T09:24:47Z</time>
      </trkpt>
      <trkpt lat="43.40408" lon="2.09224">
        <ele>601.4</ele>
        <time>2023-10-01T09:24:48Z</time>
      </trkpt>
      <trkpt lat="43.40411" lon="2.09224">
        <ele>601.4</ele>
        <time>2023-10-01T09:24:49Z</time>
      </trkpt>
      <trkpt lat="43.40418" lon="2.09228">
        <ele>601.2</ele>
        <time>2023-10-01T09:24:51Z</time>
      </trkpt>
      <trkpt lat="43.40426" lon="2.09236">
        <ele>601.2</ele>
        <time>2023-10-01T09:24:53Z</time>
      </trkpt>
      <trkpt lat="43.40429" lon="2.0924">
        <ele>601.2</ele>
        <time>2023-10-01T09:24:54Z</time>
      </trkpt>
      <trkpt lat="43.40432" lon="2.09244">
        <ele>601.2</ele>
        <time>2023-10-01T09:24:55Z</time>
      </trkpt>
      <trkpt lat="43.40436" lon="2.09248">
        <ele>601.2</ele>
        <time>2023-10-01T09:24:56Z</time>
      </trkpt>
      <trkpt lat="43.40439" lon="2.09252">
        <ele>601</ele>
        <time>2023-10-01T09:24:57Z</time>
      </trkpt>
      <trkpt lat="43.40442" lon="2.09259">
        <ele>601</ele>
        <time>2023-10-01T09:24:58Z</time>
      </trkpt>
      <trkpt lat="43.40447" lon="2.09267">
        <ele>601</ele>
        <time>2023-10-01T09:24:59Z</time>
      </trkpt>
      <trkpt lat="43.4045" lon="2.09271">
        <ele>601</ele>
        <time>2023-10-01T09:25:00Z</time>
      </trkpt>
      <trkpt lat="43.40452" lon="2.09276">
        <ele>601</ele>
        <time>2023-10-01T09:25:01Z</time>
      </trkpt>
      <trkpt lat="43.40453" lon="2.0928">
        <ele>601</ele>
        <time>2023-10-01T09:25:02Z</time>
      </trkpt>
      <trkpt lat="43.40454" lon="2.09284">
        <ele>601</ele>
        <time>2023-10-01T09:25:03Z</time>
      </trkpt>
      <trkpt lat="43.40457" lon="2.09296">
        <ele>601</ele>
        <time>2023-10-01T09:25:05Z</time>
      </trkpt>
      <trkpt lat="43.40465" lon="2.09324">
        <ele>600.8</ele>
        <time>2023-10-01T09:25:09Z</time>
      </trkpt>
      <trkpt lat="43.40468" lon="2.09329">
        <ele>600.8</ele>
        <time>2023-10-01T09:25:10Z</time>
      </trkpt>
      <trkpt lat="43.40472" lon="2.09333">
        <ele>600.8</ele>
        <time>2023-10-01T09:25:11Z</time>
      </trkpt>
      <trkpt lat="43.40476" lon="2.09337">
        <ele>600.8</ele>
        <time>2023-10-01T09:25:12Z</time>
      </trkpt>
      <trkpt lat="43.40482" lon="2.09339">
        <ele>600.8</ele>
        <time>2023-10-01T09:25:13Z</time>
      </trkpt>
      <trkpt lat="43.40487" lon="2.09339">
        <ele>600.8</ele>
        <time>2023-10-01T09:25:14Z</time>
      </trkpt>
      <trkpt lat="43.40491" lon="2.09339">
        <ele>600.8</ele>
        <time>2023-10-01T09:25:15Z</time>
      </trkpt>
      <trkpt lat="43.40495" lon="2.09337">
        <ele>600.8</ele>
        <time>2023-10-01T09:25:16Z</time>
      </trkpt>
      <trkpt lat="43.40501" lon="2.09334">
        <ele>600.8</ele>
        <time>2023-10-01T09:25:17Z</time>
      </trkpt>
      <trkpt lat="43.40505" lon="2.0933">
        <ele>600.8</ele>
        <time>2023-10-01T09:25:18Z</time>
      </trkpt>
      <trkpt lat="43.4051" lon="2.09326">
        <ele>600.8</ele>
        <time>2023-10-01T09:25:19Z</time>
      </trkpt>
      <trkpt lat="43.40514" lon="2.09321">
        <ele>600.8</ele>
        <time>2023-10-01T09:25:20Z</time>
      </trkpt>
      <trkpt lat="43.40528" lon="2.09309">
        <ele>600.8</ele>
        <time>2023-10-01T09:25:23Z</time>
      </trkpt>
      <trkpt lat="43.40533" lon="2.09305">
        <ele>600.6</ele>
        <time>2023-10-01T09:25:24Z</time>
      </trkpt>
      <trkpt lat="43.40542" lon="2.093">
        <ele>600.8</ele>
        <time>2023-10-01T09:25:26Z</time>
      </trkpt>
      <trkpt lat="43.40545" lon="2.09297">
        <ele>600.8</ele>
        <time>2023-10-01T09:25:27Z</time>
      </trkpt>
      <trkpt lat="43.40548" lon="2.09294">
        <ele>600.8</ele>
        <time>2023-10-01T09:25:28Z</time>
      </trkpt>
      <trkpt lat="43.40549" lon="2.09293">
        <ele>600.8</ele>
        <time>2023-10-01T09:25:29Z</time>
      </trkpt>
      <trkpt lat="43.40552" lon="2.09292">
        <ele>600.8</ele>
        <time>2023-10-01T09:25:30Z</time>
      </trkpt>
      <trkpt lat="43.40554" lon="2.09292">
        <ele>600.8</ele>
        <time>2023-10-01T09:25:31Z</time>
      </trkpt>
      <trkpt lat="43.40556" lon="2.0929">
        <ele>600.8</ele>
        <time>2023-10-01T09:25:32Z</time>
      </trkpt>
      <trkpt lat="43.4056" lon="2.09287">
        <ele>600.8</ele>
        <time>2023-10-01T09:25:33Z</time>
      </trkpt>
      <trkpt lat="43.40565" lon="2.09279">
        <ele>600.8</ele>
        <time>2023-10-01T09:25:34Z</time>
      </trkpt>
      <trkpt lat="43.40572" lon="2.09273">
        <ele>600.8</ele>
        <time>2023-10-01T09:25:35Z</time>
      </trkpt>
      <trkpt lat="43.40577" lon="2.09269">
        <ele>600.8</ele>
        <time>2023-10-01T09:25:36Z</time>
      </trkpt>
      <trkpt lat="43.4058" lon="2.09267">
        <ele>600.2</ele>
        <time>2023-10-01T09:25:37Z</time>
      </trkpt>
      <trkpt lat="43.40583" lon="2.09265">
        <ele>599.8</ele>
        <time>2023-10-01T09:25:38Z</time>
      </trkpt>
      <trkpt lat="43.40586" lon="2.09262">
        <ele>598.8</ele>
        <time>2023-10-01T09:25:39Z</time>
      </trkpt>
      <trkpt lat="43.40589" lon="2.09261">
        <ele>598.6</ele>
        <time>2023-10-01T09:25:40Z</time>
      </trkpt>
      <trkpt lat="43.40593" lon="2.09256">
        <ele>598</ele>
        <time>2023-10-01T09:25:41Z</time>
      </trkpt>
      <trkpt lat="43.40596" lon="2.09252">
        <ele>597.2</ele>
        <time>2023-10-01T09:25:42Z</time>
      </trkpt>
      <trkpt lat="43.406" lon="2.09247">
        <ele>596</ele>
        <time>2023-10-01T09:25:44Z</time>
      </trkpt>
      <trkpt lat="43.40601" lon="2.09243">
        <ele>595.4</ele>
        <time>2023-10-01T09:25:45Z</time>
      </trkpt>
      <trkpt lat="43.40601" lon="2.0924">
        <ele>594.8</ele>
        <time>2023-10-01T09:25:46Z</time>
      </trkpt>
      <trkpt lat="43.40602" lon="2.09237">
        <ele>594.6</ele>
        <time>2023-10-01T09:25:47Z</time>
      </trkpt>
      <trkpt lat="43.40602" lon="2.09234">
        <ele>594.2</ele>
        <time>2023-10-01T09:25:48Z</time>
      </trkpt>
      <trkpt lat="43.40602" lon="2.09232">
        <ele>594</ele>
        <time>2023-10-01T09:25:49Z</time>
      </trkpt>
      <trkpt lat="43.40602" lon="2.0923">
        <ele>594</ele>
        <time>2023-10-01T09:25:50Z</time>
      </trkpt>
      <trkpt lat="43.40601" lon="2.09227">
        <ele>594</ele>
        <time>2023-10-01T09:25:53Z</time>
      </trkpt>
      <trkpt lat="43.40601" lon="2.09226">
        <ele>594</ele>
        <time>2023-10-01T09:25:54Z</time>
      </trkpt>
      <trkpt lat="43.40603" lon="2.09223">
        <ele>594.2</ele>
        <time>2023-10-01T09:25:55Z</time>
      </trkpt>
      <trkpt lat="43.40603" lon="2.09219">
        <ele>594.6</ele>
        <time>2023-10-01T09:25:56Z</time>
      </trkpt>
      <trkpt lat="43.40605" lon="2.09205">
        <ele>595.8</ele>
        <time>2023-10-01T09:26:00Z</time>
      </trkpt>
      <trkpt lat="43.4061" lon="2.09198">
        <ele>596</ele>
        <time>2023-10-01T09:26:01Z</time>
      </trkpt>
      <trkpt lat="43.40617" lon="2.09183">
        <ele>597</ele>
        <time>2023-10-01T09:26:04Z</time>
      </trkpt>
      <trkpt lat="43.4062" lon="2.09177">
        <ele>597.2</ele>
        <time>2023-10-01T09:26:05Z</time>
      </trkpt>
      <trkpt lat="43.40626" lon="2.09162">
        <ele>597.4</ele>
        <time>2023-10-01T09:26:08Z</time>
      </trkpt>
      <trkpt lat="43.4063" lon="2.09157">
        <ele>597.4</ele>
        <time>2023-10-01T09:26:09Z</time>
      </trkpt>
      <trkpt lat="43.40633" lon="2.09151">
        <ele>597.4</ele>
        <time>2023-10-01T09:26:10Z</time>
      </trkpt>
      <trkpt lat="43.40644" lon="2.09125">
        <ele>597.2</ele>
        <time>2023-10-01T09:26:14Z</time>
      </trkpt>
      <trkpt lat="43.40645" lon="2.09118">
        <ele>597.2</ele>
        <time>2023-10-01T09:26:15Z</time>
      </trkpt>
      <trkpt lat="43.40646" lon="2.09111">
        <ele>597</ele>
        <time>2023-10-01T09:26:16Z</time>
      </trkpt>
      <trkpt lat="43.40654" lon="2.09089">
        <ele>596.6</ele>
        <time>2023-10-01T09:26:19Z</time>
      </trkpt>
      <trkpt lat="43.40657" lon="2.09083">
        <ele>596.6</ele>
        <time>2023-10-01T09:26:20Z</time>
      </trkpt>
      <trkpt lat="43.40661" lon="2.09076">
        <ele>596.6</ele>
        <time>2023-10-01T09:26:21Z</time>
      </trkpt>
      <trkpt lat="43.40661" lon="2.09072">
        <ele>596.6</ele>
        <time>2023-10-01T09:26:22Z</time>
      </trkpt>
      <trkpt lat="43.40664" lon="2.09067">
        <ele>596.6</ele>
        <time>2023-10-01T09:26:23Z</time>
      </trkpt>
      <trkpt lat="43.40666" lon="2.09062">
        <ele>596.6</ele>
        <time>2023-10-01T09:26:24Z</time>
      </trkpt>
      <trkpt lat="43.40667" lon="2.09057">
        <ele>596.4</ele>
        <time>2023-10-01T09:26:25Z</time>
      </trkpt>
      <trkpt lat="43.40668" lon="2.09053">
        <ele>596.4</ele>
        <time>2023-10-01T09:26:26Z</time>
      </trkpt>
      <trkpt lat="43.4067" lon="2.09047">
        <ele>596.4</ele>
        <time>2023-10-01T09:26:27Z</time>
      </trkpt>
      <trkpt lat="43.40676" lon="2.0904">
        <ele>596.6</ele>
        <time>2023-10-01T09:26:28Z</time>
      </trkpt>
      <trkpt lat="43.4068" lon="2.09029">
        <ele>596.4</ele>
        <time>2023-10-01T09:26:30Z</time>
      </trkpt>
      <trkpt lat="43.40683" lon="2.09022">
        <ele>596.6</ele>
        <time>2023-10-01T09:26:31Z</time>
      </trkpt>
      <trkpt lat="43.40686" lon="2.09011">
        <ele>596.6</ele>
        <time>2023-10-01T09:26:33Z</time>
      </trkpt>
      <trkpt lat="43.40687" lon="2.09006">
        <ele>596.6</ele>
        <time>2023-10-01T09:26:34Z</time>
      </trkpt>
      <trkpt lat="43.4069" lon="2.09002">
        <ele>596.6</ele>
        <time>2023-10-01T09:26:35Z</time>
      </trkpt>
      <trkpt lat="43.40695" lon="2.08998">
        <ele>596.6</ele>
        <time>2023-10-01T09:26:36Z</time>
      </trkpt>
      <trkpt lat="43.40699" lon="2.08993">
        <ele>596.6</ele>
        <time>2023-10-01T09:26:37Z</time>
      </trkpt>
      <trkpt lat="43.40703" lon="2.08991">
        <ele>596.4</ele>
        <time>2023-10-01T09:26:38Z</time>
      </trkpt>
      <trkpt lat="43.40706" lon="2.08988">
        <ele>596.4</ele>
        <time>2023-10-01T09:26:39Z</time>
      </trkpt>
      <trkpt lat="43.4071" lon="2.08984">
        <ele>596.2</ele>
        <time>2023-10-01T09:26:40Z</time>
      </trkpt>
      <trkpt lat="43.40713" lon="2.0898">
        <ele>596.2</ele>
        <time>2023-10-01T09:26:41Z</time>
      </trkpt>
      <trkpt lat="43.40714" lon="2.08976">
        <ele>596</ele>
        <time>2023-10-01T09:26:42Z</time>
      </trkpt>
      <trkpt lat="43.40718" lon="2.0897">
        <ele>595.8</ele>
        <time>2023-10-01T09:26:43Z</time>
      </trkpt>
      <trkpt lat="43.40725" lon="2.08959">
        <ele>595</ele>
        <time>2023-10-01T09:26:45Z</time>
      </trkpt>
      <trkpt lat="43.4073" lon="2.08949">
        <ele>594.6</ele>
        <time>2023-10-01T09:26:47Z</time>
      </trkpt>
      <trkpt lat="43.40731" lon="2.08945">
        <ele>594.4</ele>
        <time>2023-10-01T09:26:48Z</time>
      </trkpt>
      <trkpt lat="43.40739" lon="2.08929">
        <ele>594.4</ele>
        <time>2023-10-01T09:26:51Z</time>
      </trkpt>
      <trkpt lat="43.40741" lon="2.08912">
        <ele>594.8</ele>
        <time>2023-10-01T09:26:54Z</time>
      </trkpt>
      <trkpt lat="43.40741" lon="2.08905">
        <ele>594.8</ele>
        <time>2023-10-01T09:26:55Z</time>
      </trkpt>
      <trkpt lat="43.40743" lon="2.08898">
        <ele>595</ele>
        <time>2023-10-01T09:26:56Z</time>
      </trkpt>
      <trkpt lat="43.40744" lon="2.08895">
        <ele>595</ele>
        <time>2023-10-01T09:26:57Z</time>
      </trkpt>
      <trkpt lat="43.40745" lon="2.08892">
        <ele>595.4</ele>
        <time>2023-10-01T09:26:58Z</time>
      </trkpt>
      <trkpt lat="43.40746" lon="2.0889">
        <ele>595.6</ele>
        <time>2023-10-01T09:26:59Z</time>
      </trkpt>
      <trkpt lat="43.40746" lon="2.08888">
        <ele>595.6</ele>
        <time>2023-10-01T09:27:00Z</time>
      </trkpt>
      <trkpt lat="43.40746" lon="2.08886">
        <ele>595.8</ele>
        <time>2023-10-01T09:27:01Z</time>
      </trkpt>
      <trkpt lat="43.40743" lon="2.08883">
        <ele>595.8</ele>
        <time>2023-10-01T09:27:02Z</time>
      </trkpt>
      <trkpt lat="43.40742" lon="2.08881">
        <ele>595.8</ele>
        <time>2023-10-01T09:27:03Z</time>
      </trkpt>
      <trkpt lat="43.40743" lon="2.08876">
        <ele>595.8</ele>
        <time>2023-10-01T09:27:04Z</time>
      </trkpt>
      <trkpt lat="43.40745" lon="2.08871">
        <ele>596</ele>
        <time>2023-10-01T09:27:05Z</time>
      </trkpt>
      <trkpt lat="43.40745" lon="2.08866">
        <ele>596.6</ele>
        <time>2023-10-01T09:27:06Z</time>
      </trkpt>
      <trkpt lat="43.40744" lon="2.08861">
        <ele>596.8</ele>
        <time>2023-10-01T09:27:07Z</time>
      </trkpt>
      <trkpt lat="43.40743" lon="2.08858">
        <ele>597.2</ele>
        <time>2023-10-01T09:27:08Z</time>
      </trkpt>
      <trkpt lat="43.40744" lon="2.08855">
        <ele>597.4</ele>
        <time>2023-10-01T09:27:09Z</time>
      </trkpt>
      <trkpt lat="43.40748" lon="2.08851">
        <ele>597.8</ele>
        <time>2023-10-01T09:27:10Z</time>
      </trkpt>
      <trkpt lat="43.40752" lon="2.08847">
        <ele>598</ele>
        <time>2023-10-01T09:27:11Z</time>
      </trkpt>
      <trkpt lat="43.40755" lon="2.08848">
        <ele>598.6</ele>
        <time>2023-10-01T09:27:12Z</time>
      </trkpt>
      <trkpt lat="43.40757" lon="2.08852">
        <ele>599</ele>
        <time>2023-10-01T09:27:13Z</time>
      </trkpt>
      <trkpt lat="43.4076" lon="2.08855">
        <ele>599.2</ele>
        <time>2023-10-01T09:27:14Z</time>
      </trkpt>
      <trkpt lat="43.40762" lon="2.0886">
        <ele>599.6</ele>
        <time>2023-10-01T09:27:15Z</time>
      </trkpt>
      <trkpt lat="43.40763" lon="2.08864">
        <ele>599.8</ele>
        <time>2023-10-01T09:27:16Z</time>
      </trkpt>
      <trkpt lat="43.40765" lon="2.08872">
        <ele>600.2</ele>
        <time>2023-10-01T09:27:17Z</time>
      </trkpt>
      <trkpt lat="43.40767" lon="2.08878">
        <ele>600.2</ele>
        <time>2023-10-01T09:27:18Z</time>
      </trkpt>
      <trkpt lat="43.40769" lon="2.08882">
        <ele>600.4</ele>
        <time>2023-10-01T09:27:19Z</time>
      </trkpt>
      <trkpt lat="43.40771" lon="2.08889">
        <ele>600.6</ele>
        <time>2023-10-01T09:27:20Z</time>
      </trkpt>
      <trkpt lat="43.40772" lon="2.08897">
        <ele>600.8</ele>
        <time>2023-10-01T09:27:21Z</time>
      </trkpt>
      <trkpt lat="43.40773" lon="2.08905">
        <ele>600.8</ele>
        <time>2023-10-01T09:27:22Z</time>
      </trkpt>
      <trkpt lat="43.40774" lon="2.08913">
        <ele>600.8</ele>
        <time>2023-10-01T09:27:23Z</time>
      </trkpt>
      <trkpt lat="43.40775" lon="2.08922">
        <ele>601</ele>
        <time>2023-10-01T09:27:24Z</time>
      </trkpt>
      <trkpt lat="43.40774" lon="2.08929">
        <ele>601</ele>
        <time>2023-10-01T09:27:25Z</time>
      </trkpt>
      <trkpt lat="43.40774" lon="2.08937">
        <ele>601</ele>
        <time>2023-10-01T09:27:26Z</time>
      </trkpt>
      <trkpt lat="43.40773" lon="2.08945">
        <ele>601</ele>
        <time>2023-10-01T09:27:27Z</time>
      </trkpt>
      <trkpt lat="43.40771" lon="2.08953">
        <ele>601</ele>
        <time>2023-10-01T09:27:28Z</time>
      </trkpt>
      <trkpt lat="43.40771" lon="2.08961">
        <ele>600.8</ele>
        <time>2023-10-01T09:27:29Z</time>
      </trkpt>
      <trkpt lat="43.40772" lon="2.0897">
        <ele>600.8</ele>
        <time>2023-10-01T09:27:30Z</time>
      </trkpt>
      <trkpt lat="43.40772" lon="2.0898">
        <ele>600.8</ele>
        <time>2023-10-01T09:27:31Z</time>
      </trkpt>
      <trkpt lat="43.40773" lon="2.08989">
        <ele>600.8</ele>
        <time>2023-10-01T09:27:32Z</time>
      </trkpt>
      <trkpt lat="43.40772" lon="2.08996">
        <ele>600.8</ele>
        <time>2023-10-01T09:27:33Z</time>
      </trkpt>
      <trkpt lat="43.40769" lon="2.09004">
        <ele>600.8</ele>
        <time>2023-10-01T09:27:34Z</time>
      </trkpt>
      <trkpt lat="43.40768" lon="2.09009">
        <ele>600.8</ele>
        <time>2023-10-01T09:27:35Z</time>
      </trkpt>
      <trkpt lat="43.40765" lon="2.09018">
        <ele>600.6</ele>
        <time>2023-10-01T09:27:36Z</time>
      </trkpt>
      <trkpt lat="43.40763" lon="2.09025">
        <ele>600.6</ele>
        <time>2023-10-01T09:27:37Z</time>
      </trkpt>
      <trkpt lat="43.40762" lon="2.09033">
        <ele>600.8</ele>
        <time>2023-10-01T09:27:38Z</time>
      </trkpt>
      <trkpt lat="43.4076" lon="2.09041">
        <ele>600.8</ele>
        <time>2023-10-01T09:27:39Z</time>
      </trkpt>
      <trkpt lat="43.40757" lon="2.09046">
        <ele>600.8</ele>
        <time>2023-10-01T09:27:40Z</time>
      </trkpt>
      <trkpt lat="43.40754" lon="2.09063">
        <ele>600.8</ele>
        <time>2023-10-01T09:27:42Z</time>
      </trkpt>
      <trkpt lat="43.40746" lon="2.09099">
        <ele>601.2</ele>
        <time>2023-10-01T09:27:47Z</time>
      </trkpt>
      <trkpt lat="43.40744" lon="2.0912">
        <ele>601.4</ele>
        <time>2023-10-01T09:27:49Z</time>
      </trkpt>
      <trkpt lat="43.40742" lon="2.09162">
        <ele>601.2</ele>
        <time>2023-10-01T09:27:55Z</time>
      </trkpt>
      <trkpt lat="43.40743" lon="2.09168">
        <ele>601.2</ele>
        <time>2023-10-01T09:27:56Z</time>
      </trkpt>
      <trkpt lat="43.40744" lon="2.09174">
        <ele>601</ele>
        <time>2023-10-01T09:27:57Z</time>
      </trkpt>
      <trkpt lat="43.40745" lon="2.09181">
        <ele>601</ele>
        <time>2023-10-01T09:27:58Z</time>
      </trkpt>
      <trkpt lat="43.40748" lon="2.09184">
        <ele>601</ele>
        <time>2023-10-01T09:27:59Z</time>
      </trkpt>
      <trkpt lat="43.40749" lon="2.09187">
        <ele>601</ele>
        <time>2023-10-01T09:28:00Z</time>
      </trkpt>
      <trkpt lat="43.40751" lon="2.09187">
        <ele>600.8</ele>
        <time>2023-10-01T09:28:01Z</time>
      </trkpt>
      <trkpt lat="43.40753" lon="2.0919">
        <ele>600.8</ele>
        <time>2023-10-01T09:28:02Z</time>
      </trkpt>
      <trkpt lat="43.40753" lon="2.09191">
        <ele>600.6</ele>
        <time>2023-10-01T09:28:03Z</time>
      </trkpt>
      <trkpt lat="43.40754" lon="2.09193">
        <ele>600.6</ele>
        <time>2023-10-01T09:28:04Z</time>
      </trkpt>
      <trkpt lat="43.40754" lon="2.09195">
        <ele>600.4</ele>
        <time>2023-10-01T09:28:05Z</time>
      </trkpt>
      <trkpt lat="43.40755" lon="2.09197">
        <ele>600.4</ele>
        <time>2023-10-01T09:28:06Z</time>
      </trkpt>
      <trkpt lat="43.40755" lon="2.09198">
        <ele>600.2</ele>
        <time>2023-10-01T09:28:07Z</time>
      </trkpt>
      <trkpt lat="43.40756" lon="2.09202">
        <ele>600.2</ele>
        <time>2023-10-01T09:28:08Z</time>
      </trkpt>
      <trkpt lat="43.40758" lon="2.09208">
        <ele>599.8</ele>
        <time>2023-10-01T09:28:10Z</time>
      </trkpt>
      <trkpt lat="43.40761" lon="2.09214">
        <ele>599.6</ele>
        <time>2023-10-01T09:28:12Z</time>
      </trkpt>
      <trkpt lat="43.40764" lon="2.09217">
        <ele>599.4</ele>
        <time>2023-10-01T09:28:13Z</time>
      </trkpt>
      <trkpt lat="43.40765" lon="2.09224">
        <ele>599</ele>
        <time>2023-10-01T09:28:14Z</time>
      </trkpt>
      <trkpt lat="43.40764" lon="2.0923">
        <ele>598.4</ele>
        <time>2023-10-01T09:28:15Z</time>
      </trkpt>
      <trkpt lat="43.40764" lon="2.09237">
        <ele>598</ele>
        <time>2023-10-01T09:28:16Z</time>
      </trkpt>
      <trkpt lat="43.40764" lon="2.09246">
        <ele>597.6</ele>
        <time>2023-10-01T09:28:17Z</time>
      </trkpt>
      <trkpt lat="43.40766" lon="2.09252">
        <ele>596.4</ele>
        <time>2023-10-01T09:28:18Z</time>
      </trkpt>
      <trkpt lat="43.40768" lon="2.09255">
        <ele>596</ele>
        <time>2023-10-01T09:28:19Z</time>
      </trkpt>
      <trkpt lat="43.4077" lon="2.09256">
        <ele>593.8</ele>
        <time>2023-10-01T09:28:20Z</time>
      </trkpt>
      <trkpt lat="43.40774" lon="2.09251">
        <ele>591.8</ele>
        <time>2023-10-01T09:28:22Z</time>
      </trkpt>
      <trkpt lat="43.40774" lon="2.09248">
        <ele>590.2</ele>
        <time>2023-10-01T09:28:23Z</time>
      </trkpt>
      <trkpt lat="43.40775" lon="2.09242">
        <ele>589</ele>
        <time>2023-10-01T09:28:25Z</time>
      </trkpt>
      <trkpt lat="43.40776" lon="2.09238">
        <ele>588.8</ele>
        <time>2023-10-01T09:28:26Z</time>
      </trkpt>
      <trkpt lat="43.40785" lon="2.09212">
        <ele>588.6</ele>
        <time>2023-10-01T09:28:32Z</time>
      </trkpt>
      <trkpt lat="43.40787" lon="2.09207">
        <ele>588.8</ele>
        <time>2023-10-01T09:28:33Z</time>
      </trkpt>
      <trkpt lat="43.40788" lon="2.09203">
        <ele>589</ele>
        <time>2023-10-01T09:28:34Z</time>
      </trkpt>
      <trkpt lat="43.40796" lon="2.09181">
        <ele>590</ele>
        <time>2023-10-01T09:28:37Z</time>
      </trkpt>
      <trkpt lat="43.40799" lon="2.09173">
        <ele>590.2</ele>
        <time>2023-10-01T09:28:38Z</time>
      </trkpt>
      <trkpt lat="43.40802" lon="2.09163">
        <ele>590.6</ele>
        <time>2023-10-01T09:28:39Z</time>
      </trkpt>
      <trkpt lat="43.40803" lon="2.09157">
        <ele>591.2</ele>
        <time>2023-10-01T09:28:40Z</time>
      </trkpt>
      <trkpt lat="43.40804" lon="2.09151">
        <ele>591.8</ele>
        <time>2023-10-01T09:28:41Z</time>
      </trkpt>
      <trkpt lat="43.40806" lon="2.09146">
        <ele>592</ele>
        <time>2023-10-01T09:28:42Z</time>
      </trkpt>
      <trkpt lat="43.40808" lon="2.0914">
        <ele>592.6</ele>
        <time>2023-10-01T09:28:43Z</time>
      </trkpt>
      <trkpt lat="43.40809" lon="2.09133">
        <ele>592.8</ele>
        <time>2023-10-01T09:28:44Z</time>
      </trkpt>
      <trkpt lat="43.40815" lon="2.09119">
        <ele>593</ele>
        <time>2023-10-01T09:28:46Z</time>
      </trkpt>
      <trkpt lat="43.4082" lon="2.09099">
        <ele>593.2</ele>
        <time>2023-10-01T09:28:49Z</time>
      </trkpt>
      <trkpt lat="43.40825" lon="2.09084">
        <ele>594</ele>
        <time>2023-10-01T09:28:51Z</time>
      </trkpt>
      <trkpt lat="43.40837" lon="2.09059">
        <ele>594.6</ele>
        <time>2023-10-01T09:28:55Z</time>
      </trkpt>
      <trkpt lat="43.40842" lon="2.09054">
        <ele>594.8</ele>
        <time>2023-10-01T09:28:56Z</time>
      </trkpt>
      <trkpt lat="43.40844" lon="2.09048">
        <ele>594.8</ele>
        <time>2023-10-01T09:28:57Z</time>
      </trkpt>
      <trkpt lat="43.40847" lon="2.09043">
        <ele>595</ele>
        <time>2023-10-01T09:28:58Z</time>
      </trkpt>
      <trkpt lat="43.40848" lon="2.09037">
        <ele>595</ele>
        <time>2023-10-01T09:28:59Z</time>
      </trkpt>
      <trkpt lat="43.40848" lon="2.09032">
        <ele>595.2</ele>
        <time>2023-10-01T09:29:00Z</time>
      </trkpt>
      <trkpt lat="43.40847" lon="2.09026">
        <ele>595.2</ele>
        <time>2023-10-01T09:29:01Z</time>
      </trkpt>
      <trkpt lat="43.40849" lon="2.09019">
        <ele>595.4</ele>
        <time>2023-10-01T09:29:02Z</time>
      </trkpt>
      <trkpt lat="43.4085" lon="2.09012">
        <ele>595.6</ele>
        <time>2023-10-01T09:29:03Z</time>
      </trkpt>
      <trkpt lat="43.40851" lon="2.09007">
        <ele>595.8</ele>
        <time>2023-10-01T09:29:04Z</time>
      </trkpt>
      <trkpt lat="43.40853" lon="2.09002">
        <ele>595.8</ele>
        <time>2023-10-01T09:29:05Z</time>
      </trkpt>
      <trkpt lat="43.40856" lon="2.08995">
        <ele>595.8</ele>
        <time>2023-10-01T09:29:06Z</time>
      </trkpt>
      <trkpt lat="43.4086" lon="2.08988">
        <ele>595.8</ele>
        <time>2023-10-01T09:29:07Z</time>
      </trkpt>
      <trkpt lat="43.40864" lon="2.08981">
        <ele>596</ele>
        <time>2023-10-01T09:29:08Z</time>
      </trkpt>
      <trkpt lat="43.40865" lon="2.08975">
        <ele>596</ele>
        <time>2023-10-01T09:29:09Z</time>
      </trkpt>
      <trkpt lat="43.40869" lon="2.08967">
        <ele>596</ele>
        <time>2023-10-01T09:29:10Z</time>
      </trkpt>
      <trkpt lat="43.40871" lon="2.08959">
        <ele>596</ele>
        <time>2023-10-01T09:29:11Z</time>
      </trkpt>
      <trkpt lat="43.40872" lon="2.08952">
        <ele>596.2</ele>
        <time>2023-10-01T09:29:12Z</time>
      </trkpt>
      <trkpt lat="43.40873" lon="2.08944">
        <ele>596.4</ele>
        <time>2023-10-01T09:29:13Z</time>
      </trkpt>
      <trkpt lat="43.40873" lon="2.08938">
        <ele>596.6</ele>
        <time>2023-10-01T09:29:14Z</time>
      </trkpt>
      <trkpt lat="43.40873" lon="2.08932">
        <ele>596.8</ele>
        <time>2023-10-01T09:29:15Z</time>
      </trkpt>
      <trkpt lat="43.40873" lon="2.08928">
        <ele>597</ele>
        <time>2023-10-01T09:29:16Z</time>
      </trkpt>
      <trkpt lat="43.40874" lon="2.08924">
        <ele>597</ele>
        <time>2023-10-01T09:29:17Z</time>
      </trkpt>
      <trkpt lat="43.40875" lon="2.08921">
        <ele>597.2</ele>
        <time>2023-10-01T09:29:18Z</time>
      </trkpt>
      <trkpt lat="43.40874" lon="2.08915">
        <ele>597.6</ele>
        <time>2023-10-01T09:29:19Z</time>
      </trkpt>
      <trkpt lat="43.40873" lon="2.0891">
        <ele>597.8</ele>
        <time>2023-10-01T09:29:20Z</time>
      </trkpt>
      <trkpt lat="43.40873" lon="2.08904">
        <ele>598.4</ele>
        <time>2023-10-01T09:29:21Z</time>
      </trkpt>
      <trkpt lat="43.40875" lon="2.08896">
        <ele>598.6</ele>
        <time>2023-10-01T09:29:22Z</time>
      </trkpt>
      <trkpt lat="43.40878" lon="2.0889">
        <ele>599.2</ele>
        <time>2023-10-01T09:29:23Z</time>
      </trkpt>
      <trkpt lat="43.4088" lon="2.08882">
        <ele>599.6</ele>
        <time>2023-10-01T09:29:24Z</time>
      </trkpt>
      <trkpt lat="43.40882" lon="2.08876">
        <ele>599.8</ele>
        <time>2023-10-01T09:29:25Z</time>
      </trkpt>
      <trkpt lat="43.40885" lon="2.0887">
        <ele>600.2</ele>
        <time>2023-10-01T09:29:26Z</time>
      </trkpt>
      <trkpt lat="43.40887" lon="2.08862">
        <ele>600.2</ele>
        <time>2023-10-01T09:29:27Z</time>
      </trkpt>
      <trkpt lat="43.40888" lon="2.08857">
        <ele>600.2</ele>
        <time>2023-10-01T09:29:28Z</time>
      </trkpt>
      <trkpt lat="43.40892" lon="2.0885">
        <ele>600.4</ele>
        <time>2023-10-01T09:29:29Z</time>
      </trkpt>
      <trkpt lat="43.40894" lon="2.08845">
        <ele>600.4</ele>
        <time>2023-10-01T09:29:30Z</time>
      </trkpt>
      <trkpt lat="43.40895" lon="2.08842">
        <ele>600.4</ele>
        <time>2023-10-01T09:29:31Z</time>
      </trkpt>
      <trkpt lat="43.40899" lon="2.08836">
        <ele>600.4</ele>
        <time>2023-10-01T09:29:32Z</time>
      </trkpt>
      <trkpt lat="43.40902" lon="2.0883">
        <ele>600.4</ele>
        <time>2023-10-01T09:29:33Z</time>
      </trkpt>
      <trkpt lat="43.40906" lon="2.08825">
        <ele>600.4</ele>
        <time>2023-10-01T09:29:34Z</time>
      </trkpt>
      <trkpt lat="43.40909" lon="2.08819">
        <ele>600.4</ele>
        <time>2023-10-01T09:29:35Z</time>
      </trkpt>
      <trkpt lat="43.40912" lon="2.08814">
        <ele>600.4</ele>
        <time>2023-10-01T09:29:36Z</time>
      </trkpt>
      <trkpt lat="43.40914" lon="2.08809">
        <ele>600.4</ele>
        <time>2023-10-01T09:29:37Z</time>
      </trkpt>
      <trkpt lat="43.40917" lon="2.08803">
        <ele>600.4</ele>
        <time>2023-10-01T09:29:38Z</time>
      </trkpt>
      <trkpt lat="43.40921" lon="2.08795">
        <ele>600.4</ele>
        <time>2023-10-01T09:29:39Z</time>
      </trkpt>
      <trkpt lat="43.40922" lon="2.08789">
        <ele>600.4</ele>
        <time>2023-10-01T09:29:40Z</time>
      </trkpt>
      <trkpt lat="43.40924" lon="2.08785">
        <ele>600.4</ele>
        <time>2023-10-01T09:29:41Z</time>
      </trkpt>
      <trkpt lat="43.40927" lon="2.08778">
        <ele>600.4</ele>
        <time>2023-10-01T09:29:42Z</time>
      </trkpt>
      <trkpt lat="43.40927" lon="2.08774">
        <ele>600.4</ele>
        <time>2023-10-01T09:29:43Z</time>
      </trkpt>
      <trkpt lat="43.40927" lon="2.08768">
        <ele>600.4</ele>
        <time>2023-10-01T09:29:44Z</time>
      </trkpt>
      <trkpt lat="43.40926" lon="2.08764">
        <ele>600.4</ele>
        <time>2023-10-01T09:29:45Z</time>
      </trkpt>
      <trkpt lat="43.40925" lon="2.08759">
        <ele>600.4</ele>
        <time>2023-10-01T09:29:46Z</time>
      </trkpt>
      <trkpt lat="43.40924" lon="2.08754">
        <ele>600.4</ele>
        <time>2023-10-01T09:29:47Z</time>
      </trkpt>
      <trkpt lat="43.40923" lon="2.08748">
        <ele>600.2</ele>
        <time>2023-10-01T09:29:48Z</time>
      </trkpt>
      <trkpt lat="43.40921" lon="2.08743">
        <ele>600.6</ele>
        <time>2023-10-01T09:29:49Z</time>
      </trkpt>
      <trkpt lat="43.40919" lon="2.08737">
        <ele>600.4</ele>
        <time>2023-10-01T09:29:50Z</time>
      </trkpt>
      <trkpt lat="43.40918" lon="2.08731">
        <ele>600.4</ele>
        <time>2023-10-01T09:29:51Z</time>
      </trkpt>
      <trkpt lat="43.40917" lon="2.08715">
        <ele>600.6</ele>
        <time>2023-10-01T09:29:53Z</time>
      </trkpt>
      <trkpt lat="43.40918" lon="2.08709">
        <ele>600.2</ele>
        <time>2023-10-01T09:29:54Z</time>
      </trkpt>
      <trkpt lat="43.40919" lon="2.08704">
        <ele>600.4</ele>
        <time>2023-10-01T09:29:55Z</time>
      </trkpt>
      <trkpt lat="43.40919" lon="2.08701">
        <ele>600.4</ele>
        <time>2023-10-01T09:29:56Z</time>
      </trkpt>
      <trkpt lat="43.40921" lon="2.08695">
        <ele>600.4</ele>
        <time>2023-10-01T09:29:57Z</time>
      </trkpt>
      <trkpt lat="43.40923" lon="2.0869">
        <ele>600.4</ele>
        <time>2023-10-01T09:29:58Z</time>
      </trkpt>
      <trkpt lat="43.40925" lon="2.08684">
        <ele>600.4</ele>
        <time>2023-10-01T09:29:59Z</time>
      </trkpt>
      <trkpt lat="43.40927" lon="2.08679">
        <ele>600.4</ele>
        <time>2023-10-01T09:30:01Z</time>
      </trkpt>
      <trkpt lat="43.40929" lon="2.08674">
        <ele>600.2</ele>
        <time>2023-10-01T09:30:15Z</time>
      </trkpt>
      <trkpt lat="43.40931" lon="2.08668">
        <ele>600.2</ele>
        <time>2023-10-01T09:30:16Z</time>
      </trkpt>
      <trkpt lat="43.40936" lon="2.08659">
        <ele>600.2</ele>
        <time>2023-10-01T09:30:18Z</time>
      </trkpt>
      <trkpt lat="43.40937" lon="2.08655">
        <ele>600.2</ele>
        <time>2023-10-01T09:30:19Z</time>
      </trkpt>
      <trkpt lat="43.40939" lon="2.08652">
        <ele>600.2</ele>
        <time>2023-10-01T09:30:20Z</time>
      </trkpt>
      <trkpt lat="43.40948" lon="2.08633">
        <ele>600.2</ele>
        <time>2023-10-01T09:30:23Z</time>
      </trkpt>
      <trkpt lat="43.40949" lon="2.08629">
        <ele>600.2</ele>
        <time>2023-10-01T09:30:24Z</time>
      </trkpt>
      <trkpt lat="43.4095" lon="2.08627">
        <ele>600.2</ele>
        <time>2023-10-01T09:30:25Z</time>
      </trkpt>
      <trkpt lat="43.40953" lon="2.08622">
        <ele>600.2</ele>
        <time>2023-10-01T09:30:26Z</time>
      </trkpt>
      <trkpt lat="43.40963" lon="2.08598">
        <ele>600.2</ele>
        <time>2023-10-01T09:30:31Z</time>
      </trkpt>
      <trkpt lat="43.40966" lon="2.08592">
        <ele>600.2</ele>
        <time>2023-10-01T09:30:32Z</time>
      </trkpt>
      <trkpt lat="43.40971" lon="2.08579">
        <ele>600.2</ele>
        <time>2023-10-01T09:30:34Z</time>
      </trkpt>
      <trkpt lat="43.40972" lon="2.08572">
        <ele>600.2</ele>
        <time>2023-10-01T09:30:35Z</time>
      </trkpt>
      <trkpt lat="43.40974" lon="2.08565">
        <ele>600.2</ele>
        <time>2023-10-01T09:30:36Z</time>
      </trkpt>
      <trkpt lat="43.40974" lon="2.08559">
        <ele>600.2</ele>
        <time>2023-10-01T09:30:37Z</time>
      </trkpt>
      <trkpt lat="43.40975" lon="2.08552">
        <ele>600.2</ele>
        <time>2023-10-01T09:30:38Z</time>
      </trkpt>
      <trkpt lat="43.40975" lon="2.08546">
        <ele>600.2</ele>
        <time>2023-10-01T09:30:39Z</time>
      </trkpt>
      <trkpt lat="43.40973" lon="2.0854">
        <ele>600.2</ele>
        <time>2023-10-01T09:30:40Z</time>
      </trkpt>
      <trkpt lat="43.40972" lon="2.08533">
        <ele>600.2</ele>
        <time>2023-10-01T09:30:41Z</time>
      </trkpt>
      <trkpt lat="43.40969" lon="2.08525">
        <ele>600.2</ele>
        <time>2023-10-01T09:30:42Z</time>
      </trkpt>
      <trkpt lat="43.40967" lon="2.08519">
        <ele>600.2</ele>
        <time>2023-10-01T09:30:43Z</time>
      </trkpt>
      <trkpt lat="43.40965" lon="2.08513">
        <ele>600.2</ele>
        <time>2023-10-01T09:30:44Z</time>
      </trkpt>
      <trkpt lat="43.40958" lon="2.08503">
        <ele>600.2</ele>
        <time>2023-10-01T09:30:46Z</time>
      </trkpt>
      <trkpt lat="43.40953" lon="2.085">
        <ele>600.2</ele>
        <time>2023-10-01T09:30:47Z</time>
      </trkpt>
      <trkpt lat="43.40948" lon="2.08499">
        <ele>600.2</ele>
        <time>2023-10-01T09:30:48Z</time>
      </trkpt>
      <trkpt lat="43.40943" lon="2.08495">
        <ele>600.2</ele>
        <time>2023-10-01T09:30:49Z</time>
      </trkpt>
      <trkpt lat="43.40939" lon="2.08494">
        <ele>600.2</ele>
        <time>2023-10-01T09:30:50Z</time>
      </trkpt>
      <trkpt lat="43.40921" lon="2.0849">
        <ele>600.2</ele>
        <time>2023-10-01T09:30:53Z</time>
      </trkpt>
      <trkpt lat="43.40911" lon="2.08488">
        <ele>600</ele>
        <time>2023-10-01T09:30:55Z</time>
      </trkpt>
      <trkpt lat="43.40902" lon="2.08486">
        <ele>600</ele>
        <time>2023-10-01T09:30:57Z</time>
      </trkpt>
      <trkpt lat="43.40899" lon="2.08484">
        <ele>600</ele>
        <time>2023-10-01T09:30:58Z</time>
      </trkpt>
      <trkpt lat="43.40894" lon="2.08481">
        <ele>600</ele>
        <time>2023-10-01T09:30:59Z</time>
      </trkpt>
      <trkpt lat="43.40887" lon="2.08475">
        <ele>599.8</ele>
        <time>2023-10-01T09:31:01Z</time>
      </trkpt>
      <trkpt lat="43.40879" lon="2.08466">
        <ele>599.8</ele>
        <time>2023-10-01T09:31:03Z</time>
      </trkpt>
      <trkpt lat="43.40877" lon="2.08462">
        <ele>599.8</ele>
        <time>2023-10-01T09:31:04Z</time>
      </trkpt>
      <trkpt lat="43.40875" lon="2.08458">
        <ele>599.8</ele>
        <time>2023-10-01T09:31:05Z</time>
      </trkpt>
      <trkpt lat="43.40873" lon="2.08455">
        <ele>599.8</ele>
        <time>2023-10-01T09:31:06Z</time>
      </trkpt>
      <trkpt lat="43.40872" lon="2.08452">
        <ele>599.8</ele>
        <time>2023-10-01T09:31:07Z</time>
      </trkpt>
      <trkpt lat="43.40873" lon="2.08449">
        <ele>599.8</ele>
        <time>2023-10-01T09:31:08Z</time>
      </trkpt>
      <trkpt lat="43.40874" lon="2.08445">
        <ele>599.8</ele>
        <time>2023-10-01T09:31:09Z</time>
      </trkpt>
      <trkpt lat="43.40876" lon="2.08442">
        <ele>599.8</ele>
        <time>2023-10-01T09:31:10Z</time>
      </trkpt>
      <trkpt lat="43.40884" lon="2.0844">
        <ele>599.6</ele>
        <time>2023-10-01T09:31:13Z</time>
      </trkpt>
      <trkpt lat="43.40888" lon="2.08439">
        <ele>599.6</ele>
        <time>2023-10-01T09:31:14Z</time>
      </trkpt>
      <trkpt lat="43.40892" lon="2.08438">
        <ele>599.6</ele>
        <time>2023-10-01T09:31:15Z</time>
      </trkpt>
      <trkpt lat="43.40908" lon="2.08435">
        <ele>599.6</ele>
        <time>2023-10-01T09:31:19Z</time>
      </trkpt>
      <trkpt lat="43.40925" lon="2.08427">
        <ele>599.4</ele>
        <time>2023-10-01T09:31:23Z</time>
      </trkpt>
      <trkpt lat="43.40929" lon="2.08425">
        <ele>599.4</ele>
        <time>2023-10-01T09:31:24Z</time>
      </trkpt>
      <trkpt lat="43.40933" lon="2.08423">
        <ele>599.4</ele>
        <time>2023-10-01T09:31:25Z</time>
      </trkpt>
      <trkpt lat="43.40938" lon="2.08421">
        <ele>599.4</ele>
        <time>2023-10-01T09:31:27Z</time>
      </trkpt>
      <trkpt lat="43.40942" lon="2.0842">
        <ele>599.4</ele>
        <time>2023-10-01T09:31:28Z</time>
      </trkpt>
      <trkpt lat="43.40945" lon="2.08419">
        <ele>599.4</ele>
        <time>2023-10-01T09:31:29Z</time>
      </trkpt>
      <trkpt lat="43.4095" lon="2.08418">
        <ele>599.4</ele>
        <time>2023-10-01T09:31:30Z</time>
      </trkpt>
      <trkpt lat="43.40953" lon="2.08418">
        <ele>599.6</ele>
        <time>2023-10-01T09:31:31Z</time>
      </trkpt>
      <trkpt lat="43.40956" lon="2.08416">
        <ele>599.6</ele>
        <time>2023-10-01T09:31:32Z</time>
      </trkpt>
      <trkpt lat="43.40959" lon="2.08414">
        <ele>599.6</ele>
        <time>2023-10-01T09:31:33Z</time>
      </trkpt>
      <trkpt lat="43.40961" lon="2.08414">
        <ele>599.6</ele>
        <time>2023-10-01T09:31:34Z</time>
      </trkpt>
      <trkpt lat="43.40964" lon="2.08412">
        <ele>599.6</ele>
        <time>2023-10-01T09:31:35Z</time>
      </trkpt>
      <trkpt lat="43.40968" lon="2.08407">
        <ele>599.6</ele>
        <time>2023-10-01T09:31:37Z</time>
      </trkpt>
      <trkpt lat="43.40969" lon="2.08404">
        <ele>599.6</ele>
        <time>2023-10-01T09:31:38Z</time>
      </trkpt>
      <trkpt lat="43.40972" lon="2.084">
        <ele>599.6</ele>
        <time>2023-10-01T09:31:39Z</time>
      </trkpt>
      <trkpt lat="43.40976" lon="2.08389">
        <ele>599.6</ele>
        <time>2023-10-01T09:31:41Z</time>
      </trkpt>
      <trkpt lat="43.40975" lon="2.08382">
        <ele>599.6</ele>
        <time>2023-10-01T09:31:42Z</time>
      </trkpt>
      <trkpt lat="43.40973" lon="2.08378">
        <ele>599.6</ele>
        <time>2023-10-01T09:31:43Z</time>
      </trkpt>
      <trkpt lat="43.40973" lon="2.08374">
        <ele>599.6</ele>
        <time>2023-10-01T09:31:44Z</time>
      </trkpt>
      <trkpt lat="43.40972" lon="2.08371">
        <ele>599.6</ele>
        <time>2023-10-01T09:31:45Z</time>
      </trkpt>
      <trkpt lat="43.40972" lon="2.08364">
        <ele>599.6</ele>
        <time>2023-10-01T09:31:46Z</time>
      </trkpt>
      <trkpt lat="43.40972" lon="2.08356">
        <ele>599.6</ele>
        <time>2023-10-01T09:31:47Z</time>
      </trkpt>
      <trkpt lat="43.40972" lon="2.08348">
        <ele>599.6</ele>
        <time>2023-10-01T09:31:48Z</time>
      </trkpt>
      <trkpt lat="43.40974" lon="2.08335">
        <ele>599.6</ele>
        <time>2023-10-01T09:31:49Z</time>
      </trkpt>
      <trkpt lat="43.40976" lon="2.08328">
        <ele>599.6</ele>
        <time>2023-10-01T09:31:50Z</time>
      </trkpt>
      <trkpt lat="43.40989" lon="2.08292">
        <ele>599.4</ele>
        <time>2023-10-01T09:31:55Z</time>
      </trkpt>
      <trkpt lat="43.4099" lon="2.08289">
        <ele>599.4</ele>
        <time>2023-10-01T09:31:56Z</time>
      </trkpt>
      <trkpt lat="43.40992" lon="2.08284">
        <ele>599.4</ele>
        <time>2023-10-01T09:31:57Z</time>
      </trkpt>
      <trkpt lat="43.40993" lon="2.0828">
        <ele>599.4</ele>
        <time>2023-10-01T09:31:58Z</time>
      </trkpt>
      <trkpt lat="43.40994" lon="2.08276">
        <ele>599.4</ele>
        <time>2023-10-01T09:31:59Z</time>
      </trkpt>
      <trkpt lat="43.40994" lon="2.0827">
        <ele>599.4</ele>
        <time>2023-10-01T09:32:00Z</time>
      </trkpt>
      <trkpt lat="43.40995" lon="2.08265">
        <ele>599.4</ele>
        <time>2023-10-01T09:32:01Z</time>
      </trkpt>
      <trkpt lat="43.40996" lon="2.08262">
        <ele>599.4</ele>
        <time>2023-10-01T09:32:02Z</time>
      </trkpt>
      <trkpt lat="43.40996" lon="2.08261">
        <ele>599.4</ele>
        <time>2023-10-01T09:32:03Z</time>
      </trkpt>
      <trkpt lat="43.40996" lon="2.08261">
        <ele>599.4</ele>
        <time>2023-10-01T09:32:04Z</time>
      </trkpt>
      <trkpt lat="43.40996" lon="2.0826">
        <ele>599.4</ele>
        <time>2023-10-01T09:32:06Z</time>
      </trkpt>
      <trkpt lat="43.40993" lon="2.08248">
        <ele>599.4</ele>
        <time>2023-10-01T09:32:09Z</time>
      </trkpt>
      <trkpt lat="43.40991" lon="2.08237">
        <ele>599.4</ele>
        <time>2023-10-01T09:32:11Z</time>
      </trkpt>
      <trkpt lat="43.40991" lon="2.08232">
        <ele>599.4</ele>
        <time>2023-10-01T09:32:12Z</time>
      </trkpt>
      <trkpt lat="43.4099" lon="2.08228">
        <ele>599.4</ele>
        <time>2023-10-01T09:32:13Z</time>
      </trkpt>
      <trkpt lat="43.40989" lon="2.08223">
        <ele>599.2</ele>
        <time>2023-10-01T09:32:14Z</time>
      </trkpt>
      <trkpt lat="43.40988" lon="2.08219">
        <ele>599</ele>
        <time>2023-10-01T09:32:15Z</time>
      </trkpt>
      <trkpt lat="43.40988" lon="2.08214">
        <ele>599</ele>
        <time>2023-10-01T09:32:16Z</time>
      </trkpt>
      <trkpt lat="43.40988" lon="2.08211">
        <ele>598.8</ele>
        <time>2023-10-01T09:32:17Z</time>
      </trkpt>
      <trkpt lat="43.40988" lon="2.08207">
        <ele>598.8</ele>
        <time>2023-10-01T09:32:18Z</time>
      </trkpt>
      <trkpt lat="43.40987" lon="2.08206">
        <ele>598.8</ele>
        <time>2023-10-01T09:32:19Z</time>
      </trkpt>
      <trkpt lat="43.40987" lon="2.08206">
        <ele>598.6</ele>
        <time>2023-10-01T09:32:20Z</time>
      </trkpt>
      <trkpt lat="43.40987" lon="2.08206">
        <ele>598.6</ele>
        <time>2023-10-01T09:32:21Z</time>
      </trkpt>
      <trkpt lat="43.40987" lon="2.08213">
        <ele>598.4</ele>
        <time>2023-10-01T09:32:44Z</time>
      </trkpt>
      <trkpt lat="43.40988" lon="2.0822">
        <ele>598.6</ele>
        <time>2023-10-01T09:32:46Z</time>
      </trkpt>
      <trkpt lat="43.40988" lon="2.08231">
        <ele>598.8</ele>
        <time>2023-10-01T09:32:49Z</time>
      </trkpt>
      <trkpt lat="43.40988" lon="2.08234">
        <ele>598.8</ele>
        <time>2023-10-01T09:32:50Z</time>
      </trkpt>
      <trkpt lat="43.40988" lon="2.08236">
        <ele>599</ele>
        <time>2023-10-01T09:32:51Z</time>
      </trkpt>
      <trkpt lat="43.40989" lon="2.08238">
        <ele>599.2</ele>
        <time>2023-10-01T09:32:52Z</time>
      </trkpt>
      <trkpt lat="43.4099" lon="2.08239">
        <ele>599.2</ele>
        <time>2023-10-01T09:32:53Z</time>
      </trkpt>
      <trkpt lat="43.40991" lon="2.08239">
        <ele>599.2</ele>
        <time>2023-10-01T09:32:54Z</time>
      </trkpt>
      <trkpt lat="43.4099" lon="2.08238">
        <ele>599.2</ele>
        <time>2023-10-01T09:32:55Z</time>
      </trkpt>
      <trkpt lat="43.40989" lon="2.08236">
        <ele>599.4</ele>
        <time>2023-10-01T09:32:56Z</time>
      </trkpt>
      <trkpt lat="43.40987" lon="2.08232">
        <ele>599.4</ele>
        <time>2023-10-01T09:32:58Z</time>
      </trkpt>
      <trkpt lat="43.40985" lon="2.08227">
        <ele>599.4</ele>
        <time>2023-10-01T09:33:00Z</time>
      </trkpt>
      <trkpt lat="43.40985" lon="2.08225">
        <ele>599.4</ele>
        <time>2023-10-01T09:33:01Z</time>
      </trkpt>
      <trkpt lat="43.40985" lon="2.08222">
        <ele>599.4</ele>
        <time>2023-10-01T09:33:02Z</time>
      </trkpt>
      <trkpt lat="43.40985" lon="2.08217">
        <ele>599.4</ele>
        <time>2023-10-01T09:33:03Z</time>
      </trkpt>
      <trkpt lat="43.40985" lon="2.08215">
        <ele>599.4</ele>
        <time>2023-10-01T09:33:04Z</time>
      </trkpt>
      <trkpt lat="43.40985" lon="2.08213">
        <ele>599.6</ele>
        <time>2023-10-01T09:33:05Z</time>
      </trkpt>
      <trkpt lat="43.40985" lon="2.08208">
        <ele>600.2</ele>
        <time>2023-10-01T09:33:07Z</time>
      </trkpt>
      <trkpt lat="43.40985" lon="2.08206">
        <ele>600.4</ele>
        <time>2023-10-01T09:33:08Z</time>
      </trkpt>
      <trkpt lat="43.40985" lon="2.08203">
        <ele>600.6</ele>
        <time>2023-10-01T09:33:09Z</time>
      </trkpt>
      <trkpt lat="43.40986" lon="2.082">
        <ele>601</ele>
        <time>2023-10-01T09:33:10Z</time>
      </trkpt>
      <trkpt lat="43.40986" lon="2.08197">
        <ele>601.4</ele>
        <time>2023-10-01T09:33:11Z</time>
      </trkpt>
      <trkpt lat="43.40988" lon="2.08189">
        <ele>602.2</ele>
        <time>2023-10-01T09:33:14Z</time>
      </trkpt>
      <trkpt lat="43.40989" lon="2.08185">
        <ele>602.8</ele>
        <time>2023-10-01T09:33:15Z</time>
      </trkpt>
      <trkpt lat="43.4099" lon="2.08182">
        <ele>602.8</ele>
        <time>2023-10-01T09:33:16Z</time>
      </trkpt>
      <trkpt lat="43.40992" lon="2.08177">
        <ele>603.2</ele>
        <time>2023-10-01T09:33:17Z</time>
      </trkpt>
      <trkpt lat="43.40992" lon="2.08172">
        <ele>603.4</ele>
        <time>2023-10-01T09:33:18Z</time>
      </trkpt>
      <trkpt lat="43.40992" lon="2.08167">
        <ele>603.6</ele>
        <time>2023-10-01T09:33:19Z</time>
      </trkpt>
      <trkpt lat="43.40992" lon="2.08163">
        <ele>604.2</ele>
        <time>2023-10-01T09:33:20Z</time>
      </trkpt>
      <trkpt lat="43.40994" lon="2.08158">
        <ele>604.2</ele>
        <time>2023-10-01T09:33:21Z</time>
      </trkpt>
      <trkpt lat="43.40995" lon="2.08152">
        <ele>604.6</ele>
        <time>2023-10-01T09:33:22Z</time>
      </trkpt>
      <trkpt lat="43.40996" lon="2.08147">
        <ele>604.8</ele>
        <time>2023-10-01T09:33:23Z</time>
      </trkpt>
      <trkpt lat="43.40996" lon="2.08142">
        <ele>605.2</ele>
        <time>2023-10-01T09:33:24Z</time>
      </trkpt>
      <trkpt lat="43.40996" lon="2.08138">
        <ele>605.4</ele>
        <time>2023-10-01T09:33:25Z</time>
      </trkpt>
      <trkpt lat="43.40997" lon="2.08134">
        <ele>605.8</ele>
        <time>2023-10-01T09:33:26Z</time>
      </trkpt>
      <trkpt lat="43.40997" lon="2.0813">
        <ele>606.2</ele>
        <time>2023-10-01T09:33:27Z</time>
      </trkpt>
      <trkpt lat="43.40997" lon="2.08126">
        <ele>606.6</ele>
        <time>2023-10-01T09:33:28Z</time>
      </trkpt>
      <trkpt lat="43.40997" lon="2.08122">
        <ele>607.2</ele>
        <time>2023-10-01T09:33:29Z</time>
      </trkpt>
      <trkpt lat="43.40998" lon="2.08118">
        <ele>607.2</ele>
        <time>2023-10-01T09:33:30Z</time>
      </trkpt>
      <trkpt lat="43.40999" lon="2.08114">
        <ele>607.4</ele>
        <time>2023-10-01T09:33:31Z</time>
      </trkpt>
      <trkpt lat="43.40998" lon="2.0811">
        <ele>607.8</ele>
        <time>2023-10-01T09:33:32Z</time>
      </trkpt>
      <trkpt lat="43.40997" lon="2.08106">
        <ele>608</ele>
        <time>2023-10-01T09:33:33Z</time>
      </trkpt>
      <trkpt lat="43.40996" lon="2.08102">
        <ele>608.2</ele>
        <time>2023-10-01T09:33:34Z</time>
      </trkpt>
      <trkpt lat="43.40995" lon="2.08099">
        <ele>608.4</ele>
        <time>2023-10-01T09:33:35Z</time>
      </trkpt>
      <trkpt lat="43.40993" lon="2.08095">
        <ele>608.6</ele>
        <time>2023-10-01T09:33:36Z</time>
      </trkpt>
      <trkpt lat="43.40993" lon="2.08092">
        <ele>608.8</ele>
        <time>2023-10-01T09:33:37Z</time>
      </trkpt>
      <trkpt lat="43.40992" lon="2.08088">
        <ele>609.2</ele>
        <time>2023-10-01T09:33:38Z</time>
      </trkpt>
      <trkpt lat="43.40991" lon="2.08084">
        <ele>609.2</ele>
        <time>2023-10-01T09:33:39Z</time>
      </trkpt>
      <trkpt lat="43.40991" lon="2.0808">
        <ele>609.6</ele>
        <time>2023-10-01T09:33:40Z</time>
      </trkpt>
      <trkpt lat="43.4099" lon="2.08077">
        <ele>609.8</ele>
        <time>2023-10-01T09:33:41Z</time>
      </trkpt>
      <trkpt lat="43.40989" lon="2.08074">
        <ele>610</ele>
        <time>2023-10-01T09:33:42Z</time>
      </trkpt>
      <trkpt lat="43.4099" lon="2.08071">
        <ele>610.2</ele>
        <time>2023-10-01T09:33:43Z</time>
      </trkpt>
      <trkpt lat="43.4099" lon="2.08067">
        <ele>610.4</ele>
        <time>2023-10-01T09:33:44Z</time>
      </trkpt>
      <trkpt lat="43.40989" lon="2.08064">
        <ele>610.6</ele>
        <time>2023-10-01T09:33:45Z</time>
      </trkpt>
      <trkpt lat="43.40987" lon="2.08061">
        <ele>610.8</ele>
        <time>2023-10-01T09:33:46Z</time>
      </trkpt>
      <trkpt lat="43.40986" lon="2.08058">
        <ele>611</ele>
        <time>2023-10-01T09:33:47Z</time>
      </trkpt>
      <trkpt lat="43.40986" lon="2.08057">
        <ele>611.4</ele>
        <time>2023-10-01T09:33:48Z</time>
      </trkpt>
      <trkpt lat="43.40986" lon="2.08056">
        <ele>611.4</ele>
        <time>2023-10-01T09:33:49Z</time>
      </trkpt>
      <trkpt lat="43.40985" lon="2.08055">
        <ele>611.6</ele>
        <time>2023-10-01T09:33:50Z</time>
      </trkpt>
      <trkpt lat="43.40984" lon="2.08055">
        <ele>611.6</ele>
        <time>2023-10-01T09:33:51Z</time>
      </trkpt>
      <trkpt lat="43.40982" lon="2.08054">
        <ele>612</ele>
        <time>2023-10-01T09:33:52Z</time>
      </trkpt>
      <trkpt lat="43.4098" lon="2.08054">
        <ele>612.2</ele>
        <time>2023-10-01T09:33:53Z</time>
      </trkpt>
      <trkpt lat="43.40978" lon="2.08056">
        <ele>612.4</ele>
        <time>2023-10-01T09:33:54Z</time>
      </trkpt>
      <trkpt lat="43.40976" lon="2.08058">
        <ele>612.6</ele>
        <time>2023-10-01T09:33:55Z</time>
      </trkpt>
      <trkpt lat="43.40974" lon="2.0806">
        <ele>612.6</ele>
        <time>2023-10-01T09:33:56Z</time>
      </trkpt>
      <trkpt lat="43.40971" lon="2.08063">
        <ele>612.8</ele>
        <time>2023-10-01T09:33:57Z</time>
      </trkpt>
      <trkpt lat="43.40969" lon="2.08065">
        <ele>612.8</ele>
        <time>2023-10-01T09:33:58Z</time>
      </trkpt>
      <trkpt lat="43.40967" lon="2.08067">
        <ele>613</ele>
        <time>2023-10-01T09:33:59Z</time>
      </trkpt>
      <trkpt lat="43.40964" lon="2.0807">
        <ele>613</ele>
        <time>2023-10-01T09:34:00Z</time>
      </trkpt>
      <trkpt lat="43.40962" lon="2.08072">
        <ele>613</ele>
        <time>2023-10-01T09:34:01Z</time>
      </trkpt>
      <trkpt lat="43.40959" lon="2.08074">
        <ele>613.2</ele>
        <time>2023-10-01T09:34:02Z</time>
      </trkpt>
      <trkpt lat="43.40957" lon="2.08077">
        <ele>613.2</ele>
        <time>2023-10-01T09:34:03Z</time>
      </trkpt>
      <trkpt lat="43.40954" lon="2.0808">
        <ele>613.2</ele>
        <time>2023-10-01T09:34:04Z</time>
      </trkpt>
      <trkpt lat="43.40952" lon="2.08082">
        <ele>613.2</ele>
        <time>2023-10-01T09:34:05Z</time>
      </trkpt>
      <trkpt lat="43.40948" lon="2.08085">
        <ele>613.4</ele>
        <time>2023-10-01T09:34:06Z</time>
      </trkpt>
      <trkpt lat="43.40945" lon="2.08088">
        <ele>613.4</ele>
        <time>2023-10-01T09:34:07Z</time>
      </trkpt>
      <trkpt lat="43.40943" lon="2.08091">
        <ele>613.4</ele>
        <time>2023-10-01T09:34:08Z</time>
      </trkpt>
      <trkpt lat="43.4094" lon="2.08093">
        <ele>613.4</ele>
        <time>2023-10-01T09:34:09Z</time>
      </trkpt>
      <trkpt lat="43.40937" lon="2.08096">
        <ele>613.4</ele>
        <time>2023-10-01T09:34:10Z</time>
      </trkpt>
      <trkpt lat="43.40934" lon="2.08099">
        <ele>613.6</ele>
        <time>2023-10-01T09:34:11Z</time>
      </trkpt>
      <trkpt lat="43.40931" lon="2.08101">
        <ele>613.6</ele>
        <time>2023-10-01T09:34:12Z</time>
      </trkpt>
      <trkpt lat="43.40928" lon="2.08104">
        <ele>613.6</ele>
        <time>2023-10-01T09:34:13Z</time>
      </trkpt>
      <trkpt lat="43.40925" lon="2.08107">
        <ele>613.8</ele>
        <time>2023-10-01T09:34:14Z</time>
      </trkpt>
      <trkpt lat="43.40922" lon="2.08109">
        <ele>613.8</ele>
        <time>2023-10-01T09:34:15Z</time>
      </trkpt>
      <trkpt lat="43.40919" lon="2.08112">
        <ele>614</ele>
        <time>2023-10-01T09:34:16Z</time>
      </trkpt>
      <trkpt lat="43.40916" lon="2.08114">
        <ele>614</ele>
        <time>2023-10-01T09:34:17Z</time>
      </trkpt>
      <trkpt lat="43.40913" lon="2.08116">
        <ele>614.2</ele>
        <time>2023-10-01T09:34:18Z</time>
      </trkpt>
      <trkpt lat="43.4091" lon="2.08119">
        <ele>614.2</ele>
        <time>2023-10-01T09:34:19Z</time>
      </trkpt>
      <trkpt lat="43.40897" lon="2.08127">
        <ele>614.6</ele>
        <time>2023-10-01T09:34:23Z</time>
      </trkpt>
      <trkpt lat="43.4089" lon="2.08127">
        <ele>615</ele>
        <time>2023-10-01T09:34:25Z</time>
      </trkpt>
      <trkpt lat="43.40887" lon="2.08125">
        <ele>615</ele>
        <time>2023-10-01T09:34:26Z</time>
      </trkpt>
      <trkpt lat="43.40884" lon="2.08122">
        <ele>615.2</ele>
        <time>2023-10-01T09:34:27Z</time>
      </trkpt>
      <trkpt lat="43.40881" lon="2.08119">
        <ele>615.2</ele>
        <time>2023-10-01T09:34:28Z</time>
      </trkpt>
      <trkpt lat="43.40878" lon="2.08115">
        <ele>615.4</ele>
        <time>2023-10-01T09:34:29Z</time>
      </trkpt>
      <trkpt lat="43.40876" lon="2.08111">
        <ele>615.4</ele>
        <time>2023-10-01T09:34:30Z</time>
      </trkpt>
      <trkpt lat="43.40873" lon="2.08108">
        <ele>615.4</ele>
        <time>2023-10-01T09:34:31Z</time>
      </trkpt>
      <trkpt lat="43.40866" lon="2.08105">
        <ele>615.4</ele>
        <time>2023-10-01T09:34:33Z</time>
      </trkpt>
      <trkpt lat="43.40862" lon="2.08104">
        <ele>615.4</ele>
        <time>2023-10-01T09:34:34Z</time>
      </trkpt>
      <trkpt lat="43.40858" lon="2.08103">
        <ele>615.4</ele>
        <time>2023-10-01T09:34:35Z</time>
      </trkpt>
      <trkpt lat="43.40833" lon="2.08096">
        <ele>615.2</ele>
        <time>2023-10-01T09:34:41Z</time>
      </trkpt>
      <trkpt lat="43.40818" lon="2.08083">
        <ele>614.8</ele>
        <time>2023-10-01T09:34:46Z</time>
      </trkpt>
      <trkpt lat="43.40816" lon="2.08082">
        <ele>614.8</ele>
        <time>2023-10-01T09:34:47Z</time>
      </trkpt>
      <trkpt lat="43.40814" lon="2.08081">
        <ele>614.8</ele>
        <time>2023-10-01T09:34:48Z</time>
      </trkpt>
      <trkpt lat="43.40812" lon="2.08081">
        <ele>615</ele>
        <time>2023-10-01T09:34:49Z</time>
      </trkpt>
      <trkpt lat="43.40812" lon="2.0808">
        <ele>615</ele>
        <time>2023-10-01T09:34:50Z</time>
      </trkpt>
      <trkpt lat="43.40812" lon="2.0808">
        <ele>615</ele>
        <time>2023-10-01T09:34:51Z</time>
      </trkpt>
      <trkpt lat="43.40812" lon="2.0808">
        <ele>615</ele>
        <time>2023-10-01T09:34:53Z</time>
      </trkpt>
    </trkseg>
  </trk>
</gpx>